<?xml version="1.0" encoding="UTF-8"?>
<TrainingCenterDatabase xmlns="http://www.garmin.com/xmlschemas/TrainingCenterDatabase/v2" xmlns:xsi="http://www.w3.org/2001/XMLSchema-instance" xsi:schemaLocation="http://www.garmin.com/xmlschemas/TrainingCenterDatabase/v2 http://www.garmin.com/xmlschemas/TrainingCenterDatabasev2.xsd">
  <Activities>
    <Activity Sport="Other">
      <Id>2018-06-10T07:35:29.000Z</Id>
      <Lap StartTime="2018-06-10T07:35:29.000Z">
        <TotalTimeSeconds>14848</TotalTimeSeconds>
        <DistanceMeters>18210</DistanceMeters>
        <Track>
          <Trackpoint>
            <Time>2018-06-10T07:35:29.000Z</Time>
            <Position>
              <LatitudeDegrees>35.891912877559661865234375</LatitudeDegrees>
              <LongitudeDegrees>-5.32653249800205230712890625</LongitudeDegrees>
            </Position>
            <AltitudeMeters>27.799999237060546875</AltitudeMeters>
            <DistanceMeters>0</DistanceMeters>
          </Trackpoint>
          <Trackpoint>
            <Time>2018-06-10T07:35:30.000Z</Time>
            <Position>
              <LatitudeDegrees>35.89192570187151432037353515625</LatitudeDegrees>
              <LongitudeDegrees>-5.32652604393661022186279296875</LongitudeDegrees>
            </Position>
            <AltitudeMeters>27.799999237060546875</AltitudeMeters>
            <DistanceMeters>1.5410743345991</DistanceMeters>
          </Trackpoint>
          <Trackpoint>
            <Time>2018-06-10T07:35:40.000Z</Time>
            <Position>
              <LatitudeDegrees>35.8920531906187534332275390625</LatitudeDegrees>
              <LongitudeDegrees>-5.326510034501552581787109375</LongitudeDegrees>
            </Position>
            <AltitudeMeters>26.799999237060546875</AltitudeMeters>
            <DistanceMeters>15.804580996089</DistanceMeters>
          </Trackpoint>
          <Trackpoint>
            <Time>2018-06-10T07:35:42.000Z</Time>
            <Position>
              <LatitudeDegrees>35.892072133719921112060546875</LatitudeDegrees>
              <LongitudeDegrees>-5.326515398919582366943359375</LongitudeDegrees>
            </Position>
            <AltitudeMeters>26.799999237060546875</AltitudeMeters>
            <DistanceMeters>17.969438883899</DistanceMeters>
          </Trackpoint>
          <Trackpoint>
            <Time>2018-06-10T07:35:46.000Z</Time>
            <Position>
              <LatitudeDegrees>35.89210121892392635345458984375</LatitudeDegrees>
              <LongitudeDegrees>-5.32650793902575969696044921875</LongitudeDegrees>
            </Position>
            <AltitudeMeters>26.6000003814697265625</AltitudeMeters>
            <DistanceMeters>21.274948299584</DistanceMeters>
          </Trackpoint>
          <Trackpoint>
            <Time>2018-06-10T07:35:49.000Z</Time>
            <Position>
              <LatitudeDegrees>35.89212586171925067901611328125</LatitudeDegrees>
              <LongitudeDegrees>-5.32648731954395771026611328125</LongitudeDegrees>
            </Position>
            <AltitudeMeters>26.3999996185302734375</AltitudeMeters>
            <DistanceMeters>24.588643058588</DistanceMeters>
          </Trackpoint>
          <Trackpoint>
            <Time>2018-06-10T07:35:56.000Z</Time>
            <Position>
              <LatitudeDegrees>35.89219115674495697021484375</LatitudeDegrees>
              <LongitudeDegrees>-5.3263794444501399993896484375</LongitudeDegrees>
            </Position>
            <AltitudeMeters>25.6000003814697265625</AltitudeMeters>
            <DistanceMeters>36.730513920364</DistanceMeters>
          </Trackpoint>
          <Trackpoint>
            <Time>2018-06-10T07:35:57.000Z</Time>
            <Position>
              <LatitudeDegrees>35.89220859110355377197265625</LatitudeDegrees>
              <LongitudeDegrees>-5.32638388685882091522216796875</LongitudeDegrees>
            </Position>
            <AltitudeMeters>25.6000003814697265625</AltitudeMeters>
            <DistanceMeters>38.714729969479</DistanceMeters>
          </Trackpoint>
          <Trackpoint>
            <Time>2018-06-10T07:36:04.000Z</Time>
            <Position>
              <LatitudeDegrees>35.89230121113359928131103515625</LatitudeDegrees>
              <LongitudeDegrees>-5.3264662809669971466064453125</LongitudeDegrees>
            </Position>
            <AltitudeMeters>25.3999996185302734375</AltitudeMeters>
            <DistanceMeters>51.421688570749</DistanceMeters>
          </Trackpoint>
          <Trackpoint>
            <Time>2018-06-10T07:36:08.000Z</Time>
            <Position>
              <LatitudeDegrees>35.8923482336103916168212890625</LatitudeDegrees>
              <LongitudeDegrees>-5.3264964558184146881103515625</LongitudeDegrees>
            </Position>
            <AltitudeMeters>25.3999996185302734375</AltitudeMeters>
            <DistanceMeters>57.321003328838</DistanceMeters>
          </Trackpoint>
          <Trackpoint>
            <Time>2018-06-10T07:36:19.000Z</Time>
            <Position>
              <LatitudeDegrees>35.8923934958875179290771484375</LatitudeDegrees>
              <LongitudeDegrees>-5.32657206058502197265625</LongitudeDegrees>
            </Position>
            <AltitudeMeters>25.3999996185302734375</AltitudeMeters>
            <DistanceMeters>65.798110638587</DistanceMeters>
          </Trackpoint>
          <Trackpoint>
            <Time>2018-06-10T07:36:26.000Z</Time>
            <Position>
              <LatitudeDegrees>35.8924377523362636566162109375</LatitudeDegrees>
              <LongitudeDegrees>-5.3266392834484577178955078125</LongitudeDegrees>
            </Position>
            <AltitudeMeters>25.6000003814697265625</AltitudeMeters>
            <DistanceMeters>73.60824292805</DistanceMeters>
          </Trackpoint>
          <Trackpoint>
            <Time>2018-06-10T07:36:28.000Z</Time>
            <Position>
              <LatitudeDegrees>35.8924722857773303985595703125</LatitudeDegrees>
              <LongitudeDegrees>-5.3266570530831813812255859375</LongitudeDegrees>
            </Position>
            <AltitudeMeters>25.3999996185302734375</AltitudeMeters>
            <DistanceMeters>77.772104930133</DistanceMeters>
          </Trackpoint>
          <Trackpoint>
            <Time>2018-06-10T07:36:29.000Z</Time>
            <Position>
              <LatitudeDegrees>35.89248393662273883819580078125</LatitudeDegrees>
              <LongitudeDegrees>-5.3266667760908603668212890625</LongitudeDegrees>
            </Position>
            <AltitudeMeters>25.3999996185302734375</AltitudeMeters>
            <DistanceMeters>79.333553180915</DistanceMeters>
          </Trackpoint>
          <Trackpoint>
            <Time>2018-06-10T07:36:42.000Z</Time>
            <Position>
              <LatitudeDegrees>35.89254143647849559783935546875</LatitudeDegrees>
              <LongitudeDegrees>-5.326826535165309906005859375</LongitudeDegrees>
            </Position>
            <AltitudeMeters>26</AltitudeMeters>
            <DistanceMeters>95.096248171161</DistanceMeters>
          </Trackpoint>
          <Trackpoint>
            <Time>2018-06-10T07:36:44.000Z</Time>
            <Position>
              <LatitudeDegrees>35.89255786500871181488037109375</LatitudeDegrees>
              <LongitudeDegrees>-5.32684497535228729248046875</LongitudeDegrees>
            </Position>
            <AltitudeMeters>25.799999237060546875</AltitudeMeters>
            <DistanceMeters>97.568769506267</DistanceMeters>
          </Trackpoint>
          <Trackpoint>
            <Time>2018-06-10T07:36:52.000Z</Time>
            <Position>
              <LatitudeDegrees>35.89263129048049449920654296875</LatitudeDegrees>
              <LongitudeDegrees>-5.32694631256163120269775390625</LongitudeDegrees>
            </Position>
            <AltitudeMeters>25.3999996185302734375</AltitudeMeters>
            <DistanceMeters>109.82758397506</DistanceMeters>
          </Trackpoint>
          <Trackpoint>
            <Time>2018-06-10T07:36:54.000Z</Time>
            <Position>
              <LatitudeDegrees>35.8926399238407611846923828125</LatitudeDegrees>
              <LongitudeDegrees>-5.32697028480470180511474609375</LongitudeDegrees>
            </Position>
            <AltitudeMeters>25.3999996185302734375</AltitudeMeters>
            <DistanceMeters>112.18991063375</DistanceMeters>
          </Trackpoint>
          <Trackpoint>
            <Time>2018-06-10T07:37:08.000Z</Time>
            <Position>
              <LatitudeDegrees>35.89269499294459819793701171875</LatitudeDegrees>
              <LongitudeDegrees>-5.32716709189116954803466796875</LongitudeDegrees>
            </Position>
            <AltitudeMeters>25.6000003814697265625</AltitudeMeters>
            <DistanceMeters>130.96412097233</DistanceMeters>
          </Trackpoint>
          <Trackpoint>
            <Time>2018-06-10T07:37:10.000Z</Time>
            <Position>
              <LatitudeDegrees>35.89269465766847133636474609375</LatitudeDegrees>
              <LongitudeDegrees>-5.32719424925744533538818359375</LongitudeDegrees>
            </Position>
            <AltitudeMeters>25.6000003814697265625</AltitudeMeters>
            <DistanceMeters>133.41278811157</DistanceMeters>
          </Trackpoint>
          <Trackpoint>
            <Time>2018-06-10T07:37:18.000Z</Time>
            <Position>
              <LatitudeDegrees>35.8927274309098720550537109375</LatitudeDegrees>
              <LongitudeDegrees>-5.327294580638408660888671875</LongitudeDegrees>
            </Position>
            <AltitudeMeters>25.3999996185302734375</AltitudeMeters>
            <DistanceMeters>143.16680704806</DistanceMeters>
          </Trackpoint>
          <Trackpoint>
            <Time>2018-06-10T07:37:20.000Z</Time>
            <Position>
              <LatitudeDegrees>35.89274025522172451019287109375</LatitudeDegrees>
              <LongitudeDegrees>-5.32731947489082813262939453125</LongitudeDegrees>
            </Position>
            <AltitudeMeters>25.3999996185302734375</AltitudeMeters>
            <DistanceMeters>145.82585760336</DistanceMeters>
          </Trackpoint>
          <Trackpoint>
            <Time>2018-06-10T07:37:24.000Z</Time>
            <Position>
              <LatitudeDegrees>35.892745368182659149169921875</LatitudeDegrees>
              <LongitudeDegrees>-5.3273748792707920074462890625</LongitudeDegrees>
            </Position>
            <AltitudeMeters>25.3999996185302734375</AltitudeMeters>
            <DistanceMeters>150.85419868597</DistanceMeters>
          </Trackpoint>
          <Trackpoint>
            <Time>2018-06-10T07:37:25.000Z</Time>
            <Position>
              <LatitudeDegrees>35.89275651611387729644775390625</LatitudeDegrees>
              <LongitudeDegrees>-5.32738820649683475494384765625</LongitudeDegrees>
            </Position>
            <AltitudeMeters>25.200000762939453125</AltitudeMeters>
            <DistanceMeters>152.58305822421</DistanceMeters>
          </Trackpoint>
          <Trackpoint>
            <Time>2018-06-10T07:37:36.000Z</Time>
            <Position>
              <LatitudeDegrees>35.89283647947013378143310546875</LatitudeDegrees>
              <LongitudeDegrees>-5.3275331296026706695556640625</LongitudeDegrees>
            </Position>
            <AltitudeMeters>24.6000003814697265625</AltitudeMeters>
            <DistanceMeters>168.39351603294</DistanceMeters>
          </Trackpoint>
          <Trackpoint>
            <Time>2018-06-10T07:37:40.000Z</Time>
            <Position>
              <LatitudeDegrees>35.89282776229083538055419921875</LatitudeDegrees>
              <LongitudeDegrees>-5.3275988437235355377197265625</LongitudeDegrees>
            </Position>
            <AltitudeMeters>24.799999237060546875</AltitudeMeters>
            <DistanceMeters>174.39827208466</DistanceMeters>
          </Trackpoint>
          <Trackpoint>
            <Time>2018-06-10T07:37:45.000Z</Time>
            <Position>
              <LatitudeDegrees>35.8927857689559459686279296875</LatitudeDegrees>
              <LongitudeDegrees>-5.3276927210390567779541015625</LongitudeDegrees>
            </Position>
            <AltitudeMeters>25.3999996185302734375</AltitudeMeters>
            <DistanceMeters>184.06767803853</DistanceMeters>
          </Trackpoint>
          <Trackpoint>
            <Time>2018-06-10T07:37:47.000Z</Time>
            <Position>
              <LatitudeDegrees>35.89275039732456207275390625</LatitudeDegrees>
              <LongitudeDegrees>-5.3277289308607578277587890625</LongitudeDegrees>
            </Position>
            <AltitudeMeters>25.799999237060546875</AltitudeMeters>
            <DistanceMeters>189.18237563058</DistanceMeters>
          </Trackpoint>
          <Trackpoint>
            <Time>2018-06-10T07:37:54.000Z</Time>
            <Position>
              <LatitudeDegrees>35.89274377562105655670166015625</LatitudeDegrees>
              <LongitudeDegrees>-5.3277294337749481201171875</LongitudeDegrees>
            </Position>
            <AltitudeMeters>25.799999237060546875</AltitudeMeters>
            <DistanceMeters>189.91844939498</DistanceMeters>
          </Trackpoint>
          <Trackpoint>
            <Time>2018-06-10T07:37:55.000Z</Time>
            <Position>
              <LatitudeDegrees>35.892752744257450103759765625</LatitudeDegrees>
              <LongitudeDegrees>-5.327727757394313812255859375</LongitudeDegrees>
            </Position>
            <AltitudeMeters>25.799999237060546875</AltitudeMeters>
            <DistanceMeters>190.93305706034</DistanceMeters>
          </Trackpoint>
          <Trackpoint>
            <Time>2018-06-10T07:38:00.000Z</Time>
            <Position>
              <LatitudeDegrees>35.892786942422389984130859375</LatitudeDegrees>
              <LongitudeDegrees>-5.32778986729681491851806640625</LongitudeDegrees>
            </Position>
            <AltitudeMeters>25.3999996185302734375</AltitudeMeters>
            <DistanceMeters>197.70466899417</DistanceMeters>
          </Trackpoint>
          <Trackpoint>
            <Time>2018-06-10T07:38:12.000Z</Time>
            <Position>
              <LatitudeDegrees>35.89284787885844707489013671875</LatitudeDegrees>
              <LongitudeDegrees>-5.32800679095089435577392578125</LongitudeDegrees>
            </Position>
            <AltitudeMeters>25</AltitudeMeters>
            <DistanceMeters>218.40675724891</DistanceMeters>
          </Trackpoint>
          <Trackpoint>
            <Time>2018-06-10T07:38:26.000Z</Time>
            <Position>
              <LatitudeDegrees>35.8928410895168781280517578125</LatitudeDegrees>
              <LongitudeDegrees>-5.328243412077426910400390625</LongitudeDegrees>
            </Position>
            <AltitudeMeters>25.200000762939453125</AltitudeMeters>
            <DistanceMeters>239.75585742743</DistanceMeters>
          </Trackpoint>
          <Trackpoint>
            <Time>2018-06-10T07:38:27.000Z</Time>
            <Position>
              <LatitudeDegrees>35.8928422629833221435546875</LatitudeDegrees>
              <LongitudeDegrees>-5.328262187540531158447265625</LongitudeDegrees>
            </Position>
            <AltitudeMeters>25.200000762939453125</AltitudeMeters>
            <DistanceMeters>241.45308881579</DistanceMeters>
          </Trackpoint>
          <Trackpoint>
            <Time>2018-06-10T07:38:29.000Z</Time>
            <Position>
              <LatitudeDegrees>35.89285106398165225982666015625</LatitudeDegrees>
              <LongitudeDegrees>-5.32830468378961086273193359375</LongitudeDegrees>
            </Position>
            <AltitudeMeters>25.200000762939453125</AltitudeMeters>
            <DistanceMeters>245.40784448472</DistanceMeters>
          </Trackpoint>
          <Trackpoint>
            <Time>2018-06-10T07:38:35.000Z</Time>
            <Position>
              <LatitudeDegrees>35.89285911060869693756103515625</LatitudeDegrees>
              <LongitudeDegrees>-5.328407026827335357666015625</LongitudeDegrees>
            </Position>
            <AltitudeMeters>25.200000762939453125</AltitudeMeters>
            <DistanceMeters>254.67916033901</DistanceMeters>
          </Trackpoint>
          <Trackpoint>
            <Time>2018-06-10T07:38:49.000Z</Time>
            <Position>
              <LatitudeDegrees>35.8928954042494297027587890625</LatitudeDegrees>
              <LongitudeDegrees>-5.3286113776266574859619140625</LongitudeDegrees>
            </Position>
            <AltitudeMeters>25.200000762939453125</AltitudeMeters>
            <DistanceMeters>273.54238202031</DistanceMeters>
          </Trackpoint>
          <Trackpoint>
            <Time>2018-06-10T07:38:50.000Z</Time>
            <Position>
              <LatitudeDegrees>35.89290403760969638824462890625</LatitudeDegrees>
              <LongitudeDegrees>-5.3286274708807468414306640625</LongitudeDegrees>
            </Position>
            <AltitudeMeters>25.200000762939453125</AltitudeMeters>
            <DistanceMeters>275.28165646924</DistanceMeters>
          </Trackpoint>
          <Trackpoint>
            <Time>2018-06-10T07:39:04.000Z</Time>
            <Position>
              <LatitudeDegrees>35.89295399375259876251220703125</LatitudeDegrees>
              <LongitudeDegrees>-5.32885403372347354888916015625</LongitudeDegrees>
            </Position>
            <AltitudeMeters>25</AltitudeMeters>
            <DistanceMeters>296.45321603687</DistanceMeters>
          </Trackpoint>
          <Trackpoint>
            <Time>2018-06-10T07:39:08.000Z</Time>
            <Position>
              <LatitudeDegrees>35.89296229183673858642578125</LatitudeDegrees>
              <LongitudeDegrees>-5.32891161739826202392578125</LongitudeDegrees>
            </Position>
            <AltitudeMeters>24.799999237060546875</AltitudeMeters>
            <DistanceMeters>301.72698465593</DistanceMeters>
          </Trackpoint>
          <Trackpoint>
            <Time>2018-06-10T07:39:13.000Z</Time>
            <Position>
              <LatitudeDegrees>35.89296991936862468719482421875</LatitudeDegrees>
              <LongitudeDegrees>-5.32897657714784145355224609375</LongitudeDegrees>
            </Position>
            <AltitudeMeters>25</AltitudeMeters>
            <DistanceMeters>307.64616505549</DistanceMeters>
          </Trackpoint>
          <Trackpoint>
            <Time>2018-06-10T07:39:19.000Z</Time>
            <Position>
              <LatitudeDegrees>35.89298768900334835052490234375</LatitudeDegrees>
              <LongitudeDegrees>-5.3290665149688720703125</LongitudeDegrees>
            </Position>
            <AltitudeMeters>25.3999996185302734375</AltitudeMeters>
            <DistanceMeters>315.99338434346</DistanceMeters>
          </Trackpoint>
          <Trackpoint>
            <Time>2018-06-10T07:39:23.000Z</Time>
            <Position>
              <LatitudeDegrees>35.89302674867212772369384765625</LatitudeDegrees>
              <LongitudeDegrees>-5.329123176634311676025390625</LongitudeDegrees>
            </Position>
            <AltitudeMeters>25.3999996185302734375</AltitudeMeters>
            <DistanceMeters>322.70135504407</DistanceMeters>
          </Trackpoint>
          <Trackpoint>
            <Time>2018-06-10T07:39:25.000Z</Time>
            <Position>
              <LatitudeDegrees>35.89304485358297824859619140625</LatitudeDegrees>
              <LongitudeDegrees>-5.32915377058088779449462890625</LongitudeDegrees>
            </Position>
            <AltitudeMeters>25.3999996185302734375</AltitudeMeters>
            <DistanceMeters>326.11703341968</DistanceMeters>
          </Trackpoint>
          <Trackpoint>
            <Time>2018-06-10T07:39:41.000Z</Time>
            <Position>
              <LatitudeDegrees>35.8931197039783000946044921875</LatitudeDegrees>
              <LongitudeDegrees>-5.329368598759174346923828125</LongitudeDegrees>
            </Position>
            <AltitudeMeters>25.799999237060546875</AltitudeMeters>
            <DistanceMeters>347.20311660143</DistanceMeters>
          </Trackpoint>
          <Trackpoint>
            <Time>2018-06-10T07:39:53.000Z</Time>
            <Position>
              <LatitudeDegrees>35.89323981665074825286865234375</LatitudeDegrees>
              <LongitudeDegrees>-5.32954654656350612640380859375</LongitudeDegrees>
            </Position>
            <AltitudeMeters>25.6000003814697265625</AltitudeMeters>
            <DistanceMeters>368.08781799734</DistanceMeters>
          </Trackpoint>
          <Trackpoint>
            <Time>2018-06-10T07:40:03.000Z</Time>
            <Position>
              <LatitudeDegrees>35.89331827126443386077880859375</LatitudeDegrees>
              <LongitudeDegrees>-5.3296983428299427032470703125</LongitudeDegrees>
            </Position>
            <AltitudeMeters>25.3999996185302734375</AltitudeMeters>
            <DistanceMeters>384.32320931998</DistanceMeters>
          </Trackpoint>
          <Trackpoint>
            <Time>2018-06-10T07:40:11.000Z</Time>
            <Position>
              <LatitudeDegrees>35.89337241835892200469970703125</LatitudeDegrees>
              <LongitudeDegrees>-5.329799763858318328857421875</LongitudeDegrees>
            </Position>
            <AltitudeMeters>25.200000762939453125</AltitudeMeters>
            <DistanceMeters>395.27563076373</DistanceMeters>
          </Trackpoint>
          <Trackpoint>
            <Time>2018-06-10T07:40:21.000Z</Time>
            <Position>
              <LatitudeDegrees>35.8934764377772808074951171875</LatitudeDegrees>
              <LongitudeDegrees>-5.3299092315137386322021484375</LongitudeDegrees>
            </Position>
            <AltitudeMeters>24.6000003814697265625</AltitudeMeters>
            <DistanceMeters>410.48940476664</DistanceMeters>
          </Trackpoint>
          <Trackpoint>
            <Time>2018-06-10T07:40:25.000Z</Time>
            <Position>
              <LatitudeDegrees>35.89354776777327060699462890625</LatitudeDegrees>
              <LongitudeDegrees>-5.32996949739754199981689453125</LongitudeDegrees>
            </Position>
            <AltitudeMeters>24.3999996185302734375</AltitudeMeters>
            <DistanceMeters>420.11012633784</DistanceMeters>
          </Trackpoint>
          <Trackpoint>
            <Time>2018-06-10T07:40:30.000Z</Time>
            <Position>
              <LatitudeDegrees>35.8935649506747722625732421875</LatitudeDegrees>
              <LongitudeDegrees>-5.33005532808601856231689453125</LongitudeDegrees>
            </Position>
            <AltitudeMeters>24.200000762939453125</AltitudeMeters>
            <DistanceMeters>428.0816160315</DistanceMeters>
          </Trackpoint>
          <Trackpoint>
            <Time>2018-06-10T07:40:37.000Z</Time>
            <Position>
              <LatitudeDegrees>35.89352815411984920501708984375</LatitudeDegrees>
              <LongitudeDegrees>-5.33016898669302463531494140625</LongitudeDegrees>
            </Position>
            <AltitudeMeters>24.6000003814697265625</AltitudeMeters>
            <DistanceMeters>439.11740512878</DistanceMeters>
          </Trackpoint>
          <Trackpoint>
            <Time>2018-06-10T07:40:41.000Z</Time>
            <Position>
              <LatitudeDegrees>35.89349932037293910980224609375</LatitudeDegrees>
              <LongitudeDegrees>-5.330229587852954864501953125</LongitudeDegrees>
            </Position>
            <AltitudeMeters>24.799999237060546875</AltitudeMeters>
            <DistanceMeters>445.45434050373</DistanceMeters>
          </Trackpoint>
          <Trackpoint>
            <Time>2018-06-10T07:40:43.000Z</Time>
            <Position>
              <LatitudeDegrees>35.8935005776584148406982421875</LatitudeDegrees>
              <LongitudeDegrees>-5.33025548793375492095947265625</LongitudeDegrees>
            </Position>
            <AltitudeMeters>24.799999237060546875</AltitudeMeters>
            <DistanceMeters>447.79361952193</DistanceMeters>
          </Trackpoint>
          <Trackpoint>
            <Time>2018-06-10T07:40:45.000Z</Time>
            <Position>
              <LatitudeDegrees>35.89350971393287181854248046875</LatitudeDegrees>
              <LongitudeDegrees>-5.3302857466042041778564453125</LongitudeDegrees>
            </Position>
            <AltitudeMeters>24.799999237060546875</AltitudeMeters>
            <DistanceMeters>450.70553328798</DistanceMeters>
          </Trackpoint>
          <Trackpoint>
            <Time>2018-06-10T07:40:48.000Z</Time>
            <Position>
              <LatitudeDegrees>35.89355397038161754608154296875</LatitudeDegrees>
              <LongitudeDegrees>-5.33031432889401912689208984375</LongitudeDegrees>
            </Position>
            <AltitudeMeters>24.3999996185302734375</AltitudeMeters>
            <DistanceMeters>456.26601723671</DistanceMeters>
          </Trackpoint>
          <Trackpoint>
            <Time>2018-06-10T07:40:50.000Z</Time>
            <Position>
              <LatitudeDegrees>35.8935605920851230621337890625</LatitudeDegrees>
              <LongitudeDegrees>-5.3303410671651363372802734375</LongitudeDegrees>
            </Position>
            <AltitudeMeters>24.200000762939453125</AltitudeMeters>
            <DistanceMeters>458.78736088971</DistanceMeters>
          </Trackpoint>
          <Trackpoint>
            <Time>2018-06-10T07:40:56.000Z</Time>
            <Position>
              <LatitudeDegrees>35.89357727207243442535400390625</LatitudeDegrees>
              <LongitudeDegrees>-5.330394208431243896484375</LongitudeDegrees>
            </Position>
            <AltitudeMeters>24</AltitudeMeters>
            <DistanceMeters>463.92583766033</DistanceMeters>
          </Trackpoint>
          <Trackpoint>
            <Time>2018-06-10T07:40:59.000Z</Time>
            <Position>
              <LatitudeDegrees>35.89355262927711009979248046875</LatitudeDegrees>
              <LongitudeDegrees>-5.33044408075511455535888671875</LongitudeDegrees>
            </Position>
            <AltitudeMeters>24.3999996185302734375</AltitudeMeters>
            <DistanceMeters>469.19275277601</DistanceMeters>
          </Trackpoint>
          <Trackpoint>
            <Time>2018-06-10T07:41:11.000Z</Time>
            <Position>
              <LatitudeDegrees>35.8935890905559062957763671875</LatitudeDegrees>
              <LongitudeDegrees>-5.33062378875911235809326171875</LongitudeDegrees>
            </Position>
            <AltitudeMeters>23.3999996185302734375</AltitudeMeters>
            <DistanceMeters>485.89665447717</DistanceMeters>
          </Trackpoint>
          <Trackpoint>
            <Time>2018-06-10T07:41:25.000Z</Time>
            <Position>
              <LatitudeDegrees>35.8936450816690921783447265625</LatitudeDegrees>
              <LongitudeDegrees>-5.33079612068831920623779296875</LongitudeDegrees>
            </Position>
            <AltitudeMeters>22.200000762939453125</AltitudeMeters>
            <DistanceMeters>502.63808549926</DistanceMeters>
          </Trackpoint>
          <Trackpoint>
            <Time>2018-06-10T07:41:39.000Z</Time>
            <Position>
              <LatitudeDegrees>35.89367450214922428131103515625</LatitudeDegrees>
              <LongitudeDegrees>-5.33096015453338623046875</LongitudeDegrees>
            </Position>
            <AltitudeMeters>21</AltitudeMeters>
            <DistanceMeters>517.7864287286</DistanceMeters>
          </Trackpoint>
          <Trackpoint>
            <Time>2018-06-10T07:41:41.000Z</Time>
            <Position>
              <LatitudeDegrees>35.89368506334722042083740234375</LatitudeDegrees>
              <LongitudeDegrees>-5.330993346869945526123046875</LongitudeDegrees>
            </Position>
            <AltitudeMeters>20.799999237060546875</AltitudeMeters>
            <DistanceMeters>521.00192830539</DistanceMeters>
          </Trackpoint>
          <Trackpoint>
            <Time>2018-06-10T07:41:48.000Z</Time>
            <Position>
              <LatitudeDegrees>35.89383627288043498992919921875</LatitudeDegrees>
              <LongitudeDegrees>-5.3311655111610889434814453125</LongitudeDegrees>
            </Position>
            <AltitudeMeters>18.3999996185302734375</AltitudeMeters>
            <DistanceMeters>543.89784557903</DistanceMeters>
          </Trackpoint>
          <Trackpoint>
            <Time>2018-06-10T07:41:51.000Z</Time>
            <Position>
              <LatitudeDegrees>35.89386887848377227783203125</LatitudeDegrees>
              <LongitudeDegrees>-5.331216640770435333251953125</LongitudeDegrees>
            </Position>
            <AltitudeMeters>17.799999237060546875</AltitudeMeters>
            <DistanceMeters>549.76415799212</DistanceMeters>
          </Trackpoint>
          <Trackpoint>
            <Time>2018-06-10T07:41:52.000Z</Time>
            <Position>
              <LatitudeDegrees>35.89387550018727779388427734375</LatitudeDegrees>
              <LongitudeDegrees>-5.3312386013567447662353515625</LongitudeDegrees>
            </Position>
            <AltitudeMeters>17.6000003814697265625</AltitudeMeters>
            <DistanceMeters>551.8762322719</DistanceMeters>
          </Trackpoint>
          <Trackpoint>
            <Time>2018-06-10T07:42:00.000Z</Time>
            <Position>
              <LatitudeDegrees>35.8938901685178279876708984375</LatitudeDegrees>
              <LongitudeDegrees>-5.33139660023152828216552734375</LongitudeDegrees>
            </Position>
            <AltitudeMeters>16.200000762939453125</AltitudeMeters>
            <DistanceMeters>566.21550842619</DistanceMeters>
          </Trackpoint>
          <Trackpoint>
            <Time>2018-06-10T07:42:04.000Z</Time>
            <Position>
              <LatitudeDegrees>35.8938821218907833099365234375</LatitudeDegrees>
              <LongitudeDegrees>-5.33144873566925525665283203125</LongitudeDegrees>
            </Position>
            <AltitudeMeters>15.6000003814697265625</AltitudeMeters>
            <DistanceMeters>571.00093148605</DistanceMeters>
          </Trackpoint>
          <Trackpoint>
            <Time>2018-06-10T07:42:05.000Z</Time>
            <Position>
              <LatitudeDegrees>35.893879272043704986572265625</LatitudeDegrees>
              <LongitudeDegrees>-5.3314635716378688812255859375</LongitudeDegrees>
            </Position>
            <AltitudeMeters>15.6000003814697265625</AltitudeMeters>
            <DistanceMeters>572.37471675922</DistanceMeters>
          </Trackpoint>
          <Trackpoint>
            <Time>2018-06-10T07:42:13.000Z</Time>
            <Position>
              <LatitudeDegrees>35.89386753737926483154296875</LatitudeDegrees>
              <LongitudeDegrees>-5.33158821053802967071533203125</LongitudeDegrees>
            </Position>
            <AltitudeMeters>14.3999996185302734375</AltitudeMeters>
            <DistanceMeters>583.68808511337</DistanceMeters>
          </Trackpoint>
          <Trackpoint>
            <Time>2018-06-10T07:42:22.000Z</Time>
            <Position>
              <LatitudeDegrees>35.8938304893672466278076171875</LatitudeDegrees>
              <LongitudeDegrees>-5.33172215335071086883544921875</LongitudeDegrees>
            </Position>
            <AltitudeMeters>13.3999996185302734375</AltitudeMeters>
            <DistanceMeters>596.44929189762</DistanceMeters>
          </Trackpoint>
          <Trackpoint>
            <Time>2018-06-10T07:42:25.000Z</Time>
            <Position>
              <LatitudeDegrees>35.8938038349151611328125</LatitudeDegrees>
              <LongitudeDegrees>-5.33176909200847148895263671875</LongitudeDegrees>
            </Position>
            <AltitudeMeters>13.19999980926513671875</AltitudeMeters>
            <DistanceMeters>601.61755718892</DistanceMeters>
          </Trackpoint>
          <Trackpoint>
            <Time>2018-06-10T07:42:26.000Z</Time>
            <Position>
              <LatitudeDegrees>35.893792100250720977783203125</LatitudeDegrees>
              <LongitudeDegrees>-5.3317777253687381744384765625</LongitudeDegrees>
            </Position>
            <AltitudeMeters>13.3999996185302734375</AltitudeMeters>
            <DistanceMeters>603.13798461884</DistanceMeters>
          </Trackpoint>
          <Trackpoint>
            <Time>2018-06-10T07:42:30.000Z</Time>
            <Position>
              <LatitudeDegrees>35.89380316436290740966796875</LatitudeDegrees>
              <LongitudeDegrees>-5.33182005397975444793701171875</LongitudeDegrees>
            </Position>
            <AltitudeMeters>12.80000019073486328125</AltitudeMeters>
            <DistanceMeters>607.14716609019</DistanceMeters>
          </Trackpoint>
          <Trackpoint>
            <Time>2018-06-10T07:42:34.000Z</Time>
            <Position>
              <LatitudeDegrees>35.89376829564571380615234375</LatitudeDegrees>
              <LongitudeDegrees>-5.33187143504619598388671875</LongitudeDegrees>
            </Position>
            <AltitudeMeters>12.6000003814697265625</AltitudeMeters>
            <DistanceMeters>613.19164202216</DistanceMeters>
          </Trackpoint>
          <Trackpoint>
            <Time>2018-06-10T07:42:37.000Z</Time>
            <Position>
              <LatitudeDegrees>35.893727056682109832763671875</LatitudeDegrees>
              <LongitudeDegrees>-5.3319172002375125885009765625</LongitudeDegrees>
            </Position>
            <AltitudeMeters>12.6000003814697265625</AltitudeMeters>
            <DistanceMeters>619.36325951198</DistanceMeters>
          </Trackpoint>
          <Trackpoint>
            <Time>2018-06-10T07:42:42.000Z</Time>
            <Position>
              <LatitudeDegrees>35.89368380606174468994140625</LatitudeDegrees>
              <LongitudeDegrees>-5.33198484219610691070556640625</LongitudeDegrees>
            </Position>
            <AltitudeMeters>12.3999996185302734375</AltitudeMeters>
            <DistanceMeters>627.13281941122</DistanceMeters>
          </Trackpoint>
          <Trackpoint>
            <Time>2018-06-10T07:42:53.000Z</Time>
            <Position>
              <LatitudeDegrees>35.8936457522213459014892578125</LatitudeDegrees>
              <LongitudeDegrees>-5.3321696631610393524169921875</LongitudeDegrees>
            </Position>
            <AltitudeMeters>11.19999980926513671875</AltitudeMeters>
            <DistanceMeters>644.32714122905</DistanceMeters>
          </Trackpoint>
          <Trackpoint>
            <Time>2018-06-10T07:43:08.000Z</Time>
            <Position>
              <LatitudeDegrees>35.89355397038161754608154296875</LatitudeDegrees>
              <LongitudeDegrees>-5.33237191848456859588623046875</LongitudeDegrees>
            </Position>
            <AltitudeMeters>10.80000019073486328125</AltitudeMeters>
            <DistanceMeters>665.23021059444</DistanceMeters>
          </Trackpoint>
          <Trackpoint>
            <Time>2018-06-10T07:43:12.000Z</Time>
            <Position>
              <LatitudeDegrees>35.89354307390749454498291015625</LatitudeDegrees>
              <LongitudeDegrees>-5.33244065009057521820068359375</LongitudeDegrees>
            </Position>
            <AltitudeMeters>10.6000003814697265625</AltitudeMeters>
            <DistanceMeters>671.54501998004</DistanceMeters>
          </Trackpoint>
          <Trackpoint>
            <Time>2018-06-10T07:43:19.000Z</Time>
            <Position>
              <LatitudeDegrees>35.89345850050449371337890625</LatitudeDegrees>
              <LongitudeDegrees>-5.332500077784061431884765625</LongitudeDegrees>
            </Position>
            <AltitudeMeters>11.19999980926513671875</AltitudeMeters>
            <DistanceMeters>682.37681499455</DistanceMeters>
          </Trackpoint>
          <Trackpoint>
            <Time>2018-06-10T07:43:22.000Z</Time>
            <Position>
              <LatitudeDegrees>35.8934164233505725860595703125</LatitudeDegrees>
              <LongitudeDegrees>-5.3325240500271320343017578125</LongitudeDegrees>
            </Position>
            <AltitudeMeters>11.6000003814697265625</AltitudeMeters>
            <DistanceMeters>687.53546164656</DistanceMeters>
          </Trackpoint>
          <Trackpoint>
            <Time>2018-06-10T07:43:29.000Z</Time>
            <Position>
              <LatitudeDegrees>35.89341868646442890167236328125</LatitudeDegrees>
              <LongitudeDegrees>-5.33269780687987804412841796875</LongitudeDegrees>
            </Position>
            <AltitudeMeters>10.6000003814697265625</AltitudeMeters>
            <DistanceMeters>703.20449953773</DistanceMeters>
          </Trackpoint>
          <Trackpoint>
            <Time>2018-06-10T07:43:39.000Z</Time>
            <Position>
              <LatitudeDegrees>35.8933453448116779327392578125</LatitudeDegrees>
              <LongitudeDegrees>-5.3328444063663482666015625</LongitudeDegrees>
            </Position>
            <AltitudeMeters>10.6000003814697265625</AltitudeMeters>
            <DistanceMeters>718.74071346992</DistanceMeters>
          </Trackpoint>
          <Trackpoint>
            <Time>2018-06-10T07:43:42.000Z</Time>
            <Position>
              <LatitudeDegrees>35.89333972893655300140380859375</LatitudeDegrees>
              <LongitudeDegrees>-5.33289134502410888671875</LongitudeDegrees>
            </Position>
            <AltitudeMeters>10.3999996185302734375</AltitudeMeters>
            <DistanceMeters>723.02008200142</DistanceMeters>
          </Trackpoint>
          <Trackpoint>
            <Time>2018-06-10T07:43:48.000Z</Time>
            <Position>
              <LatitudeDegrees>35.893320031464099884033203125</LatitudeDegrees>
              <LongitudeDegrees>-5.332970134913921356201171875</LongitudeDegrees>
            </Position>
            <AltitudeMeters>10.19999980926513671875</AltitudeMeters>
            <DistanceMeters>730.45527722346</DistanceMeters>
          </Trackpoint>
          <Trackpoint>
            <Time>2018-06-10T07:43:51.000Z</Time>
            <Position>
              <LatitudeDegrees>35.89330972172319889068603515625</LatitudeDegrees>
              <LongitudeDegrees>-5.3330205939710140228271484375</LongitudeDegrees>
            </Position>
            <AltitudeMeters>10.19999980926513671875</AltitudeMeters>
            <DistanceMeters>735.14732649541</DistanceMeters>
          </Trackpoint>
          <Trackpoint>
            <Time>2018-06-10T07:44:01.000Z</Time>
            <Position>
              <LatitudeDegrees>35.8932982385158538818359375</LatitudeDegrees>
              <LongitudeDegrees>-5.3331828676164150238037109375</LongitudeDegrees>
            </Position>
            <AltitudeMeters>9.3999996185302734375</AltitudeMeters>
            <DistanceMeters>749.83471891781</DistanceMeters>
          </Trackpoint>
          <Trackpoint>
            <Time>2018-06-10T07:44:04.000Z</Time>
            <Position>
              <LatitudeDegrees>35.89329832233488559722900390625</LatitudeDegrees>
              <LongitudeDegrees>-5.33327984623610973358154296875</LongitudeDegrees>
            </Position>
            <AltitudeMeters>9</AltitudeMeters>
            <DistanceMeters>758.57924219398</DistanceMeters>
          </Trackpoint>
          <Trackpoint>
            <Time>2018-06-10T07:44:17.000Z</Time>
            <Position>
              <LatitudeDegrees>35.89334257878363132476806640625</LatitudeDegrees>
              <LongitudeDegrees>-5.33350330777466297149658203125</LongitudeDegrees>
            </Position>
            <AltitudeMeters>7.400000095367431640625</AltitudeMeters>
            <DistanceMeters>779.32142125435</DistanceMeters>
          </Trackpoint>
          <Trackpoint>
            <Time>2018-06-10T07:44:20.000Z</Time>
            <Position>
              <LatitudeDegrees>35.89338197372853755950927734375</LatitudeDegrees>
              <LongitudeDegrees>-5.3334929980337619781494140625</LongitudeDegrees>
            </Position>
            <AltitudeMeters>7</AltitudeMeters>
            <DistanceMeters>783.8048295744</DistanceMeters>
          </Trackpoint>
          <Trackpoint>
            <Time>2018-06-10T07:44:27.000Z</Time>
            <Position>
              <LatitudeDegrees>35.89341164566576480865478515625</LatitudeDegrees>
              <LongitudeDegrees>-5.33346827141940593719482421875</LongitudeDegrees>
            </Position>
            <AltitudeMeters>6.80000019073486328125</AltitudeMeters>
            <DistanceMeters>787.78915817386</DistanceMeters>
          </Trackpoint>
          <Trackpoint>
            <Time>2018-06-10T07:44:34.000Z</Time>
            <Position>
              <LatitudeDegrees>35.89340762235224246978759765625</LatitudeDegrees>
              <LongitudeDegrees>-5.333500541746616363525390625</LongitudeDegrees>
            </Position>
            <AltitudeMeters>6.80000019073486328125</AltitudeMeters>
            <DistanceMeters>790.73345323145</DistanceMeters>
          </Trackpoint>
          <Trackpoint>
            <Time>2018-06-10T07:44:37.000Z</Time>
            <Position>
              <LatitudeDegrees>35.89343662373721599578857421875</LatitudeDegrees>
              <LongitudeDegrees>-5.3335479833185672760009765625</LongitudeDegrees>
            </Position>
            <AltitudeMeters>6</AltitudeMeters>
            <DistanceMeters>796.09383598315</DistanceMeters>
          </Trackpoint>
          <Trackpoint>
            <Time>2018-06-10T07:44:39.000Z</Time>
            <Position>
              <LatitudeDegrees>35.89345514774322509765625</LatitudeDegrees>
              <LongitudeDegrees>-5.3335712850093841552734375</LongitudeDegrees>
            </Position>
            <AltitudeMeters>5.80000019073486328125</AltitudeMeters>
            <DistanceMeters>799.03813104075</DistanceMeters>
          </Trackpoint>
          <Trackpoint>
            <Time>2018-06-10T07:44:41.000Z</Time>
            <Position>
              <LatitudeDegrees>35.89347903616726398468017578125</LatitudeDegrees>
              <LongitudeDegrees>-5.3335898928344249725341796875</LongitudeDegrees>
            </Position>
            <AltitudeMeters>5.400000095367431640625</AltitudeMeters>
            <DistanceMeters>802.18120336408</DistanceMeters>
          </Trackpoint>
          <Trackpoint>
            <Time>2018-06-10T07:44:42.000Z</Time>
            <Position>
              <LatitudeDegrees>35.893490351736545562744140625</LatitudeDegrees>
              <LongitudeDegrees>-5.3335999511182308197021484375</LongitudeDegrees>
            </Position>
            <AltitudeMeters>5.19999980926513671875</AltitudeMeters>
            <DistanceMeters>803.73395267112</DistanceMeters>
          </Trackpoint>
          <Trackpoint>
            <Time>2018-06-10T07:44:43.000Z</Time>
            <Position>
              <LatitudeDegrees>35.89349831454455852508544921875</LatitudeDegrees>
              <LongitudeDegrees>-5.3336110152304172515869140625</LongitudeDegrees>
            </Position>
            <AltitudeMeters>5</AltitudeMeters>
            <DistanceMeters>805.07109706718</DistanceMeters>
          </Trackpoint>
          <Trackpoint>
            <Time>2018-06-10T07:44:49.000Z</Time>
            <Position>
              <LatitudeDegrees>35.89352027513086795806884765625</LatitudeDegrees>
              <LongitudeDegrees>-5.33368418924510478973388671875</LongitudeDegrees>
            </Position>
            <AltitudeMeters>4.19999980926513671875</AltitudeMeters>
            <DistanceMeters>812.1075670019</DistanceMeters>
          </Trackpoint>
          <Trackpoint>
            <Time>2018-06-10T07:45:01.000Z</Time>
            <Position>
              <LatitudeDegrees>35.893519185483455657958984375</LatitudeDegrees>
              <LongitudeDegrees>-5.333893485367298126220703125</LongitudeDegrees>
            </Position>
            <AltitudeMeters>3.400000095367431640625</AltitudeMeters>
            <DistanceMeters>830.97964280257</DistanceMeters>
          </Trackpoint>
          <Trackpoint>
            <Time>2018-06-10T07:45:10.000Z</Time>
            <Position>
              <LatitudeDegrees>35.89352513663470745086669921875</LatitudeDegrees>
              <LongitudeDegrees>-5.33403002656996250152587890625</LongitudeDegrees>
            </Position>
            <AltitudeMeters>3</AltitudeMeters>
            <DistanceMeters>843.30933610508</DistanceMeters>
          </Trackpoint>
          <Trackpoint>
            <Time>2018-06-10T07:45:24.000Z</Time>
            <Position>
              <LatitudeDegrees>35.8935227058827877044677734375</LatitudeDegrees>
              <LongitudeDegrees>-5.33425667323172092437744140625</LongitudeDegrees>
            </Position>
            <AltitudeMeters>2</AltitudeMeters>
            <DistanceMeters>863.74692930956</DistanceMeters>
          </Trackpoint>
          <Trackpoint>
            <Time>2018-06-10T07:45:30.000Z</Time>
            <Position>
              <LatitudeDegrees>35.89351952075958251953125</LatitudeDegrees>
              <LongitudeDegrees>-5.33436245284974575042724609375</LongitudeDegrees>
            </Position>
            <AltitudeMeters>1.39999997615814208984375</AltitudeMeters>
            <DistanceMeters>873.29132091755</DistanceMeters>
          </Trackpoint>
          <Trackpoint>
            <Time>2018-06-10T07:45:42.000Z</Time>
            <Position>
              <LatitudeDegrees>35.89348808862268924713134765625</LatitudeDegrees>
              <LongitudeDegrees>-5.33459010533988475799560546875</LongitudeDegrees>
            </Position>
            <AltitudeMeters>0.20000000298023223876953125</AltitudeMeters>
            <DistanceMeters>894.11410052387</DistanceMeters>
          </Trackpoint>
          <Trackpoint>
            <Time>2018-06-10T07:45:45.000Z</Time>
            <Position>
              <LatitudeDegrees>35.89350636117160320281982421875</LatitudeDegrees>
              <LongitudeDegrees>-5.334645174443721771240234375</LongitudeDegrees>
            </Position>
            <AltitudeMeters>-0.4000000059604644775390625</AltitudeMeters>
            <DistanceMeters>899.47953468182</DistanceMeters>
          </Trackpoint>
          <Trackpoint>
            <Time>2018-06-10T07:45:49.000Z</Time>
            <Position>
              <LatitudeDegrees>35.893541313707828521728515625</LatitudeDegrees>
              <LongitudeDegrees>-5.33471616916358470916748046875</LongitudeDegrees>
            </Position>
            <AltitudeMeters>-0.60000002384185791015625</AltitudeMeters>
            <DistanceMeters>906.9703887735</DistanceMeters>
          </Trackpoint>
          <Trackpoint>
            <Time>2018-06-10T07:45:54.000Z</Time>
            <Position>
              <LatitudeDegrees>35.8935914374887943267822265625</LatitudeDegrees>
              <LongitudeDegrees>-5.33480082638561725616455078125</LongitudeDegrees>
            </Position>
            <AltitudeMeters>-0.800000011920928955078125</AltitudeMeters>
            <DistanceMeters>916.42447236961</DistanceMeters>
          </Trackpoint>
          <Trackpoint>
            <Time>2018-06-10T07:46:09.000Z</Time>
            <Position>
              <LatitudeDegrees>35.89363963343203067779541015625</LatitudeDegrees>
              <LongitudeDegrees>-5.335022695362567901611328125</LongitudeDegrees>
            </Position>
            <AltitudeMeters>0.20000000298023223876953125</AltitudeMeters>
            <DistanceMeters>937.13637260949</DistanceMeters>
          </Trackpoint>
          <Trackpoint>
            <Time>2018-06-10T07:46:17.000Z</Time>
            <Position>
              <LatitudeDegrees>35.89370216242969036102294921875</LatitudeDegrees>
              <LongitudeDegrees>-5.335140042006969451904296875</LongitudeDegrees>
            </Position>
            <AltitudeMeters>0.800000011920928955078125</AltitudeMeters>
            <DistanceMeters>949.8009775302</DistanceMeters>
          </Trackpoint>
          <Trackpoint>
            <Time>2018-06-10T07:46:23.000Z</Time>
            <Position>
              <LatitudeDegrees>35.89374189265072345733642578125</LatitudeDegrees>
              <LongitudeDegrees>-5.33521078526973724365234375</LongitudeDegrees>
            </Position>
            <AltitudeMeters>1</AltitudeMeters>
            <DistanceMeters>957.56297920722</DistanceMeters>
          </Trackpoint>
          <Trackpoint>
            <Time>2018-06-10T07:46:24.000Z</Time>
            <Position>
              <LatitudeDegrees>35.89374809525907039642333984375</LatitudeDegrees>
              <LongitudeDegrees>-5.335220508277416229248046875</LongitudeDegrees>
            </Position>
            <AltitudeMeters>1</AltitudeMeters>
            <DistanceMeters>958.67929034183</DistanceMeters>
          </Trackpoint>
          <Trackpoint>
            <Time>2018-06-10T07:46:35.000Z</Time>
            <Position>
              <LatitudeDegrees>35.89380794204771518707275390625</LatitudeDegrees>
              <LongitudeDegrees>-5.3353470750153064727783203125</LongitudeDegrees>
            </Position>
            <AltitudeMeters>1.7999999523162841796875</AltitudeMeters>
            <DistanceMeters>971.89312998519</DistanceMeters>
          </Trackpoint>
          <Trackpoint>
            <Time>2018-06-10T07:46:49.000Z</Time>
            <Position>
              <LatitudeDegrees>35.89388421736657619476318359375</LatitudeDegrees>
              <LongitudeDegrees>-5.33553533256053924560546875</LongitudeDegrees>
            </Position>
            <AltitudeMeters>3</AltitudeMeters>
            <DistanceMeters>990.87232252201</DistanceMeters>
          </Trackpoint>
          <Trackpoint>
            <Time>2018-06-10T07:46:57.000Z</Time>
            <Position>
              <LatitudeDegrees>35.8939287252724170684814453125</LatitudeDegrees>
              <LongitudeDegrees>-5.33567019738256931304931640625</LongitudeDegrees>
            </Position>
            <AltitudeMeters>4.80000019073486328125</AltitudeMeters>
            <DistanceMeters>1004.0025250897</DistanceMeters>
          </Trackpoint>
          <Trackpoint>
            <Time>2018-06-10T07:46:59.000Z</Time>
            <Position>
              <LatitudeDegrees>35.89393434114754199981689453125</LatitudeDegrees>
              <LongitudeDegrees>-5.33570841886103153228759765625</LongitudeDegrees>
            </Position>
            <AltitudeMeters>5.19999980926513671875</AltitudeMeters>
            <DistanceMeters>1007.5043594391</DistanceMeters>
          </Trackpoint>
          <Trackpoint>
            <Time>2018-06-10T07:47:12.000Z</Time>
            <Position>
              <LatitudeDegrees>35.89402235113084316253662109375</LatitudeDegrees>
              <LongitudeDegrees>-5.33590723760426044464111328125</LongitudeDegrees>
            </Position>
            <AltitudeMeters>8.19999980926513671875</AltitudeMeters>
            <DistanceMeters>1027.9326719681</DistanceMeters>
          </Trackpoint>
          <Trackpoint>
            <Time>2018-06-10T07:47:13.000Z</Time>
            <Position>
              <LatitudeDegrees>35.89403006248176097869873046875</LatitudeDegrees>
              <LongitudeDegrees>-5.33592349849641323089599609375</LongitudeDegrees>
            </Position>
            <AltitudeMeters>8.3999996185302734375</AltitudeMeters>
            <DistanceMeters>1029.6325615122</DistanceMeters>
          </Trackpoint>
          <Trackpoint>
            <Time>2018-06-10T07:47:25.000Z</Time>
            <Position>
              <LatitudeDegrees>35.89412905275821685791015625</LatitudeDegrees>
              <LongitudeDegrees>-5.33611879684031009674072265625</LongitudeDegrees>
            </Position>
            <AltitudeMeters>10.6000003814697265625</AltitudeMeters>
            <DistanceMeters>1050.4047578987</DistanceMeters>
          </Trackpoint>
          <Trackpoint>
            <Time>2018-06-10T07:47:33.000Z</Time>
            <Position>
              <LatitudeDegrees>35.894145481288433074951171875</LatitudeDegrees>
              <LongitudeDegrees>-5.33620781265199184417724609375</LongitudeDegrees>
            </Position>
            <AltitudeMeters>9.80000019073486328125</AltitudeMeters>
            <DistanceMeters>1058.6365070224</DistanceMeters>
          </Trackpoint>
          <Trackpoint>
            <Time>2018-06-10T07:47:48.000Z</Time>
            <Position>
              <LatitudeDegrees>35.89424631558358669281005859375</LatitudeDegrees>
              <LongitudeDegrees>-5.336413085460662841796875</LongitudeDegrees>
            </Position>
            <AltitudeMeters>8.19999980926513671875</AltitudeMeters>
            <DistanceMeters>1080.2821658567</DistanceMeters>
          </Trackpoint>
          <Trackpoint>
            <Time>2018-06-10T07:47:54.000Z</Time>
            <Position>
              <LatitudeDegrees>35.89430230669677257537841796875</LatitudeDegrees>
              <LongitudeDegrees>-5.3364846669137477874755859375</LongitudeDegrees>
            </Position>
            <AltitudeMeters>7.599999904632568359375</AltitudeMeters>
            <DistanceMeters>1089.2540163582</DistanceMeters>
          </Trackpoint>
          <Trackpoint>
            <Time>2018-06-10T07:47:56.000Z</Time>
            <Position>
              <LatitudeDegrees>35.8943226747214794158935546875</LatitudeDegrees>
              <LongitudeDegrees>-5.33650201745331287384033203125</LongitudeDegrees>
            </Position>
            <AltitudeMeters>7.400000095367431640625</AltitudeMeters>
            <DistanceMeters>1092.0065123412</DistanceMeters>
          </Trackpoint>
          <Trackpoint>
            <Time>2018-06-10T07:48:00.000Z</Time>
            <Position>
              <LatitudeDegrees>35.89435712434351444244384765625</LatitudeDegrees>
              <LongitudeDegrees>-5.33655599690973758697509765625</LongitudeDegrees>
            </Position>
            <AltitudeMeters>7</AltitudeMeters>
            <DistanceMeters>1098.20149619</DistanceMeters>
          </Trackpoint>
          <Trackpoint>
            <Time>2018-06-10T07:48:11.000Z</Time>
            <Position>
              <LatitudeDegrees>35.8944242633879184722900390625</LatitudeDegrees>
              <LongitudeDegrees>-5.336744673550128936767578125</LongitudeDegrees>
            </Position>
            <AltitudeMeters>7</AltitudeMeters>
            <DistanceMeters>1116.7828032709</DistanceMeters>
          </Trackpoint>
          <Trackpoint>
            <Time>2018-06-10T07:48:18.000Z</Time>
            <Position>
              <LatitudeDegrees>35.89448989368975162506103515625</LatitudeDegrees>
              <LongitudeDegrees>-5.33684156835079193115234375</LongitudeDegrees>
            </Position>
            <AltitudeMeters>6.80000019073486328125</AltitudeMeters>
            <DistanceMeters>1128.1709531597</DistanceMeters>
          </Trackpoint>
          <Trackpoint>
            <Time>2018-06-10T07:48:23.000Z</Time>
            <Position>
              <LatitudeDegrees>35.89453482069075107574462890625</LatitudeDegrees>
              <LongitudeDegrees>-5.3368940390646457672119140625</LongitudeDegrees>
            </Position>
            <AltitudeMeters>6.400000095367431640625</AltitudeMeters>
            <DistanceMeters>1135.0549811359</DistanceMeters>
          </Trackpoint>
          <Trackpoint>
            <Time>2018-06-10T07:48:24.000Z</Time>
            <Position>
              <LatitudeDegrees>35.89454286731779575347900390625</LatitudeDegrees>
              <LongitudeDegrees>-5.336906611919403076171875</LongitudeDegrees>
            </Position>
            <AltitudeMeters>6.400000095367431640625</AltitudeMeters>
            <DistanceMeters>1136.4961326138</DistanceMeters>
          </Trackpoint>
          <Trackpoint>
            <Time>2018-06-10T07:48:34.000Z</Time>
            <Position>
              <LatitudeDegrees>35.89463355951011180877685546875</LatitudeDegrees>
              <LongitudeDegrees>-5.33702521584928035736083984375</LongitudeDegrees>
            </Position>
            <AltitudeMeters>5.80000019073486328125</AltitudeMeters>
            <DistanceMeters>1151.2016509889</DistanceMeters>
          </Trackpoint>
          <Trackpoint>
            <Time>2018-06-10T07:48:37.000Z</Time>
            <Position>
              <LatitudeDegrees>35.89466641657054424285888671875</LatitudeDegrees>
              <LongitudeDegrees>-5.3370569832623004913330078125</LongitudeDegrees>
            </Position>
            <AltitudeMeters>5.400000095367431640625</AltitudeMeters>
            <DistanceMeters>1155.8453372991</DistanceMeters>
          </Trackpoint>
          <Trackpoint>
            <Time>2018-06-10T07:48:43.000Z</Time>
            <Position>
              <LatitudeDegrees>35.89473330415785312652587890625</LatitudeDegrees>
              <LongitudeDegrees>-5.3371173329651355743408203125</LongitudeDegrees>
            </Position>
            <AltitudeMeters>4.80000019073486328125</AltitudeMeters>
            <DistanceMeters>1165.0663567545</DistanceMeters>
          </Trackpoint>
          <Trackpoint>
            <Time>2018-06-10T07:48:57.000Z</Time>
            <Position>
              <LatitudeDegrees>35.89488417841494083404541015625</LatitudeDegrees>
              <LongitudeDegrees>-5.33725705929100513458251953125</LongitudeDegrees>
            </Position>
            <AltitudeMeters>5.80000019073486328125</AltitudeMeters>
            <DistanceMeters>1186.0597345419</DistanceMeters>
          </Trackpoint>
          <Trackpoint>
            <Time>2018-06-10T07:49:04.000Z</Time>
            <Position>
              <LatitudeDegrees>35.89494922198355197906494140625</LatitudeDegrees>
              <LongitudeDegrees>-5.3373456560075283050537109375</LongitudeDegrees>
            </Position>
            <AltitudeMeters>6.19999980926513671875</AltitudeMeters>
            <DistanceMeters>1196.8409749152</DistanceMeters>
          </Trackpoint>
          <Trackpoint>
            <Time>2018-06-10T07:49:07.000Z</Time>
            <Position>
              <LatitudeDegrees>35.8949724398553371429443359375</LatitudeDegrees>
              <LongitudeDegrees>-5.33738446421921253204345703125</LongitudeDegrees>
            </Position>
            <AltitudeMeters>6.400000095367431640625</AltitudeMeters>
            <DistanceMeters>1201.191496749</DistanceMeters>
          </Trackpoint>
          <Trackpoint>
            <Time>2018-06-10T07:49:22.000Z</Time>
            <Position>
              <LatitudeDegrees>35.895095653831958770751953125</LatitudeDegrees>
              <LongitudeDegrees>-5.3375588916242122650146484375</LongitudeDegrees>
            </Position>
            <AltitudeMeters>7.400000095367431640625</AltitudeMeters>
            <DistanceMeters>1222.0580303848</DistanceMeters>
          </Trackpoint>
          <Trackpoint>
            <Time>2018-06-10T07:49:36.000Z</Time>
            <Position>
              <LatitudeDegrees>35.89522616006433963775634765625</LatitudeDegrees>
              <LongitudeDegrees>-5.33772041089832782745361328125</LongitudeDegrees>
            </Position>
            <AltitudeMeters>7.19999980926513671875</AltitudeMeters>
            <DistanceMeters>1242.6268694758</DistanceMeters>
          </Trackpoint>
          <Trackpoint>
            <Time>2018-06-10T07:49:42.000Z</Time>
            <Position>
              <LatitudeDegrees>35.89527376927435398101806640625</LatitudeDegrees>
              <LongitudeDegrees>-5.3378096781671047210693359375</LongitudeDegrees>
            </Position>
            <AltitudeMeters>7</AltitudeMeters>
            <DistanceMeters>1252.2635341556</DistanceMeters>
          </Trackpoint>
          <Trackpoint>
            <Time>2018-06-10T07:49:55.000Z</Time>
            <Position>
              <LatitudeDegrees>35.8953821472823619842529296875</LatitudeDegrees>
              <LongitudeDegrees>-5.33799734897911548614501953125</LongitudeDegrees>
            </Position>
            <AltitudeMeters>6.80000019073486328125</AltitudeMeters>
            <DistanceMeters>1273.0442058411</DistanceMeters>
          </Trackpoint>
          <Trackpoint>
            <Time>2018-06-10T07:50:06.000Z</Time>
            <Position>
              <LatitudeDegrees>35.895488262176513671875</LatitudeDegrees>
              <LongitudeDegrees>-5.33813363872468471527099609375</LongitudeDegrees>
            </Position>
            <AltitudeMeters>7.19999980926513671875</AltitudeMeters>
            <DistanceMeters>1290.0881947875</DistanceMeters>
          </Trackpoint>
          <Trackpoint>
            <Time>2018-06-10T07:50:11.000Z</Time>
            <Position>
              <LatitudeDegrees>35.89553075842559337615966796875</LatitudeDegrees>
              <LongitudeDegrees>-5.33820002339780330657958984375</LongitudeDegrees>
            </Position>
            <AltitudeMeters>7.19999980926513671875</AltitudeMeters>
            <DistanceMeters>1297.7176032021</DistanceMeters>
          </Trackpoint>
          <Trackpoint>
            <Time>2018-06-10T07:50:15.000Z</Time>
            <Position>
              <LatitudeDegrees>35.8955699019134044647216796875</LatitudeDegrees>
              <LongitudeDegrees>-5.33824830316007137298583984375</LongitudeDegrees>
            </Position>
            <AltitudeMeters>7.400000095367431640625</AltitudeMeters>
            <DistanceMeters>1303.8775042742</DistanceMeters>
          </Trackpoint>
          <Trackpoint>
            <Time>2018-06-10T07:50:19.000Z</Time>
            <Position>
              <LatitudeDegrees>35.89560954831540584564208984375</LatitudeDegrees>
              <LongitudeDegrees>-5.33829289488494396209716796875</LongitudeDegrees>
            </Position>
            <AltitudeMeters>7.599999904632568359375</AltitudeMeters>
            <DistanceMeters>1309.8475722574</DistanceMeters>
          </Trackpoint>
          <Trackpoint>
            <Time>2018-06-10T07:50:30.000Z</Time>
            <Position>
              <LatitudeDegrees>35.89567341841757297515869140625</LatitudeDegrees>
              <LongitudeDegrees>-5.33844024874269962310791015625</LongitudeDegrees>
            </Position>
            <AltitudeMeters>8.19999980926513671875</AltitudeMeters>
            <DistanceMeters>1324.9161246823</DistanceMeters>
          </Trackpoint>
          <Trackpoint>
            <Time>2018-06-10T07:50:41.000Z</Time>
            <Position>
              <LatitudeDegrees>35.8957492746412754058837890625</LatitudeDegrees>
              <LongitudeDegrees>-5.33860017545521259307861328125</LongitudeDegrees>
            </Position>
            <AltitudeMeters>9</AltitudeMeters>
            <DistanceMeters>1341.6254314774</DistanceMeters>
          </Trackpoint>
          <Trackpoint>
            <Time>2018-06-10T07:50:42.000Z</Time>
            <Position>
              <LatitudeDegrees>35.89575313031673431396484375</LatitudeDegrees>
              <LongitudeDegrees>-5.3386165201663970947265625</LongitudeDegrees>
            </Position>
            <AltitudeMeters>9</AltitudeMeters>
            <DistanceMeters>1343.1576912058</DistanceMeters>
          </Trackpoint>
          <Trackpoint>
            <Time>2018-06-10T07:50:57.000Z</Time>
            <Position>
              <LatitudeDegrees>35.8958361111581325531005859375</LatitudeDegrees>
              <LongitudeDegrees>-5.3388175182044506072998046875</LongitudeDegrees>
            </Position>
            <AltitudeMeters>7.400000095367431640625</AltitudeMeters>
            <DistanceMeters>1363.4982920453</DistanceMeters>
          </Trackpoint>
          <Trackpoint>
            <Time>2018-06-10T07:51:00.000Z</Time>
            <Position>
              <LatitudeDegrees>35.895852036774158477783203125</LatitudeDegrees>
              <LongitudeDegrees>-5.33885900862514972686767578125</LongitudeDegrees>
            </Position>
            <AltitudeMeters>7.400000095367431640625</AltitudeMeters>
            <DistanceMeters>1367.6382298577</DistanceMeters>
          </Trackpoint>
          <Trackpoint>
            <Time>2018-06-10T07:51:03.000Z</Time>
            <Position>
              <LatitudeDegrees>35.89586067013442516326904296875</LatitudeDegrees>
              <LongitudeDegrees>-5.33890376798808574676513671875</LongitudeDegrees>
            </Position>
            <AltitudeMeters>7.400000095367431640625</AltitudeMeters>
            <DistanceMeters>1371.7847061387</DistanceMeters>
          </Trackpoint>
          <Trackpoint>
            <Time>2018-06-10T07:51:04.000Z</Time>
            <Position>
              <LatitudeDegrees>35.8958632685244083404541015625</LatitudeDegrees>
              <LongitudeDegrees>-5.3389211185276508331298828125</LongitudeDegrees>
            </Position>
            <AltitudeMeters>7.400000095367431640625</AltitudeMeters>
            <DistanceMeters>1373.3748072061</DistanceMeters>
          </Trackpoint>
          <Trackpoint>
            <Time>2018-06-10T07:51:19.000Z</Time>
            <Position>
              <LatitudeDegrees>35.895919091999530792236328125</LatitudeDegrees>
              <LongitudeDegrees>-5.33914751373231410980224609375</LongitudeDegrees>
            </Position>
            <AltitudeMeters>7.400000095367431640625</AltitudeMeters>
            <DistanceMeters>1394.7122724779</DistanceMeters>
          </Trackpoint>
          <Trackpoint>
            <Time>2018-06-10T07:51:21.000Z</Time>
            <Position>
              <LatitudeDegrees>35.89592940174043178558349609375</LatitudeDegrees>
              <LongitudeDegrees>-5.33917249180376529693603515625</LongitudeDegrees>
            </Position>
            <AltitudeMeters>7.400000095367431640625</AltitudeMeters>
            <DistanceMeters>1397.2407688932</DistanceMeters>
          </Trackpoint>
          <Trackpoint>
            <Time>2018-06-10T07:51:23.000Z</Time>
            <Position>
              <LatitudeDegrees>35.89594088494777679443359375</LatitudeDegrees>
              <LongitudeDegrees>-5.3391980566084384918212890625</LongitudeDegrees>
            </Position>
            <AltitudeMeters>7.400000095367431640625</AltitudeMeters>
            <DistanceMeters>1399.8776532028</DistanceMeters>
          </Trackpoint>
          <Trackpoint>
            <Time>2018-06-10T07:51:27.000Z</Time>
            <Position>
              <LatitudeDegrees>35.89596477337181568145751953125</LatitudeDegrees>
              <LongitudeDegrees>-5.33924843184649944305419921875</LongitudeDegrees>
            </Position>
            <AltitudeMeters>7.19999980926513671875</AltitudeMeters>
            <DistanceMeters>1405.1402803465</DistanceMeters>
          </Trackpoint>
          <Trackpoint>
            <Time>2018-06-10T07:51:28.000Z</Time>
            <Position>
              <LatitudeDegrees>35.89597064070403575897216796875</LatitudeDegrees>
              <LongitudeDegrees>-5.33926301635801792144775390625</LongitudeDegrees>
            </Position>
            <AltitudeMeters>7.19999980926513671875</AltitudeMeters>
            <DistanceMeters>1406.6093576998</DistanceMeters>
          </Trackpoint>
          <Trackpoint>
            <Time>2018-06-10T07:51:34.000Z</Time>
            <Position>
              <LatitudeDegrees>35.8960014022886753082275390625</LatitudeDegrees>
              <LongitudeDegrees>-5.3393569774925708770751953125</LongitudeDegrees>
            </Position>
            <AltitudeMeters>7.599999904632568359375</AltitudeMeters>
            <DistanceMeters>1415.7467581398</DistanceMeters>
          </Trackpoint>
          <Trackpoint>
            <Time>2018-06-10T07:51:47.000Z</Time>
            <Position>
              <LatitudeDegrees>35.89606418274343013763427734375</LatitudeDegrees>
              <LongitudeDegrees>-5.3395675309002399444580078125</LongitudeDegrees>
            </Position>
            <AltitudeMeters>8</AltitudeMeters>
            <DistanceMeters>1435.9760686641</DistanceMeters>
          </Trackpoint>
          <Trackpoint>
            <Time>2018-06-10T07:51:53.000Z</Time>
            <Position>
              <LatitudeDegrees>35.89610173366963863372802734375</LatitudeDegrees>
              <LongitudeDegrees>-5.3396533615887165069580078125</LongitudeDegrees>
            </Position>
            <AltitudeMeters>8.19999980926513671875</AltitudeMeters>
            <DistanceMeters>1444.7710464821</DistanceMeters>
          </Trackpoint>
          <Trackpoint>
            <Time>2018-06-10T07:51:54.000Z</Time>
            <Position>
              <LatitudeDegrees>35.896106176078319549560546875</LatitudeDegrees>
              <LongitudeDegrees>-5.33967155031859874725341796875</LongitudeDegrees>
            </Position>
            <AltitudeMeters>8.19999980926513671875</AltitudeMeters>
            <DistanceMeters>1446.4841649381</DistanceMeters>
          </Trackpoint>
          <Trackpoint>
            <Time>2018-06-10T07:52:05.000Z</Time>
            <Position>
              <LatitudeDegrees>35.89616526849567890167236328125</LatitudeDegrees>
              <LongitudeDegrees>-5.339844636619091033935546875</LongitudeDegrees>
            </Position>
            <AltitudeMeters>8.19999980926513671875</AltitudeMeters>
            <DistanceMeters>1463.4191945471</DistanceMeters>
          </Trackpoint>
          <Trackpoint>
            <Time>2018-06-10T07:52:06.000Z</Time>
            <Position>
              <LatitudeDegrees>35.89616929180920124053955078125</LatitudeDegrees>
              <LongitudeDegrees>-5.33986232243478298187255859375</LongitudeDegrees>
            </Position>
            <AltitudeMeters>8.19999980926513671875</AltitudeMeters>
            <DistanceMeters>1465.0760419267</DistanceMeters>
          </Trackpoint>
          <Trackpoint>
            <Time>2018-06-10T07:52:13.000Z</Time>
            <Position>
              <LatitudeDegrees>35.89620080776512622833251953125</LatitudeDegrees>
              <LongitudeDegrees>-5.33997899852693080902099609375</LongitudeDegrees>
            </Position>
            <AltitudeMeters>8.3999996185302734375</AltitudeMeters>
            <DistanceMeters>1476.1652971322</DistanceMeters>
          </Trackpoint>
          <Trackpoint>
            <Time>2018-06-10T07:52:26.000Z</Time>
            <Position>
              <LatitudeDegrees>35.8962894044816493988037109375</LatitudeDegrees>
              <LongitudeDegrees>-5.34019298851490020751953125</LongitudeDegrees>
            </Position>
            <AltitudeMeters>8.6000003814697265625</AltitudeMeters>
            <DistanceMeters>1497.8332634547</DistanceMeters>
          </Trackpoint>
          <Trackpoint>
            <Time>2018-06-10T07:52:27.000Z</Time>
            <Position>
              <LatitudeDegrees>35.89629669673740863800048828125</LatitudeDegrees>
              <LongitudeDegrees>-5.3402105905115604400634765625</LongitudeDegrees>
            </Position>
            <AltitudeMeters>8.6000003814697265625</AltitudeMeters>
            <DistanceMeters>1499.6161226494</DistanceMeters>
          </Trackpoint>
          <Trackpoint>
            <Time>2018-06-10T07:52:34.000Z</Time>
            <Position>
              <LatitudeDegrees>35.89634899981319904327392578125</LatitudeDegrees>
              <LongitudeDegrees>-5.34030455164611339569091796875</LongitudeDegrees>
            </Position>
            <AltitudeMeters>8.6000003814697265625</AltitudeMeters>
            <DistanceMeters>1509.8957118701</DistanceMeters>
          </Trackpoint>
          <Trackpoint>
            <Time>2018-06-10T07:52:36.000Z</Time>
            <Position>
              <LatitudeDegrees>35.89637196622788906097412109375</LatitudeDegrees>
              <LongitudeDegrees>-5.34032399766147136688232421875</LongitudeDegrees>
            </Position>
            <AltitudeMeters>8.6000003814697265625</AltitudeMeters>
            <DistanceMeters>1512.9953894883</DistanceMeters>
          </Trackpoint>
          <Trackpoint>
            <Time>2018-06-10T07:52:42.000Z</Time>
            <Position>
              <LatitudeDegrees>35.89643348939716815948486328125</LatitudeDegrees>
              <LongitudeDegrees>-5.3404020331799983978271484375</LongitudeDegrees>
            </Position>
            <AltitudeMeters>8.6000003814697265625</AltitudeMeters>
            <DistanceMeters>1522.8130794387</DistanceMeters>
          </Trackpoint>
          <Trackpoint>
            <Time>2018-06-10T07:52:55.000Z</Time>
            <Position>
              <LatitudeDegrees>35.89656106196343898773193359375</LatitudeDegrees>
              <LongitudeDegrees>-5.34057880751788616180419921875</LongitudeDegrees>
            </Position>
            <AltitudeMeters>10.19999980926513671875</AltitudeMeters>
            <DistanceMeters>1544.1590070898</DistanceMeters>
          </Trackpoint>
          <Trackpoint>
            <Time>2018-06-10T07:53:08.000Z</Time>
            <Position>
              <LatitudeDegrees>35.89670657180249691009521484375</LatitudeDegrees>
              <LongitudeDegrees>-5.340727753937244415283203125</LongitudeDegrees>
            </Position>
            <AltitudeMeters>12.19999980926513671875</AltitudeMeters>
            <DistanceMeters>1565.1979302355</DistanceMeters>
          </Trackpoint>
          <Trackpoint>
            <Time>2018-06-10T07:53:22.000Z</Time>
            <Position>
              <LatitudeDegrees>35.8968761377036571502685546875</LatitudeDegrees>
              <LongitudeDegrees>-5.3408157639205455780029296875</LongitudeDegrees>
            </Position>
            <AltitudeMeters>12.80000019073486328125</AltitudeMeters>
            <DistanceMeters>1585.6710603894</DistanceMeters>
          </Trackpoint>
          <Trackpoint>
            <Time>2018-06-10T07:53:34.000Z</Time>
            <Position>
              <LatitudeDegrees>35.89703212492167949676513671875</LatitudeDegrees>
              <LongitudeDegrees>-5.34089463762938976287841796875</LongitudeDegrees>
            </Position>
            <AltitudeMeters>12.19999980926513671875</AltitudeMeters>
            <DistanceMeters>1604.4330016519</DistanceMeters>
          </Trackpoint>
          <Trackpoint>
            <Time>2018-06-10T07:53:47.000Z</Time>
            <Position>
              <LatitudeDegrees>35.8971902914345264434814453125</LatitudeDegrees>
              <LongitudeDegrees>-5.34100301563739776611328125</LongitudeDegrees>
            </Position>
            <AltitudeMeters>11.80000019073486328125</AltitudeMeters>
            <DistanceMeters>1624.5676802427</DistanceMeters>
          </Trackpoint>
          <Trackpoint>
            <Time>2018-06-10T07:53:51.000Z</Time>
            <Position>
              <LatitudeDegrees>35.89724100194871425628662109375</LatitudeDegrees>
              <LongitudeDegrees>-5.341045595705509185791015625</LongitudeDegrees>
            </Position>
            <AltitudeMeters>11.80000019073486328125</AltitudeMeters>
            <DistanceMeters>1631.3937475182</DistanceMeters>
          </Trackpoint>
          <Trackpoint>
            <Time>2018-06-10T07:53:55.000Z</Time>
            <Position>
              <LatitudeDegrees>35.8972891978919506072998046875</LatitudeDegrees>
              <LongitudeDegrees>-5.34106110222637653350830078125</LongitudeDegrees>
            </Position>
            <AltitudeMeters>12</AltitudeMeters>
            <DistanceMeters>1636.9379679517</DistanceMeters>
          </Trackpoint>
          <Trackpoint>
            <Time>2018-06-10T07:54:09.000Z</Time>
            <Position>
              <LatitudeDegrees>35.89745306409895420074462890625</LatitudeDegrees>
              <LongitudeDegrees>-5.34118129871785640716552734375</LongitudeDegrees>
            </Position>
            <AltitudeMeters>12.19999980926513671875</AltitudeMeters>
            <DistanceMeters>1658.1534135109</DistanceMeters>
          </Trackpoint>
          <Trackpoint>
            <Time>2018-06-10T07:54:21.000Z</Time>
            <Position>
              <LatitudeDegrees>35.89761382900178432464599609375</LatitudeDegrees>
              <LongitudeDegrees>-5.3412504494190216064453125</LongitudeDegrees>
            </Position>
            <AltitudeMeters>11</AltitudeMeters>
            <DistanceMeters>1677.1021311341</DistanceMeters>
          </Trackpoint>
          <Trackpoint>
            <Time>2018-06-10T07:54:24.000Z</Time>
            <Position>
              <LatitudeDegrees>35.89764752425253391265869140625</LatitudeDegrees>
              <LongitudeDegrees>-5.3412801213562488555908203125</LongitudeDegrees>
            </Position>
            <AltitudeMeters>10.80000019073486328125</AltitudeMeters>
            <DistanceMeters>1681.7087220258</DistanceMeters>
          </Trackpoint>
          <Trackpoint>
            <Time>2018-06-10T07:54:32.000Z</Time>
            <Position>
              <LatitudeDegrees>35.8977398090064525604248046875</LatitudeDegrees>
              <LongitudeDegrees>-5.3413465060293674468994140625</LongitudeDegrees>
            </Position>
            <AltitudeMeters>10.6000003814697265625</AltitudeMeters>
            <DistanceMeters>1693.5965601954</DistanceMeters>
          </Trackpoint>
          <Trackpoint>
            <Time>2018-06-10T07:54:37.000Z</Time>
            <Position>
              <LatitudeDegrees>35.8977924473583698272705078125</LatitudeDegrees>
              <LongitudeDegrees>-5.34138715825974941253662109375</LongitudeDegrees>
            </Position>
            <AltitudeMeters>10.6000003814697265625</AltitudeMeters>
            <DistanceMeters>1700.5074265892</DistanceMeters>
          </Trackpoint>
          <Trackpoint>
            <Time>2018-06-10T07:54:49.000Z</Time>
            <Position>
              <LatitudeDegrees>35.89791473932564258575439453125</LatitudeDegrees>
              <LongitudeDegrees>-5.34151825122535228729248046875</LongitudeDegrees>
            </Position>
            <AltitudeMeters>10.80000019073486328125</AltitudeMeters>
            <DistanceMeters>1718.5344726884</DistanceMeters>
          </Trackpoint>
          <Trackpoint>
            <Time>2018-06-10T07:54:50.000Z</Time>
            <Position>
              <LatitudeDegrees>35.8979248814284801483154296875</LatitudeDegrees>
              <LongitudeDegrees>-5.34152604639530181884765625</LongitudeDegrees>
            </Position>
            <AltitudeMeters>10.6000003814697265625</AltitudeMeters>
            <DistanceMeters>1719.8580416629</DistanceMeters>
          </Trackpoint>
          <Trackpoint>
            <Time>2018-06-10T07:55:00.000Z</Time>
            <Position>
              <LatitudeDegrees>35.89803812094032764434814453125</LatitudeDegrees>
              <LongitudeDegrees>-5.34161749295890331268310546875</LongitudeDegrees>
            </Position>
            <AltitudeMeters>9.3999996185302734375</AltitudeMeters>
            <DistanceMeters>1734.9188016104</DistanceMeters>
          </Trackpoint>
          <Trackpoint>
            <Time>2018-06-10T07:55:11.000Z</Time>
            <Position>
              <LatitudeDegrees>35.89815379120409488677978515625</LatitudeDegrees>
              <LongitudeDegrees>-5.34175805747509002685546875</LongitudeDegrees>
            </Position>
            <AltitudeMeters>9.19999980926513671875</AltitudeMeters>
            <DistanceMeters>1752.9846271635</DistanceMeters>
          </Trackpoint>
          <Trackpoint>
            <Time>2018-06-10T07:55:12.000Z</Time>
            <Position>
              <LatitudeDegrees>35.8981639333069324493408203125</LatitudeDegrees>
              <LongitudeDegrees>-5.3417666070163249969482421875</LongitudeDegrees>
            </Position>
            <AltitudeMeters>9.19999980926513671875</AltitudeMeters>
            <DistanceMeters>1754.3551219283</DistanceMeters>
          </Trackpoint>
          <Trackpoint>
            <Time>2018-06-10T07:55:15.000Z</Time>
            <Position>
              <LatitudeDegrees>35.89819251559674739837646484375</LatitudeDegrees>
              <LongitudeDegrees>-5.341798625886440277099609375</LongitudeDegrees>
            </Position>
            <AltitudeMeters>9.3999996185302734375</AltitudeMeters>
            <DistanceMeters>1758.6513384325</DistanceMeters>
          </Trackpoint>
          <Trackpoint>
            <Time>2018-06-10T07:55:23.000Z</Time>
            <Position>
              <LatitudeDegrees>35.8982645161449909210205078125</LatitudeDegrees>
              <LongitudeDegrees>-5.34189593978226184844970703125</LongitudeDegrees>
            </Position>
            <AltitudeMeters>9.6000003814697265625</AltitudeMeters>
            <DistanceMeters>1770.5342381356</DistanceMeters>
          </Trackpoint>
          <Trackpoint>
            <Time>2018-06-10T07:55:26.000Z</Time>
            <Position>
              <LatitudeDegrees>35.89829125441610813140869140625</LatitudeDegrees>
              <LongitudeDegrees>-5.3419285453855991363525390625</LongitudeDegrees>
            </Position>
            <AltitudeMeters>9.6000003814697265625</AltitudeMeters>
            <DistanceMeters>1774.7175727085</DistanceMeters>
          </Trackpoint>
          <Trackpoint>
            <Time>2018-06-10T07:55:38.000Z</Time>
            <Position>
              <LatitudeDegrees>35.898398458957672119140625</LatitudeDegrees>
              <LongitudeDegrees>-5.34210515208542346954345703125</LongitudeDegrees>
            </Position>
            <AltitudeMeters>8</AltitudeMeters>
            <DistanceMeters>1794.615404291</DistanceMeters>
          </Trackpoint>
          <Trackpoint>
            <Time>2018-06-10T07:55:41.000Z</Time>
            <Position>
              <LatitudeDegrees>35.89843709953129291534423828125</LatitudeDegrees>
              <LongitudeDegrees>-5.3421317227184772491455078125</LongitudeDegrees>
            </Position>
            <AltitudeMeters>7.599999904632568359375</AltitudeMeters>
            <DistanceMeters>1799.5394021841</DistanceMeters>
          </Trackpoint>
          <Trackpoint>
            <Time>2018-06-10T07:55:46.000Z</Time>
            <Position>
              <LatitudeDegrees>35.89850105345249176025390625</LatitudeDegrees>
              <LongitudeDegrees>-5.342166088521480560302734375</LongitudeDegrees>
            </Position>
            <AltitudeMeters>6.80000019073486328125</AltitudeMeters>
            <DistanceMeters>1807.3025671436</DistanceMeters>
          </Trackpoint>
          <Trackpoint>
            <Time>2018-06-10T07:55:47.000Z</Time>
            <Position>
              <LatitudeDegrees>35.89851236902177333831787109375</LatitudeDegrees>
              <LongitudeDegrees>-5.3421753086149692535400390625</LongitudeDegrees>
            </Position>
            <AltitudeMeters>6.80000019073486328125</AltitudeMeters>
            <DistanceMeters>1808.8140595651</DistanceMeters>
          </Trackpoint>
          <Trackpoint>
            <Time>2018-06-10T07:55:50.000Z</Time>
            <Position>
              <LatitudeDegrees>35.8985427953302860260009765625</LatitudeDegrees>
              <LongitudeDegrees>-5.3422081656754016876220703125</LongitudeDegrees>
            </Position>
            <AltitudeMeters>6.599999904632568359375</AltitudeMeters>
            <DistanceMeters>1813.3135519128</DistanceMeters>
          </Trackpoint>
          <Trackpoint>
            <Time>2018-06-10T07:56:01.000Z</Time>
            <Position>
              <LatitudeDegrees>35.89863491244614124298095703125</LatitudeDegrees>
              <LongitudeDegrees>-5.3423389233648777008056640625</LongitudeDegrees>
            </Position>
            <AltitudeMeters>5.80000019073486328125</AltitudeMeters>
            <DistanceMeters>1828.9372847073</DistanceMeters>
          </Trackpoint>
          <Trackpoint>
            <Time>2018-06-10T07:56:15.000Z</Time>
            <Position>
              <LatitudeDegrees>35.89874790050089359283447265625</LatitudeDegrees>
              <LongitudeDegrees>-5.34251988865435123443603515625</LongitudeDegrees>
            </Position>
            <AltitudeMeters>6.19999980926513671875</AltitudeMeters>
            <DistanceMeters>1849.5374896209</DistanceMeters>
          </Trackpoint>
          <Trackpoint>
            <Time>2018-06-10T07:56:18.000Z</Time>
            <Position>
              <LatitudeDegrees>35.89877136982977390289306640625</LatitudeDegrees>
              <LongitudeDegrees>-5.34256095997989177703857421875</LongitudeDegrees>
            </Position>
            <AltitudeMeters>6.400000095367431640625</AltitudeMeters>
            <DistanceMeters>1854.0689787618</DistanceMeters>
          </Trackpoint>
          <Trackpoint>
            <Time>2018-06-10T07:56:31.000Z</Time>
            <Position>
              <LatitudeDegrees>35.89890229515731334686279296875</LatitudeDegrees>
              <LongitudeDegrees>-5.34271317534148693084716796875</LongitudeDegrees>
            </Position>
            <AltitudeMeters>6.80000019073486328125</AltitudeMeters>
            <DistanceMeters>1874.0864864019</DistanceMeters>
          </Trackpoint>
          <Trackpoint>
            <Time>2018-06-10T07:56:36.000Z</Time>
            <Position>
              <LatitudeDegrees>35.89894990436732769012451171875</LatitudeDegrees>
              <LongitudeDegrees>-5.34276790916919708251953125</LongitudeDegrees>
            </Position>
            <AltitudeMeters>7.400000095367431640625</AltitudeMeters>
            <DistanceMeters>1881.3272476764</DistanceMeters>
          </Trackpoint>
          <Trackpoint>
            <Time>2018-06-10T07:56:45.000Z</Time>
            <Position>
              <LatitudeDegrees>35.89902651496231555938720703125</LatitudeDegrees>
              <LongitudeDegrees>-5.34286220557987689971923828125</LongitudeDegrees>
            </Position>
            <AltitudeMeters>8.3999996185302734375</AltitudeMeters>
            <DistanceMeters>1893.3682986016</DistanceMeters>
          </Trackpoint>
          <Trackpoint>
            <Time>2018-06-10T07:56:58.000Z</Time>
            <Position>
              <LatitudeDegrees>35.89914478361606597900390625</LatitudeDegrees>
              <LongitudeDegrees>-5.34303554333746433258056640625</LongitudeDegrees>
            </Position>
            <AltitudeMeters>11</AltitudeMeters>
            <DistanceMeters>1913.8014729625</DistanceMeters>
          </Trackpoint>
          <Trackpoint>
            <Time>2018-06-10T07:57:12.000Z</Time>
            <Position>
              <LatitudeDegrees>35.8992344699800014495849609375</LatitudeDegrees>
              <LongitudeDegrees>-5.3432361222803592681884765625</LongitudeDegrees>
            </Position>
            <AltitudeMeters>14.3999996185302734375</AltitudeMeters>
            <DistanceMeters>1934.4579289057</DistanceMeters>
          </Trackpoint>
          <Trackpoint>
            <Time>2018-06-10T07:57:18.000Z</Time>
            <Position>
              <LatitudeDegrees>35.899278223514556884765625</LatitudeDegrees>
              <LongitudeDegrees>-5.3433229587972164154052734375</LongitudeDegrees>
            </Position>
            <AltitudeMeters>15.80000019073486328125</AltitudeMeters>
            <DistanceMeters>1943.6779690164</DistanceMeters>
          </Trackpoint>
          <Trackpoint>
            <Time>2018-06-10T07:57:20.000Z</Time>
            <Position>
              <LatitudeDegrees>35.8992918021976947784423828125</LatitudeDegrees>
              <LongitudeDegrees>-5.343354642391204833984375</LongitudeDegrees>
            </Position>
            <AltitudeMeters>16.3999996185302734375</AltitudeMeters>
            <DistanceMeters>1946.908877305</DistanceMeters>
          </Trackpoint>
          <Trackpoint>
            <Time>2018-06-10T07:57:21.000Z</Time>
            <Position>
              <LatitudeDegrees>35.89930060319602489471435546875</LatitudeDegrees>
              <LongitudeDegrees>-5.34337014891207218170166015625</LongitudeDegrees>
            </Position>
            <AltitudeMeters>16.6000003814697265625</AltitudeMeters>
            <DistanceMeters>1948.6193581636</DistanceMeters>
          </Trackpoint>
          <Trackpoint>
            <Time>2018-06-10T07:57:29.000Z</Time>
            <Position>
              <LatitudeDegrees>35.8993689157068729400634765625</LatitudeDegrees>
              <LongitudeDegrees>-5.3434862382709980010986328125</LongitudeDegrees>
            </Position>
            <AltitudeMeters>15.80000019073486328125</AltitudeMeters>
            <DistanceMeters>1961.5562602971</DistanceMeters>
          </Trackpoint>
          <Trackpoint>
            <Time>2018-06-10T07:57:44.000Z</Time>
            <Position>
              <LatitudeDegrees>35.899477712810039520263671875</LatitudeDegrees>
              <LongitudeDegrees>-5.34367457963526248931884765625</LongitudeDegrees>
            </Position>
            <AltitudeMeters>13.3999996185302734375</AltitudeMeters>
            <DistanceMeters>1982.4128382154</DistanceMeters>
          </Trackpoint>
          <Trackpoint>
            <Time>2018-06-10T07:57:52.000Z</Time>
            <Position>
              <LatitudeDegrees>35.8995182812213897705078125</LatitudeDegrees>
              <LongitudeDegrees>-5.34378723241388797760009765625</LongitudeDegrees>
            </Position>
            <AltitudeMeters>12.19999980926513671875</AltitudeMeters>
            <DistanceMeters>1993.5281207537</DistanceMeters>
          </Trackpoint>
          <Trackpoint>
            <Time>2018-06-10T07:57:53.000Z</Time>
            <Position>
              <LatitudeDegrees>35.89951668865978717803955078125</LatitudeDegrees>
              <LongitudeDegrees>-5.3438034094870090484619140625</LongitudeDegrees>
            </Position>
            <AltitudeMeters>12.19999980926513671875</AltitudeMeters>
            <DistanceMeters>1994.9941215018</DistanceMeters>
          </Trackpoint>
          <Trackpoint>
            <Time>2018-06-10T07:58:04.000Z</Time>
            <Position>
              <LatitudeDegrees>35.899542085826396942138671875</LatitudeDegrees>
              <LongitudeDegrees>-5.34394397400319576263427734375</LongitudeDegrees>
            </Position>
            <AltitudeMeters>14</AltitudeMeters>
            <DistanceMeters>2007.9784015053</DistanceMeters>
          </Trackpoint>
          <Trackpoint>
            <Time>2018-06-10T07:58:06.000Z</Time>
            <Position>
              <LatitudeDegrees>35.89955457486212253570556640625</LatitudeDegrees>
              <LongitudeDegrees>-5.3439727239310741424560546875</LongitudeDegrees>
            </Position>
            <AltitudeMeters>14.3999996185302734375</AltitudeMeters>
            <DistanceMeters>2010.9196279898</DistanceMeters>
          </Trackpoint>
          <Trackpoint>
            <Time>2018-06-10T07:58:07.000Z</Time>
            <Position>
              <LatitudeDegrees>35.89956329204142093658447265625</LatitudeDegrees>
              <LongitudeDegrees>-5.34398957155644893646240234375</LongitudeDegrees>
            </Position>
            <AltitudeMeters>14.6000003814697265625</AltitudeMeters>
            <DistanceMeters>2012.7226331257</DistanceMeters>
          </Trackpoint>
          <Trackpoint>
            <Time>2018-06-10T07:58:18.000Z</Time>
            <Position>
              <LatitudeDegrees>35.89964459650218486785888671875</LatitudeDegrees>
              <LongitudeDegrees>-5.34415855072438716888427734375</LongitudeDegrees>
            </Position>
            <AltitudeMeters>16.200000762939453125</AltitudeMeters>
            <DistanceMeters>2030.4430134337</DistanceMeters>
          </Trackpoint>
          <Trackpoint>
            <Time>2018-06-10T07:58:19.000Z</Time>
            <Position>
              <LatitudeDegrees>35.89964912272989749908447265625</LatitudeDegrees>
              <LongitudeDegrees>-5.3441735543310642242431640625</LongitudeDegrees>
            </Position>
            <AltitudeMeters>16.3999996185302734375</AltitudeMeters>
            <DistanceMeters>2031.8841649116</DistanceMeters>
          </Trackpoint>
          <Trackpoint>
            <Time>2018-06-10T07:58:24.000Z</Time>
            <Position>
              <LatitudeDegrees>35.8996817283332347869873046875</LatitudeDegrees>
              <LongitudeDegrees>-5.3442370891571044921875</LongitudeDegrees>
            </Position>
            <AltitudeMeters>17</AltitudeMeters>
            <DistanceMeters>2038.6651050568</DistanceMeters>
          </Trackpoint>
          <Trackpoint>
            <Time>2018-06-10T07:58:37.000Z</Time>
            <Position>
              <LatitudeDegrees>35.89980552904307842254638671875</LatitudeDegrees>
              <LongitudeDegrees>-5.34435980021953582763671875</LongitudeDegrees>
            </Position>
            <AltitudeMeters>17.200000762939453125</AltitudeMeters>
            <DistanceMeters>2056.3364972935</DistanceMeters>
          </Trackpoint>
          <Trackpoint>
            <Time>2018-06-10T07:58:46.000Z</Time>
            <Position>
              <LatitudeDegrees>35.89990125037729740142822265625</LatitudeDegrees>
              <LongitudeDegrees>-5.34442543052136898040771484375</LongitudeDegrees>
            </Position>
            <AltitudeMeters>16.799999237060546875</AltitudeMeters>
            <DistanceMeters>2068.5236502568</DistanceMeters>
          </Trackpoint>
          <Trackpoint>
            <Time>2018-06-10T07:59:00.000Z</Time>
            <Position>
              <LatitudeDegrees>35.90006075799465179443359375</LatitudeDegrees>
              <LongitudeDegrees>-5.34455233253538608551025390625</LongitudeDegrees>
            </Position>
            <AltitudeMeters>16.3999996185302734375</AltitudeMeters>
            <DistanceMeters>2089.6448205957</DistanceMeters>
          </Trackpoint>
          <Trackpoint>
            <Time>2018-06-10T07:59:14.000Z</Time>
            <Position>
              <LatitudeDegrees>35.90023065917193889617919921875</LatitudeDegrees>
              <LongitudeDegrees>-5.34465911798179149627685546875</LongitudeDegrees>
            </Position>
            <AltitudeMeters>15.3999996185302734375</AltitudeMeters>
            <DistanceMeters>2110.8649476442</DistanceMeters>
          </Trackpoint>
          <Trackpoint>
            <Time>2018-06-10T07:59:21.000Z</Time>
            <Position>
              <LatitudeDegrees>35.9003207646310329437255859375</LatitudeDegrees>
              <LongitudeDegrees>-5.3446858562529087066650390625</LongitudeDegrees>
            </Position>
            <AltitudeMeters>14.3999996185302734375</AltitudeMeters>
            <DistanceMeters>2121.1791771639</DistanceMeters>
          </Trackpoint>
          <Trackpoint>
            <Time>2018-06-10T07:59:22.000Z</Time>
            <Position>
              <LatitudeDegrees>35.90033375658094882965087890625</LatitudeDegrees>
              <LongitudeDegrees>-5.34469616599380970001220703125</LongitudeDegrees>
            </Position>
            <AltitudeMeters>14.3999996185302734375</AltitudeMeters>
            <DistanceMeters>2122.900184158</DistanceMeters>
          </Trackpoint>
          <Trackpoint>
            <Time>2018-06-10T07:59:34.000Z</Time>
            <Position>
              <LatitudeDegrees>35.90048882178962230682373046875</LatitudeDegrees>
              <LongitudeDegrees>-5.3448239900171756744384765625</LongitudeDegrees>
            </Position>
            <AltitudeMeters>13.3999996185302734375</AltitudeMeters>
            <DistanceMeters>2143.6534616358</DistanceMeters>
          </Trackpoint>
          <Trackpoint>
            <Time>2018-06-10T07:59:37.000Z</Time>
            <Position>
              <LatitudeDegrees>35.9005214273929595947265625</LatitudeDegrees>
              <LongitudeDegrees>-5.34484636969864368438720703125</LongitudeDegrees>
            </Position>
            <AltitudeMeters>13</AltitudeMeters>
            <DistanceMeters>2147.8064660914</DistanceMeters>
          </Trackpoint>
          <Trackpoint>
            <Time>2018-06-10T07:59:42.000Z</Time>
            <Position>
              <LatitudeDegrees>35.90058672241866588592529296875</LatitudeDegrees>
              <LongitudeDegrees>-5.34487587399780750274658203125</LongitudeDegrees>
            </Position>
            <AltitudeMeters>12.19999980926513671875</AltitudeMeters>
            <DistanceMeters>2155.5451653992</DistanceMeters>
          </Trackpoint>
          <Trackpoint>
            <Time>2018-06-10T07:59:46.000Z</Time>
            <Position>
              <LatitudeDegrees>35.9006352536380290985107421875</LatitudeDegrees>
              <LongitudeDegrees>-5.3449021093547344207763671875</LongitudeDegrees>
            </Position>
            <AltitudeMeters>11.80000019073486328125</AltitudeMeters>
            <DistanceMeters>2161.4414179641</DistanceMeters>
          </Trackpoint>
          <Trackpoint>
            <Time>2018-06-10T07:59:52.000Z</Time>
            <Position>
              <LatitudeDegrees>35.90069912374019622802734375</LatitudeDegrees>
              <LongitudeDegrees>-5.3449309431016445159912109375</LongitudeDegrees>
            </Position>
            <AltitudeMeters>11.19999980926513671875</AltitudeMeters>
            <DistanceMeters>2169.0108191978</DistanceMeters>
          </Trackpoint>
          <Trackpoint>
            <Time>2018-06-10T07:59:55.000Z</Time>
            <Position>
              <LatitudeDegrees>35.90073307044804096221923828125</LatitudeDegrees>
              <LongitudeDegrees>-5.34494913183152675628662109375</LongitudeDegrees>
            </Position>
            <AltitudeMeters>11</AltitudeMeters>
            <DistanceMeters>2173.1310793491</DistanceMeters>
          </Trackpoint>
          <Trackpoint>
            <Time>2018-06-10T07:59:57.000Z</Time>
            <Position>
              <LatitudeDegrees>35.9007515944540500640869140625</LatitudeDegrees>
              <LongitudeDegrees>-5.3449658118188381195068359375</LongitudeDegrees>
            </Position>
            <AltitudeMeters>10.80000019073486328125</AltitudeMeters>
            <DistanceMeters>2175.6844526459</DistanceMeters>
          </Trackpoint>
          <Trackpoint>
            <Time>2018-06-10T08:00:04.000Z</Time>
            <Position>
              <LatitudeDegrees>35.9007990360260009765625</LatitudeDegrees>
              <LongitudeDegrees>-5.34505876712501049041748046875</LongitudeDegrees>
            </Position>
            <AltitudeMeters>11.19999980926513671875</AltitudeMeters>
            <DistanceMeters>2185.5900475619</DistanceMeters>
          </Trackpoint>
          <Trackpoint>
            <Time>2018-06-10T08:00:09.000Z</Time>
            <Position>
              <LatitudeDegrees>35.90082921087741851806640625</LatitudeDegrees>
              <LongitudeDegrees>-5.3451250679790973663330078125</LongitudeDegrees>
            </Position>
            <AltitudeMeters>11.3999996185302734375</AltitudeMeters>
            <DistanceMeters>2192.4464735964</DistanceMeters>
          </Trackpoint>
          <Trackpoint>
            <Time>2018-06-10T08:00:22.000Z</Time>
            <Position>
              <LatitudeDegrees>35.90087958611547946929931640625</LatitudeDegrees>
              <LongitudeDegrees>-5.34530930221080780029296875</LongitudeDegrees>
            </Position>
            <AltitudeMeters>13.3999996185302734375</AltitudeMeters>
            <DistanceMeters>2209.9778078824</DistanceMeters>
          </Trackpoint>
          <Trackpoint>
            <Time>2018-06-10T08:00:25.000Z</Time>
            <Position>
              <LatitudeDegrees>35.90088176541030406951904296875</LatitudeDegrees>
              <LongitudeDegrees>-5.3453470207750797271728515625</LongitudeDegrees>
            </Position>
            <AltitudeMeters>14</AltitudeMeters>
            <DistanceMeters>2213.3881947314</DistanceMeters>
          </Trackpoint>
          <Trackpoint>
            <Time>2018-06-10T08:00:34.000Z</Time>
            <Position>
              <LatitudeDegrees>35.9009130299091339111328125</LatitudeDegrees>
              <LongitudeDegrees>-5.34545254893600940704345703125</LongitudeDegrees>
            </Position>
            <AltitudeMeters>15.3999996185302734375</AltitudeMeters>
            <DistanceMeters>2223.5186842944</DistanceMeters>
          </Trackpoint>
          <Trackpoint>
            <Time>2018-06-10T08:00:35.000Z</Time>
            <Position>
              <LatitudeDegrees>35.900920741260051727294921875</LatitudeDegrees>
              <LongitudeDegrees>-5.34546428360044956207275390625</LongitudeDegrees>
            </Position>
            <AltitudeMeters>15.3999996185302734375</AltitudeMeters>
            <DistanceMeters>2224.8825742267</DistanceMeters>
          </Trackpoint>
          <Trackpoint>
            <Time>2018-06-10T08:00:42.000Z</Time>
            <Position>
              <LatitudeDegrees>35.90097078122198581695556640625</LatitudeDegrees>
              <LongitudeDegrees>-5.3455471806228160858154296875</LongitudeDegrees>
            </Position>
            <AltitudeMeters>16.799999237060546875</AltitudeMeters>
            <DistanceMeters>2234.2034307038</DistanceMeters>
          </Trackpoint>
          <Trackpoint>
            <Time>2018-06-10T08:00:51.000Z</Time>
            <Position>
              <LatitudeDegrees>35.9010224975645542144775390625</LatitudeDegrees>
              <LongitudeDegrees>-5.34568053670227527618408203125</LongitudeDegrees>
            </Position>
            <AltitudeMeters>19.3999996185302734375</AltitudeMeters>
            <DistanceMeters>2247.5332774467</DistanceMeters>
          </Trackpoint>
          <Trackpoint>
            <Time>2018-06-10T08:00:55.000Z</Time>
            <Position>
              <LatitudeDegrees>35.901047475636005401611328125</LatitudeDegrees>
              <LongitudeDegrees>-5.345740802586078643798828125</LongitudeDegrees>
            </Position>
            <AltitudeMeters>20.3999996185302734375</AltitudeMeters>
            <DistanceMeters>2253.6372184201</DistanceMeters>
          </Trackpoint>
          <Trackpoint>
            <Time>2018-06-10T08:00:58.000Z</Time>
            <Position>
              <LatitudeDegrees>35.90106214396655559539794921875</LatitudeDegrees>
              <LongitudeDegrees>-5.34578950144350528717041015625</LongitudeDegrees>
            </Position>
            <AltitudeMeters>21.3999996185302734375</AltitudeMeters>
            <DistanceMeters>2258.3225269303</DistanceMeters>
          </Trackpoint>
          <Trackpoint>
            <Time>2018-06-10T08:01:02.000Z</Time>
            <Position>
              <LatitudeDegrees>35.90107421390712261199951171875</LatitudeDegrees>
              <LongitudeDegrees>-5.345842055976390838623046875</LongitudeDegrees>
            </Position>
            <AltitudeMeters>22.6000003814697265625</AltitudeMeters>
            <DistanceMeters>2263.2465248235</DistanceMeters>
          </Trackpoint>
          <Trackpoint>
            <Time>2018-06-10T08:01:07.000Z</Time>
            <Position>
              <LatitudeDegrees>35.90108544565737247467041015625</LatitudeDegrees>
              <LongitudeDegrees>-5.345922522246837615966796875</LongitudeDegrees>
            </Position>
            <AltitudeMeters>24.6000003814697265625</AltitudeMeters>
            <DistanceMeters>2270.6084891549</DistanceMeters>
          </Trackpoint>
          <Trackpoint>
            <Time>2018-06-10T08:01:08.000Z</Time>
            <Position>
              <LatitudeDegrees>35.9010885469615459442138671875</LatitudeDegrees>
              <LongitudeDegrees>-5.34593551419675350189208984375</LongitudeDegrees>
            </Position>
            <AltitudeMeters>24.799999237060546875</AltitudeMeters>
            <DistanceMeters>2271.8328227245</DistanceMeters>
          </Trackpoint>
          <Trackpoint>
            <Time>2018-06-10T08:01:10.000Z</Time>
            <Position>
              <LatitudeDegrees>35.9010935761034488677978515625</LatitudeDegrees>
              <LongitudeDegrees>-5.3459599055349826812744140625</LongitudeDegrees>
            </Position>
            <AltitudeMeters>25.3999996185302734375</AltitudeMeters>
            <DistanceMeters>2274.1015544347</DistanceMeters>
          </Trackpoint>
          <Trackpoint>
            <Time>2018-06-10T08:01:12.000Z</Time>
            <Position>
              <LatitudeDegrees>35.9010972641408443450927734375</LatitudeDegrees>
              <LongitudeDegrees>-5.34598798491060733795166015625</LongitudeDegrees>
            </Position>
            <AltitudeMeters>26.200000762939453125</AltitudeMeters>
            <DistanceMeters>2276.6655153648</DistanceMeters>
          </Trackpoint>
          <Trackpoint>
            <Time>2018-06-10T08:01:15.000Z</Time>
            <Position>
              <LatitudeDegrees>35.90110757388174533843994140625</LatitudeDegrees>
              <LongitudeDegrees>-5.34602587111294269561767578125</LongitudeDegrees>
            </Position>
            <AltitudeMeters>27</AltitudeMeters>
            <DistanceMeters>2280.2677674174</DistanceMeters>
          </Trackpoint>
          <Trackpoint>
            <Time>2018-06-10T08:01:17.000Z</Time>
            <Position>
              <LatitudeDegrees>35.90111578814685344696044921875</LatitudeDegrees>
              <LongitudeDegrees>-5.34605051390826702117919921875</LongitudeDegrees>
            </Position>
            <AltitudeMeters>27.6000003814697265625</AltitudeMeters>
            <DistanceMeters>2282.6717742651</DistanceMeters>
          </Trackpoint>
          <Trackpoint>
            <Time>2018-06-10T08:01:19.000Z</Time>
            <Position>
              <LatitudeDegrees>35.90112014673650264739990234375</LatitudeDegrees>
              <LongitudeDegrees>-5.34608035348355770111083984375</LongitudeDegrees>
            </Position>
            <AltitudeMeters>28.200000762939453125</AltitudeMeters>
            <DistanceMeters>2285.4061669391</DistanceMeters>
          </Trackpoint>
          <Trackpoint>
            <Time>2018-06-10T08:01:25.000Z</Time>
            <Position>
              <LatitudeDegrees>35.9011321328580379486083984375</LatitudeDegrees>
              <LongitudeDegrees>-5.346170961856842041015625</LongitudeDegrees>
            </Position>
            <AltitudeMeters>30.3999996185302734375</AltitudeMeters>
            <DistanceMeters>2293.6838610659</DistanceMeters>
          </Trackpoint>
          <Trackpoint>
            <Time>2018-06-10T08:01:26.000Z</Time>
            <Position>
              <LatitudeDegrees>35.9011328034102916717529296875</LatitudeDegrees>
              <LongitudeDegrees>-5.3461830317974090576171875</LongitudeDegrees>
            </Position>
            <AltitudeMeters>30.799999237060546875</AltitudeMeters>
            <DistanceMeters>2294.7756348935</DistanceMeters>
          </Trackpoint>
          <Trackpoint>
            <Time>2018-06-10T08:01:34.000Z</Time>
            <Position>
              <LatitudeDegrees>35.9011364914476871490478515625</LatitudeDegrees>
              <LongitudeDegrees>-5.34630448557436466217041015625</LongitudeDegrees>
            </Position>
            <AltitudeMeters>33.799999237060546875</AltitudeMeters>
            <DistanceMeters>2305.7330021137</DistanceMeters>
          </Trackpoint>
          <Trackpoint>
            <Time>2018-06-10T08:01:40.000Z</Time>
            <Position>
              <LatitudeDegrees>35.90115635655820369720458984375</LatitudeDegrees>
              <LongitudeDegrees>-5.3464212454855442047119140625</LongitudeDegrees>
            </Position>
            <AltitudeMeters>35.40000152587890625</AltitudeMeters>
            <DistanceMeters>2316.4899254449</DistanceMeters>
          </Trackpoint>
          <Trackpoint>
            <Time>2018-06-10T08:01:47.000Z</Time>
            <Position>
              <LatitudeDegrees>35.9011810831725597381591796875</LatitudeDegrees>
              <LongitudeDegrees>-5.34651235677301883697509765625</LongitudeDegrees>
            </Position>
            <AltitudeMeters>36.59999847412109375</AltitudeMeters>
            <DistanceMeters>2325.1530060359</DistanceMeters>
          </Trackpoint>
          <Trackpoint>
            <Time>2018-06-10T08:01:52.000Z</Time>
            <Position>
              <LatitudeDegrees>35.90119591914117336273193359375</LatitudeDegrees>
              <LongitudeDegrees>-5.3465781547129154205322265625</LongitudeDegrees>
            </Position>
            <AltitudeMeters>37.200000762939453125</AltitudeMeters>
            <DistanceMeters>2331.3099745198</DistanceMeters>
          </Trackpoint>
          <Trackpoint>
            <Time>2018-06-10T08:02:00.000Z</Time>
            <Position>
              <LatitudeDegrees>35.90121620334684848785400390625</LatitudeDegrees>
              <LongitudeDegrees>-5.3466800786554813385009765625</LongitudeDegrees>
            </Position>
            <AltitudeMeters>38.40000152587890625</AltitudeMeters>
            <DistanceMeters>2340.7721734155</DistanceMeters>
          </Trackpoint>
          <Trackpoint>
            <Time>2018-06-10T08:02:08.000Z</Time>
            <Position>
              <LatitudeDegrees>35.901239924132823944091796875</LatitudeDegrees>
              <LongitudeDegrees>-5.346803963184356689453125</LongitudeDegrees>
            </Position>
            <AltitudeMeters>40</AltitudeMeters>
            <DistanceMeters>2352.2495753499</DistanceMeters>
          </Trackpoint>
          <Trackpoint>
            <Time>2018-06-10T08:02:13.000Z</Time>
            <Position>
              <LatitudeDegrees>35.90122282505035400390625</LatitudeDegrees>
              <LongitudeDegrees>-5.34686188213527202606201171875</LongitudeDegrees>
            </Position>
            <AltitudeMeters>40.799999237060546875</AltitudeMeters>
            <DistanceMeters>2357.8084350883</DistanceMeters>
          </Trackpoint>
          <Trackpoint>
            <Time>2018-06-10T08:02:19.000Z</Time>
            <Position>
              <LatitudeDegrees>35.9011881239712238311767578125</LatitudeDegrees>
              <LongitudeDegrees>-5.34694218076765537261962890625</LongitudeDegrees>
            </Position>
            <AltitudeMeters>42.200000762939453125</AltitudeMeters>
            <DistanceMeters>2366.0143646544</DistanceMeters>
          </Trackpoint>
          <Trackpoint>
            <Time>2018-06-10T08:02:21.000Z</Time>
            <Position>
              <LatitudeDegrees>35.90117521584033966064453125</LatitudeDegrees>
              <LongitudeDegrees>-5.34697185270488262176513671875</LongitudeDegrees>
            </Position>
            <AltitudeMeters>42.59999847412109375</AltitudeMeters>
            <DistanceMeters>2369.052248478</DistanceMeters>
          </Trackpoint>
          <Trackpoint>
            <Time>2018-06-10T08:02:25.000Z</Time>
            <Position>
              <LatitudeDegrees>35.90116918087005615234375</LatitudeDegrees>
              <LongitudeDegrees>-5.3470234014093875885009765625</LongitudeDegrees>
            </Position>
            <AltitudeMeters>43.40000152587890625</AltitudeMeters>
            <DistanceMeters>2373.7481452694</DistanceMeters>
          </Trackpoint>
          <Trackpoint>
            <Time>2018-06-10T08:02:29.000Z</Time>
            <Position>
              <LatitudeDegrees>35.90116004459559917449951171875</LatitudeDegrees>
              <LongitudeDegrees>-5.34707562066614627838134765625</LongitudeDegrees>
            </Position>
            <AltitudeMeters>44.200000762939453125</AltitudeMeters>
            <DistanceMeters>2378.5646031364</DistanceMeters>
          </Trackpoint>
          <Trackpoint>
            <Time>2018-06-10T08:02:34.000Z</Time>
            <Position>
              <LatitudeDegrees>35.901154093444347381591796875</LatitudeDegrees>
              <LongitudeDegrees>-5.34713781438767910003662109375</LongitudeDegrees>
            </Position>
            <AltitudeMeters>45</AltitudeMeters>
            <DistanceMeters>2384.2105016342</DistanceMeters>
          </Trackpoint>
          <Trackpoint>
            <Time>2018-06-10T08:02:40.000Z</Time>
            <Position>
              <LatitudeDegrees>35.90114437043666839599609375</LatitudeDegrees>
              <LongitudeDegrees>-5.347219370305538177490234375</LongitudeDegrees>
            </Position>
            <AltitudeMeters>46</AltitudeMeters>
            <DistanceMeters>2391.6432674508</DistanceMeters>
          </Trackpoint>
          <Trackpoint>
            <Time>2018-06-10T08:02:45.000Z</Time>
            <Position>
              <LatitudeDegrees>35.90114763937890529632568359375</LatitudeDegrees>
              <LongitudeDegrees>-5.3472825698554515838623046875</LongitudeDegrees>
            </Position>
            <AltitudeMeters>46.59999847412109375</AltitudeMeters>
            <DistanceMeters>2397.3543650787</DistanceMeters>
          </Trackpoint>
          <Trackpoint>
            <Time>2018-06-10T08:02:46.000Z</Time>
            <Position>
              <LatitudeDegrees>35.90114898048341274261474609375</LatitudeDegrees>
              <LongitudeDegrees>-5.3472956456243991851806640625</LongitudeDegrees>
            </Position>
            <AltitudeMeters>46.799999237060546875</AltitudeMeters>
            <DistanceMeters>2398.5412483608</DistanceMeters>
          </Trackpoint>
          <Trackpoint>
            <Time>2018-06-10T08:02:51.000Z</Time>
            <Position>
              <LatitudeDegrees>35.90115602128207683563232421875</LatitudeDegrees>
              <LongitudeDegrees>-5.34734669141471385955810546875</LongitudeDegrees>
            </Position>
            <AltitudeMeters>47.200000762939453125</AltitudeMeters>
            <DistanceMeters>2403.2101459325</DistanceMeters>
          </Trackpoint>
          <Trackpoint>
            <Time>2018-06-10T08:02:57.000Z</Time>
            <Position>
              <LatitudeDegrees>35.90116105042397975921630859375</LatitudeDegrees>
              <LongitudeDegrees>-5.3474103100597858428955078125</LongitudeDegrees>
            </Position>
            <AltitudeMeters>48</AltitudeMeters>
            <DistanceMeters>2408.973185162</DistanceMeters>
          </Trackpoint>
          <Trackpoint>
            <Time>2018-06-10T08:03:03.000Z</Time>
            <Position>
              <LatitudeDegrees>35.90115501545369625091552734375</LatitudeDegrees>
              <LongitudeDegrees>-5.34748348407447338104248046875</LongitudeDegrees>
            </Position>
            <AltitudeMeters>49.200000762939453125</AltitudeMeters>
            <DistanceMeters>2415.6046610371</DistanceMeters>
          </Trackpoint>
          <Trackpoint>
            <Time>2018-06-10T08:03:08.000Z</Time>
            <Position>
              <LatitudeDegrees>35.901158787310123443603515625</LatitudeDegrees>
              <LongitudeDegrees>-5.3475390560925006866455078125</LongitudeDegrees>
            </Position>
            <AltitudeMeters>50</AltitudeMeters>
            <DistanceMeters>2420.6312059629</DistanceMeters>
          </Trackpoint>
          <Trackpoint>
            <Time>2018-06-10T08:03:15.000Z</Time>
            <Position>
              <LatitudeDegrees>35.90118586085736751556396484375</LatitudeDegrees>
              <LongitudeDegrees>-5.34763745963573455810546875</LongitudeDegrees>
            </Position>
            <AltitudeMeters>51.59999847412109375</AltitudeMeters>
            <DistanceMeters>2430.0008592749</DistanceMeters>
          </Trackpoint>
          <Trackpoint>
            <Time>2018-06-10T08:03:22.000Z</Time>
            <Position>
              <LatitudeDegrees>35.90121754445135593414306640625</LatitudeDegrees>
              <LongitudeDegrees>-5.34771616570651531219482421875</LongitudeDegrees>
            </Position>
            <AltitudeMeters>52.59999847412109375</AltitudeMeters>
            <DistanceMeters>2437.9246286756</DistanceMeters>
          </Trackpoint>
          <Trackpoint>
            <Time>2018-06-10T08:03:31.000Z</Time>
            <Position>
              <LatitudeDegrees>35.9012675844132900238037109375</LatitudeDegrees>
              <LongitudeDegrees>-5.3478325903415679931640625</LongitudeDegrees>
            </Position>
            <AltitudeMeters>54.200000762939453125</AltitudeMeters>
            <DistanceMeters>2449.8071484116</DistanceMeters>
          </Trackpoint>
          <Trackpoint>
            <Time>2018-06-10T08:03:40.000Z</Time>
            <Position>
              <LatitudeDegrees>35.901302956044673919677734375</LatitudeDegrees>
              <LongitudeDegrees>-5.34794700331985950469970703125</LongitudeDegrees>
            </Position>
            <AltitudeMeters>56</AltitudeMeters>
            <DistanceMeters>2460.8482548776</DistanceMeters>
          </Trackpoint>
          <Trackpoint>
            <Time>2018-06-10T08:03:52.000Z</Time>
            <Position>
              <LatitudeDegrees>35.901331789791584014892578125</LatitudeDegrees>
              <LongitudeDegrees>-5.34806367941200733184814453125</LongitudeDegrees>
            </Position>
            <AltitudeMeters>57.40000152587890625</AltitudeMeters>
            <DistanceMeters>2471.8459293541</DistanceMeters>
          </Trackpoint>
          <Trackpoint>
            <Time>2018-06-10T08:03:54.000Z</Time>
            <Position>
              <LatitudeDegrees>35.90133975259959697723388671875</LatitudeDegrees>
              <LongitudeDegrees>-5.34809075295925140380859375</LongitudeDegrees>
            </Position>
            <AltitudeMeters>57.799999237060546875</AltitudeMeters>
            <DistanceMeters>2474.4431330626</DistanceMeters>
          </Trackpoint>
          <Trackpoint>
            <Time>2018-06-10T08:04:08.000Z</Time>
            <Position>
              <LatitudeDegrees>35.901462547481060028076171875</LatitudeDegrees>
              <LongitudeDegrees>-5.34826199524104595184326171875</LongitudeDegrees>
            </Position>
            <AltitudeMeters>60.200000762939453125</AltitudeMeters>
            <DistanceMeters>2495.062397335</DistanceMeters>
          </Trackpoint>
          <Trackpoint>
            <Time>2018-06-10T08:04:18.000Z</Time>
            <Position>
              <LatitudeDegrees>35.90154242701828479766845703125</LatitudeDegrees>
              <LongitudeDegrees>-5.34840616397559642791748046875</LongitudeDegrees>
            </Position>
            <AltitudeMeters>62.799999237060546875</AltitudeMeters>
            <DistanceMeters>2510.8099037822</DistanceMeters>
          </Trackpoint>
          <Trackpoint>
            <Time>2018-06-10T08:04:25.000Z</Time>
            <Position>
              <LatitudeDegrees>35.90160110034048557281494140625</LatitudeDegrees>
              <LongitudeDegrees>-5.34846701659262180328369140625</LongitudeDegrees>
            </Position>
            <AltitudeMeters>64</AltitudeMeters>
            <DistanceMeters>2519.3390476919</DistanceMeters>
          </Trackpoint>
          <Trackpoint>
            <Time>2018-06-10T08:04:28.000Z</Time>
            <Position>
              <LatitudeDegrees>35.90162440203130245208740234375</LatitudeDegrees>
              <LongitudeDegrees>-5.34848495386540889739990234375</LongitudeDegrees>
            </Position>
            <AltitudeMeters>64.40000152587890625</AltitudeMeters>
            <DistanceMeters>2522.394714402</DistanceMeters>
          </Trackpoint>
          <Trackpoint>
            <Time>2018-06-10T08:04:30.000Z</Time>
            <Position>
              <LatitudeDegrees>35.9016357176005840301513671875</LatitudeDegrees>
              <LongitudeDegrees>-5.34850205294787883758544921875</LongitudeDegrees>
            </Position>
            <AltitudeMeters>64.59999847412109375</AltitudeMeters>
            <DistanceMeters>2524.3834761983</DistanceMeters>
          </Trackpoint>
          <Trackpoint>
            <Time>2018-06-10T08:04:44.000Z</Time>
            <Position>
              <LatitudeDegrees>35.9017158485949039459228515625</LatitudeDegrees>
              <LongitudeDegrees>-5.34868729300796985626220703125</LongitudeDegrees>
            </Position>
            <AltitudeMeters>65.59999847412109375</AltitudeMeters>
            <DistanceMeters>2543.3164610269</DistanceMeters>
          </Trackpoint>
          <Trackpoint>
            <Time>2018-06-10T08:04:51.000Z</Time>
            <Position>
              <LatitudeDegrees>35.90178181417286396026611328125</LatitudeDegrees>
              <LongitudeDegrees>-5.34882861189544200897216796875</LongitudeDegrees>
            </Position>
            <AltitudeMeters>65.8000030517578125</AltitudeMeters>
            <DistanceMeters>2558.0219794019</DistanceMeters>
          </Trackpoint>
          <Trackpoint>
            <Time>2018-06-10T08:04:54.000Z</Time>
            <Position>
              <LatitudeDegrees>35.90180997736752033233642578125</LatitudeDegrees>
              <LongitudeDegrees>-5.34888711757957935333251953125</LongitudeDegrees>
            </Position>
            <AltitudeMeters>66.40000152587890625</AltitudeMeters>
            <DistanceMeters>2564.1583805273</DistanceMeters>
          </Trackpoint>
          <Trackpoint>
            <Time>2018-06-10T08:05:03.000Z</Time>
            <Position>
              <LatitudeDegrees>35.90185876004397869110107421875</LatitudeDegrees>
              <LongitudeDegrees>-5.3490181267261505126953125</LongitudeDegrees>
            </Position>
            <AltitudeMeters>67.8000030517578125</AltitudeMeters>
            <DistanceMeters>2577.1576043694</DistanceMeters>
          </Trackpoint>
          <Trackpoint>
            <Time>2018-06-10T08:05:06.000Z</Time>
            <Position>
              <LatitudeDegrees>35.90188122354447841644287109375</LatitudeDegrees>
              <LongitudeDegrees>-5.34904620610177516937255859375</LongitudeDegrees>
            </Position>
            <AltitudeMeters>68.1999969482421875</AltitudeMeters>
            <DistanceMeters>2580.7157172364</DistanceMeters>
          </Trackpoint>
          <Trackpoint>
            <Time>2018-06-10T08:05:11.000Z</Time>
            <Position>
              <LatitudeDegrees>35.90196646749973297119140625</LatitudeDegrees>
              <LongitudeDegrees>-5.3490873612463474273681640625</LongitudeDegrees>
            </Position>
            <AltitudeMeters>68.1999969482421875</AltitudeMeters>
            <DistanceMeters>2590.9035383305</DistanceMeters>
          </Trackpoint>
          <Trackpoint>
            <Time>2018-06-10T08:05:24.000Z</Time>
            <Position>
              <LatitudeDegrees>35.90210015885531902313232421875</LatitudeDegrees>
              <LongitudeDegrees>-5.34920009784400463104248046875</LongitudeDegrees>
            </Position>
            <AltitudeMeters>67.40000152587890625</AltitudeMeters>
            <DistanceMeters>2608.9235702097</DistanceMeters>
          </Trackpoint>
          <Trackpoint>
            <Time>2018-06-10T08:05:29.000Z</Time>
            <Position>
              <LatitudeDegrees>35.90214860625565052032470703125</LatitudeDegrees>
              <LongitudeDegrees>-5.349161624908447265625</LongitudeDegrees>
            </Position>
            <AltitudeMeters>66.59999847412109375</AltitudeMeters>
            <DistanceMeters>2615.3355853414</DistanceMeters>
          </Trackpoint>
          <Trackpoint>
            <Time>2018-06-10T08:05:30.000Z</Time>
            <Position>
              <LatitudeDegrees>35.9021548926830291748046875</LatitudeDegrees>
              <LongitudeDegrees>-5.349148549139499664306640625</LongitudeDegrees>
            </Position>
            <AltitudeMeters>66.40000152587890625</AltitudeMeters>
            <DistanceMeters>2616.7060801062</DistanceMeters>
          </Trackpoint>
          <Trackpoint>
            <Time>2018-06-10T08:05:33.000Z</Time>
            <Position>
              <LatitudeDegrees>35.90217660181224346160888671875</LatitudeDegrees>
              <LongitudeDegrees>-5.3491084836423397064208984375</LongitudeDegrees>
            </Position>
            <AltitudeMeters>66</AltitudeMeters>
            <DistanceMeters>2621.0524486963</DistanceMeters>
          </Trackpoint>
          <Trackpoint>
            <Time>2018-06-10T08:05:36.000Z</Time>
            <Position>
              <LatitudeDegrees>35.902192778885364532470703125</LatitudeDegrees>
              <LongitudeDegrees>-5.34905794076621532440185546875</LongitudeDegrees>
            </Position>
            <AltitudeMeters>65.59999847412109375</AltitudeMeters>
            <DistanceMeters>2625.953469339</DistanceMeters>
          </Trackpoint>
          <Trackpoint>
            <Time>2018-06-10T08:05:43.000Z</Time>
            <Position>
              <LatitudeDegrees>35.90222639031708240509033203125</LatitudeDegrees>
              <LongitudeDegrees>-5.3489455394446849822998046875</LongitudeDegrees>
            </Position>
            <AltitudeMeters>64.8000030517578125</AltitudeMeters>
            <DistanceMeters>2636.7556287439</DistanceMeters>
          </Trackpoint>
          <Trackpoint>
            <Time>2018-06-10T08:05:46.000Z</Time>
            <Position>
              <LatitudeDegrees>35.90223661623895168304443359375</LatitudeDegrees>
              <LongitudeDegrees>-5.3488992713391780853271484375</LongitudeDegrees>
            </Position>
            <AltitudeMeters>64.40000152587890625</AltitudeMeters>
            <DistanceMeters>2641.0790831775</DistanceMeters>
          </Trackpoint>
          <Trackpoint>
            <Time>2018-06-10T08:05:47.000Z</Time>
            <Position>
              <LatitudeDegrees>35.9022321738302707672119140625</LatitudeDegrees>
              <LongitudeDegrees>-5.34888074733316898345947265625</LongitudeDegrees>
            </Position>
            <AltitudeMeters>64.40000152587890625</AltitudeMeters>
            <DistanceMeters>2642.8209516241</DistanceMeters>
          </Trackpoint>
          <Trackpoint>
            <Time>2018-06-10T08:06:00.000Z</Time>
            <Position>
              <LatitudeDegrees>35.90221054852008819580078125</LatitudeDegrees>
              <LongitudeDegrees>-5.34870254807174205780029296875</LongitudeDegrees>
            </Position>
            <AltitudeMeters>63.799999237060546875</AltitudeMeters>
            <DistanceMeters>2659.0663514083</DistanceMeters>
          </Trackpoint>
          <Trackpoint>
            <Time>2018-06-10T08:06:07.000Z</Time>
            <Position>
              <LatitudeDegrees>35.9021627716720104217529296875</LatitudeDegrees>
              <LongitudeDegrees>-5.34862107597291469573974609375</LongitudeDegrees>
            </Position>
            <AltitudeMeters>63.799999237060546875</AltitudeMeters>
            <DistanceMeters>2668.1348080673</DistanceMeters>
          </Trackpoint>
          <Trackpoint>
            <Time>2018-06-10T08:06:13.000Z</Time>
            <Position>
              <LatitudeDegrees>35.9021507017314434051513671875</LatitudeDegrees>
              <LongitudeDegrees>-5.348536670207977294921875</LongitudeDegrees>
            </Position>
            <AltitudeMeters>63.59999847412109375</AltitudeMeters>
            <DistanceMeters>2675.8624141341</DistanceMeters>
          </Trackpoint>
          <Trackpoint>
            <Time>2018-06-10T08:06:20.000Z</Time>
            <Position>
              <LatitudeDegrees>35.9021453373134136199951171875</LatitudeDegrees>
              <LongitudeDegrees>-5.3484199941158294677734375</LongitudeDegrees>
            </Position>
            <AltitudeMeters>63.40000152587890625</AltitudeMeters>
            <DistanceMeters>2686.3988157875</DistanceMeters>
          </Trackpoint>
          <Trackpoint>
            <Time>2018-06-10T08:06:26.000Z</Time>
            <Position>
              <LatitudeDegrees>35.90213016606867313385009765625</LatitudeDegrees>
              <LongitudeDegrees>-5.3483125381171703338623046875</LongitudeDegrees>
            </Position>
            <AltitudeMeters>63.200000762939453125</AltitudeMeters>
            <DistanceMeters>2696.2325886463</DistanceMeters>
          </Trackpoint>
          <Trackpoint>
            <Time>2018-06-10T08:06:32.000Z</Time>
            <Position>
              <LatitudeDegrees>35.90212312527000904083251953125</LatitudeDegrees>
              <LongitudeDegrees>-5.3481975384056568145751953125</LongitudeDegrees>
            </Position>
            <AltitudeMeters>63</AltitudeMeters>
            <DistanceMeters>2706.6300919614</DistanceMeters>
          </Trackpoint>
          <Trackpoint>
            <Time>2018-06-10T08:06:40.000Z</Time>
            <Position>
              <LatitudeDegrees>35.902137123048305511474609375</LatitudeDegrees>
              <LongitudeDegrees>-5.34804557450115680694580078125</LongitudeDegrees>
            </Position>
            <AltitudeMeters>62.200000762939453125</AltitudeMeters>
            <DistanceMeters>2720.4191198315</DistanceMeters>
          </Trackpoint>
          <Trackpoint>
            <Time>2018-06-10T08:06:50.000Z</Time>
            <Position>
              <LatitudeDegrees>35.90214776806533336639404296875</LatitudeDegrees>
              <LongitudeDegrees>-5.34786888398230075836181640625</LongitudeDegrees>
            </Position>
            <AltitudeMeters>60.200000762939453125</AltitudeMeters>
            <DistanceMeters>2736.3926554452</DistanceMeters>
          </Trackpoint>
          <Trackpoint>
            <Time>2018-06-10T08:07:00.000Z</Time>
            <Position>
              <LatitudeDegrees>35.90223611332476139068603515625</LatitudeDegrees>
              <LongitudeDegrees>-5.34781054593622684478759765625</LongitudeDegrees>
            </Position>
            <AltitudeMeters>60</AltitudeMeters>
            <DistanceMeters>2747.543626373</DistanceMeters>
          </Trackpoint>
          <Trackpoint>
            <Time>2018-06-10T08:07:08.000Z</Time>
            <Position>
              <LatitudeDegrees>35.902324207127094268798828125</LatitudeDegrees>
              <LongitudeDegrees>-5.347876846790313720703125</LongitudeDegrees>
            </Position>
            <AltitudeMeters>60</AltitudeMeters>
            <DistanceMeters>2759.0265343773</DistanceMeters>
          </Trackpoint>
          <Trackpoint>
            <Time>2018-06-10T08:07:10.000Z</Time>
            <Position>
              <LatitudeDegrees>35.9023399651050567626953125</LatitudeDegrees>
              <LongitudeDegrees>-5.34789738245308399200439453125</LongitudeDegrees>
            </Position>
            <AltitudeMeters>60.200000762939453125</AltitudeMeters>
            <DistanceMeters>2761.5763686934</DistanceMeters>
          </Trackpoint>
          <Trackpoint>
            <Time>2018-06-10T08:07:15.000Z</Time>
            <Position>
              <LatitudeDegrees>35.90236821211874485015869140625</LatitudeDegrees>
              <LongitudeDegrees>-5.3479708917438983917236328125</LongitudeDegrees>
            </Position>
            <AltitudeMeters>61.200000762939453125</AltitudeMeters>
            <DistanceMeters>2768.9112985126</DistanceMeters>
          </Trackpoint>
          <Trackpoint>
            <Time>2018-06-10T08:07:18.000Z</Time>
            <Position>
              <LatitudeDegrees>35.90238623321056365966796875</LatitudeDegrees>
              <LongitudeDegrees>-5.348010957241058349609375</LongitudeDegrees>
            </Position>
            <AltitudeMeters>61.200000762939453125</AltitudeMeters>
            <DistanceMeters>2773.0425022693</DistanceMeters>
          </Trackpoint>
          <Trackpoint>
            <Time>2018-06-10T08:07:25.000Z</Time>
            <Position>
              <LatitudeDegrees>35.90238061733543872833251953125</LatitudeDegrees>
              <LongitudeDegrees>-5.348106510937213897705078125</LongitudeDegrees>
            </Position>
            <AltitudeMeters>61.40000152587890625</AltitudeMeters>
            <DistanceMeters>2781.6800072088</DistanceMeters>
          </Trackpoint>
          <Trackpoint>
            <Time>2018-06-10T08:07:29.000Z</Time>
            <Position>
              <LatitudeDegrees>35.90236335061490535736083984375</LatitudeDegrees>
              <LongitudeDegrees>-5.3481633402407169342041015625</LongitudeDegrees>
            </Position>
            <AltitudeMeters>61.59999847412109375</AltitudeMeters>
            <DistanceMeters>2787.1520939669</DistanceMeters>
          </Trackpoint>
          <Trackpoint>
            <Time>2018-06-10T08:07:31.000Z</Time>
            <Position>
              <LatitudeDegrees>35.90235614217817783355712890625</LatitudeDegrees>
              <LongitudeDegrees>-5.34819376654922962188720703125</LongitudeDegrees>
            </Position>
            <AltitudeMeters>61.799999237060546875</AltitudeMeters>
            <DistanceMeters>2790.0092234889</DistanceMeters>
          </Trackpoint>
          <Trackpoint>
            <Time>2018-06-10T08:07:32.000Z</Time>
            <Position>
              <LatitudeDegrees>35.90235429815948009490966796875</LatitudeDegrees>
              <LongitudeDegrees>-5.34820416010916233062744140625</LongitudeDegrees>
            </Position>
            <AltitudeMeters>61.799999237060546875</AltitudeMeters>
            <DistanceMeters>2790.964230149</DistanceMeters>
          </Trackpoint>
          <Trackpoint>
            <Time>2018-06-10T08:07:33.000Z</Time>
            <Position>
              <LatitudeDegrees>35.90235345996916294097900390625</LatitudeDegrees>
              <LongitudeDegrees>-5.34821136854588985443115234375</LongitudeDegrees>
            </Position>
            <AltitudeMeters>61.799999237060546875</AltitudeMeters>
            <DistanceMeters>2791.6225945384</DistanceMeters>
          </Trackpoint>
          <Trackpoint>
            <Time>2018-06-10T08:07:34.000Z</Time>
            <Position>
              <LatitudeDegrees>35.90235228650271892547607421875</LatitudeDegrees>
              <LongitudeDegrees>-5.3482173196971416473388671875</LongitudeDegrees>
            </Position>
            <AltitudeMeters>61.799999237060546875</AltitudeMeters>
            <DistanceMeters>2792.1766907387</DistanceMeters>
          </Trackpoint>
          <Trackpoint>
            <Time>2018-06-10T08:07:40.000Z</Time>
            <Position>
              <LatitudeDegrees>35.9023320861160755157470703125</LatitudeDegrees>
              <LongitudeDegrees>-5.3482820279896259307861328125</LongitudeDegrees>
            </Position>
            <AltitudeMeters>62.200000762939453125</AltitudeMeters>
            <DistanceMeters>2798.4282642085</DistanceMeters>
          </Trackpoint>
          <Trackpoint>
            <Time>2018-06-10T08:07:50.000Z</Time>
            <Position>
              <LatitudeDegrees>35.90234021656215190887451171875</LatitudeDegrees>
              <LongitudeDegrees>-5.3484092652797698974609375</LongitudeDegrees>
            </Position>
            <AltitudeMeters>62.40000152587890625</AltitudeMeters>
            <DistanceMeters>2809.9355245677</DistanceMeters>
          </Trackpoint>
          <Trackpoint>
            <Time>2018-06-10T08:07:56.000Z</Time>
            <Position>
              <LatitudeDegrees>35.90237692929804325103759765625</LatitudeDegrees>
              <LongitudeDegrees>-5.34846433438360691070556640625</LongitudeDegrees>
            </Position>
            <AltitudeMeters>62.40000152587890625</AltitudeMeters>
            <DistanceMeters>2816.3651194197</DistanceMeters>
          </Trackpoint>
          <Trackpoint>
            <Time>2018-06-10T08:07:57.000Z</Time>
            <Position>
              <LatitudeDegrees>35.90238212607800960540771484375</LatitudeDegrees>
              <LongitudeDegrees>-5.34847925417125225067138671875</LongitudeDegrees>
            </Position>
            <AltitudeMeters>62.40000152587890625</AltitudeMeters>
            <DistanceMeters>2817.8249475057</DistanceMeters>
          </Trackpoint>
          <Trackpoint>
            <Time>2018-06-10T08:07:59.000Z</Time>
            <Position>
              <LatitudeDegrees>35.90238464064896106719970703125</LatitudeDegrees>
              <LongitudeDegrees>-5.34850926138460636138916015625</LongitudeDegrees>
            </Position>
            <AltitudeMeters>62.40000152587890625</AltitudeMeters>
            <DistanceMeters>2820.5444387463</DistanceMeters>
          </Trackpoint>
          <Trackpoint>
            <Time>2018-06-10T08:08:04.000Z</Time>
            <Position>
              <LatitudeDegrees>35.9024021588265895843505859375</LatitudeDegrees>
              <LongitudeDegrees>-5.34857698716223239898681640625</LongitudeDegrees>
            </Position>
            <AltitudeMeters>62.40000152587890625</AltitudeMeters>
            <DistanceMeters>2826.9543410716</DistanceMeters>
          </Trackpoint>
          <Trackpoint>
            <Time>2018-06-10T08:08:06.000Z</Time>
            <Position>
              <LatitudeDegrees>35.90240961872041225433349609375</LatitudeDegrees>
              <LongitudeDegrees>-5.348611772060394287109375</LongitudeDegrees>
            </Position>
            <AltitudeMeters>62.40000152587890625</AltitudeMeters>
            <DistanceMeters>2830.1991937853</DistanceMeters>
          </Trackpoint>
          <Trackpoint>
            <Time>2018-06-10T08:08:15.000Z</Time>
            <Position>
              <LatitudeDegrees>35.902458317577838897705078125</LatitudeDegrees>
              <LongitudeDegrees>-5.348715372383594512939453125</LongitudeDegrees>
            </Position>
            <AltitudeMeters>63.59999847412109375</AltitudeMeters>
            <DistanceMeters>2840.9984269652</DistanceMeters>
          </Trackpoint>
          <Trackpoint>
            <Time>2018-06-10T08:08:21.000Z</Time>
            <Position>
              <LatitudeDegrees>35.90250022709369659423828125</LatitudeDegrees>
              <LongitudeDegrees>-5.348780415952205657958984375</LongitudeDegrees>
            </Position>
            <AltitudeMeters>64.59999847412109375</AltitudeMeters>
            <DistanceMeters>2848.4916916295</DistanceMeters>
          </Trackpoint>
          <Trackpoint>
            <Time>2018-06-10T08:08:22.000Z</Time>
            <Position>
              <LatitudeDegrees>35.90250550769269466400146484375</LatitudeDegrees>
              <LongitudeDegrees>-5.348797179758548736572265625</LongitudeDegrees>
            </Position>
            <AltitudeMeters>64.8000030517578125</AltitudeMeters>
            <DistanceMeters>2850.1155088364</DistanceMeters>
          </Trackpoint>
          <Trackpoint>
            <Time>2018-06-10T08:08:26.000Z</Time>
            <Position>
              <LatitudeDegrees>35.90252302587032318115234375</LatitudeDegrees>
              <LongitudeDegrees>-5.34884872846305370330810546875</LongitudeDegrees>
            </Position>
            <AltitudeMeters>65.1999969482421875</AltitudeMeters>
            <DistanceMeters>2855.1546134157</DistanceMeters>
          </Trackpoint>
          <Trackpoint>
            <Time>2018-06-10T08:08:39.000Z</Time>
            <Position>
              <LatitudeDegrees>35.90257725678384304046630859375</LatitudeDegrees>
              <LongitudeDegrees>-5.34904620610177516937255859375</LongitudeDegrees>
            </Position>
            <AltitudeMeters>66.40000152587890625</AltitudeMeters>
            <DistanceMeters>2873.9538182336</DistanceMeters>
          </Trackpoint>
          <Trackpoint>
            <Time>2018-06-10T08:08:41.000Z</Time>
            <Position>
              <LatitudeDegrees>35.90258379466831684112548828125</LatitudeDegrees>
              <LongitudeDegrees>-5.34907403402030467987060546875</LongitudeDegrees>
            </Position>
            <AltitudeMeters>66.59999847412109375</AltitudeMeters>
            <DistanceMeters>2876.5666209035</DistanceMeters>
          </Trackpoint>
          <Trackpoint>
            <Time>2018-06-10T08:08:54.000Z</Time>
            <Position>
              <LatitudeDegrees>35.90263341553509235382080078125</LatitudeDegrees>
              <LongitudeDegrees>-5.3492660634219646453857421875</LongitudeDegrees>
            </Position>
            <AltitudeMeters>67.8000030517578125</AltitudeMeters>
            <DistanceMeters>2894.7388495933</DistanceMeters>
          </Trackpoint>
          <Trackpoint>
            <Time>2018-06-10T08:08:56.000Z</Time>
            <Position>
              <LatitudeDegrees>35.90264213271439075469970703125</LatitudeDegrees>
              <LongitudeDegrees>-5.34929648973047733306884765625</LongitudeDegrees>
            </Position>
            <AltitudeMeters>68.1999969482421875</AltitudeMeters>
            <DistanceMeters>2897.6492124065</DistanceMeters>
          </Trackpoint>
          <Trackpoint>
            <Time>2018-06-10T08:09:05.000Z</Time>
            <Position>
              <LatitudeDegrees>35.90268437750637531280517578125</LatitudeDegrees>
              <LongitudeDegrees>-5.3494394011795520782470703125</LongitudeDegrees>
            </Position>
            <AltitudeMeters>69.8000030517578125</AltitudeMeters>
            <DistanceMeters>2911.36535664</DistanceMeters>
          </Trackpoint>
          <Trackpoint>
            <Time>2018-06-10T08:09:11.000Z</Time>
            <Position>
              <LatitudeDegrees>35.90271480381488800048828125</LatitudeDegrees>
              <LongitudeDegrees>-5.3495245613157749176025390625</LongitudeDegrees>
            </Position>
            <AltitudeMeters>71</AltitudeMeters>
            <DistanceMeters>2919.7573508122</DistanceMeters>
          </Trackpoint>
          <Trackpoint>
            <Time>2018-06-10T08:09:20.000Z</Time>
            <Position>
              <LatitudeDegrees>35.9027615748345851898193359375</LatitudeDegrees>
              <LongitudeDegrees>-5.34965590573847293853759765625</LongitudeDegrees>
            </Position>
            <AltitudeMeters>72.59999847412109375</AltitudeMeters>
            <DistanceMeters>2932.6925078051</DistanceMeters>
          </Trackpoint>
          <Trackpoint>
            <Time>2018-06-10T08:09:21.000Z</Time>
            <Position>
              <LatitudeDegrees>35.90276551432907581329345703125</LatitudeDegrees>
              <LongitudeDegrees>-5.349666886031627655029296875</LongitudeDegrees>
            </Position>
            <AltitudeMeters>72.8000030517578125</AltitudeMeters>
            <DistanceMeters>2933.7676123511</DistanceMeters>
          </Trackpoint>
          <Trackpoint>
            <Time>2018-06-10T08:09:28.000Z</Time>
            <Position>
              <LatitudeDegrees>35.9027932584285736083984375</LatitudeDegrees>
              <LongitudeDegrees>-5.349771492183208465576171875</LongitudeDegrees>
            </Position>
            <AltitudeMeters>74</AltitudeMeters>
            <DistanceMeters>2943.6914227935</DistanceMeters>
          </Trackpoint>
          <Trackpoint>
            <Time>2018-06-10T08:09:35.000Z</Time>
            <Position>
              <LatitudeDegrees>35.90284011326730251312255859375</LatitudeDegrees>
              <LongitudeDegrees>-5.3498698957264423370361328125</LongitudeDegrees>
            </Position>
            <AltitudeMeters>75.1999969482421875</AltitudeMeters>
            <DistanceMeters>2953.9824254917</DistanceMeters>
          </Trackpoint>
          <Trackpoint>
            <Time>2018-06-10T08:09:43.000Z</Time>
            <Position>
              <LatitudeDegrees>35.90289241634309291839599609375</LatitudeDegrees>
              <LongitudeDegrees>-5.3499828837811946868896484375</LongitudeDegrees>
            </Position>
            <AltitudeMeters>77.1999969482421875</AltitudeMeters>
            <DistanceMeters>2965.7150503179</DistanceMeters>
          </Trackpoint>
          <Trackpoint>
            <Time>2018-06-10T08:09:47.000Z</Time>
            <Position>
              <LatitudeDegrees>35.9029282070696353912353515625</LatitudeDegrees>
              <LongitudeDegrees>-5.350017584860324859619140625</LongitudeDegrees>
            </Position>
            <AltitudeMeters>78</AltitudeMeters>
            <DistanceMeters>2970.7809635874</DistanceMeters>
          </Trackpoint>
          <Trackpoint>
            <Time>2018-06-10T08:09:48.000Z</Time>
            <Position>
              <LatitudeDegrees>35.9029369242489337921142578125</LatitudeDegrees>
              <LongitudeDegrees>-5.3500278107821941375732421875</LongitudeDegrees>
            </Position>
            <AltitudeMeters>78.1999969482421875</AltitudeMeters>
            <DistanceMeters>2972.1181079834</DistanceMeters>
          </Trackpoint>
          <Trackpoint>
            <Time>2018-06-10T08:09:54.000Z</Time>
            <Position>
              <LatitudeDegrees>35.90297824703156948089599609375</LatitudeDegrees>
              <LongitudeDegrees>-5.3501025773584842681884765625</LongitudeDegrees>
            </Position>
            <AltitudeMeters>79.59999847412109375</AltitudeMeters>
            <DistanceMeters>2980.2793483212</DistanceMeters>
          </Trackpoint>
          <Trackpoint>
            <Time>2018-06-10T08:09:57.000Z</Time>
            <Position>
              <LatitudeDegrees>35.902998447418212890625</LatitudeDegrees>
              <LongitudeDegrees>-5.35014524124562740325927734375</LongitudeDegrees>
            </Position>
            <AltitudeMeters>80.40000152587890625</AltitudeMeters>
            <DistanceMeters>2984.734469871</DistanceMeters>
          </Trackpoint>
          <Trackpoint>
            <Time>2018-06-10T08:10:00.000Z</Time>
            <Position>
              <LatitudeDegrees>35.9030227549374103546142578125</LatitudeDegrees>
              <LongitudeDegrees>-5.35017885267734527587890625</LongitudeDegrees>
            </Position>
            <AltitudeMeters>81</AltitudeMeters>
            <DistanceMeters>2988.797348129</DistanceMeters>
          </Trackpoint>
          <Trackpoint>
            <Time>2018-06-10T08:10:05.000Z</Time>
            <Position>
              <LatitudeDegrees>35.903060473501682281494140625</LatitudeDegrees>
              <LongitudeDegrees>-5.3502370230853557586669921875</LongitudeDegrees>
            </Position>
            <AltitudeMeters>82</AltitudeMeters>
            <DistanceMeters>2995.5154075264</DistanceMeters>
          </Trackpoint>
          <Trackpoint>
            <Time>2018-06-10T08:10:11.000Z</Time>
            <Position>
              <LatitudeDegrees>35.90309542603790760040283203125</LatitudeDegrees>
              <LongitudeDegrees>-5.3503131307661533355712890625</LongitudeDegrees>
            </Position>
            <AltitudeMeters>82.59999847412109375</AltitudeMeters>
            <DistanceMeters>3003.4031972485</DistanceMeters>
          </Trackpoint>
          <Trackpoint>
            <Time>2018-06-10T08:10:15.000Z</Time>
            <Position>
              <LatitudeDegrees>35.90311453677713871002197265625</LatitudeDegrees>
              <LongitudeDegrees>-5.35036685876548290252685546875</LongitudeDegrees>
            </Position>
            <AltitudeMeters>83</AltitudeMeters>
            <DistanceMeters>3008.6923537808</DistanceMeters>
          </Trackpoint>
          <Trackpoint>
            <Time>2018-06-10T08:10:16.000Z</Time>
            <Position>
              <LatitudeDegrees>35.9031193144619464874267578125</LatitudeDegrees>
              <LongitudeDegrees>-5.3503788448870182037353515625</LongitudeDegrees>
            </Position>
            <AltitudeMeters>83.1999969482421875</AltitudeMeters>
            <DistanceMeters>3009.8943572047</DistanceMeters>
          </Trackpoint>
          <Trackpoint>
            <Time>2018-06-10T08:10:17.000Z</Time>
            <Position>
              <LatitudeDegrees>35.9031258523464202880859375</LatitudeDegrees>
              <LongitudeDegrees>-5.350389741361141204833984375</LongitudeDegrees>
            </Position>
            <AltitudeMeters>83.1999969482421875</AltitudeMeters>
            <DistanceMeters>3011.1186907743</DistanceMeters>
          </Trackpoint>
          <Trackpoint>
            <Time>2018-06-10T08:10:24.000Z</Time>
            <Position>
              <LatitudeDegrees>35.9031642414629459381103515625</LatitudeDegrees>
              <LongitudeDegrees>-5.3504784218966960906982421875</LongitudeDegrees>
            </Position>
            <AltitudeMeters>83.8000030517578125</AltitudeMeters>
            <DistanceMeters>3020.1836615762</DistanceMeters>
          </Trackpoint>
          <Trackpoint>
            <Time>2018-06-10T08:10:26.000Z</Time>
            <Position>
              <LatitudeDegrees>35.9031753055751323699951171875</LatitudeDegrees>
              <LongitudeDegrees>-5.35051169805228710174560546875</LongitudeDegrees>
            </Position>
            <AltitudeMeters>84.1999969482421875</AltitudeMeters>
            <DistanceMeters>3023.425730203</DistanceMeters>
          </Trackpoint>
          <Trackpoint>
            <Time>2018-06-10T08:10:27.000Z</Time>
            <Position>
              <LatitudeDegrees>35.90318125672638416290283203125</LatitudeDegrees>
              <LongitudeDegrees>-5.35052753984928131103515625</LongitudeDegrees>
            </Position>
            <AltitudeMeters>84.40000152587890625</AltitudeMeters>
            <DistanceMeters>3024.9987022134</DistanceMeters>
          </Trackpoint>
          <Trackpoint>
            <Time>2018-06-10T08:10:29.000Z</Time>
            <Position>
              <LatitudeDegrees>35.90319114737212657928466796875</LatitudeDegrees>
              <LongitudeDegrees>-5.35055436193943023681640625</LongitudeDegrees>
            </Position>
            <AltitudeMeters>84.59999847412109375</AltitudeMeters>
            <DistanceMeters>3027.6560542374</DistanceMeters>
          </Trackpoint>
          <Trackpoint>
            <Time>2018-06-10T08:10:32.000Z</Time>
            <Position>
              <LatitudeDegrees>35.903207994997501373291015625</LatitudeDegrees>
              <LongitudeDegrees>-5.3505887277424335479736328125</LongitudeDegrees>
            </Position>
            <AltitudeMeters>85</AltitudeMeters>
            <DistanceMeters>3031.2783050671</DistanceMeters>
          </Trackpoint>
          <Trackpoint>
            <Time>2018-06-10T08:10:35.000Z</Time>
            <Position>
              <LatitudeDegrees>35.90322501026093959808349609375</LatitudeDegrees>
              <LongitudeDegrees>-5.35062770359218120574951171875</LongitudeDegrees>
            </Position>
            <AltitudeMeters>85.40000152587890625</AltitudeMeters>
            <DistanceMeters>3035.2694270706</DistanceMeters>
          </Trackpoint>
          <Trackpoint>
            <Time>2018-06-10T08:10:42.000Z</Time>
            <Position>
              <LatitudeDegrees>35.90325929224491119384765625</LatitudeDegrees>
              <LongitudeDegrees>-5.3507275320589542388916015625</LongitudeDegrees>
            </Position>
            <AltitudeMeters>86.40000152587890625</AltitudeMeters>
            <DistanceMeters>3045.0447157584</DistanceMeters>
          </Trackpoint>
          <Trackpoint>
            <Time>2018-06-10T08:10:44.000Z</Time>
            <Position>
              <LatitudeDegrees>35.90326960198581218719482421875</LatitudeDegrees>
              <LongitudeDegrees>-5.3507615625858306884765625</LongitudeDegrees>
            </Position>
            <AltitudeMeters>86.8000030517578125</AltitudeMeters>
            <DistanceMeters>3048.3227930864</DistanceMeters>
          </Trackpoint>
          <Trackpoint>
            <Time>2018-06-10T08:10:52.000Z</Time>
            <Position>
              <LatitudeDegrees>35.90330564416944980621337890625</LatitudeDegrees>
              <LongitudeDegrees>-5.350877903401851654052734375</LongitudeDegrees>
            </Position>
            <AltitudeMeters>88</AltitudeMeters>
            <DistanceMeters>3059.5528441823</DistanceMeters>
          </Trackpoint>
          <Trackpoint>
            <Time>2018-06-10T08:10:55.000Z</Time>
            <Position>
              <LatitudeDegrees>35.9033203125</LatitudeDegrees>
              <LongitudeDegrees>-5.35092023201286792755126953125</LongitudeDegrees>
            </Position>
            <AltitudeMeters>88.40000152587890625</AltitudeMeters>
            <DistanceMeters>3063.7036737205</DistanceMeters>
          </Trackpoint>
          <Trackpoint>
            <Time>2018-06-10T08:11:09.000Z</Time>
            <Position>
              <LatitudeDegrees>35.90344168245792388916015625</LatitudeDegrees>
              <LongitudeDegrees>-5.35109424032270908355712890625</LongitudeDegrees>
            </Position>
            <AltitudeMeters>90.40000152587890625</AltitudeMeters>
            <DistanceMeters>3084.4059800698</DistanceMeters>
          </Trackpoint>
          <Trackpoint>
            <Time>2018-06-10T08:11:11.000Z</Time>
            <Position>
              <LatitudeDegrees>35.9034680016338825225830078125</LatitudeDegrees>
              <LongitudeDegrees>-5.35112374462187290191650390625</LongitudeDegrees>
            </Position>
            <AltitudeMeters>90.8000030517578125</AltitudeMeters>
            <DistanceMeters>3088.3630184262</DistanceMeters>
          </Trackpoint>
          <Trackpoint>
            <Time>2018-06-10T08:11:13.000Z</Time>
            <Position>
              <LatitudeDegrees>35.90349038131535053253173828125</LatitudeDegrees>
              <LongitudeDegrees>-5.35114536993205547332763671875</LongitudeDegrees>
            </Position>
            <AltitudeMeters>91.1999969482421875</AltitudeMeters>
            <DistanceMeters>3091.5261378833</DistanceMeters>
          </Trackpoint>
          <Trackpoint>
            <Time>2018-06-10T08:11:24.000Z</Time>
            <Position>
              <LatitudeDegrees>35.9035799838602542877197265625</LatitudeDegrees>
              <LongitudeDegrees>-5.3512604534626007080078125</LongitudeDegrees>
            </Position>
            <AltitudeMeters>93</AltitudeMeters>
            <DistanceMeters>3105.9175878908</DistanceMeters>
          </Trackpoint>
          <Trackpoint>
            <Time>2018-06-10T08:11:31.000Z</Time>
            <Position>
              <LatitudeDegrees>35.90362382121384143829345703125</LatitudeDegrees>
              <LongitudeDegrees>-5.35132876597344875335693359375</LongitudeDegrees>
            </Position>
            <AltitudeMeters>94</AltitudeMeters>
            <DistanceMeters>3113.7744067491</DistanceMeters>
          </Trackpoint>
          <Trackpoint>
            <Time>2018-06-10T08:11:33.000Z</Time>
            <Position>
              <LatitudeDegrees>35.9036440216004848480224609375</LatitudeDegrees>
              <LongitudeDegrees>-5.35134293138980865478515625</LongitudeDegrees>
            </Position>
            <AltitudeMeters>94.1999969482421875</AltitudeMeters>
            <DistanceMeters>3116.3594128551</DistanceMeters>
          </Trackpoint>
          <Trackpoint>
            <Time>2018-06-10T08:11:37.000Z</Time>
            <Position>
              <LatitudeDegrees>35.9036832489073276519775390625</LatitudeDegrees>
              <LongitudeDegrees>-5.3513692505657672882080078125</LongitudeDegrees>
            </Position>
            <AltitudeMeters>94.40000152587890625</AltitudeMeters>
            <DistanceMeters>3121.3281379429</DistanceMeters>
          </Trackpoint>
          <Trackpoint>
            <Time>2018-06-10T08:11:40.000Z</Time>
            <Position>
              <LatitudeDegrees>35.90373161248862743377685546875</LatitudeDegrees>
              <LongitudeDegrees>-5.3514011017978191375732421875</LongitudeDegrees>
            </Position>
            <AltitudeMeters>94.59999847412109375</AltitudeMeters>
            <DistanceMeters>3127.4291194297</DistanceMeters>
          </Trackpoint>
          <Trackpoint>
            <Time>2018-06-10T08:11:41.000Z</Time>
            <Position>
              <LatitudeDegrees>35.90374418534338474273681640625</LatitudeDegrees>
              <LongitudeDegrees>-5.351410992443561553955078125</LongitudeDegrees>
            </Position>
            <AltitudeMeters>94.59999847412109375</AltitudeMeters>
            <DistanceMeters>3129.0859668092</DistanceMeters>
          </Trackpoint>
          <Trackpoint>
            <Time>2018-06-10T08:11:46.000Z</Time>
            <Position>
              <LatitudeDegrees>35.90381057001650333404541015625</LatitudeDegrees>
              <LongitudeDegrees>-5.35144980065524578094482421875</LongitudeDegrees>
            </Position>
            <AltitudeMeters>95.59999847412109375</AltitudeMeters>
            <DistanceMeters>3137.2604738699</DistanceMeters>
          </Trackpoint>
          <Trackpoint>
            <Time>2018-06-10T08:11:54.000Z</Time>
            <Position>
              <LatitudeDegrees>35.90391375124454498291015625</LatitudeDegrees>
              <LongitudeDegrees>-5.3515197895467281341552734375</LongitudeDegrees>
            </Position>
            <AltitudeMeters>98.1999969482421875</AltitudeMeters>
            <DistanceMeters>3150.3641719579</DistanceMeters>
          </Trackpoint>
          <Trackpoint>
            <Time>2018-06-10T08:11:58.000Z</Time>
            <Position>
              <LatitudeDegrees>35.90395574457943439483642578125</LatitudeDegrees>
              <LongitudeDegrees>-5.3515543229877948760986328125</LongitudeDegrees>
            </Position>
            <AltitudeMeters>98.8000030517578125</AltitudeMeters>
            <DistanceMeters>3155.9795995411</DistanceMeters>
          </Trackpoint>
          <Trackpoint>
            <Time>2018-06-10T08:12:09.000Z</Time>
            <Position>
              <LatitudeDegrees>35.90408365242183208465576171875</LatitudeDegrees>
              <LongitudeDegrees>-5.35163923166692256927490234375</LongitudeDegrees>
            </Position>
            <AltitudeMeters>100.1999969482421875</AltitudeMeters>
            <DistanceMeters>3172.1433615337</DistanceMeters>
          </Trackpoint>
          <Trackpoint>
            <Time>2018-06-10T08:12:24.000Z</Time>
            <Position>
              <LatitudeDegrees>35.9042032621800899505615234375</LatitudeDegrees>
              <LongitudeDegrees>-5.35173260606825351715087890625</LongitudeDegrees>
            </Position>
            <AltitudeMeters>101.8000030517578125</AltitudeMeters>
            <DistanceMeters>3187.8943081789</DistanceMeters>
          </Trackpoint>
          <Trackpoint>
            <Time>2018-06-10T08:12:37.000Z</Time>
            <Position>
              <LatitudeDegrees>35.90436863712966442108154296875</LatitudeDegrees>
              <LongitudeDegrees>-5.3518312610685825347900390625</LongitudeDegrees>
            </Position>
            <AltitudeMeters>102.1999969482421875</AltitudeMeters>
            <DistanceMeters>3208.3372027349</DistanceMeters>
          </Trackpoint>
          <Trackpoint>
            <Time>2018-06-10T08:12:51.000Z</Time>
            <Position>
              <LatitudeDegrees>35.90451263822615146636962890625</LatitudeDegrees>
              <LongitudeDegrees>-5.3519744239747524261474609375</LongitudeDegrees>
            </Position>
            <AltitudeMeters>103.40000152587890625</AltitudeMeters>
            <DistanceMeters>3228.9156979402</DistanceMeters>
          </Trackpoint>
          <Trackpoint>
            <Time>2018-06-10T08:12:53.000Z</Time>
            <Position>
              <LatitudeDegrees>35.9045345149934291839599609375</LatitudeDegrees>
              <LongitudeDegrees>-5.3520007431507110595703125</LongitudeDegrees>
            </Position>
            <AltitudeMeters>103.8000030517578125</AltitudeMeters>
            <DistanceMeters>3232.3154770284</DistanceMeters>
          </Trackpoint>
          <Trackpoint>
            <Time>2018-06-10T08:12:55.000Z</Time>
            <Position>
              <LatitudeDegrees>35.90456443838775157928466796875</LatitudeDegrees>
              <LongitudeDegrees>-5.35201993770897388458251953125</LongitudeDegrees>
            </Position>
            <AltitudeMeters>103.8000030517578125</AltitudeMeters>
            <DistanceMeters>3236.0687315165</DistanceMeters>
          </Trackpoint>
          <Trackpoint>
            <Time>2018-06-10T08:13:02.000Z</Time>
            <Position>
              <LatitudeDegrees>35.90465110726654529571533203125</LatitudeDegrees>
              <LongitudeDegrees>-5.352077521383762359619140625</LongitudeDegrees>
            </Position>
            <AltitudeMeters>103.8000030517578125</AltitudeMeters>
            <DistanceMeters>3247.0236261276</DistanceMeters>
          </Trackpoint>
          <Trackpoint>
            <Time>2018-06-10T08:13:07.000Z</Time>
            <Position>
              <LatitudeDegrees>35.904718749225139617919921875</LatitudeDegrees>
              <LongitudeDegrees>-5.3520924411714076995849609375</LongitudeDegrees>
            </Position>
            <AltitudeMeters>103</AltitudeMeters>
            <DistanceMeters>3254.6707677538</DistanceMeters>
          </Trackpoint>
          <Trackpoint>
            <Time>2018-06-10T08:13:14.000Z</Time>
            <Position>
              <LatitudeDegrees>35.9047350101172924041748046875</LatitudeDegrees>
              <LongitudeDegrees>-5.35207559354603290557861328125</LongitudeDegrees>
            </Position>
            <AltitudeMeters>102.40000152587890625</AltitudeMeters>
            <DistanceMeters>3257.0330944125</DistanceMeters>
          </Trackpoint>
          <Trackpoint>
            <Time>2018-06-10T08:13:17.000Z</Time>
            <Position>
              <LatitudeDegrees>35.9047574736177921295166015625</LatitudeDegrees>
              <LongitudeDegrees>-5.35208565182983875274658203125</LongitudeDegrees>
            </Position>
            <AltitudeMeters>102.59999847412109375</AltitudeMeters>
            <DistanceMeters>3259.6921449678</DistanceMeters>
          </Trackpoint>
          <Trackpoint>
            <Time>2018-06-10T08:13:30.000Z</Time>
            <Position>
              <LatitudeDegrees>35.9049445576965808868408203125</LatitudeDegrees>
              <LongitudeDegrees>-5.35201675258576869964599609375</LongitudeDegrees>
            </Position>
            <AltitudeMeters>100.40000152587890625</AltitudeMeters>
            <DistanceMeters>3281.4214946383</DistanceMeters>
          </Trackpoint>
          <Trackpoint>
            <Time>2018-06-10T08:13:39.000Z</Time>
            <Position>
              <LatitudeDegrees>35.90506752021610736846923828125</LatitudeDegrees>
              <LongitudeDegrees>-5.35194852389395236968994140625</LongitudeDegrees>
            </Position>
            <AltitudeMeters>98.40000152587890625</AltitudeMeters>
            <DistanceMeters>3296.4260894645</DistanceMeters>
          </Trackpoint>
          <Trackpoint>
            <Time>2018-06-10T08:13:51.000Z</Time>
            <Position>
              <LatitudeDegrees>35.9052191488444805145263671875</LatitudeDegrees>
              <LongitudeDegrees>-5.35186369903385639190673828125</LongitudeDegrees>
            </Position>
            <AltitudeMeters>95.8000030517578125</AltitudeMeters>
            <DistanceMeters>3314.9541057127</DistanceMeters>
          </Trackpoint>
          <Trackpoint>
            <Time>2018-06-10T08:13:56.000Z</Time>
            <Position>
              <LatitudeDegrees>35.905274637043476104736328125</LatitudeDegrees>
              <LongitudeDegrees>-5.3518258966505527496337890625</LongitudeDegrees>
            </Position>
            <AltitudeMeters>94.8000030517578125</AltitudeMeters>
            <DistanceMeters>3322.0078792565</DistanceMeters>
          </Trackpoint>
          <Trackpoint>
            <Time>2018-06-10T08:14:10.000Z</Time>
            <Position>
              <LatitudeDegrees>35.9054553508758544921875</LatitudeDegrees>
              <LongitudeDegrees>-5.35180293023586273193359375</LongitudeDegrees>
            </Position>
            <AltitudeMeters>93.8000030517578125</AltitudeMeters>
            <DistanceMeters>3342.2282600944</DistanceMeters>
          </Trackpoint>
          <Trackpoint>
            <Time>2018-06-10T08:14:14.000Z</Time>
            <Position>
              <LatitudeDegrees>35.905505977571010589599609375</LatitudeDegrees>
              <LongitudeDegrees>-5.3518129885196685791015625</LongitudeDegrees>
            </Position>
            <AltitudeMeters>93.8000030517578125</AltitudeMeters>
            <DistanceMeters>3347.9354034896</DistanceMeters>
          </Trackpoint>
          <Trackpoint>
            <Time>2018-06-10T08:14:17.000Z</Time>
            <Position>
              <LatitudeDegrees>35.9055450372397899627685546875</LatitudeDegrees>
              <LongitudeDegrees>-5.35181676037609577178955078125</LongitudeDegrees>
            </Position>
            <AltitudeMeters>93.8000030517578125</AltitudeMeters>
            <DistanceMeters>3352.2962911275</DistanceMeters>
          </Trackpoint>
          <Trackpoint>
            <Time>2018-06-10T08:14:18.000Z</Time>
            <Position>
              <LatitudeDegrees>35.90555735863745212554931640625</LatitudeDegrees>
              <LongitudeDegrees>-5.351813994348049163818359375</LongitudeDegrees>
            </Position>
            <AltitudeMeters>93.8000030517578125</AltitudeMeters>
            <DistanceMeters>3353.6928929004</DistanceMeters>
          </Trackpoint>
          <Trackpoint>
            <Time>2018-06-10T08:14:24.000Z</Time>
            <Position>
              <LatitudeDegrees>35.905608572065830230712890625</LatitudeDegrees>
              <LongitudeDegrees>-5.35181902348995208740234375</LongitudeDegrees>
            </Position>
            <AltitudeMeters>93</AltitudeMeters>
            <DistanceMeters>3359.4118907916</DistanceMeters>
          </Trackpoint>
          <Trackpoint>
            <Time>2018-06-10T08:14:25.000Z</Time>
            <Position>
              <LatitudeDegrees>35.905618630349636077880859375</LatitudeDegrees>
              <LongitudeDegrees>-5.35182128660380840301513671875</LongitudeDegrees>
            </Position>
            <AltitudeMeters>92.8000030517578125</AltitudeMeters>
            <DistanceMeters>3360.5522113641</DistanceMeters>
          </Trackpoint>
          <Trackpoint>
            <Time>2018-06-10T08:14:37.000Z</Time>
            <Position>
              <LatitudeDegrees>35.90577679686248302459716796875</LatitudeDegrees>
              <LongitudeDegrees>-5.3518359549343585968017578125</LongitudeDegrees>
            </Position>
            <AltitudeMeters>89.8000030517578125</AltitudeMeters>
            <DistanceMeters>3378.2062210612</DistanceMeters>
          </Trackpoint>
          <Trackpoint>
            <Time>2018-06-10T08:14:39.000Z</Time>
            <Position>
              <LatitudeDegrees>35.90581300668418407440185546875</LatitudeDegrees>
              <LongitudeDegrees>-5.35184743814170360565185546875</LongitudeDegrees>
            </Position>
            <AltitudeMeters>89.1999969482421875</AltitudeMeters>
            <DistanceMeters>3382.3679138201</DistanceMeters>
          </Trackpoint>
          <Trackpoint>
            <Time>2018-06-10T08:14:41.000Z</Time>
            <Position>
              <LatitudeDegrees>35.90584133751690387725830078125</LatitudeDegrees>
              <LongitudeDegrees>-5.3518577478826045989990234375</LongitudeDegrees>
            </Position>
            <AltitudeMeters>89</AltitudeMeters>
            <DistanceMeters>3385.6542448179</DistanceMeters>
          </Trackpoint>
          <Trackpoint>
            <Time>2018-06-10T08:14:44.000Z</Time>
            <Position>
              <LatitudeDegrees>35.90588559396564960479736328125</LatitudeDegrees>
              <LongitudeDegrees>-5.35186864435672760009765625</LongitudeDegrees>
            </Position>
            <AltitudeMeters>88.40000152587890625</AltitudeMeters>
            <DistanceMeters>3390.6771955029</DistanceMeters>
          </Trackpoint>
          <Trackpoint>
            <Time>2018-06-10T08:14:51.000Z</Time>
            <Position>
              <LatitudeDegrees>35.905980058014392852783203125</LatitudeDegrees>
              <LongitudeDegrees>-5.3518989868462085723876953125</LongitudeDegrees>
            </Position>
            <AltitudeMeters>87.1999969482421875</AltitudeMeters>
            <DistanceMeters>3401.5410391654</DistanceMeters>
          </Trackpoint>
          <Trackpoint>
            <Time>2018-06-10T08:14:53.000Z</Time>
            <Position>
              <LatitudeDegrees>35.906004197895526885986328125</LatitudeDegrees>
              <LongitudeDegrees>-5.3519060276448726654052734375</LongitudeDegrees>
            </Position>
            <AltitudeMeters>86.8000030517578125</AltitudeMeters>
            <DistanceMeters>3404.3017246815</DistanceMeters>
          </Trackpoint>
          <Trackpoint>
            <Time>2018-06-10T08:14:58.000Z</Time>
            <Position>
              <LatitudeDegrees>35.90606815181672573089599609375</LatitudeDegrees>
              <LongitudeDegrees>-5.351909212768077850341796875</LongitudeDegrees>
            </Position>
            <AltitudeMeters>85.59999847412109375</AltitudeMeters>
            <DistanceMeters>3411.4255599979</DistanceMeters>
          </Trackpoint>
          <Trackpoint>
            <Time>2018-06-10T08:15:01.000Z</Time>
            <Position>
              <LatitudeDegrees>35.90611291117966175079345703125</LatitudeDegrees>
              <LongitudeDegrees>-5.351908542215824127197265625</LongitudeDegrees>
            </Position>
            <AltitudeMeters>84.8000030517578125</AltitudeMeters>
            <DistanceMeters>3416.4078968135</DistanceMeters>
          </Trackpoint>
          <Trackpoint>
            <Time>2018-06-10T08:15:04.000Z</Time>
            <Position>
              <LatitudeDegrees>35.90615398250520229339599609375</LatitudeDegrees>
              <LongitudeDegrees>-5.351910553872585296630859375</LongitudeDegrees>
            </Position>
            <AltitudeMeters>84</AltitudeMeters>
            <DistanceMeters>3420.9830161777</DistanceMeters>
          </Trackpoint>
          <Trackpoint>
            <Time>2018-06-10T08:15:09.000Z</Time>
            <Position>
              <LatitudeDegrees>35.90621919371187686920166015625</LatitudeDegrees>
              <LongitudeDegrees>-5.35192036069929599761962890625</LongitudeDegrees>
            </Position>
            <AltitudeMeters>82.8000030517578125</AltitudeMeters>
            <DistanceMeters>3428.2945175658</DistanceMeters>
          </Trackpoint>
          <Trackpoint>
            <Time>2018-06-10T08:15:12.000Z</Time>
            <Position>
              <LatitudeDegrees>35.9062658809125423431396484375</LatitudeDegrees>
              <LongitudeDegrees>-5.35192891024053096771240234375</LongitudeDegrees>
            </Position>
            <AltitudeMeters>82.1999969482421875</AltitudeMeters>
            <DistanceMeters>3433.548558267</DistanceMeters>
          </Trackpoint>
          <Trackpoint>
            <Time>2018-06-10T08:15:16.000Z</Time>
            <Position>
              <LatitudeDegrees>35.90633268468081951141357421875</LatitudeDegrees>
              <LongitudeDegrees>-5.35192631185054779052734375</LongitudeDegrees>
            </Position>
            <AltitudeMeters>80.8000030517578125</AltitudeMeters>
            <DistanceMeters>3440.9873961096</DistanceMeters>
          </Trackpoint>
          <Trackpoint>
            <Time>2018-06-10T08:15:24.000Z</Time>
            <Position>
              <LatitudeDegrees>35.906431339681148529052734375</LatitudeDegrees>
              <LongitudeDegrees>-5.35191147588193416595458984375</LongitudeDegrees>
            </Position>
            <AltitudeMeters>78.59999847412109375</AltitudeMeters>
            <DistanceMeters>3452.0485219899</DistanceMeters>
          </Trackpoint>
          <Trackpoint>
            <Time>2018-06-10T08:15:27.000Z</Time>
            <Position>
              <LatitudeDegrees>35.9064653702080249786376953125</LatitudeDegrees>
              <LongitudeDegrees>-5.35186504013836383819580078125</LongitudeDegrees>
            </Position>
            <AltitudeMeters>76.8000030517578125</AltitudeMeters>
            <DistanceMeters>3457.6944204876</DistanceMeters>
          </Trackpoint>
          <Trackpoint>
            <Time>2018-06-10T08:15:30.000Z</Time>
            <Position>
              <LatitudeDegrees>35.90647685341536998748779296875</LatitudeDegrees>
              <LongitudeDegrees>-5.35180619917809963226318359375</LongitudeDegrees>
            </Position>
            <AltitudeMeters>75.1999969482421875</AltitudeMeters>
            <DistanceMeters>3463.1499802169</DistanceMeters>
          </Trackpoint>
          <Trackpoint>
            <Time>2018-06-10T08:15:40.000Z</Time>
            <Position>
              <LatitudeDegrees>35.90639437548816204071044921875</LatitudeDegrees>
              <LongitudeDegrees>-5.35163386724889278411865234375</LongitudeDegrees>
            </Position>
            <AltitudeMeters>71.8000030517578125</AltitudeMeters>
            <DistanceMeters>3481.1950503627</DistanceMeters>
          </Trackpoint>
          <Trackpoint>
            <Time>2018-06-10T08:15:42.000Z</Time>
            <Position>
              <LatitudeDegrees>35.9063745103776454925537109375</LatitudeDegrees>
              <LongitudeDegrees>-5.35160570405423641204833984375</LongitudeDegrees>
            </Position>
            <AltitudeMeters>71.40000152587890625</AltitudeMeters>
            <DistanceMeters>3484.5628057003</DistanceMeters>
          </Trackpoint>
          <Trackpoint>
            <Time>2018-06-10T08:15:44.000Z</Time>
            <Position>
              <LatitudeDegrees>35.90635850094258785247802734375</LatitudeDegrees>
              <LongitudeDegrees>-5.3515710867941379547119140625</LongitudeDegrees>
            </Position>
            <AltitudeMeters>70.8000030517578125</AltitudeMeters>
            <DistanceMeters>3488.1575295271</DistanceMeters>
          </Trackpoint>
          <Trackpoint>
            <Time>2018-06-10T08:15:48.000Z</Time>
            <Position>
              <LatitudeDegrees>35.90632061474025249481201171875</LatitudeDegrees>
              <LongitudeDegrees>-5.35151937045156955718994140625</LongitudeDegrees>
            </Position>
            <AltitudeMeters>70.1999969482421875</AltitudeMeters>
            <DistanceMeters>3494.4436741738</DistanceMeters>
          </Trackpoint>
          <Trackpoint>
            <Time>2018-06-10T08:15:57.000Z</Time>
            <Position>
              <LatitudeDegrees>35.90622774325311183929443359375</LatitudeDegrees>
              <LongitudeDegrees>-5.35140487365424633026123046875</LongitudeDegrees>
            </Position>
            <AltitudeMeters>69.1999969482421875</AltitudeMeters>
            <DistanceMeters>3509.0515397416</DistanceMeters>
          </Trackpoint>
          <Trackpoint>
            <Time>2018-06-10T08:16:01.000Z</Time>
            <Position>
              <LatitudeDegrees>35.9061880968511104583740234375</LatitudeDegrees>
              <LongitudeDegrees>-5.35137134604156017303466796875</LongitudeDegrees>
            </Position>
            <AltitudeMeters>69.1999969482421875</AltitudeMeters>
            <DistanceMeters>3514.4001173258</DistanceMeters>
          </Trackpoint>
          <Trackpoint>
            <Time>2018-06-10T08:16:07.000Z</Time>
            <Position>
              <LatitudeDegrees>35.90613671578466892242431640625</LatitudeDegrees>
              <LongitudeDegrees>-5.35130948759615421295166015625</LongitudeDegrees>
            </Position>
            <AltitudeMeters>68.8000030517578125</AltitudeMeters>
            <DistanceMeters>3522.3880156823</DistanceMeters>
          </Trackpoint>
          <Trackpoint>
            <Time>2018-06-10T08:16:15.000Z</Time>
            <Position>
              <LatitudeDegrees>35.9060784615576267242431640625</LatitudeDegrees>
              <LongitudeDegrees>-5.3512166999280452728271484375</LongitudeDegrees>
            </Position>
            <AltitudeMeters>68.40000152587890625</AltitudeMeters>
            <DistanceMeters>3532.9714493505</DistanceMeters>
          </Trackpoint>
          <Trackpoint>
            <Time>2018-06-10T08:16:21.000Z</Time>
            <Position>
              <LatitudeDegrees>35.9060509689152240753173828125</LatitudeDegrees>
              <LongitudeDegrees>-5.35114176571369171142578125</LongitudeDegrees>
            </Position>
            <AltitudeMeters>67.8000030517578125</AltitudeMeters>
            <DistanceMeters>3540.3877958648</DistanceMeters>
          </Trackpoint>
          <Trackpoint>
            <Time>2018-06-10T08:16:25.000Z</Time>
            <Position>
              <LatitudeDegrees>35.9060387313365936279296875</LatitudeDegrees>
              <LongitudeDegrees>-5.35110010765492916107177734375</LongitudeDegrees>
            </Position>
            <AltitudeMeters>67.40000152587890625</AltitudeMeters>
            <DistanceMeters>3544.3834403877</DistanceMeters>
          </Trackpoint>
          <Trackpoint>
            <Time>2018-06-10T08:16:27.000Z</Time>
            <Position>
              <LatitudeDegrees>35.90603948570787906646728515625</LatitudeDegrees>
              <LongitudeDegrees>-5.3510812483727931976318359375</LongitudeDegrees>
            </Position>
            <AltitudeMeters>67</AltitudeMeters>
            <DistanceMeters>3546.0833299318</DistanceMeters>
          </Trackpoint>
          <Trackpoint>
            <Time>2018-06-10T08:16:32.000Z</Time>
            <Position>
              <LatitudeDegrees>35.90603898279368877410888671875</LatitudeDegrees>
              <LongitudeDegrees>-5.35101260058581829071044921875</LongitudeDegrees>
            </Position>
            <AltitudeMeters>65.8000030517578125</AltitudeMeters>
            <DistanceMeters>3552.271021272</DistanceMeters>
          </Trackpoint>
          <Trackpoint>
            <Time>2018-06-10T08:16:37.000Z</Time>
            <Position>
              <LatitudeDegrees>35.90605189092457294464111328125</LatitudeDegrees>
              <LongitudeDegrees>-5.3509565256536006927490234375</LongitudeDegrees>
            </Position>
            <AltitudeMeters>64.59999847412109375</AltitudeMeters>
            <DistanceMeters>3557.5259212488</DistanceMeters>
          </Trackpoint>
          <Trackpoint>
            <Time>2018-06-10T08:16:43.000Z</Time>
            <Position>
              <LatitudeDegrees>35.90607695281505584716796875</LatitudeDegrees>
              <LongitudeDegrees>-5.35095526836812496185302734375</LongitudeDegrees>
            </Position>
            <AltitudeMeters>64</AltitudeMeters>
            <DistanceMeters>3560.3191247945</DistanceMeters>
          </Trackpoint>
          <Trackpoint>
            <Time>2018-06-10T08:16:47.000Z</Time>
            <Position>
              <LatitudeDegrees>35.90608525089919567108154296875</LatitudeDegrees>
              <LongitudeDegrees>-5.35099298693239688873291015625</LongitudeDegrees>
            </Position>
            <AltitudeMeters>64.59999847412109375</AltitudeMeters>
            <DistanceMeters>3563.8428096712</DistanceMeters>
          </Trackpoint>
          <Trackpoint>
            <Time>2018-06-10T08:17:08.000Z</Time>
            <Position>
              <LatitudeDegrees>35.90612665750086307525634765625</LatitudeDegrees>
              <LongitudeDegrees>-5.35119432024657726287841796875</LongitudeDegrees>
            </Position>
            <AltitudeMeters>67</AltitudeMeters>
            <DistanceMeters>3582.5691010452</DistanceMeters>
          </Trackpoint>
          <Trackpoint>
            <Time>2018-06-10T08:17:13.000Z</Time>
            <Position>
              <LatitudeDegrees>35.9061723388731479644775390625</LatitudeDegrees>
              <LongitudeDegrees>-5.35122315399348735809326171875</LongitudeDegrees>
            </Position>
            <AltitudeMeters>66.59999847412109375</AltitudeMeters>
            <DistanceMeters>3588.2801986731</DistanceMeters>
          </Trackpoint>
          <Trackpoint>
            <Time>2018-06-10T08:17:21.000Z</Time>
            <Position>
              <LatitudeDegrees>35.90628222562372684478759765625</LatitudeDegrees>
              <LongitudeDegrees>-5.3512763790786266326904296875</LongitudeDegrees>
            </Position>
            <AltitudeMeters>65</AltitudeMeters>
            <DistanceMeters>3601.4179641281</DistanceMeters>
          </Trackpoint>
          <Trackpoint>
            <Time>2018-06-10T08:17:24.000Z</Time>
            <Position>
              <LatitudeDegrees>35.906324721872806549072265625</LatitudeDegrees>
              <LongitudeDegrees>-5.351296328008174896240234375</LongitudeDegrees>
            </Position>
            <AltitudeMeters>64.40000152587890625</AltitudeMeters>
            <DistanceMeters>3606.4776347417</DistanceMeters>
          </Trackpoint>
          <Trackpoint>
            <Time>2018-06-10T08:17:34.000Z</Time>
            <Position>
              <LatitudeDegrees>35.90644047595560550689697265625</LatitudeDegrees>
              <LongitudeDegrees>-5.35135055892169475555419921875</LongitudeDegrees>
            </Position>
            <AltitudeMeters>63.59999847412109375</AltitudeMeters>
            <DistanceMeters>3620.2574913253</DistanceMeters>
          </Trackpoint>
          <Trackpoint>
            <Time>2018-06-10T08:17:38.000Z</Time>
            <Position>
              <LatitudeDegrees>35.906498394906520843505859375</LatitudeDegrees>
              <LongitudeDegrees>-5.35137687809765338897705078125</LongitudeDegrees>
            </Position>
            <AltitudeMeters>63.59999847412109375</AltitudeMeters>
            <DistanceMeters>3627.1257603462</DistanceMeters>
          </Trackpoint>
          <Trackpoint>
            <Time>2018-06-10T08:17:45.000Z</Time>
            <Position>
              <LatitudeDegrees>35.906589925289154052734375</LatitudeDegrees>
              <LongitudeDegrees>-5.35143856890499591827392578125</LongitudeDegrees>
            </Position>
            <AltitudeMeters>64</AltitudeMeters>
            <DistanceMeters>3638.7322533734</DistanceMeters>
          </Trackpoint>
          <Trackpoint>
            <Time>2018-06-10T08:17:51.000Z</Time>
            <Position>
              <LatitudeDegrees>35.9066529572010040283203125</LatitudeDegrees>
              <LongitudeDegrees>-5.35148634575307369232177734375</LongitudeDegrees>
            </Position>
            <AltitudeMeters>64.40000152587890625</AltitudeMeters>
            <DistanceMeters>3646.9645509696</DistanceMeters>
          </Trackpoint>
          <Trackpoint>
            <Time>2018-06-10T08:17:56.000Z</Time>
            <Position>
              <LatitudeDegrees>35.90670567937195301055908203125</LatitudeDegrees>
              <LongitudeDegrees>-5.3515110723674297332763671875</LongitudeDegrees>
            </Position>
            <AltitudeMeters>64.40000152587890625</AltitudeMeters>
            <DistanceMeters>3653.242070671</DistanceMeters>
          </Trackpoint>
          <Trackpoint>
            <Time>2018-06-10T08:18:03.000Z</Time>
            <Position>
              <LatitudeDegrees>35.9067604131996631622314453125</LatitudeDegrees>
              <LongitudeDegrees>-5.35156647674739360809326171875</LongitudeDegrees>
            </Position>
            <AltitudeMeters>65</AltitudeMeters>
            <DistanceMeters>3661.1201234379</DistanceMeters>
          </Trackpoint>
          <Trackpoint>
            <Time>2018-06-10T08:18:10.000Z</Time>
            <Position>
              <LatitudeDegrees>35.90682000853121280670166015625</LatitudeDegrees>
              <LongitudeDegrees>-5.35164543427526950836181640625</LongitudeDegrees>
            </Position>
            <AltitudeMeters>66.40000152587890625</AltitudeMeters>
            <DistanceMeters>3670.8500423193</DistanceMeters>
          </Trackpoint>
          <Trackpoint>
            <Time>2018-06-10T08:18:24.000Z</Time>
            <Position>
              <LatitudeDegrees>35.90696082450449466705322265625</LatitudeDegrees>
              <LongitudeDegrees>-5.351795218884944915771484375</LongitudeDegrees>
            </Position>
            <AltitudeMeters>63.799999237060546875</AltitudeMeters>
            <DistanceMeters>3691.5379494909</DistanceMeters>
          </Trackpoint>
          <Trackpoint>
            <Time>2018-06-10T08:18:25.000Z</Time>
            <Position>
              <LatitudeDegrees>35.90696753002703189849853515625</LatitudeDegrees>
              <LongitudeDegrees>-5.35180888138711452484130859375</LongitudeDegrees>
            </Position>
            <AltitudeMeters>63.59999847412109375</AltitudeMeters>
            <DistanceMeters>3692.9791009687</DistanceMeters>
          </Trackpoint>
          <Trackpoint>
            <Time>2018-06-10T08:18:27.000Z</Time>
            <Position>
              <LatitudeDegrees>35.90698295272886753082275390625</LatitudeDegrees>
              <LongitudeDegrees>-5.351824723184108734130859375</LongitudeDegrees>
            </Position>
            <AltitudeMeters>63.200000762939453125</AltitudeMeters>
            <DistanceMeters>3695.2157641865</DistanceMeters>
          </Trackpoint>
          <Trackpoint>
            <Time>2018-06-10T08:18:36.000Z</Time>
            <Position>
              <LatitudeDegrees>35.90703793801367282867431640625</LatitudeDegrees>
              <LongitudeDegrees>-5.35192874260246753692626953125</LongitudeDegrees>
            </Position>
            <AltitudeMeters>61.799999237060546875</AltitudeMeters>
            <DistanceMeters>3706.4136051169</DistanceMeters>
          </Trackpoint>
          <Trackpoint>
            <Time>2018-06-10T08:18:37.000Z</Time>
            <Position>
              <LatitudeDegrees>35.90705235488712787628173828125</LatitudeDegrees>
              <LongitudeDegrees>-5.35193326883018016815185546875</LongitudeDegrees>
            </Position>
            <AltitudeMeters>61.40000152587890625</AltitudeMeters>
            <DistanceMeters>3708.0704524964</DistanceMeters>
          </Trackpoint>
          <Trackpoint>
            <Time>2018-06-10T08:18:40.000Z</Time>
            <Position>
              <LatitudeDegrees>35.90708185918629169464111328125</LatitudeDegrees>
              <LongitudeDegrees>-5.35197266377508640289306640625</LongitudeDegrees>
            </Position>
            <AltitudeMeters>60.59999847412109375</AltitudeMeters>
            <DistanceMeters>3712.9084229534</DistanceMeters>
          </Trackpoint>
          <Trackpoint>
            <Time>2018-06-10T08:18:51.000Z</Time>
            <Position>
              <LatitudeDegrees>35.90714908204972743988037109375</LatitudeDegrees>
              <LongitudeDegrees>-5.3521306626498699188232421875</LongitudeDegrees>
            </Position>
            <AltitudeMeters>59</AltitudeMeters>
            <DistanceMeters>3728.997991981</DistanceMeters>
          </Trackpoint>
          <Trackpoint>
            <Time>2018-06-10T08:18:53.000Z</Time>
            <Position>
              <LatitudeDegrees>35.90715528465807437896728515625</LatitudeDegrees>
              <LongitudeDegrees>-5.35215538926422595977783203125</LongitudeDegrees>
            </Position>
            <AltitudeMeters>58.799999237060546875</AltitudeMeters>
            <DistanceMeters>3731.3295378243</DistanceMeters>
          </Trackpoint>
          <Trackpoint>
            <Time>2018-06-10T08:18:54.000Z</Time>
            <Position>
              <LatitudeDegrees>35.9071583859622478485107421875</LatitudeDegrees>
              <LongitudeDegrees>-5.3521678782999515533447265625</LongitudeDegrees>
            </Position>
            <AltitudeMeters>58.799999237060546875</AltitudeMeters>
            <DistanceMeters>3732.5049533661</DistanceMeters>
          </Trackpoint>
          <Trackpoint>
            <Time>2018-06-10T08:18:56.000Z</Time>
            <Position>
              <LatitudeDegrees>35.90716768987476825714111328125</LatitudeDegrees>
              <LongitudeDegrees>-5.35218640230596065521240234375</LongitudeDegrees>
            </Position>
            <AltitudeMeters>58.59999847412109375</AltitudeMeters>
            <DistanceMeters>3734.4708813195</DistanceMeters>
          </Trackpoint>
          <Trackpoint>
            <Time>2018-06-10T08:19:00.000Z</Time>
            <Position>
              <LatitudeDegrees>35.90720348060131072998046875</LatitudeDegrees>
              <LongitudeDegrees>-5.3522392921149730682373046875</LongitudeDegrees>
            </Position>
            <AltitudeMeters>58.200000762939453125</AltitudeMeters>
            <DistanceMeters>3740.6840589926</DistanceMeters>
          </Trackpoint>
          <Trackpoint>
            <Time>2018-06-10T08:19:07.000Z</Time>
            <Position>
              <LatitudeDegrees>35.90725452639162540435791015625</LatitudeDegrees>
              <LongitudeDegrees>-5.352337695658206939697265625</LongitudeDegrees>
            </Position>
            <AltitudeMeters>58.799999237060546875</AltitudeMeters>
            <DistanceMeters>3751.2187464344</DistanceMeters>
          </Trackpoint>
          <Trackpoint>
            <Time>2018-06-10T08:19:10.000Z</Time>
            <Position>
              <LatitudeDegrees>35.90727983973920345306396484375</LatitudeDegrees>
              <LongitudeDegrees>-5.35237901844084262847900390625</LongitudeDegrees>
            </Position>
            <AltitudeMeters>59.40000152587890625</AltitudeMeters>
            <DistanceMeters>3755.8895776975</DistanceMeters>
          </Trackpoint>
          <Trackpoint>
            <Time>2018-06-10T08:19:12.000Z</Time>
            <Position>
              <LatitudeDegrees>35.90729291550815105438232421875</LatitudeDegrees>
              <LongitudeDegrees>-5.3524057567119598388671875</LongitudeDegrees>
            </Position>
            <AltitudeMeters>59.799999237060546875</AltitudeMeters>
            <DistanceMeters>3758.7053204269</DistanceMeters>
          </Trackpoint>
          <Trackpoint>
            <Time>2018-06-10T08:19:15.000Z</Time>
            <Position>
              <LatitudeDegrees>35.9073208272457122802734375</LatitudeDegrees>
              <LongitudeDegrees>-5.35244934260845184326171875</LongitudeDegrees>
            </Position>
            <AltitudeMeters>60.59999847412109375</AltitudeMeters>
            <DistanceMeters>3763.7138683563</DistanceMeters>
          </Trackpoint>
          <Trackpoint>
            <Time>2018-06-10T08:19:16.000Z</Time>
            <Position>
              <LatitudeDegrees>35.90733180753886699676513671875</LatitudeDegrees>
              <LongitudeDegrees>-5.35246568731963634490966796875</LongitudeDegrees>
            </Position>
            <AltitudeMeters>60.799999237060546875</AltitudeMeters>
            <DistanceMeters>3765.6262440934</DistanceMeters>
          </Trackpoint>
          <Trackpoint>
            <Time>2018-06-10T08:19:21.000Z</Time>
            <Position>
              <LatitudeDegrees>35.9073387645184993743896484375</LatitudeDegrees>
              <LongitudeDegrees>-5.35255989991128444671630859375</LongitudeDegrees>
            </Position>
            <AltitudeMeters>62.200000762939453125</AltitudeMeters>
            <DistanceMeters>3774.1553880031</DistanceMeters>
          </Trackpoint>
          <Trackpoint>
            <Time>2018-06-10T08:19:25.000Z</Time>
            <Position>
              <LatitudeDegrees>35.90731487609446048736572265625</LatitudeDegrees>
              <LongitudeDegrees>-5.35264120437204837799072265625</LongitudeDegrees>
            </Position>
            <AltitudeMeters>63.200000762939453125</AltitudeMeters>
            <DistanceMeters>3781.9533707405</DistanceMeters>
          </Trackpoint>
          <Trackpoint>
            <Time>2018-06-10T08:19:38.000Z</Time>
            <Position>
              <LatitudeDegrees>35.90730699710547924041748046875</LatitudeDegrees>
              <LongitudeDegrees>-5.35286047495901584625244140625</LongitudeDegrees>
            </Position>
            <AltitudeMeters>66.40000152587890625</AltitudeMeters>
            <DistanceMeters>3801.7403880614</DistanceMeters>
          </Trackpoint>
          <Trackpoint>
            <Time>2018-06-10T08:19:40.000Z</Time>
            <Position>
              <LatitudeDegrees>35.9073149599134922027587890625</LatitudeDegrees>
              <LongitudeDegrees>-5.35288788378238677978515625</LongitudeDegrees>
            </Position>
            <AltitudeMeters>66.8000030517578125</AltitudeMeters>
            <DistanceMeters>3804.3635385051</DistanceMeters>
          </Trackpoint>
          <Trackpoint>
            <Time>2018-06-10T08:19:46.000Z</Time>
            <Position>
              <LatitudeDegrees>35.9073543548583984375</LatitudeDegrees>
              <LongitudeDegrees>-5.352944545447826385498046875</LongitudeDegrees>
            </Position>
            <AltitudeMeters>67.8000030517578125</AltitudeMeters>
            <DistanceMeters>3811.0950259779</DistanceMeters>
          </Trackpoint>
          <Trackpoint>
            <Time>2018-06-10T08:19:49.000Z</Time>
            <Position>
              <LatitudeDegrees>35.90738059021532535552978515625</LatitudeDegrees>
              <LongitudeDegrees>-5.35294312052428722381591796875</LongitudeDegrees>
            </Position>
            <AltitudeMeters>67.8000030517578125</AltitudeMeters>
            <DistanceMeters>3814.0177733696</DistanceMeters>
          </Trackpoint>
          <Trackpoint>
            <Time>2018-06-10T08:20:04.000Z</Time>
            <Position>
              <LatitudeDegrees>35.90753816999495029449462890625</LatitudeDegrees>
              <LongitudeDegrees>-5.35282828845083713531494140625</LongitudeDegrees>
            </Position>
            <AltitudeMeters>66.40000152587890625</AltitudeMeters>
            <DistanceMeters>3834.3841066522</DistanceMeters>
          </Trackpoint>
          <Trackpoint>
            <Time>2018-06-10T08:20:17.000Z</Time>
            <Position>
              <LatitudeDegrees>35.90766079723834991455078125</LatitudeDegrees>
              <LongitudeDegrees>-5.35265176557004451751708984375</LongitudeDegrees>
            </Position>
            <AltitudeMeters>64</AltitudeMeters>
            <DistanceMeters>3855.3490760257</DistanceMeters>
          </Trackpoint>
          <Trackpoint>
            <Time>2018-06-10T08:20:19.000Z</Time>
            <Position>
              <LatitudeDegrees>35.9076807461678981781005859375</LatitudeDegrees>
              <LongitudeDegrees>-5.35262326709926128387451171875</LongitudeDegrees>
            </Position>
            <AltitudeMeters>63.59999847412109375</AltitudeMeters>
            <DistanceMeters>3858.7448686606</DistanceMeters>
          </Trackpoint>
          <Trackpoint>
            <Time>2018-06-10T08:20:31.000Z</Time>
            <Position>
              <LatitudeDegrees>35.90774687938392162322998046875</LatitudeDegrees>
              <LongitudeDegrees>-5.35245227627456188201904296875</LongitudeDegrees>
            </Position>
            <AltitudeMeters>61</AltitudeMeters>
            <DistanceMeters>3875.8269613371</DistanceMeters>
          </Trackpoint>
          <Trackpoint>
            <Time>2018-06-10T08:20:37.000Z</Time>
            <Position>
              <LatitudeDegrees>35.9077337197959423065185546875</LatitudeDegrees>
              <LongitudeDegrees>-5.3523573093116283416748046875</LongitudeDegrees>
            </Position>
            <AltitudeMeters>59.799999237060546875</AltitudeMeters>
            <DistanceMeters>3884.513463439</DistanceMeters>
          </Trackpoint>
          <Trackpoint>
            <Time>2018-06-10T08:20:42.000Z</Time>
            <Position>
              <LatitudeDegrees>35.9077231585979461669921875</LatitudeDegrees>
              <LongitudeDegrees>-5.35228882916271686553955078125</LongitudeDegrees>
            </Position>
            <AltitudeMeters>58.799999237060546875</AltitudeMeters>
            <DistanceMeters>3890.7974529592</DistanceMeters>
          </Trackpoint>
          <Trackpoint>
            <Time>2018-06-10T08:20:43.000Z</Time>
            <Position>
              <LatitudeDegrees>35.90772089548408985137939453125</LatitudeDegrees>
              <LongitudeDegrees>-5.35227768123149871826171875</LongitudeDegrees>
            </Position>
            <AltitudeMeters>58.59999847412109375</AltitudeMeters>
            <DistanceMeters>3891.8297072982</DistanceMeters>
          </Trackpoint>
          <Trackpoint>
            <Time>2018-06-10T08:20:48.000Z</Time>
            <Position>
              <LatitudeDegrees>35.9077075682580471038818359375</LatitudeDegrees>
              <LongitudeDegrees>-5.35221037454903125762939453125</LongitudeDegrees>
            </Position>
            <AltitudeMeters>57.59999847412109375</AltitudeMeters>
            <DistanceMeters>3898.0762231522</DistanceMeters>
          </Trackpoint>
          <Trackpoint>
            <Time>2018-06-10T08:20:54.000Z</Time>
            <Position>
              <LatitudeDegrees>35.907692648470401763916015625</LatitudeDegrees>
              <LongitudeDegrees>-5.35211674869060516357421875</LongitudeDegrees>
            </Position>
            <AltitudeMeters>56.200000762939453125</AltitudeMeters>
            <DistanceMeters>3906.6791590775</DistanceMeters>
          </Trackpoint>
          <Trackpoint>
            <Time>2018-06-10T08:20:55.000Z</Time>
            <Position>
              <LatitudeDegrees>35.9076904691755771636962890625</LatitudeDegrees>
              <LongitudeDegrees>-5.35209889523684978485107421875</LongitudeDegrees>
            </Position>
            <AltitudeMeters>56</AltitudeMeters>
            <DistanceMeters>3908.3085278124</DistanceMeters>
          </Trackpoint>
          <Trackpoint>
            <Time>2018-06-10T08:21:03.000Z</Time>
            <Position>
              <LatitudeDegrees>35.90770212002098560333251953125</LatitudeDegrees>
              <LongitudeDegrees>-5.35195388831198215484619140625</LongitudeDegrees>
            </Position>
            <AltitudeMeters>54.59999847412109375</AltitudeMeters>
            <DistanceMeters>3921.4449185209</DistanceMeters>
          </Trackpoint>
          <Trackpoint>
            <Time>2018-06-10T08:21:08.000Z</Time>
            <Position>
              <LatitudeDegrees>35.9076891280710697174072265625</LatitudeDegrees>
              <LongitudeDegrees>-5.35186872817575931549072265625</LongitudeDegrees>
            </Position>
            <AltitudeMeters>53.59999847412109375</AltitudeMeters>
            <DistanceMeters>3929.2567849181</DistanceMeters>
          </Trackpoint>
          <Trackpoint>
            <Time>2018-06-10T08:21:14.000Z</Time>
            <Position>
              <LatitudeDegrees>35.9077062271535396575927734375</LatitudeDegrees>
              <LongitudeDegrees>-5.35178021527826786041259765625</LongitudeDegrees>
            </Position>
            <AltitudeMeters>52.59999847412109375</AltitudeMeters>
            <DistanceMeters>3937.4594125205</DistanceMeters>
          </Trackpoint>
          <Trackpoint>
            <Time>2018-06-10T08:21:15.000Z</Time>
            <Position>
              <LatitudeDegrees>35.907708741724491119384765625</LatitudeDegrees>
              <LongitudeDegrees>-5.35176278091967105865478515625</LongitudeDegrees>
            </Position>
            <AltitudeMeters>52.40000152587890625</AltitudeMeters>
            <DistanceMeters>3939.0580092907</DistanceMeters>
          </Trackpoint>
          <Trackpoint>
            <Time>2018-06-10T08:21:19.000Z</Time>
            <Position>
              <LatitudeDegrees>35.9077119268476963043212890625</LatitudeDegrees>
              <LongitudeDegrees>-5.35169857554137706756591796875</LongitudeDegrees>
            </Position>
            <AltitudeMeters>51.799999237060546875</AltitudeMeters>
            <DistanceMeters>3944.8569751189</DistanceMeters>
          </Trackpoint>
          <Trackpoint>
            <Time>2018-06-10T08:21:21.000Z</Time>
            <Position>
              <LatitudeDegrees>35.9077082388103008270263671875</LatitudeDegrees>
              <LongitudeDegrees>-5.351665802299976348876953125</LongitudeDegrees>
            </Position>
            <AltitudeMeters>51.40000152587890625</AltitudeMeters>
            <DistanceMeters>3947.8408744761</DistanceMeters>
          </Trackpoint>
          <Trackpoint>
            <Time>2018-06-10T08:21:27.000Z</Time>
            <Position>
              <LatitudeDegrees>35.90768787078559398651123046875</LatitudeDegrees>
              <LongitudeDegrees>-5.3515684045851230621337890625</LongitudeDegrees>
            </Position>
            <AltitudeMeters>51</AltitudeMeters>
            <DistanceMeters>3956.9098290053</DistanceMeters>
          </Trackpoint>
          <Trackpoint>
            <Time>2018-06-10T08:21:29.000Z</Time>
            <Position>
              <LatitudeDegrees>35.90767965652048587799072265625</LatitudeDegrees>
              <LongitudeDegrees>-5.35153646953403949737548828125</LongitudeDegrees>
            </Position>
            <AltitudeMeters>51</AltitudeMeters>
            <DistanceMeters>3959.9313199096</DistanceMeters>
          </Trackpoint>
          <Trackpoint>
            <Time>2018-06-10T08:21:31.000Z</Time>
            <Position>
              <LatitudeDegrees>35.90766641311347484588623046875</LatitudeDegrees>
              <LongitudeDegrees>-5.35150662995874881744384765625</LongitudeDegrees>
            </Position>
            <AltitudeMeters>50.799999237060546875</AltitudeMeters>
            <DistanceMeters>3963.0017270173</DistanceMeters>
          </Trackpoint>
          <Trackpoint>
            <Time>2018-06-10T08:21:32.000Z</Time>
            <Position>
              <LatitudeDegrees>35.9076639823615550994873046875</LatitudeDegrees>
              <LongitudeDegrees>-5.35149154253304004669189453125</LongitudeDegrees>
            </Position>
            <AltitudeMeters>50.799999237060546875</AltitudeMeters>
            <DistanceMeters>3964.3885962551</DistanceMeters>
          </Trackpoint>
          <Trackpoint>
            <Time>2018-06-10T08:21:43.000Z</Time>
            <Position>
              <LatitudeDegrees>35.9076492302119731903076171875</LatitudeDegrees>
              <LongitudeDegrees>-5.3513196296989917755126953125</LongitudeDegrees>
            </Position>
            <AltitudeMeters>50</AltitudeMeters>
            <DistanceMeters>3979.9729774118</DistanceMeters>
          </Trackpoint>
          <Trackpoint>
            <Time>2018-06-10T08:21:46.000Z</Time>
            <Position>
              <LatitudeDegrees>35.90763875283300876617431640625</LatitudeDegrees>
              <LongitudeDegrees>-5.35127461887896060943603515625</LongitudeDegrees>
            </Position>
            <AltitudeMeters>49.59999847412109375</AltitudeMeters>
            <DistanceMeters>3984.1939181628</DistanceMeters>
          </Trackpoint>
          <Trackpoint>
            <Time>2018-06-10T08:21:53.000Z</Time>
            <Position>
              <LatitudeDegrees>35.90759349055588245391845703125</LatitudeDegrees>
              <LongitudeDegrees>-5.35118007101118564605712890625</LongitudeDegrees>
            </Position>
            <AltitudeMeters>48.59999847412109375</AltitudeMeters>
            <DistanceMeters>3994.0949539609</DistanceMeters>
          </Trackpoint>
          <Trackpoint>
            <Time>2018-06-10T08:21:54.000Z</Time>
            <Position>
              <LatitudeDegrees>35.9075868688523769378662109375</LatitudeDegrees>
              <LongitudeDegrees>-5.35116816870868206024169921875</LongitudeDegrees>
            </Position>
            <AltitudeMeters>48.40000152587890625</AltitudeMeters>
            <DistanceMeters>3995.3944247359</DistanceMeters>
          </Trackpoint>
          <Trackpoint>
            <Time>2018-06-10T08:22:09.000Z</Time>
            <Position>
              <LatitudeDegrees>35.90756130404770374298095703125</LatitudeDegrees>
              <LongitudeDegrees>-5.35093984566628932952880859375</LongitudeDegrees>
            </Position>
            <AltitudeMeters>45.799999237060546875</AltitudeMeters>
            <DistanceMeters>4016.1737927543</DistanceMeters>
          </Trackpoint>
          <Trackpoint>
            <Time>2018-06-10T08:22:15.000Z</Time>
            <Position>
              <LatitudeDegrees>35.9075721167027950286865234375</LatitudeDegrees>
              <LongitudeDegrees>-5.35085233859717845916748046875</LongitudeDegrees>
            </Position>
            <AltitudeMeters>45</AltitudeMeters>
            <DistanceMeters>4024.1537738998</DistanceMeters>
          </Trackpoint>
          <Trackpoint>
            <Time>2018-06-10T08:22:16.000Z</Time>
            <Position>
              <LatitudeDegrees>35.90757773257791996002197265625</LatitudeDegrees>
              <LongitudeDegrees>-5.35083758644759654998779296875</LongitudeDegrees>
            </Position>
            <AltitudeMeters>45</AltitudeMeters>
            <DistanceMeters>4025.6228512532</DistanceMeters>
          </Trackpoint>
          <Trackpoint>
            <Time>2018-06-10T08:22:31.000Z</Time>
            <Position>
              <LatitudeDegrees>35.90772257186472415924072265625</LatitudeDegrees>
              <LongitudeDegrees>-5.35071303136646747589111328125</LongitudeDegrees>
            </Position>
            <AltitudeMeters>42.40000152587890625</AltitudeMeters>
            <DistanceMeters>4045.2690355505</DistanceMeters>
          </Trackpoint>
          <Trackpoint>
            <Time>2018-06-10T08:22:37.000Z</Time>
            <Position>
              <LatitudeDegrees>35.90779356658458709716796875</LatitudeDegrees>
              <LongitudeDegrees>-5.35071956925094127655029296875</LongitudeDegrees>
            </Position>
            <AltitudeMeters>41.799999237060546875</AltitudeMeters>
            <DistanceMeters>4053.1933747401</DistanceMeters>
          </Trackpoint>
          <Trackpoint>
            <Time>2018-06-10T08:22:52.000Z</Time>
            <Position>
              <LatitudeDegrees>35.907972268760204315185546875</LatitudeDegrees>
              <LongitudeDegrees>-5.35078042186796665191650390625</LongitudeDegrees>
            </Position>
            <AltitudeMeters>41.40000152587890625</AltitudeMeters>
            <DistanceMeters>4073.825991971</DistanceMeters>
          </Trackpoint>
          <Trackpoint>
            <Time>2018-06-10T08:23:07.000Z</Time>
            <Position>
              <LatitudeDegrees>35.90813512913882732391357421875</LatitudeDegrees>
              <LongitudeDegrees>-5.35087547264993190765380859375</LongitudeDegrees>
            </Position>
            <AltitudeMeters>39.40000152587890625</AltitudeMeters>
            <DistanceMeters>4093.8759531463</DistanceMeters>
          </Trackpoint>
          <Trackpoint>
            <Time>2018-06-10T08:23:20.000Z</Time>
            <Position>
              <LatitudeDegrees>35.90822900645434856414794921875</LatitudeDegrees>
              <LongitudeDegrees>-5.3510685078799724578857421875</LongitudeDegrees>
            </Position>
            <AltitudeMeters>38</AltitudeMeters>
            <DistanceMeters>4114.1738906729</DistanceMeters>
          </Trackpoint>
          <Trackpoint>
            <Time>2018-06-10T08:23:21.000Z</Time>
            <Position>
              <LatitudeDegrees>35.90823051519691944122314453125</LatitudeDegrees>
              <LongitudeDegrees>-5.3510903008282184600830078125</LongitudeDegrees>
            </Position>
            <AltitudeMeters>38.40000152587890625</AltitudeMeters>
            <DistanceMeters>4116.1444065624</DistanceMeters>
          </Trackpoint>
          <Trackpoint>
            <Time>2018-06-10T08:23:35.000Z</Time>
            <Position>
              <LatitudeDegrees>35.90829002670943737030029296875</LatitudeDegrees>
              <LongitudeDegrees>-5.3513112477958202362060546875</LongitudeDegrees>
            </Position>
            <AltitudeMeters>36.59999847412109375</AltitudeMeters>
            <DistanceMeters>4137.1354184504</DistanceMeters>
          </Trackpoint>
          <Trackpoint>
            <Time>2018-06-10T08:23:38.000Z</Time>
            <Position>
              <LatitudeDegrees>35.9083127416670322418212890625</LatitudeDegrees>
              <LongitudeDegrees>-5.35135877318680286407470703125</LongitudeDegrees>
            </Position>
            <AltitudeMeters>36</AltitudeMeters>
            <DistanceMeters>4142.1105003123</DistanceMeters>
          </Trackpoint>
          <Trackpoint>
            <Time>2018-06-10T08:23:42.000Z</Time>
            <Position>
              <LatitudeDegrees>35.9083352051675319671630859375</LatitudeDegrees>
              <LongitudeDegrees>-5.35138978622853755950927734375</LongitudeDegrees>
            </Position>
            <AltitudeMeters>35.200000762939453125</AltitudeMeters>
            <DistanceMeters>4145.8601441652</DistanceMeters>
          </Trackpoint>
          <Trackpoint>
            <Time>2018-06-10T08:23:44.000Z</Time>
            <Position>
              <LatitudeDegrees>35.9083409048616886138916015625</LatitudeDegrees>
              <LongitudeDegrees>-5.35139649175107479095458984375</LongitudeDegrees>
            </Position>
            <AltitudeMeters>34.799999237060546875</AltitudeMeters>
            <DistanceMeters>4146.7413856611</DistanceMeters>
          </Trackpoint>
          <Trackpoint>
            <Time>2018-06-10T08:23:46.000Z</Time>
            <Position>
              <LatitudeDegrees>35.908340401947498321533203125</LatitudeDegrees>
              <LongitudeDegrees>-5.351404286921024322509765625</LongitudeDegrees>
            </Position>
            <AltitudeMeters>35</AltitudeMeters>
            <DistanceMeters>4147.4396865476</DistanceMeters>
          </Trackpoint>
          <Trackpoint>
            <Time>2018-06-10T08:23:52.000Z</Time>
            <Position>
              <LatitudeDegrees>35.90834341943264007568359375</LatitudeDegrees>
              <LongitudeDegrees>-5.35148064605891704559326171875</LongitudeDegrees>
            </Position>
            <AltitudeMeters>35.59999847412109375</AltitudeMeters>
            <DistanceMeters>4154.3322355805</DistanceMeters>
          </Trackpoint>
          <Trackpoint>
            <Time>2018-06-10T08:23:53.000Z</Time>
            <Position>
              <LatitudeDegrees>35.90834702365100383758544921875</LatitudeDegrees>
              <LongitudeDegrees>-5.351497493684291839599609375</LongitudeDegrees>
            </Position>
            <AltitudeMeters>35.59999847412109375</AltitudeMeters>
            <DistanceMeters>4155.9023345803</DistanceMeters>
          </Trackpoint>
          <Trackpoint>
            <Time>2018-06-10T08:23:57.000Z</Time>
            <Position>
              <LatitudeDegrees>35.908359177410602569580078125</LatitudeDegrees>
              <LongitudeDegrees>-5.351555161178112030029296875</LongitudeDegrees>
            </Position>
            <AltitudeMeters>35.59999847412109375</AltitudeMeters>
            <DistanceMeters>4161.2744965581</DistanceMeters>
          </Trackpoint>
          <Trackpoint>
            <Time>2018-06-10T08:24:10.000Z</Time>
            <Position>
              <LatitudeDegrees>35.9083851613104343414306640625</LatitudeDegrees>
              <LongitudeDegrees>-5.3517727553844451904296875</LongitudeDegrees>
            </Position>
            <AltitudeMeters>36.59999847412109375</AltitudeMeters>
            <DistanceMeters>4181.102544072</DistanceMeters>
          </Trackpoint>
          <Trackpoint>
            <Time>2018-06-10T08:24:14.000Z</Time>
            <Position>
              <LatitudeDegrees>35.908379964530467987060546875</LatitudeDegrees>
              <LongitudeDegrees>-5.3518517129123210906982421875</LongitudeDegrees>
            </Position>
            <AltitudeMeters>37.799999237060546875</AltitudeMeters>
            <DistanceMeters>4188.2441035485</DistanceMeters>
          </Trackpoint>
          <Trackpoint>
            <Time>2018-06-10T08:24:26.000Z</Time>
            <Position>
              <LatitudeDegrees>35.9083856642246246337890625</LatitudeDegrees>
              <LongitudeDegrees>-5.352034270763397216796875</LongitudeDegrees>
            </Position>
            <AltitudeMeters>40.200000762939453125</AltitudeMeters>
            <DistanceMeters>4204.713634089</DistanceMeters>
          </Trackpoint>
          <Trackpoint>
            <Time>2018-06-10T08:24:36.000Z</Time>
            <Position>
              <LatitudeDegrees>35.9084156714379787445068359375</LatitudeDegrees>
              <LongitudeDegrees>-5.35218690522015094757080078125</LongitudeDegrees>
            </Position>
            <AltitudeMeters>41</AltitudeMeters>
            <DistanceMeters>4218.8729334081</DistanceMeters>
          </Trackpoint>
          <Trackpoint>
            <Time>2018-06-10T08:24:49.000Z</Time>
            <Position>
              <LatitudeDegrees>35.90846789069473743438720703125</LatitudeDegrees>
              <LongitudeDegrees>-5.352404750883579254150390625</LongitudeDegrees>
            </Position>
            <AltitudeMeters>42</AltitudeMeters>
            <DistanceMeters>4239.3537808265</DistanceMeters>
          </Trackpoint>
          <Trackpoint>
            <Time>2018-06-10T08:24:51.000Z</Time>
            <Position>
              <LatitudeDegrees>35.90848515741527080535888671875</LatitudeDegrees>
              <LongitudeDegrees>-5.352436266839504241943359375</LongitudeDegrees>
            </Position>
            <AltitudeMeters>41.59999847412109375</AltitudeMeters>
            <DistanceMeters>4242.7826522924</DistanceMeters>
          </Trackpoint>
          <Trackpoint>
            <Time>2018-06-10T08:24:55.000Z</Time>
            <Position>
              <LatitudeDegrees>35.90853125788271427154541015625</LatitudeDegrees>
              <LongitudeDegrees>-5.3525018133223056793212890625</LongitudeDegrees>
            </Position>
            <AltitudeMeters>40.40000152587890625</AltitudeMeters>
            <DistanceMeters>4250.6089546453</DistanceMeters>
          </Trackpoint>
          <Trackpoint>
            <Time>2018-06-10T08:24:58.000Z</Time>
            <Position>
              <LatitudeDegrees>35.90856746770441532135009765625</LatitudeDegrees>
              <LongitudeDegrees>-5.35253626294434070587158203125</LongitudeDegrees>
            </Position>
            <AltitudeMeters>39.799999237060546875</AltitudeMeters>
            <DistanceMeters>4255.697100591</DistanceMeters>
          </Trackpoint>
          <Trackpoint>
            <Time>2018-06-10T08:25:04.000Z</Time>
            <Position>
              <LatitudeDegrees>35.90864508412778377532958984375</LatitudeDegrees>
              <LongitudeDegrees>-5.3525983728468418121337890625</LongitudeDegrees>
            </Position>
            <AltitudeMeters>38.59999847412109375</AltitudeMeters>
            <DistanceMeters>4265.9916125827</DistanceMeters>
          </Trackpoint>
          <Trackpoint>
            <Time>2018-06-10T08:25:06.000Z</Time>
            <Position>
              <LatitudeDegrees>35.90867307968437671661376953125</LatitudeDegrees>
              <LongitudeDegrees>-5.35262234508991241455078125</LongitudeDegrees>
            </Position>
            <AltitudeMeters>38.200000762939453125</AltitudeMeters>
            <DistanceMeters>4269.7807842001</DistanceMeters>
          </Trackpoint>
          <Trackpoint>
            <Time>2018-06-10T08:25:07.000Z</Time>
            <Position>
              <LatitudeDegrees>35.90868112631142139434814453125</LatitudeDegrees>
              <LongitudeDegrees>-5.35263550467789173126220703125</LongitudeDegrees>
            </Position>
            <AltitudeMeters>38.200000762939453125</AltitudeMeters>
            <DistanceMeters>4271.2651489303</DistanceMeters>
          </Trackpoint>
          <Trackpoint>
            <Time>2018-06-10T08:25:08.000Z</Time>
            <Position>
              <LatitudeDegrees>35.90868900530040264129638671875</LatitudeDegrees>
              <LongitudeDegrees>-5.35264790989458560943603515625</LongitudeDegrees>
            </Position>
            <AltitudeMeters>38.200000762939453125</AltitudeMeters>
            <DistanceMeters>4272.6842003906</DistanceMeters>
          </Trackpoint>
          <Trackpoint>
            <Time>2018-06-10T08:25:11.000Z</Time>
            <Position>
              <LatitudeDegrees>35.90871222317218780517578125</LatitudeDegrees>
              <LongitudeDegrees>-5.3526818566024303436279296875</LongitudeDegrees>
            </Position>
            <AltitudeMeters>38.40000152587890625</AltitudeMeters>
            <DistanceMeters>4276.6900019135</DistanceMeters>
          </Trackpoint>
          <Trackpoint>
            <Time>2018-06-10T08:25:13.000Z</Time>
            <Position>
              <LatitudeDegrees>35.908729322254657745361328125</LatitudeDegrees>
              <LongitudeDegrees>-5.35271345637738704681396484375</LongitudeDegrees>
            </Position>
            <AltitudeMeters>38.59999847412109375</AltitudeMeters>
            <DistanceMeters>4280.1188733795</DistanceMeters>
          </Trackpoint>
          <Trackpoint>
            <Time>2018-06-10T08:25:15.000Z</Time>
            <Position>
              <LatitudeDegrees>35.9087383747100830078125</LatitudeDegrees>
              <LongitudeDegrees>-5.35273994319140911102294921875</LongitudeDegrees>
            </Position>
            <AltitudeMeters>38.799999237060546875</AltitudeMeters>
            <DistanceMeters>4282.7108565727</DistanceMeters>
          </Trackpoint>
          <Trackpoint>
            <Time>2018-06-10T08:25:22.000Z</Time>
            <Position>
              <LatitudeDegrees>35.90878330171108245849609375</LatitudeDegrees>
              <LongitudeDegrees>-5.352844633162021636962890625</LongitudeDegrees>
            </Position>
            <AltitudeMeters>40</AltitudeMeters>
            <DistanceMeters>4293.3919607195</DistanceMeters>
          </Trackpoint>
          <Trackpoint>
            <Time>2018-06-10T08:25:23.000Z</Time>
            <Position>
              <LatitudeDegrees>35.90879210270941257476806640625</LatitudeDegrees>
              <LongitudeDegrees>-5.352860391139984130859375</LongitudeDegrees>
            </Position>
            <AltitudeMeters>40</AltitudeMeters>
            <DistanceMeters>4295.1234298585</DistanceMeters>
          </Trackpoint>
          <Trackpoint>
            <Time>2018-06-10T08:25:26.000Z</Time>
            <Position>
              <LatitudeDegrees>35.90881624259054660797119140625</LatitudeDegrees>
              <LongitudeDegrees>-5.35289852879941463470458984375</LongitudeDegrees>
            </Position>
            <AltitudeMeters>40.200000762939453125</AltitudeMeters>
            <DistanceMeters>4299.486387702</DistanceMeters>
          </Trackpoint>
          <Trackpoint>
            <Time>2018-06-10T08:25:30.000Z</Time>
            <Position>
              <LatitudeDegrees>35.90883518569171428680419921875</LatitudeDegrees>
              <LongitudeDegrees>-5.352946557104587554931640625</LongitudeDegrees>
            </Position>
            <AltitudeMeters>40.799999237060546875</AltitudeMeters>
            <DistanceMeters>4304.3037828966</DistanceMeters>
          </Trackpoint>
          <Trackpoint>
            <Time>2018-06-10T08:25:36.000Z</Time>
            <Position>
              <LatitudeDegrees>35.90889385901391506195068359375</LatitudeDegrees>
              <LongitudeDegrees>-5.35299894399940967559814453125</LongitudeDegrees>
            </Position>
            <AltitudeMeters>39.59999847412109375</AltitudeMeters>
            <DistanceMeters>4312.3631463864</DistanceMeters>
          </Trackpoint>
          <Trackpoint>
            <Time>2018-06-10T08:25:42.000Z</Time>
            <Position>
              <LatitudeDegrees>35.90895085595548152923583984375</LatitudeDegrees>
              <LongitudeDegrees>-5.35309550352394580841064453125</LongitudeDegrees>
            </Position>
            <AltitudeMeters>38.200000762939453125</AltitudeMeters>
            <DistanceMeters>4323.1343311936</DistanceMeters>
          </Trackpoint>
          <Trackpoint>
            <Time>2018-06-10T08:25:50.000Z</Time>
            <Position>
              <LatitudeDegrees>35.909006930887699127197265625</LatitudeDegrees>
              <LongitudeDegrees>-5.35320195369422435760498046875</LongitudeDegrees>
            </Position>
            <AltitudeMeters>37</AltitudeMeters>
            <DistanceMeters>4334.5817968238</DistanceMeters>
          </Trackpoint>
          <Trackpoint>
            <Time>2018-06-10T08:26:03.000Z</Time>
            <Position>
              <LatitudeDegrees>35.9090533666312694549560546875</LatitudeDegrees>
              <LongitudeDegrees>-5.353431366384029388427734375</LongitudeDegrees>
            </Position>
            <AltitudeMeters>37.799999237060546875</AltitudeMeters>
            <DistanceMeters>4355.8991504815</DistanceMeters>
          </Trackpoint>
          <Trackpoint>
            <Time>2018-06-10T08:26:06.000Z</Time>
            <Position>
              <LatitudeDegrees>35.9090838767588138580322265625</LatitudeDegrees>
              <LongitudeDegrees>-5.3534761257469654083251953125</LongitudeDegrees>
            </Position>
            <AltitudeMeters>37</AltitudeMeters>
            <DistanceMeters>4361.1729191006</DistanceMeters>
          </Trackpoint>
          <Trackpoint>
            <Time>2018-06-10T08:26:07.000Z</Time>
            <Position>
              <LatitudeDegrees>35.9090992994606494903564453125</LatitudeDegrees>
              <LongitudeDegrees>-5.35349146462976932525634765625</LongitudeDegrees>
            </Position>
            <AltitudeMeters>36.40000152587890625</AltitudeMeters>
            <DistanceMeters>4363.3770473017</DistanceMeters>
          </Trackpoint>
          <Trackpoint>
            <Time>2018-06-10T08:26:15.000Z</Time>
            <Position>
              <LatitudeDegrees>35.90916744433343410491943359375</LatitudeDegrees>
              <LongitudeDegrees>-5.35361384041607379913330078125</LongitudeDegrees>
            </Position>
            <AltitudeMeters>34.200000762939453125</AltitudeMeters>
            <DistanceMeters>4376.765026512</DistanceMeters>
          </Trackpoint>
          <Trackpoint>
            <Time>2018-06-10T08:26:18.000Z</Time>
            <Position>
              <LatitudeDegrees>35.909192673861980438232421875</LatitudeDegrees>
              <LongitudeDegrees>-5.3536476194858551025390625</LongitudeDegrees>
            </Position>
            <AltitudeMeters>33</AltitudeMeters>
            <DistanceMeters>4380.9082348485</DistanceMeters>
          </Trackpoint>
          <Trackpoint>
            <Time>2018-06-10T08:26:24.000Z</Time>
            <Position>
              <LatitudeDegrees>35.909260399639606475830078125</LatitudeDegrees>
              <LongitudeDegrees>-5.35370201803743839263916015625</LongitudeDegrees>
            </Position>
            <AltitudeMeters>29.6000003814697265625</AltitudeMeters>
            <DistanceMeters>4389.9006947209</DistanceMeters>
          </Trackpoint>
          <Trackpoint>
            <Time>2018-06-10T08:26:33.000Z</Time>
            <Position>
              <LatitudeDegrees>35.90930373407900333404541015625</LatitudeDegrees>
              <LongitudeDegrees>-5.35382539965212345123291015625</LongitudeDegrees>
            </Position>
            <AltitudeMeters>27.799999237060546875</AltitudeMeters>
            <DistanceMeters>4402.0239584812</DistanceMeters>
          </Trackpoint>
          <Trackpoint>
            <Time>2018-06-10T08:26:34.000Z</Time>
            <Position>
              <LatitudeDegrees>35.909289903938770294189453125</LatitudeDegrees>
              <LongitudeDegrees>-5.35384417511522769927978515625</LongitudeDegrees>
            </Position>
            <AltitudeMeters>28.6000003814697265625</AltitudeMeters>
            <DistanceMeters>4404.3125048184</DistanceMeters>
          </Trackpoint>
          <Trackpoint>
            <Time>2018-06-10T08:26:37.000Z</Time>
            <Position>
              <LatitudeDegrees>35.9092629142105579376220703125</LatitudeDegrees>
              <LongitudeDegrees>-5.353892706334590911865234375</LongitudeDegrees>
            </Position>
            <AltitudeMeters>30.200000762939453125</AltitudeMeters>
            <DistanceMeters>4409.6195575248</DistanceMeters>
          </Trackpoint>
          <Trackpoint>
            <Time>2018-06-10T08:26:42.000Z</Time>
            <Position>
              <LatitudeDegrees>35.90922930277884006500244140625</LatitudeDegrees>
              <LongitudeDegrees>-5.35397510044276714324951171875</LongitudeDegrees>
            </Position>
            <AltitudeMeters>32.200000762939453125</AltitudeMeters>
            <DistanceMeters>4417.935345245</DistanceMeters>
          </Trackpoint>
          <Trackpoint>
            <Time>2018-06-10T08:26:43.000Z</Time>
            <Position>
              <LatitudeDegrees>35.909236259758472442626953125</LatitudeDegrees>
              <LongitudeDegrees>-5.35398934967815876007080078125</LongitudeDegrees>
            </Position>
            <AltitudeMeters>31.799999237060546875</AltitudeMeters>
            <DistanceMeters>4419.4378495249</DistanceMeters>
          </Trackpoint>
          <Trackpoint>
            <Time>2018-06-10T08:26:46.000Z</Time>
            <Position>
              <LatitudeDegrees>35.90925243683159351348876953125</LatitudeDegrees>
              <LongitudeDegrees>-5.35403410904109477996826171875</LongitudeDegrees>
            </Position>
            <AltitudeMeters>31</AltitudeMeters>
            <DistanceMeters>4423.8563362875</DistanceMeters>
          </Trackpoint>
          <Trackpoint>
            <Time>2018-06-10T08:26:53.000Z</Time>
            <Position>
              <LatitudeDegrees>35.9092790074646472930908203125</LatitudeDegrees>
              <LongitudeDegrees>-5.35415656864643096923828125</LongitudeDegrees>
            </Position>
            <AltitudeMeters>30</AltitudeMeters>
            <DistanceMeters>4435.2848543754</DistanceMeters>
          </Trackpoint>
          <Trackpoint>
            <Time>2018-06-10T08:27:00.000Z</Time>
            <Position>
              <LatitudeDegrees>35.9092706255614757537841796875</LatitudeDegrees>
              <LongitudeDegrees>-5.35426176153123378753662109375</LongitudeDegrees>
            </Position>
            <AltitudeMeters>30.6000003814697265625</AltitudeMeters>
            <DistanceMeters>4444.8140961459</DistanceMeters>
          </Trackpoint>
          <Trackpoint>
            <Time>2018-06-10T08:27:11.000Z</Time>
            <Position>
              <LatitudeDegrees>35.90925545431673526763916015625</LatitudeDegrees>
              <LongitudeDegrees>-5.3544148989021778106689453125</LongitudeDegrees>
            </Position>
            <AltitudeMeters>33.200000762939453125</AltitudeMeters>
            <DistanceMeters>4458.7221250324</DistanceMeters>
          </Trackpoint>
          <Trackpoint>
            <Time>2018-06-10T08:27:14.000Z</Time>
            <Position>
              <LatitudeDegrees>35.909259058535099029541015625</LatitudeDegrees>
              <LongitudeDegrees>-5.35444918088614940643310546875</LongitudeDegrees>
            </Position>
            <AltitudeMeters>33.40000152587890625</AltitudeMeters>
            <DistanceMeters>4461.8377842206</DistanceMeters>
          </Trackpoint>
          <Trackpoint>
            <Time>2018-06-10T08:27:15.000Z</Time>
            <Position>
              <LatitudeDegrees>35.90924941934645175933837890625</LatitudeDegrees>
              <LongitudeDegrees>-5.35446368157863616943359375</LongitudeDegrees>
            </Position>
            <AltitudeMeters>34</AltitudeMeters>
            <DistanceMeters>4463.5270160449</DistanceMeters>
          </Trackpoint>
          <Trackpoint>
            <Time>2018-06-10T08:27:20.000Z</Time>
            <Position>
              <LatitudeDegrees>35.90924371965229511260986328125</LatitudeDegrees>
              <LongitudeDegrees>-5.354573987424373626708984375</LongitudeDegrees>
            </Position>
            <AltitudeMeters>35.799999237060546875</AltitudeMeters>
            <DistanceMeters>4473.490783426</DistanceMeters>
          </Trackpoint>
          <Trackpoint>
            <Time>2018-06-10T08:27:23.000Z</Time>
            <Position>
              <LatitudeDegrees>35.9092357568442821502685546875</LatitudeDegrees>
              <LongitudeDegrees>-5.35462788306176662445068359375</LongitudeDegrees>
            </Position>
            <AltitudeMeters>36.799999237060546875</AltitudeMeters>
            <DistanceMeters>4478.428516347</DistanceMeters>
          </Trackpoint>
          <Trackpoint>
            <Time>2018-06-10T08:27:39.000Z</Time>
            <Position>
              <LatitudeDegrees>35.90921790339052677154541015625</LatitudeDegrees>
              <LongitudeDegrees>-5.354856960475444793701171875</LongitudeDegrees>
            </Position>
            <AltitudeMeters>40.59999847412109375</AltitudeMeters>
            <DistanceMeters>4499.1748308058</DistanceMeters>
          </Trackpoint>
          <Trackpoint>
            <Time>2018-06-10T08:27:49.000Z</Time>
            <Position>
              <LatitudeDegrees>35.90930499136447906494140625</LatitudeDegrees>
              <LongitudeDegrees>-5.3550257720053195953369140625</LongitudeDegrees>
            </Position>
            <AltitudeMeters>39.200000762939453125</AltitudeMeters>
            <DistanceMeters>4517.217899169</DistanceMeters>
          </Trackpoint>
          <Trackpoint>
            <Time>2018-06-10T08:27:54.000Z</Time>
            <Position>
              <LatitudeDegrees>35.90932837687432765960693359375</LatitudeDegrees>
              <LongitudeDegrees>-5.35510498099029064178466796875</LongitudeDegrees>
            </Position>
            <AltitudeMeters>39.799999237060546875</AltitudeMeters>
            <DistanceMeters>4524.8176602794</DistanceMeters>
          </Trackpoint>
          <Trackpoint>
            <Time>2018-06-10T08:27:56.000Z</Time>
            <Position>
              <LatitudeDegrees>35.90933323837816715240478515625</LatitudeDegrees>
              <LongitudeDegrees>-5.35513264127075672149658203125</LongitudeDegrees>
            </Position>
            <AltitudeMeters>40.40000152587890625</AltitudeMeters>
            <DistanceMeters>4527.3692646994</DistanceMeters>
          </Trackpoint>
          <Trackpoint>
            <Time>2018-06-10T08:28:02.000Z</Time>
            <Position>
              <LatitudeDegrees>35.90937137603759765625</LatitudeDegrees>
              <LongitudeDegrees>-5.35518645308911800384521484375</LongitudeDegrees>
            </Position>
            <AltitudeMeters>40.40000152587890625</AltitudeMeters>
            <DistanceMeters>4533.8149905482</DistanceMeters>
          </Trackpoint>
          <Trackpoint>
            <Time>2018-06-10T08:28:05.000Z</Time>
            <Position>
              <LatitudeDegrees>35.90938822366297245025634765625</LatitudeDegrees>
              <LongitudeDegrees>-5.3552108444273471832275390625</LongitudeDegrees>
            </Position>
            <AltitudeMeters>40.40000152587890625</AltitudeMeters>
            <DistanceMeters>4536.705115236</DistanceMeters>
          </Trackpoint>
          <Trackpoint>
            <Time>2018-06-10T08:28:07.000Z</Time>
            <Position>
              <LatitudeDegrees>35.90940062887966632843017578125</LatitudeDegrees>
              <LongitudeDegrees>-5.35523238591849803924560546875</LongitudeDegrees>
            </Position>
            <AltitudeMeters>40.59999847412109375</AltitudeMeters>
            <DistanceMeters>4539.090266837</DistanceMeters>
          </Trackpoint>
          <Trackpoint>
            <Time>2018-06-10T08:28:15.000Z</Time>
            <Position>
              <LatitudeDegrees>35.90949266217648983001708984375</LatitudeDegrees>
              <LongitudeDegrees>-5.35529675893485546112060546875</LongitudeDegrees>
            </Position>
            <AltitudeMeters>39.200000762939453125</AltitudeMeters>
            <DistanceMeters>4550.8628457074</DistanceMeters>
          </Trackpoint>
          <Trackpoint>
            <Time>2018-06-10T08:28:18.000Z</Time>
            <Position>
              <LatitudeDegrees>35.90952971018850803375244140625</LatitudeDegrees>
              <LongitudeDegrees>-5.35532601177692413330078125</LongitudeDegrees>
            </Position>
            <AltitudeMeters>38.799999237060546875</AltitudeMeters>
            <DistanceMeters>4555.7564908447</DistanceMeters>
          </Trackpoint>
          <Trackpoint>
            <Time>2018-06-10T08:28:20.000Z</Time>
            <Position>
              <LatitudeDegrees>35.9095485694706439971923828125</LatitudeDegrees>
              <LongitudeDegrees>-5.3553573600947856903076171875</LongitudeDegrees>
            </Position>
            <AltitudeMeters>39</AltitudeMeters>
            <DistanceMeters>4559.2763296025</DistanceMeters>
          </Trackpoint>
          <Trackpoint>
            <Time>2018-06-10T08:28:29.000Z</Time>
            <Position>
              <LatitudeDegrees>35.9096484817564487457275390625</LatitudeDegrees>
              <LongitudeDegrees>-5.3554549254477024078369140625</LongitudeDegrees>
            </Position>
            <AltitudeMeters>38.200000762939453125</AltitudeMeters>
            <DistanceMeters>4573.4544300296</DistanceMeters>
          </Trackpoint>
          <Trackpoint>
            <Time>2018-06-10T08:28:38.000Z</Time>
            <Position>
              <LatitudeDegrees>35.90975199826061725616455078125</LatitudeDegrees>
              <LongitudeDegrees>-5.355510748922824859619140625</LongitudeDegrees>
            </Position>
            <AltitudeMeters>36.200000762939453125</AltitudeMeters>
            <DistanceMeters>4586.0270784439</DistanceMeters>
          </Trackpoint>
          <Trackpoint>
            <Time>2018-06-10T08:28:40.000Z</Time>
            <Position>
              <LatitudeDegrees>35.90977848507463932037353515625</LatitudeDegrees>
              <LongitudeDegrees>-5.35552558489143848419189453125</LongitudeDegrees>
            </Position>
            <AltitudeMeters>35.799999237060546875</AltitudeMeters>
            <DistanceMeters>4589.2649664518</DistanceMeters>
          </Trackpoint>
          <Trackpoint>
            <Time>2018-06-10T08:28:49.000Z</Time>
            <Position>
              <LatitudeDegrees>35.9098362363874912261962890625</LatitudeDegrees>
              <LongitudeDegrees>-5.355665646493434906005859375</LongitudeDegrees>
            </Position>
            <AltitudeMeters>37.200000762939453125</AltitudeMeters>
            <DistanceMeters>4603.4331914412</DistanceMeters>
          </Trackpoint>
          <Trackpoint>
            <Time>2018-06-10T08:28:56.000Z</Time>
            <Position>
              <LatitudeDegrees>35.9098989330232143402099609375</LatitudeDegrees>
              <LongitudeDegrees>-5.35572725348174571990966796875</LongitudeDegrees>
            </Position>
            <AltitudeMeters>36.59999847412109375</AltitudeMeters>
            <DistanceMeters>4612.3520446967</DistanceMeters>
          </Trackpoint>
          <Trackpoint>
            <Time>2018-06-10T08:28:58.000Z</Time>
            <Position>
              <LatitudeDegrees>35.9099197201430797576904296875</LatitudeDegrees>
              <LongitudeDegrees>-5.3557384014129638671875</LongitudeDegrees>
            </Position>
            <AltitudeMeters>36.200000762939453125</AltitudeMeters>
            <DistanceMeters>4614.8751784413</DistanceMeters>
          </Trackpoint>
          <Trackpoint>
            <Time>2018-06-10T08:29:00.000Z</Time>
            <Position>
              <LatitudeDegrees>35.909938327968120574951171875</LatitudeDegrees>
              <LongitudeDegrees>-5.35575357265770435333251953125</LongitudeDegrees>
            </Position>
            <AltitudeMeters>36</AltitudeMeters>
            <DistanceMeters>4617.3568134134</DistanceMeters>
          </Trackpoint>
          <Trackpoint>
            <Time>2018-06-10T08:29:02.000Z</Time>
            <Position>
              <LatitudeDegrees>35.90995651669800281524658203125</LatitudeDegrees>
              <LongitudeDegrees>-5.35577117465436458587646484375</LongitudeDegrees>
            </Position>
            <AltitudeMeters>35.799999237060546875</AltitudeMeters>
            <DistanceMeters>4619.929564088</DistanceMeters>
          </Trackpoint>
          <Trackpoint>
            <Time>2018-06-10T08:29:03.000Z</Time>
            <Position>
              <LatitudeDegrees>35.9099669940769672393798828125</LatitudeDegrees>
              <LongitudeDegrees>-5.35577938891947269439697265625</LongitudeDegrees>
            </Position>
            <AltitudeMeters>35.59999847412109375</AltitudeMeters>
            <DistanceMeters>4621.313173934</DistanceMeters>
          </Trackpoint>
          <Trackpoint>
            <Time>2018-06-10T08:29:10.000Z</Time>
            <Position>
              <LatitudeDegrees>35.91003589332103729248046875</LatitudeDegrees>
              <LongitudeDegrees>-5.35584107972681522369384765625</LongitudeDegrees>
            </Position>
            <AltitudeMeters>34.799999237060546875</AltitudeMeters>
            <DistanceMeters>4630.7863412871</DistanceMeters>
          </Trackpoint>
          <Trackpoint>
            <Time>2018-06-10T08:29:12.000Z</Time>
            <Position>
              <LatitudeDegrees>35.91005877591669559478759765625</LatitudeDegrees>
              <LongitudeDegrees>-5.355867482721805572509765625</LongitudeDegrees>
            </Position>
            <AltitudeMeters>34.59999847412109375</AltitudeMeters>
            <DistanceMeters>4634.2726692828</DistanceMeters>
          </Trackpoint>
          <Trackpoint>
            <Time>2018-06-10T08:29:17.000Z</Time>
            <Position>
              <LatitudeDegrees>35.91011124663054943084716796875</LatitudeDegrees>
              <LongitudeDegrees>-5.355927832424640655517578125</LongitudeDegrees>
            </Position>
            <AltitudeMeters>34.40000152587890625</AltitudeMeters>
            <DistanceMeters>4642.2537819393</DistanceMeters>
          </Trackpoint>
          <Trackpoint>
            <Time>2018-06-10T08:29:25.000Z</Time>
            <Position>
              <LatitudeDegrees>35.91020160354673862457275390625</LatitudeDegrees>
              <LongitudeDegrees>-5.3560134954750537872314453125</LongitudeDegrees>
            </Position>
            <AltitudeMeters>31.3999996185302734375</AltitudeMeters>
            <DistanceMeters>4654.9337074551</DistanceMeters>
          </Trackpoint>
          <Trackpoint>
            <Time>2018-06-10T08:29:28.000Z</Time>
            <Position>
              <LatitudeDegrees>35.9102402441203594207763671875</LatitudeDegrees>
              <LongitudeDegrees>-5.356043837964534759521484375</LongitudeDegrees>
            </Position>
            <AltitudeMeters>30.200000762939453125</AltitudeMeters>
            <DistanceMeters>4660.0307193178</DistanceMeters>
          </Trackpoint>
          <Trackpoint>
            <Time>2018-06-10T08:29:41.000Z</Time>
            <Position>
              <LatitudeDegrees>35.91038265265524387359619140625</LatitudeDegrees>
              <LongitudeDegrees>-5.35620116628706455230712890625</LongitudeDegrees>
            </Position>
            <AltitudeMeters>26</AltitudeMeters>
            <DistanceMeters>4681.3001520721</DistanceMeters>
          </Trackpoint>
          <Trackpoint>
            <Time>2018-06-10T08:29:51.000Z</Time>
            <Position>
              <LatitudeDegrees>35.9104967303574085235595703125</LatitudeDegrees>
              <LongitudeDegrees>-5.35633049905300140380859375</LongitudeDegrees>
            </Position>
            <AltitudeMeters>22.6000003814697265625</AltitudeMeters>
            <DistanceMeters>4698.5382704596</DistanceMeters>
          </Trackpoint>
          <Trackpoint>
            <Time>2018-06-10T08:29:52.000Z</Time>
            <Position>
              <LatitudeDegrees>35.91050217859447002410888671875</LatitudeDegrees>
              <LongitudeDegrees>-5.35634751431643962860107421875</LongitudeDegrees>
            </Position>
            <AltitudeMeters>22.3999996185302734375</AltitudeMeters>
            <DistanceMeters>4700.1869223361</DistanceMeters>
          </Trackpoint>
          <Trackpoint>
            <Time>2018-06-10T08:29:54.000Z</Time>
            <Position>
              <LatitudeDegrees>35.910517685115337371826171875</LatitudeDegrees>
              <LongitudeDegrees>-5.3563727438449859619140625</LongitudeDegrees>
            </Position>
            <AltitudeMeters>22</AltitudeMeters>
            <DistanceMeters>4703.04247115</DistanceMeters>
          </Trackpoint>
          <Trackpoint>
            <Time>2018-06-10T08:30:07.000Z</Time>
            <Position>
              <LatitudeDegrees>35.9106046892702579498291015625</LatitudeDegrees>
              <LongitudeDegrees>-5.35657550208270549774169921875</LongitudeDegrees>
            </Position>
            <AltitudeMeters>21.200000762939453125</AltitudeMeters>
            <DistanceMeters>4723.7273226619</DistanceMeters>
          </Trackpoint>
          <Trackpoint>
            <Time>2018-06-10T08:30:13.000Z</Time>
            <Position>
              <LatitudeDegrees>35.9106496162712574005126953125</LatitudeDegrees>
              <LongitudeDegrees>-5.35667424090206623077392578125</LongitudeDegrees>
            </Position>
            <AltitudeMeters>21.200000762939453125</AltitudeMeters>
            <DistanceMeters>4733.9372787083</DistanceMeters>
          </Trackpoint>
          <Trackpoint>
            <Time>2018-06-10T08:30:19.000Z</Time>
            <Position>
              <LatitudeDegrees>35.9106910228729248046875</LatitudeDegrees>
              <LongitudeDegrees>-5.3567728959023952484130859375</LongitudeDegrees>
            </Position>
            <AltitudeMeters>21.6000003814697265625</AltitudeMeters>
            <DistanceMeters>4743.9543745671</DistanceMeters>
          </Trackpoint>
          <Trackpoint>
            <Time>2018-06-10T08:30:26.000Z</Time>
            <Position>
              <LatitudeDegrees>35.910715498030185699462890625</LatitudeDegrees>
              <LongitudeDegrees>-5.35688697360455989837646484375</LongitudeDegrees>
            </Position>
            <AltitudeMeters>22.200000762939453125</AltitudeMeters>
            <DistanceMeters>4754.5931234667</DistanceMeters>
          </Trackpoint>
          <Trackpoint>
            <Time>2018-06-10T08:30:28.000Z</Time>
            <Position>
              <LatitudeDegrees>35.910730920732021331787109375</LatitudeDegrees>
              <LongitudeDegrees>-5.3569133765995502471923828125</LongitudeDegrees>
            </Position>
            <AltitudeMeters>22.200000762939453125</AltitudeMeters>
            <DistanceMeters>4757.5282031807</DistanceMeters>
          </Trackpoint>
          <Trackpoint>
            <Time>2018-06-10T08:30:36.000Z</Time>
            <Position>
              <LatitudeDegrees>35.910772494971752166748046875</LatitudeDegrees>
              <LongitudeDegrees>-5.35704907961189746856689453125</LongitudeDegrees>
            </Position>
            <AltitudeMeters>23</AltitudeMeters>
            <DistanceMeters>4770.607069266</DistanceMeters>
          </Trackpoint>
          <Trackpoint>
            <Time>2018-06-10T08:30:38.000Z</Time>
            <Position>
              <LatitudeDegrees>35.91075665317475795745849609375</LatitudeDegrees>
              <LongitudeDegrees>-5.357090570032596588134765625</LongitudeDegrees>
            </Position>
            <AltitudeMeters>23.799999237060546875</AltitudeMeters>
            <DistanceMeters>4774.7426423563</DistanceMeters>
          </Trackpoint>
          <Trackpoint>
            <Time>2018-06-10T08:30:40.000Z</Time>
            <Position>
              <LatitudeDegrees>35.910761095583438873291015625</LatitudeDegrees>
              <LongitudeDegrees>-5.357125438749790191650390625</LongitudeDegrees>
            </Position>
            <AltitudeMeters>24</AltitudeMeters>
            <DistanceMeters>4777.9228444909</DistanceMeters>
          </Trackpoint>
          <Trackpoint>
            <Time>2018-06-10T08:30:52.000Z</Time>
            <Position>
              <LatitudeDegrees>35.91083611361682415008544921875</LatitudeDegrees>
              <LongitudeDegrees>-5.35733020864427089691162109375</LongitudeDegrees>
            </Position>
            <AltitudeMeters>24.799999237060546875</AltitudeMeters>
            <DistanceMeters>4798.1829322212</DistanceMeters>
          </Trackpoint>
          <Trackpoint>
            <Time>2018-06-10T08:31:00.000Z</Time>
            <Position>
              <LatitudeDegrees>35.91086176224052906036376953125</LatitudeDegrees>
              <LongitudeDegrees>-5.35745434463024139404296875</LongitudeDegrees>
            </Position>
            <AltitudeMeters>25.799999237060546875</AltitudeMeters>
            <DistanceMeters>4809.732490188</DistanceMeters>
          </Trackpoint>
          <Trackpoint>
            <Time>2018-06-10T08:31:14.000Z</Time>
            <Position>
              <LatitudeDegrees>35.9108822979032993316650390625</LatitudeDegrees>
              <LongitudeDegrees>-5.35768560133874416351318359375</LongitudeDegrees>
            </Position>
            <AltitudeMeters>27.799999237060546875</AltitudeMeters>
            <DistanceMeters>4830.7043499835</DistanceMeters>
          </Trackpoint>
          <Trackpoint>
            <Time>2018-06-10T08:31:29.000Z</Time>
            <Position>
              <LatitudeDegrees>35.91096301563084125518798828125</LatitudeDegrees>
              <LongitudeDegrees>-5.35788475535809993743896484375</LongitudeDegrees>
            </Position>
            <AltitudeMeters>27.3999996185302734375</AltitudeMeters>
            <DistanceMeters>4850.7799663338</DistanceMeters>
          </Trackpoint>
          <Trackpoint>
            <Time>2018-06-10T08:31:41.000Z</Time>
            <Position>
              <LatitudeDegrees>35.91109679080545902252197265625</LatitudeDegrees>
              <LongitudeDegrees>-5.35793538205325603485107421875</LongitudeDegrees>
            </Position>
            <AltitudeMeters>24.6000003814697265625</AltitudeMeters>
            <DistanceMeters>4866.3527545549</DistanceMeters>
          </Trackpoint>
          <Trackpoint>
            <Time>2018-06-10T08:31:56.000Z</Time>
            <Position>
              <LatitudeDegrees>35.91127264313399791717529296875</LatitudeDegrees>
              <LongitudeDegrees>-5.3580278344452381134033203125</LongitudeDegrees>
            </Position>
            <AltitudeMeters>21.6000003814697265625</AltitudeMeters>
            <DistanceMeters>4887.6260079748</DistanceMeters>
          </Trackpoint>
          <Trackpoint>
            <Time>2018-06-10T08:32:03.000Z</Time>
            <Position>
              <LatitudeDegrees>35.91134388931095600128173828125</LatitudeDegrees>
              <LongitudeDegrees>-5.35808910615742206573486328125</LongitudeDegrees>
            </Position>
            <AltitudeMeters>20.3999996185302734375</AltitudeMeters>
            <DistanceMeters>4897.289809017</DistanceMeters>
          </Trackpoint>
          <Trackpoint>
            <Time>2018-06-10T08:32:13.000Z</Time>
            <Position>
              <LatitudeDegrees>35.91143173165619373321533203125</LatitudeDegrees>
              <LongitudeDegrees>-5.35818482749164104461669921875</LongitudeDegrees>
            </Position>
            <AltitudeMeters>19.200000762939453125</AltitudeMeters>
            <DistanceMeters>4910.3302997897</DistanceMeters>
          </Trackpoint>
          <Trackpoint>
            <Time>2018-06-10T08:32:21.000Z</Time>
            <Position>
              <LatitudeDegrees>35.9114995412528514862060546875</LatitudeDegrees>
              <LongitudeDegrees>-5.3582638688385486602783203125</LongitudeDegrees>
            </Position>
            <AltitudeMeters>18.6000003814697265625</AltitudeMeters>
            <DistanceMeters>4920.7095488943</DistanceMeters>
          </Trackpoint>
          <Trackpoint>
            <Time>2018-06-10T08:32:22.000Z</Time>
            <Position>
              <LatitudeDegrees>35.9115077555179595947265625</LatitudeDegrees>
              <LongitudeDegrees>-5.35827686078846454620361328125</LongitudeDegrees>
            </Position>
            <AltitudeMeters>18.6000003814697265625</AltitudeMeters>
            <DistanceMeters>4922.1969522454</DistanceMeters>
          </Trackpoint>
          <Trackpoint>
            <Time>2018-06-10T08:32:23.000Z</Time>
            <Position>
              <LatitudeDegrees>35.9115163050591945648193359375</LatitudeDegrees>
              <LongitudeDegrees>-5.3582910262048244476318359375</LongitudeDegrees>
            </Position>
            <AltitudeMeters>18.6000003814697265625</AltitudeMeters>
            <DistanceMeters>4923.7870533127</DistanceMeters>
          </Trackpoint>
          <Trackpoint>
            <Time>2018-06-10T08:32:25.000Z</Time>
            <Position>
              <LatitudeDegrees>35.91153482906520366668701171875</LatitudeDegrees>
              <LongitudeDegrees>-5.3583114780485630035400390625</LongitudeDegrees>
            </Position>
            <AltitudeMeters>18.3999996185302734375</AltitudeMeters>
            <DistanceMeters>4926.5542730049</DistanceMeters>
          </Trackpoint>
          <Trackpoint>
            <Time>2018-06-10T08:32:29.000Z</Time>
            <Position>
              <LatitudeDegrees>35.91158109717071056365966796875</LatitudeDegrees>
              <LongitudeDegrees>-5.358341820538043975830078125</LongitudeDegrees>
            </Position>
            <AltitudeMeters>17.799999237060546875</AltitudeMeters>
            <DistanceMeters>4932.3842993972</DistanceMeters>
          </Trackpoint>
          <Trackpoint>
            <Time>2018-06-10T08:32:32.000Z</Time>
            <Position>
              <LatitudeDegrees>35.91160900890827178955078125</LatitudeDegrees>
              <LongitudeDegrees>-5.35837610252201557159423828125</LongitudeDegrees>
            </Position>
            <AltitudeMeters>17.6000003814697265625</AltitudeMeters>
            <DistanceMeters>4936.7658450742</DistanceMeters>
          </Trackpoint>
          <Trackpoint>
            <Time>2018-06-10T08:32:41.000Z</Time>
            <Position>
              <LatitudeDegrees>35.911705233156681060791015625</LatitudeDegrees>
              <LongitudeDegrees>-5.3584797866642475128173828125</LongitudeDegrees>
            </Position>
            <AltitudeMeters>16.799999237060546875</AltitudeMeters>
            <DistanceMeters>4950.9808378841</DistanceMeters>
          </Trackpoint>
          <Trackpoint>
            <Time>2018-06-10T08:32:47.000Z</Time>
            <Position>
              <LatitudeDegrees>35.911782681941986083984375</LatitudeDegrees>
              <LongitudeDegrees>-5.3585139848291873931884765625</LongitudeDegrees>
            </Position>
            <AltitudeMeters>15.80000019073486328125</AltitudeMeters>
            <DistanceMeters>4960.1355164408</DistanceMeters>
          </Trackpoint>
          <Trackpoint>
            <Time>2018-06-10T08:32:50.000Z</Time>
            <Position>
              <LatitudeDegrees>35.91182115487754344940185546875</LatitudeDegrees>
              <LongitudeDegrees>-5.3585371188819408416748046875</LongitudeDegrees>
            </Position>
            <AltitudeMeters>15.6000003814697265625</AltitudeMeters>
            <DistanceMeters>4964.8982417139</DistanceMeters>
          </Trackpoint>
          <Trackpoint>
            <Time>2018-06-10T08:32:53.000Z</Time>
            <Position>
              <LatitudeDegrees>35.911859460175037384033203125</LatitudeDegrees>
              <LongitudeDegrees>-5.35855782218277454376220703125</LongitudeDegrees>
            </Position>
            <AltitudeMeters>15.19999980926513671875</AltitudeMeters>
            <DistanceMeters>4969.5526109933</DistanceMeters>
          </Trackpoint>
          <Trackpoint>
            <Time>2018-06-10T08:32:54.000Z</Time>
            <Position>
              <LatitudeDegrees>35.9118727035820484161376953125</LatitudeDegrees>
              <LongitudeDegrees>-5.35856368951499462127685546875</LongitudeDegrees>
            </Position>
            <AltitudeMeters>15</AltitudeMeters>
            <DistanceMeters>4971.1198317158</DistanceMeters>
          </Trackpoint>
          <Trackpoint>
            <Time>2018-06-10T08:32:58.000Z</Time>
            <Position>
              <LatitudeDegrees>35.91191947460174560546875</LatitudeDegrees>
              <LongitudeDegrees>-5.3585951216518878936767578125</LongitudeDegrees>
            </Position>
            <AltitudeMeters>14.6000003814697265625</AltitudeMeters>
            <DistanceMeters>4977.0466350166</DistanceMeters>
          </Trackpoint>
          <Trackpoint>
            <Time>2018-06-10T08:33:03.000Z</Time>
            <Position>
              <LatitudeDegrees>35.911983512341976165771484375</LatitudeDegrees>
              <LongitudeDegrees>-5.3586353547871112823486328125</LongitudeDegrees>
            </Position>
            <AltitudeMeters>14</AltitudeMeters>
            <DistanceMeters>4985.0435720162</DistanceMeters>
          </Trackpoint>
          <Trackpoint>
            <Time>2018-06-10T08:33:07.000Z</Time>
            <Position>
              <LatitudeDegrees>35.91202751733362674713134765625</LatitudeDegrees>
              <LongitudeDegrees>-5.3586781024932861328125</LongitudeDegrees>
            </Position>
            <AltitudeMeters>13.80000019073486328125</AltitudeMeters>
            <DistanceMeters>4991.2763393681</DistanceMeters>
          </Trackpoint>
          <Trackpoint>
            <Time>2018-06-10T08:33:13.000Z</Time>
            <Position>
              <LatitudeDegrees>35.912109576165676116943359375</LatitudeDegrees>
              <LongitudeDegrees>-5.3587223589420318603515625</LongitudeDegrees>
            </Position>
            <AltitudeMeters>13</AltitudeMeters>
            <DistanceMeters>5001.2428252524</DistanceMeters>
          </Trackpoint>
          <Trackpoint>
            <Time>2018-06-10T08:33:16.000Z</Time>
            <Position>
              <LatitudeDegrees>35.9121486358344554901123046875</LatitudeDegrees>
              <LongitudeDegrees>-5.35874071530997753143310546875</LongitudeDegrees>
            </Position>
            <AltitudeMeters>12.6000003814697265625</AltitudeMeters>
            <DistanceMeters>5005.8952539984</DistanceMeters>
          </Trackpoint>
          <Trackpoint>
            <Time>2018-06-10T08:33:17.000Z</Time>
            <Position>
              <LatitudeDegrees>35.91216154396533966064453125</LatitudeDegrees>
              <LongitudeDegrees>-5.358748845756053924560546875</LongitudeDegrees>
            </Position>
            <AltitudeMeters>12.3999996185302734375</AltitudeMeters>
            <DistanceMeters>5007.5135006325</DistanceMeters>
          </Trackpoint>
          <Trackpoint>
            <Time>2018-06-10T08:33:20.000Z</Time>
            <Position>
              <LatitudeDegrees>35.91219884343445301055908203125</LatitudeDegrees>
              <LongitudeDegrees>-5.35877323709428310394287109375</LongitudeDegrees>
            </Position>
            <AltitudeMeters>12.19999980926513671875</AltitudeMeters>
            <DistanceMeters>5012.211320002</DistanceMeters>
          </Trackpoint>
          <Trackpoint>
            <Time>2018-06-10T08:33:23.000Z</Time>
            <Position>
              <LatitudeDegrees>35.91223840601742267608642578125</LatitudeDegrees>
              <LongitudeDegrees>-5.3587989695370197296142578125</LongitudeDegrees>
            </Position>
            <AltitudeMeters>11.80000019073486328125</AltitudeMeters>
            <DistanceMeters>5017.1873093116</DistanceMeters>
          </Trackpoint>
          <Trackpoint>
            <Time>2018-06-10T08:33:30.000Z</Time>
            <Position>
              <LatitudeDegrees>35.9123243205249309539794921875</LatitudeDegrees>
              <LongitudeDegrees>-5.3588376939296722412109375</LongitudeDegrees>
            </Position>
            <AltitudeMeters>10.6000003814697265625</AltitudeMeters>
            <DistanceMeters>5027.3662629474</DistanceMeters>
          </Trackpoint>
          <Trackpoint>
            <Time>2018-06-10T08:33:32.000Z</Time>
            <Position>
              <LatitudeDegrees>35.91234787367284297943115234375</LatitudeDegrees>
              <LongitudeDegrees>-5.3588405437767505645751953125</LongitudeDegrees>
            </Position>
            <AltitudeMeters>10.3999996185302734375</AltitudeMeters>
            <DistanceMeters>5029.9997205052</DistanceMeters>
          </Trackpoint>
          <Trackpoint>
            <Time>2018-06-10T08:33:36.000Z</Time>
            <Position>
              <LatitudeDegrees>35.91239221394062042236328125</LatitudeDegrees>
              <LongitudeDegrees>-5.35885839723050594329833984375</LongitudeDegrees>
            </Position>
            <AltitudeMeters>9.6000003814697265625</AltitudeMeters>
            <DistanceMeters>5035.1906499122</DistanceMeters>
          </Trackpoint>
          <Trackpoint>
            <Time>2018-06-10T08:33:37.000Z</Time>
            <Position>
              <LatitudeDegrees>35.9124027751386165618896484375</LatitudeDegrees>
              <LongitudeDegrees>-5.35886610858142375946044921875</LongitudeDegrees>
            </Position>
            <AltitudeMeters>9.6000003814697265625</AltitudeMeters>
            <DistanceMeters>5036.5545398445</DistanceMeters>
          </Trackpoint>
          <Trackpoint>
            <Time>2018-06-10T08:33:42.000Z</Time>
            <Position>
              <LatitudeDegrees>35.91244979761540889739990234375</LatitudeDegrees>
              <LongitudeDegrees>-5.35892553627490997314453125</LongitudeDegrees>
            </Position>
            <AltitudeMeters>8.80000019073486328125</AltitudeMeters>
            <DistanceMeters>5044.0435854976</DistanceMeters>
          </Trackpoint>
          <Trackpoint>
            <Time>2018-06-10T08:33:49.000Z</Time>
            <Position>
              <LatitudeDegrees>35.9124875999987125396728515625</LatitudeDegrees>
              <LongitudeDegrees>-5.35904824733734130859375</LongitudeDegrees>
            </Position>
            <AltitudeMeters>8</AltitudeMeters>
            <DistanceMeters>5055.8788947795</DistanceMeters>
          </Trackpoint>
          <Trackpoint>
            <Time>2018-06-10T08:33:52.000Z</Time>
            <Position>
              <LatitudeDegrees>35.9125083871185779571533203125</LatitudeDegrees>
              <LongitudeDegrees>-5.35908646881580352783203125</LongitudeDegrees>
            </Position>
            <AltitudeMeters>7.80000019073486328125</AltitudeMeters>
            <DistanceMeters>5060.0297243177</DistanceMeters>
          </Trackpoint>
          <Trackpoint>
            <Time>2018-06-10T08:34:02.000Z</Time>
            <Position>
              <LatitudeDegrees>35.9125509671866893768310546875</LatitudeDegrees>
              <LongitudeDegrees>-5.35923139192163944244384765625</LongitudeDegrees>
            </Position>
            <AltitudeMeters>7</AltitudeMeters>
            <DistanceMeters>5073.9270361075</DistanceMeters>
          </Trackpoint>
          <Trackpoint>
            <Time>2018-06-10T08:34:03.000Z</Time>
            <Position>
              <LatitudeDegrees>35.91255524195730686187744140625</LatitudeDegrees>
              <LongitudeDegrees>-5.35924497060477733612060546875</LongitudeDegrees>
            </Position>
            <AltitudeMeters>6.80000019073486328125</AltitudeMeters>
            <DistanceMeters>5075.2437648864</DistanceMeters>
          </Trackpoint>
          <Trackpoint>
            <Time>2018-06-10T08:34:11.000Z</Time>
            <Position>
              <LatitudeDegrees>35.91260586865246295928955078125</LatitudeDegrees>
              <LongitudeDegrees>-5.359375141561031341552734375</LongitudeDegrees>
            </Position>
            <AltitudeMeters>6.599999904632568359375</AltitudeMeters>
            <DistanceMeters>5088.2606905755</DistanceMeters>
          </Trackpoint>
          <Trackpoint>
            <Time>2018-06-10T08:34:15.000Z</Time>
            <Position>
              <LatitudeDegrees>35.91263436712324619293212890625</LatitudeDegrees>
              <LongitudeDegrees>-5.35943247377872467041015625</LongitudeDegrees>
            </Position>
            <AltitudeMeters>6.599999904632568359375</AltitudeMeters>
            <DistanceMeters>5094.3245566096</DistanceMeters>
          </Trackpoint>
          <Trackpoint>
            <Time>2018-06-10T08:34:20.000Z</Time>
            <Position>
              <LatitudeDegrees>35.9127209521830081939697265625</LatitudeDegrees>
              <LongitudeDegrees>-5.3594376705586910247802734375</LongitudeDegrees>
            </Position>
            <AltitudeMeters>6</AltitudeMeters>
            <DistanceMeters>5103.972927356</DistanceMeters>
          </Trackpoint>
          <Trackpoint>
            <Time>2018-06-10T08:34:23.000Z</Time>
            <Position>
              <LatitudeDegrees>35.9127796255052089691162109375</LatitudeDegrees>
              <LongitudeDegrees>-5.3594316355884075164794921875</LongitudeDegrees>
            </Position>
            <AltitudeMeters>5.400000095367431640625</AltitudeMeters>
            <DistanceMeters>5110.5263267462</DistanceMeters>
          </Trackpoint>
          <Trackpoint>
            <Time>2018-06-10T08:34:25.000Z</Time>
            <Position>
              <LatitudeDegrees>35.9128081239759922027587890625</LatitudeDegrees>
              <LongitudeDegrees>-5.3594249300658702850341796875</LongitudeDegrees>
            </Position>
            <AltitudeMeters>5.19999980926513671875</AltitudeMeters>
            <DistanceMeters>5113.7558372808</DistanceMeters>
          </Trackpoint>
          <Trackpoint>
            <Time>2018-06-10T08:34:28.000Z</Time>
            <Position>
              <LatitudeDegrees>35.91284005902707576751708984375</LatitudeDegrees>
              <LongitudeDegrees>-5.3594209067523479461669921875</LongitudeDegrees>
            </Position>
            <AltitudeMeters>4.80000019073486328125</AltitudeMeters>
            <DistanceMeters>5117.329145005</DistanceMeters>
          </Trackpoint>
          <Trackpoint>
            <Time>2018-06-10T08:34:29.000Z</Time>
            <Position>
              <LatitudeDegrees>35.912847854197025299072265625</LatitudeDegrees>
              <LongitudeDegrees>-5.3594313003122806549072265625</LongitudeDegrees>
            </Position>
            <AltitudeMeters>4.80000019073486328125</AltitudeMeters>
            <DistanceMeters>5118.6075986945</DistanceMeters>
          </Trackpoint>
          <Trackpoint>
            <Time>2018-06-10T08:34:33.000Z</Time>
            <Position>
              <LatitudeDegrees>35.91288213618099689483642578125</LatitudeDegrees>
              <LongitudeDegrees>-5.359487794339656829833984375</LongitudeDegrees>
            </Position>
            <AltitudeMeters>4.80000019073486328125</AltitudeMeters>
            <DistanceMeters>5124.9708417965</DistanceMeters>
          </Trackpoint>
          <Trackpoint>
            <Time>2018-06-10T08:34:34.000Z</Time>
            <Position>
              <LatitudeDegrees>35.9128892607986927032470703125</LatitudeDegrees>
              <LongitudeDegrees>-5.3595010377466678619384765625</LongitudeDegrees>
            </Position>
            <AltitudeMeters>4.80000019073486328125</AltitudeMeters>
            <DistanceMeters>5126.4057137173</DistanceMeters>
          </Trackpoint>
          <Trackpoint>
            <Time>2018-06-10T08:34:40.000Z</Time>
            <Position>
              <LatitudeDegrees>35.912931002676486968994140625</LatitudeDegrees>
              <LongitudeDegrees>-5.35958024673163890838623046875</LongitudeDegrees>
            </Position>
            <AltitudeMeters>4.80000019073486328125</AltitudeMeters>
            <DistanceMeters>5134.9242637292</DistanceMeters>
          </Trackpoint>
          <Trackpoint>
            <Time>2018-06-10T08:34:54.000Z</Time>
            <Position>
              <LatitudeDegrees>35.91301909647881984710693359375</LatitudeDegrees>
              <LongitudeDegrees>-5.359775125980377197265625</LongitudeDegrees>
            </Position>
            <AltitudeMeters>6.400000095367431640625</AltitudeMeters>
            <DistanceMeters>5155.0425660027</DistanceMeters>
          </Trackpoint>
          <Trackpoint>
            <Time>2018-06-10T08:35:00.000Z</Time>
            <Position>
              <LatitudeDegrees>35.9130652807652950286865234375</LatitudeDegrees>
              <LongitudeDegrees>-5.359871685504913330078125</LongitudeDegrees>
            </Position>
            <AltitudeMeters>9</AltitudeMeters>
            <DistanceMeters>5165.1511932607</DistanceMeters>
          </Trackpoint>
          <Trackpoint>
            <Time>2018-06-10T08:35:05.000Z</Time>
            <Position>
              <LatitudeDegrees>35.91310157440602779388427734375</LatitudeDegrees>
              <LongitudeDegrees>-5.359938405454158782958984375</LongitudeDegrees>
            </Position>
            <AltitudeMeters>10.19999980926513671875</AltitudeMeters>
            <DistanceMeters>5172.3963181298</DistanceMeters>
          </Trackpoint>
          <Trackpoint>
            <Time>2018-06-10T08:35:11.000Z</Time>
            <Position>
              <LatitudeDegrees>35.91310174204409122467041015625</LatitudeDegrees>
              <LongitudeDegrees>-5.36001727916300296783447265625</LongitudeDegrees>
            </Position>
            <AltitudeMeters>12</AltitudeMeters>
            <DistanceMeters>5179.5068313327</DistanceMeters>
          </Trackpoint>
          <Trackpoint>
            <Time>2018-06-10T08:35:17.000Z</Time>
            <Position>
              <LatitudeDegrees>35.91303971596062183380126953125</LatitudeDegrees>
              <LongitudeDegrees>-5.36008349619805812835693359375</LongitudeDegrees>
            </Position>
            <AltitudeMeters>13.19999980926513671875</AltitudeMeters>
            <DistanceMeters>5188.6333544998</DistanceMeters>
          </Trackpoint>
          <Trackpoint>
            <Time>2018-06-10T08:35:31.000Z</Time>
            <Position>
              <LatitudeDegrees>35.9128838963806629180908203125</LatitudeDegrees>
              <LongitudeDegrees>-5.36019095219671726226806640625</LongitudeDegrees>
            </Position>
            <AltitudeMeters>14</AltitudeMeters>
            <DistanceMeters>5208.4982567296</DistanceMeters>
          </Trackpoint>
          <Trackpoint>
            <Time>2018-06-10T08:35:36.000Z</Time>
            <Position>
              <LatitudeDegrees>35.91287543065845966339111328125</LatitudeDegrees>
              <LongitudeDegrees>-5.36026102490723133087158203125</LongitudeDegrees>
            </Position>
            <AltitudeMeters>15.3999996185302734375</AltitudeMeters>
            <DistanceMeters>5214.8848720537</DistanceMeters>
          </Trackpoint>
          <Trackpoint>
            <Time>2018-06-10T08:35:41.000Z</Time>
            <Position>
              <LatitudeDegrees>35.91288548894226551055908203125</LatitudeDegrees>
              <LongitudeDegrees>-5.3603090532124042510986328125</LongitudeDegrees>
            </Position>
            <AltitudeMeters>16.6000003814697265625</AltitudeMeters>
            <DistanceMeters>5219.3561793845</DistanceMeters>
          </Trackpoint>
          <Trackpoint>
            <Time>2018-06-10T08:35:43.000Z</Time>
            <Position>
              <LatitudeDegrees>35.9129030071198940277099609375</LatitudeDegrees>
              <LongitudeDegrees>-5.36032958887517452239990234375</LongitudeDegrees>
            </Position>
            <AltitudeMeters>17.200000762939453125</AltitudeMeters>
            <DistanceMeters>5222.0439407495</DistanceMeters>
          </Trackpoint>
          <Trackpoint>
            <Time>2018-06-10T08:35:44.000Z</Time>
            <Position>
              <LatitudeDegrees>35.9129134006798267364501953125</LatitudeDegrees>
              <LongitudeDegrees>-5.36033210344612598419189453125</LongitudeDegrees>
            </Position>
            <AltitudeMeters>17.3999996185302734375</AltitudeMeters>
            <DistanceMeters>5223.2231912625</DistanceMeters>
          </Trackpoint>
          <Trackpoint>
            <Time>2018-06-10T08:35:46.000Z</Time>
            <Position>
              <LatitudeDegrees>35.91293611563742160797119140625</LatitudeDegrees>
              <LongitudeDegrees>-5.36034417338669300079345703125</LongitudeDegrees>
            </Position>
            <AltitudeMeters>17.799999237060546875</AltitudeMeters>
            <DistanceMeters>5225.9756872455</DistanceMeters>
          </Trackpoint>
          <Trackpoint>
            <Time>2018-06-10T08:35:48.000Z</Time>
            <Position>
              <LatitudeDegrees>35.91295958496630191802978515625</LatitudeDegrees>
              <LongitudeDegrees>-5.3603558242321014404296875</LongitudeDegrees>
            </Position>
            <AltitudeMeters>18.3999996185302734375</AltitudeMeters>
            <DistanceMeters>5228.7914299749</DistanceMeters>
          </Trackpoint>
          <Trackpoint>
            <Time>2018-06-10T08:35:49.000Z</Time>
            <Position>
              <LatitudeDegrees>35.91297064907848834991455078125</LatitudeDegrees>
              <LongitudeDegrees>-5.3603610210120677947998046875</LongitudeDegrees>
            </Position>
            <AltitudeMeters>18.6000003814697265625</AltitudeMeters>
            <DistanceMeters>5230.1047252961</DistanceMeters>
          </Trackpoint>
          <Trackpoint>
            <Time>2018-06-10T08:35:51.000Z</Time>
            <Position>
              <LatitudeDegrees>35.91299747116863727569580078125</LatitudeDegrees>
              <LongitudeDegrees>-5.3603647090494632720947265625</LongitudeDegrees>
            </Position>
            <AltitudeMeters>19</AltitudeMeters>
            <DistanceMeters>5233.1067273432</DistanceMeters>
          </Trackpoint>
          <Trackpoint>
            <Time>2018-06-10T08:35:58.000Z</Time>
            <Position>
              <LatitudeDegrees>35.91309319250285625457763671875</LatitudeDegrees>
              <LongitudeDegrees>-5.3603405691683292388916015625</LongitudeDegrees>
            </Position>
            <AltitudeMeters>19</AltitudeMeters>
            <DistanceMeters>5243.9805408858</DistanceMeters>
          </Trackpoint>
          <Trackpoint>
            <Time>2018-06-10T08:36:07.000Z</Time>
            <Position>
              <LatitudeDegrees>35.9132074378430843353271484375</LatitudeDegrees>
              <LongitudeDegrees>-5.36031785421073436737060546875</LongitudeDegrees>
            </Position>
            <AltitudeMeters>18</AltitudeMeters>
            <DistanceMeters>5256.8597285231</DistanceMeters>
          </Trackpoint>
          <Trackpoint>
            <Time>2018-06-10T08:36:11.000Z</Time>
            <Position>
              <LatitudeDegrees>35.91325228102505207061767578125</LatitudeDegrees>
              <LongitudeDegrees>-5.36031483672559261322021484375</LongitudeDegrees>
            </Position>
            <AltitudeMeters>17.3999996185302734375</AltitudeMeters>
            <DistanceMeters>5261.8583504853</DistanceMeters>
          </Trackpoint>
          <Trackpoint>
            <Time>2018-06-10T08:36:13.000Z</Time>
            <Position>
              <LatitudeDegrees>35.913273654878139495849609375</LatitudeDegrees>
              <LongitudeDegrees>-5.3603263199329376220703125</LongitudeDegrees>
            </Position>
            <AltitudeMeters>16.799999237060546875</AltitudeMeters>
            <DistanceMeters>5264.4538151888</DistanceMeters>
          </Trackpoint>
          <Trackpoint>
            <Time>2018-06-10T08:36:14.000Z</Time>
            <Position>
              <LatitudeDegrees>35.91328379698097705841064453125</LatitudeDegrees>
              <LongitudeDegrees>-5.36033210344612598419189453125</LongitudeDegrees>
            </Position>
            <AltitudeMeters>16.6000003814697265625</AltitudeMeters>
            <DistanceMeters>5265.7000788641</DistanceMeters>
          </Trackpoint>
          <Trackpoint>
            <Time>2018-06-10T08:36:23.000Z</Time>
            <Position>
              <LatitudeDegrees>35.91339326463639736175537109375</LatitudeDegrees>
              <LongitudeDegrees>-5.36034635268151760101318359375</LongitudeDegrees>
            </Position>
            <AltitudeMeters>13.80000019073486328125</AltitudeMeters>
            <DistanceMeters>5277.9522619677</DistanceMeters>
          </Trackpoint>
          <Trackpoint>
            <Time>2018-06-10T08:36:25.000Z</Time>
            <Position>
              <LatitudeDegrees>35.91341941617429256439208984375</LatitudeDegrees>
              <LongitudeDegrees>-5.36035506986081600189208984375</LongitudeDegrees>
            </Position>
            <AltitudeMeters>13.19999980926513671875</AltitudeMeters>
            <DistanceMeters>5280.966272071</DistanceMeters>
          </Trackpoint>
          <Trackpoint>
            <Time>2018-06-10T08:36:28.000Z</Time>
            <Position>
              <LatitudeDegrees>35.9134545363485813140869140625</LatitudeDegrees>
              <LongitudeDegrees>-5.3603704087436199188232421875</LongitudeDegrees>
            </Position>
            <AltitudeMeters>12.19999980926513671875</AltitudeMeters>
            <DistanceMeters>5285.112748352</DistanceMeters>
          </Trackpoint>
          <Trackpoint>
            <Time>2018-06-10T08:36:32.000Z</Time>
            <Position>
              <LatitudeDegrees>35.91349183581769466400146484375</LatitudeDegrees>
              <LongitudeDegrees>-5.3603891842067241668701171875</LongitudeDegrees>
            </Position>
            <AltitudeMeters>11.3999996185302734375</AltitudeMeters>
            <DistanceMeters>5289.5961566721</DistanceMeters>
          </Trackpoint>
          <Trackpoint>
            <Time>2018-06-10T08:36:36.000Z</Time>
            <Position>
              <LatitudeDegrees>35.9135353378951549530029296875</LatitudeDegrees>
              <LongitudeDegrees>-5.36040284670889377593994140625</LongitudeDegrees>
            </Position>
            <AltitudeMeters>10.19999980926513671875</AltitudeMeters>
            <DistanceMeters>5294.5929717945</DistanceMeters>
          </Trackpoint>
          <Trackpoint>
            <Time>2018-06-10T08:36:39.000Z</Time>
            <Position>
              <LatitudeDegrees>35.91356140561401844024658203125</LatitudeDegrees>
              <LongitudeDegrees>-5.3604217059910297393798828125</LongitudeDegrees>
            </Position>
            <AltitudeMeters>9.6000003814697265625</AltitudeMeters>
            <DistanceMeters>5297.9553601878</DistanceMeters>
          </Trackpoint>
          <Trackpoint>
            <Time>2018-06-10T08:36:43.000Z</Time>
            <Position>
              <LatitudeDegrees>35.913596861064434051513671875</LatitudeDegrees>
              <LongitudeDegrees>-5.36044693551957607269287109375</LongitudeDegrees>
            </Position>
            <AltitudeMeters>8.6000003814697265625</AltitudeMeters>
            <DistanceMeters>5302.5106994363</DistanceMeters>
          </Trackpoint>
          <Trackpoint>
            <Time>2018-06-10T08:36:51.000Z</Time>
            <Position>
              <LatitudeDegrees>35.9136749804019927978515625</LatitudeDegrees>
              <LongitudeDegrees>-5.36050711758434772491455078125</LongitudeDegrees>
            </Position>
            <AltitudeMeters>6.80000019073486328125</AltitudeMeters>
            <DistanceMeters>5312.7586157632</DistanceMeters>
          </Trackpoint>
          <Trackpoint>
            <Time>2018-06-10T08:36:52.000Z</Time>
            <Position>
              <LatitudeDegrees>35.91368529014289379119873046875</LatitudeDegrees>
              <LongitudeDegrees>-5.36051633767783641815185546875</LongitudeDegrees>
            </Position>
            <AltitudeMeters>6.599999904632568359375</AltitudeMeters>
            <DistanceMeters>5314.1744819188</DistanceMeters>
          </Trackpoint>
          <Trackpoint>
            <Time>2018-06-10T08:36:55.000Z</Time>
            <Position>
              <LatitudeDegrees>35.9137160517275333404541015625</LatitudeDegrees>
              <LongitudeDegrees>-5.360544584691524505615234375</LongitudeDegrees>
            </Position>
            <AltitudeMeters>6</AltitudeMeters>
            <DistanceMeters>5318.4411708119</DistanceMeters>
          </Trackpoint>
          <Trackpoint>
            <Time>2018-06-10T08:37:11.000Z</Time>
            <Position>
              <LatitudeDegrees>35.91382510028779506683349609375</LatitudeDegrees>
              <LongitudeDegrees>-5.36073761992156505584716796875</LongitudeDegrees>
            </Position>
            <AltitudeMeters>5.400000095367431640625</AltitudeMeters>
            <DistanceMeters>5339.6570420037</DistanceMeters>
          </Trackpoint>
          <Trackpoint>
            <Time>2018-06-10T08:37:23.000Z</Time>
            <Position>
              <LatitudeDegrees>35.9138144552707672119140625</LatitudeDegrees>
              <LongitudeDegrees>-5.36096292547881603240966796875</LongitudeDegrees>
            </Position>
            <AltitudeMeters>8</AltitudeMeters>
            <DistanceMeters>5360.0014160125</DistanceMeters>
          </Trackpoint>
          <Trackpoint>
            <Time>2018-06-10T08:37:26.000Z</Time>
            <Position>
              <LatitudeDegrees>35.91381403617560863494873046875</LatitudeDegrees>
              <LongitudeDegrees>-5.36101673729717731475830078125</LongitudeDegrees>
            </Position>
            <AltitudeMeters>8.6000003814697265625</AltitudeMeters>
            <DistanceMeters>5364.8524343811</DistanceMeters>
          </Trackpoint>
          <Trackpoint>
            <Time>2018-06-10T08:37:32.000Z</Time>
            <Position>
              <LatitudeDegrees>35.91379425488412380218505859375</LatitudeDegrees>
              <LongitudeDegrees>-5.3611247800290584564208984375</LongitudeDegrees>
            </Position>
            <AltitudeMeters>10</AltitudeMeters>
            <DistanceMeters>5374.8379290656</DistanceMeters>
          </Trackpoint>
          <Trackpoint>
            <Time>2018-06-10T08:37:33.000Z</Time>
            <Position>
              <LatitudeDegrees>35.91380028985440731048583984375</LatitudeDegrees>
              <LongitudeDegrees>-5.3611358441412448883056640625</LongitudeDegrees>
            </Position>
            <AltitudeMeters>10</AltitudeMeters>
            <DistanceMeters>5376.0399324895</DistanceMeters>
          </Trackpoint>
          <Trackpoint>
            <Time>2018-06-10T08:37:35.000Z</Time>
            <Position>
              <LatitudeDegrees>35.9138065762817859649658203125</LatitudeDegrees>
              <LongitudeDegrees>-5.361164845526218414306640625</LongitudeDegrees>
            </Position>
            <AltitudeMeters>10.19999980926513671875</AltitudeMeters>
            <DistanceMeters>5378.7461091275</DistanceMeters>
          </Trackpoint>
          <Trackpoint>
            <Time>2018-06-10T08:37:39.000Z</Time>
            <Position>
              <LatitudeDegrees>35.91380842030048370361328125</LatitudeDegrees>
              <LongitudeDegrees>-5.361237265169620513916015625</LongitudeDegrees>
            </Position>
            <AltitudeMeters>11</AltitudeMeters>
            <DistanceMeters>5385.2774245479</DistanceMeters>
          </Trackpoint>
          <Trackpoint>
            <Time>2018-06-10T08:37:42.000Z</Time>
            <Position>
              <LatitudeDegrees>35.91381504200398921966552734375</LatitudeDegrees>
              <LongitudeDegrees>-5.36128722131252288818359375</LongitudeDegrees>
            </Position>
            <AltitudeMeters>11.3999996185302734375</AltitudeMeters>
            <DistanceMeters>5389.8406861315</DistanceMeters>
          </Trackpoint>
          <Trackpoint>
            <Time>2018-06-10T08:37:51.000Z</Time>
            <Position>
              <LatitudeDegrees>35.91382761485874652862548828125</LatitudeDegrees>
              <LongitudeDegrees>-5.36143365316092967987060546875</LongitudeDegrees>
            </Position>
            <AltitudeMeters>13</AltitudeMeters>
            <DistanceMeters>5403.1145270065</DistanceMeters>
          </Trackpoint>
          <Trackpoint>
            <Time>2018-06-10T08:37:56.000Z</Time>
            <Position>
              <LatitudeDegrees>35.913849659264087677001953125</LatitudeDegrees>
              <LongitudeDegrees>-5.36150992847979068756103515625</LongitudeDegrees>
            </Position>
            <AltitudeMeters>13.3999996185302734375</AltitudeMeters>
            <DistanceMeters>5410.4149044742</DistanceMeters>
          </Trackpoint>
          <Trackpoint>
            <Time>2018-06-10T08:38:03.000Z</Time>
            <Position>
              <LatitudeDegrees>35.913896597921848297119140625</LatitudeDegrees>
              <LongitudeDegrees>-5.3616132773458957672119140625</LongitudeDegrees>
            </Position>
            <AltitudeMeters>13.80000019073486328125</AltitudeMeters>
            <DistanceMeters>5421.096008621</DistanceMeters>
          </Trackpoint>
          <Trackpoint>
            <Time>2018-06-10T08:38:05.000Z</Time>
            <Position>
              <LatitudeDegrees>35.91390238143503665924072265625</LatitudeDegrees>
              <LongitudeDegrees>-5.36164286546409130096435546875</LongitudeDegrees>
            </Position>
            <AltitudeMeters>14</AltitudeMeters>
            <DistanceMeters>5423.8402906317</DistanceMeters>
          </Trackpoint>
          <Trackpoint>
            <Time>2018-06-10T08:38:06.000Z</Time>
            <Position>
              <LatitudeDegrees>35.91390489600598812103271484375</LatitudeDegrees>
              <LongitudeDegrees>-5.36165744997560977935791015625</LongitudeDegrees>
            </Position>
            <AltitudeMeters>14.19999980926513671875</AltitudeMeters>
            <DistanceMeters>5425.1875268267</DistanceMeters>
          </Trackpoint>
          <Trackpoint>
            <Time>2018-06-10T08:38:08.000Z</Time>
            <Position>
              <LatitudeDegrees>35.91390942223370075225830078125</LatitudeDegrees>
              <LongitudeDegrees>-5.3616861999034881591796875</LongitudeDegrees>
            </Position>
            <AltitudeMeters>14.3999996185302734375</AltitudeMeters>
            <DistanceMeters>5427.8278334405</DistanceMeters>
          </Trackpoint>
          <Trackpoint>
            <Time>2018-06-10T08:38:15.000Z</Time>
            <Position>
              <LatitudeDegrees>35.9138957597315311431884765625</LatitudeDegrees>
              <LongitudeDegrees>-5.361792147159576416015625</LongitudeDegrees>
            </Position>
            <AltitudeMeters>16</AltitudeMeters>
            <DistanceMeters>5437.4986401147</DistanceMeters>
          </Trackpoint>
          <Trackpoint>
            <Time>2018-06-10T08:38:20.000Z</Time>
            <Position>
              <LatitudeDegrees>35.91389014385640621185302734375</LatitudeDegrees>
              <LongitudeDegrees>-5.361856184899806976318359375</LongitudeDegrees>
            </Position>
            <AltitudeMeters>16.799999237060546875</AltitudeMeters>
            <DistanceMeters>5443.3046090575</DistanceMeters>
          </Trackpoint>
          <Trackpoint>
            <Time>2018-06-10T08:38:21.000Z</Time>
            <Position>
              <LatitudeDegrees>35.9138940833508968353271484375</LatitudeDegrees>
              <LongitudeDegrees>-5.361866243183612823486328125</LongitudeDegrees>
            </Position>
            <AltitudeMeters>16.799999237060546875</AltitudeMeters>
            <DistanceMeters>5444.3102772741</DistanceMeters>
          </Trackpoint>
          <Trackpoint>
            <Time>2018-06-10T08:38:22.000Z</Time>
            <Position>
              <LatitudeDegrees>35.91389919631183147430419921875</LatitudeDegrees>
              <LongitudeDegrees>-5.3618814982473850250244140625</LongitudeDegrees>
            </Position>
            <AltitudeMeters>17</AltitudeMeters>
            <DistanceMeters>5445.7976806251</DistanceMeters>
          </Trackpoint>
          <Trackpoint>
            <Time>2018-06-10T08:38:30.000Z</Time>
            <Position>
              <LatitudeDegrees>35.91393775306642055511474609375</LatitudeDegrees>
              <LongitudeDegrees>-5.36198417656123638153076171875</LongitudeDegrees>
            </Position>
            <AltitudeMeters>17.799999237060546875</AltitudeMeters>
            <DistanceMeters>5455.9996736213</DistanceMeters>
          </Trackpoint>
          <Trackpoint>
            <Time>2018-06-10T08:38:35.000Z</Time>
            <Position>
              <LatitudeDegrees>35.9139727056026458740234375</LatitudeDegrees>
              <LongitudeDegrees>-5.36205005832016468048095703125</LongitudeDegrees>
            </Position>
            <AltitudeMeters>18.200000762939453125</AltitudeMeters>
            <DistanceMeters>5463.099383947</DistanceMeters>
          </Trackpoint>
          <Trackpoint>
            <Time>2018-06-10T08:38:38.000Z</Time>
            <Position>
              <LatitudeDegrees>35.91399206779897212982177734375</LatitudeDegrees>
              <LongitudeDegrees>-5.362095572054386138916015625</LongitudeDegrees>
            </Position>
            <AltitudeMeters>18.200000762939453125</AltitudeMeters>
            <DistanceMeters>5467.7333370957</DistanceMeters>
          </Trackpoint>
          <Trackpoint>
            <Time>2018-06-10T08:38:40.000Z</Time>
            <Position>
              <LatitudeDegrees>35.91400447301566600799560546875</LatitudeDegrees>
              <LongitudeDegrees>-5.3621212206780910491943359375</LongitudeDegrees>
            </Position>
            <AltitudeMeters>18.200000762939453125</AltitudeMeters>
            <DistanceMeters>5470.4278094858</DistanceMeters>
          </Trackpoint>
          <Trackpoint>
            <Time>2018-06-10T08:38:46.000Z</Time>
            <Position>
              <LatitudeDegrees>35.9140607155859470367431640625</LatitudeDegrees>
              <LongitudeDegrees>-5.36218567751348018646240234375</LongitudeDegrees>
            </Position>
            <AltitudeMeters>17.799999237060546875</AltitudeMeters>
            <DistanceMeters>5478.9685915058</DistanceMeters>
          </Trackpoint>
          <Trackpoint>
            <Time>2018-06-10T08:38:57.000Z</Time>
            <Position>
              <LatitudeDegrees>35.91417043469846248626708984375</LatitudeDegrees>
              <LongitudeDegrees>-5.36228089593350887298583984375</LongitudeDegrees>
            </Position>
            <AltitudeMeters>17</AltitudeMeters>
            <DistanceMeters>5493.8953495657</DistanceMeters>
          </Trackpoint>
          <Trackpoint>
            <Time>2018-06-10T08:39:13.000Z</Time>
            <Position>
              <LatitudeDegrees>35.91426313854753971099853515625</LatitudeDegrees>
              <LongitudeDegrees>-5.362484492361545562744140625</LongitudeDegrees>
            </Position>
            <AltitudeMeters>17.6000003814697265625</AltitudeMeters>
            <DistanceMeters>5514.9497185336</DistanceMeters>
          </Trackpoint>
          <Trackpoint>
            <Time>2018-06-10T08:39:15.000Z</Time>
            <Position>
              <LatitudeDegrees>35.914272777736186981201171875</LatitudeDegrees>
              <LongitudeDegrees>-5.36250670440495014190673828125</LongitudeDegrees>
            </Position>
            <AltitudeMeters>17.799999237060546875</AltitudeMeters>
            <DistanceMeters>5517.2224269895</DistanceMeters>
          </Trackpoint>
          <Trackpoint>
            <Time>2018-06-10T08:39:24.000Z</Time>
            <Position>
              <LatitudeDegrees>35.91432734392583370208740234375</LatitudeDegrees>
              <LongitudeDegrees>-5.36261248402297496795654296875</LongitudeDegrees>
            </Position>
            <AltitudeMeters>17.6000003814697265625</AltitudeMeters>
            <DistanceMeters>5528.5278107507</DistanceMeters>
          </Trackpoint>
          <Trackpoint>
            <Time>2018-06-10T08:39:30.000Z</Time>
            <Position>
              <LatitudeDegrees>35.91436766088008880615234375</LatitudeDegrees>
              <LongitudeDegrees>-5.362701080739498138427734375</LongitudeDegrees>
            </Position>
            <AltitudeMeters>17.200000762939453125</AltitudeMeters>
            <DistanceMeters>5537.6879128417</DistanceMeters>
          </Trackpoint>
          <Trackpoint>
            <Time>2018-06-10T08:39:45.000Z</Time>
            <Position>
              <LatitudeDegrees>35.91449447907507419586181640625</LatitudeDegrees>
              <LongitudeDegrees>-5.362870730459690093994140625</LongitudeDegrees>
            </Position>
            <AltitudeMeters>15.6000003814697265625</AltitudeMeters>
            <DistanceMeters>5558.4989802436</DistanceMeters>
          </Trackpoint>
          <Trackpoint>
            <Time>2018-06-10T08:39:50.000Z</Time>
            <Position>
              <LatitudeDegrees>35.914539657533168792724609375</LatitudeDegrees>
              <LongitudeDegrees>-5.3629441559314727783203125</LongitudeDegrees>
            </Position>
            <AltitudeMeters>15</AltitudeMeters>
            <DistanceMeters>5566.811509639</DistanceMeters>
          </Trackpoint>
          <Trackpoint>
            <Time>2018-06-10T08:39:55.000Z</Time>
            <Position>
              <LatitudeDegrees>35.914570502936840057373046875</LatitudeDegrees>
              <LongitudeDegrees>-5.363006182014942169189453125</LongitudeDegrees>
            </Position>
            <AltitudeMeters>15</AltitudeMeters>
            <DistanceMeters>5573.3724832259</DistanceMeters>
          </Trackpoint>
          <Trackpoint>
            <Time>2018-06-10T08:39:57.000Z</Time>
            <Position>
              <LatitudeDegrees>35.9145847521722316741943359375</LatitudeDegrees>
              <LongitudeDegrees>-5.36303761415183544158935546875</LongitudeDegrees>
            </Position>
            <AltitudeMeters>15</AltitudeMeters>
            <DistanceMeters>5576.6201176398</DistanceMeters>
          </Trackpoint>
          <Trackpoint>
            <Time>2018-06-10T08:40:10.000Z</Time>
            <Position>
              <LatitudeDegrees>35.9146273322403430938720703125</LatitudeDegrees>
              <LongitudeDegrees>-5.36326677538454532623291015625</LongitudeDegrees>
            </Position>
            <AltitudeMeters>16.6000003814697265625</AltitudeMeters>
            <DistanceMeters>5597.8140576358</DistanceMeters>
          </Trackpoint>
          <Trackpoint>
            <Time>2018-06-10T08:40:14.000Z</Time>
            <Position>
              <LatitudeDegrees>35.91462959535419940948486328125</LatitudeDegrees>
              <LongitudeDegrees>-5.363338105380535125732421875</LongitudeDegrees>
            </Position>
            <AltitudeMeters>17.3999996185302734375</AltitudeMeters>
            <DistanceMeters>5604.2492678555</DistanceMeters>
          </Trackpoint>
          <Trackpoint>
            <Time>2018-06-10T08:40:16.000Z</Time>
            <Position>
              <LatitudeDegrees>35.9146363846957683563232421875</LatitudeDegrees>
              <LongitudeDegrees>-5.3633694536983966827392578125</LongitudeDegrees>
            </Position>
            <AltitudeMeters>17.6000003814697265625</AltitudeMeters>
            <DistanceMeters>5607.175103201</DistanceMeters>
          </Trackpoint>
          <Trackpoint>
            <Time>2018-06-10T08:40:19.000Z</Time>
            <Position>
              <LatitudeDegrees>35.91464568860828876495361328125</LatitudeDegrees>
              <LongitudeDegrees>-5.36341614089906215667724609375</LongitudeDegrees>
            </Position>
            <AltitudeMeters>17.799999237060546875</AltitudeMeters>
            <DistanceMeters>5611.5069040794</DistanceMeters>
          </Trackpoint>
          <Trackpoint>
            <Time>2018-06-10T08:40:27.000Z</Time>
            <Position>
              <LatitudeDegrees>35.91469380073249340057373046875</LatitudeDegrees>
              <LongitudeDegrees>-5.36352275870740413665771484375</LongitudeDegrees>
            </Position>
            <AltitudeMeters>17.799999237060546875</AltitudeMeters>
            <DistanceMeters>5622.508683238</DistanceMeters>
          </Trackpoint>
          <Trackpoint>
            <Time>2018-06-10T08:40:41.000Z</Time>
            <Position>
              <LatitudeDegrees>35.91475063003599643707275390625</LatitudeDegrees>
              <LongitudeDegrees>-5.36374010145664215087890625</LongitudeDegrees>
            </Position>
            <AltitudeMeters>19</AltitudeMeters>
            <DistanceMeters>5643.0961721099</DistanceMeters>
          </Trackpoint>
          <Trackpoint>
            <Time>2018-06-10T08:40:52.000Z</Time>
            <Position>
              <LatitudeDegrees>35.91484786011278629302978515625</LatitudeDegrees>
              <LongitudeDegrees>-5.36387379281222820281982421875</LongitudeDegrees>
            </Position>
            <AltitudeMeters>20.200000762939453125</AltitudeMeters>
            <DistanceMeters>5659.2934191268</DistanceMeters>
          </Trackpoint>
          <Trackpoint>
            <Time>2018-06-10T08:41:03.000Z</Time>
            <Position>
              <LatitudeDegrees>35.91491885483264923095703125</LatitudeDegrees>
              <LongitudeDegrees>-5.36402885802090167999267578125</LongitudeDegrees>
            </Position>
            <AltitudeMeters>22</AltitudeMeters>
            <DistanceMeters>5675.3504033589</DistanceMeters>
          </Trackpoint>
          <Trackpoint>
            <Time>2018-06-10T08:41:08.000Z</Time>
            <Position>
              <LatitudeDegrees>35.91496068052947521209716796875</LatitudeDegrees>
              <LongitudeDegrees>-5.36409105174243450164794921875</LongitudeDegrees>
            </Position>
            <AltitudeMeters>22.799999237060546875</AltitudeMeters>
            <DistanceMeters>5682.6371618625</DistanceMeters>
          </Trackpoint>
          <Trackpoint>
            <Time>2018-06-10T08:41:10.000Z</Time>
            <Position>
              <LatitudeDegrees>35.9149756841361522674560546875</LatitudeDegrees>
              <LongitudeDegrees>-5.36411670036613941192626953125</LongitudeDegrees>
            </Position>
            <AltitudeMeters>23</AltitudeMeters>
            <DistanceMeters>5685.491129093</DistanceMeters>
          </Trackpoint>
          <Trackpoint>
            <Time>2018-06-10T08:41:23.000Z</Time>
            <Position>
              <LatitudeDegrees>35.91500862501561641693115234375</LatitudeDegrees>
              <LongitudeDegrees>-5.364348627626895904541015625</LongitudeDegrees>
            </Position>
            <AltitudeMeters>26.3999996185302734375</AltitudeMeters>
            <DistanceMeters>5706.7165747624</DistanceMeters>
          </Trackpoint>
          <Trackpoint>
            <Time>2018-06-10T08:41:38.000Z</Time>
            <Position>
              <LatitudeDegrees>35.91510283760726451873779296875</LatitudeDegrees>
              <LongitudeDegrees>-5.3645342029631137847900390625</LongitudeDegrees>
            </Position>
            <AltitudeMeters>30.6000003814697265625</AltitudeMeters>
            <DistanceMeters>5726.459732559</DistanceMeters>
          </Trackpoint>
          <Trackpoint>
            <Time>2018-06-10T08:41:42.000Z</Time>
            <Position>
              <LatitudeDegrees>35.91513921506702899932861328125</LatitudeDegrees>
              <LongitudeDegrees>-5.3645539842545986175537109375</LongitudeDegrees>
            </Position>
            <AltitudeMeters>31</AltitudeMeters>
            <DistanceMeters>5730.8843461839</DistanceMeters>
          </Trackpoint>
          <Trackpoint>
            <Time>2018-06-10T08:41:48.000Z</Time>
            <Position>
              <LatitudeDegrees>35.9152127243578433990478515625</LatitudeDegrees>
              <LongitudeDegrees>-5.3645749390125274658203125</LongitudeDegrees>
            </Position>
            <AltitudeMeters>31.3999996185302734375</AltitudeMeters>
            <DistanceMeters>5739.2811811159</DistanceMeters>
          </Trackpoint>
          <Trackpoint>
            <Time>2018-06-10T08:41:53.000Z</Time>
            <Position>
              <LatitudeDegrees>35.91526343487203121185302734375</LatitudeDegrees>
              <LongitudeDegrees>-5.36458977498114109039306640625</LongitudeDegrees>
            </Position>
            <AltitudeMeters>31.799999237060546875</AltitudeMeters>
            <DistanceMeters>5745.0817039225</DistanceMeters>
          </Trackpoint>
          <Trackpoint>
            <Time>2018-06-10T08:41:56.000Z</Time>
            <Position>
              <LatitudeDegrees>35.91527768410742282867431640625</LatitudeDegrees>
              <LongitudeDegrees>-5.3645553253591060638427734375</LongitudeDegrees>
            </Position>
            <AltitudeMeters>31</AltitudeMeters>
            <DistanceMeters>5748.5680319182</DistanceMeters>
          </Trackpoint>
          <Trackpoint>
            <Time>2018-06-10T08:41:57.000Z</Time>
            <Position>
              <LatitudeDegrees>35.91527718119323253631591796875</LatitudeDegrees>
              <LongitudeDegrees>-5.3645435906946659088134765625</LongitudeDegrees>
            </Position>
            <AltitudeMeters>30.799999237060546875</AltitudeMeters>
            <DistanceMeters>5749.6262046258</DistanceMeters>
          </Trackpoint>
          <Trackpoint>
            <Time>2018-06-10T08:42:00.000Z</Time>
            <Position>
              <LatitudeDegrees>35.915272235870361328125</LatitudeDegrees>
              <LongitudeDegrees>-5.36451651714742183685302734375</LongitudeDegrees>
            </Position>
            <AltitudeMeters>30.200000762939453125</AltitudeMeters>
            <DistanceMeters>5752.1295769617</DistanceMeters>
          </Trackpoint>
          <Trackpoint>
            <Time>2018-06-10T08:42:11.000Z</Time>
            <Position>
              <LatitudeDegrees>35.915292017161846160888671875</LatitudeDegrees>
              <LongitudeDegrees>-5.36448986269533634185791015625</LongitudeDegrees>
            </Position>
            <AltitudeMeters>29.3999996185302734375</AltitudeMeters>
            <DistanceMeters>5755.3910842897</DistanceMeters>
          </Trackpoint>
          <Trackpoint>
            <Time>2018-06-10T08:42:21.000Z</Time>
            <Position>
              <LatitudeDegrees>35.91529729776084423065185546875</LatitudeDegrees>
              <LongitudeDegrees>-5.36449288018047809600830078125</LongitudeDegrees>
            </Position>
            <AltitudeMeters>29.6000003814697265625</AltitudeMeters>
            <DistanceMeters>5756.0355868238</DistanceMeters>
          </Trackpoint>
          <Trackpoint>
            <Time>2018-06-10T08:42:27.000Z</Time>
            <Position>
              <LatitudeDegrees>35.91530668549239635467529296875</LatitudeDegrees>
              <LongitudeDegrees>-5.36450260318815708160400390625</LongitudeDegrees>
            </Position>
            <AltitudeMeters>29.799999237060546875</AltitudeMeters>
            <DistanceMeters>5757.3994767561</DistanceMeters>
          </Trackpoint>
          <Trackpoint>
            <Time>2018-06-10T08:42:35.000Z</Time>
            <Position>
              <LatitudeDegrees>35.9153109602630138397216796875</LatitudeDegrees>
              <LongitudeDegrees>-5.364457927644252777099609375</LongitudeDegrees>
            </Position>
            <AltitudeMeters>28.799999237060546875</AltitudeMeters>
            <DistanceMeters>5761.4545685189</DistanceMeters>
          </Trackpoint>
          <Trackpoint>
            <Time>2018-06-10T08:42:40.000Z</Time>
            <Position>
              <LatitudeDegrees>35.91532344929873943328857421875</LatitudeDegrees>
              <LongitudeDegrees>-5.3644436784088611602783203125</LongitudeDegrees>
            </Position>
            <AltitudeMeters>28.3999996185302734375</AltitudeMeters>
            <DistanceMeters>5763.3479623892</DistanceMeters>
          </Trackpoint>
          <Trackpoint>
            <Time>2018-06-10T08:42:42.000Z</Time>
            <Position>
              <LatitudeDegrees>35.91532613150775432586669921875</LatitudeDegrees>
              <LongitudeDegrees>-5.36444309167563915252685546875</LongitudeDegrees>
            </Position>
            <AltitudeMeters>28.3999996185302734375</AltitudeMeters>
            <DistanceMeters>5763.6484632452</DistanceMeters>
          </Trackpoint>
          <Trackpoint>
            <Time>2018-06-10T08:42:43.000Z</Time>
            <Position>
              <LatitudeDegrees>35.91532579623162746429443359375</LatitudeDegrees>
              <LongitudeDegrees>-5.3644436784088611602783203125</LongitudeDegrees>
            </Position>
            <AltitudeMeters>28.3999996185302734375</AltitudeMeters>
            <DistanceMeters>5763.6484632452</DistanceMeters>
          </Trackpoint>
          <Trackpoint>
            <Time>2018-06-10T08:42:44.000Z</Time>
            <Position>
              <LatitudeDegrees>35.9153258800506591796875</LatitudeDegrees>
              <LongitudeDegrees>-5.36444292403757572174072265625</LongitudeDegrees>
            </Position>
            <AltitudeMeters>28.3999996185302734375</AltitudeMeters>
            <DistanceMeters>5763.6484632452</DistanceMeters>
          </Trackpoint>
          <Trackpoint>
            <Time>2018-06-10T08:42:45.000Z</Time>
            <Position>
              <LatitudeDegrees>35.9153247065842151641845703125</LatitudeDegrees>
              <LongitudeDegrees>-5.3644426725804805755615234375</LongitudeDegrees>
            </Position>
            <AltitudeMeters>28.3999996185302734375</AltitudeMeters>
            <DistanceMeters>5763.7828513134</DistanceMeters>
          </Trackpoint>
          <Trackpoint>
            <Time>2018-06-10T08:42:46.000Z</Time>
            <Position>
              <LatitudeDegrees>35.9153240360319614410400390625</LatitudeDegrees>
              <LongitudeDegrees>-5.36444208584725856781005859375</LongitudeDegrees>
            </Position>
            <AltitudeMeters>28.3999996185302734375</AltitudeMeters>
            <DistanceMeters>5763.8778780278</DistanceMeters>
          </Trackpoint>
          <Trackpoint>
            <Time>2018-06-10T08:42:49.000Z</Time>
            <Position>
              <LatitudeDegrees>35.915324874222278594970703125</LatitudeDegrees>
              <LongitudeDegrees>-5.36443990655243396759033203125</LongitudeDegrees>
            </Position>
            <AltitudeMeters>28.3999996185302734375</AltitudeMeters>
            <DistanceMeters>5764.11064499</DistanceMeters>
          </Trackpoint>
          <Trackpoint>
            <Time>2018-06-10T08:42:54.000Z</Time>
            <Position>
              <LatitudeDegrees>35.91533459722995758056640625</LatitudeDegrees>
              <LongitudeDegrees>-5.3644369728863239288330078125</LongitudeDegrees>
            </Position>
            <AltitudeMeters>28.200000762939453125</AltitudeMeters>
            <DistanceMeters>5765.2269561246</DistanceMeters>
          </Trackpoint>
          <Trackpoint>
            <Time>2018-06-10T08:43:05.000Z</Time>
            <Position>
              <LatitudeDegrees>35.91534071601927280426025390625</LatitudeDegrees>
              <LongitudeDegrees>-5.3644354641437530517578125</LongitudeDegrees>
            </Position>
            <AltitudeMeters>28.200000762939453125</AltitudeMeters>
            <DistanceMeters>5765.925257011</DistanceMeters>
          </Trackpoint>
          <Trackpoint>
            <Time>2018-06-10T08:43:10.000Z</Time>
            <Position>
              <LatitudeDegrees>35.91535027138888835906982421875</LatitudeDegrees>
              <LongitudeDegrees>-5.36443705670535564422607421875</LongitudeDegrees>
            </Position>
            <AltitudeMeters>28.200000762939453125</AltitudeMeters>
            <DistanceMeters>5767.000361557</DistanceMeters>
          </Trackpoint>
          <Trackpoint>
            <Time>2018-06-10T08:43:18.000Z</Time>
            <Position>
              <LatitudeDegrees>35.91535379178822040557861328125</LatitudeDegrees>
              <LongitudeDegrees>-5.3643960691988468170166015625</LongitudeDegrees>
            </Position>
            <AltitudeMeters>27.3999996185302734375</AltitudeMeters>
            <DistanceMeters>5770.7173518663</DistanceMeters>
          </Trackpoint>
          <Trackpoint>
            <Time>2018-06-10T08:43:21.000Z</Time>
            <Position>
              <LatitudeDegrees>35.91536317951977252960205078125</LatitudeDegrees>
              <LongitudeDegrees>-5.364362038671970367431640625</LongitudeDegrees>
            </Position>
            <AltitudeMeters>26.6000003814697265625</AltitudeMeters>
            <DistanceMeters>5773.9580275526</DistanceMeters>
          </Trackpoint>
          <Trackpoint>
            <Time>2018-06-10T08:43:24.000Z</Time>
            <Position>
              <LatitudeDegrees>35.915374495089054107666015625</LatitudeDegrees>
              <LongitudeDegrees>-5.3643389046192169189453125</LongitudeDegrees>
            </Position>
            <AltitudeMeters>26</AltitudeMeters>
            <DistanceMeters>5776.3918989846</DistanceMeters>
          </Trackpoint>
          <Trackpoint>
            <Time>2018-06-10T08:43:28.000Z</Time>
            <Position>
              <LatitudeDegrees>35.91542252339422702789306640625</LatitudeDegrees>
              <LongitudeDegrees>-5.36431677639484405517578125</LongitudeDegrees>
            </Position>
            <AltitudeMeters>25.6000003814697265625</AltitudeMeters>
            <DistanceMeters>5782.0982512044</DistanceMeters>
          </Trackpoint>
          <Trackpoint>
            <Time>2018-06-10T08:43:30.000Z</Time>
            <Position>
              <LatitudeDegrees>35.915444903075695037841796875</LatitudeDegrees>
              <LongitudeDegrees>-5.36430931650102138519287109375</LongitudeDegrees>
            </Position>
            <AltitudeMeters>25.3999996185302734375</AltitudeMeters>
            <DistanceMeters>5784.6780121118</DistanceMeters>
          </Trackpoint>
          <Trackpoint>
            <Time>2018-06-10T08:43:37.000Z</Time>
            <Position>
              <LatitudeDegrees>35.91553282923996448516845703125</LatitudeDegrees>
              <LongitudeDegrees>-5.364301688969135284423828125</LongitudeDegrees>
            </Position>
            <AltitudeMeters>25.200000762939453125</AltitudeMeters>
            <DistanceMeters>5794.488341094</DistanceMeters>
          </Trackpoint>
          <Trackpoint>
            <Time>2018-06-10T08:43:38.000Z</Time>
            <Position>
              <LatitudeDegrees>35.9155469946563243865966796875</LatitudeDegrees>
              <LongitudeDegrees>-5.364302359521389007568359375</LongitudeDegrees>
            </Position>
            <AltitudeMeters>25.200000762939453125</AltitudeMeters>
            <DistanceMeters>5796.0699008226</DistanceMeters>
          </Trackpoint>
          <Trackpoint>
            <Time>2018-06-10T08:43:50.000Z</Time>
            <Position>
              <LatitudeDegrees>35.9157065860927104949951171875</LatitudeDegrees>
              <LongitudeDegrees>-5.3643420897424221038818359375</LongitudeDegrees>
            </Position>
            <AltitudeMeters>24.3999996185302734375</AltitudeMeters>
            <DistanceMeters>5814.1901273548</DistanceMeters>
          </Trackpoint>
          <Trackpoint>
            <Time>2018-06-10T08:43:53.000Z</Time>
            <Position>
              <LatitudeDegrees>35.915744304656982421875</LatitudeDegrees>
              <LongitudeDegrees>-5.36435575224459171295166015625</LongitudeDegrees>
            </Position>
            <AltitudeMeters>24.200000762939453125</AltitudeMeters>
            <DistanceMeters>5818.5654858614</DistanceMeters>
          </Trackpoint>
          <Trackpoint>
            <Time>2018-06-10T08:43:55.000Z</Time>
            <Position>
              <LatitudeDegrees>35.915760062634944915771484375</LatitudeDegrees>
              <LongitudeDegrees>-5.36436765454709529876708984375</LongitudeDegrees>
            </Position>
            <AltitudeMeters>24.200000762939453125</AltitudeMeters>
            <DistanceMeters>5820.6212280086</DistanceMeters>
          </Trackpoint>
          <Trackpoint>
            <Time>2018-06-10T08:43:57.000Z</Time>
            <Position>
              <LatitudeDegrees>35.91577724553644657135009765625</LatitudeDegrees>
              <LongitudeDegrees>-5.3643779642879962921142578125</LongitudeDegrees>
            </Position>
            <AltitudeMeters>24.200000762939453125</AltitudeMeters>
            <DistanceMeters>5822.7482137393</DistanceMeters>
          </Trackpoint>
          <Trackpoint>
            <Time>2018-06-10T08:44:02.000Z</Time>
            <Position>
              <LatitudeDegrees>35.91583742760121822357177734375</LatitudeDegrees>
              <LongitudeDegrees>-5.3644121624529361724853515625</LongitudeDegrees>
            </Position>
            <AltitudeMeters>24.200000762939453125</AltitudeMeters>
            <DistanceMeters>5830.1218214227</DistanceMeters>
          </Trackpoint>
          <Trackpoint>
            <Time>2018-06-10T08:44:04.000Z</Time>
            <Position>
              <LatitudeDegrees>35.9158514253795146942138671875</LatitudeDegrees>
              <LongitudeDegrees>-5.36442833952605724334716796875</LongitudeDegrees>
            </Position>
            <AltitudeMeters>24.3999996185302734375</AltitudeMeters>
            <DistanceMeters>5832.2530484053</DistanceMeters>
          </Trackpoint>
          <Trackpoint>
            <Time>2018-06-10T08:44:06.000Z</Time>
            <Position>
              <LatitudeDegrees>35.9158675186336040496826171875</LatitudeDegrees>
              <LongitudeDegrees>-5.364443846046924591064453125</LongitudeDegrees>
            </Position>
            <AltitudeMeters>24.6000003814697265625</AltitudeMeters>
            <DistanceMeters>5834.5257568613</DistanceMeters>
          </Trackpoint>
          <Trackpoint>
            <Time>2018-06-10T08:44:10.000Z</Time>
            <Position>
              <LatitudeDegrees>35.915906913578510284423828125</LatitudeDegrees>
              <LongitudeDegrees>-5.36447091959416866302490234375</LongitudeDegrees>
            </Position>
            <AltitudeMeters>24.799999237060546875</AltitudeMeters>
            <DistanceMeters>5839.5451107319</DistanceMeters>
          </Trackpoint>
          <Trackpoint>
            <Time>2018-06-10T08:44:20.000Z</Time>
            <Position>
              <LatitudeDegrees>35.916031636297702789306640625</LatitudeDegrees>
              <LongitudeDegrees>-5.36448441445827484130859375</LongitudeDegrees>
            </Position>
            <AltitudeMeters>23.6000003814697265625</AltitudeMeters>
            <DistanceMeters>5853.4800583045</DistanceMeters>
          </Trackpoint>
          <Trackpoint>
            <Time>2018-06-10T08:44:25.000Z</Time>
            <Position>
              <LatitudeDegrees>35.91607899405062198638916015625</LatitudeDegrees>
              <LongitudeDegrees>-5.36449237726628780364990234375</LongitudeDegrees>
            </Position>
            <AltitudeMeters>23.200000762939453125</AltitudeMeters>
            <DistanceMeters>5858.7998571329</DistanceMeters>
          </Trackpoint>
          <Trackpoint>
            <Time>2018-06-10T08:44:28.000Z</Time>
            <Position>
              <LatitudeDegrees>35.9161157906055450439453125</LatitudeDegrees>
              <LongitudeDegrees>-5.364495813846588134765625</LongitudeDegrees>
            </Position>
            <AltitudeMeters>22.799999237060546875</AltitudeMeters>
            <DistanceMeters>5862.9069464669</DistanceMeters>
          </Trackpoint>
          <Trackpoint>
            <Time>2018-06-10T08:44:41.000Z</Time>
            <Position>
              <LatitudeDegrees>35.91627546586096286773681640625</LatitudeDegrees>
              <LongitudeDegrees>-5.36456353962421417236328125</LongitudeDegrees>
            </Position>
            <AltitudeMeters>22.6000003814697265625</AltitudeMeters>
            <DistanceMeters>5881.6984642167</DistanceMeters>
          </Trackpoint>
          <Trackpoint>
            <Time>2018-06-10T08:44:55.000Z</Time>
            <Position>
              <LatitudeDegrees>35.91640035621821880340576171875</LatitudeDegrees>
              <LongitudeDegrees>-5.3647196106612682342529296875</LongitudeDegrees>
            </Position>
            <AltitudeMeters>24.3999996185302734375</AltitudeMeters>
            <DistanceMeters>5901.4754389878</DistanceMeters>
          </Trackpoint>
          <Trackpoint>
            <Time>2018-06-10T08:44:57.000Z</Time>
            <Position>
              <LatitudeDegrees>35.9164146892726421356201171875</LatitudeDegrees>
              <LongitudeDegrees>-5.36474785767495632171630859375</LongitudeDegrees>
            </Position>
            <AltitudeMeters>24.6000003814697265625</AltitudeMeters>
            <DistanceMeters>5904.4774410349</DistanceMeters>
          </Trackpoint>
          <Trackpoint>
            <Time>2018-06-10T08:45:04.000Z</Time>
            <Position>
              <LatitudeDegrees>35.9164602868258953094482421875</LatitudeDegrees>
              <LongitudeDegrees>-5.36484475247561931610107421875</LongitudeDegrees>
            </Position>
            <AltitudeMeters>25.200000762939453125</AltitudeMeters>
            <DistanceMeters>5914.5789193335</DistanceMeters>
          </Trackpoint>
          <Trackpoint>
            <Time>2018-06-10T08:45:10.000Z</Time>
            <Position>
              <LatitudeDegrees>35.916499681770801544189453125</LatitudeDegrees>
              <LongitudeDegrees>-5.36491482518613338470458984375</LongitudeDegrees>
            </Position>
            <AltitudeMeters>25.3999996185302734375</AltitudeMeters>
            <DistanceMeters>5922.2684538158</DistanceMeters>
          </Trackpoint>
          <Trackpoint>
            <Time>2018-06-10T08:45:18.000Z</Time>
            <Position>
              <LatitudeDegrees>35.91656497679650783538818359375</LatitudeDegrees>
              <LongitudeDegrees>-5.36498590372502803802490234375</LongitudeDegrees>
            </Position>
            <AltitudeMeters>24.799999237060546875</AltitudeMeters>
            <DistanceMeters>5931.9574514271</DistanceMeters>
          </Trackpoint>
          <Trackpoint>
            <Time>2018-06-10T08:45:27.000Z</Time>
            <Position>
              <LatitudeDegrees>35.916658937931060791015625</LatitudeDegrees>
              <LongitudeDegrees>-5.3650522045791149139404296875</LongitudeDegrees>
            </Position>
            <AltitudeMeters>23.200000762939453125</AltitudeMeters>
            <DistanceMeters>5944.0030011572</DistanceMeters>
          </Trackpoint>
          <Trackpoint>
            <Time>2018-06-10T08:45:33.000Z</Time>
            <Position>
              <LatitudeDegrees>35.916724316775798797607421875</LatitudeDegrees>
              <LongitudeDegrees>-5.3650738298892974853515625</LongitudeDegrees>
            </Position>
            <AltitudeMeters>21.6000003814697265625</AltitudeMeters>
            <DistanceMeters>5951.5371275516</DistanceMeters>
          </Trackpoint>
          <Trackpoint>
            <Time>2018-06-10T08:45:38.000Z</Time>
            <Position>
              <LatitudeDegrees>35.9167729318141937255859375</LatitudeDegrees>
              <LongitudeDegrees>-5.36509822122752666473388671875</LongitudeDegrees>
            </Position>
            <AltitudeMeters>20.6000003814697265625</AltitudeMeters>
            <DistanceMeters>5957.3779861191</DistanceMeters>
          </Trackpoint>
          <Trackpoint>
            <Time>2018-06-10T08:45:39.000Z</Time>
            <Position>
              <LatitudeDegrees>35.9167838282883167266845703125</LatitudeDegrees>
              <LongitudeDegrees>-5.365107022225856781005859375</LongitudeDegrees>
            </Position>
            <AltitudeMeters>20.3999996185302734375</AltitudeMeters>
            <DistanceMeters>5958.8285059609</DistanceMeters>
          </Trackpoint>
          <Trackpoint>
            <Time>2018-06-10T08:45:45.000Z</Time>
            <Position>
              <LatitudeDegrees>35.91679983772337436676025390625</LatitudeDegrees>
              <LongitudeDegrees>-5.36520265974104404449462890625</LongitudeDegrees>
            </Position>
            <AltitudeMeters>20.3999996185302734375</AltitudeMeters>
            <DistanceMeters>5967.631693795</DistanceMeters>
          </Trackpoint>
          <Trackpoint>
            <Time>2018-06-10T08:45:59.000Z</Time>
            <Position>
              <LatitudeDegrees>35.91678994707763195037841796875</LatitudeDegrees>
              <LongitudeDegrees>-5.36542830057442188262939453125</LongitudeDegrees>
            </Position>
            <AltitudeMeters>22.3999996185302734375</AltitudeMeters>
            <DistanceMeters>5988.000687199</DistanceMeters>
          </Trackpoint>
          <Trackpoint>
            <Time>2018-06-10T08:46:02.000Z</Time>
            <Position>
              <LatitudeDegrees>35.9167901985347270965576171875</LatitudeDegrees>
              <LongitudeDegrees>-5.36547683179378509521484375</LongitudeDegrees>
            </Position>
            <AltitudeMeters>22.799999237060546875</AltitudeMeters>
            <DistanceMeters>5992.3739813703</DistanceMeters>
          </Trackpoint>
          <Trackpoint>
            <Time>2018-06-10T08:46:03.000Z</Time>
            <Position>
              <LatitudeDegrees>35.916787683963775634765625</LatitudeDegrees>
              <LongitudeDegrees>-5.3654944337904453277587890625</LongitudeDegrees>
            </Position>
            <AltitudeMeters>22.799999237060546875</AltitudeMeters>
            <DistanceMeters>5993.9866381893</DistanceMeters>
          </Trackpoint>
          <Trackpoint>
            <Time>2018-06-10T08:46:04.000Z</Time>
            <Position>
              <LatitudeDegrees>35.916782319545745849609375</LatitudeDegrees>
              <LongitudeDegrees>-5.3655138798058032989501953125</LongitudeDegrees>
            </Position>
            <AltitudeMeters>23.200000762939453125</AltitudeMeters>
            <DistanceMeters>5995.8390498737</DistanceMeters>
          </Trackpoint>
          <Trackpoint>
            <Time>2018-06-10T08:46:08.000Z</Time>
            <Position>
              <LatitudeDegrees>35.91679036617279052734375</LatitudeDegrees>
              <LongitudeDegrees>-5.36558009684085845947265625</LongitudeDegrees>
            </Position>
            <AltitudeMeters>22.799999237060546875</AltitudeMeters>
            <DistanceMeters>6001.8745555174</DistanceMeters>
          </Trackpoint>
          <Trackpoint>
            <Time>2018-06-10T08:46:11.000Z</Time>
            <Position>
              <LatitudeDegrees>35.91679908335208892822265625</LatitudeDegrees>
              <LongitudeDegrees>-5.36562661640346050262451171875</LongitudeDegrees>
            </Position>
            <AltitudeMeters>22.6000003814697265625</AltitudeMeters>
            <DistanceMeters>6006.1791712799</DistanceMeters>
          </Trackpoint>
          <Trackpoint>
            <Time>2018-06-10T08:46:14.000Z</Time>
            <Position>
              <LatitudeDegrees>35.91682632453739643096923828125</LatitudeDegrees>
              <LongitudeDegrees>-5.365668945014476776123046875</LongitudeDegrees>
            </Position>
            <AltitudeMeters>21.3999996185302734375</AltitudeMeters>
            <DistanceMeters>6011.0524762209</DistanceMeters>
          </Trackpoint>
          <Trackpoint>
            <Time>2018-06-10T08:46:15.000Z</Time>
            <Position>
              <LatitudeDegrees>35.91683269478380680084228515625</LatitudeDegrees>
              <LongitudeDegrees>-5.365683026611804962158203125</LongitudeDegrees>
            </Position>
            <AltitudeMeters>21.200000762939453125</AltitudeMeters>
            <DistanceMeters>6012.5029960627</DistanceMeters>
          </Trackpoint>
          <Trackpoint>
            <Time>2018-06-10T08:46:16.000Z</Time>
            <Position>
              <LatitudeDegrees>35.9168371371924877166748046875</LatitudeDegrees>
              <LongitudeDegrees>-5.36569668911397457122802734375</LongitudeDegrees>
            </Position>
            <AltitudeMeters>21</AltitudeMeters>
            <DistanceMeters>6013.8265650372</DistanceMeters>
          </Trackpoint>
          <Trackpoint>
            <Time>2018-06-10T08:46:24.000Z</Time>
            <Position>
              <LatitudeDegrees>35.9168911166489124298095703125</LatitudeDegrees>
              <LongitudeDegrees>-5.36580230109393596649169921875</LongitudeDegrees>
            </Position>
            <AltitudeMeters>18.799999237060546875</AltitudeMeters>
            <DistanceMeters>6025.0831201346</DistanceMeters>
          </Trackpoint>
          <Trackpoint>
            <Time>2018-06-10T08:46:30.000Z</Time>
            <Position>
              <LatitudeDegrees>35.9168877638876438140869140625</LatitudeDegrees>
              <LongitudeDegrees>-5.36589953117072582244873046875</LongitudeDegrees>
            </Position>
            <AltitudeMeters>19.200000762939453125</AltitudeMeters>
            <DistanceMeters>6033.8544513507</DistanceMeters>
          </Trackpoint>
          <Trackpoint>
            <Time>2018-06-10T08:46:35.000Z</Time>
            <Position>
              <LatitudeDegrees>35.9168911166489124298095703125</LatitudeDegrees>
              <LongitudeDegrees>-5.3659748844802379608154296875</LongitudeDegrees>
            </Position>
            <AltitudeMeters>19.200000762939453125</AltitudeMeters>
            <DistanceMeters>6040.6566650859</DistanceMeters>
          </Trackpoint>
          <Trackpoint>
            <Time>2018-06-10T08:46:45.000Z</Time>
            <Position>
              <LatitudeDegrees>35.9168592654168605804443359375</LatitudeDegrees>
              <LongitudeDegrees>-5.36610907875001430511474609375</LongitudeDegrees>
            </Position>
            <AltitudeMeters>20.799999237060546875</AltitudeMeters>
            <DistanceMeters>6053.2619506878</DistanceMeters>
          </Trackpoint>
          <Trackpoint>
            <Time>2018-06-10T08:46:58.000Z</Time>
            <Position>
              <LatitudeDegrees>35.91682054102420806884765625</LatitudeDegrees>
              <LongitudeDegrees>-5.3662960790097713470458984375</LongitudeDegrees>
            </Position>
            <AltitudeMeters>23</AltitudeMeters>
            <DistanceMeters>6070.6606647964</DistanceMeters>
          </Trackpoint>
          <Trackpoint>
            <Time>2018-06-10T08:46:59.000Z</Time>
            <Position>
              <LatitudeDegrees>35.91683101840317249298095703125</LatitudeDegrees>
              <LongitudeDegrees>-5.36630856804549694061279296875</LongitudeDegrees>
            </Position>
            <AltitudeMeters>22.6000003814697265625</AltitudeMeters>
            <DistanceMeters>6072.2789114305</DistanceMeters>
          </Trackpoint>
          <Trackpoint>
            <Time>2018-06-10T08:47:02.000Z</Time>
            <Position>
              <LatitudeDegrees>35.91685633175075054168701171875</LatitudeDegrees>
              <LongitudeDegrees>-5.3663490526378154754638671875</LongitudeDegrees>
            </Position>
            <AltitudeMeters>21.200000762939453125</AltitudeMeters>
            <DistanceMeters>6076.8894211582</DistanceMeters>
          </Trackpoint>
          <Trackpoint>
            <Time>2018-06-10T08:47:07.000Z</Time>
            <Position>
              <LatitudeDegrees>35.916867814958095550537109375</LatitudeDegrees>
              <LongitudeDegrees>-5.36642440594732761383056640625</LongitudeDegrees>
            </Position>
            <AltitudeMeters>20.3999996185302734375</AltitudeMeters>
            <DistanceMeters>6083.8009408455</DistanceMeters>
          </Trackpoint>
          <Trackpoint>
            <Time>2018-06-10T08:47:08.000Z</Time>
            <Position>
              <LatitudeDegrees>35.9168636240065097808837890625</LatitudeDegrees>
              <LongitudeDegrees>-5.3664402477443218231201171875</LongitudeDegrees>
            </Position>
            <AltitudeMeters>20.3999996185302734375</AltitudeMeters>
            <DistanceMeters>6085.3034451254</DistanceMeters>
          </Trackpoint>
          <Trackpoint>
            <Time>2018-06-10T08:47:11.000Z</Time>
            <Position>
              <LatitudeDegrees>35.91684945859014987945556640625</LatitudeDegrees>
              <LongitudeDegrees>-5.36649146117269992828369140625</LongitudeDegrees>
            </Position>
            <AltitudeMeters>20.6000003814697265625</AltitudeMeters>
            <DistanceMeters>6090.1823058024</DistanceMeters>
          </Trackpoint>
          <Trackpoint>
            <Time>2018-06-10T08:47:25.000Z</Time>
            <Position>
              <LatitudeDegrees>35.91678676195442676544189453125</LatitudeDegrees>
              <LongitudeDegrees>-5.36669312976300716400146484375</LongitudeDegrees>
            </Position>
            <AltitudeMeters>22</AltitudeMeters>
            <DistanceMeters>6109.6542047784</DistanceMeters>
          </Trackpoint>
          <Trackpoint>
            <Time>2018-06-10T08:47:37.000Z</Time>
            <Position>
              <LatitudeDegrees>35.91667436063289642333984375</LatitudeDegrees>
              <LongitudeDegrees>-5.3668519668281078338623046875</LongitudeDegrees>
            </Position>
            <AltitudeMeters>25.6000003814697265625</AltitudeMeters>
            <DistanceMeters>6128.6676232074</DistanceMeters>
          </Trackpoint>
          <Trackpoint>
            <Time>2018-06-10T08:47:43.000Z</Time>
            <Position>
              <LatitudeDegrees>35.91660621576011180877685546875</LatitudeDegrees>
              <LongitudeDegrees>-5.3669103048741817474365234375</LongitudeDegrees>
            </Position>
            <AltitudeMeters>28.200000762939453125</AltitudeMeters>
            <DistanceMeters>6137.8969628965</DistanceMeters>
          </Trackpoint>
          <Trackpoint>
            <Time>2018-06-10T08:47:48.000Z</Time>
            <Position>
              <LatitudeDegrees>35.9165729396045207977294921875</LatitudeDegrees>
              <LongitudeDegrees>-5.36698481999337673187255859375</LongitudeDegrees>
            </Position>
            <AltitudeMeters>29</AltitudeMeters>
            <DistanceMeters>6145.5670964046</DistanceMeters>
          </Trackpoint>
          <Trackpoint>
            <Time>2018-06-10T08:47:55.000Z</Time>
            <Position>
              <LatitudeDegrees>35.91657235287129878997802734375</LatitudeDegrees>
              <LongitudeDegrees>-5.36708121187984943389892578125</LongitudeDegrees>
            </Position>
            <AltitudeMeters>28.799999237060546875</AltitudeMeters>
            <DistanceMeters>6154.2561969995</DistanceMeters>
          </Trackpoint>
          <Trackpoint>
            <Time>2018-06-10T08:47:57.000Z</Time>
            <Position>
              <LatitudeDegrees>35.91658048331737518310546875</LatitudeDegrees>
              <LongitudeDegrees>-5.3670970536768436431884765625</LongitudeDegrees>
            </Position>
            <AltitudeMeters>28.6000003814697265625</AltitudeMeters>
            <DistanceMeters>6155.9454288238</DistanceMeters>
          </Trackpoint>
          <Trackpoint>
            <Time>2018-06-10T08:48:11.000Z</Time>
            <Position>
              <LatitudeDegrees>35.91670478694140911102294921875</LatitudeDegrees>
              <LongitudeDegrees>-5.36725354380905628204345703125</LongitudeDegrees>
            </Position>
            <AltitudeMeters>22</AltitudeMeters>
            <DistanceMeters>6175.7039028261</DistanceMeters>
          </Trackpoint>
          <Trackpoint>
            <Time>2018-06-10T08:48:15.000Z</Time>
            <Position>
              <LatitudeDegrees>35.91674837283790111541748046875</LatitudeDegrees>
              <LongitudeDegrees>-5.367308445274829864501953125</LongitudeDegrees>
            </Position>
            <AltitudeMeters>19.6000003814697265625</AltitudeMeters>
            <DistanceMeters>6182.6336897297</DistanceMeters>
          </Trackpoint>
          <Trackpoint>
            <Time>2018-06-10T08:48:20.000Z</Time>
            <Position>
              <LatitudeDegrees>35.91677251271903514862060546875</LatitudeDegrees>
              <LongitudeDegrees>-5.36738924682140350341796875</LongitudeDegrees>
            </Position>
            <AltitudeMeters>17.3999996185302734375</AltitudeMeters>
            <DistanceMeters>6190.3974362649</DistanceMeters>
          </Trackpoint>
          <Trackpoint>
            <Time>2018-06-10T08:48:22.000Z</Time>
            <Position>
              <LatitudeDegrees>35.91676731593906879425048828125</LatitudeDegrees>
              <LongitudeDegrees>-5.3674189187586307525634765625</LongitudeDegrees>
            </Position>
            <AltitudeMeters>17.200000762939453125</AltitudeMeters>
            <DistanceMeters>6193.1318289389</DistanceMeters>
          </Trackpoint>
          <Trackpoint>
            <Time>2018-06-10T08:48:25.000Z</Time>
            <Position>
              <LatitudeDegrees>35.9167596884071826934814453125</LatitudeDegrees>
              <LongitudeDegrees>-5.3674490936100482940673828125</LongitudeDegrees>
            </Position>
            <AltitudeMeters>17</AltitudeMeters>
            <DistanceMeters>6195.9794610512</DistanceMeters>
          </Trackpoint>
          <Trackpoint>
            <Time>2018-06-10T08:48:31.000Z</Time>
            <Position>
              <LatitudeDegrees>35.9167348779737949371337890625</LatitudeDegrees>
              <LongitudeDegrees>-5.36752042360603809356689453125</LongitudeDegrees>
            </Position>
            <AltitudeMeters>16.799999237060546875</AltitudeMeters>
            <DistanceMeters>6202.9766801044</DistanceMeters>
          </Trackpoint>
          <Trackpoint>
            <Time>2018-06-10T08:48:46.000Z</Time>
            <Position>
              <LatitudeDegrees>35.9166296012699604034423828125</LatitudeDegrees>
              <LongitudeDegrees>-5.36771639250218868255615234375</LongitudeDegrees>
            </Position>
            <AltitudeMeters>17.6000003814697265625</AltitudeMeters>
            <DistanceMeters>6224.1744543727</DistanceMeters>
          </Trackpoint>
          <Trackpoint>
            <Time>2018-06-10T08:49:02.000Z</Time>
            <Position>
              <LatitudeDegrees>35.9165511466562747955322265625</LatitudeDegrees>
              <LongitudeDegrees>-5.36791303195059299468994140625</LongitudeDegrees>
            </Position>
            <AltitudeMeters>18.200000762939453125</AltitudeMeters>
            <DistanceMeters>6243.9336138976</DistanceMeters>
          </Trackpoint>
          <Trackpoint>
            <Time>2018-06-10T08:49:08.000Z</Time>
            <Position>
              <LatitudeDegrees>35.91652256436645984649658203125</LatitudeDegrees>
              <LongitudeDegrees>-5.36798008717596530914306640625</LongitudeDegrees>
            </Position>
            <AltitudeMeters>18.6000003814697265625</AltitudeMeters>
            <DistanceMeters>6250.7636486639</DistanceMeters>
          </Trackpoint>
          <Trackpoint>
            <Time>2018-06-10T08:49:12.000Z</Time>
            <Position>
              <LatitudeDegrees>35.9164985083043575286865234375</LatitudeDegrees>
              <LongitudeDegrees>-5.3680240921676158905029296875</LongitudeDegrees>
            </Position>
            <AltitudeMeters>18.200000762939453125</AltitudeMeters>
            <DistanceMeters>6255.550015129</DistanceMeters>
          </Trackpoint>
          <Trackpoint>
            <Time>2018-06-10T08:49:16.000Z</Time>
            <Position>
              <LatitudeDegrees>35.91646791435778141021728515625</LatitudeDegrees>
              <LongitudeDegrees>-5.368082262575626373291015625</LongitudeDegrees>
            </Position>
            <AltitudeMeters>17.3999996185302734375</AltitudeMeters>
            <DistanceMeters>6261.8023107815</DistanceMeters>
          </Trackpoint>
          <Trackpoint>
            <Time>2018-06-10T08:49:25.000Z</Time>
            <Position>
              <LatitudeDegrees>35.9163835085928440093994140625</LatitudeDegrees>
              <LongitudeDegrees>-5.36819131113588809967041015625</LongitudeDegrees>
            </Position>
            <AltitudeMeters>17.200000762939453125</AltitudeMeters>
            <DistanceMeters>6275.3994349302</DistanceMeters>
          </Trackpoint>
          <Trackpoint>
            <Time>2018-06-10T08:49:26.000Z</Time>
            <Position>
              <LatitudeDegrees>35.916371606290340423583984375</LatitudeDegrees>
              <LongitudeDegrees>-5.36820120178163051605224609375</LongitudeDegrees>
            </Position>
            <AltitudeMeters>17.3999996185302734375</AltitudeMeters>
            <DistanceMeters>6277.0008535856</DistanceMeters>
          </Trackpoint>
          <Trackpoint>
            <Time>2018-06-10T08:49:33.000Z</Time>
            <Position>
              <LatitudeDegrees>35.91630756855010986328125</LatitudeDegrees>
              <LongitudeDegrees>-5.3682654909789562225341796875</LongitudeDegrees>
            </Position>
            <AltitudeMeters>18.6000003814697265625</AltitudeMeters>
            <DistanceMeters>6286.1870423693</DistanceMeters>
          </Trackpoint>
          <Trackpoint>
            <Time>2018-06-10T08:49:49.000Z</Time>
            <Position>
              <LatitudeDegrees>35.916133224964141845703125</LatitudeDegrees>
              <LongitudeDegrees>-5.36838292144238948822021484375</LongitudeDegrees>
            </Position>
            <AltitudeMeters>23.200000762939453125</AltitudeMeters>
            <DistanceMeters>6308.2913264841</DistanceMeters>
          </Trackpoint>
          <Trackpoint>
            <Time>2018-06-10T08:49:54.000Z</Time>
            <Position>
              <LatitudeDegrees>35.91606558300554752349853515625</LatitudeDegrees>
              <LongitudeDegrees>-5.3684247471392154693603515625</LongitudeDegrees>
            </Position>
            <AltitudeMeters>25.200000762939453125</AltitudeMeters>
            <DistanceMeters>6316.7117872932</DistanceMeters>
          </Trackpoint>
          <Trackpoint>
            <Time>2018-06-10T08:49:55.000Z</Time>
            <Position>
              <LatitudeDegrees>35.91605703346431255340576171875</LatitudeDegrees>
              <LongitudeDegrees>-5.3684354759752750396728515625</LongitudeDegrees>
            </Position>
            <AltitudeMeters>25.200000762939453125</AltitudeMeters>
            <DistanceMeters>6318.0690402522</DistanceMeters>
          </Trackpoint>
          <Trackpoint>
            <Time>2018-06-10T08:49:59.000Z</Time>
            <Position>
              <LatitudeDegrees>35.916029624640941619873046875</LatitudeDegrees>
              <LongitudeDegrees>-5.3684743680059909820556640625</LongitudeDegrees>
            </Position>
            <AltitudeMeters>25.3999996185302734375</AltitudeMeters>
            <DistanceMeters>6322.7156425353</DistanceMeters>
          </Trackpoint>
          <Trackpoint>
            <Time>2018-06-10T08:50:02.000Z</Time>
            <Position>
              <LatitudeDegrees>35.9160160459578037261962890625</LatitudeDegrees>
              <LongitudeDegrees>-5.36851267330348491668701171875</LongitudeDegrees>
            </Position>
            <AltitudeMeters>25</AltitudeMeters>
            <DistanceMeters>6326.4857009331</DistanceMeters>
          </Trackpoint>
          <Trackpoint>
            <Time>2018-06-10T08:50:11.000Z</Time>
            <Position>
              <LatitudeDegrees>35.91597304679453372955322265625</LatitudeDegrees>
              <LongitudeDegrees>-5.36859179846942424774169921875</LongitudeDegrees>
            </Position>
            <AltitudeMeters>24.799999237060546875</AltitudeMeters>
            <DistanceMeters>6335.0755062058</DistanceMeters>
          </Trackpoint>
          <Trackpoint>
            <Time>2018-06-10T08:50:25.000Z</Time>
            <Position>
              <LatitudeDegrees>35.91587749309837818145751953125</LatitudeDegrees>
              <LongitudeDegrees>-5.36875323392450809478759765625</LongitudeDegrees>
            </Position>
            <AltitudeMeters>24.799999237060546875</AltitudeMeters>
            <DistanceMeters>6353.1000475398</DistanceMeters>
          </Trackpoint>
          <Trackpoint>
            <Time>2018-06-10T08:50:28.000Z</Time>
            <Position>
              <LatitudeDegrees>35.9158537723124027252197265625</LatitudeDegrees>
              <LongitudeDegrees>-5.36878575570881366729736328125</LongitudeDegrees>
            </Position>
            <AltitudeMeters>25</AltitudeMeters>
            <DistanceMeters>6357.0445147679</DistanceMeters>
          </Trackpoint>
          <Trackpoint>
            <Time>2018-06-10T08:50:32.000Z</Time>
            <Position>
              <LatitudeDegrees>35.91581194661557674407958984375</LatitudeDegrees>
              <LongitudeDegrees>-5.36883034743368625640869140625</LongitudeDegrees>
            </Position>
            <AltitudeMeters>26</AltitudeMeters>
            <DistanceMeters>6363.1941456631</DistanceMeters>
          </Trackpoint>
          <Trackpoint>
            <Time>2018-06-10T08:50:36.000Z</Time>
            <Position>
              <LatitudeDegrees>35.91576131992042064666748046875</LatitudeDegrees>
              <LongitudeDegrees>-5.36886873655021190643310546875</LongitudeDegrees>
            </Position>
            <AltitudeMeters>27.799999237060546875</AltitudeMeters>
            <DistanceMeters>6369.8065302663</DistanceMeters>
          </Trackpoint>
          <Trackpoint>
            <Time>2018-06-10T08:50:38.000Z</Time>
            <Position>
              <LatitudeDegrees>35.9157431311905384063720703125</LatitudeDegrees>
              <LongitudeDegrees>-5.36889052949845790863037109375</LongitudeDegrees>
            </Position>
            <AltitudeMeters>28.3999996185302734375</AltitudeMeters>
            <DistanceMeters>6372.6270793879</DistanceMeters>
          </Trackpoint>
          <Trackpoint>
            <Time>2018-06-10T08:50:40.000Z</Time>
            <Position>
              <LatitudeDegrees>35.91572913341224193572998046875</LatitudeDegrees>
              <LongitudeDegrees>-5.36891081370413303375244140625</LongitudeDegrees>
            </Position>
            <AltitudeMeters>28.799999237060546875</AltitudeMeters>
            <DistanceMeters>6375.0310862357</DistanceMeters>
          </Trackpoint>
          <Trackpoint>
            <Time>2018-06-10T08:50:42.000Z</Time>
            <Position>
              <LatitudeDegrees>35.9157188236713409423828125</LatitudeDegrees>
              <LongitudeDegrees>-5.36893143318593502044677734375</LongitudeDegrees>
            </Position>
            <AltitudeMeters>29</AltitudeMeters>
            <DistanceMeters>6377.2146338908</DistanceMeters>
          </Trackpoint>
          <Trackpoint>
            <Time>2018-06-10T08:50:44.000Z</Time>
            <Position>
              <LatitudeDegrees>35.91570180840790271759033203125</LatitudeDegrees>
              <LongitudeDegrees>-5.36894786171615123748779296875</LongitudeDegrees>
            </Position>
            <AltitudeMeters>29.6000003814697265625</AltitudeMeters>
            <DistanceMeters>6379.6186407386</DistanceMeters>
          </Trackpoint>
          <Trackpoint>
            <Time>2018-06-10T08:50:45.000Z</Time>
            <Position>
              <LatitudeDegrees>35.91569133102893829345703125</LatitudeDegrees>
              <LongitudeDegrees>-5.36895624361932277679443359375</LongitudeDegrees>
            </Position>
            <AltitudeMeters>30</AltitudeMeters>
            <DistanceMeters>6381.0087617258</DistanceMeters>
          </Trackpoint>
          <Trackpoint>
            <Time>2018-06-10T08:50:50.000Z</Time>
            <Position>
              <LatitudeDegrees>35.9156422130763530731201171875</LatitudeDegrees>
              <LongitudeDegrees>-5.3689910285174846649169921875</LongitudeDegrees>
            </Position>
            <AltitudeMeters>31.799999237060546875</AltitudeMeters>
            <DistanceMeters>6387.3106881139</DistanceMeters>
          </Trackpoint>
          <Trackpoint>
            <Time>2018-06-10T08:50:51.000Z</Time>
            <Position>
              <LatitudeDegrees>35.91563156805932521820068359375</LatitudeDegrees>
              <LongitudeDegrees>-5.36899915896356105804443359375</LongitudeDegrees>
            </Position>
            <AltitudeMeters>32.200000762939453125</AltitudeMeters>
            <DistanceMeters>6388.7072898867</DistanceMeters>
          </Trackpoint>
          <Trackpoint>
            <Time>2018-06-10T08:50:53.000Z</Time>
            <Position>
              <LatitudeDegrees>35.9156142175197601318359375</LatitudeDegrees>
              <LongitudeDegrees>-5.36902581341564655303955078125</LongitudeDegrees>
            </Position>
            <AltitudeMeters>32.59999847412109375</AltitudeMeters>
            <DistanceMeters>6391.7923669638</DistanceMeters>
          </Trackpoint>
          <Trackpoint>
            <Time>2018-06-10T08:50:57.000Z</Time>
            <Position>
              <LatitudeDegrees>35.91561748646199703216552734375</LatitudeDegrees>
              <LongitudeDegrees>-5.369092114269733428955078125</LongitudeDegrees>
            </Position>
            <AltitudeMeters>31.799999237060546875</AltitudeMeters>
            <DistanceMeters>6397.7790499691</DistanceMeters>
          </Trackpoint>
          <Trackpoint>
            <Time>2018-06-10T08:50:59.000Z</Time>
            <Position>
              <LatitudeDegrees>35.91563165187835693359375</LatitudeDegrees>
              <LongitudeDegrees>-5.36911583505570888519287109375</LongitudeDegrees>
            </Position>
            <AltitudeMeters>31</AltitudeMeters>
            <DistanceMeters>6400.4330016692</DistanceMeters>
          </Trackpoint>
          <Trackpoint>
            <Time>2018-06-10T08:51:16.000Z</Time>
            <Position>
              <LatitudeDegrees>35.91571639291942119598388671875</LatitudeDegrees>
              <LongitudeDegrees>-5.36931431852281093597412109375</LongitudeDegrees>
            </Position>
            <AltitudeMeters>25</AltitudeMeters>
            <DistanceMeters>6420.6582943225</DistanceMeters>
          </Trackpoint>
          <Trackpoint>
            <Time>2018-06-10T08:51:18.000Z</Time>
            <Position>
              <LatitudeDegrees>35.9157226793467998504638671875</LatitudeDegrees>
              <LongitudeDegrees>-5.3693331778049468994140625</LongitudeDegrees>
            </Position>
            <AltitudeMeters>24.6000003814697265625</AltitudeMeters>
            <DistanceMeters>6422.4960235164</DistanceMeters>
          </Trackpoint>
          <Trackpoint>
            <Time>2018-06-10T08:51:19.000Z</Time>
            <Position>
              <LatitudeDegrees>35.915730893611907958984375</LatitudeDegrees>
              <LongitudeDegrees>-5.3693447448313236236572265625</LongitudeDegrees>
            </Position>
            <AltitudeMeters>24</AltitudeMeters>
            <DistanceMeters>6423.8828927541</DistanceMeters>
          </Trackpoint>
          <Trackpoint>
            <Time>2018-06-10T08:51:23.000Z</Time>
            <Position>
              <LatitudeDegrees>35.9157525189220905303955078125</LatitudeDegrees>
              <LongitudeDegrees>-5.3693879954516887664794921875</LongitudeDegrees>
            </Position>
            <AltitudeMeters>22.6000003814697265625</AltitudeMeters>
            <DistanceMeters>6428.4639294988</DistanceMeters>
          </Trackpoint>
          <Trackpoint>
            <Time>2018-06-10T08:51:29.000Z</Time>
            <Position>
              <LatitudeDegrees>35.9157481603324413299560546875</LatitudeDegrees>
              <LongitudeDegrees>-5.3694329224526882171630859375</LongitudeDegrees>
            </Position>
            <AltitudeMeters>22.3999996185302734375</AltitudeMeters>
            <DistanceMeters>6432.5434430588</DistanceMeters>
          </Trackpoint>
          <Trackpoint>
            <Time>2018-06-10T08:51:46.000Z</Time>
            <Position>
              <LatitudeDegrees>35.915774814784526824951171875</LatitudeDegrees>
              <LongitudeDegrees>-5.36965345032513141632080078125</LongitudeDegrees>
            </Position>
            <AltitudeMeters>21.200000762939453125</AltitudeMeters>
            <DistanceMeters>6452.6422109245</DistanceMeters>
          </Trackpoint>
          <Trackpoint>
            <Time>2018-06-10T08:51:48.000Z</Time>
            <Position>
              <LatitudeDegrees>35.91577741317451000213623046875</LatitudeDegrees>
              <LongitudeDegrees>-5.36968052387237548828125</LongitudeDegrees>
            </Position>
            <AltitudeMeters>20.799999237060546875</AltitudeMeters>
            <DistanceMeters>6455.0982424928</DistanceMeters>
          </Trackpoint>
          <Trackpoint>
            <Time>2018-06-10T08:51:52.000Z</Time>
            <Position>
              <LatitudeDegrees>35.91578663326799869537353515625</LatitudeDegrees>
              <LongitudeDegrees>-5.3697500936686992645263671875</LongitudeDegrees>
            </Position>
            <AltitudeMeters>19.6000003814697265625</AltitudeMeters>
            <DistanceMeters>6461.4529652922</DistanceMeters>
          </Trackpoint>
          <Trackpoint>
            <Time>2018-06-10T08:51:55.000Z</Time>
            <Position>
              <LatitudeDegrees>35.91577322222292423248291015625</LatitudeDegrees>
              <LongitudeDegrees>-5.3698023967444896697998046875</LongitudeDegrees>
            </Position>
            <AltitudeMeters>19.6000003814697265625</AltitudeMeters>
            <DistanceMeters>6466.3989209215</DistanceMeters>
          </Trackpoint>
          <Trackpoint>
            <Time>2018-06-10T08:52:08.000Z</Time>
            <Position>
              <LatitudeDegrees>35.915688984096050262451171875</LatitudeDegrees>
              <LongitudeDegrees>-5.37000565789639949798583984375</LongitudeDegrees>
            </Position>
            <AltitudeMeters>19.799999237060546875</AltitudeMeters>
            <DistanceMeters>6486.9807069485</DistanceMeters>
          </Trackpoint>
          <Trackpoint>
            <Time>2018-06-10T08:52:10.000Z</Time>
            <Position>
              <LatitudeDegrees>35.9156690351665019989013671875</LatitudeDegrees>
              <LongitudeDegrees>-5.3700307197868824005126953125</LongitudeDegrees>
            </Position>
            <AltitudeMeters>20.200000762939453125</AltitudeMeters>
            <DistanceMeters>6490.1481057124</DistanceMeters>
          </Trackpoint>
          <Trackpoint>
            <Time>2018-06-10T08:52:18.000Z</Time>
            <Position>
              <LatitudeDegrees>35.91560558415949344635009765625</LatitudeDegrees>
              <LongitudeDegrees>-5.370114706456661224365234375</LongitudeDegrees>
            </Position>
            <AltitudeMeters>21.200000762939453125</AltitudeMeters>
            <DistanceMeters>6500.5007854289</DistanceMeters>
          </Trackpoint>
          <Trackpoint>
            <Time>2018-06-10T08:52:22.000Z</Time>
            <Position>
              <LatitudeDegrees>35.91558278538286685943603515625</LatitudeDegrees>
              <LongitudeDegrees>-5.37015703506767749786376953125</LongitudeDegrees>
            </Position>
            <AltitudeMeters>21.3999996185302734375</AltitudeMeters>
            <DistanceMeters>6505.0818221736</DistanceMeters>
          </Trackpoint>
          <Trackpoint>
            <Time>2018-06-10T08:52:27.000Z</Time>
            <Position>
              <LatitudeDegrees>35.91555512510240077972412109375</LatitudeDegrees>
              <LongitudeDegrees>-5.370207913219928741455078125</LongitudeDegrees>
            </Position>
            <AltitudeMeters>21.6000003814697265625</AltitudeMeters>
            <DistanceMeters>6510.6064631918</DistanceMeters>
          </Trackpoint>
          <Trackpoint>
            <Time>2018-06-10T08:52:40.000Z</Time>
            <Position>
              <LatitudeDegrees>35.9154631756246089935302734375</LatitudeDegrees>
              <LongitudeDegrees>-5.37033422850072383880615234375</LongitudeDegrees>
            </Position>
            <AltitudeMeters>22.6000003814697265625</AltitudeMeters>
            <DistanceMeters>6525.9160897117</DistanceMeters>
          </Trackpoint>
          <Trackpoint>
            <Time>2018-06-10T08:52:42.000Z</Time>
            <Position>
              <LatitudeDegrees>35.915447585284709930419921875</LatitudeDegrees>
              <LongitudeDegrees>-5.37034847773611545562744140625</LongitudeDegrees>
            </Position>
            <AltitudeMeters>22.799999237060546875</AltitudeMeters>
            <DistanceMeters>6528.074681717</DistanceMeters>
          </Trackpoint>
          <Trackpoint>
            <Time>2018-06-10T08:52:59.000Z</Time>
            <Position>
              <LatitudeDegrees>35.91533417813479900360107421875</LatitudeDegrees>
              <LongitudeDegrees>-5.37053371779620647430419921875</LongitudeDegrees>
            </Position>
            <AltitudeMeters>23.3999996185302734375</AltitudeMeters>
            <DistanceMeters>6549.006459211</DistanceMeters>
          </Trackpoint>
          <Trackpoint>
            <Time>2018-06-10T08:53:02.000Z</Time>
            <Position>
              <LatitudeDegrees>35.91531448066234588623046875</LatitudeDegrees>
              <LongitudeDegrees>-5.3705748729407787322998046875</LongitudeDegrees>
            </Position>
            <AltitudeMeters>23.3999996185302734375</AltitudeMeters>
            <DistanceMeters>6553.3173636778</DistanceMeters>
          </Trackpoint>
          <Trackpoint>
            <Time>2018-06-10T08:53:04.000Z</Time>
            <Position>
              <LatitudeDegrees>35.915295369923114776611328125</LatitudeDegrees>
              <LongitudeDegrees>-5.37059314548969268798828125</LongitudeDegrees>
            </Position>
            <AltitudeMeters>23.799999237060546875</AltitudeMeters>
            <DistanceMeters>6556.006804369</DistanceMeters>
          </Trackpoint>
          <Trackpoint>
            <Time>2018-06-10T08:53:13.000Z</Time>
            <Position>
              <LatitudeDegrees>35.91521750204265117645263671875</LatitudeDegrees>
              <LongitudeDegrees>-5.370702780783176422119140625</LongitudeDegrees>
            </Position>
            <AltitudeMeters>24.3999996185302734375</AltitudeMeters>
            <DistanceMeters>6569.1514414001</DistanceMeters>
          </Trackpoint>
          <Trackpoint>
            <Time>2018-06-10T08:53:15.000Z</Time>
            <Position>
              <LatitudeDegrees>35.91520107351243495941162109375</LatitudeDegrees>
              <LongitudeDegrees>-5.37073270417749881744384765625</LongitudeDegrees>
            </Position>
            <AltitudeMeters>24.3999996185302734375</AltitudeMeters>
            <DistanceMeters>6572.4101788701</DistanceMeters>
          </Trackpoint>
          <Trackpoint>
            <Time>2018-06-10T08:53:21.000Z</Time>
            <Position>
              <LatitudeDegrees>35.9151527099311351776123046875</LatitudeDegrees>
              <LongitudeDegrees>-5.370803363621234893798828125</LongitudeDegrees>
            </Position>
            <AltitudeMeters>24.799999237060546875</AltitudeMeters>
            <DistanceMeters>6580.7498220741</DistanceMeters>
          </Trackpoint>
          <Trackpoint>
            <Time>2018-06-10T08:53:31.000Z</Time>
            <Position>
              <LatitudeDegrees>35.9151275642216205596923828125</LatitudeDegrees>
              <LongitudeDegrees>-5.3709939680993556976318359375</LongitudeDegrees>
            </Position>
            <AltitudeMeters>23.3999996185302734375</AltitudeMeters>
            <DistanceMeters>6598.1581351877</DistanceMeters>
          </Trackpoint>
          <Trackpoint>
            <Time>2018-06-10T08:53:45.000Z</Time>
            <Position>
              <LatitudeDegrees>35.91518514789640903472900390625</LatitudeDegrees>
              <LongitudeDegrees>-5.37119840271770954132080078125</LongitudeDegrees>
            </Position>
            <AltitudeMeters>21.3999996185302734375</AltitudeMeters>
            <DistanceMeters>6617.6689502032</DistanceMeters>
          </Trackpoint>
          <Trackpoint>
            <Time>2018-06-10T08:53:48.000Z</Time>
            <Position>
              <LatitudeDegrees>35.91519822366535663604736328125</LatitudeDegrees>
              <LongitudeDegrees>-5.37124400027096271514892578125</LongitudeDegrees>
            </Position>
            <AltitudeMeters>21</AltitudeMeters>
            <DistanceMeters>6622.0298378412</DistanceMeters>
          </Trackpoint>
          <Trackpoint>
            <Time>2018-06-10T08:53:54.000Z</Time>
            <Position>
              <LatitudeDegrees>35.91523074544966220855712890625</LatitudeDegrees>
              <LongitudeDegrees>-5.37134324200451374053955078125</LongitudeDegrees>
            </Position>
            <AltitudeMeters>20</AltitudeMeters>
            <DistanceMeters>6631.6796123614</DistanceMeters>
          </Trackpoint>
          <Trackpoint>
            <Time>2018-06-10T08:54:01.000Z</Time>
            <Position>
              <LatitudeDegrees>35.9152673743665218353271484375</LatitudeDegrees>
              <LongitudeDegrees>-5.3714392147958278656005859375</LongitudeDegrees>
            </Position>
            <AltitudeMeters>19.200000762939453125</AltitudeMeters>
            <DistanceMeters>6641.2433796265</DistanceMeters>
          </Trackpoint>
          <Trackpoint>
            <Time>2018-06-10T08:54:13.000Z</Time>
            <Position>
              <LatitudeDegrees>35.91533384285867214202880859375</LatitudeDegrees>
              <LongitudeDegrees>-5.37161917425692081451416015625</LongitudeDegrees>
            </Position>
            <AltitudeMeters>17.6000003814697265625</AltitudeMeters>
            <DistanceMeters>6659.0727312988</DistanceMeters>
          </Trackpoint>
          <Trackpoint>
            <Time>2018-06-10T08:54:17.000Z</Time>
            <Position>
              <LatitudeDegrees>35.9153538756072521209716796875</LatitudeDegrees>
              <LongitudeDegrees>-5.37167944014072418212890625</LongitudeDegrees>
            </Position>
            <AltitudeMeters>17.200000762939453125</AltitudeMeters>
            <DistanceMeters>6664.9444288271</DistanceMeters>
          </Trackpoint>
          <Trackpoint>
            <Time>2018-06-10T08:54:20.000Z</Time>
            <Position>
              <LatitudeDegrees>35.91536276042461395263671875</LatitudeDegrees>
              <LongitudeDegrees>-5.37172277458012104034423828125</LongitudeDegrees>
            </Position>
            <AltitudeMeters>17</AltitudeMeters>
            <DistanceMeters>6668.9749508184</DistanceMeters>
          </Trackpoint>
          <Trackpoint>
            <Time>2018-06-10T08:54:24.000Z</Time>
            <Position>
              <LatitudeDegrees>35.91538019478321075439453125</LatitudeDegrees>
              <LongitudeDegrees>-5.371785722672939300537109375</LongitudeDegrees>
            </Position>
            <AltitudeMeters>16.6000003814697265625</AltitudeMeters>
            <DistanceMeters>6674.9721830531</DistanceMeters>
          </Trackpoint>
          <Trackpoint>
            <Time>2018-06-10T08:54:26.000Z</Time>
            <Position>
              <LatitudeDegrees>35.91539218090474605560302734375</LatitudeDegrees>
              <LongitudeDegrees>-5.3718080185353755950927734375</LongitudeDegrees>
            </Position>
            <AltitudeMeters>16.3999996185302734375</AltitudeMeters>
            <DistanceMeters>6677.3818177045</DistanceMeters>
          </Trackpoint>
          <Trackpoint>
            <Time>2018-06-10T08:54:33.000Z</Time>
            <Position>
              <LatitudeDegrees>35.91542453505098819732666015625</LatitudeDegrees>
              <LongitudeDegrees>-5.3719143010675907135009765625</LongitudeDegrees>
            </Position>
            <AltitudeMeters>15.80000019073486328125</AltitudeMeters>
            <DistanceMeters>6687.6165080638</DistanceMeters>
          </Trackpoint>
          <Trackpoint>
            <Time>2018-06-10T08:54:36.000Z</Time>
            <Position>
              <LatitudeDegrees>35.91543811373412609100341796875</LatitudeDegrees>
              <LongitudeDegrees>-5.37196232937276363372802734375</LongitudeDegrees>
            </Position>
            <AltitudeMeters>15.3999996185302734375</AltitudeMeters>
            <DistanceMeters>6692.2024701262</DistanceMeters>
          </Trackpoint>
          <Trackpoint>
            <Time>2018-06-10T08:54:37.000Z</Time>
            <Position>
              <LatitudeDegrees>35.91544817201793193817138671875</LatitudeDegrees>
              <LongitudeDegrees>-5.3719743154942989349365234375</LongitudeDegrees>
            </Position>
            <AltitudeMeters>15.19999980926513671875</AltitudeMeters>
            <DistanceMeters>6693.7581244859</DistanceMeters>
          </Trackpoint>
          <Trackpoint>
            <Time>2018-06-10T08:54:42.000Z</Time>
            <Position>
              <LatitudeDegrees>35.9154933504760265350341796875</LatitudeDegrees>
              <LongitudeDegrees>-5.37203776650130748748779296875</LongitudeDegrees>
            </Position>
            <AltitudeMeters>14.3999996185302734375</AltitudeMeters>
            <DistanceMeters>6701.3733165993</DistanceMeters>
          </Trackpoint>
          <Trackpoint>
            <Time>2018-06-10T08:54:46.000Z</Time>
            <Position>
              <LatitudeDegrees>35.91551992110908031463623046875</LatitudeDegrees>
              <LongitudeDegrees>-5.37210616283118724822998046875</LongitudeDegrees>
            </Position>
            <AltitudeMeters>13.80000019073486328125</AltitudeMeters>
            <DistanceMeters>6708.2112794411</DistanceMeters>
          </Trackpoint>
          <Trackpoint>
            <Time>2018-06-10T08:54:48.000Z</Time>
            <Position>
              <LatitudeDegrees>35.91553651727735996246337890625</LatitudeDegrees>
              <LongitudeDegrees>-5.37213952280580997467041015625</LongitudeDegrees>
            </Position>
            <AltitudeMeters>13.6000003814697265625</AltitudeMeters>
            <DistanceMeters>6711.7413652039</DistanceMeters>
          </Trackpoint>
          <Trackpoint>
            <Time>2018-06-10T08:54:51.000Z</Time>
            <Position>
              <LatitudeDegrees>35.91555629856884479522705078125</LatitudeDegrees>
              <LongitudeDegrees>-5.37218369543552398681640625</LongitudeDegrees>
            </Position>
            <AltitudeMeters>13.19999980926513671875</AltitudeMeters>
            <DistanceMeters>6716.2907536474</DistanceMeters>
          </Trackpoint>
          <Trackpoint>
            <Time>2018-06-10T08:54:57.000Z</Time>
            <Position>
              <LatitudeDegrees>35.91559871099889278411865234375</LatitudeDegrees>
              <LongitudeDegrees>-5.37226374261081218719482421875</LongitudeDegrees>
            </Position>
            <AltitudeMeters>12.6000003814697265625</AltitudeMeters>
            <DistanceMeters>6724.9125625809</DistanceMeters>
          </Trackpoint>
          <Trackpoint>
            <Time>2018-06-10T08:55:11.000Z</Time>
            <Position>
              <LatitudeDegrees>35.9156732261180877685546875</LatitudeDegrees>
              <LongitudeDegrees>-5.3724705241620540618896484375</LongitudeDegrees>
            </Position>
            <AltitudeMeters>11.3999996185302734375</AltitudeMeters>
            <DistanceMeters>6745.3138930144</DistanceMeters>
          </Trackpoint>
          <Trackpoint>
            <Time>2018-06-10T08:55:18.000Z</Time>
            <Position>
              <LatitudeDegrees>35.9157290495932102203369140625</LatitudeDegrees>
              <LongitudeDegrees>-5.37255384027957916259765625</LongitudeDegrees>
            </Position>
            <AltitudeMeters>10.6000003814697265625</AltitudeMeters>
            <DistanceMeters>6755.0614293361</DistanceMeters>
          </Trackpoint>
          <Trackpoint>
            <Time>2018-06-10T08:55:19.000Z</Time>
            <Position>
              <LatitudeDegrees>35.91572913341224193572998046875</LatitudeDegrees>
              <LongitudeDegrees>-5.37256230600178241729736328125</LongitudeDegrees>
            </Position>
            <AltitudeMeters>10.6000003814697265625</AltitudeMeters>
            <DistanceMeters>6755.8275592003</DistanceMeters>
          </Trackpoint>
          <Trackpoint>
            <Time>2018-06-10T08:55:21.000Z</Time>
            <Position>
              <LatitudeDegrees>35.91572376899421215057373046875</LatitudeDegrees>
              <LongitudeDegrees>-5.37259030155837535858154296875</LongitudeDegrees>
            </Position>
            <AltitudeMeters>10.6000003814697265625</AltitudeMeters>
            <DistanceMeters>6758.4212837329</DistanceMeters>
          </Trackpoint>
          <Trackpoint>
            <Time>2018-06-10T08:55:27.000Z</Time>
            <Position>
              <LatitudeDegrees>35.9157106094062328338623046875</LatitudeDegrees>
              <LongitudeDegrees>-5.3726886212825775146484375</LongitudeDegrees>
            </Position>
            <AltitudeMeters>10.6000003814697265625</AltitudeMeters>
            <DistanceMeters>6767.404701411</DistanceMeters>
          </Trackpoint>
          <Trackpoint>
            <Time>2018-06-10T08:55:33.000Z</Time>
            <Position>
              <LatitudeDegrees>35.91571002267301082611083984375</LatitudeDegrees>
              <LongitudeDegrees>-5.37278451025485992431640625</LongitudeDegrees>
            </Position>
            <AltitudeMeters>10.6000003814697265625</AltitudeMeters>
            <DistanceMeters>6776.0484767724</DistanceMeters>
          </Trackpoint>
          <Trackpoint>
            <Time>2018-06-10T08:55:34.000Z</Time>
            <Position>
              <LatitudeDegrees>35.91570314951241016387939453125</LatitudeDegrees>
              <LongitudeDegrees>-5.372802950441837310791015625</LongitudeDegrees>
            </Position>
            <AltitudeMeters>10.6000003814697265625</AltitudeMeters>
            <DistanceMeters>6777.8788205545</DistanceMeters>
          </Trackpoint>
          <Trackpoint>
            <Time>2018-06-10T08:55:35.000Z</Time>
            <Position>
              <LatitudeDegrees>35.91569912619888782501220703125</LatitudeDegrees>
              <LongitudeDegrees>-5.37282206118106842041015625</LongitudeDegrees>
            </Position>
            <AltitudeMeters>10.6000003814697265625</AltitudeMeters>
            <DistanceMeters>6779.6591454776</DistanceMeters>
          </Trackpoint>
          <Trackpoint>
            <Time>2018-06-10T08:55:50.000Z</Time>
            <Position>
              <LatitudeDegrees>35.915699042379856109619140625</LatitudeDegrees>
              <LongitudeDegrees>-5.3730512224137783050537109375</LongitudeDegrees>
            </Position>
            <AltitudeMeters>10.3999996185302734375</AltitudeMeters>
            <DistanceMeters>6800.3160385712</DistanceMeters>
          </Trackpoint>
          <Trackpoint>
            <Time>2018-06-10T08:55:57.000Z</Time>
            <Position>
              <LatitudeDegrees>35.9157374314963817596435546875</LatitudeDegrees>
              <LongitudeDegrees>-5.37314585410058498382568359375</LongitudeDegrees>
            </Position>
            <AltitudeMeters>9.80000019073486328125</AltitudeMeters>
            <DistanceMeters>6809.8566449752</DistanceMeters>
          </Trackpoint>
          <Trackpoint>
            <Time>2018-06-10T08:56:06.000Z</Time>
            <Position>
              <LatitudeDegrees>35.91581513173878192901611328125</LatitudeDegrees>
              <LongitudeDegrees>-5.37325398065149784088134765625</LongitudeDegrees>
            </Position>
            <AltitudeMeters>8.6000003814697265625</AltitudeMeters>
            <DistanceMeters>6822.8867446409</DistanceMeters>
          </Trackpoint>
          <Trackpoint>
            <Time>2018-06-10T08:56:09.000Z</Time>
            <Position>
              <LatitudeDegrees>35.915843881666660308837890625</LatitudeDegrees>
              <LongitudeDegrees>-5.37328566424548625946044921875</LongitudeDegrees>
            </Position>
            <AltitudeMeters>8.19999980926513671875</AltitudeMeters>
            <DistanceMeters>6827.1766509095</DistanceMeters>
          </Trackpoint>
          <Trackpoint>
            <Time>2018-06-10T08:56:11.000Z</Time>
            <Position>
              <LatitudeDegrees>35.91586391441524028778076171875</LatitudeDegrees>
              <LongitudeDegrees>-5.37330754101276397705078125</LongitudeDegrees>
            </Position>
            <AltitudeMeters>8</AltitudeMeters>
            <DistanceMeters>6830.1544915815</DistanceMeters>
          </Trackpoint>
          <Trackpoint>
            <Time>2018-06-10T08:56:17.000Z</Time>
            <Position>
              <LatitudeDegrees>35.91591261327266693115234375</LatitudeDegrees>
              <LongitudeDegrees>-5.3733717463910579681396484375</LongitudeDegrees>
            </Position>
            <AltitudeMeters>7.400000095367431640625</AltitudeMeters>
            <DistanceMeters>6838.0833876082</DistanceMeters>
          </Trackpoint>
          <Trackpoint>
            <Time>2018-06-10T08:56:18.000Z</Time>
            <Position>
              <LatitudeDegrees>35.91592677868902683258056640625</LatitudeDegrees>
              <LongitudeDegrees>-5.3733781166374683380126953125</LongitudeDegrees>
            </Position>
            <AltitudeMeters>7.19999980926513671875</AltitudeMeters>
            <DistanceMeters>6839.7618940427</DistanceMeters>
          </Trackpoint>
          <Trackpoint>
            <Time>2018-06-10T08:56:21.000Z</Time>
            <Position>
              <LatitudeDegrees>35.91595527715981006622314453125</LatitudeDegrees>
              <LongitudeDegrees>-5.37340653128921985626220703125</LongitudeDegrees>
            </Position>
            <AltitudeMeters>6.80000019073486328125</AltitudeMeters>
            <DistanceMeters>6843.8403006935</DistanceMeters>
          </Trackpoint>
          <Trackpoint>
            <Time>2018-06-10T08:56:30.000Z</Time>
            <Position>
              <LatitudeDegrees>35.91599618084728717803955078125</LatitudeDegrees>
              <LongitudeDegrees>-5.37352169863879680633544921875</LongitudeDegrees>
            </Position>
            <AltitudeMeters>6</AltitudeMeters>
            <DistanceMeters>6855.1763942832</DistanceMeters>
          </Trackpoint>
          <Trackpoint>
            <Time>2018-06-10T08:56:32.000Z</Time>
            <Position>
              <LatitudeDegrees>35.916009843349456787109375</LatitudeDegrees>
              <LongitudeDegrees>-5.37355296313762664794921875</LongitudeDegrees>
            </Position>
            <AltitudeMeters>5.599999904632568359375</AltitudeMeters>
            <DistanceMeters>6858.3792315942</DistanceMeters>
          </Trackpoint>
          <Trackpoint>
            <Time>2018-06-10T08:56:33.000Z</Time>
            <Position>
              <LatitudeDegrees>35.9160187281668186187744140625</LatitudeDegrees>
              <LongitudeDegrees>-5.3735697269439697265625</LongitudeDegrees>
            </Position>
            <AltitudeMeters>5.400000095367431640625</AltitudeMeters>
            <DistanceMeters>6860.1872381408</DistanceMeters>
          </Trackpoint>
          <Trackpoint>
            <Time>2018-06-10T08:56:34.000Z</Time>
            <Position>
              <LatitudeDegrees>35.91603373177349567413330078125</LatitudeDegrees>
              <LongitudeDegrees>-5.37358154542744159698486328125</LongitudeDegrees>
            </Position>
            <AltitudeMeters>5.19999980926513671875</AltitudeMeters>
            <DistanceMeters>6862.1714541899</DistanceMeters>
          </Trackpoint>
          <Trackpoint>
            <Time>2018-06-10T08:56:38.000Z</Time>
            <Position>
              <LatitudeDegrees>35.91606608591973781585693359375</LatitudeDegrees>
              <LongitudeDegrees>-5.373631753027439117431640625</LongitudeDegrees>
            </Position>
            <AltitudeMeters>4.599999904632568359375</AltitudeMeters>
            <DistanceMeters>6867.9563883556</DistanceMeters>
          </Trackpoint>
          <Trackpoint>
            <Time>2018-06-10T08:56:42.000Z</Time>
            <Position>
              <LatitudeDegrees>35.91607530601322650909423828125</LatitudeDegrees>
              <LongitudeDegrees>-5.37368078716099262237548828125</LongitudeDegrees>
            </Position>
            <AltitudeMeters>4.400000095367431640625</AltitudeMeters>
            <DistanceMeters>6872.4938517761</DistanceMeters>
          </Trackpoint>
          <Trackpoint>
            <Time>2018-06-10T08:56:43.000Z</Time>
            <Position>
              <LatitudeDegrees>35.91606910340487957000732421875</LatitudeDegrees>
              <LongitudeDegrees>-5.3737019933760166168212890625</LongitudeDegrees>
            </Position>
            <AltitudeMeters>4.400000095367431640625</AltitudeMeters>
            <DistanceMeters>6874.5275122717</DistanceMeters>
          </Trackpoint>
          <Trackpoint>
            <Time>2018-06-10T08:56:45.000Z</Time>
            <Position>
              <LatitudeDegrees>35.91606943868100643157958984375</LatitudeDegrees>
              <LongitudeDegrees>-5.37373946048319339752197265625</LongitudeDegrees>
            </Position>
            <AltitudeMeters>4.19999980926513671875</AltitudeMeters>
            <DistanceMeters>6877.9059759203</DistanceMeters>
          </Trackpoint>
          <Trackpoint>
            <Time>2018-06-10T08:56:46.000Z</Time>
            <Position>
              <LatitudeDegrees>35.91607245616614818572998046875</LatitudeDegrees>
              <LongitudeDegrees>-5.373753793537616729736328125</LongitudeDegrees>
            </Position>
            <AltitudeMeters>4.19999980926513671875</AltitudeMeters>
            <DistanceMeters>6879.2431203164</DistanceMeters>
          </Trackpoint>
          <Trackpoint>
            <Time>2018-06-10T08:56:55.000Z</Time>
            <Position>
              <LatitudeDegrees>35.91608536429703235626220703125</LatitudeDegrees>
              <LongitudeDegrees>-5.3739117085933685302734375</LongitudeDegrees>
            </Position>
            <AltitudeMeters>3.599999904632568359375</AltitudeMeters>
            <DistanceMeters>6893.5502434664</DistanceMeters>
          </Trackpoint>
          <Trackpoint>
            <Time>2018-06-10T08:57:01.000Z</Time>
            <Position>
              <LatitudeDegrees>35.91608033515512943267822265625</LatitudeDegrees>
              <LongitudeDegrees>-5.373979099094867706298828125</LongitudeDegrees>
            </Position>
            <AltitudeMeters>3.599999904632568359375</AltitudeMeters>
            <DistanceMeters>6899.6497446714</DistanceMeters>
          </Trackpoint>
          <Trackpoint>
            <Time>2018-06-10T08:57:11.000Z</Time>
            <Position>
              <LatitudeDegrees>35.916071869432926177978515625</LatitudeDegrees>
              <LongitudeDegrees>-5.37413139827549457550048828125</LongitudeDegrees>
            </Position>
            <AltitudeMeters>3.599999904632568359375</AltitudeMeters>
            <DistanceMeters>6913.4105841454</DistanceMeters>
          </Trackpoint>
          <Trackpoint>
            <Time>2018-06-10T08:57:13.000Z</Time>
            <Position>
              <LatitudeDegrees>35.91607145033776760101318359375</LatitudeDegrees>
              <LongitudeDegrees>-5.37416358478367328643798828125</LongitudeDegrees>
            </Position>
            <AltitudeMeters>3.7999999523162841796875</AltitudeMeters>
            <DistanceMeters>6916.311623829</DistanceMeters>
          </Trackpoint>
          <Trackpoint>
            <Time>2018-06-10T08:57:19.000Z</Time>
            <Position>
              <LatitudeDegrees>35.91606860049068927764892578125</LatitudeDegrees>
              <LongitudeDegrees>-5.37428679876029491424560546875</LongitudeDegrees>
            </Position>
            <AltitudeMeters>4.599999904632568359375</AltitudeMeters>
            <DistanceMeters>6927.4224372585</DistanceMeters>
          </Trackpoint>
          <Trackpoint>
            <Time>2018-06-10T08:57:21.000Z</Time>
            <Position>
              <LatitudeDegrees>35.9160757251083850860595703125</LatitudeDegrees>
              <LongitudeDegrees>-5.3743249364197254180908203125</LongitudeDegrees>
            </Position>
            <AltitudeMeters>4.80000019073486328125</AltitudeMeters>
            <DistanceMeters>6930.9512437729</DistanceMeters>
          </Trackpoint>
          <Trackpoint>
            <Time>2018-06-10T08:57:34.000Z</Time>
            <Position>
              <LatitudeDegrees>35.91604731045663356781005859375</LatitudeDegrees>
              <LongitudeDegrees>-5.3745442070066928863525390625</LongitudeDegrees>
            </Position>
            <AltitudeMeters>6.599999904632568359375</AltitudeMeters>
            <DistanceMeters>6950.9680747383</DistanceMeters>
          </Trackpoint>
          <Trackpoint>
            <Time>2018-06-10T08:57:43.000Z</Time>
            <Position>
              <LatitudeDegrees>35.9160240925848484039306640625</LatitudeDegrees>
              <LongitudeDegrees>-5.37470371462404727935791015625</LongitudeDegrees>
            </Position>
            <AltitudeMeters>9</AltitudeMeters>
            <DistanceMeters>6965.5768675247</DistanceMeters>
          </Trackpoint>
          <Trackpoint>
            <Time>2018-06-10T08:57:55.000Z</Time>
            <Position>
              <LatitudeDegrees>35.91600422747433185577392578125</LatitudeDegrees>
              <LongitudeDegrees>-5.37493170239031314849853515625</LongitudeDegrees>
            </Position>
            <AltitudeMeters>9</AltitudeMeters>
            <DistanceMeters>6986.2464339622</DistanceMeters>
          </Trackpoint>
          <Trackpoint>
            <Time>2018-06-10T08:58:00.000Z</Time>
            <Position>
              <LatitudeDegrees>35.91599986888468265533447265625</LatitudeDegrees>
              <LongitudeDegrees>-5.3750169463455677032470703125</LongitudeDegrees>
            </Position>
            <AltitudeMeters>9</AltitudeMeters>
            <DistanceMeters>6993.9465301909</DistanceMeters>
          </Trackpoint>
          <Trackpoint>
            <Time>2018-06-10T08:58:09.000Z</Time>
            <Position>
              <LatitudeDegrees>35.91599198989570140838623046875</LatitudeDegrees>
              <LongitudeDegrees>-5.37514091469347476959228515625</LongitudeDegrees>
            </Position>
            <AltitudeMeters>9</AltitudeMeters>
            <DistanceMeters>7005.1548495783</DistanceMeters>
          </Trackpoint>
          <Trackpoint>
            <Time>2018-06-10T08:58:13.000Z</Time>
            <Position>
              <LatitudeDegrees>35.915984697639942169189453125</LatitudeDegrees>
              <LongitudeDegrees>-5.3752097301185131072998046875</LongitudeDegrees>
            </Position>
            <AltitudeMeters>9</AltitudeMeters>
            <DistanceMeters>7011.4107548931</DistanceMeters>
          </Trackpoint>
          <Trackpoint>
            <Time>2018-06-10T08:58:19.000Z</Time>
            <Position>
              <LatitudeDegrees>35.91597254388034343719482421875</LatitudeDegrees>
              <LongitudeDegrees>-5.375302098691463470458984375</LongitudeDegrees>
            </Position>
            <AltitudeMeters>9</AltitudeMeters>
            <DistanceMeters>7019.8462158988</DistanceMeters>
          </Trackpoint>
          <Trackpoint>
            <Time>2018-06-10T08:58:20.000Z</Time>
            <Position>
              <LatitudeDegrees>35.91597237624228000640869140625</LatitudeDegrees>
              <LongitudeDegrees>-5.375318862497806549072265625</LongitudeDegrees>
            </Position>
            <AltitudeMeters>9</AltitudeMeters>
            <DistanceMeters>7021.3577083203</DistanceMeters>
          </Trackpoint>
          <Trackpoint>
            <Time>2018-06-10T08:58:29.000Z</Time>
            <Position>
              <LatitudeDegrees>35.91595745645463466644287109375</LatitudeDegrees>
              <LongitudeDegrees>-5.37544886581599712371826171875</LongitudeDegrees>
            </Position>
            <AltitudeMeters>9</AltitudeMeters>
            <DistanceMeters>7033.1930176022</DistanceMeters>
          </Trackpoint>
          <Trackpoint>
            <Time>2018-06-10T08:58:32.000Z</Time>
            <Position>
              <LatitudeDegrees>35.91596751473844051361083984375</LatitudeDegrees>
              <LongitudeDegrees>-5.3755000792443752288818359375</LongitudeDegrees>
            </Position>
            <AltitudeMeters>9</AltitudeMeters>
            <DistanceMeters>7037.9424524062</DistanceMeters>
          </Trackpoint>
          <Trackpoint>
            <Time>2018-06-10T08:58:45.000Z</Time>
            <Position>
              <LatitudeDegrees>35.91587648726999759674072265625</LatitudeDegrees>
              <LongitudeDegrees>-5.37572111003100872039794921875</LongitudeDegrees>
            </Position>
            <AltitudeMeters>9</AltitudeMeters>
            <DistanceMeters>7060.2945455854</DistanceMeters>
          </Trackpoint>
          <Trackpoint>
            <Time>2018-06-10T08:58:51.000Z</Time>
            <Position>
              <LatitudeDegrees>35.9158594720065593719482421875</LatitudeDegrees>
              <LongitudeDegrees>-5.3758192621171474456787109375</LongitudeDegrees>
            </Position>
            <AltitudeMeters>9</AltitudeMeters>
            <DistanceMeters>7069.3420669567</DistanceMeters>
          </Trackpoint>
          <Trackpoint>
            <Time>2018-06-10T08:58:54.000Z</Time>
            <Position>
              <LatitudeDegrees>35.91586743481457233428955078125</LatitudeDegrees>
              <LongitudeDegrees>-5.37586645223200321197509765625</LongitudeDegrees>
            </Position>
            <AltitudeMeters>9</AltitudeMeters>
            <DistanceMeters>7073.6873966156</DistanceMeters>
          </Trackpoint>
          <Trackpoint>
            <Time>2018-06-10T08:59:07.000Z</Time>
            <Position>
              <LatitudeDegrees>35.915841870009899139404296875</LatitudeDegrees>
              <LongitudeDegrees>-5.3760787658393383026123046875</LongitudeDegrees>
            </Position>
            <AltitudeMeters>9</AltitudeMeters>
            <DistanceMeters>7093.0360117912</DistanceMeters>
          </Trackpoint>
          <Trackpoint>
            <Time>2018-06-10T08:59:21.000Z</Time>
            <Position>
              <LatitudeDegrees>35.91580121777951717376708984375</LatitudeDegrees>
              <LongitudeDegrees>-5.37630817852914333343505859375</LongitudeDegrees>
            </Position>
            <AltitudeMeters>9</AltitudeMeters>
            <DistanceMeters>7114.2047988025</DistanceMeters>
          </Trackpoint>
          <Trackpoint>
            <Time>2018-06-10T08:59:22.000Z</Time>
            <Position>
              <LatitudeDegrees>35.9157991223037242889404296875</LatitudeDegrees>
              <LongitudeDegrees>-5.37632477469742298126220703125</LongitudeDegrees>
            </Position>
            <AltitudeMeters>8.19999980926513671875</AltitudeMeters>
            <DistanceMeters>7115.7192754173</DistanceMeters>
          </Trackpoint>
          <Trackpoint>
            <Time>2018-06-10T08:59:34.000Z</Time>
            <Position>
              <LatitudeDegrees>35.91574857942759990692138671875</LatitudeDegrees>
              <LongitudeDegrees>-5.37651889957487583160400390625</LongitudeDegrees>
            </Position>
            <AltitudeMeters>8.19999980926513671875</AltitudeMeters>
            <DistanceMeters>7134.1000066344</DistanceMeters>
          </Trackpoint>
          <Trackpoint>
            <Time>2018-06-10T08:59:37.000Z</Time>
            <Position>
              <LatitudeDegrees>35.91573449783027172088623046875</LatitudeDegrees>
              <LongitudeDegrees>-5.37657287903130054473876953125</LongitudeDegrees>
            </Position>
            <AltitudeMeters>8</AltitudeMeters>
            <DistanceMeters>7139.2120552676</DistanceMeters>
          </Trackpoint>
          <Trackpoint>
            <Time>2018-06-10T08:59:40.000Z</Time>
            <Position>
              <LatitudeDegrees>35.9157267026603221893310546875</LatitudeDegrees>
              <LongitudeDegrees>-5.376625768840312957763671875</LongitudeDegrees>
            </Position>
            <AltitudeMeters>8</AltitudeMeters>
            <DistanceMeters>7144.0565540733</DistanceMeters>
          </Trackpoint>
          <Trackpoint>
            <Time>2018-06-10T08:59:43.000Z</Time>
            <Position>
              <LatitudeDegrees>35.91572628356516361236572265625</LatitudeDegrees>
              <LongitudeDegrees>-5.37667178548872470855712890625</LongitudeDegrees>
            </Position>
            <AltitudeMeters>8</AltitudeMeters>
            <DistanceMeters>7148.2052075539</DistanceMeters>
          </Trackpoint>
          <Trackpoint>
            <Time>2018-06-10T08:59:57.000Z</Time>
            <Position>
              <LatitudeDegrees>35.91568320058286190032958984375</LatitudeDegrees>
              <LongitudeDegrees>-5.3768901340663433074951171875</LongitudeDegrees>
            </Position>
            <AltitudeMeters>7.80000019073486328125</AltitudeMeters>
            <DistanceMeters>7168.4632895003</DistanceMeters>
          </Trackpoint>
          <Trackpoint>
            <Time>2018-06-10T09:00:03.000Z</Time>
            <Position>
              <LatitudeDegrees>35.9156891517341136932373046875</LatitudeDegrees>
              <LongitudeDegrees>-5.37698057480156421661376953125</LongitudeDegrees>
            </Position>
            <AltitudeMeters>7.80000019073486328125</AltitudeMeters>
            <DistanceMeters>7176.6422140199</DistanceMeters>
          </Trackpoint>
          <Trackpoint>
            <Time>2018-06-10T09:00:11.000Z</Time>
            <Position>
              <LatitudeDegrees>35.91568722389638423919677734375</LatitudeDegrees>
              <LongitudeDegrees>-5.37711703218519687652587890625</LongitudeDegrees>
            </Position>
            <AltitudeMeters>7.19999980926513671875</AltitudeMeters>
            <DistanceMeters>7188.9444122463</DistanceMeters>
          </Trackpoint>
          <Trackpoint>
            <Time>2018-06-10T09:00:13.000Z</Time>
            <Position>
              <LatitudeDegrees>35.91568621806800365447998046875</LatitudeDegrees>
              <LongitudeDegrees>-5.37714636884629726409912109375</LongitudeDegrees>
            </Position>
            <AltitudeMeters>7.19999980926513671875</AltitudeMeters>
            <DistanceMeters>7191.5915501952</DistanceMeters>
          </Trackpoint>
          <Trackpoint>
            <Time>2018-06-10T09:00:27.000Z</Time>
            <Position>
              <LatitudeDegrees>35.91562972404062747955322265625</LatitudeDegrees>
              <LongitudeDegrees>-5.37737242877483367919921875</LongitudeDegrees>
            </Position>
            <AltitudeMeters>7.599999904632568359375</AltitudeMeters>
            <DistanceMeters>7212.9169507745</DistanceMeters>
          </Trackpoint>
          <Trackpoint>
            <Time>2018-06-10T09:00:37.000Z</Time>
            <Position>
              <LatitudeDegrees>35.91566677205264568328857421875</LatitudeDegrees>
              <LongitudeDegrees>-5.37751969881355762481689453125</LongitudeDegrees>
            </Position>
            <AltitudeMeters>7.19999980926513671875</AltitudeMeters>
            <DistanceMeters>7226.8175110419</DistanceMeters>
          </Trackpoint>
          <Trackpoint>
            <Time>2018-06-10T09:00:38.000Z</Time>
            <Position>
              <LatitudeDegrees>35.9156683646142482757568359375</LatitudeDegrees>
              <LongitudeDegrees>-5.37753646261990070343017578125</LongitudeDegrees>
            </Position>
            <AltitudeMeters>7.19999980926513671875</AltitudeMeters>
            <DistanceMeters>7228.3438660867</DistanceMeters>
          </Trackpoint>
          <Trackpoint>
            <Time>2018-06-10T09:00:41.000Z</Time>
            <Position>
              <LatitudeDegrees>35.91566073708236217498779296875</LatitudeDegrees>
              <LongitudeDegrees>-5.37758708931505680084228515625</LongitudeDegrees>
            </Position>
            <AltitudeMeters>7.400000095367431640625</AltitudeMeters>
            <DistanceMeters>7232.9856073973</DistanceMeters>
          </Trackpoint>
          <Trackpoint>
            <Time>2018-06-10T09:00:43.000Z</Time>
            <Position>
              <LatitudeDegrees>35.91565922833979129791259765625</LatitudeDegrees>
              <LongitudeDegrees>-5.37761072628200054168701171875</LongitudeDegrees>
            </Position>
            <AltitudeMeters>7.400000095367431640625</AltitudeMeters>
            <DistanceMeters>7235.1231804793</DistanceMeters>
          </Trackpoint>
          <Trackpoint>
            <Time>2018-06-10T09:00:45.000Z</Time>
            <Position>
              <LatitudeDegrees>35.91565771959722042083740234375</LatitudeDegrees>
              <LongitudeDegrees>-5.37762329913675785064697265625</LongitudeDegrees>
            </Position>
            <AltitudeMeters>7.400000095367431640625</AltitudeMeters>
            <DistanceMeters>7236.2635010517</DistanceMeters>
          </Trackpoint>
          <Trackpoint>
            <Time>2018-06-10T09:00:48.000Z</Time>
            <Position>
              <LatitudeDegrees>35.91565201990306377410888671875</LatitudeDegrees>
              <LongitudeDegrees>-5.37766973488032817840576171875</LongitudeDegrees>
            </Position>
            <AltitudeMeters>7.400000095367431640625</AltitudeMeters>
            <DistanceMeters>7240.496191882</DistanceMeters>
          </Trackpoint>
          <Trackpoint>
            <Time>2018-06-10T09:00:49.000Z</Time>
            <Position>
              <LatitudeDegrees>35.91565218754112720489501953125</LatitudeDegrees>
              <LongitudeDegrees>-5.37768683396279811859130859375</LongitudeDegrees>
            </Position>
            <AltitudeMeters>7.400000095367431640625</AltitudeMeters>
            <DistanceMeters>7242.040193236</DistanceMeters>
          </Trackpoint>
          <Trackpoint>
            <Time>2018-06-10T09:00:57.000Z</Time>
            <Position>
              <LatitudeDegrees>35.91563592664897441864013671875</LatitudeDegrees>
              <LongitudeDegrees>-5.377810299396514892578125</LongitudeDegrees>
            </Position>
            <AltitudeMeters>7.599999904632568359375</AltitudeMeters>
            <DistanceMeters>7253.3155844157</DistanceMeters>
          </Trackpoint>
          <Trackpoint>
            <Time>2018-06-10T09:01:10.000Z</Time>
            <Position>
              <LatitudeDegrees>35.91562117449939250946044921875</LatitudeDegrees>
              <LongitudeDegrees>-5.378009788691997528076171875</LongitudeDegrees>
            </Position>
            <AltitudeMeters>7.19999980926513671875</AltitudeMeters>
            <DistanceMeters>7271.3726605976</DistanceMeters>
          </Trackpoint>
          <Trackpoint>
            <Time>2018-06-10T09:01:14.000Z</Time>
            <Position>
              <LatitudeDegrees>35.91561346314847469329833984375</LatitudeDegrees>
              <LongitudeDegrees>-5.37807307206094264984130859375</LongitudeDegrees>
            </Position>
            <AltitudeMeters>7</AltitudeMeters>
            <DistanceMeters>7277.141964002</DistanceMeters>
          </Trackpoint>
          <Trackpoint>
            <Time>2018-06-10T09:01:19.000Z</Time>
            <Position>
              <LatitudeDegrees>35.91558194719254970550537109375</LatitudeDegrees>
              <LongitudeDegrees>-5.37814314477145671844482421875</LongitudeDegrees>
            </Position>
            <AltitudeMeters>6.80000019073486328125</AltitudeMeters>
            <DistanceMeters>7284.3664945643</DistanceMeters>
          </Trackpoint>
          <Trackpoint>
            <Time>2018-06-10T09:01:32.000Z</Time>
            <Position>
              <LatitudeDegrees>35.91544548980891704559326171875</LatitudeDegrees>
              <LongitudeDegrees>-5.37831665016710758209228515625</LongitudeDegrees>
            </Position>
            <AltitudeMeters>6.80000019073486328125</AltitudeMeters>
            <DistanceMeters>7306.1676193874</DistanceMeters>
          </Trackpoint>
          <Trackpoint>
            <Time>2018-06-10T09:01:44.000Z</Time>
            <Position>
              <LatitudeDegrees>35.91529645957052707672119140625</LatitudeDegrees>
              <LongitudeDegrees>-5.378465764224529266357421875</LongitudeDegrees>
            </Position>
            <AltitudeMeters>7</AltitudeMeters>
            <DistanceMeters>7327.5175654936</DistanceMeters>
          </Trackpoint>
          <Trackpoint>
            <Time>2018-06-10T09:01:55.000Z</Time>
            <Position>
              <LatitudeDegrees>35.915164947509765625</LatitudeDegrees>
              <LongitudeDegrees>-5.37854430265724658966064453125</LongitudeDegrees>
            </Position>
            <AltitudeMeters>7.599999904632568359375</AltitudeMeters>
            <DistanceMeters>7343.7771333861</DistanceMeters>
          </Trackpoint>
          <Trackpoint>
            <Time>2018-06-10T09:01:58.000Z</Time>
            <Position>
              <LatitudeDegrees>35.91512739658355712890625</LatitudeDegrees>
              <LongitudeDegrees>-5.37855184637010097503662109375</LongitudeDegrees>
            </Position>
            <AltitudeMeters>7.80000019073486328125</AltitudeMeters>
            <DistanceMeters>7348.0119570917</DistanceMeters>
          </Trackpoint>
          <Trackpoint>
            <Time>2018-06-10T09:02:00.000Z</Time>
            <Position>
              <LatitudeDegrees>35.9151024185121059417724609375</LatitudeDegrees>
              <LongitudeDegrees>-5.37856508977711200714111328125</LongitudeDegrees>
            </Position>
            <AltitudeMeters>7.80000019073486328125</AltitudeMeters>
            <DistanceMeters>7351.0379275995</DistanceMeters>
          </Trackpoint>
          <Trackpoint>
            <Time>2018-06-10T09:02:02.000Z</Time>
            <Position>
              <LatitudeDegrees>35.91507853008806705474853515625</LatitudeDegrees>
              <LongitudeDegrees>-5.3785782493650913238525390625</LongitudeDegrees>
            </Position>
            <AltitudeMeters>8</AltitudeMeters>
            <DistanceMeters>7353.9513914928</DistanceMeters>
          </Trackpoint>
          <Trackpoint>
            <Time>2018-06-10T09:02:04.000Z</Time>
            <Position>
              <LatitudeDegrees>35.9150551445782184600830078125</LatitudeDegrees>
              <LongitudeDegrees>-5.3785990364849567413330078125</LongitudeDegrees>
            </Position>
            <AltitudeMeters>8</AltitudeMeters>
            <DistanceMeters>7357.1598626468</DistanceMeters>
          </Trackpoint>
          <Trackpoint>
            <Time>2018-06-10T09:02:15.000Z</Time>
            <Position>
              <LatitudeDegrees>35.91494433581829071044921875</LatitudeDegrees>
              <LongitudeDegrees>-5.37869182415306568145751953125</LongitudeDegrees>
            </Position>
            <AltitudeMeters>8.19999980926513671875</AltitudeMeters>
            <DistanceMeters>7372.0617967464</DistanceMeters>
          </Trackpoint>
          <Trackpoint>
            <Time>2018-06-10T09:02:17.000Z</Time>
            <Position>
              <LatitudeDegrees>35.914924554526805877685546875</LatitudeDegrees>
              <LongitudeDegrees>-5.3787043131887912750244140625</LongitudeDegrees>
            </Position>
            <AltitudeMeters>8.19999980926513671875</AltitudeMeters>
            <DistanceMeters>7374.5343180816</DistanceMeters>
          </Trackpoint>
          <Trackpoint>
            <Time>2018-06-10T09:02:24.000Z</Time>
            <Position>
              <LatitudeDegrees>35.9148647077381610870361328125</LatitudeDegrees>
              <LongitudeDegrees>-5.37875376641750335693359375</LongitudeDegrees>
            </Position>
            <AltitudeMeters>8.3999996185302734375</AltitudeMeters>
            <DistanceMeters>7382.5493017885</DistanceMeters>
          </Trackpoint>
          <Trackpoint>
            <Time>2018-06-10T09:02:28.000Z</Time>
            <Position>
              <LatitudeDegrees>35.914825312793254852294921875</LatitudeDegrees>
              <LongitudeDegrees>-5.3787717036902904510498046875</LongitudeDegrees>
            </Position>
            <AltitudeMeters>8.6000003814697265625</AltitudeMeters>
            <DistanceMeters>7387.2220659428</DistanceMeters>
          </Trackpoint>
          <Trackpoint>
            <Time>2018-06-10T09:02:32.000Z</Time>
            <Position>
              <LatitudeDegrees>35.91478767804801464080810546875</LatitudeDegrees>
              <LongitudeDegrees>-5.3787879645824432373046875</LongitudeDegrees>
            </Position>
            <AltitudeMeters>8.80000019073486328125</AltitudeMeters>
            <DistanceMeters>7391.6609426926</DistanceMeters>
          </Trackpoint>
          <Trackpoint>
            <Time>2018-06-10T09:02:33.000Z</Time>
            <Position>
              <LatitudeDegrees>35.91477694921195507049560546875</LatitudeDegrees>
              <LongitudeDegrees>-5.37879207171499729156494140625</LongitudeDegrees>
            </Position>
            <AltitudeMeters>8.80000019073486328125</AltitudeMeters>
            <DistanceMeters>7392.9108239769</DistanceMeters>
          </Trackpoint>
          <Trackpoint>
            <Time>2018-06-10T09:02:34.000Z</Time>
            <Position>
              <LatitudeDegrees>35.9147668071091175079345703125</LatitudeDegrees>
              <LongitudeDegrees>-5.3787968493998050689697265625</LongitudeDegrees>
            </Position>
            <AltitudeMeters>8.80000019073486328125</AltitudeMeters>
            <DistanceMeters>7394.1165778106</DistanceMeters>
          </Trackpoint>
          <Trackpoint>
            <Time>2018-06-10T09:02:43.000Z</Time>
            <Position>
              <LatitudeDegrees>35.9146873466670513153076171875</LatitudeDegrees>
              <LongitudeDegrees>-5.37886717356741428375244140625</LongitudeDegrees>
            </Position>
            <AltitudeMeters>8.80000019073486328125</AltitudeMeters>
            <DistanceMeters>7404.9978627684</DistanceMeters>
          </Trackpoint>
          <Trackpoint>
            <Time>2018-06-10T09:02:47.000Z</Time>
            <Position>
              <LatitudeDegrees>35.9146486222743988037109375</LatitudeDegrees>
              <LongitudeDegrees>-5.37888393737375736236572265625</LongitudeDegrees>
            </Position>
            <AltitudeMeters>9</AltitudeMeters>
            <DistanceMeters>7409.5650803662</DistanceMeters>
          </Trackpoint>
          <Trackpoint>
            <Time>2018-06-10T09:02:51.000Z</Time>
            <Position>
              <LatitudeDegrees>35.9146186150610446929931640625</LatitudeDegrees>
              <LongitudeDegrees>-5.378910340368747711181640625</LongitudeDegrees>
            </Position>
            <AltitudeMeters>9</AltitudeMeters>
            <DistanceMeters>7413.6655684273</DistanceMeters>
          </Trackpoint>
          <Trackpoint>
            <Time>2018-06-10T09:02:55.000Z</Time>
            <Position>
              <LatitudeDegrees>35.91459036804735660552978515625</LatitudeDegrees>
              <LongitudeDegrees>-5.37893087603151798248291015625</LongitudeDegrees>
            </Position>
            <AltitudeMeters>9</AltitudeMeters>
            <DistanceMeters>7417.3139012901</DistanceMeters>
          </Trackpoint>
          <Trackpoint>
            <Time>2018-06-10T09:02:57.000Z</Time>
            <Position>
              <LatitudeDegrees>35.91457025147974491119384765625</LatitudeDegrees>
              <LongitudeDegrees>-5.3789410181343555450439453125</LongitudeDegrees>
            </Position>
            <AltitudeMeters>9.19999980926513671875</AltitudeMeters>
            <DistanceMeters>7419.7328865186</DistanceMeters>
          </Trackpoint>
          <Trackpoint>
            <Time>2018-06-10T09:03:03.000Z</Time>
            <Position>
              <LatitudeDegrees>35.914512835443019866943359375</LatitudeDegrees>
              <LongitudeDegrees>-5.378961972892284393310546875</LongitudeDegrees>
            </Position>
            <AltitudeMeters>9.80000019073486328125</AltitudeMeters>
            <DistanceMeters>7426.3969630452</DistanceMeters>
          </Trackpoint>
          <Trackpoint>
            <Time>2018-06-10T09:03:11.000Z</Time>
            <Position>
              <LatitudeDegrees>35.91443647630512714385986328125</LatitudeDegrees>
              <LongitudeDegrees>-5.378968007862567901611328125</LongitudeDegrees>
            </Position>
            <AltitudeMeters>10.80000019073486328125</AltitudeMeters>
            <DistanceMeters>7434.9139228357</DistanceMeters>
          </Trackpoint>
          <Trackpoint>
            <Time>2018-06-10T09:03:12.000Z</Time>
            <Position>
              <LatitudeDegrees>35.9144246578216552734375</LatitudeDegrees>
              <LongitudeDegrees>-5.37896641530096530914306640625</LongitudeDegrees>
            </Position>
            <AltitudeMeters>11</AltitudeMeters>
            <DistanceMeters>7436.2340761426</DistanceMeters>
          </Trackpoint>
          <Trackpoint>
            <Time>2018-06-10T09:03:16.000Z</Time>
            <Position>
              <LatitudeDegrees>35.91438216157257556915283203125</LatitudeDegrees>
              <LongitudeDegrees>-5.378958620131015777587890625</LongitudeDegrees>
            </Position>
            <AltitudeMeters>12</AltitudeMeters>
            <DistanceMeters>7441.0138348607</DistanceMeters>
          </Trackpoint>
          <Trackpoint>
            <Time>2018-06-10T09:03:19.000Z</Time>
            <Position>
              <LatitudeDegrees>35.914352238178253173828125</LatitudeDegrees>
              <LongitudeDegrees>-5.37893003784120082855224609375</LongitudeDegrees>
            </Position>
            <AltitudeMeters>13</AltitudeMeters>
            <DistanceMeters>7445.2240652653</DistanceMeters>
          </Trackpoint>
          <Trackpoint>
            <Time>2018-06-10T09:03:26.000Z</Time>
            <Position>
              <LatitudeDegrees>35.9142704308032989501953125</LatitudeDegrees>
              <LongitudeDegrees>-5.37890204228460788726806640625</LongitudeDegrees>
            </Position>
            <AltitudeMeters>15</AltitudeMeters>
            <DistanceMeters>7454.672416218</DistanceMeters>
          </Trackpoint>
          <Trackpoint>
            <Time>2018-06-10T09:03:34.000Z</Time>
            <Position>
              <LatitudeDegrees>35.91419423930346965789794921875</LatitudeDegrees>
              <LongitudeDegrees>-5.3789071552455425262451171875</LongitudeDegrees>
            </Position>
            <AltitudeMeters>16.200000762939453125</AltitudeMeters>
            <DistanceMeters>7463.1654869603</DistanceMeters>
          </Trackpoint>
          <Trackpoint>
            <Time>2018-06-10T09:03:36.000Z</Time>
            <Position>
              <LatitudeDegrees>35.91417177580296993255615234375</LatitudeDegrees>
              <LongitudeDegrees>-5.37890723906457424163818359375</LongitudeDegrees>
            </Position>
            <AltitudeMeters>16.6000003814697265625</AltitudeMeters>
            <DistanceMeters>7465.6670550636</DistanceMeters>
          </Trackpoint>
          <Trackpoint>
            <Time>2018-06-10T09:03:38.000Z</Time>
            <Position>
              <LatitudeDegrees>35.91415467672049999237060546875</LatitudeDegrees>
              <LongitudeDegrees>-5.37891427986323833465576171875</LongitudeDegrees>
            </Position>
            <AltitudeMeters>16.6000003814697265625</AltitudeMeters>
            <DistanceMeters>7467.6738968845</DistanceMeters>
          </Trackpoint>
          <Trackpoint>
            <Time>2018-06-10T09:03:47.000Z</Time>
            <Position>
              <LatitudeDegrees>35.9140690974891185760498046875</LatitudeDegrees>
              <LongitudeDegrees>-5.378908328711986541748046875</LongitudeDegrees>
            </Position>
            <AltitudeMeters>18.200000762939453125</AltitudeMeters>
            <DistanceMeters>7477.2135567528</DistanceMeters>
          </Trackpoint>
          <Trackpoint>
            <Time>2018-06-10T09:03:51.000Z</Time>
            <Position>
              <LatitudeDegrees>35.9140345640480518341064453125</LatitudeDegrees>
              <LongitudeDegrees>-5.378920733928680419921875</LongitudeDegrees>
            </Position>
            <AltitudeMeters>18.6000003814697265625</AltitudeMeters>
            <DistanceMeters>7481.2159754729</DistanceMeters>
          </Trackpoint>
          <Trackpoint>
            <Time>2018-06-10T09:03:58.000Z</Time>
            <Position>
              <LatitudeDegrees>35.91398100368678569793701171875</LatitudeDegrees>
              <LongitudeDegrees>-5.3789607994258403778076171875</LongitudeDegrees>
            </Position>
            <AltitudeMeters>18.6000003814697265625</AltitudeMeters>
            <DistanceMeters>7488.1860408434</DistanceMeters>
          </Trackpoint>
          <Trackpoint>
            <Time>2018-06-10T09:04:05.000Z</Time>
            <Position>
              <LatitudeDegrees>35.9139497391879558563232421875</LatitudeDegrees>
              <LongitudeDegrees>-5.3789810836315155029296875</LongitudeDegrees>
            </Position>
            <AltitudeMeters>18.799999237060546875</AltitudeMeters>
            <DistanceMeters>7492.1155994343</DistanceMeters>
          </Trackpoint>
          <Trackpoint>
            <Time>2018-06-10T09:04:11.000Z</Time>
            <Position>
              <LatitudeDegrees>35.91394697315990924835205078125</LatitudeDegrees>
              <LongitudeDegrees>-5.37901519797742366790771484375</LongitudeDegrees>
            </Position>
            <AltitudeMeters>18.200000762939453125</AltitudeMeters>
            <DistanceMeters>7495.206525004</DistanceMeters>
          </Trackpoint>
          <Trackpoint>
            <Time>2018-06-10T09:04:22.000Z</Time>
            <Position>
              <LatitudeDegrees>35.91395585797727108001708984375</LatitudeDegrees>
              <LongitudeDegrees>-5.37903145886957645416259765625</LongitudeDegrees>
            </Position>
            <AltitudeMeters>17.6000003814697265625</AltitudeMeters>
            <DistanceMeters>7496.9741240676</DistanceMeters>
          </Trackpoint>
          <Trackpoint>
            <Time>2018-06-10T09:04:23.000Z</Time>
            <Position>
              <LatitudeDegrees>35.91395686380565166473388671875</LatitudeDegrees>
              <LongitudeDegrees>-5.37903145886957645416259765625</LongitudeDegrees>
            </Position>
            <AltitudeMeters>17.6000003814697265625</AltitudeMeters>
            <DistanceMeters>7497.1085121359</DistanceMeters>
          </Trackpoint>
          <Trackpoint>
            <Time>2018-06-10T09:04:27.000Z</Time>
            <Position>
              <LatitudeDegrees>35.9139557741582393646240234375</LatitudeDegrees>
              <LongitudeDegrees>-5.379034392535686492919921875</LongitudeDegrees>
            </Position>
            <AltitudeMeters>17.6000003814697265625</AltitudeMeters>
            <DistanceMeters>7497.4236800925</DistanceMeters>
          </Trackpoint>
          <Trackpoint>
            <Time>2018-06-10T09:04:52.000Z</Time>
            <Position>
              <LatitudeDegrees>35.91384270228445529937744140625</LatitudeDegrees>
              <LongitudeDegrees>-5.379126928746700286865234375</LongitudeDegrees>
            </Position>
            <AltitudeMeters>17.6000003814697265625</AltitudeMeters>
            <DistanceMeters>7512.5221661036</DistanceMeters>
          </Trackpoint>
          <Trackpoint>
            <Time>2018-06-10T09:04:57.000Z</Time>
            <Position>
              <LatitudeDegrees>35.9138226695358753204345703125</LatitudeDegrees>
              <LongitudeDegrees>-5.379115529358386993408203125</LongitudeDegrees>
            </Position>
            <AltitudeMeters>18.200000762939453125</AltitudeMeters>
            <DistanceMeters>7514.9763586364</DistanceMeters>
          </Trackpoint>
          <Trackpoint>
            <Time>2018-06-10T09:04:59.000Z</Time>
            <Position>
              <LatitudeDegrees>35.91380414552986621856689453125</LatitudeDegrees>
              <LongitudeDegrees>-5.379116870462894439697265625</LongitudeDegrees>
            </Position>
            <AltitudeMeters>18.6000003814697265625</AltitudeMeters>
            <DistanceMeters>7517.0408673144</DistanceMeters>
          </Trackpoint>
          <Trackpoint>
            <Time>2018-06-10T09:05:01.000Z</Time>
            <Position>
              <LatitudeDegrees>35.91378696262836456298828125</LatitudeDegrees>
              <LongitudeDegrees>-5.37912365980446338653564453125</LongitudeDegrees>
            </Position>
            <AltitudeMeters>18.799999237060546875</AltitudeMeters>
            <DistanceMeters>7519.0477091353</DistanceMeters>
          </Trackpoint>
          <Trackpoint>
            <Time>2018-06-10T09:05:04.000Z</Time>
            <Position>
              <LatitudeDegrees>35.91375879943370819091796875</LatitudeDegrees>
              <LongitudeDegrees>-5.37913707084953784942626953125</LongitudeDegrees>
            </Position>
            <AltitudeMeters>19</AltitudeMeters>
            <DistanceMeters>7522.4074108415</DistanceMeters>
          </Trackpoint>
          <Trackpoint>
            <Time>2018-06-10T09:05:13.000Z</Time>
            <Position>
              <LatitudeDegrees>35.9137019701302051544189453125</LatitudeDegrees>
              <LongitudeDegrees>-5.37915567867457866668701171875</LongitudeDegrees>
            </Position>
            <AltitudeMeters>19.6000003814697265625</AltitudeMeters>
            <DistanceMeters>7528.9511576656</DistanceMeters>
          </Trackpoint>
          <Trackpoint>
            <Time>2018-06-10T09:05:19.000Z</Time>
            <Position>
              <LatitudeDegrees>35.9136508405208587646484375</LatitudeDegrees>
              <LongitudeDegrees>-5.3791716881096363067626953125</LongitudeDegrees>
            </Position>
            <AltitudeMeters>20.200000762939453125</AltitudeMeters>
            <DistanceMeters>7534.8228551938</DistanceMeters>
          </Trackpoint>
          <Trackpoint>
            <Time>2018-06-10T09:05:25.000Z</Time>
            <Position>
              <LatitudeDegrees>35.913590490818023681640625</LatitudeDegrees>
              <LongitudeDegrees>-5.37919138558208942413330078125</LongitudeDegrees>
            </Position>
            <AltitudeMeters>20.799999237060546875</AltitudeMeters>
            <DistanceMeters>7541.7708612869</DistanceMeters>
          </Trackpoint>
          <Trackpoint>
            <Time>2018-06-10T09:05:26.000Z</Time>
            <Position>
              <LatitudeDegrees>35.913580767810344696044921875</LatitudeDegrees>
              <LongitudeDegrees>-5.37919096648693084716796875</LongitudeDegrees>
            </Position>
            <AltitudeMeters>21</AltitudeMeters>
            <DistanceMeters>7542.8543325314</DistanceMeters>
          </Trackpoint>
          <Trackpoint>
            <Time>2018-06-10T09:05:30.000Z</Time>
            <Position>
              <LatitudeDegrees>35.91353751718997955322265625</LatitudeDegrees>
              <LongitudeDegrees>-5.37918970920145511627197265625</LongitudeDegrees>
            </Position>
            <AltitudeMeters>21.799999237060546875</AltitudeMeters>
            <DistanceMeters>7547.6689151957</DistanceMeters>
          </Trackpoint>
          <Trackpoint>
            <Time>2018-06-10T09:05:34.000Z</Time>
            <Position>
              <LatitudeDegrees>35.91352368704974651336669921875</LatitudeDegrees>
              <LongitudeDegrees>-5.379188619554042816162109375</LongitudeDegrees>
            </Position>
            <AltitudeMeters>22.200000762939453125</AltitudeMeters>
            <DistanceMeters>7549.2070569409</DistanceMeters>
          </Trackpoint>
          <Trackpoint>
            <Time>2018-06-10T09:05:48.000Z</Time>
            <Position>
              <LatitudeDegrees>35.913406424224376678466796875</LatitudeDegrees>
              <LongitudeDegrees>-5.3791884519159793853759765625</LongitudeDegrees>
            </Position>
            <AltitudeMeters>24.3999996185302734375</AltitudeMeters>
            <DistanceMeters>7562.2586224424</DistanceMeters>
          </Trackpoint>
          <Trackpoint>
            <Time>2018-06-10T09:05:55.000Z</Time>
            <Position>
              <LatitudeDegrees>35.9133278019726276397705078125</LatitudeDegrees>
              <LongitudeDegrees>-5.37919557653367519378662109375</LongitudeDegrees>
            </Position>
            <AltitudeMeters>25.799999237060546875</AltitudeMeters>
            <DistanceMeters>7571.0330416118</DistanceMeters>
          </Trackpoint>
          <Trackpoint>
            <Time>2018-06-10T09:05:56.000Z</Time>
            <Position>
              <LatitudeDegrees>35.913315229117870330810546875</LatitudeDegrees>
              <LongitudeDegrees>-5.379199348390102386474609375</LongitudeDegrees>
            </Position>
            <AltitudeMeters>26</AltitudeMeters>
            <DistanceMeters>7572.4741930897</DistanceMeters>
          </Trackpoint>
          <Trackpoint>
            <Time>2018-06-10T09:06:08.000Z</Time>
            <Position>
              <LatitudeDegrees>35.9132047556340694427490234375</LatitudeDegrees>
              <LongitudeDegrees>-5.37930102087557315826416015625</LongitudeDegrees>
            </Position>
            <AltitudeMeters>25.799999237060546875</AltitudeMeters>
            <DistanceMeters>7587.8097501681</DistanceMeters>
          </Trackpoint>
          <Trackpoint>
            <Time>2018-06-10T09:06:13.000Z</Time>
            <Position>
              <LatitudeDegrees>35.9131564758718013763427734375</LatitudeDegrees>
              <LongitudeDegrees>-5.379368998110294342041015625</LongitudeDegrees>
            </Position>
            <AltitudeMeters>25.3999996185302734375</AltitudeMeters>
            <DistanceMeters>7595.9604723692</DistanceMeters>
          </Trackpoint>
          <Trackpoint>
            <Time>2018-06-10T09:06:14.000Z</Time>
            <Position>
              <LatitudeDegrees>35.913145244121551513671875</LatitudeDegrees>
              <LongitudeDegrees>-5.379376374185085296630859375</LongitudeDegrees>
            </Position>
            <AltitudeMeters>25.3999996185302734375</AltitudeMeters>
            <DistanceMeters>7597.3763385248</DistanceMeters>
          </Trackpoint>
          <Trackpoint>
            <Time>2018-06-10T09:06:27.000Z</Time>
            <Position>
              <LatitudeDegrees>35.91300367377698421478271484375</LatitudeDegrees>
              <LongitudeDegrees>-5.37946849130094051361083984375</LongitudeDegrees>
            </Position>
            <AltitudeMeters>26.200000762939453125</AltitudeMeters>
            <DistanceMeters>7615.1874478544</DistanceMeters>
          </Trackpoint>
          <Trackpoint>
            <Time>2018-06-10T09:06:29.000Z</Time>
            <Position>
              <LatitudeDegrees>35.91299043036997318267822265625</LatitudeDegrees>
              <LongitudeDegrees>-5.379489362239837646484375</LongitudeDegrees>
            </Position>
            <AltitudeMeters>26</AltitudeMeters>
            <DistanceMeters>7617.5763824103</DistanceMeters>
          </Trackpoint>
          <Trackpoint>
            <Time>2018-06-10T09:06:36.000Z</Time>
            <Position>
              <LatitudeDegrees>35.91296209953725337982177734375</LatitudeDegrees>
              <LongitudeDegrees>-5.37951844744384288787841796875</LongitudeDegrees>
            </Position>
            <AltitudeMeters>26</AltitudeMeters>
            <DistanceMeters>7621.6779714213</DistanceMeters>
          </Trackpoint>
          <Trackpoint>
            <Time>2018-06-10T09:06:51.000Z</Time>
            <Position>
              <LatitudeDegrees>35.9129046835005283355712890625</LatitudeDegrees>
              <LongitudeDegrees>-5.37955398671329021453857421875</LongitudeDegrees>
            </Position>
            <AltitudeMeters>26.3999996185302734375</AltitudeMeters>
            <DistanceMeters>7628.8271135148</DistanceMeters>
          </Trackpoint>
          <Trackpoint>
            <Time>2018-06-10T09:06:59.000Z</Time>
            <Position>
              <LatitudeDegrees>35.91284324415028095245361328125</LatitudeDegrees>
              <LongitudeDegrees>-5.37963353097438812255859375</LongitudeDegrees>
            </Position>
            <AltitudeMeters>25.799999237060546875</AltitudeMeters>
            <DistanceMeters>7638.7354428946</DistanceMeters>
          </Trackpoint>
          <Trackpoint>
            <Time>2018-06-10T09:07:05.000Z</Time>
            <Position>
              <LatitudeDegrees>35.912791192531585693359375</LatitudeDegrees>
              <LongitudeDegrees>-5.37969119846820831298828125</LongitudeDegrees>
            </Position>
            <AltitudeMeters>25.6000003814697265625</AltitudeMeters>
            <DistanceMeters>7646.5189371525</DistanceMeters>
          </Trackpoint>
          <Trackpoint>
            <Time>2018-06-10T09:07:12.000Z</Time>
            <Position>
              <LatitudeDegrees>35.9127259813249111175537109375</LatitudeDegrees>
              <LongitudeDegrees>-5.3797513805329799652099609375</LongitudeDegrees>
            </Position>
            <AltitudeMeters>25.3999996185302734375</AltitudeMeters>
            <DistanceMeters>7655.5809190098</DistanceMeters>
          </Trackpoint>
          <Trackpoint>
            <Time>2018-06-10T09:07:28.000Z</Time>
            <Position>
              <LatitudeDegrees>35.9125725924968719482421875</LatitudeDegrees>
              <LongitudeDegrees>-5.37988406606018543243408203125</LongitudeDegrees>
            </Position>
            <AltitudeMeters>25.3999996185302734375</AltitudeMeters>
            <DistanceMeters>7676.426453509</DistanceMeters>
          </Trackpoint>
          <Trackpoint>
            <Time>2018-06-10T09:07:33.000Z</Time>
            <Position>
              <LatitudeDegrees>35.91252054087817668914794921875</LatitudeDegrees>
              <LongitudeDegrees>-5.37991709075868129730224609375</LongitudeDegrees>
            </Position>
            <AltitudeMeters>25.6000003814697265625</AltitudeMeters>
            <DistanceMeters>7682.9397705698</DistanceMeters>
          </Trackpoint>
          <Trackpoint>
            <Time>2018-06-10T09:07:35.000Z</Time>
            <Position>
              <LatitudeDegrees>35.91249422170221805572509765625</LatitudeDegrees>
              <LongitudeDegrees>-5.379930920898914337158203125</LongitudeDegrees>
            </Position>
            <AltitudeMeters>25.799999237060546875</AltitudeMeters>
            <DistanceMeters>7686.1228109041</DistanceMeters>
          </Trackpoint>
          <Trackpoint>
            <Time>2018-06-10T09:07:39.000Z</Time>
            <Position>
              <LatitudeDegrees>35.9124544076621532440185546875</LatitudeDegrees>
              <LongitudeDegrees>-5.379940979182720184326171875</LongitudeDegrees>
            </Position>
            <AltitudeMeters>26.3999996185302734375</AltitudeMeters>
            <DistanceMeters>7690.6453238279</DistanceMeters>
          </Trackpoint>
          <Trackpoint>
            <Time>2018-06-10T09:07:40.000Z</Time>
            <Position>
              <LatitudeDegrees>35.91244393028318881988525390625</LatitudeDegrees>
              <LongitudeDegrees>-5.37994056008756160736083984375</LongitudeDegrees>
            </Position>
            <AltitudeMeters>26.6000003814697265625</AltitudeMeters>
            <DistanceMeters>7691.8091586386</DistanceMeters>
          </Trackpoint>
          <Trackpoint>
            <Time>2018-06-10T09:07:41.000Z</Time>
            <Position>
              <LatitudeDegrees>35.91243253089487552642822265625</LatitudeDegrees>
              <LongitudeDegrees>-5.37993921898305416107177734375</LongitudeDegrees>
            </Position>
            <AltitudeMeters>27</AltitudeMeters>
            <DistanceMeters>7693.0840757966</DistanceMeters>
          </Trackpoint>
          <Trackpoint>
            <Time>2018-06-10T09:07:53.000Z</Time>
            <Position>
              <LatitudeDegrees>35.9122931398451328277587890625</LatitudeDegrees>
              <LongitudeDegrees>-5.37996947765350341796875</LongitudeDegrees>
            </Position>
            <AltitudeMeters>29</AltitudeMeters>
            <DistanceMeters>7708.8367422592</DistanceMeters>
          </Trackpoint>
          <Trackpoint>
            <Time>2018-06-10T09:07:54.000Z</Time>
            <Position>
              <LatitudeDegrees>35.91228425502777099609375</LatitudeDegrees>
              <LongitudeDegrees>-5.37996880710124969482421875</LongitudeDegrees>
            </Position>
            <AltitudeMeters>29.200000762939453125</AltitudeMeters>
            <DistanceMeters>7709.8333908476</DistanceMeters>
          </Trackpoint>
          <Trackpoint>
            <Time>2018-06-10T09:07:59.000Z</Time>
            <Position>
              <LatitudeDegrees>35.91222264803946018218994140625</LatitudeDegrees>
              <LongitudeDegrees>-5.37996319122612476348876953125</LongitudeDegrees>
            </Position>
            <AltitudeMeters>30.3999996185302734375</AltitudeMeters>
            <DistanceMeters>7716.7082304899</DistanceMeters>
          </Trackpoint>
          <Trackpoint>
            <Time>2018-06-10T09:08:00.000Z</Time>
            <Position>
              <LatitudeDegrees>35.9122096560895442962646484375</LatitudeDegrees>
              <LongitudeDegrees>-5.379961095750331878662109375</LongitudeDegrees>
            </Position>
            <AltitudeMeters>30.3999996185302734375</AltitudeMeters>
            <DistanceMeters>7718.168058576</DistanceMeters>
          </Trackpoint>
          <Trackpoint>
            <Time>2018-06-10T09:08:01.000Z</Time>
            <Position>
              <LatitudeDegrees>35.91219699941575527191162109375</LatitudeDegrees>
              <LongitudeDegrees>-5.37996101193130016326904296875</LongitudeDegrees>
            </Position>
            <AltitudeMeters>30.3999996185302734375</AltitudeMeters>
            <DistanceMeters>7719.5775325267</DistanceMeters>
          </Trackpoint>
          <Trackpoint>
            <Time>2018-06-10T09:08:02.000Z</Time>
            <Position>
              <LatitudeDegrees>35.91218576766550540924072265625</LatitudeDegrees>
              <LongitudeDegrees>-5.37995916791260242462158203125</LongitudeDegrees>
            </Position>
            <AltitudeMeters>30.3999996185302734375</AltitudeMeters>
            <DistanceMeters>7720.8382043532</DistanceMeters>
          </Trackpoint>
          <Trackpoint>
            <Time>2018-06-10T09:08:04.000Z</Time>
            <Position>
              <LatitudeDegrees>35.91216020286083221435546875</LatitudeDegrees>
              <LongitudeDegrees>-5.37994709797203540802001953125</LongitudeDegrees>
            </Position>
            <AltitudeMeters>30.6000003814697265625</AltitudeMeters>
            <DistanceMeters>7723.8835103325</DistanceMeters>
          </Trackpoint>
          <Trackpoint>
            <Time>2018-06-10T09:08:10.000Z</Time>
            <Position>
              <LatitudeDegrees>35.91209423728287220001220703125</LatitudeDegrees>
              <LongitudeDegrees>-5.37991776131093502044677734375</LongitudeDegrees>
            </Position>
            <AltitudeMeters>31.3999996185302734375</AltitudeMeters>
            <DistanceMeters>7731.68728093</DistanceMeters>
          </Trackpoint>
          <Trackpoint>
            <Time>2018-06-10T09:08:11.000Z</Time>
            <Position>
              <LatitudeDegrees>35.91208166442811489105224609375</LatitudeDegrees>
              <LongitudeDegrees>-5.37991122342646121978759765625</LongitudeDegrees>
            </Position>
            <AltitudeMeters>31.3999996185302734375</AltitudeMeters>
            <DistanceMeters>7733.2077083599</DistanceMeters>
          </Trackpoint>
          <Trackpoint>
            <Time>2018-06-10T09:08:27.000Z</Time>
            <Position>
              <LatitudeDegrees>35.91193816624581813812255859375</LatitudeDegrees>
              <LongitudeDegrees>-5.379787422716617584228515625</LongitudeDegrees>
            </Position>
            <AltitudeMeters>33.200000762939453125</AltitudeMeters>
            <DistanceMeters>7752.6918928125</DistanceMeters>
          </Trackpoint>
          <Trackpoint>
            <Time>2018-06-10T09:08:30.000Z</Time>
            <Position>
              <LatitudeDegrees>35.91190530918538570404052734375</LatitudeDegrees>
              <LongitudeDegrees>-5.37976738996803760528564453125</LongitudeDegrees>
            </Position>
            <AltitudeMeters>33.200000762939453125</AltitudeMeters>
            <DistanceMeters>7756.7702994633</DistanceMeters>
          </Trackpoint>
          <Trackpoint>
            <Time>2018-06-10T09:08:32.000Z</Time>
            <Position>
              <LatitudeDegrees>35.91187815181910991668701171875</LatitudeDegrees>
              <LongitudeDegrees>-5.379752218723297119140625</LongitudeDegrees>
            </Position>
            <AltitudeMeters>33.200000762939453125</AltitudeMeters>
            <DistanceMeters>7760.0867181807</DistanceMeters>
          </Trackpoint>
          <Trackpoint>
            <Time>2018-06-10T09:08:39.000Z</Time>
            <Position>
              <LatitudeDegrees>35.91180187650024890899658203125</LatitudeDegrees>
              <LongitudeDegrees>-5.3796910308301448822021484375</LongitudeDegrees>
            </Position>
            <AltitudeMeters>33.59999847412109375</AltitudeMeters>
            <DistanceMeters>7770.2105202154</DistanceMeters>
          </Trackpoint>
          <Trackpoint>
            <Time>2018-06-10T09:08:40.000Z</Time>
            <Position>
              <LatitudeDegrees>35.91178326867520809173583984375</LatitudeDegrees>
              <LongitudeDegrees>-5.37969312630593776702880859375</LongitudeDegrees>
            </Position>
            <AltitudeMeters>33.40000152587890625</AltitudeMeters>
            <DistanceMeters>7772.2902814076</DistanceMeters>
          </Trackpoint>
          <Trackpoint>
            <Time>2018-06-10T09:08:58.000Z</Time>
            <Position>
              <LatitudeDegrees>35.91162652708590030670166015625</LatitudeDegrees>
              <LongitudeDegrees>-5.3796048648655414581298828125</LongitudeDegrees>
            </Position>
            <AltitudeMeters>34.59999847412109375</AltitudeMeters>
            <DistanceMeters>7791.4644967068</DistanceMeters>
          </Trackpoint>
          <Trackpoint>
            <Time>2018-06-10T09:09:12.000Z</Time>
            <Position>
              <LatitudeDegrees>35.9114549495279788970947265625</LatitudeDegrees>
              <LongitudeDegrees>-5.37953085266053676605224609375</LongitudeDegrees>
            </Position>
            <AltitudeMeters>36.200000762939453125</AltitudeMeters>
            <DistanceMeters>7811.6933608404</DistanceMeters>
          </Trackpoint>
          <Trackpoint>
            <Time>2018-06-10T09:09:16.000Z</Time>
            <Position>
              <LatitudeDegrees>35.91141882352530956268310546875</LatitudeDegrees>
              <LongitudeDegrees>-5.37951140664517879486083984375</LongitudeDegrees>
            </Position>
            <AltitudeMeters>36.799999237060546875</AltitudeMeters>
            <DistanceMeters>7816.0790264484</DistanceMeters>
          </Trackpoint>
          <Trackpoint>
            <Time>2018-06-10T09:09:20.000Z</Time>
            <Position>
              <LatitudeDegrees>35.91138361953198909759521484375</LatitudeDegrees>
              <LongitudeDegrees>-5.3794915415346622467041015625</LongitudeDegrees>
            </Position>
            <AltitudeMeters>37.40000152587890625</AltitudeMeters>
            <DistanceMeters>7820.3867877107</DistanceMeters>
          </Trackpoint>
          <Trackpoint>
            <Time>2018-06-10T09:09:30.000Z</Time>
            <Position>
              <LatitudeDegrees>35.91128756292164325714111328125</LatitudeDegrees>
              <LongitudeDegrees>-5.37941870279610157012939453125</LongitudeDegrees>
            </Position>
            <AltitudeMeters>39.59999847412109375</AltitudeMeters>
            <DistanceMeters>7832.9331932744</DistanceMeters>
          </Trackpoint>
          <Trackpoint>
            <Time>2018-06-10T09:09:31.000Z</Time>
            <Position>
              <LatitudeDegrees>35.91127549298107624053955078125</LatitudeDegrees>
              <LongitudeDegrees>-5.3794097341597080230712890625</LongitudeDegrees>
            </Position>
            <AltitudeMeters>39.799999237060546875</AltitudeMeters>
            <DistanceMeters>7834.5004139969</DistanceMeters>
          </Trackpoint>
          <Trackpoint>
            <Time>2018-06-10T09:09:39.000Z</Time>
            <Position>
              <LatitudeDegrees>35.9111733175814151763916015625</LatitudeDegrees>
              <LongitudeDegrees>-5.379352904856204986572265625</LongitudeDegrees>
            </Position>
            <AltitudeMeters>41.40000152587890625</AltitudeMeters>
            <DistanceMeters>7846.9739145933</DistanceMeters>
          </Trackpoint>
          <Trackpoint>
            <Time>2018-06-10T09:09:43.000Z</Time>
            <Position>
              <LatitudeDegrees>35.91113484464585781097412109375</LatitudeDegrees>
              <LongitudeDegrees>-5.379333458840847015380859375</LongitudeDegrees>
            </Position>
            <AltitudeMeters>41.799999237060546875</AltitudeMeters>
            <DistanceMeters>7851.6000664685</DistanceMeters>
          </Trackpoint>
          <Trackpoint>
            <Time>2018-06-10T09:09:47.000Z</Time>
            <Position>
              <LatitudeDegrees>35.91109109111130237579345703125</LatitudeDegrees>
              <LongitudeDegrees>-5.37930957041680812835693359375</LongitudeDegrees>
            </Position>
            <AltitudeMeters>42.59999847412109375</AltitudeMeters>
            <DistanceMeters>7856.9249552029</DistanceMeters>
          </Trackpoint>
          <Trackpoint>
            <Time>2018-06-10T09:09:49.000Z</Time>
            <Position>
              <LatitudeDegrees>35.91106577776372432708740234375</LatitudeDegrees>
              <LongitudeDegrees>-5.37930487655103206634521484375</LongitudeDegrees>
            </Position>
            <AltitudeMeters>42.59999847412109375</AltitudeMeters>
            <DistanceMeters>7859.7741724152</DistanceMeters>
          </Trackpoint>
          <Trackpoint>
            <Time>2018-06-10T09:09:56.000Z</Time>
            <Position>
              <LatitudeDegrees>35.910977013409137725830078125</LatitudeDegrees>
              <LongitudeDegrees>-5.379295907914638519287109375</LongitudeDegrees>
            </Position>
            <AltitudeMeters>42.200000762939453125</AltitudeMeters>
            <DistanceMeters>7869.6870575585</DistanceMeters>
          </Trackpoint>
          <Trackpoint>
            <Time>2018-06-10T09:09:59.000Z</Time>
            <Position>
              <LatitudeDegrees>35.91095413081347942352294921875</LatitudeDegrees>
              <LongitudeDegrees>-5.37929180078208446502685546875</LongitudeDegrees>
            </Position>
            <AltitudeMeters>42.200000762939453125</AltitudeMeters>
            <DistanceMeters>7872.2615625808</DistanceMeters>
          </Trackpoint>
          <Trackpoint>
            <Time>2018-06-10T09:10:04.000Z</Time>
            <Position>
              <LatitudeDegrees>35.91093166731297969818115234375</LatitudeDegrees>
              <LongitudeDegrees>-5.3793054632842540740966796875</LongitudeDegrees>
            </Position>
            <AltitudeMeters>41.40000152587890625</AltitudeMeters>
            <DistanceMeters>7875.0482928766</DistanceMeters>
          </Trackpoint>
          <Trackpoint>
            <Time>2018-06-10T09:10:13.000Z</Time>
            <Position>
              <LatitudeDegrees>35.91091490350663661956787109375</LatitudeDegrees>
              <LongitudeDegrees>-5.3792994283139705657958984375</LongitudeDegrees>
            </Position>
            <AltitudeMeters>41.40000152587890625</AltitudeMeters>
            <DistanceMeters>7876.9911186417</DistanceMeters>
          </Trackpoint>
          <Trackpoint>
            <Time>2018-06-10T09:10:14.000Z</Time>
            <Position>
              <LatitudeDegrees>35.9109097905457019805908203125</LatitudeDegrees>
              <LongitudeDegrees>-5.3793004341423511505126953125</LongitudeDegrees>
            </Position>
            <AltitudeMeters>41.200000762939453125</AltitudeMeters>
            <DistanceMeters>7877.5691435793</DistanceMeters>
          </Trackpoint>
          <Trackpoint>
            <Time>2018-06-10T09:10:19.000Z</Time>
            <Position>
              <LatitudeDegrees>35.91091096401214599609375</LatitudeDegrees>
              <LongitudeDegrees>-5.3792863525450229644775390625</LongitudeDegrees>
            </Position>
            <AltitudeMeters>41.59999847412109375</AltitudeMeters>
            <DistanceMeters>7878.8440607374</DistanceMeters>
          </Trackpoint>
          <Trackpoint>
            <Time>2018-06-10T09:10:23.000Z</Time>
            <Position>
              <LatitudeDegrees>35.91095547191798686981201171875</LatitudeDegrees>
              <LongitudeDegrees>-5.37926137447357177734375</LongitudeDegrees>
            </Position>
            <AltitudeMeters>43.40000152587890625</AltitudeMeters>
            <DistanceMeters>7884.2863627077</DistanceMeters>
          </Trackpoint>
          <Trackpoint>
            <Time>2018-06-10T09:10:24.000Z</Time>
            <Position>
              <LatitudeDegrees>35.91097223572432994842529296875</LatitudeDegrees>
              <LongitudeDegrees>-5.3792618773877620697021484375</LongitudeDegrees>
            </Position>
            <AltitudeMeters>43.59999847412109375</AltitudeMeters>
            <DistanceMeters>7886.1533414187</DistanceMeters>
          </Trackpoint>
          <Trackpoint>
            <Time>2018-06-10T09:10:34.000Z</Time>
            <Position>
              <LatitudeDegrees>35.911089666187763214111328125</LatitudeDegrees>
              <LongitudeDegrees>-5.37932373583316802978515625</LongitudeDegrees>
            </Position>
            <AltitudeMeters>42</AltitudeMeters>
            <DistanceMeters>7900.3635690537</DistanceMeters>
          </Trackpoint>
          <Trackpoint>
            <Time>2018-06-10T09:10:37.000Z</Time>
            <Position>
              <LatitudeDegrees>35.9111106209456920623779296875</LatitudeDegrees>
              <LongitudeDegrees>-5.37931032478809356689453125</LongitudeDegrees>
            </Position>
            <AltitudeMeters>42.59999847412109375</AltitudeMeters>
            <DistanceMeters>7902.9901596962</DistanceMeters>
          </Trackpoint>
          <Trackpoint>
            <Time>2018-06-10T09:10:42.000Z</Time>
            <Position>
              <LatitudeDegrees>35.9111086092889308929443359375</LatitudeDegrees>
              <LongitudeDegrees>-5.37929314188659191131591796875</LongitudeDegrees>
            </Position>
            <AltitudeMeters>43.40000152587890625</AltitudeMeters>
            <DistanceMeters>7904.5544968454</DistanceMeters>
          </Trackpoint>
          <Trackpoint>
            <Time>2018-06-10T09:10:49.000Z</Time>
            <Position>
              <LatitudeDegrees>35.91108798980712890625</LatitudeDegrees>
              <LongitudeDegrees>-5.37922206334769725799560546875</LongitudeDegrees>
            </Position>
            <AltitudeMeters>46.200000762939453125</AltitudeMeters>
            <DistanceMeters>7911.3606919761</DistanceMeters>
          </Trackpoint>
          <Trackpoint>
            <Time>2018-06-10T09:10:54.000Z</Time>
            <Position>
              <LatitudeDegrees>35.91108170337975025177001953125</LatitudeDegrees>
              <LongitudeDegrees>-5.37915919907391071319580078125</LongitudeDegrees>
            </Position>
            <AltitudeMeters>48.799999237060546875</AltitudeMeters>
            <DistanceMeters>7917.0702082396</DistanceMeters>
          </Trackpoint>
          <Trackpoint>
            <Time>2018-06-10T09:10:55.000Z</Time>
            <Position>
              <LatitudeDegrees>35.9110797755420207977294921875</LatitudeDegrees>
              <LongitudeDegrees>-5.37914402782917022705078125</LongitudeDegrees>
            </Position>
            <AltitudeMeters>49.40000152587890625</AltitudeMeters>
            <DistanceMeters>7918.4538180856</DistanceMeters>
          </Trackpoint>
          <Trackpoint>
            <Time>2018-06-10T09:11:00.000Z</Time>
            <Position>
              <LatitudeDegrees>35.911056809127330780029296875</LatitudeDegrees>
              <LongitudeDegrees>-5.37907973863184452056884765625</LongitudeDegrees>
            </Position>
            <AltitudeMeters>50.200000762939453125</AltitudeMeters>
            <DistanceMeters>7924.7879028372</DistanceMeters>
          </Trackpoint>
          <Trackpoint>
            <Time>2018-06-10T09:11:02.000Z</Time>
            <Position>
              <LatitudeDegrees>35.9110475890338420867919921875</LatitudeDegrees>
              <LongitudeDegrees>-5.3790580295026302337646484375</LongitudeDegrees>
            </Position>
            <AltitudeMeters>50.40000152587890625</AltitudeMeters>
            <DistanceMeters>7926.9961241304</DistanceMeters>
          </Trackpoint>
          <Trackpoint>
            <Time>2018-06-10T09:11:03.000Z</Time>
            <Position>
              <LatitudeDegrees>35.91104096733033657073974609375</LatitudeDegrees>
              <LongitudeDegrees>-5.37905090488493442535400390625</LongitudeDegrees>
            </Position>
            <AltitudeMeters>50.40000152587890625</AltitudeMeters>
            <DistanceMeters>7927.9744840351</DistanceMeters>
          </Trackpoint>
          <Trackpoint>
            <Time>2018-06-10T09:11:08.000Z</Time>
            <Position>
              <LatitudeDegrees>35.91100442223250865936279296875</LatitudeDegrees>
              <LongitudeDegrees>-5.37901553325355052947998046875</LongitudeDegrees>
            </Position>
            <AltitudeMeters>50.200000762939453125</AltitudeMeters>
            <DistanceMeters>7933.1427493264</DistanceMeters>
          </Trackpoint>
          <Trackpoint>
            <Time>2018-06-10T09:11:10.000Z</Time>
            <Position>
              <LatitudeDegrees>35.91098179109394550323486328125</LatitudeDegrees>
              <LongitudeDegrees>-5.37901150994002819061279296875</LongitudeDegrees>
            </Position>
            <AltitudeMeters>49.59999847412109375</AltitudeMeters>
            <DistanceMeters>7935.6854909047</DistanceMeters>
          </Trackpoint>
          <Trackpoint>
            <Time>2018-06-10T09:11:11.000Z</Time>
            <Position>
              <LatitudeDegrees>35.9109744988381862640380859375</LatitudeDegrees>
              <LongitudeDegrees>-5.3790104202926158905029296875</LongitudeDegrees>
            </Position>
            <AltitudeMeters>49.40000152587890625</AltitudeMeters>
            <DistanceMeters>7936.5029416107</DistanceMeters>
          </Trackpoint>
          <Trackpoint>
            <Time>2018-06-10T09:11:17.000Z</Time>
            <Position>
              <LatitudeDegrees>35.910920687019824981689453125</LatitudeDegrees>
              <LongitudeDegrees>-5.37900111638009548187255859375</LongitudeDegrees>
            </Position>
            <AltitudeMeters>48</AltitudeMeters>
            <DistanceMeters>7942.550404682</DistanceMeters>
          </Trackpoint>
          <Trackpoint>
            <Time>2018-06-10T09:11:30.000Z</Time>
            <Position>
              <LatitudeDegrees>35.91087349690496921539306640625</LatitudeDegrees>
              <LongitudeDegrees>-5.378818809986114501953125</LongitudeDegrees>
            </Position>
            <AltitudeMeters>50.59999847412109375</AltitudeMeters>
            <DistanceMeters>7959.8037078433</DistanceMeters>
          </Trackpoint>
          <Trackpoint>
            <Time>2018-06-10T09:11:43.000Z</Time>
            <Position>
              <LatitudeDegrees>35.9108853153884410858154296875</LatitudeDegrees>
              <LongitudeDegrees>-5.378711186349391937255859375</LongitudeDegrees>
            </Position>
            <AltitudeMeters>54.59999847412109375</AltitudeMeters>
            <DistanceMeters>7969.594687954</DistanceMeters>
          </Trackpoint>
          <Trackpoint>
            <Time>2018-06-10T09:12:00.000Z</Time>
            <Position>
              <LatitudeDegrees>35.91080241836607456207275390625</LatitudeDegrees>
              <LongitudeDegrees>-5.378845632076263427734375</LongitudeDegrees>
            </Position>
            <AltitudeMeters>48</AltitudeMeters>
            <DistanceMeters>7984.8268507732</DistanceMeters>
          </Trackpoint>
          <Trackpoint>
            <Time>2018-06-10T09:12:02.000Z</Time>
            <Position>
              <LatitudeDegrees>35.91079353354871273040771484375</LatitudeDegrees>
              <LongitudeDegrees>-5.378859378397464752197265625</LongitudeDegrees>
            </Position>
            <AltitudeMeters>47.40000152587890625</AltitudeMeters>
            <DistanceMeters>7986.4112627308</DistanceMeters>
          </Trackpoint>
          <Trackpoint>
            <Time>2018-06-10T09:12:04.000Z</Time>
            <Position>
              <LatitudeDegrees>35.9107880853116512298583984375</LatitudeDegrees>
              <LongitudeDegrees>-5.378864072263240814208984375</LongitudeDegrees>
            </Position>
            <AltitudeMeters>47.200000762939453125</AltitudeMeters>
            <DistanceMeters>7987.1473364952</DistanceMeters>
          </Trackpoint>
          <Trackpoint>
            <Time>2018-06-10T09:12:05.000Z</Time>
            <Position>
              <LatitudeDegrees>35.91078280471265316009521484375</LatitudeDegrees>
              <LongitudeDegrees>-5.37886440753936767578125</LongitudeDegrees>
            </Position>
            <AltitudeMeters>47</AltitudeMeters>
            <DistanceMeters>7987.733120504</DistanceMeters>
          </Trackpoint>
          <Trackpoint>
            <Time>2018-06-10T09:12:09.000Z</Time>
            <Position>
              <LatitudeDegrees>35.91077056713402271270751953125</LatitudeDegrees>
              <LongitudeDegrees>-5.37885577417910099029541015625</LongitudeDegrees>
            </Position>
            <AltitudeMeters>46.799999237060546875</AltitudeMeters>
            <DistanceMeters>7989.3003412264</DistanceMeters>
          </Trackpoint>
          <Trackpoint>
            <Time>2018-06-10T09:12:15.000Z</Time>
            <Position>
              <LatitudeDegrees>35.91074843890964984893798828125</LatitudeDegrees>
              <LongitudeDegrees>-5.37886901758611202239990234375</LongitudeDegrees>
            </Position>
            <AltitudeMeters>46</AltitudeMeters>
            <DistanceMeters>7992.0380343152</DistanceMeters>
          </Trackpoint>
          <Trackpoint>
            <Time>2018-06-10T09:12:17.000Z</Time>
            <Position>
              <LatitudeDegrees>35.9107518754899501800537109375</LatitudeDegrees>
              <LongitudeDegrees>-5.37887589074671268463134765625</LongitudeDegrees>
            </Position>
            <AltitudeMeters>46</AltitudeMeters>
            <DistanceMeters>7992.7741080796</DistanceMeters>
          </Trackpoint>
          <Trackpoint>
            <Time>2018-06-10T09:12:19.000Z</Time>
            <Position>
              <LatitudeDegrees>35.9107475169003009796142578125</LatitudeDegrees>
              <LongitudeDegrees>-5.3788887150585651397705078125</LongitudeDegrees>
            </Position>
            <AltitudeMeters>45.59999847412109375</AltitudeMeters>
            <DistanceMeters>7994.0275965324</DistanceMeters>
          </Trackpoint>
          <Trackpoint>
            <Time>2018-06-10T09:12:21.000Z</Time>
            <Position>
              <LatitudeDegrees>35.91073636896908283233642578125</LatitudeDegrees>
              <LongitudeDegrees>-5.37890397012233734130859375</LongitudeDegrees>
            </Position>
            <AltitudeMeters>44.799999237060546875</AltitudeMeters>
            <DistanceMeters>7995.8775692274</DistanceMeters>
          </Trackpoint>
          <Trackpoint>
            <Time>2018-06-10T09:12:24.000Z</Time>
            <Position>
              <LatitudeDegrees>35.91072496958076953887939453125</LatitudeDegrees>
              <LongitudeDegrees>-5.3789215721189975738525390625</LongitudeDegrees>
            </Position>
            <AltitudeMeters>44.200000762939453125</AltitudeMeters>
            <DistanceMeters>7997.9112297229</DistanceMeters>
          </Trackpoint>
          <Trackpoint>
            <Time>2018-06-10T09:12:30.000Z</Time>
            <Position>
              <LatitudeDegrees>35.91069680638611316680908203125</LatitudeDegrees>
              <LongitudeDegrees>-5.3789225779473781585693359375</LongitudeDegrees>
            </Position>
            <AltitudeMeters>43.40000152587890625</AltitudeMeters>
            <DistanceMeters>8001.0485507655</DistanceMeters>
          </Trackpoint>
          <Trackpoint>
            <Time>2018-06-10T09:12:34.000Z</Time>
            <Position>
              <LatitudeDegrees>35.910677611827850341796875</LatitudeDegrees>
              <LongitudeDegrees>-5.37892006337642669677734375</LongitudeDegrees>
            </Position>
            <AltitudeMeters>42.799999237060546875</AltitudeMeters>
            <DistanceMeters>8003.1987598575</DistanceMeters>
          </Trackpoint>
          <Trackpoint>
            <Time>2018-06-10T09:12:38.000Z</Time>
            <Position>
              <LatitudeDegrees>35.91065791435539722442626953125</LatitudeDegrees>
              <LongitudeDegrees>-5.37892098538577556610107421875</LongitudeDegrees>
            </Position>
            <AltitudeMeters>42.200000762939453125</AltitudeMeters>
            <DistanceMeters>8005.3946789865</DistanceMeters>
          </Trackpoint>
          <Trackpoint>
            <Time>2018-06-10T09:12:39.000Z</Time>
            <Position>
              <LatitudeDegrees>35.91065338812768459320068359375</LatitudeDegrees>
              <LongitudeDegrees>-5.37891738116741180419921875</LongitudeDegrees>
            </Position>
            <AltitudeMeters>42.200000762939453125</AltitudeMeters>
            <DistanceMeters>8005.9956806984</DistanceMeters>
          </Trackpoint>
          <Trackpoint>
            <Time>2018-06-10T09:12:40.000Z</Time>
            <Position>
              <LatitudeDegrees>35.91064450331032276153564453125</LatitudeDegrees>
              <LongitudeDegrees>-5.37891377694904804229736328125</LongitudeDegrees>
            </Position>
            <AltitudeMeters>42</AltitudeMeters>
            <DistanceMeters>8007.0366461989</DistanceMeters>
          </Trackpoint>
          <Trackpoint>
            <Time>2018-06-10T09:12:42.000Z</Time>
            <Position>
              <LatitudeDegrees>35.9106422401964664459228515625</LatitudeDegrees>
              <LongitudeDegrees>-5.37890505976974964141845703125</LongitudeDegrees>
            </Position>
            <AltitudeMeters>42.200000762939453125</AltitudeMeters>
            <DistanceMeters>8007.854096905</DistanceMeters>
          </Trackpoint>
          <Trackpoint>
            <Time>2018-06-10T09:12:45.000Z</Time>
            <Position>
              <LatitudeDegrees>35.9106306731700897216796875</LatitudeDegrees>
              <LongitudeDegrees>-5.378900282084941864013671875</LongitudeDegrees>
            </Position>
            <AltitudeMeters>41.799999237060546875</AltitudeMeters>
            <DistanceMeters>8009.2113498639</DistanceMeters>
          </Trackpoint>
          <Trackpoint>
            <Time>2018-06-10T09:12:50.000Z</Time>
            <Position>
              <LatitudeDegrees>35.91059873811900615692138671875</LatitudeDegrees>
              <LongitudeDegrees>-5.3788900561630725860595703125</LongitudeDegrees>
            </Position>
            <AltitudeMeters>41.200000762939453125</AltitudeMeters>
            <DistanceMeters>8012.8831211165</DistanceMeters>
          </Trackpoint>
          <Trackpoint>
            <Time>2018-06-10T09:12:53.000Z</Time>
            <Position>
              <LatitudeDegrees>35.91058582998812198638916015625</LatitudeDegrees>
              <LongitudeDegrees>-5.37888779304921627044677734375</LongitudeDegrees>
            </Position>
            <AltitudeMeters>40.799999237060546875</AltitudeMeters>
            <DistanceMeters>8014.3367503291</DistanceMeters>
          </Trackpoint>
          <Trackpoint>
            <Time>2018-06-10T09:12:54.000Z</Time>
            <Position>
              <LatitudeDegrees>35.9105832315981388092041015625</LatitudeDegrees>
              <LongitudeDegrees>-5.37889030762016773223876953125</LongitudeDegrees>
            </Position>
            <AltitudeMeters>40.799999237060546875</AltitudeMeters>
            <DistanceMeters>8014.6923077369</DistanceMeters>
          </Trackpoint>
          <Trackpoint>
            <Time>2018-06-10T09:12:59.000Z</Time>
            <Position>
              <LatitudeDegrees>35.9105609357357025146484375</LatitudeDegrees>
              <LongitudeDegrees>-5.3788867034018039703369140625</LongitudeDegrees>
            </Position>
            <AltitudeMeters>40.40000152587890625</AltitudeMeters>
            <DistanceMeters>8017.1956800728</DistanceMeters>
          </Trackpoint>
          <Trackpoint>
            <Time>2018-06-10T09:13:04.000Z</Time>
            <Position>
              <LatitudeDegrees>35.91053671203553676605224609375</LatitudeDegrees>
              <LongitudeDegrees>-5.3788697719573974609375</LongitudeDegrees>
            </Position>
            <AltitudeMeters>40.799999237060546875</AltitudeMeters>
            <DistanceMeters>8020.2953576909</DistanceMeters>
          </Trackpoint>
          <Trackpoint>
            <Time>2018-06-10T09:13:08.000Z</Time>
            <Position>
              <LatitudeDegrees>35.91051424853503704071044921875</LatitudeDegrees>
              <LongitudeDegrees>-5.3788603842258453369140625</LongitudeDegrees>
            </Position>
            <AltitudeMeters>41.200000762939453125</AltitudeMeters>
            <DistanceMeters>8022.9356643047</DistanceMeters>
          </Trackpoint>
          <Trackpoint>
            <Time>2018-06-10T09:13:10.000Z</Time>
            <Position>
              <LatitudeDegrees>35.9105000831186771392822265625</LatitudeDegrees>
              <LongitudeDegrees>-5.3788551874458789825439453125</LongitudeDegrees>
            </Position>
            <AltitudeMeters>41.200000762939453125</AltitudeMeters>
            <DistanceMeters>8024.5760797339</DistanceMeters>
          </Trackpoint>
          <Trackpoint>
            <Time>2018-06-10T09:13:12.000Z</Time>
            <Position>
              <LatitudeDegrees>35.91048927046358585357666015625</LatitudeDegrees>
              <LongitudeDegrees>-5.3788447938859462738037109375</LongitudeDegrees>
            </Position>
            <AltitudeMeters>41.59999847412109375</AltitudeMeters>
            <DistanceMeters>8026.1024347786</DistanceMeters>
          </Trackpoint>
          <Trackpoint>
            <Time>2018-06-10T09:13:16.000Z</Time>
            <Position>
              <LatitudeDegrees>35.91046948917210102081298828125</LatitudeDegrees>
              <LongitudeDegrees>-5.37881101481616497039794921875</LongitudeDegrees>
            </Position>
            <AltitudeMeters>42.40000152587890625</AltitudeMeters>
            <DistanceMeters>8029.8604980508</DistanceMeters>
          </Trackpoint>
          <Trackpoint>
            <Time>2018-06-10T09:13:21.000Z</Time>
            <Position>
              <LatitudeDegrees>35.91045071370899677276611328125</LatitudeDegrees>
              <LongitudeDegrees>-5.37879894487559795379638671875</LongitudeDegrees>
            </Position>
            <AltitudeMeters>42.799999237060546875</AltitudeMeters>
            <DistanceMeters>8032.2170839315</DistanceMeters>
          </Trackpoint>
          <Trackpoint>
            <Time>2018-06-10T09:13:23.000Z</Time>
            <Position>
              <LatitudeDegrees>35.91043931432068347930908203125</LatitudeDegrees>
              <LongitudeDegrees>-5.37880095653235912322998046875</LongitudeDegrees>
            </Position>
            <AltitudeMeters>42.799999237060546875</AltitudeMeters>
            <DistanceMeters>8033.4990643966</DistanceMeters>
          </Trackpoint>
          <Trackpoint>
            <Time>2018-06-10T09:13:24.000Z</Time>
            <Position>
              <LatitudeDegrees>35.91043327935039997100830078125</LatitudeDegrees>
              <LongitudeDegrees>-5.37880062125623226165771484375</LongitudeDegrees>
            </Position>
            <AltitudeMeters>42.799999237060546875</AltitudeMeters>
            <DistanceMeters>8034.1710047378</DistanceMeters>
          </Trackpoint>
          <Trackpoint>
            <Time>2018-06-10T09:13:29.000Z</Time>
            <Position>
              <LatitudeDegrees>35.91042791493237018585205078125</LatitudeDegrees>
              <LongitudeDegrees>-5.3787906467914581298828125</LongitudeDegrees>
            </Position>
            <AltitudeMeters>43.200000762939453125</AltitudeMeters>
            <DistanceMeters>8035.2503007405</DistanceMeters>
          </Trackpoint>
          <Trackpoint>
            <Time>2018-06-10T09:13:41.000Z</Time>
            <Position>
              <LatitudeDegrees>35.91040394268929958343505859375</LatitudeDegrees>
              <LongitudeDegrees>-5.378752760589122772216796875</LongitudeDegrees>
            </Position>
            <AltitudeMeters>44.59999847412109375</AltitudeMeters>
            <DistanceMeters>8039.5841857186</DistanceMeters>
          </Trackpoint>
          <Trackpoint>
            <Time>2018-06-10T09:13:42.000Z</Time>
            <Position>
              <LatitudeDegrees>35.91040260158479213714599609375</LatitudeDegrees>
              <LongitudeDegrees>-5.378748737275600433349609375</LongitudeDegrees>
            </Position>
            <AltitudeMeters>44.799999237060546875</AltitudeMeters>
            <DistanceMeters>8039.964292576</DistanceMeters>
          </Trackpoint>
          <Trackpoint>
            <Time>2018-06-10T09:13:48.000Z</Time>
            <Position>
              <LatitudeDegrees>35.9103810600936412811279296875</LatitudeDegrees>
              <LongitudeDegrees>-5.378710515797138214111328125</LongitudeDegrees>
            </Position>
            <AltitudeMeters>46.40000152587890625</AltitudeMeters>
            <DistanceMeters>8044.162710042</DistanceMeters>
          </Trackpoint>
          <Trackpoint>
            <Time>2018-06-10T09:13:53.000Z</Time>
            <Position>
              <LatitudeDegrees>35.91036069206893444061279296875</LatitudeDegrees>
              <LongitudeDegrees>-5.378679335117340087890625</LongitudeDegrees>
            </Position>
            <AltitudeMeters>47.59999847412109375</AltitudeMeters>
            <DistanceMeters>8047.7737251881</DistanceMeters>
          </Trackpoint>
          <Trackpoint>
            <Time>2018-06-10T09:13:59.000Z</Time>
            <Position>
              <LatitudeDegrees>35.9103337861597537994384765625</LatitudeDegrees>
              <LongitudeDegrees>-5.37863968871533870697021484375</LongitudeDegrees>
            </Position>
            <AltitudeMeters>49.200000762939453125</AltitudeMeters>
            <DistanceMeters>8052.4368168746</DistanceMeters>
          </Trackpoint>
          <Trackpoint>
            <Time>2018-06-10T09:14:03.000Z</Time>
            <Position>
              <LatitudeDegrees>35.9103156812489032745361328125</LatitudeDegrees>
              <LongitudeDegrees>-5.37861856631934642791748046875</LongitudeDegrees>
            </Position>
            <AltitudeMeters>50</AltitudeMeters>
            <DistanceMeters>8055.2072978757</DistanceMeters>
          </Trackpoint>
          <Trackpoint>
            <Time>2018-06-10T09:14:06.000Z</Time>
            <Position>
              <LatitudeDegrees>35.910300426185131072998046875</LatitudeDegrees>
              <LongitudeDegrees>-5.37860230542719364166259765625</LongitudeDegrees>
            </Position>
            <AltitudeMeters>50.799999237060546875</AltitudeMeters>
            <DistanceMeters>8057.4479947545</DistanceMeters>
          </Trackpoint>
          <Trackpoint>
            <Time>2018-06-10T09:14:13.000Z</Time>
            <Position>
              <LatitudeDegrees>35.910266228020191192626953125</LatitudeDegrees>
              <LongitudeDegrees>-5.37856358103454113006591796875</LongitudeDegrees>
            </Position>
            <AltitudeMeters>52.200000762939453125</AltitudeMeters>
            <DistanceMeters>8062.6118901581</DistanceMeters>
          </Trackpoint>
          <Trackpoint>
            <Time>2018-06-10T09:14:18.000Z</Time>
            <Position>
              <LatitudeDegrees>35.9102365560829639434814453125</LatitudeDegrees>
              <LongitudeDegrees>-5.37853516638278961181640625</LongitudeDegrees>
            </Position>
            <AltitudeMeters>53.40000152587890625</AltitudeMeters>
            <DistanceMeters>8066.7919856019</DistanceMeters>
          </Trackpoint>
          <Trackpoint>
            <Time>2018-06-10T09:14:19.000Z</Time>
            <Position>
              <LatitudeDegrees>35.91023705899715423583984375</LatitudeDegrees>
              <LongitudeDegrees>-5.3785333223640918731689453125</LongitudeDegrees>
            </Position>
            <AltitudeMeters>53.59999847412109375</AltitudeMeters>
            <DistanceMeters>8066.9820390306</DistanceMeters>
          </Trackpoint>
          <Trackpoint>
            <Time>2018-06-10T09:14:22.000Z</Time>
            <Position>
              <LatitudeDegrees>35.91023110784590244293212890625</LatitudeDegrees>
              <LongitudeDegrees>-5.37852100096642971038818359375</LongitudeDegrees>
            </Position>
            <AltitudeMeters>54</AltitudeMeters>
            <DistanceMeters>8068.2710440988</DistanceMeters>
          </Trackpoint>
          <Trackpoint>
            <Time>2018-06-10T09:14:23.000Z</Time>
            <Position>
              <LatitudeDegrees>35.91022809036076068878173828125</LatitudeDegrees>
              <LongitudeDegrees>-5.378521420061588287353515625</LongitudeDegrees>
            </Position>
            <AltitudeMeters>54</AltitudeMeters>
            <DistanceMeters>8068.61366779</DistanceMeters>
          </Trackpoint>
          <Trackpoint>
            <Time>2018-06-10T09:14:24.000Z</Time>
            <Position>
              <LatitudeDegrees>35.91022507287561893463134765625</LatitudeDegrees>
              <LongitudeDegrees>-5.378522090613842010498046875</LongitudeDegrees>
            </Position>
            <AltitudeMeters>54</AltitudeMeters>
            <DistanceMeters>8068.9692251977</DistanceMeters>
          </Trackpoint>
          <Trackpoint>
            <Time>2018-06-10T09:14:31.000Z</Time>
            <Position>
              <LatitudeDegrees>35.910212583839893341064453125</LatitudeDegrees>
              <LongitudeDegrees>-5.37850675173103809356689453125</LongitudeDegrees>
            </Position>
            <AltitudeMeters>54.59999847412109375</AltitudeMeters>
            <DistanceMeters>8070.930554483</DistanceMeters>
          </Trackpoint>
          <Trackpoint>
            <Time>2018-06-10T09:14:38.000Z</Time>
            <Position>
              <LatitudeDegrees>35.910197831690311431884765625</LatitudeDegrees>
              <LongitudeDegrees>-5.378463752567768096923828125</LongitudeDegrees>
            </Position>
            <AltitudeMeters>56.200000762939453125</AltitudeMeters>
            <DistanceMeters>8075.139712354</DistanceMeters>
          </Trackpoint>
          <Trackpoint>
            <Time>2018-06-10T09:14:45.000Z</Time>
            <Position>
              <LatitudeDegrees>35.91019791550934314727783203125</LatitudeDegrees>
              <LongitudeDegrees>-5.37841874174773693084716796875</LongitudeDegrees>
            </Position>
            <AltitudeMeters>58</AltitudeMeters>
            <DistanceMeters>8079.1959173883</DistanceMeters>
          </Trackpoint>
          <Trackpoint>
            <Time>2018-06-10T09:14:47.000Z</Time>
            <Position>
              <LatitudeDegrees>35.91019682586193084716796875</LatitudeDegrees>
              <LongitudeDegrees>-5.37840449251234531402587890625</LongitudeDegrees>
            </Position>
            <AltitudeMeters>58.59999847412109375</AltitudeMeters>
            <DistanceMeters>8080.4849224565</DistanceMeters>
          </Trackpoint>
          <Trackpoint>
            <Time>2018-06-10T09:14:49.000Z</Time>
            <Position>
              <LatitudeDegrees>35.91019104234874248504638671875</LatitudeDegrees>
              <LongitudeDegrees>-5.37839007563889026641845703125</LongitudeDegrees>
            </Position>
            <AltitudeMeters>59.200000762939453125</AltitudeMeters>
            <DistanceMeters>8081.9323262477</DistanceMeters>
          </Trackpoint>
          <Trackpoint>
            <Time>2018-06-10T09:14:52.000Z</Time>
            <Position>
              <LatitudeDegrees>35.9101902879774570465087890625</LatitudeDegrees>
              <LongitudeDegrees>-5.37837364710867404937744140625</LongitudeDegrees>
            </Position>
            <AltitudeMeters>59.799999237060546875</AltitudeMeters>
            <DistanceMeters>8083.413646124</DistanceMeters>
          </Trackpoint>
          <Trackpoint>
            <Time>2018-06-10T09:14:55.000Z</Time>
            <Position>
              <LatitudeDegrees>35.91019020415842533111572265625</LatitudeDegrees>
              <LongitudeDegrees>-5.3783534467220306396484375</LongitudeDegrees>
            </Position>
            <AltitudeMeters>60.59999847412109375</AltitudeMeters>
            <DistanceMeters>8085.2316142146</DistanceMeters>
          </Trackpoint>
          <Trackpoint>
            <Time>2018-06-10T09:14:57.000Z</Time>
            <Position>
              <LatitudeDegrees>35.91018651612102985382080078125</LatitudeDegrees>
              <LongitudeDegrees>-5.378339029848575592041015625</LongitudeDegrees>
            </Position>
            <AltitudeMeters>61.200000762939453125</AltitudeMeters>
            <DistanceMeters>8086.5921897072</DistanceMeters>
          </Trackpoint>
          <Trackpoint>
            <Time>2018-06-10T09:15:01.000Z</Time>
            <Position>
              <LatitudeDegrees>35.9101746976375579833984375</LatitudeDegrees>
              <LongitudeDegrees>-5.3783184103667736053466796875</LongitudeDegrees>
            </Position>
            <AltitudeMeters>62</AltitudeMeters>
            <DistanceMeters>8088.8688679627</DistanceMeters>
          </Trackpoint>
          <Trackpoint>
            <Time>2018-06-10T09:15:05.000Z</Time>
            <Position>
              <LatitudeDegrees>35.91016790829598903656005859375</LatitudeDegrees>
              <LongitudeDegrees>-5.37830608896911144256591796875</LongitudeDegrees>
            </Position>
            <AltitudeMeters>62.59999847412109375</AltitudeMeters>
            <DistanceMeters>8090.2093847333</DistanceMeters>
          </Trackpoint>
          <Trackpoint>
            <Time>2018-06-10T09:15:06.000Z</Time>
            <Position>
              <LatitudeDegrees>35.91016874648630619049072265625</LatitudeDegrees>
              <LongitudeDegrees>-5.3783056698739528656005859375</LongitudeDegrees>
            </Position>
            <AltitudeMeters>62.59999847412109375</AltitudeMeters>
            <DistanceMeters>8090.3437728016</DistanceMeters>
          </Trackpoint>
          <Trackpoint>
            <Time>2018-06-10T09:15:15.000Z</Time>
            <Position>
              <LatitudeDegrees>35.91015785001218318939208984375</LatitudeDegrees>
              <LongitudeDegrees>-5.37827256135642528533935546875</LongitudeDegrees>
            </Position>
            <AltitudeMeters>64</AltitudeMeters>
            <DistanceMeters>8093.5662854719</DistanceMeters>
          </Trackpoint>
          <Trackpoint>
            <Time>2018-06-10T09:15:24.000Z</Time>
            <Position>
              <LatitudeDegrees>35.9101639688014984130859375</LatitudeDegrees>
              <LongitudeDegrees>-5.3781792707741260528564453125</LongitudeDegrees>
            </Position>
            <AltitudeMeters>67.8000030517578125</AltitudeMeters>
            <DistanceMeters>8102.0038871859</DistanceMeters>
          </Trackpoint>
          <Trackpoint>
            <Time>2018-06-10T09:15:26.000Z</Time>
            <Position>
              <LatitudeDegrees>35.9101644717156887054443359375</LatitudeDegrees>
              <LongitudeDegrees>-5.3781604953110218048095703125</LongitudeDegrees>
            </Position>
            <AltitudeMeters>68.59999847412109375</AltitudeMeters>
            <DistanceMeters>8103.6984562489</DistanceMeters>
          </Trackpoint>
          <Trackpoint>
            <Time>2018-06-10T09:15:28.000Z</Time>
            <Position>
              <LatitudeDegrees>35.910162627696990966796875</LatitudeDegrees>
              <LongitudeDegrees>-5.37814783863723278045654296875</LongitudeDegrees>
            </Position>
            <AltitudeMeters>69</AltitudeMeters>
            <DistanceMeters>8104.854506124</DistanceMeters>
          </Trackpoint>
          <Trackpoint>
            <Time>2018-06-10T09:15:29.000Z</Time>
            <Position>
              <LatitudeDegrees>35.910160951316356658935546875</LatitudeDegrees>
              <LongitudeDegrees>-5.3781407140195369720458984375</LongitudeDegrees>
            </Position>
            <AltitudeMeters>69.40000152587890625</AltitudeMeters>
            <DistanceMeters>8105.5264464652</DistanceMeters>
          </Trackpoint>
          <Trackpoint>
            <Time>2018-06-10T09:15:31.000Z</Time>
            <Position>
              <LatitudeDegrees>35.9101524017751216888427734375</LatitudeDegrees>
              <LongitudeDegrees>-5.37812881171703338623046875</LongitudeDegrees>
            </Position>
            <AltitudeMeters>69.8000030517578125</AltitudeMeters>
            <DistanceMeters>8106.9613183861</DistanceMeters>
          </Trackpoint>
          <Trackpoint>
            <Time>2018-06-10T09:15:38.000Z</Time>
            <Position>
              <LatitudeDegrees>35.91013454832136631011962890625</LatitudeDegrees>
              <LongitudeDegrees>-5.37812604568898677825927734375</LongitudeDegrees>
            </Position>
            <AltitudeMeters>70</AltitudeMeters>
            <DistanceMeters>8108.9636555058</DistanceMeters>
          </Trackpoint>
          <Trackpoint>
            <Time>2018-06-10T09:15:46.000Z</Time>
            <Position>
              <LatitudeDegrees>35.91012842953205108642578125</LatitudeDegrees>
              <LongitudeDegrees>-5.378102324903011322021484375</LongitudeDegrees>
            </Position>
            <AltitudeMeters>71</AltitudeMeters>
            <DistanceMeters>8111.2083787974</DistanceMeters>
          </Trackpoint>
          <Trackpoint>
            <Time>2018-06-10T09:15:47.000Z</Time>
            <Position>
              <LatitudeDegrees>35.91012767516076564788818359375</LatitudeDegrees>
              <LongitudeDegrees>-5.378096960484981536865234375</LongitudeDegrees>
            </Position>
            <AltitudeMeters>71.40000152587890625</AltitudeMeters>
            <DistanceMeters>8111.6929218683</DistanceMeters>
          </Trackpoint>
          <Trackpoint>
            <Time>2018-06-10T09:15:50.000Z</Time>
            <Position>
              <LatitudeDegrees>35.91012801043689250946044921875</LatitudeDegrees>
              <LongitudeDegrees>-5.37806737236678600311279296875</LongitudeDegrees>
            </Position>
            <AltitudeMeters>72.59999847412109375</AltitudeMeters>
            <DistanceMeters>8114.3604488574</DistanceMeters>
          </Trackpoint>
          <Trackpoint>
            <Time>2018-06-10T09:15:51.000Z</Time>
            <Position>
              <LatitudeDegrees>35.91012784279882907867431640625</LatitudeDegrees>
              <LongitudeDegrees>-5.37805882282555103302001953125</LongitudeDegrees>
            </Position>
            <AltitudeMeters>72.8000030517578125</AltitudeMeters>
            <DistanceMeters>8115.1324495344</DistanceMeters>
          </Trackpoint>
          <Trackpoint>
            <Time>2018-06-10T09:15:54.000Z</Time>
            <Position>
              <LatitudeDegrees>35.910125076770782470703125</LatitudeDegrees>
              <LongitudeDegrees>-5.37803233601152896881103515625</LongitudeDegrees>
            </Position>
            <AltitudeMeters>74</AltitudeMeters>
            <DistanceMeters>8117.5383337795</DistanceMeters>
          </Trackpoint>
          <Trackpoint>
            <Time>2018-06-10T09:15:55.000Z</Time>
            <Position>
              <LatitudeDegrees>35.91012574732303619384765625</LatitudeDegrees>
              <LongitudeDegrees>-5.37802311591804027557373046875</LongitudeDegrees>
            </Position>
            <AltitudeMeters>74.40000152587890625</AltitudeMeters>
            <DistanceMeters>8118.3775869967</DistanceMeters>
          </Trackpoint>
          <Trackpoint>
            <Time>2018-06-10T09:15:59.000Z</Time>
            <Position>
              <LatitudeDegrees>35.9101237356662750244140625</LatitudeDegrees>
              <LongitudeDegrees>-5.37798204459249973297119140625</LongitudeDegrees>
            </Position>
            <AltitudeMeters>76</AltitudeMeters>
            <DistanceMeters>8122.0872819303</DistanceMeters>
          </Trackpoint>
          <Trackpoint>
            <Time>2018-06-10T09:16:02.000Z</Time>
            <Position>
              <LatitudeDegrees>35.91011795215308666229248046875</LatitudeDegrees>
              <LongitudeDegrees>-5.37796544842422008514404296875</LongitudeDegrees>
            </Position>
            <AltitudeMeters>76.59999847412109375</AltitudeMeters>
            <DistanceMeters>8123.7166506653</DistanceMeters>
          </Trackpoint>
          <Trackpoint>
            <Time>2018-06-10T09:16:07.000Z</Time>
            <Position>
              <LatitudeDegrees>35.9100947342813014984130859375</LatitudeDegrees>
              <LongitudeDegrees>-5.3779296576976776123046875</LongitudeDegrees>
            </Position>
            <AltitudeMeters>78.1999969482421875</AltitudeMeters>
            <DistanceMeters>8127.8511318551</DistanceMeters>
          </Trackpoint>
          <Trackpoint>
            <Time>2018-06-10T09:16:08.000Z</Time>
            <Position>
              <LatitudeDegrees>35.9100890345871448516845703125</LatitudeDegrees>
              <LongitudeDegrees>-5.377922952175140380859375</LongitudeDegrees>
            </Position>
            <AltitudeMeters>78.40000152587890625</AltitudeMeters>
            <DistanceMeters>8128.732373351</DistanceMeters>
          </Trackpoint>
          <Trackpoint>
            <Time>2018-06-10T09:16:12.000Z</Time>
            <Position>
              <LatitudeDegrees>35.91006699018180370330810546875</LatitudeDegrees>
              <LongitudeDegrees>-5.37790350615978240966796875</LongitudeDegrees>
            </Position>
            <AltitudeMeters>79.1999969482421875</AltitudeMeters>
            <DistanceMeters>8131.7463834543</DistanceMeters>
          </Trackpoint>
          <Trackpoint>
            <Time>2018-06-10T09:16:17.000Z</Time>
            <Position>
              <LatitudeDegrees>35.91006045229732990264892578125</LatitudeDegrees>
              <LongitudeDegrees>-5.3778768517076969146728515625</LongitudeDegrees>
            </Position>
            <AltitudeMeters>80.1999969482421875</AltitudeMeters>
            <DistanceMeters>8134.2569597542</DistanceMeters>
          </Trackpoint>
          <Trackpoint>
            <Time>2018-06-10T09:16:20.000Z</Time>
            <Position>
              <LatitudeDegrees>35.910059697926044464111328125</LatitudeDegrees>
              <LongitudeDegrees>-5.377868972718715667724609375</LongitudeDegrees>
            </Position>
            <AltitudeMeters>80.59999847412109375</AltitudeMeters>
            <DistanceMeters>8134.9743957146</DistanceMeters>
          </Trackpoint>
          <Trackpoint>
            <Time>2018-06-10T09:16:22.000Z</Time>
            <Position>
              <LatitudeDegrees>35.9100709296762943267822265625</LatitudeDegrees>
              <LongitudeDegrees>-5.37785849533975124359130859375</LongitudeDegrees>
            </Position>
            <AltitudeMeters>80.8000030517578125</AltitudeMeters>
            <DistanceMeters>8136.5444947145</DistanceMeters>
          </Trackpoint>
          <Trackpoint>
            <Time>2018-06-10T09:16:27.000Z</Time>
            <Position>
              <LatitudeDegrees>35.91006548143923282623291015625</LatitudeDegrees>
              <LongitudeDegrees>-5.3778222016990184783935546875</LongitudeDegrees>
            </Position>
            <AltitudeMeters>82.1999969482421875</AltitudeMeters>
            <DistanceMeters>8139.871786965</DistanceMeters>
          </Trackpoint>
          <Trackpoint>
            <Time>2018-06-10T09:16:33.000Z</Time>
            <Position>
              <LatitudeDegrees>35.9100699238479137420654296875</LatitudeDegrees>
              <LongitudeDegrees>-5.37778607569634914398193359375</LongitudeDegrees>
            </Position>
            <AltitudeMeters>83.59999847412109375</AltitudeMeters>
            <DistanceMeters>8143.1636089123</DistanceMeters>
          </Trackpoint>
          <Trackpoint>
            <Time>2018-06-10T09:16:39.000Z</Time>
            <Position>
              <LatitudeDegrees>35.910048298537731170654296875</LatitudeDegrees>
              <LongitudeDegrees>-5.37775673903524875640869140625</LongitudeDegrees>
            </Position>
            <AltitudeMeters>84.8000030517578125</AltitudeMeters>
            <DistanceMeters>8146.7394428352</DistanceMeters>
          </Trackpoint>
          <Trackpoint>
            <Time>2018-06-10T09:16:48.000Z</Time>
            <Position>
              <LatitudeDegrees>35.9100555069744586944580078125</LatitudeDegrees>
              <LongitudeDegrees>-5.3777472674846649169921875</LongitudeDegrees>
            </Position>
            <AltitudeMeters>85</AltitudeMeters>
            <DistanceMeters>8147.9110108527</DistanceMeters>
          </Trackpoint>
          <Trackpoint>
            <Time>2018-06-10T09:16:51.000Z</Time>
            <Position>
              <LatitudeDegrees>35.91005709953606128692626953125</LatitudeDegrees>
              <LongitudeDegrees>-5.377744920551776885986328125</LongitudeDegrees>
            </Position>
            <AltitudeMeters>85.1999969482421875</AltitudeMeters>
            <DistanceMeters>8148.2115117086</DistanceMeters>
          </Trackpoint>
          <Trackpoint>
            <Time>2018-06-10T09:16:56.000Z</Time>
            <Position>
              <LatitudeDegrees>35.91005542315542697906494140625</LatitudeDegrees>
              <LongitudeDegrees>-5.37773779593408107757568359375</LongitudeDegrees>
            </Position>
            <AltitudeMeters>85.40000152587890625</AltitudeMeters>
            <DistanceMeters>8148.8834520499</DistanceMeters>
          </Trackpoint>
          <Trackpoint>
            <Time>2018-06-10T09:17:23.000Z</Time>
            <Position>
              <LatitudeDegrees>35.91002776287496089935302734375</LatitudeDegrees>
              <LongitudeDegrees>-5.37779345177114009857177734375</LongitudeDegrees>
            </Position>
            <AltitudeMeters>83.59999847412109375</AltitudeMeters>
            <DistanceMeters>8154.7697414851</DistanceMeters>
          </Trackpoint>
          <Trackpoint>
            <Time>2018-06-10T09:17:29.000Z</Time>
            <Position>
              <LatitudeDegrees>35.91002524830400943756103515625</LatitudeDegrees>
              <LongitudeDegrees>-5.37778523750603199005126953125</LongitudeDegrees>
            </Position>
            <AltitudeMeters>83.8000030517578125</AltitudeMeters>
            <DistanceMeters>8155.5647920188</DistanceMeters>
          </Trackpoint>
          <Trackpoint>
            <Time>2018-06-10T09:17:34.000Z</Time>
            <Position>
              <LatitudeDegrees>35.9100266732275485992431640625</LatitudeDegrees>
              <LongitudeDegrees>-5.377789847552776336669921875</LongitudeDegrees>
            </Position>
            <AltitudeMeters>83.59999847412109375</AltitudeMeters>
            <DistanceMeters>8156.0002591304</DistanceMeters>
          </Trackpoint>
          <Trackpoint>
            <Time>2018-06-10T09:17:35.000Z</Time>
            <Position>
              <LatitudeDegrees>35.9100239910185337066650390625</LatitudeDegrees>
              <LongitudeDegrees>-5.37779378704726696014404296875</LongitudeDegrees>
            </Position>
            <AltitudeMeters>83.59999847412109375</AltitudeMeters>
            <DistanceMeters>8156.4657930547</DistanceMeters>
          </Trackpoint>
          <Trackpoint>
            <Time>2018-06-10T09:17:37.000Z</Time>
            <Position>
              <LatitudeDegrees>35.91002491302788257598876953125</LatitudeDegrees>
              <LongitudeDegrees>-5.37779713980853557586669921875</LongitudeDegrees>
            </Position>
            <AltitudeMeters>83.40000152587890625</AltitudeMeters>
            <DistanceMeters>8156.7949752494</DistanceMeters>
          </Trackpoint>
          <Trackpoint>
            <Time>2018-06-10T09:17:43.000Z</Time>
            <Position>
              <LatitudeDegrees>35.9100273437798023223876953125</LatitudeDegrees>
              <LongitudeDegrees>-5.37780468352138996124267578125</LongitudeDegrees>
            </Position>
            <AltitudeMeters>83</AltitudeMeters>
            <DistanceMeters>8157.5310490138</DistanceMeters>
          </Trackpoint>
          <Trackpoint>
            <Time>2018-06-10T09:17:48.000Z</Time>
            <Position>
              <LatitudeDegrees>35.9100233204662799835205078125</LatitudeDegrees>
              <LongitudeDegrees>-5.377807952463626861572265625</LongitudeDegrees>
            </Position>
            <AltitudeMeters>83</AltitudeMeters>
            <DistanceMeters>8158.0686012868</DistanceMeters>
          </Trackpoint>
          <Trackpoint>
            <Time>2018-06-10T09:17:50.000Z</Time>
            <Position>
              <LatitudeDegrees>35.91002189554274082183837890625</LatitudeDegrees>
              <LongitudeDegrees>-5.3778081201016902923583984375</LongitudeDegrees>
            </Position>
            <AltitudeMeters>83</AltitudeMeters>
            <DistanceMeters>8158.2029893551</DistanceMeters>
          </Trackpoint>
          <Trackpoint>
            <Time>2018-06-10T09:18:04.000Z</Time>
            <Position>
              <LatitudeDegrees>35.91001351363956928253173828125</LatitudeDegrees>
              <LongitudeDegrees>-5.377665124833583831787109375</LongitudeDegrees>
            </Position>
            <AltitudeMeters>88</AltitudeMeters>
            <DistanceMeters>8171.1280198856</DistanceMeters>
          </Trackpoint>
          <Trackpoint>
            <Time>2018-06-10T09:18:07.000Z</Time>
            <Position>
              <LatitudeDegrees>35.91000865213572978973388671875</LatitudeDegrees>
              <LongitudeDegrees>-5.3776367940008640289306640625</LongitudeDegrees>
            </Position>
            <AltitudeMeters>89</AltitudeMeters>
            <DistanceMeters>8173.7408225554</DistanceMeters>
          </Trackpoint>
          <Trackpoint>
            <Time>2018-06-10T09:18:08.000Z</Time>
            <Position>
              <LatitudeDegrees>35.91000479646027088165283203125</LatitudeDegrees>
              <LongitudeDegrees>-5.37762782536447048187255859375</LongitudeDegrees>
            </Position>
            <AltitudeMeters>89.1999969482421875</AltitudeMeters>
            <DistanceMeters>8174.6522867801</DistanceMeters>
          </Trackpoint>
          <Trackpoint>
            <Time>2018-06-10T09:18:14.000Z</Time>
            <Position>
              <LatitudeDegrees>35.9100172854959964752197265625</LatitudeDegrees>
              <LongitudeDegrees>-5.37758029997348785400390625</LongitudeDegrees>
            </Position>
            <AltitudeMeters>90.59999847412109375</AltitudeMeters>
            <DistanceMeters>8179.1557911592</DistanceMeters>
          </Trackpoint>
          <Trackpoint>
            <Time>2018-06-10T09:18:19.000Z</Time>
            <Position>
              <LatitudeDegrees>35.91001200489699840545654296875</LatitudeDegrees>
              <LongitudeDegrees>-5.3775409050285816192626953125</LongitudeDegrees>
            </Position>
            <AltitudeMeters>91.8000030517578125</AltitudeMeters>
            <DistanceMeters>8182.7567896004</DistanceMeters>
          </Trackpoint>
          <Trackpoint>
            <Time>2018-06-10T09:18:26.000Z</Time>
            <Position>
              <LatitudeDegrees>35.909998007118701934814453125</LatitudeDegrees>
              <LongitudeDegrees>-5.37748617120087146759033203125</LongitudeDegrees>
            </Position>
            <AltitudeMeters>93.40000152587890625</AltitudeMeters>
            <DistanceMeters>8187.9311665346</DistanceMeters>
          </Trackpoint>
          <Trackpoint>
            <Time>2018-06-10T09:18:32.000Z</Time>
            <Position>
              <LatitudeDegrees>35.9099894575774669647216796875</LatitudeDegrees>
              <LongitudeDegrees>-5.3774285875260829925537109375</LongitudeDegrees>
            </Position>
            <AltitudeMeters>95.1999969482421875</AltitudeMeters>
            <DistanceMeters>8193.2083585676</DistanceMeters>
          </Trackpoint>
          <Trackpoint>
            <Time>2018-06-10T09:18:36.000Z</Time>
            <Position>
              <LatitudeDegrees>35.90997629798948764801025390625</LatitudeDegrees>
              <LongitudeDegrees>-5.3773833252489566802978515625</LongitudeDegrees>
            </Position>
            <AltitudeMeters>96.40000152587890625</AltitudeMeters>
            <DistanceMeters>8197.5432852197</DistanceMeters>
          </Trackpoint>
          <Trackpoint>
            <Time>2018-06-10T09:18:41.000Z</Time>
            <Position>
              <LatitudeDegrees>35.90996003709733486175537109375</LatitudeDegrees>
              <LongitudeDegrees>-5.37733496166765689849853515625</LongitudeDegrees>
            </Position>
            <AltitudeMeters>97.8000030517578125</AltitudeMeters>
            <DistanceMeters>8202.2631579497</DistanceMeters>
          </Trackpoint>
          <Trackpoint>
            <Time>2018-06-10T09:18:44.000Z</Time>
            <Position>
              <LatitudeDegrees>35.90994394384324550628662109375</LatitudeDegrees>
              <LongitudeDegrees>-5.37730344571173191070556640625</LongitudeDegrees>
            </Position>
            <AltitudeMeters>98.8000030517578125</AltitudeMeters>
            <DistanceMeters>8205.6215155064</DistanceMeters>
          </Trackpoint>
          <Trackpoint>
            <Time>2018-06-10T09:18:46.000Z</Time>
            <Position>
              <LatitudeDegrees>35.90993371792137622833251953125</LatitudeDegrees>
              <LongitudeDegrees>-5.3772837482392787933349609375</LongitudeDegrees>
            </Position>
            <AltitudeMeters>99.40000152587890625</AltitudeMeters>
            <DistanceMeters>8207.729309996</DistanceMeters>
          </Trackpoint>
          <Trackpoint>
            <Time>2018-06-10T09:18:49.000Z</Time>
            <Position>
              <LatitudeDegrees>35.9099344722926616668701171875</LatitudeDegrees>
              <LongitudeDegrees>-5.37727477960288524627685546875</LongitudeDegrees>
            </Position>
            <AltitudeMeters>99.59999847412109375</AltitudeMeters>
            <DistanceMeters>8208.5412185995</DistanceMeters>
          </Trackpoint>
          <Trackpoint>
            <Time>2018-06-10T09:18:50.000Z</Time>
            <Position>
              <LatitudeDegrees>35.9099332988262176513671875</LatitudeDegrees>
              <LongitudeDegrees>-5.37727293558418750762939453125</LongitudeDegrees>
            </Position>
            <AltitudeMeters>99.59999847412109375</AltitudeMeters>
            <DistanceMeters>8208.7739855616</DistanceMeters>
          </Trackpoint>
          <Trackpoint>
            <Time>2018-06-10T09:18:51.000Z</Time>
            <Position>
              <LatitudeDegrees>35.909933634102344512939453125</LatitudeDegrees>
              <LongitudeDegrees>-5.37726740352809429168701171875</LongitudeDegrees>
            </Position>
            <AltitudeMeters>99.8000030517578125</AltitudeMeters>
            <DistanceMeters>8209.2768196699</DistanceMeters>
          </Trackpoint>
          <Trackpoint>
            <Time>2018-06-10T09:18:59.000Z</Time>
            <Position>
              <LatitudeDegrees>35.90992114506661891937255859375</LatitudeDegrees>
              <LongitudeDegrees>-5.37723974324762821197509765625</LongitudeDegrees>
            </Position>
            <AltitudeMeters>100.59999847412109375</AltitudeMeters>
            <DistanceMeters>8212.1339491919</DistanceMeters>
          </Trackpoint>
          <Trackpoint>
            <Time>2018-06-10T09:19:08.000Z</Time>
            <Position>
              <LatitudeDegrees>35.909901447594165802001953125</LatitudeDegrees>
              <LongitudeDegrees>-5.37716849707067012786865234375</LongitudeDegrees>
            </Position>
            <AltitudeMeters>102.8000030517578125</AltitudeMeters>
            <DistanceMeters>8218.9208792741</DistanceMeters>
          </Trackpoint>
          <Trackpoint>
            <Time>2018-06-10T09:19:10.000Z</Time>
            <Position>
              <LatitudeDegrees>35.9099053032696247100830078125</LatitudeDegrees>
              <LongitudeDegrees>-5.377155840396881103515625</LongitudeDegrees>
            </Position>
            <AltitudeMeters>103.1999969482421875</AltitudeMeters>
            <DistanceMeters>8220.1415195213</DistanceMeters>
          </Trackpoint>
          <Trackpoint>
            <Time>2018-06-10T09:19:11.000Z</Time>
            <Position>
              <LatitudeDegrees>35.90990773402154445648193359375</LatitudeDegrees>
              <LongitudeDegrees>-5.37714578211307525634765625</LongitudeDegrees>
            </Position>
            <AltitudeMeters>103.40000152587890625</AltitudeMeters>
            <DistanceMeters>8221.091786665</DistanceMeters>
          </Trackpoint>
          <Trackpoint>
            <Time>2018-06-10T09:19:13.000Z</Time>
            <Position>
              <LatitudeDegrees>35.90990454889833927154541015625</LatitudeDegrees>
              <LongitudeDegrees>-5.37713312543928623199462890625</LongitudeDegrees>
            </Position>
            <AltitudeMeters>103.8000030517578125</AltitudeMeters>
            <DistanceMeters>8222.286253943</DistanceMeters>
          </Trackpoint>
          <Trackpoint>
            <Time>2018-06-10T09:19:14.000Z</Time>
            <Position>
              <LatitudeDegrees>35.90990521945059299468994140625</LatitudeDegrees>
              <LongitudeDegrees>-5.3771268390119075775146484375</LongitudeDegrees>
            </Position>
            <AltitudeMeters>104</AltitudeMeters>
            <DistanceMeters>8222.8484395667</DistanceMeters>
          </Trackpoint>
          <Trackpoint>
            <Time>2018-06-10T09:19:15.000Z</Time>
            <Position>
              <LatitudeDegrees>35.9099063090980052947998046875</LatitudeDegrees>
              <LongitudeDegrees>-5.37711787037551403045654296875</LongitudeDegrees>
            </Position>
            <AltitudeMeters>104.1999969482421875</AltitudeMeters>
            <DistanceMeters>8223.6603481702</DistanceMeters>
          </Trackpoint>
          <Trackpoint>
            <Time>2018-06-10T09:19:16.000Z</Time>
            <Position>
              <LatitudeDegrees>35.9099086560308933258056640625</LatitudeDegrees>
              <LongitudeDegrees>-5.377107225358486175537109375</LongitudeDegrees>
            </Position>
            <AltitudeMeters>104.40000152587890625</AltitudeMeters>
            <DistanceMeters>8224.6524561948</DistanceMeters>
          </Trackpoint>
          <Trackpoint>
            <Time>2018-06-10T09:19:21.000Z</Time>
            <Position>
              <LatitudeDegrees>35.9099217317998409271240234375</LatitudeDegrees>
              <LongitudeDegrees>-5.37705198861658573150634765625</LongitudeDegrees>
            </Position>
            <AltitudeMeters>106</AltitudeMeters>
            <DistanceMeters>8229.8399052599</DistanceMeters>
          </Trackpoint>
          <Trackpoint>
            <Time>2018-06-10T09:19:25.000Z</Time>
            <Position>
              <LatitudeDegrees>35.90991930104792118072509765625</LatitudeDegrees>
              <LongitudeDegrees>-5.37701628170907497406005859375</LongitudeDegrees>
            </Position>
            <AltitudeMeters>107</AltitudeMeters>
            <DistanceMeters>8233.0708135485</DistanceMeters>
          </Trackpoint>
          <Trackpoint>
            <Time>2018-06-10T09:19:26.000Z</Time>
            <Position>
              <LatitudeDegrees>35.909918211400508880615234375</LatitudeDegrees>
              <LongitudeDegrees>-5.37700974382460117340087890625</LongitudeDegrees>
            </Position>
            <AltitudeMeters>107.1999969482421875</AltitudeMeters>
            <DistanceMeters>8233.6718152604</DistanceMeters>
          </Trackpoint>
          <Trackpoint>
            <Time>2018-06-10T09:19:29.000Z</Time>
            <Position>
              <LatitudeDegrees>35.90991561301052570343017578125</LatitudeDegrees>
              <LongitudeDegrees>-5.37699222564697265625</LongitudeDegrees>
            </Position>
            <AltitudeMeters>107.59999847412109375</AltitudeMeters>
            <DistanceMeters>8235.2788628213</DistanceMeters>
          </Trackpoint>
          <Trackpoint>
            <Time>2018-06-10T09:19:31.000Z</Time>
            <Position>
              <LatitudeDegrees>35.909917540848255157470703125</LatitudeDegrees>
              <LongitudeDegrees>-5.3769793175160884857177734375</LongitudeDegrees>
            </Position>
            <AltitudeMeters>108</AltitudeMeters>
            <DistanceMeters>8236.4657461034</DistanceMeters>
          </Trackpoint>
          <Trackpoint>
            <Time>2018-06-10T09:19:36.000Z</Time>
            <Position>
              <LatitudeDegrees>35.9099086560308933258056640625</LatitudeDegrees>
              <LongitudeDegrees>-5.37695609964430332183837890625</LongitudeDegrees>
            </Position>
            <AltitudeMeters>108.59999847412109375</AltitudeMeters>
            <DistanceMeters>8238.7797978165</DistanceMeters>
          </Trackpoint>
          <Trackpoint>
            <Time>2018-06-10T09:19:38.000Z</Time>
            <Position>
              <LatitudeDegrees>35.90991561301052570343017578125</LatitudeDegrees>
              <LongitudeDegrees>-5.3769347257912158966064453125</LongitudeDegrees>
            </Position>
            <AltitudeMeters>109.1999969482421875</AltitudeMeters>
            <DistanceMeters>8240.8573869338</DistanceMeters>
          </Trackpoint>
          <Trackpoint>
            <Time>2018-06-10T09:19:39.000Z</Time>
            <Position>
              <LatitudeDegrees>35.9099150262773036956787109375</LatitudeDegrees>
              <LongitudeDegrees>-5.37692910991609096527099609375</LongitudeDegrees>
            </Position>
            <AltitudeMeters>109.40000152587890625</AltitudeMeters>
            <DistanceMeters>8241.3602210421</DistanceMeters>
          </Trackpoint>
          <Trackpoint>
            <Time>2018-06-10T09:19:40.000Z</Time>
            <Position>
              <LatitudeDegrees>35.90991393662989139556884765625</LatitudeDegrees>
              <LongitudeDegrees>-5.37692307494580745697021484375</LongitudeDegrees>
            </Position>
            <AltitudeMeters>109.59999847412109375</AltitudeMeters>
            <DistanceMeters>8241.9143172423</DistanceMeters>
          </Trackpoint>
          <Trackpoint>
            <Time>2018-06-10T09:19:42.000Z</Time>
            <Position>
              <LatitudeDegrees>35.9099160321056842803955078125</LatitudeDegrees>
              <LongitudeDegrees>-5.3769136033952236175537109375</LongitudeDegrees>
            </Position>
            <AltitudeMeters>110</AltitudeMeters>
            <DistanceMeters>8242.8057468397</DistanceMeters>
          </Trackpoint>
          <Trackpoint>
            <Time>2018-06-10T09:19:47.000Z</Time>
            <Position>
              <LatitudeDegrees>35.90990857221186161041259765625</LatitudeDegrees>
              <LongitudeDegrees>-5.37688049487769603729248046875</LongitudeDegrees>
            </Position>
            <AltitudeMeters>110.8000030517578125</AltitudeMeters>
            <DistanceMeters>8245.9054244578</DistanceMeters>
          </Trackpoint>
          <Trackpoint>
            <Time>2018-06-10T09:19:52.000Z</Time>
            <Position>
              <LatitudeDegrees>35.90990589000284671783447265625</LatitudeDegrees>
              <LongitudeDegrees>-5.3768425248563289642333984375</LongitudeDegrees>
            </Position>
            <AltitudeMeters>112</AltitudeMeters>
            <DistanceMeters>8249.3421874681</DistanceMeters>
          </Trackpoint>
          <Trackpoint>
            <Time>2018-06-10T09:19:57.000Z</Time>
            <Position>
              <LatitudeDegrees>35.90990505181252956390380859375</LatitudeDegrees>
              <LongitudeDegrees>-5.37681159563362598419189453125</LongitudeDegrees>
            </Position>
            <AltitudeMeters>112.8000030517578125</AltitudeMeters>
            <DistanceMeters>8252.1321562662</DistanceMeters>
          </Trackpoint>
          <Trackpoint>
            <Time>2018-06-10T09:20:01.000Z</Time>
            <Position>
              <LatitudeDegrees>35.9099022857844829559326171875</LatitudeDegrees>
              <LongitudeDegrees>-5.37679432891309261322021484375</LongitudeDegrees>
            </Position>
            <AltitudeMeters>113.40000152587890625</AltitudeMeters>
            <DistanceMeters>8253.7194153276</DistanceMeters>
          </Trackpoint>
          <Trackpoint>
            <Time>2018-06-10T09:20:02.000Z</Time>
            <Position>
              <LatitudeDegrees>35.9099026210606098175048828125</LatitudeDegrees>
              <LongitudeDegrees>-5.37678829394280910491943359375</LongitudeDegrees>
            </Position>
            <AltitudeMeters>113.40000152587890625</AltitudeMeters>
            <DistanceMeters>8254.2735115278</DistanceMeters>
          </Trackpoint>
          <Trackpoint>
            <Time>2018-06-10T09:20:04.000Z</Time>
            <Position>
              <LatitudeDegrees>35.90990035794675350189208984375</LatitudeDegrees>
              <LongitudeDegrees>-5.3767778165638446807861328125</LongitudeDegrees>
            </Position>
            <AltitudeMeters>113.8000030517578125</AltitudeMeters>
            <DistanceMeters>8255.2518714325</DistanceMeters>
          </Trackpoint>
          <Trackpoint>
            <Time>2018-06-10T09:20:05.000Z</Time>
            <Position>
              <LatitudeDegrees>35.9099006094038486480712890625</LatitudeDegrees>
              <LongitudeDegrees>-5.37677295506000518798828125</LongitudeDegrees>
            </Position>
            <AltitudeMeters>114</AltitudeMeters>
            <DistanceMeters>8255.6768438185</DistanceMeters>
          </Trackpoint>
          <Trackpoint>
            <Time>2018-06-10T09:20:12.000Z</Time>
            <Position>
              <LatitudeDegrees>35.90990446507930755615234375</LatitudeDegrees>
              <LongitudeDegrees>-5.37676147185266017913818359375</LongitudeDegrees>
            </Position>
            <AltitudeMeters>114.1999969482421875</AltitudeMeters>
            <DistanceMeters>8256.7971922579</DistanceMeters>
          </Trackpoint>
          <Trackpoint>
            <Time>2018-06-10T09:20:19.000Z</Time>
            <Position>
              <LatitudeDegrees>35.90990488417446613311767578125</LatitudeDegrees>
              <LongitudeDegrees>-5.3767590411007404327392578125</LongitudeDegrees>
            </Position>
            <AltitudeMeters>114.40000152587890625</AltitudeMeters>
            <DistanceMeters>8257.02995922</DistanceMeters>
          </Trackpoint>
          <Trackpoint>
            <Time>2018-06-10T09:20:24.000Z</Time>
            <Position>
              <LatitudeDegrees>35.90990639291703701019287109375</LatitudeDegrees>
              <LongitudeDegrees>-5.37676029838621616363525390625</LongitudeDegrees>
            </Position>
            <AltitudeMeters>114.40000152587890625</AltitudeMeters>
            <DistanceMeters>8257.242445413</DistanceMeters>
          </Trackpoint>
          <Trackpoint>
            <Time>2018-06-10T09:20:31.000Z</Time>
            <Position>
              <LatitudeDegrees>35.90990723110735416412353515625</LatitudeDegrees>
              <LongitudeDegrees>-5.3767607174813747406005859375</LongitudeDegrees>
            </Position>
            <AltitudeMeters>114.1999969482421875</AltitudeMeters>
            <DistanceMeters>8257.3374721274</DistanceMeters>
          </Trackpoint>
          <Trackpoint>
            <Time>2018-06-10T09:20:41.000Z</Time>
            <Position>
              <LatitudeDegrees>35.909898094832897186279296875</LatitudeDegrees>
              <LongitudeDegrees>-5.37675661034882068634033203125</LongitudeDegrees>
            </Position>
            <AltitudeMeters>114.40000152587890625</AltitudeMeters>
            <DistanceMeters>8258.41676813</DistanceMeters>
          </Trackpoint>
          <Trackpoint>
            <Time>2018-06-10T09:20:45.000Z</Time>
            <Position>
              <LatitudeDegrees>35.90989817865192890167236328125</LatitudeDegrees>
              <LongitudeDegrees>-5.37676566280424594879150390625</LongitudeDegrees>
            </Position>
            <AltitudeMeters>114.1999969482421875</AltitudeMeters>
            <DistanceMeters>8259.2286767335</DistanceMeters>
          </Trackpoint>
          <Trackpoint>
            <Time>2018-06-10T09:20:47.000Z</Time>
            <Position>
              <LatitudeDegrees>35.9098965860903263092041015625</LatitudeDegrees>
              <LongitudeDegrees>-5.37676599808037281036376953125</LongitudeDegrees>
            </Position>
            <AltitudeMeters>114.1999969482421875</AltitudeMeters>
            <DistanceMeters>8259.3932678309</DistanceMeters>
          </Trackpoint>
          <Trackpoint>
            <Time>2018-06-10T09:20:54.000Z</Time>
            <Position>
              <LatitudeDegrees>35.909875966608524322509765625</LatitudeDegrees>
              <LongitudeDegrees>-5.37676448933780193328857421875</LongitudeDegrees>
            </Position>
            <AltitudeMeters>114.1999969482421875</AltitudeMeters>
            <DistanceMeters>8261.6916574236</DistanceMeters>
          </Trackpoint>
          <Trackpoint>
            <Time>2018-06-10T09:20:55.000Z</Time>
            <Position>
              <LatitudeDegrees>35.9098751284182071685791015625</LatitudeDegrees>
              <LongitudeDegrees>-5.37676650099456310272216796875</LongitudeDegrees>
            </Position>
            <AltitudeMeters>114</AltitudeMeters>
            <DistanceMeters>8261.9244243857</DistanceMeters>
          </Trackpoint>
          <Trackpoint>
            <Time>2018-06-10T09:20:57.000Z</Time>
            <Position>
              <LatitudeDegrees>35.909876637160778045654296875</LatitudeDegrees>
              <LongitudeDegrees>-5.37676884792745113372802734375</LongitudeDegrees>
            </Position>
            <AltitudeMeters>114</AltitudeMeters>
            <DistanceMeters>8262.1932005222</DistanceMeters>
          </Trackpoint>
          <Trackpoint>
            <Time>2018-06-10T09:21:03.000Z</Time>
            <Position>
              <LatitudeDegrees>35.90987403877079486846923828125</LatitudeDegrees>
              <LongitudeDegrees>-5.37677236832678318023681640625</LongitudeDegrees>
            </Position>
            <AltitudeMeters>114</AltitudeMeters>
            <DistanceMeters>8262.6286676338</DistanceMeters>
          </Trackpoint>
          <Trackpoint>
            <Time>2018-06-10T09:21:12.000Z</Time>
            <Position>
              <LatitudeDegrees>35.9098742902278900146484375</LatitudeDegrees>
              <LongitudeDegrees>-5.376763232052326202392578125</LongitudeDegrees>
            </Position>
            <AltitudeMeters>114.1999969482421875</AltitudeMeters>
            <DistanceMeters>8263.4570913236</DistanceMeters>
          </Trackpoint>
          <Trackpoint>
            <Time>2018-06-10T09:21:17.000Z</Time>
            <Position>
              <LatitudeDegrees>35.90987286530435085296630859375</LatitudeDegrees>
              <LongitudeDegrees>-5.3767630644142627716064453125</LongitudeDegrees>
            </Position>
            <AltitudeMeters>114.1999969482421875</AltitudeMeters>
            <DistanceMeters>8263.6471447523</DistanceMeters>
          </Trackpoint>
          <Trackpoint>
            <Time>2018-06-10T09:21:34.000Z</Time>
            <Position>
              <LatitudeDegrees>35.909844450652599334716796875</LatitudeDegrees>
              <LongitudeDegrees>-5.3767050616443157196044921875</LongitudeDegrees>
            </Position>
            <AltitudeMeters>115.8000030517578125</AltitudeMeters>
            <DistanceMeters>8269.7570003987</DistanceMeters>
          </Trackpoint>
          <Trackpoint>
            <Time>2018-06-10T09:21:36.000Z</Time>
            <Position>
              <LatitudeDegrees>35.90984101407229900360107421875</LatitudeDegrees>
              <LongitudeDegrees>-5.376691482961177825927734375</LongitudeDegrees>
            </Position>
            <AltitudeMeters>116.1999969482421875</AltitudeMeters>
            <DistanceMeters>8271.0389808637</DistanceMeters>
          </Trackpoint>
          <Trackpoint>
            <Time>2018-06-10T09:21:37.000Z</Time>
            <Position>
              <LatitudeDegrees>35.909837745130062103271484375</LatitudeDegrees>
              <LongitudeDegrees>-5.37668452598154544830322265625</LongitudeDegrees>
            </Position>
            <AltitudeMeters>116.40000152587890625</AltitudeMeters>
            <DistanceMeters>8271.7564168242</DistanceMeters>
          </Trackpoint>
          <Trackpoint>
            <Time>2018-06-10T09:21:39.000Z</Time>
            <Position>
              <LatitudeDegrees>35.909833721816539764404296875</LatitudeDegrees>
              <LongitudeDegrees>-5.376666672527790069580078125</LongitudeDegrees>
            </Position>
            <AltitudeMeters>117</AltitudeMeters>
            <DistanceMeters>8273.4241288931</DistanceMeters>
          </Trackpoint>
          <Trackpoint>
            <Time>2018-06-10T09:21:40.000Z</Time>
            <Position>
              <LatitudeDegrees>35.90983145870268344879150390625</LatitudeDegrees>
              <LongitudeDegrees>-5.37665971554815769195556640625</LongitudeDegrees>
            </Position>
            <AltitudeMeters>117.1999969482421875</AltitudeMeters>
            <DistanceMeters>8274.0960692343</DistanceMeters>
          </Trackpoint>
          <Trackpoint>
            <Time>2018-06-10T09:21:42.000Z</Time>
            <Position>
              <LatitudeDegrees>35.90982936322689056396484375</LatitudeDegrees>
              <LongitudeDegrees>-5.37664823234081268310546875</LongitudeDegrees>
            </Position>
            <AltitudeMeters>117.40000152587890625</AltitudeMeters>
            <DistanceMeters>8275.1542419419</DistanceMeters>
          </Trackpoint>
          <Trackpoint>
            <Time>2018-06-10T09:21:43.000Z</Time>
            <Position>
              <LatitudeDegrees>35.90982676483690738677978515625</LatitudeDegrees>
              <LongitudeDegrees>-5.37664328701794147491455078125</LongitudeDegrees>
            </Position>
            <AltitudeMeters>117.59999847412109375</AltitudeMeters>
            <DistanceMeters>8275.6747246921</DistanceMeters>
          </Trackpoint>
          <Trackpoint>
            <Time>2018-06-10T09:21:44.000Z</Time>
            <Position>
              <LatitudeDegrees>35.9098248369991779327392578125</LatitudeDegrees>
              <LongitudeDegrees>-5.37663624621927738189697265625</LongitudeDegrees>
            </Position>
            <AltitudeMeters>117.8000030517578125</AltitudeMeters>
            <DistanceMeters>8276.3466650334</DistanceMeters>
          </Trackpoint>
          <Trackpoint>
            <Time>2018-06-10T09:21:48.000Z</Time>
            <Position>
              <LatitudeDegrees>35.909822992980480194091796875</LatitudeDegrees>
              <LongitudeDegrees>-5.3766041435301303863525390625</LongitudeDegrees>
            </Position>
            <AltitudeMeters>118.8000030517578125</AltitudeMeters>
            <DistanceMeters>8279.247704717</DistanceMeters>
          </Trackpoint>
          <Trackpoint>
            <Time>2018-06-10T09:21:50.000Z</Time>
            <Position>
              <LatitudeDegrees>35.9098184667527675628662109375</LatitudeDegrees>
              <LongitudeDegrees>-5.376592911779880523681640625</LongitudeDegrees>
            </Position>
            <AltitudeMeters>119</AltitudeMeters>
            <DistanceMeters>8280.3800787078</DistanceMeters>
          </Trackpoint>
          <Trackpoint>
            <Time>2018-06-10T09:21:54.000Z</Time>
            <Position>
              <LatitudeDegrees>35.9098198078572750091552734375</LatitudeDegrees>
              <LongitudeDegrees>-5.37657002918422222137451171875</LongitudeDegrees>
            </Position>
            <AltitudeMeters>119.59999847412109375</AltitudeMeters>
            <DistanceMeters>8282.4467732082</DistanceMeters>
          </Trackpoint>
          <Trackpoint>
            <Time>2018-06-10T09:21:56.000Z</Time>
            <Position>
              <LatitudeDegrees>35.9098261781036853790283203125</LatitudeDegrees>
              <LongitudeDegrees>-5.37655946798622608184814453125</LongitudeDegrees>
            </Position>
            <AltitudeMeters>120</AltitudeMeters>
            <DistanceMeters>8283.6336564903</DistanceMeters>
          </Trackpoint>
          <Trackpoint>
            <Time>2018-06-10T09:21:58.000Z</Time>
            <Position>
              <LatitudeDegrees>35.90982911176979541778564453125</LatitudeDegrees>
              <LongitudeDegrees>-5.37654572166502475738525390625</LongitudeDegrees>
            </Position>
            <AltitudeMeters>120.40000152587890625</AltitudeMeters>
            <DistanceMeters>8284.9156369553</DistanceMeters>
          </Trackpoint>
          <Trackpoint>
            <Time>2018-06-10T09:22:01.000Z</Time>
            <Position>
              <LatitudeDegrees>35.90982626192271709442138671875</LatitudeDegrees>
              <LongitudeDegrees>-5.3765223361551761627197265625</LongitudeDegrees>
            </Position>
            <AltitudeMeters>121</AltitudeMeters>
            <DistanceMeters>8287.0468639379</DistanceMeters>
          </Trackpoint>
          <Trackpoint>
            <Time>2018-06-10T09:22:02.000Z</Time>
            <Position>
              <LatitudeDegrees>35.90982575900852680206298828125</LatitudeDegrees>
              <LongitudeDegrees>-5.376515798270702362060546875</LongitudeDegrees>
            </Position>
            <AltitudeMeters>121.1999969482421875</AltitudeMeters>
            <DistanceMeters>8287.6403055789</DistanceMeters>
          </Trackpoint>
          <Trackpoint>
            <Time>2018-06-10T09:22:07.000Z</Time>
            <Position>
              <LatitudeDegrees>35.9098043851554393768310546875</LatitudeDegrees>
              <LongitudeDegrees>-5.37650096230208873748779296875</LongitudeDegrees>
            </Position>
            <AltitudeMeters>121.59999847412109375</AltitudeMeters>
            <DistanceMeters>8290.3680854436</DistanceMeters>
          </Trackpoint>
          <Trackpoint>
            <Time>2018-06-10T09:22:08.000Z</Time>
            <Position>
              <LatitudeDegrees>35.90980262495577335357666015625</LatitudeDegrees>
              <LongitudeDegrees>-5.37649392150342464447021484375</LongitudeDegrees>
            </Position>
            <AltitudeMeters>121.8000030517578125</AltitudeMeters>
            <DistanceMeters>8291.0332724441</DistanceMeters>
          </Trackpoint>
          <Trackpoint>
            <Time>2018-06-10T09:22:12.000Z</Time>
            <Position>
              <LatitudeDegrees>35.9097991883754730224609375</LatitudeDegrees>
              <LongitudeDegrees>-5.37647212855517864227294921875</LongitudeDegrees>
            </Position>
            <AltitudeMeters>122.40000152587890625</AltitudeMeters>
            <DistanceMeters>8293.0378631798</DistanceMeters>
          </Trackpoint>
          <Trackpoint>
            <Time>2018-06-10T09:22:16.000Z</Time>
            <Position>
              <LatitudeDegrees>35.909792818129062652587890625</LatitudeDegrees>
              <LongitudeDegrees>-5.3764344938099384307861328125</LongitudeDegrees>
            </Position>
            <AltitudeMeters>123.59999847412109375</AltitudeMeters>
            <DistanceMeters>8296.5034081111</DistanceMeters>
          </Trackpoint>
          <Trackpoint>
            <Time>2018-06-10T09:22:17.000Z</Time>
            <Position>
              <LatitudeDegrees>35.9097906388342380523681640625</LatitudeDegrees>
              <LongitudeDegrees>-5.3764237649738788604736328125</LongitudeDegrees>
            </Position>
            <AltitudeMeters>123.8000030517578125</AltitudeMeters>
            <DistanceMeters>8297.5045766709</DistanceMeters>
          </Trackpoint>
          <Trackpoint>
            <Time>2018-06-10T09:22:18.000Z</Time>
            <Position>
              <LatitudeDegrees>35.90979206375777721405029296875</LatitudeDegrees>
              <LongitudeDegrees>-5.376412533223628997802734375</LongitudeDegrees>
            </Position>
            <AltitudeMeters>124.1999969482421875</AltitudeMeters>
            <DistanceMeters>8298.5280457069</DistanceMeters>
          </Trackpoint>
          <Trackpoint>
            <Time>2018-06-10T09:22:19.000Z</Time>
            <Position>
              <LatitudeDegrees>35.909790806472301483154296875</LatitudeDegrees>
              <LongitudeDegrees>-5.37640415132045745849609375</LongitudeDegrees>
            </Position>
            <AltitudeMeters>124.40000152587890625</AltitudeMeters>
            <DistanceMeters>8299.2882594218</DistanceMeters>
          </Trackpoint>
          <Trackpoint>
            <Time>2018-06-10T09:22:20.000Z</Time>
            <Position>
              <LatitudeDegrees>35.90978921391069889068603515625</LatitudeDegrees>
              <LongitudeDegrees>-5.3763945959508419036865234375</LongitudeDegrees>
            </Position>
            <AltitudeMeters>124.59999847412109375</AltitudeMeters>
            <DistanceMeters>8300.1591936451</DistanceMeters>
          </Trackpoint>
          <Trackpoint>
            <Time>2018-06-10T09:22:23.000Z</Time>
            <Position>
              <LatitudeDegrees>35.90978116728365421295166015625</LatitudeDegrees>
              <LongitudeDegrees>-5.3763744793832302093505859375</LongitudeDegrees>
            </Position>
            <AltitudeMeters>125.1999969482421875</AltitudeMeters>
            <DistanceMeters>8302.1794893048</DistanceMeters>
          </Trackpoint>
          <Trackpoint>
            <Time>2018-06-10T09:22:26.000Z</Time>
            <Position>
              <LatitudeDegrees>35.909776389598846435546875</LatitudeDegrees>
              <LongitudeDegrees>-5.37636232562363147735595703125</LongitudeDegrees>
            </Position>
            <AltitudeMeters>125.59999847412109375</AltitudeMeters>
            <DistanceMeters>8303.3964250208</DistanceMeters>
          </Trackpoint>
          <Trackpoint>
            <Time>2018-06-10T09:22:31.000Z</Time>
            <Position>
              <LatitudeDegrees>35.9097732044756412506103515625</LatitudeDegrees>
              <LongitudeDegrees>-5.3763444721698760986328125</LongitudeDegrees>
            </Position>
            <AltitudeMeters>126.1999969482421875</AltitudeMeters>
            <DistanceMeters>8305.0450768972</DistanceMeters>
          </Trackpoint>
          <Trackpoint>
            <Time>2018-06-10T09:22:32.000Z</Time>
            <Position>
              <LatitudeDegrees>35.9097732044756412506103515625</LatitudeDegrees>
              <LongitudeDegrees>-5.37634371779859066009521484375</LongitudeDegrees>
            </Position>
            <AltitudeMeters>126.1999969482421875</AltitudeMeters>
            <DistanceMeters>8305.1401036116</DistanceMeters>
          </Trackpoint>
          <Trackpoint>
            <Time>2018-06-10T09:22:40.000Z</Time>
            <Position>
              <LatitudeDegrees>35.90974747203290462493896484375</LatitudeDegrees>
              <LongitudeDegrees>-5.3763015568256378173828125</LongitudeDegrees>
            </Position>
            <AltitudeMeters>127.1999969482421875</AltitudeMeters>
            <DistanceMeters>8309.8990353952</DistanceMeters>
          </Trackpoint>
          <Trackpoint>
            <Time>2018-06-10T09:22:42.000Z</Time>
            <Position>
              <LatitudeDegrees>35.90973573736846446990966796875</LatitudeDegrees>
              <LongitudeDegrees>-5.37628035061061382293701171875</LongitudeDegrees>
            </Position>
            <AltitudeMeters>127.8000030517578125</AltitudeMeters>
            <DistanceMeters>8312.2150374263</DistanceMeters>
          </Trackpoint>
          <Trackpoint>
            <Time>2018-06-10T09:22:48.000Z</Time>
            <Position>
              <LatitudeDegrees>35.90972249396145343780517578125</LatitudeDegrees>
              <LongitudeDegrees>-5.37620541639626026153564453125</LongitudeDegrees>
            </Position>
            <AltitudeMeters>129.600006103515625</AltitudeMeters>
            <DistanceMeters>8319.1291696708</DistanceMeters>
          </Trackpoint>
          <Trackpoint>
            <Time>2018-06-10T09:22:50.000Z</Time>
            <Position>
              <LatitudeDegrees>35.90971746481955051422119140625</LatitudeDegrees>
              <LongitudeDegrees>-5.37618043832480907440185546875</LongitudeDegrees>
            </Position>
            <AltitudeMeters>130.1999969482421875</AltitudeMeters>
            <DistanceMeters>8321.4510128259</DistanceMeters>
          </Trackpoint>
          <Trackpoint>
            <Time>2018-06-10T09:22:55.000Z</Time>
            <Position>
              <LatitudeDegrees>35.90971830300986766815185546875</LatitudeDegrees>
              <LongitudeDegrees>-5.37612344138324260711669921875</LongitudeDegrees>
            </Position>
            <AltitudeMeters>131.600006103515625</AltitudeMeters>
            <DistanceMeters>8326.5903681939</DistanceMeters>
          </Trackpoint>
          <Trackpoint>
            <Time>2018-06-10T09:22:57.000Z</Time>
            <Position>
              <LatitudeDegrees>35.90971612371504306793212890625</LatitudeDegrees>
              <LongitudeDegrees>-5.3761045821011066436767578125</LongitudeDegrees>
            </Position>
            <AltitudeMeters>132.1999969482421875</AltitudeMeters>
            <DistanceMeters>8328.3061201925</DistanceMeters>
          </Trackpoint>
          <Trackpoint>
            <Time>2018-06-10T09:23:04.000Z</Time>
            <Position>
              <LatitudeDegrees>35.90969659388065338134765625</LatitudeDegrees>
              <LongitudeDegrees>-5.37602168507874011993408203125</LongitudeDegrees>
            </Position>
            <AltitudeMeters>134</AltitudeMeters>
            <DistanceMeters>8336.0884542068</DistanceMeters>
          </Trackpoint>
          <Trackpoint>
            <Time>2018-06-10T09:23:09.000Z</Time>
            <Position>
              <LatitudeDegrees>35.90968728996813297271728515625</LatitudeDegrees>
              <LongitudeDegrees>-5.37600450217723846435546875</LongitudeDegrees>
            </Position>
            <AltitudeMeters>134.399993896484375</AltitudeMeters>
            <DistanceMeters>8337.9554329178</DistanceMeters>
          </Trackpoint>
          <Trackpoint>
            <Time>2018-06-10T09:23:18.000Z</Time>
            <Position>
              <LatitudeDegrees>35.9097053110599517822265625</LatitudeDegrees>
              <LongitudeDegrees>-5.37595613859593868255615234375</LongitudeDegrees>
            </Position>
            <AltitudeMeters>135.8000030517578125</AltitudeMeters>
            <DistanceMeters>8342.7559282136</DistanceMeters>
          </Trackpoint>
          <Trackpoint>
            <Time>2018-06-10T09:23:22.000Z</Time>
            <Position>
              <LatitudeDegrees>35.909717716276645660400390625</LatitudeDegrees>
              <LongitudeDegrees>-5.37592730484902858734130859375</LongitudeDegrees>
            </Position>
            <AltitudeMeters>136.600006103515625</AltitudeMeters>
            <DistanceMeters>8345.7002232712</DistanceMeters>
          </Trackpoint>
          <Trackpoint>
            <Time>2018-06-10T09:23:30.000Z</Time>
            <Position>
              <LatitudeDegrees>35.90978016145527362823486328125</LatitudeDegrees>
              <LongitudeDegrees>-5.37585589103400707244873046875</LongitudeDegrees>
            </Position>
            <AltitudeMeters>138.1999969482421875</AltitudeMeters>
            <DistanceMeters>8355.1733906243</DistanceMeters>
          </Trackpoint>
          <Trackpoint>
            <Time>2018-06-10T09:23:33.000Z</Time>
            <Position>
              <LatitudeDegrees>35.90979776345193386077880859375</LatitudeDegrees>
              <LongitudeDegrees>-5.37584734149277210235595703125</LongitudeDegrees>
            </Position>
            <AltitudeMeters>138.399993896484375</AltitudeMeters>
            <DistanceMeters>8357.2790419568</DistanceMeters>
          </Trackpoint>
          <Trackpoint>
            <Time>2018-06-10T09:23:42.000Z</Time>
            <Position>
              <LatitudeDegrees>35.9098707698285579681396484375</LatitudeDegrees>
              <LongitudeDegrees>-5.37580274976789951324462890625</LongitudeDegrees>
            </Position>
            <AltitudeMeters>139</AltitudeMeters>
            <DistanceMeters>8366.3450088546</DistanceMeters>
          </Trackpoint>
          <Trackpoint>
            <Time>2018-06-10T09:23:43.000Z</Time>
            <Position>
              <LatitudeDegrees>35.90987772680819034576416015625</LatitudeDegrees>
              <LongitudeDegrees>-5.37580006755888462066650390625</LongitudeDegrees>
            </Position>
            <AltitudeMeters>139</AltitudeMeters>
            <DistanceMeters>8367.1569174581</DistanceMeters>
          </Trackpoint>
          <Trackpoint>
            <Time>2018-06-10T09:23:44.000Z</Time>
            <Position>
              <LatitudeDegrees>35.9098845161497592926025390625</LatitudeDegrees>
              <LongitudeDegrees>-5.375794284045696258544921875</LongitudeDegrees>
            </Position>
            <AltitudeMeters>139.1999969482421875</AltitudeMeters>
            <DistanceMeters>8368.0733219044</DistanceMeters>
          </Trackpoint>
          <Trackpoint>
            <Time>2018-06-10T09:23:46.000Z</Time>
            <Position>
              <LatitudeDegrees>35.9099076502025127410888671875</LatitudeDegrees>
              <LongitudeDegrees>-5.37578430958092212677001953125</LongitudeDegrees>
            </Position>
            <AltitudeMeters>139.1999969482421875</AltitudeMeters>
            <DistanceMeters>8370.7977893454</DistanceMeters>
          </Trackpoint>
          <Trackpoint>
            <Time>2018-06-10T09:23:47.000Z</Time>
            <Position>
              <LatitudeDegrees>35.909920223057270050048828125</LatitudeDegrees>
              <LongitudeDegrees>-5.3757733292877674102783203125</LongitudeDegrees>
            </Position>
            <AltitudeMeters>139.399993896484375</AltitudeMeters>
            <DistanceMeters>8372.5082702041</DistanceMeters>
          </Trackpoint>
          <Trackpoint>
            <Time>2018-06-10T09:23:51.000Z</Time>
            <Position>
              <LatitudeDegrees>35.909958444535732269287109375</LatitudeDegrees>
              <LongitudeDegrees>-5.37573887966573238372802734375</LongitudeDegrees>
            </Position>
            <AltitudeMeters>140.1999969482421875</AltitudeMeters>
            <DistanceMeters>8377.7751853198</DistanceMeters>
          </Trackpoint>
          <Trackpoint>
            <Time>2018-06-10T09:23:55.000Z</Time>
            <Position>
              <LatitudeDegrees>35.9099971689283847808837890625</LatitudeDegrees>
              <LongitudeDegrees>-5.37571574561297893524169921875</LongitudeDegrees>
            </Position>
            <AltitudeMeters>140.399993896484375</AltitudeMeters>
            <DistanceMeters>8382.5643808856</DistanceMeters>
          </Trackpoint>
          <Trackpoint>
            <Time>2018-06-10T09:23:58.000Z</Time>
            <Position>
              <LatitudeDegrees>35.91001535765826702117919921875</LatitudeDegrees>
              <LongitudeDegrees>-5.37568942643702030181884765625</LongitudeDegrees>
            </Position>
            <AltitudeMeters>141</AltitudeMeters>
            <DistanceMeters>8385.6843844764</DistanceMeters>
          </Trackpoint>
          <Trackpoint>
            <Time>2018-06-10T09:24:02.000Z</Time>
            <Position>
              <LatitudeDegrees>35.91002642177045345306396484375</LatitudeDegrees>
              <LongitudeDegrees>-5.375666879117488861083984375</LongitudeDegrees>
            </Position>
            <AltitudeMeters>141.600006103515625</AltitudeMeters>
            <DistanceMeters>8388.0600523356</DistanceMeters>
          </Trackpoint>
          <Trackpoint>
            <Time>2018-06-10T09:24:07.000Z</Time>
            <Position>
              <LatitudeDegrees>35.9100327081978321075439453125</LatitudeDegrees>
              <LongitudeDegrees>-5.37565757520496845245361328125</LongitudeDegrees>
            </Position>
            <AltitudeMeters>141.8000030517578125</AltitudeMeters>
            <DistanceMeters>8389.1518261632</DistanceMeters>
          </Trackpoint>
          <Trackpoint>
            <Time>2018-06-10T09:24:08.000Z</Time>
            <Position>
              <LatitudeDegrees>35.91003715060651302337646484375</LatitudeDegrees>
              <LongitudeDegrees>-5.37565103732049465179443359375</LongitudeDegrees>
            </Position>
            <AltitudeMeters>141.8000030517578125</AltitudeMeters>
            <DistanceMeters>8389.9238268402</DistanceMeters>
          </Trackpoint>
          <Trackpoint>
            <Time>2018-06-10T09:24:11.000Z</Time>
            <Position>
              <LatitudeDegrees>35.91002424247562885284423828125</LatitudeDegrees>
              <LongitudeDegrees>-5.37563175894320011138916015625</LongitudeDegrees>
            </Position>
            <AltitudeMeters>142.399993896484375</AltitudeMeters>
            <DistanceMeters>8392.1805862679</DistanceMeters>
          </Trackpoint>
          <Trackpoint>
            <Time>2018-06-10T09:24:15.000Z</Time>
            <Position>
              <LatitudeDegrees>35.91000965796411037445068359375</LatitudeDegrees>
              <LongitudeDegrees>-5.37561164237558841705322265625</LongitudeDegrees>
            </Position>
            <AltitudeMeters>143</AltitudeMeters>
            <DistanceMeters>8394.6144576998</DistanceMeters>
          </Trackpoint>
          <Trackpoint>
            <Time>2018-06-10T09:24:20.000Z</Time>
            <Position>
              <LatitudeDegrees>35.9099869430065155029296875</LatitudeDegrees>
              <LongitudeDegrees>-5.37558800540864467620849609375</LongitudeDegrees>
            </Position>
            <AltitudeMeters>143.8000030517578125</AltitudeMeters>
            <DistanceMeters>8397.9199671155</DistanceMeters>
          </Trackpoint>
          <Trackpoint>
            <Time>2018-06-10T09:24:25.000Z</Time>
            <Position>
              <LatitudeDegrees>35.90992634184658527374267578125</LatitudeDegrees>
              <LongitudeDegrees>-5.37556788884103298187255859375</LongitudeDegrees>
            </Position>
            <AltitudeMeters>144.600006103515625</AltitudeMeters>
            <DistanceMeters>8404.9042690098</DistanceMeters>
          </Trackpoint>
          <Trackpoint>
            <Time>2018-06-10T09:24:33.000Z</Time>
            <Position>
              <LatitudeDegrees>35.9098586998879909515380859375</LatitudeDegrees>
              <LongitudeDegrees>-5.37552773952484130859375</LongitudeDegrees>
            </Position>
            <AltitudeMeters>146</AltitudeMeters>
            <DistanceMeters>8413.2568955791</DistanceMeters>
          </Trackpoint>
          <Trackpoint>
            <Time>2018-06-10T09:24:36.000Z</Time>
            <Position>
              <LatitudeDegrees>35.90983162634074687957763671875</LatitudeDegrees>
              <LongitudeDegrees>-5.37551072426140308380126953125</LongitudeDegrees>
            </Position>
            <AltitudeMeters>146.600006103515625</AltitudeMeters>
            <DistanceMeters>8416.6380310064</DistanceMeters>
          </Trackpoint>
          <Trackpoint>
            <Time>2018-06-10T09:24:39.000Z</Time>
            <Position>
              <LatitudeDegrees>35.9098003618419170379638671875</LatitudeDegrees>
              <LongitudeDegrees>-5.37549555301666259765625</LongitudeDegrees>
            </Position>
            <AltitudeMeters>147.1999969482421875</AltitudeMeters>
            <DistanceMeters>8420.3780294572</DistanceMeters>
          </Trackpoint>
          <Trackpoint>
            <Time>2018-06-10T09:24:43.000Z</Time>
            <Position>
              <LatitudeDegrees>35.9097587876021862030029296875</LatitudeDegrees>
              <LongitudeDegrees>-5.37549898959696292877197265625</LongitudeDegrees>
            </Position>
            <AltitudeMeters>147.399993896484375</AltitudeMeters>
            <DistanceMeters>8425.0158783216</DistanceMeters>
          </Trackpoint>
          <Trackpoint>
            <Time>2018-06-10T09:24:49.000Z</Time>
            <Position>
              <LatitudeDegrees>35.90967723168432712554931640625</LatitudeDegrees>
              <LongitudeDegrees>-5.375492870807647705078125</LongitudeDegrees>
            </Position>
            <AltitudeMeters>147.399993896484375</AltitudeMeters>
            <DistanceMeters>8434.1096916073</DistanceMeters>
          </Trackpoint>
          <Trackpoint>
            <Time>2018-06-10T09:24:51.000Z</Time>
            <Position>
              <LatitudeDegrees>35.909654684364795684814453125</LatitudeDegrees>
              <LongitudeDegrees>-5.37549597211182117462158203125</LongitudeDegrees>
            </Position>
            <AltitudeMeters>147.399993896484375</AltitudeMeters>
            <DistanceMeters>8436.6364017303</DistanceMeters>
          </Trackpoint>
          <Trackpoint>
            <Time>2018-06-10T09:25:02.000Z</Time>
            <Position>
              <LatitudeDegrees>35.90952518396079540252685546875</LatitudeDegrees>
              <LongitudeDegrees>-5.37549966014921665191650390625</LongitudeDegrees>
            </Position>
            <AltitudeMeters>146.8000030517578125</AltitudeMeters>
            <DistanceMeters>8451.0538678622</DistanceMeters>
          </Trackpoint>
          <Trackpoint>
            <Time>2018-06-10T09:25:06.000Z</Time>
            <Position>
              <LatitudeDegrees>35.90948008932173252105712890625</LatitudeDegrees>
              <LongitudeDegrees>-5.37550619803369045257568359375</LongitudeDegrees>
            </Position>
            <AltitudeMeters>146.600006103515625</AltitudeMeters>
            <DistanceMeters>8456.1081814911</DistanceMeters>
          </Trackpoint>
          <Trackpoint>
            <Time>2018-06-10T09:25:15.000Z</Time>
            <Position>
              <LatitudeDegrees>35.9093888103961944580078125</LatitudeDegrees>
              <LongitudeDegrees>-5.37551608867943286895751953125</LongitudeDegrees>
            </Position>
            <AltitudeMeters>146</AltitudeMeters>
            <DistanceMeters>8466.306633358</DistanceMeters>
          </Trackpoint>
          <Trackpoint>
            <Time>2018-06-10T09:25:17.000Z</Time>
            <Position>
              <LatitudeDegrees>35.9093675203621387481689453125</LatitudeDegrees>
              <LongitudeDegrees>-5.37551340647041797637939453125</LongitudeDegrees>
            </Position>
            <AltitudeMeters>146.1999969482421875</AltitudeMeters>
            <DistanceMeters>8468.6879959946</DistanceMeters>
          </Trackpoint>
          <Trackpoint>
            <Time>2018-06-10T09:25:18.000Z</Time>
            <Position>
              <LatitudeDegrees>35.90935654006898403167724609375</LatitudeDegrees>
              <LongitudeDegrees>-5.3755108080804347991943359375</LongitudeDegrees>
            </Position>
            <AltitudeMeters>146.1999969482421875</AltitudeMeters>
            <DistanceMeters>8469.9306315292</DistanceMeters>
          </Trackpoint>
          <Trackpoint>
            <Time>2018-06-10T09:25:21.000Z</Time>
            <Position>
              <LatitudeDegrees>35.9093279577791690826416015625</LatitudeDegrees>
              <LongitudeDegrees>-5.3755004145205020904541015625</LongitudeDegrees>
            </Position>
            <AltitudeMeters>146.399993896484375</AltitudeMeters>
            <DistanceMeters>8473.2470502466</DistanceMeters>
          </Trackpoint>
          <Trackpoint>
            <Time>2018-06-10T09:25:22.000Z</Time>
            <Position>
              <LatitudeDegrees>35.90931572020053863525390625</LatitudeDegrees>
              <LongitudeDegrees>-5.3754933737218379974365234375</LongitudeDegrees>
            </Position>
            <AltitudeMeters>146.600006103515625</AltitudeMeters>
            <DistanceMeters>8474.752556536</DistanceMeters>
          </Trackpoint>
          <Trackpoint>
            <Time>2018-06-10T09:25:33.000Z</Time>
            <Position>
              <LatitudeDegrees>35.90919443406164646148681640625</LatitudeDegrees>
              <LongitudeDegrees>-5.3754625283181667327880859375</LongitudeDegrees>
            </Position>
            <AltitudeMeters>146.8000030517578125</AltitudeMeters>
            <DistanceMeters>8488.5353616986</DistanceMeters>
          </Trackpoint>
          <Trackpoint>
            <Time>2018-06-10T09:25:45.000Z</Time>
            <Position>
              <LatitudeDegrees>35.909106172621250152587890625</LatitudeDegrees>
              <LongitudeDegrees>-5.3754276596009731292724609375</LongitudeDegrees>
            </Position>
            <AltitudeMeters>146.600006103515625</AltitudeMeters>
            <DistanceMeters>8498.8495912184</DistanceMeters>
          </Trackpoint>
          <Trackpoint>
            <Time>2018-06-10T09:25:55.000Z</Time>
            <Position>
              <LatitudeDegrees>35.90902159921824932098388671875</LatitudeDegrees>
              <LongitudeDegrees>-5.375345014035701751708984375</LongitudeDegrees>
            </Position>
            <AltitudeMeters>146.8000030517578125</AltitudeMeters>
            <DistanceMeters>8510.854591012</DistanceMeters>
          </Trackpoint>
          <Trackpoint>
            <Time>2018-06-10T09:25:57.000Z</Time>
            <Position>
              <LatitudeDegrees>35.90900215320289134979248046875</LatitudeDegrees>
              <LongitudeDegrees>-5.37531710229814052581787109375</LongitudeDegrees>
            </Position>
            <AltitudeMeters>147.1999969482421875</AltitudeMeters>
            <DistanceMeters>8514.1737314522</DistanceMeters>
          </Trackpoint>
          <Trackpoint>
            <Time>2018-06-10T09:26:09.000Z</Time>
            <Position>
              <LatitudeDegrees>35.90889821760356426239013671875</LatitudeDegrees>
              <LongitudeDegrees>-5.3751859255135059356689453125</LongitudeDegrees>
            </Position>
            <AltitudeMeters>149.1999969482421875</AltitudeMeters>
            <DistanceMeters>8530.7162967501</DistanceMeters>
          </Trackpoint>
          <Trackpoint>
            <Time>2018-06-10T09:26:14.000Z</Time>
            <Position>
              <LatitudeDegrees>35.90886485762894153594970703125</LatitudeDegrees>
              <LongitudeDegrees>-5.37513135932385921478271484375</LongitudeDegrees>
            </Position>
            <AltitudeMeters>149</AltitudeMeters>
            <DistanceMeters>8536.8791290148</DistanceMeters>
          </Trackpoint>
          <Trackpoint>
            <Time>2018-06-10T09:26:20.000Z</Time>
            <Position>
              <LatitudeDegrees>35.9088228642940521240234375</LatitudeDegrees>
              <LongitudeDegrees>-5.37506111897528171539306640625</LongitudeDegrees>
            </Position>
            <AltitudeMeters>149</AltitudeMeters>
            <DistanceMeters>8544.7491540674</DistanceMeters>
          </Trackpoint>
          <Trackpoint>
            <Time>2018-06-10T09:26:24.000Z</Time>
            <Position>
              <LatitudeDegrees>35.90880283154547214508056640625</LatitudeDegrees>
              <LongitudeDegrees>-5.37501275539398193359375</LongitudeDegrees>
            </Position>
            <AltitudeMeters>149.1999969482421875</AltitudeMeters>
            <DistanceMeters>8549.6464883459</DistanceMeters>
          </Trackpoint>
          <Trackpoint>
            <Time>2018-06-10T09:26:37.000Z</Time>
            <Position>
              <LatitudeDegrees>35.90872689150273799896240234375</LatitudeDegrees>
              <LongitudeDegrees>-5.37485115230083465576171875</LongitudeDegrees>
            </Position>
            <AltitudeMeters>149.600006103515625</AltitudeMeters>
            <DistanceMeters>8566.4892865543</DistanceMeters>
          </Trackpoint>
          <Trackpoint>
            <Time>2018-06-10T09:26:38.000Z</Time>
            <Position>
              <LatitudeDegrees>35.90872236527502536773681640625</LatitudeDegrees>
              <LongitudeDegrees>-5.3748392499983310699462890625</LongitudeDegrees>
            </Position>
            <AltitudeMeters>149.600006103515625</AltitudeMeters>
            <DistanceMeters>8567.6685370672</DistanceMeters>
          </Trackpoint>
          <Trackpoint>
            <Time>2018-06-10T09:26:41.000Z</Time>
            <Position>
              <LatitudeDegrees>35.90870325453579425811767578125</LatitudeDegrees>
              <LongitudeDegrees>-5.3748020343482494354248046875</LongitudeDegrees>
            </Position>
            <AltitudeMeters>150.600006103515625</AltitudeMeters>
            <DistanceMeters>8571.6392439906</DistanceMeters>
          </Trackpoint>
          <Trackpoint>
            <Time>2018-06-10T09:26:47.000Z</Time>
            <Position>
              <LatitudeDegrees>35.90865128673613071441650390625</LatitudeDegrees>
              <LongitudeDegrees>-5.37473791278898715972900390625</LongitudeDegrees>
            </Position>
            <AltitudeMeters>152.8000030517578125</AltitudeMeters>
            <DistanceMeters>8579.8170643691</DistanceMeters>
          </Trackpoint>
          <Trackpoint>
            <Time>2018-06-10T09:26:55.000Z</Time>
            <Position>
              <LatitudeDegrees>35.90857735835015773773193359375</LatitudeDegrees>
              <LongitudeDegrees>-5.37465593777596950531005859375</LongitudeDegrees>
            </Position>
            <AltitudeMeters>155.399993896484375</AltitudeMeters>
            <DistanceMeters>8590.8769656124</DistanceMeters>
          </Trackpoint>
          <Trackpoint>
            <Time>2018-06-10T09:27:13.000Z</Time>
            <Position>
              <LatitudeDegrees>35.90843050740659236907958984375</LatitudeDegrees>
              <LongitudeDegrees>-5.37451948039233684539794921875</LongitudeDegrees>
            </Position>
            <AltitudeMeters>154.399993896484375</AltitudeMeters>
            <DistanceMeters>8611.3335489675</DistanceMeters>
          </Trackpoint>
          <Trackpoint>
            <Time>2018-06-10T09:27:17.000Z</Time>
            <Position>
              <LatitudeDegrees>35.908388011157512664794921875</LatitudeDegrees>
              <LongitudeDegrees>-5.374484695494174957275390625</LongitudeDegrees>
            </Position>
            <AltitudeMeters>154.1999969482421875</AltitudeMeters>
            <DistanceMeters>8617.0081637209</DistanceMeters>
          </Trackpoint>
          <Trackpoint>
            <Time>2018-06-10T09:27:26.000Z</Time>
            <Position>
              <LatitudeDegrees>35.9082943014800548553466796875</LatitudeDegrees>
              <LongitudeDegrees>-5.37444102577865123748779296875</LongitudeDegrees>
            </Position>
            <AltitudeMeters>153.8000030517578125</AltitudeMeters>
            <DistanceMeters>8628.1562999821</DistanceMeters>
          </Trackpoint>
          <Trackpoint>
            <Time>2018-06-10T09:27:32.000Z</Time>
            <Position>
              <LatitudeDegrees>35.9082140028476715087890625</LatitudeDegrees>
              <LongitudeDegrees>-5.3744382597506046295166015625</LongitudeDegrees>
            </Position>
            <AltitudeMeters>154.8000030517578125</AltitudeMeters>
            <DistanceMeters>8637.096894855</DistanceMeters>
          </Trackpoint>
          <Trackpoint>
            <Time>2018-06-10T09:27:37.000Z</Time>
            <Position>
              <LatitudeDegrees>35.90816362760961055755615234375</LatitudeDegrees>
              <LongitudeDegrees>-5.37442292086780071258544921875</LongitudeDegrees>
            </Position>
            <AltitudeMeters>155.8000030517578125</AltitudeMeters>
            <DistanceMeters>8642.8724556402</DistanceMeters>
          </Trackpoint>
          <Trackpoint>
            <Time>2018-06-10T09:27:40.000Z</Time>
            <Position>
              <LatitudeDegrees>35.9081281721591949462890625</LatitudeDegrees>
              <LongitudeDegrees>-5.37441990338265895843505859375</LongitudeDegrees>
            </Position>
            <AltitudeMeters>156.399993896484375</AltitudeMeters>
            <DistanceMeters>8646.8283528175</DistanceMeters>
          </Trackpoint>
          <Trackpoint>
            <Time>2018-06-10T09:27:42.000Z</Time>
            <Position>
              <LatitudeDegrees>35.90810394845902919769287109375</LatitudeDegrees>
              <LongitudeDegrees>-5.374414958059787750244140625</LongitudeDegrees>
            </Position>
            <AltitudeMeters>157</AltitudeMeters>
            <DistanceMeters>8649.5594410883</DistanceMeters>
          </Trackpoint>
          <Trackpoint>
            <Time>2018-06-10T09:27:47.000Z</Time>
            <Position>
              <LatitudeDegrees>35.90803169645369052886962890625</LatitudeDegrees>
              <LongitudeDegrees>-5.37439676932990550994873046875</LongitudeDegrees>
            </Position>
            <AltitudeMeters>157.399993896484375</AltitudeMeters>
            <DistanceMeters>8657.767021138</DistanceMeters>
          </Trackpoint>
          <Trackpoint>
            <Time>2018-06-10T09:27:49.000Z</Time>
            <Position>
              <LatitudeDegrees>35.908001773059368133544921875</LatitudeDegrees>
              <LongitudeDegrees>-5.37439676932990550994873046875</LongitudeDegrees>
            </Position>
            <AltitudeMeters>157.1999969482421875</AltitudeMeters>
            <DistanceMeters>8661.0983818134</DistanceMeters>
          </Trackpoint>
          <Trackpoint>
            <Time>2018-06-10T09:28:00.000Z</Time>
            <Position>
              <LatitudeDegrees>35.90787897817790508270263671875</LatitudeDegrees>
              <LongitudeDegrees>-5.374399535357952117919921875</LongitudeDegrees>
            </Position>
            <AltitudeMeters>156.600006103515625</AltitudeMeters>
            <DistanceMeters>8674.7677030028</DistanceMeters>
          </Trackpoint>
          <Trackpoint>
            <Time>2018-06-10T09:28:02.000Z</Time>
            <Position>
              <LatitudeDegrees>35.907859615981578826904296875</LatitudeDegrees>
              <LongitudeDegrees>-5.3743940033018589019775390625</LongitudeDegrees>
            </Position>
            <AltitudeMeters>156.600006103515625</AltitudeMeters>
            <DistanceMeters>8676.9800098153</DistanceMeters>
          </Trackpoint>
          <Trackpoint>
            <Time>2018-06-10T09:28:17.000Z</Time>
            <Position>
              <LatitudeDegrees>35.90767848305404186248779296875</LatitudeDegrees>
              <LongitudeDegrees>-5.3743249364197254180908203125</LongitudeDegrees>
            </Position>
            <AltitudeMeters>155.8000030517578125</AltitudeMeters>
            <DistanceMeters>8698.0800064721</DistanceMeters>
          </Trackpoint>
          <Trackpoint>
            <Time>2018-06-10T09:28:21.000Z</Time>
            <Position>
              <LatitudeDegrees>35.90763674117624759674072265625</LatitudeDegrees>
              <LongitudeDegrees>-5.3743086755275726318359375</LongitudeDegrees>
            </Position>
            <AltitudeMeters>155.8000030517578125</AltitudeMeters>
            <DistanceMeters>8702.951458093</DistanceMeters>
          </Trackpoint>
          <Trackpoint>
            <Time>2018-06-10T09:28:24.000Z</Time>
            <Position>
              <LatitudeDegrees>35.9075992740690708160400390625</LatitudeDegrees>
              <LongitudeDegrees>-5.3742872178554534912109375</LongitudeDegrees>
            </Position>
            <AltitudeMeters>155.600006103515625</AltitudeMeters>
            <DistanceMeters>8707.5492193912</DistanceMeters>
          </Trackpoint>
          <Trackpoint>
            <Time>2018-06-10T09:28:26.000Z</Time>
            <Position>
              <LatitudeDegrees>35.90757488273084163665771484375</LatitudeDegrees>
              <LongitudeDegrees>-5.3742743097245693206787109375</LongitudeDegrees>
            </Position>
            <AltitudeMeters>156</AltitudeMeters>
            <DistanceMeters>8710.5027010391</DistanceMeters>
          </Trackpoint>
          <Trackpoint>
            <Time>2018-06-10T09:28:29.000Z</Time>
            <Position>
              <LatitudeDegrees>35.9075352363288402557373046875</LatitudeDegrees>
              <LongitudeDegrees>-5.37425461225211620330810546875</LongitudeDegrees>
            </Position>
            <AltitudeMeters>156.600006103515625</AltitudeMeters>
            <DistanceMeters>8715.257836307</DistanceMeters>
          </Trackpoint>
          <Trackpoint>
            <Time>2018-06-10T09:28:37.000Z</Time>
            <Position>
              <LatitudeDegrees>35.9074420295655727386474609375</LatitudeDegrees>
              <LongitudeDegrees>-5.37417263723909854888916015625</LongitudeDegrees>
            </Position>
            <AltitudeMeters>159</AltitudeMeters>
            <DistanceMeters>8727.994961312</DistanceMeters>
          </Trackpoint>
          <Trackpoint>
            <Time>2018-06-10T09:28:48.000Z</Time>
            <Position>
              <LatitudeDegrees>35.90735309757292270660400390625</LatitudeDegrees>
              <LongitudeDegrees>-5.374062247574329376220703125</LongitudeDegrees>
            </Position>
            <AltitudeMeters>161.600006103515625</AltitudeMeters>
            <DistanceMeters>8742.0312787725</DistanceMeters>
          </Trackpoint>
          <Trackpoint>
            <Time>2018-06-10T09:28:55.000Z</Time>
            <Position>
              <LatitudeDegrees>35.90729509480297565460205078125</LatitudeDegrees>
              <LongitudeDegrees>-5.3740000538527965545654296875</LongitudeDegrees>
            </Position>
            <AltitudeMeters>163.1999969482421875</AltitudeMeters>
            <DistanceMeters>8750.5820991406</DistanceMeters>
          </Trackpoint>
          <Trackpoint>
            <Time>2018-06-10T09:28:58.000Z</Time>
            <Position>
              <LatitudeDegrees>35.9072626568377017974853515625</LatitudeDegrees>
              <LongitudeDegrees>-5.3739762492477893829345703125</LongitudeDegrees>
            </Position>
            <AltitudeMeters>164</AltitudeMeters>
            <DistanceMeters>8754.7826668845</DistanceMeters>
          </Trackpoint>
          <Trackpoint>
            <Time>2018-06-10T09:29:01.000Z</Time>
            <Position>
              <LatitudeDegrees>35.90722770430147647857666015625</LatitudeDegrees>
              <LongitudeDegrees>-5.3739588148891925811767578125</LongitudeDegrees>
            </Position>
            <AltitudeMeters>164.600006103515625</AltitudeMeters>
            <DistanceMeters>8758.977856867</DistanceMeters>
          </Trackpoint>
          <Trackpoint>
            <Time>2018-06-10T09:29:07.000Z</Time>
            <Position>
              <LatitudeDegrees>35.90716349892318248748779296875</LatitudeDegrees>
              <LongitudeDegrees>-5.37395688705146312713623046875</LongitudeDegrees>
            </Position>
            <AltitudeMeters>164.8000030517578125</AltitudeMeters>
            <DistanceMeters>8766.1257357496</DistanceMeters>
          </Trackpoint>
          <Trackpoint>
            <Time>2018-06-10T09:29:10.000Z</Time>
            <Position>
              <LatitudeDegrees>35.90713483281433582305908203125</LatitudeDegrees>
              <LongitudeDegrees>-5.3739787638187408447265625</LongitudeDegrees>
            </Position>
            <AltitudeMeters>164.399993896484375</AltitudeMeters>
            <DistanceMeters>8769.8765835337</DistanceMeters>
          </Trackpoint>
          <Trackpoint>
            <Time>2018-06-10T09:29:21.000Z</Time>
            <Position>
              <LatitudeDegrees>35.90707532130181789398193359375</LatitudeDegrees>
              <LongitudeDegrees>-5.37409049458801746368408203125</LongitudeDegrees>
            </Position>
            <AltitudeMeters>162.8000030517578125</AltitudeMeters>
            <DistanceMeters>8781.9318749151</DistanceMeters>
          </Trackpoint>
          <Trackpoint>
            <Time>2018-06-10T09:29:24.000Z</Time>
            <Position>
              <LatitudeDegrees>35.90705436654388904571533203125</LatitudeDegrees>
              <LongitudeDegrees>-5.37412385456264019012451171875</LongitudeDegrees>
            </Position>
            <AltitudeMeters>162.1999969482421875</AltitudeMeters>
            <DistanceMeters>8785.7376918597</DistanceMeters>
          </Trackpoint>
          <Trackpoint>
            <Time>2018-06-10T09:29:36.000Z</Time>
            <Position>
              <LatitudeDegrees>35.90694062411785125732421875</LatitudeDegrees>
              <LongitudeDegrees>-5.37423868663609027862548828125</LongitudeDegrees>
            </Position>
            <AltitudeMeters>160.600006103515625</AltitudeMeters>
            <DistanceMeters>8802.0911240366</DistanceMeters>
          </Trackpoint>
          <Trackpoint>
            <Time>2018-06-10T09:29:39.000Z</Time>
            <Position>
              <LatitudeDegrees>35.9069183282554149627685546875</LatitudeDegrees>
              <LongitudeDegrees>-5.37425838410854339599609375</LongitudeDegrees>
            </Position>
            <AltitudeMeters>160.1999969482421875</AltitudeMeters>
            <DistanceMeters>8805.143834126</DistanceMeters>
          </Trackpoint>
          <Trackpoint>
            <Time>2018-06-10T09:29:46.000Z</Time>
            <Position>
              <LatitudeDegrees>35.90684473514556884765625</LatitudeDegrees>
              <LongitudeDegrees>-5.37432719953358173370361328125</LongitudeDegrees>
            </Position>
            <AltitudeMeters>159.1999969482421875</AltitudeMeters>
            <DistanceMeters>8815.419030172</DistanceMeters>
          </Trackpoint>
          <Trackpoint>
            <Time>2018-06-10T09:29:54.000Z</Time>
            <Position>
              <LatitudeDegrees>35.9067724831402301788330078125</LatitudeDegrees>
              <LongitudeDegrees>-5.3744208253920078277587890625</LongitudeDegrees>
            </Position>
            <AltitudeMeters>157.8000030517578125</AltitudeMeters>
            <DistanceMeters>8827.0775339626</DistanceMeters>
          </Trackpoint>
          <Trackpoint>
            <Time>2018-06-10T09:29:59.000Z</Time>
            <Position>
              <LatitudeDegrees>35.9067292325198650360107421875</LatitudeDegrees>
              <LongitudeDegrees>-5.37447103299200534820556640625</LongitudeDegrees>
            </Position>
            <AltitudeMeters>157.1999969482421875</AltitudeMeters>
            <DistanceMeters>8833.6858204033</DistanceMeters>
          </Trackpoint>
          <Trackpoint>
            <Time>2018-06-10T09:30:09.000Z</Time>
            <Position>
              <LatitudeDegrees>35.906729400157928466796875</LatitudeDegrees>
              <LongitudeDegrees>-5.37441370077431201934814453125</LongitudeDegrees>
            </Position>
            <AltitudeMeters>158.1999969482421875</AltitudeMeters>
            <DistanceMeters>8838.8540856946</DistanceMeters>
          </Trackpoint>
          <Trackpoint>
            <Time>2018-06-10T09:30:14.000Z</Time>
            <Position>
              <LatitudeDegrees>35.9067379496991634368896484375</LatitudeDegrees>
              <LongitudeDegrees>-5.3743604756891727447509765625</LongitudeDegrees>
            </Position>
            <AltitudeMeters>159</AltitudeMeters>
            <DistanceMeters>8843.7440389074</DistanceMeters>
          </Trackpoint>
          <Trackpoint>
            <Time>2018-06-10T09:30:15.000Z</Time>
            <Position>
              <LatitudeDegrees>35.90674021281301975250244140625</LatitudeDegrees>
              <LongitudeDegrees>-5.37435133941471576690673828125</LongitudeDegrees>
            </Position>
            <AltitudeMeters>159.1999969482421875</AltitudeMeters>
            <DistanceMeters>8844.6045424044</DistanceMeters>
          </Trackpoint>
          <Trackpoint>
            <Time>2018-06-10T09:30:22.000Z</Time>
            <Position>
              <LatitudeDegrees>35.906768627464771270751953125</LatitudeDegrees>
              <LongitudeDegrees>-5.3743113577365875244140625</LongitudeDegrees>
            </Position>
            <AltitudeMeters>159.8000030517578125</AltitudeMeters>
            <DistanceMeters>8849.3993911639</DistanceMeters>
          </Trackpoint>
          <Trackpoint>
            <Time>2018-06-10T09:30:25.000Z</Time>
            <Position>
              <LatitudeDegrees>35.90676217339932918548583984375</LatitudeDegrees>
              <LongitudeDegrees>-5.37430222146213054656982421875</LongitudeDegrees>
            </Position>
            <AltitudeMeters>159.8000030517578125</AltitudeMeters>
            <DistanceMeters>8850.4911649915</DistanceMeters>
          </Trackpoint>
          <Trackpoint>
            <Time>2018-06-10T09:30:35.000Z</Time>
            <Position>
              <LatitudeDegrees>35.90674616396427154541015625</LatitudeDegrees>
              <LongitudeDegrees>-5.37430574186146259307861328125</LongitudeDegrees>
            </Position>
            <AltitudeMeters>159.8000030517578125</AltitudeMeters>
            <DistanceMeters>8852.3041591519</DistanceMeters>
          </Trackpoint>
          <Trackpoint>
            <Time>2018-06-10T09:30:46.000Z</Time>
            <Position>
              <LatitudeDegrees>35.90677323751151561737060546875</LatitudeDegrees>
              <LongitudeDegrees>-5.3742669336497783660888671875</LongitudeDegrees>
            </Position>
            <AltitudeMeters>160.600006103515625</AltitudeMeters>
            <DistanceMeters>8856.9215188395</DistanceMeters>
          </Trackpoint>
          <Trackpoint>
            <Time>2018-06-10T09:30:55.000Z</Time>
            <Position>
              <LatitudeDegrees>35.90682989917695522308349609375</LatitudeDegrees>
              <LongitudeDegrees>-5.3741911612451076507568359375</LongitudeDegrees>
            </Position>
            <AltitudeMeters>161.8000030517578125</AltitudeMeters>
            <DistanceMeters>8866.2190949643</DistanceMeters>
          </Trackpoint>
          <Trackpoint>
            <Time>2018-06-10T09:30:57.000Z</Time>
            <Position>
              <LatitudeDegrees>35.9068273007869720458984375</LatitudeDegrees>
              <LongitudeDegrees>-5.3741826117038726806640625</LongitudeDegrees>
            </Position>
            <AltitudeMeters>162</AltitudeMeters>
            <DistanceMeters>8867.0475186541</DistanceMeters>
          </Trackpoint>
          <Trackpoint>
            <Time>2018-06-10T09:31:06.000Z</Time>
            <Position>
              <LatitudeDegrees>35.90683400630950927734375</LatitudeDegrees>
              <LongitudeDegrees>-5.3741878084838390350341796875</LongitudeDegrees>
            </Position>
            <AltitudeMeters>161.8000030517578125</AltitudeMeters>
            <DistanceMeters>8867.92876015</DistanceMeters>
          </Trackpoint>
          <Trackpoint>
            <Time>2018-06-10T09:31:18.000Z</Time>
            <Position>
              <LatitudeDegrees>35.90683777816593647003173828125</LatitudeDegrees>
              <LongitudeDegrees>-5.3741546161472797393798828125</LongitudeDegrees>
            </Position>
            <AltitudeMeters>162.600006103515625</AltitudeMeters>
            <DistanceMeters>8870.9487563766</DistanceMeters>
          </Trackpoint>
          <Trackpoint>
            <Time>2018-06-10T09:31:24.000Z</Time>
            <Position>
              <LatitudeDegrees>35.90683442540466785430908203125</LatitudeDegrees>
              <LongitudeDegrees>-5.374085046350955963134765625</LongitudeDegrees>
            </Position>
            <AltitudeMeters>164.1999969482421875</AltitudeMeters>
            <DistanceMeters>8877.232027357</DistanceMeters>
          </Trackpoint>
          <Trackpoint>
            <Time>2018-06-10T09:31:29.000Z</Time>
            <Position>
              <LatitudeDegrees>35.90681464411318302154541015625</LatitudeDegrees>
              <LongitudeDegrees>-5.3740228526294231414794921875</LongitudeDegrees>
            </Position>
            <AltitudeMeters>166</AltitudeMeters>
            <DistanceMeters>8883.2555518362</DistanceMeters>
          </Trackpoint>
          <Trackpoint>
            <Time>2018-06-10T09:31:34.000Z</Time>
            <Position>
              <LatitudeDegrees>35.90680844150483608245849609375</LatitudeDegrees>
              <LongitudeDegrees>-5.3739742375910282135009765625</LongitudeDegrees>
            </Position>
            <AltitudeMeters>167.1999969482421875</AltitudeMeters>
            <DistanceMeters>8887.6923938041</DistanceMeters>
          </Trackpoint>
          <Trackpoint>
            <Time>2018-06-10T09:31:40.000Z</Time>
            <Position>
              <LatitudeDegrees>35.90678195469081401824951171875</LatitudeDegrees>
              <LongitudeDegrees>-5.37391715683043003082275390625</LongitudeDegrees>
            </Position>
            <AltitudeMeters>168.8000030517578125</AltitudeMeters>
            <DistanceMeters>8893.6237661432</DistanceMeters>
          </Trackpoint>
          <Trackpoint>
            <Time>2018-06-10T09:31:48.000Z</Time>
            <Position>
              <LatitudeDegrees>35.906742475926876068115234375</LatitudeDegrees>
              <LongitudeDegrees>-5.37383199669420719146728515625</LongitudeDegrees>
            </Position>
            <AltitudeMeters>171.1999969482421875</AltitudeMeters>
            <DistanceMeters>8902.4689107045</DistanceMeters>
          </Trackpoint>
          <Trackpoint>
            <Time>2018-06-10T09:31:54.000Z</Time>
            <Position>
              <LatitudeDegrees>35.9067226946353912353515625</LatitudeDegrees>
              <LongitudeDegrees>-5.3737963736057281494140625</LongitudeDegrees>
            </Position>
            <AltitudeMeters>172</AltitudeMeters>
            <DistanceMeters>8906.3615278541</DistanceMeters>
          </Trackpoint>
          <Trackpoint>
            <Time>2018-06-10T09:31:57.000Z</Time>
            <Position>
              <LatitudeDegrees>35.90670752339065074920654296875</LatitudeDegrees>
              <LongitudeDegrees>-5.37376024760305881500244140625</LongitudeDegrees>
            </Position>
            <AltitudeMeters>172.1999969482421875</AltitudeMeters>
            <DistanceMeters>8910.0296082651</DistanceMeters>
          </Trackpoint>
          <Trackpoint>
            <Time>2018-06-10T09:32:12.000Z</Time>
            <Position>
              <LatitudeDegrees>35.90663493610918521881103515625</LatitudeDegrees>
              <LongitudeDegrees>-5.373604595661163330078125</LongitudeDegrees>
            </Position>
            <AltitudeMeters>173</AltitudeMeters>
            <DistanceMeters>8926.2215581005</DistanceMeters>
          </Trackpoint>
          <Trackpoint>
            <Time>2018-06-10T09:32:17.000Z</Time>
            <Position>
              <LatitudeDegrees>35.90660543181002140045166015625</LatitudeDegrees>
              <LongitudeDegrees>-5.37359998561441898345947265625</LongitudeDegrees>
            </Position>
            <AltitudeMeters>173.399993896484375</AltitudeMeters>
            <DistanceMeters>8929.5311627184</DistanceMeters>
          </Trackpoint>
          <Trackpoint>
            <Time>2018-06-10T09:32:23.000Z</Time>
            <Position>
              <LatitudeDegrees>35.90655933134257793426513671875</LatitudeDegrees>
              <LongitudeDegrees>-5.37359680049121379852294921875</LongitudeDegrees>
            </Position>
            <AltitudeMeters>174.600006103515625</AltitudeMeters>
            <DistanceMeters>8934.669639489</DistanceMeters>
          </Trackpoint>
          <Trackpoint>
            <Time>2018-06-10T09:32:24.000Z</Time>
            <Position>
              <LatitudeDegrees>35.90655094943940639495849609375</LatitudeDegrees>
              <LongitudeDegrees>-5.373594202101230621337890625</LongitudeDegrees>
            </Position>
            <AltitudeMeters>174.8000030517578125</AltitudeMeters>
            <DistanceMeters>8935.62936226</DistanceMeters>
          </Trackpoint>
          <Trackpoint>
            <Time>2018-06-10T09:32:25.000Z</Time>
            <Position>
              <LatitudeDegrees>35.906544663012027740478515625</LatitudeDegrees>
              <LongitudeDegrees>-5.37359193898737430572509765625</LongitudeDegrees>
            </Position>
            <AltitudeMeters>175</AltitudeMeters>
            <DistanceMeters>8936.3654360244</DistanceMeters>
          </Trackpoint>
          <Trackpoint>
            <Time>2018-06-10T09:32:26.000Z</Time>
            <Position>
              <LatitudeDegrees>35.90654005296528339385986328125</LatitudeDegrees>
              <LongitudeDegrees>-5.3735898435115814208984375</LongitudeDegrees>
            </Position>
            <AltitudeMeters>175.1999969482421875</AltitudeMeters>
            <DistanceMeters>8936.9029882974</DistanceMeters>
          </Trackpoint>
          <Trackpoint>
            <Time>2018-06-10T09:32:28.000Z</Time>
            <Position>
              <LatitudeDegrees>35.90653602965176105499267578125</LatitudeDegrees>
              <LongitudeDegrees>-5.373587496578693389892578125</LongitudeDegrees>
            </Position>
            <AltitudeMeters>175.399993896484375</AltitudeMeters>
            <DistanceMeters>8937.3967615895</DistanceMeters>
          </Trackpoint>
          <Trackpoint>
            <Time>2018-06-10T09:32:30.000Z</Time>
            <Position>
              <LatitudeDegrees>35.90653250925242900848388671875</LatitudeDegrees>
              <LongitudeDegrees>-5.37358690984547138214111328125</LongitudeDegrees>
            </Position>
            <AltitudeMeters>175.399993896484375</AltitudeMeters>
            <DistanceMeters>8937.7885667701</DistanceMeters>
          </Trackpoint>
          <Trackpoint>
            <Time>2018-06-10T09:32:31.000Z</Time>
            <Position>
              <LatitudeDegrees>35.90652748011052608489990234375</LatitudeDegrees>
              <LongitudeDegrees>-5.37358322180807590484619140625</LongitudeDegrees>
            </Position>
            <AltitudeMeters>175.600006103515625</AltitudeMeters>
            <DistanceMeters>8938.4469311596</DistanceMeters>
          </Trackpoint>
          <Trackpoint>
            <Time>2018-06-10T09:32:37.000Z</Time>
            <Position>
              <LatitudeDegrees>35.90649127028882503509521484375</LatitudeDegrees>
              <LongitudeDegrees>-5.3735584951937198638916015625</LongitudeDegrees>
            </Position>
            <AltitudeMeters>177</AltitudeMeters>
            <DistanceMeters>8943.0525418213</DistanceMeters>
          </Trackpoint>
          <Trackpoint>
            <Time>2018-06-10T09:32:38.000Z</Time>
            <Position>
              <LatitudeDegrees>35.90648733079433441162109375</LatitudeDegrees>
              <LongitudeDegrees>-5.3735497780144214630126953125</LongitudeDegrees>
            </Position>
            <AltitudeMeters>177.1999969482421875</AltitudeMeters>
            <DistanceMeters>8943.9540443892</DistanceMeters>
          </Trackpoint>
          <Trackpoint>
            <Time>2018-06-10T09:32:42.000Z</Time>
            <Position>
              <LatitudeDegrees>35.9064724110066890716552734375</LatitudeDegrees>
              <LongitudeDegrees>-5.373537875711917877197265625</LongitudeDegrees>
            </Position>
            <AltitudeMeters>177.8000030517578125</AltitudeMeters>
            <DistanceMeters>8945.9291375576</DistanceMeters>
          </Trackpoint>
          <Trackpoint>
            <Time>2018-06-10T09:32:44.000Z</Time>
            <Position>
              <LatitudeDegrees>35.9064697287976741790771484375</LatitudeDegrees>
              <LongitudeDegrees>-5.373537205159664154052734375</LongitudeDegrees>
            </Position>
            <AltitudeMeters>177.8000030517578125</AltitudeMeters>
            <DistanceMeters>8946.2443055142</DistanceMeters>
          </Trackpoint>
          <Trackpoint>
            <Time>2018-06-10T09:32:46.000Z</Time>
            <Position>
              <LatitudeDegrees>35.90646587312221527099609375</LatitudeDegrees>
              <LongitudeDegrees>-5.37353728897869586944580078125</LongitudeDegrees>
            </Position>
            <AltitudeMeters>178</AltitudeMeters>
            <DistanceMeters>8946.6797726258</DistanceMeters>
          </Trackpoint>
          <Trackpoint>
            <Time>2018-06-10T09:32:53.000Z</Time>
            <Position>
              <LatitudeDegrees>35.906438045203685760498046875</LatitudeDegrees>
              <LongitudeDegrees>-5.37349403835833072662353515625</LongitudeDegrees>
            </Position>
            <AltitudeMeters>179.399993896484375</AltitudeMeters>
            <DistanceMeters>8951.6593900725</DistanceMeters>
          </Trackpoint>
          <Trackpoint>
            <Time>2018-06-10T09:32:58.000Z</Time>
            <Position>
              <LatitudeDegrees>35.90644307434558868408203125</LatitudeDegrees>
              <LongitudeDegrees>-5.37347744219005107879638671875</LongitudeDegrees>
            </Position>
            <AltitudeMeters>179.600006103515625</AltitudeMeters>
            <DistanceMeters>8953.2579868427</DistanceMeters>
          </Trackpoint>
          <Trackpoint>
            <Time>2018-06-10T09:33:01.000Z</Time>
            <Position>
              <LatitudeDegrees>35.90644114650785923004150390625</LatitudeDegrees>
              <LongitudeDegrees>-5.37347006611526012420654296875</LongitudeDegrees>
            </Position>
            <AltitudeMeters>179.8000030517578125</AltitudeMeters>
            <DistanceMeters>8953.9562877291</DistanceMeters>
          </Trackpoint>
          <Trackpoint>
            <Time>2018-06-10T09:33:14.000Z</Time>
            <Position>
              <LatitudeDegrees>35.9063775278627872467041015625</LatitudeDegrees>
              <LongitudeDegrees>-5.37342882715165615081787109375</LongitudeDegrees>
            </Position>
            <AltitudeMeters>181.1999969482421875</AltitudeMeters>
            <DistanceMeters>8961.9543538409</DistanceMeters>
          </Trackpoint>
          <Trackpoint>
            <Time>2018-06-10T09:33:18.000Z</Time>
            <Position>
              <LatitudeDegrees>35.90634651482105255126953125</LatitudeDegrees>
              <LongitudeDegrees>-5.37340502254664897918701171875</LongitudeDegrees>
            </Position>
            <AltitudeMeters>181.1999969482421875</AltitudeMeters>
            <DistanceMeters>8966.0194540724</DistanceMeters>
          </Trackpoint>
          <Trackpoint>
            <Time>2018-06-10T09:33:20.000Z</Time>
            <Position>
              <LatitudeDegrees>35.9063315950334072113037109375</LatitudeDegrees>
              <LongitudeDegrees>-5.3733932040631771087646484375</LongitudeDegrees>
            </Position>
            <AltitudeMeters>181.1999969482421875</AltitudeMeters>
            <DistanceMeters>8967.9945472408</DistanceMeters>
          </Trackpoint>
          <Trackpoint>
            <Time>2018-06-10T09:33:23.000Z</Time>
            <Position>
              <LatitudeDegrees>35.90631424449384212493896484375</LatitudeDegrees>
              <LongitudeDegrees>-5.373368561267852783203125</LongitudeDegrees>
            </Position>
            <AltitudeMeters>181.600006103515625</AltitudeMeters>
            <DistanceMeters>8970.9388422984</DistanceMeters>
          </Trackpoint>
          <Trackpoint>
            <Time>2018-06-10T09:33:29.000Z</Time>
            <Position>
              <LatitudeDegrees>35.90627803467214107513427734375</LatitudeDegrees>
              <LongitudeDegrees>-5.37332707084715366363525390625</LongitudeDegrees>
            </Position>
            <AltitudeMeters>181.8000030517578125</AltitudeMeters>
            <DistanceMeters>8976.4380900661</DistanceMeters>
          </Trackpoint>
          <Trackpoint>
            <Time>2018-06-10T09:33:36.000Z</Time>
            <Position>
              <LatitudeDegrees>35.9062521345913410186767578125</LatitudeDegrees>
              <LongitudeDegrees>-5.37328851409256458282470703125</LongitudeDegrees>
            </Position>
            <AltitudeMeters>182.1999969482421875</AltitudeMeters>
            <DistanceMeters>8980.9536091515</DistanceMeters>
          </Trackpoint>
          <Trackpoint>
            <Time>2018-06-10T09:33:38.000Z</Time>
            <Position>
              <LatitudeDegrees>35.9062494523823261260986328125</LatitudeDegrees>
              <LongitudeDegrees>-5.3732832334935665130615234375</LongitudeDegrees>
            </Position>
            <AltitudeMeters>182.1999969482421875</AltitudeMeters>
            <DistanceMeters>8981.5077053517</DistanceMeters>
          </Trackpoint>
          <Trackpoint>
            <Time>2018-06-10T09:33:44.000Z</Time>
            <Position>
              <LatitudeDegrees>35.9062293358147144317626953125</LatitudeDegrees>
              <LongitudeDegrees>-5.37326437421143054962158203125</LongitudeDegrees>
            </Position>
            <AltitudeMeters>182.399993896484375</AltitudeMeters>
            <DistanceMeters>8984.3170267666</DistanceMeters>
          </Trackpoint>
          <Trackpoint>
            <Time>2018-06-10T09:33:47.000Z</Time>
            <Position>
              <LatitudeDegrees>35.9062098897993564605712890625</LatitudeDegrees>
              <LongitudeDegrees>-5.37324761040508747100830078125</LongitudeDegrees>
            </Position>
            <AltitudeMeters>182.399993896484375</AltitudeMeters>
            <DistanceMeters>8986.9556227831</DistanceMeters>
          </Trackpoint>
          <Trackpoint>
            <Time>2018-06-10T09:33:52.000Z</Time>
            <Position>
              <LatitudeDegrees>35.90617929585278034210205078125</LatitudeDegrees>
              <LongitudeDegrees>-5.37320871837437152862548828125</LongitudeDegrees>
            </Position>
            <AltitudeMeters>182.8000030517578125</AltitudeMeters>
            <DistanceMeters>8991.841881282</DistanceMeters>
          </Trackpoint>
          <Trackpoint>
            <Time>2018-06-10T09:33:56.000Z</Time>
            <Position>
              <LatitudeDegrees>35.90616454370319843292236328125</LatitudeDegrees>
              <LongitudeDegrees>-5.373172424733638763427734375</LongitudeDegrees>
            </Position>
            <AltitudeMeters>184</AltitudeMeters>
            <DistanceMeters>8995.5038020238</DistanceMeters>
          </Trackpoint>
          <Trackpoint>
            <Time>2018-06-10T09:33:58.000Z</Time>
            <Position>
              <LatitudeDegrees>35.90615482069551944732666015625</LatitudeDegrees>
              <LongitudeDegrees>-5.373159013688564300537109375</LongitudeDegrees>
            </Position>
            <AltitudeMeters>184.600006103515625</AltitudeMeters>
            <DistanceMeters>8997.1276192307</DistanceMeters>
          </Trackpoint>
          <Trackpoint>
            <Time>2018-06-10T09:33:59.000Z</Time>
            <Position>
              <LatitudeDegrees>35.90615163557231426239013671875</LatitudeDegrees>
              <LongitudeDegrees>-5.373150967061519622802734375</LongitudeDegrees>
            </Position>
            <AltitudeMeters>185</AltitudeMeters>
            <DistanceMeters>8997.9339476402</DistanceMeters>
          </Trackpoint>
          <Trackpoint>
            <Time>2018-06-10T09:34:01.000Z</Time>
            <Position>
              <LatitudeDegrees>35.90613788925111293792724609375</LatitudeDegrees>
              <LongitudeDegrees>-5.37313026376068592071533203125</LongitudeDegrees>
            </Position>
            <AltitudeMeters>185.8000030517578125</AltitudeMeters>
            <DistanceMeters>9000.3454553076</DistanceMeters>
          </Trackpoint>
          <Trackpoint>
            <Time>2018-06-10T09:34:10.000Z</Time>
            <Position>
              <LatitudeDegrees>35.906096063554286956787109375</LatitudeDegrees>
              <LongitudeDegrees>-5.3730572573840618133544921875</LongitudeDegrees>
            </Position>
            <AltitudeMeters>189</AltitudeMeters>
            <DistanceMeters>9008.4076194243</DistanceMeters>
          </Trackpoint>
          <Trackpoint>
            <Time>2018-06-10T09:34:15.000Z</Time>
            <Position>
              <LatitudeDegrees>35.9060563333332538604736328125</LatitudeDegrees>
              <LongitudeDegrees>-5.37301023490726947784423828125</LongitudeDegrees>
            </Position>
            <AltitudeMeters>191.1999969482421875</AltitudeMeters>
            <DistanceMeters>9014.532973914</DistanceMeters>
          </Trackpoint>
          <Trackpoint>
            <Time>2018-06-10T09:34:19.000Z</Time>
            <Position>
              <LatitudeDegrees>35.906032025814056396484375</LatitudeDegrees>
              <LongitudeDegrees>-5.37299104034900665283203125</LongitudeDegrees>
            </Position>
            <AltitudeMeters>192</AltitudeMeters>
            <DistanceMeters>9017.7428519837</DistanceMeters>
          </Trackpoint>
          <Trackpoint>
            <Time>2018-06-10T09:34:24.000Z</Time>
            <Position>
              <LatitudeDegrees>35.90602624230086803436279296875</LatitudeDegrees>
              <LongitudeDegrees>-5.37297402508556842803955078125</LongitudeDegrees>
            </Position>
            <AltitudeMeters>192.600006103515625</AltitudeMeters>
            <DistanceMeters>9019.4051405844</DistanceMeters>
          </Trackpoint>
          <Trackpoint>
            <Time>2018-06-10T09:34:37.000Z</Time>
            <Position>
              <LatitudeDegrees>35.9060311876237392425537109375</LatitudeDegrees>
              <LongitudeDegrees>-5.37296664901077747344970703125</LongitudeDegrees>
            </Position>
            <AltitudeMeters>192.600006103515625</AltitudeMeters>
            <DistanceMeters>9020.2760748077</DistanceMeters>
          </Trackpoint>
          <Trackpoint>
            <Time>2018-06-10T09:34:47.000Z</Time>
            <Position>
              <LatitudeDegrees>35.90595667250454425811767578125</LatitudeDegrees>
              <LongitudeDegrees>-5.3729151003062725067138671875</LongitudeDegrees>
            </Position>
            <AltitudeMeters>193.8000030517578125</AltitudeMeters>
            <DistanceMeters>9029.7825465533</DistanceMeters>
          </Trackpoint>
          <Trackpoint>
            <Time>2018-06-10T09:34:50.000Z</Time>
            <Position>
              <LatitudeDegrees>35.90593211352825164794921875</LatitudeDegrees>
              <LongitudeDegrees>-5.372888781130313873291015625</LongitudeDegrees>
            </Position>
            <AltitudeMeters>194.1999969482421875</AltitudeMeters>
            <DistanceMeters>9033.4010560315</DistanceMeters>
          </Trackpoint>
          <Trackpoint>
            <Time>2018-06-10T09:34:56.000Z</Time>
            <Position>
              <LatitudeDegrees>35.90587721206247806549072265625</LatitudeDegrees>
              <LongitudeDegrees>-5.37284460850059986114501953125</LongitudeDegrees>
            </Position>
            <AltitudeMeters>195</AltitudeMeters>
            <DistanceMeters>9040.6940081262</DistanceMeters>
          </Trackpoint>
          <Trackpoint>
            <Time>2018-06-10T09:35:01.000Z</Time>
            <Position>
              <LatitudeDegrees>35.9058407507836818695068359375</LatitudeDegrees>
              <LongitudeDegrees>-5.37281493656337261199951171875</LongitudeDegrees>
            </Position>
            <AltitudeMeters>195.600006103515625</AltitudeMeters>
            <DistanceMeters>9045.5552538568</DistanceMeters>
          </Trackpoint>
          <Trackpoint>
            <Time>2018-06-10T09:35:08.000Z</Time>
            <Position>
              <LatitudeDegrees>35.9057946503162384033203125</LatitudeDegrees>
              <LongitudeDegrees>-5.37278358824551105499267578125</LongitudeDegrees>
            </Position>
            <AltitudeMeters>196.1999969482421875</AltitudeMeters>
            <DistanceMeters>9051.413093944</DistanceMeters>
          </Trackpoint>
          <Trackpoint>
            <Time>2018-06-10T09:35:21.000Z</Time>
            <Position>
              <LatitudeDegrees>35.9057740308344364166259765625</LatitudeDegrees>
              <LongitudeDegrees>-5.3727243281900882720947265625</LongitudeDegrees>
            </Position>
            <AltitudeMeters>197.600006103515625</AltitudeMeters>
            <DistanceMeters>9057.2276107946</DistanceMeters>
          </Trackpoint>
          <Trackpoint>
            <Time>2018-06-10T09:35:28.000Z</Time>
            <Position>
              <LatitudeDegrees>35.9057237394154071807861328125</LatitudeDegrees>
              <LongitudeDegrees>-5.37267395295202732086181640625</LongitudeDegrees>
            </Position>
            <AltitudeMeters>200.1999969482421875</AltitudeMeters>
            <DistanceMeters>9064.4365004411</DistanceMeters>
          </Trackpoint>
          <Trackpoint>
            <Time>2018-06-10T09:35:30.000Z</Time>
            <Position>
              <LatitudeDegrees>35.90571410022675991058349609375</LatitudeDegrees>
              <LongitudeDegrees>-5.37266456522047519683837890625</LongitudeDegrees>
            </Position>
            <AltitudeMeters>200.600006103515625</AltitudeMeters>
            <DistanceMeters>9065.8036967781</DistanceMeters>
          </Trackpoint>
          <Trackpoint>
            <Time>2018-06-10T09:35:35.000Z</Time>
            <Position>
              <LatitudeDegrees>35.90567998588085174560546875</LatitudeDegrees>
              <LongitudeDegrees>-5.37266490049660205841064453125</LongitudeDegrees>
            </Position>
            <AltitudeMeters>201.600006103515625</AltitudeMeters>
            <DistanceMeters>9069.6000110439</DistanceMeters>
          </Trackpoint>
          <Trackpoint>
            <Time>2018-06-10T09:35:36.000Z</Time>
            <Position>
              <LatitudeDegrees>35.905660875141620635986328125</LatitudeDegrees>
              <LongitudeDegrees>-5.372671186923980712890625</LongitudeDegrees>
            </Position>
            <AltitudeMeters>202</AltitudeMeters>
            <DistanceMeters>9071.7979853152</DistanceMeters>
          </Trackpoint>
          <Trackpoint>
            <Time>2018-06-10T09:35:47.000Z</Time>
            <Position>
              <LatitudeDegrees>35.90562525205314159393310546875</LatitudeDegrees>
              <LongitudeDegrees>-5.3726800717413425445556640625</LongitudeDegrees>
            </Position>
            <AltitudeMeters>202.600006103515625</AltitudeMeters>
            <DistanceMeters>9075.8430438459</DistanceMeters>
          </Trackpoint>
          <Trackpoint>
            <Time>2018-06-10T09:35:56.000Z</Time>
            <Position>
              <LatitudeDegrees>35.90560195036232471466064453125</LatitudeDegrees>
              <LongitudeDegrees>-5.3726723603904247283935546875</LongitudeDegrees>
            </Position>
            <AltitudeMeters>203.399993896484375</AltitudeMeters>
            <DistanceMeters>9078.5308052109</DistanceMeters>
          </Trackpoint>
          <Trackpoint>
            <Time>2018-06-10T09:36:08.000Z</Time>
            <Position>
              <LatitudeDegrees>35.9054982662200927734375</LatitudeDegrees>
              <LongitudeDegrees>-5.3726260922849178314208984375</LongitudeDegrees>
            </Position>
            <AltitudeMeters>205.399993896484375</AltitudeMeters>
            <DistanceMeters>9090.8017678749</DistanceMeters>
          </Trackpoint>
          <Trackpoint>
            <Time>2018-06-10T09:36:09.000Z</Time>
            <Position>
              <LatitudeDegrees>35.90549013577401638031005859375</LatitudeDegrees>
              <LongitudeDegrees>-5.3726167045533657073974609375</LongitudeDegrees>
            </Position>
            <AltitudeMeters>205.600006103515625</AltitudeMeters>
            <DistanceMeters>9092.0407646447</DistanceMeters>
          </Trackpoint>
          <Trackpoint>
            <Time>2018-06-10T09:36:12.000Z</Time>
            <Position>
              <LatitudeDegrees>35.90546004474163055419921875</LatitudeDegrees>
              <LongitudeDegrees>-5.37259868346154689788818359375</LongitudeDegrees>
            </Position>
            <AltitudeMeters>206</AltitudeMeters>
            <DistanceMeters>9095.7650360389</DistanceMeters>
          </Trackpoint>
          <Trackpoint>
            <Time>2018-06-10T09:36:16.000Z</Time>
            <Position>
              <LatitudeDegrees>35.90542978607118129730224609375</LatitudeDegrees>
              <LongitudeDegrees>-5.3725566901266574859619140625</LongitudeDegrees>
            </Position>
            <AltitudeMeters>207</AltitudeMeters>
            <DistanceMeters>9100.8309493084</DistanceMeters>
          </Trackpoint>
          <Trackpoint>
            <Time>2018-06-10T09:36:22.000Z</Time>
            <Position>
              <LatitudeDegrees>35.9053767286241054534912109375</LatitudeDegrees>
              <LongitudeDegrees>-5.37253045476973056793212890625</LongitudeDegrees>
            </Position>
            <AltitudeMeters>207.600006103515625</AltitudeMeters>
            <DistanceMeters>9107.1913535777</DistanceMeters>
          </Trackpoint>
          <Trackpoint>
            <Time>2018-06-10T09:36:25.000Z</Time>
            <Position>
              <LatitudeDegrees>35.9053442068397998809814453125</LatitudeDegrees>
              <LongitudeDegrees>-5.3725218214094638824462890625</LongitudeDegrees>
            </Position>
            <AltitudeMeters>207.600006103515625</AltitudeMeters>
            <DistanceMeters>9110.8937387605</DistanceMeters>
          </Trackpoint>
          <Trackpoint>
            <Time>2018-06-10T09:36:31.000Z</Time>
            <Position>
              <LatitudeDegrees>35.90528167784214019775390625</LatitudeDegrees>
              <LongitudeDegrees>-5.37251369096338748931884765625</LongitudeDegrees>
            </Position>
            <AltitudeMeters>207.8000030517578125</AltitudeMeters>
            <DistanceMeters>9117.8922482184</DistanceMeters>
          </Trackpoint>
          <Trackpoint>
            <Time>2018-06-10T09:36:36.000Z</Time>
            <Position>
              <LatitudeDegrees>35.90523348189890384674072265625</LatitudeDegrees>
              <LongitudeDegrees>-5.3725238330662250518798828125</LongitudeDegrees>
            </Position>
            <AltitudeMeters>207.600006103515625</AltitudeMeters>
            <DistanceMeters>9123.3345501887</DistanceMeters>
          </Trackpoint>
          <Trackpoint>
            <Time>2018-06-10T09:36:45.000Z</Time>
            <Position>
              <LatitudeDegrees>35.9051856212317943572998046875</LatitudeDegrees>
              <LongitudeDegrees>-5.37254311144351959228515625</LongitudeDegrees>
            </Position>
            <AltitudeMeters>207</AltitudeMeters>
            <DistanceMeters>9128.9387098824</DistanceMeters>
          </Trackpoint>
          <Trackpoint>
            <Time>2018-06-10T09:36:59.000Z</Time>
            <Position>
              <LatitudeDegrees>35.90516843833029270172119140625</LatitudeDegrees>
              <LongitudeDegrees>-5.37255375646054744720458984375</LongitudeDegrees>
            </Position>
            <AltitudeMeters>206.8000030517578125</AltitudeMeters>
            <DistanceMeters>9131.0783941481</DistanceMeters>
          </Trackpoint>
          <Trackpoint>
            <Time>2018-06-10T09:37:00.000Z</Time>
            <Position>
              <LatitudeDegrees>35.90516877360641956329345703125</LatitudeDegrees>
              <LongitudeDegrees>-5.37255526520311832427978515625</LongitudeDegrees>
            </Position>
            <AltitudeMeters>206.600006103515625</AltitudeMeters>
            <DistanceMeters>9131.1734208625</DistanceMeters>
          </Trackpoint>
          <Trackpoint>
            <Time>2018-06-10T09:37:05.000Z</Time>
            <Position>
              <LatitudeDegrees>35.905152261257171630859375</LatitudeDegrees>
              <LongitudeDegrees>-5.372570939362049102783203125</LongitudeDegrees>
            </Position>
            <AltitudeMeters>206.1999969482421875</AltitudeMeters>
            <DistanceMeters>9133.4913715704</DistanceMeters>
          </Trackpoint>
          <Trackpoint>
            <Time>2018-06-10T09:37:17.000Z</Time>
            <Position>
              <LatitudeDegrees>35.90515284799039363861083984375</LatitudeDegrees>
              <LongitudeDegrees>-5.37257722578942775726318359375</LongitudeDegrees>
            </Position>
            <AltitudeMeters>206.1999969482421875</AltitudeMeters>
            <DistanceMeters>9134.0454677706</DistanceMeters>
          </Trackpoint>
          <Trackpoint>
            <Time>2018-06-10T09:37:19.000Z</Time>
            <Position>
              <LatitudeDegrees>35.905152596533298492431640625</LatitudeDegrees>
              <LongitudeDegrees>-5.3725801594555377960205078125</LongitudeDegrees>
            </Position>
            <AltitudeMeters>206</AltitudeMeters>
            <DistanceMeters>9134.3142439071</DistanceMeters>
          </Trackpoint>
          <Trackpoint>
            <Time>2018-06-10T09:37:20.000Z</Time>
            <Position>
              <LatitudeDegrees>35.90515293180942535400390625</LatitudeDegrees>
              <LongitudeDegrees>-5.372579656541347503662109375</LongitudeDegrees>
            </Position>
            <AltitudeMeters>206</AltitudeMeters>
            <DistanceMeters>9134.3142439071</DistanceMeters>
          </Trackpoint>
          <Trackpoint>
            <Time>2018-06-10T09:37:21.000Z</Time>
            <Position>
              <LatitudeDegrees>35.9051544405519962310791015625</LatitudeDegrees>
              <LongitudeDegrees>-5.37257689051330089569091796875</LongitudeDegrees>
            </Position>
            <AltitudeMeters>206.1999969482421875</AltitudeMeters>
            <DistanceMeters>9134.6147447631</DistanceMeters>
          </Trackpoint>
          <Trackpoint>
            <Time>2018-06-10T09:37:22.000Z</Time>
            <Position>
              <LatitudeDegrees>35.90515569783747196197509765625</LatitudeDegrees>
              <LongitudeDegrees>-5.37257621996104717254638671875</LongitudeDegrees>
            </Position>
            <AltitudeMeters>206.1999969482421875</AltitudeMeters>
            <DistanceMeters>9134.7793358604</DistanceMeters>
          </Trackpoint>
          <Trackpoint>
            <Time>2018-06-10T09:37:24.000Z</Time>
            <Position>
              <LatitudeDegrees>35.90516055934131145477294921875</LatitudeDegrees>
              <LongitudeDegrees>-5.372569598257541656494140625</LongitudeDegrees>
            </Position>
            <AltitudeMeters>206.399993896484375</AltitudeMeters>
            <DistanceMeters>9135.5856642699</DistanceMeters>
          </Trackpoint>
          <Trackpoint>
            <Time>2018-06-10T09:37:28.000Z</Time>
            <Position>
              <LatitudeDegrees>35.90517145581543445587158203125</LatitudeDegrees>
              <LongitudeDegrees>-5.37255845032632350921630859375</LongitudeDegrees>
            </Position>
            <AltitudeMeters>206.600006103515625</AltitudeMeters>
            <DistanceMeters>9137.1615040531</DistanceMeters>
          </Trackpoint>
          <Trackpoint>
            <Time>2018-06-10T09:37:47.000Z</Time>
            <Position>
              <LatitudeDegrees>35.9051718749105930328369140625</LatitudeDegrees>
              <LongitudeDegrees>-5.3725732862949371337890625</LongitudeDegrees>
            </Position>
            <AltitudeMeters>206.1999969482421875</AltitudeMeters>
            <DistanceMeters>9138.4986484491</DistanceMeters>
          </Trackpoint>
          <Trackpoint>
            <Time>2018-06-10T09:37:53.000Z</Time>
            <Position>
              <LatitudeDegrees>35.90516030788421630859375</LatitudeDegrees>
              <LongitudeDegrees>-5.3725687600672245025634765625</LongitudeDegrees>
            </Position>
            <AltitudeMeters>206.399993896484375</AltitudeMeters>
            <DistanceMeters>9139.8458846442</DistanceMeters>
          </Trackpoint>
          <Trackpoint>
            <Time>2018-06-10T09:37:58.000Z</Time>
            <Position>
              <LatitudeDegrees>35.90512485243380069732666015625</LatitudeDegrees>
              <LongitudeDegrees>-5.372535400092601776123046875</LongitudeDegrees>
            </Position>
            <AltitudeMeters>207.600006103515625</AltitudeMeters>
            <DistanceMeters>9144.8073348743</DistanceMeters>
          </Trackpoint>
          <Trackpoint>
            <Time>2018-06-10T09:38:00.000Z</Time>
            <Position>
              <LatitudeDegrees>35.90511211194097995758056640625</LatitudeDegrees>
              <LongitudeDegrees>-5.3725142776966094970703125</LongitudeDegrees>
            </Position>
            <AltitudeMeters>208.600006103515625</AltitudeMeters>
            <DistanceMeters>9147.1811014384</DistanceMeters>
          </Trackpoint>
          <Trackpoint>
            <Time>2018-06-10T09:38:07.000Z</Time>
            <Position>
              <LatitudeDegrees>35.905078165233135223388671875</LatitudeDegrees>
              <LongitudeDegrees>-5.37245535291731357574462890625</LongitudeDegrees>
            </Position>
            <AltitudeMeters>210.8000030517578125</AltitudeMeters>
            <DistanceMeters>9153.7006543235</DistanceMeters>
          </Trackpoint>
          <Trackpoint>
            <Time>2018-06-10T09:38:08.000Z</Time>
            <Position>
              <LatitudeDegrees>35.90507380664348602294921875</LatitudeDegrees>
              <LongitudeDegrees>-5.37244856357574462890625</LongitudeDegrees>
            </Position>
            <AltitudeMeters>211.1999969482421875</AltitudeMeters>
            <DistanceMeters>9154.4784815034</DistanceMeters>
          </Trackpoint>
          <Trackpoint>
            <Time>2018-06-10T09:38:10.000Z</Time>
            <Position>
              <LatitudeDegrees>35.90505276806652545928955078125</LatitudeDegrees>
              <LongitudeDegrees>-5.37243959493935108184814453125</LongitudeDegrees>
            </Position>
            <AltitudeMeters>211.600006103515625</AltitudeMeters>
            <DistanceMeters>9156.9564750429</DistanceMeters>
          </Trackpoint>
          <Trackpoint>
            <Time>2018-06-10T09:38:14.000Z</Time>
            <Position>
              <LatitudeDegrees>35.90502913109958171844482421875</LatitudeDegrees>
              <LongitudeDegrees>-5.3724188916385173797607421875</LongitudeDegrees>
            </Position>
            <AltitudeMeters>212.600006103515625</AltitudeMeters>
            <DistanceMeters>9160.183188253</DistanceMeters>
          </Trackpoint>
          <Trackpoint>
            <Time>2018-06-10T09:38:19.000Z</Time>
            <Position>
              <LatitudeDegrees>35.90497917495667934417724609375</LatitudeDegrees>
              <LongitudeDegrees>-5.37239466793835163116455078125</LongitudeDegrees>
            </Position>
            <AltitudeMeters>214</AltitudeMeters>
            <DistanceMeters>9166.1570364354</DistanceMeters>
          </Trackpoint>
          <Trackpoint>
            <Time>2018-06-10T09:38:20.000Z</Time>
            <Position>
              <LatitudeDegrees>35.904969535768032073974609375</LatitudeDegrees>
              <LongitudeDegrees>-5.3723927401006221771240234375</LongitudeDegrees>
            </Position>
            <AltitudeMeters>214.1999969482421875</AltitudeMeters>
            <DistanceMeters>9167.2405076799</DistanceMeters>
          </Trackpoint>
          <Trackpoint>
            <Time>2018-06-10T09:38:22.000Z</Time>
            <Position>
              <LatitudeDegrees>35.90494900010526180267333984375</LatitudeDegrees>
              <LongitudeDegrees>-5.3723828494548797607421875</LongitudeDegrees>
            </Position>
            <AltitudeMeters>214.600006103515625</AltitudeMeters>
            <DistanceMeters>9169.6928597981</DistanceMeters>
          </Trackpoint>
          <Trackpoint>
            <Time>2018-06-10T09:38:24.000Z</Time>
            <Position>
              <LatitudeDegrees>35.90492553077638149261474609375</LatitudeDegrees>
              <LongitudeDegrees>-5.37238326855003833770751953125</LongitudeDegrees>
            </Position>
            <AltitudeMeters>214.8000030517578125</AltitudeMeters>
            <DistanceMeters>9172.305662468</DistanceMeters>
          </Trackpoint>
          <Trackpoint>
            <Time>2018-06-10T09:38:27.000Z</Time>
            <Position>
              <LatitudeDegrees>35.90489082969725131988525390625</LatitudeDegrees>
              <LongitudeDegrees>-5.3723779879510402679443359375</LongitudeDegrees>
            </Position>
            <AltitudeMeters>215.399993896484375</AltitudeMeters>
            <DistanceMeters>9176.1959591302</DistanceMeters>
          </Trackpoint>
          <Trackpoint>
            <Time>2018-06-10T09:38:31.000Z</Time>
            <Position>
              <LatitudeDegrees>35.90485931374132633209228515625</LatitudeDegrees>
              <LongitudeDegrees>-5.37237304262816905975341796875</LongitudeDegrees>
            </Position>
            <AltitudeMeters>215.8000030517578125</AltitudeMeters>
            <DistanceMeters>9179.7311572574</DistanceMeters>
          </Trackpoint>
          <Trackpoint>
            <Time>2018-06-10T09:38:32.000Z</Time>
            <Position>
              <LatitudeDegrees>35.90484917163848876953125</LatitudeDegrees>
              <LongitudeDegrees>-5.3723721206188201904296875</LongitudeDegrees>
            </Position>
            <AltitudeMeters>216</AltitudeMeters>
            <DistanceMeters>9180.8635312482</DistanceMeters>
          </Trackpoint>
          <Trackpoint>
            <Time>2018-06-10T09:38:36.000Z</Time>
            <Position>
              <LatitudeDegrees>35.90480717830359935760498046875</LatitudeDegrees>
              <LongitudeDegrees>-5.372379161417484283447265625</LongitudeDegrees>
            </Position>
            <AltitudeMeters>216.1999969482421875</AltitudeMeters>
            <DistanceMeters>9185.5805333001</DistanceMeters>
          </Trackpoint>
          <Trackpoint>
            <Time>2018-06-10T09:38:41.000Z</Time>
            <Position>
              <LatitudeDegrees>35.904755294322967529296875</LatitudeDegrees>
              <LongitudeDegrees>-5.37239651195704936981201171875</LongitudeDegrees>
            </Position>
            <AltitudeMeters>216</AltitudeMeters>
            <DistanceMeters>9191.5634442157</DistanceMeters>
          </Trackpoint>
          <Trackpoint>
            <Time>2018-06-10T09:38:57.000Z</Time>
            <Position>
              <LatitudeDegrees>35.90457282029092311859130859375</LatitudeDegrees>
              <LongitudeDegrees>-5.37246926687657833099365234375</LongitudeDegrees>
            </Position>
            <AltitudeMeters>216.1999969482421875</AltitudeMeters>
            <DistanceMeters>9212.9064104157</DistanceMeters>
          </Trackpoint>
          <Trackpoint>
            <Time>2018-06-10T09:39:01.000Z</Time>
            <Position>
              <LatitudeDegrees>35.90452370233833789825439453125</LatitudeDegrees>
              <LongitudeDegrees>-5.37248519249260425567626953125</LongitudeDegrees>
            </Position>
            <AltitudeMeters>216.399993896484375</AltitudeMeters>
            <DistanceMeters>9218.5587029116</DistanceMeters>
          </Trackpoint>
          <Trackpoint>
            <Time>2018-06-10T09:39:09.000Z</Time>
            <Position>
              <LatitudeDegrees>35.90449537150561809539794921875</LatitudeDegrees>
              <LongitudeDegrees>-5.37249885499477386474609375</LongitudeDegrees>
            </Position>
            <AltitudeMeters>216.399993896484375</AltitudeMeters>
            <DistanceMeters>9221.9438420531</DistanceMeters>
          </Trackpoint>
          <Trackpoint>
            <Time>2018-06-10T09:39:24.000Z</Time>
            <Position>
              <LatitudeDegrees>35.9045983850955963134765625</LatitudeDegrees>
              <LongitudeDegrees>-5.372381508350372314453125</LongitudeDegrees>
            </Position>
            <AltitudeMeters>218.8000030517578125</AltitudeMeters>
            <DistanceMeters>9237.5444388467</DistanceMeters>
          </Trackpoint>
          <Trackpoint>
            <Time>2018-06-10T09:39:28.000Z</Time>
            <Position>
              <LatitudeDegrees>35.904577933251857757568359375</LatitudeDegrees>
              <LongitudeDegrees>-5.3723303787410259246826171875</LongitudeDegrees>
            </Position>
            <AltitudeMeters>221</AltitudeMeters>
            <DistanceMeters>9242.6846726619</DistanceMeters>
          </Trackpoint>
          <Trackpoint>
            <Time>2018-06-10T09:39:29.000Z</Time>
            <Position>
              <LatitudeDegrees>35.9045740775763988494873046875</LatitudeDegrees>
              <LongitudeDegrees>-5.37232241593301296234130859375</LongitudeDegrees>
            </Position>
            <AltitudeMeters>221.399993896484375</AltitudeMeters>
            <DistanceMeters>9243.5185286964</DistanceMeters>
          </Trackpoint>
          <Trackpoint>
            <Time>2018-06-10T09:39:36.000Z</Time>
            <Position>
              <LatitudeDegrees>35.90452705509960651397705078125</LatitudeDegrees>
              <LongitudeDegrees>-5.3722344897687435150146484375</LongitudeDegrees>
            </Position>
            <AltitudeMeters>223.8000030517578125</AltitudeMeters>
            <DistanceMeters>9253.0178736161</DistanceMeters>
          </Trackpoint>
          <Trackpoint>
            <Time>2018-06-10T09:39:39.000Z</Time>
            <Position>
              <LatitudeDegrees>35.9044939465820789337158203125</LatitudeDegrees>
              <LongitudeDegrees>-5.3722106851637363433837890625</LongitudeDegrees>
            </Position>
            <AltitudeMeters>224.600006103515625</AltitudeMeters>
            <DistanceMeters>9257.282445571</DistanceMeters>
          </Trackpoint>
          <Trackpoint>
            <Time>2018-06-10T09:39:50.000Z</Time>
            <Position>
              <LatitudeDegrees>35.90438104234635829925537109375</LatitudeDegrees>
              <LongitudeDegrees>-5.37212711758911609649658203125</LongitudeDegrees>
            </Position>
            <AltitudeMeters>226.399993896484375</AltitudeMeters>
            <DistanceMeters>9271.9344432975</DistanceMeters>
          </Trackpoint>
          <Trackpoint>
            <Time>2018-06-10T09:39:52.000Z</Time>
            <Position>
              <LatitudeDegrees>35.9043638594448566436767578125</LatitudeDegrees>
              <LongitudeDegrees>-5.3721141256392002105712890625</LongitudeDegrees>
            </Position>
            <AltitudeMeters>226.399993896484375</AltitudeMeters>
            <DistanceMeters>9274.1791665891</DistanceMeters>
          </Trackpoint>
          <Trackpoint>
            <Time>2018-06-10T09:40:08.000Z</Time>
            <Position>
              <LatitudeDegrees>35.90418825857341289520263671875</LatitudeDegrees>
              <LongitudeDegrees>-5.3720732219517230987548828125</LongitudeDegrees>
            </Position>
            <AltitudeMeters>226.600006103515625</AltitudeMeters>
            <DistanceMeters>9294.0686006901</DistanceMeters>
          </Trackpoint>
          <Trackpoint>
            <Time>2018-06-10T09:40:09.000Z</Time>
            <Position>
              <LatitudeDegrees>35.90417535044252872467041015625</LatitudeDegrees>
              <LongitudeDegrees>-5.37207665853202342987060546875</LongitudeDegrees>
            </Position>
            <AltitudeMeters>226.8000030517578125</AltitudeMeters>
            <DistanceMeters>9295.5346014383</DistanceMeters>
          </Trackpoint>
          <Trackpoint>
            <Time>2018-06-10T09:40:14.000Z</Time>
            <Position>
              <LatitudeDegrees>35.9041147492825984954833984375</LatitudeDegrees>
              <LongitudeDegrees>-5.37206727080047130584716796875</LongitudeDegrees>
            </Position>
            <AltitudeMeters>227</AltitudeMeters>
            <DistanceMeters>9302.3315030182</DistanceMeters>
          </Trackpoint>
          <Trackpoint>
            <Time>2018-06-10T09:40:17.000Z</Time>
            <Position>
              <LatitudeDegrees>35.90408063493669033050537109375</LatitudeDegrees>
              <LongitudeDegrees>-5.37205821834504604339599609375</LongitudeDegrees>
            </Position>
            <AltitudeMeters>227</AltitudeMeters>
            <DistanceMeters>9306.2148298988</DistanceMeters>
          </Trackpoint>
          <Trackpoint>
            <Time>2018-06-10T09:40:18.000Z</Time>
            <Position>
              <LatitudeDegrees>35.9040714986622333526611328125</LatitudeDegrees>
              <LongitudeDegrees>-5.372055284678936004638671875</LongitudeDegrees>
            </Position>
            <AltitudeMeters>227</AltitudeMeters>
            <DistanceMeters>9307.2644342653</DistanceMeters>
          </Trackpoint>
          <Trackpoint>
            <Time>2018-06-10T09:40:24.000Z</Time>
            <Position>
              <LatitudeDegrees>35.903999917209148406982421875</LatitudeDegrees>
              <LongitudeDegrees>-5.372039191424846649169921875</LongitudeDegrees>
            </Position>
            <AltitudeMeters>227.1999969482421875</AltitudeMeters>
            <DistanceMeters>9315.3623608601</DistanceMeters>
          </Trackpoint>
          <Trackpoint>
            <Time>2018-06-10T09:40:29.000Z</Time>
            <Position>
              <LatitudeDegrees>35.9039397351443767547607421875</LatitudeDegrees>
              <LongitudeDegrees>-5.372034497559070587158203125</LongitudeDegrees>
            </Position>
            <AltitudeMeters>227.1999969482421875</AltitudeMeters>
            <DistanceMeters>9322.0743688592</DistanceMeters>
          </Trackpoint>
          <Trackpoint>
            <Time>2018-06-10T09:40:36.000Z</Time>
            <Position>
              <LatitudeDegrees>35.9038663096725940704345703125</LatitudeDegrees>
              <LongitudeDegrees>-5.37203994579613208770751953125</LongitudeDegrees>
            </Position>
            <AltitudeMeters>228</AltitudeMeters>
            <DistanceMeters>9330.2621211466</DistanceMeters>
          </Trackpoint>
          <Trackpoint>
            <Time>2018-06-10T09:40:37.000Z</Time>
            <Position>
              <LatitudeDegrees>35.9038562513887882232666015625</LatitudeDegrees>
              <LongitudeDegrees>-5.37204086780548095703125</LongitudeDegrees>
            </Position>
            <AltitudeMeters>228.1999969482421875</AltitudeMeters>
            <DistanceMeters>9331.386492394</DistanceMeters>
          </Trackpoint>
          <Trackpoint>
            <Time>2018-06-10T09:40:41.000Z</Time>
            <Position>
              <LatitudeDegrees>35.90381140820682048797607421875</LatitudeDegrees>
              <LongitudeDegrees>-5.3720437176525592803955078125</LongitudeDegrees>
            </Position>
            <AltitudeMeters>229</AltitudeMeters>
            <DistanceMeters>9336.384211018</DistanceMeters>
          </Trackpoint>
          <Trackpoint>
            <Time>2018-06-10T09:40:47.000Z</Time>
            <Position>
              <LatitudeDegrees>35.90374720282852649688720703125</LatitudeDegrees>
              <LongitudeDegrees>-5.372057296335697174072265625</LongitudeDegrees>
            </Position>
            <AltitudeMeters>230.1999969482421875</AltitudeMeters>
            <DistanceMeters>9343.6349423643</DistanceMeters>
          </Trackpoint>
          <Trackpoint>
            <Time>2018-06-10T09:40:55.000Z</Time>
            <Position>
              <LatitudeDegrees>35.903681404888629913330078125</LatitudeDegrees>
              <LongitudeDegrees>-5.37207129411399364471435546875</LongitudeDegrees>
            </Position>
            <AltitudeMeters>231.399993896484375</AltitudeMeters>
            <DistanceMeters>9351.0664931803</DistanceMeters>
          </Trackpoint>
          <Trackpoint>
            <Time>2018-06-10T09:41:01.000Z</Time>
            <Position>
              <LatitudeDegrees>35.90365081094205379486083984375</LatitudeDegrees>
              <LongitudeDegrees>-5.37207162939012050628662109375</LongitudeDegrees>
            </Position>
            <AltitudeMeters>231.8000030517578125</AltitudeMeters>
            <DistanceMeters>9354.4715802797</DistanceMeters>
          </Trackpoint>
          <Trackpoint>
            <Time>2018-06-10T09:41:03.000Z</Time>
            <Position>
              <LatitudeDegrees>35.90363739989697933197021484375</LatitudeDegrees>
              <LongitudeDegrees>-5.37206056527793407440185546875</LongitudeDegrees>
            </Position>
            <AltitudeMeters>231.8000030517578125</AltitudeMeters>
            <DistanceMeters>9356.2645407405</DistanceMeters>
          </Trackpoint>
          <Trackpoint>
            <Time>2018-06-10T09:41:08.000Z</Time>
            <Position>
              <LatitudeDegrees>35.903594233095645904541015625</LatitudeDegrees>
              <LongitudeDegrees>-5.3720350004732608795166015625</LongitudeDegrees>
            </Position>
            <AltitudeMeters>232.1999969482421875</AltitudeMeters>
            <DistanceMeters>9361.5945145202</DistanceMeters>
          </Trackpoint>
          <Trackpoint>
            <Time>2018-06-10T09:41:20.000Z</Time>
            <Position>
              <LatitudeDegrees>35.90354092419147491455078125</LatitudeDegrees>
              <LongitudeDegrees>-5.3719966113567352294921875</LongitudeDegrees>
            </Position>
            <AltitudeMeters>232.399993896484375</AltitudeMeters>
            <DistanceMeters>9368.4640981682</DistanceMeters>
          </Trackpoint>
          <Trackpoint>
            <Time>2018-06-10T09:41:23.000Z</Time>
            <Position>
              <LatitudeDegrees>35.9035669080913066864013671875</LatitudeDegrees>
              <LongitudeDegrees>-5.37201697938144207000732421875</LongitudeDegrees>
            </Position>
            <AltitudeMeters>232.399993896484375</AltitudeMeters>
            <DistanceMeters>9371.8903350802</DistanceMeters>
          </Trackpoint>
          <Trackpoint>
            <Time>2018-06-10T09:41:30.000Z</Time>
            <Position>
              <LatitudeDegrees>35.90354871936142444610595703125</LatitudeDegrees>
              <LongitudeDegrees>-5.37208185531198978424072265625</LongitudeDegrees>
            </Position>
            <AltitudeMeters>233.600006103515625</AltitudeMeters>
            <DistanceMeters>9378.0794856095</DistanceMeters>
          </Trackpoint>
          <Trackpoint>
            <Time>2018-06-10T09:41:31.000Z</Time>
            <Position>
              <LatitudeDegrees>35.9035387448966503143310546875</LatitudeDegrees>
              <LongitudeDegrees>-5.372086800634860992431640625</LongitudeDegrees>
            </Position>
            <AltitudeMeters>233.8000030517578125</AltitudeMeters>
            <DistanceMeters>9379.2739528875</DistanceMeters>
          </Trackpoint>
          <Trackpoint>
            <Time>2018-06-10T09:41:34.000Z</Time>
            <Position>
              <LatitudeDegrees>35.9035092405974864959716796875</LatitudeDegrees>
              <LongitudeDegrees>-5.37210197187960147857666015625</LongitudeDegrees>
            </Position>
            <AltitudeMeters>234.399993896484375</AltitudeMeters>
            <DistanceMeters>9382.8307965864</DistanceMeters>
          </Trackpoint>
          <Trackpoint>
            <Time>2018-06-10T09:41:39.000Z</Time>
            <Position>
              <LatitudeDegrees>35.9034569375216960906982421875</LatitudeDegrees>
              <LongitudeDegrees>-5.3721258603036403656005859375</LongitudeDegrees>
            </Position>
            <AltitudeMeters>235.600006103515625</AltitudeMeters>
            <DistanceMeters>9389.0381580376</DistanceMeters>
          </Trackpoint>
          <Trackpoint>
            <Time>2018-06-10T09:41:44.000Z</Time>
            <Position>
              <LatitudeDegrees>35.90340815484523773193359375</LatitudeDegrees>
              <LongitudeDegrees>-5.37216131575405597686767578125</LongitudeDegrees>
            </Position>
            <AltitudeMeters>236.399993896484375</AltitudeMeters>
            <DistanceMeters>9395.3386513554</DistanceMeters>
          </Trackpoint>
          <Trackpoint>
            <Time>2018-06-10T09:41:48.000Z</Time>
            <Position>
              <LatitudeDegrees>35.903372280299663543701171875</LatitudeDegrees>
              <LongitudeDegrees>-5.37218646146357059478759765625</LongitudeDegrees>
            </Position>
            <AltitudeMeters>236.399993896484375</AltitudeMeters>
            <DistanceMeters>9399.9295334515</DistanceMeters>
          </Trackpoint>
          <Trackpoint>
            <Time>2018-06-10T09:41:51.000Z</Time>
            <Position>
              <LatitudeDegrees>35.903351493179798126220703125</LatitudeDegrees>
              <LongitudeDegrees>-5.37219802848994731903076171875</LongitudeDegrees>
            </Position>
            <AltitudeMeters>236.399993896484375</AltitudeMeters>
            <DistanceMeters>9402.4687212313</DistanceMeters>
          </Trackpoint>
          <Trackpoint>
            <Time>2018-06-10T09:41:52.000Z</Time>
            <Position>
              <LatitudeDegrees>35.903346799314022064208984375</LatitudeDegrees>
              <LongitudeDegrees>-5.372204817831516265869140625</LongitudeDegrees>
            </Position>
            <AltitudeMeters>236.399993896484375</AltitudeMeters>
            <DistanceMeters>9403.2750496408</DistanceMeters>
          </Trackpoint>
          <Trackpoint>
            <Time>2018-06-10T09:41:53.000Z</Time>
            <Position>
              <LatitudeDegrees>35.90334084816277027130126953125</LatitudeDegrees>
              <LongitudeDegrees>-5.37221051752567291259765625</LongitudeDegrees>
            </Position>
            <AltitudeMeters>236.399993896484375</AltitudeMeters>
            <DistanceMeters>9404.1249944128</DistanceMeters>
          </Trackpoint>
          <Trackpoint>
            <Time>2018-06-10T09:41:55.000Z</Time>
            <Position>
              <LatitudeDegrees>35.9033297002315521240234375</LatitudeDegrees>
              <LongitudeDegrees>-5.3722393512725830078125</LongitudeDegrees>
            </Position>
            <AltitudeMeters>236</AltitudeMeters>
            <DistanceMeters>9407.0072973685</DistanceMeters>
          </Trackpoint>
          <Trackpoint>
            <Time>2018-06-10T09:41:57.000Z</Time>
            <Position>
              <LatitudeDegrees>35.9033194743096828460693359375</LatitudeDegrees>
              <LongitudeDegrees>-5.37225184030830860137939453125</LongitudeDegrees>
            </Position>
            <AltitudeMeters>235.8000030517578125</AltitudeMeters>
            <DistanceMeters>9408.608716024</DistanceMeters>
          </Trackpoint>
          <Trackpoint>
            <Time>2018-06-10T09:41:59.000Z</Time>
            <Position>
              <LatitudeDegrees>35.90330262668430805206298828125</LatitudeDegrees>
              <LongitudeDegrees>-5.37227547727525234222412109375</LongitudeDegrees>
            </Position>
            <AltitudeMeters>235.600006103515625</AltitudeMeters>
            <DistanceMeters>9411.4484093638</DistanceMeters>
          </Trackpoint>
          <Trackpoint>
            <Time>2018-06-10T09:42:01.000Z</Time>
            <Position>
              <LatitudeDegrees>35.903287120163440704345703125</LatitudeDegrees>
              <LongitudeDegrees>-5.3722924925386905670166015625</LongitudeDegrees>
            </Position>
            <AltitudeMeters>235.600006103515625</AltitudeMeters>
            <DistanceMeters>9413.7566002359</DistanceMeters>
          </Trackpoint>
          <Trackpoint>
            <Time>2018-06-10T09:42:03.000Z</Time>
            <Position>
              <LatitudeDegrees>35.9032738767564296722412109375</LatitudeDegrees>
              <LongitudeDegrees>-5.3723099268972873687744140625</LongitudeDegrees>
            </Position>
            <AltitudeMeters>235.399993896484375</AltitudeMeters>
            <DistanceMeters>9415.9130995678</DistanceMeters>
          </Trackpoint>
          <Trackpoint>
            <Time>2018-06-10T09:42:05.000Z</Time>
            <Position>
              <LatitudeDegrees>35.90326876379549503326416015625</LatitudeDegrees>
              <LongitudeDegrees>-5.3723250143229961395263671875</LongitudeDegrees>
            </Position>
            <AltitudeMeters>235.1999969482421875</AltitudeMeters>
            <DistanceMeters>9417.3852470966</DistanceMeters>
          </Trackpoint>
          <Trackpoint>
            <Time>2018-06-10T09:42:08.000Z</Time>
            <Position>
              <LatitudeDegrees>35.9032527543604373931884765625</LatitudeDegrees>
              <LongitudeDegrees>-5.3723266907036304473876953125</LongitudeDegrees>
            </Position>
            <AltitudeMeters>235.399993896484375</AltitudeMeters>
            <DistanceMeters>9419.1731640581</DistanceMeters>
          </Trackpoint>
          <Trackpoint>
            <Time>2018-06-10T09:42:15.000Z</Time>
            <Position>
              <LatitudeDegrees>35.90321009047329425811767578125</LatitudeDegrees>
              <LongitudeDegrees>-5.372378826141357421875</LongitudeDegrees>
            </Position>
            <AltitudeMeters>235</AltitudeMeters>
            <DistanceMeters>9425.855508558</DistanceMeters>
          </Trackpoint>
          <Trackpoint>
            <Time>2018-06-10T09:42:19.000Z</Time>
            <Position>
              <LatitudeDegrees>35.90318025089800357818603515625</LatitudeDegrees>
              <LongitudeDegrees>-5.37241260521113872528076171875</LongitudeDegrees>
            </Position>
            <AltitudeMeters>234.8000030517578125</AltitudeMeters>
            <DistanceMeters>9430.3620196168</DistanceMeters>
          </Trackpoint>
          <Trackpoint>
            <Time>2018-06-10T09:42:23.000Z</Time>
            <Position>
              <LatitudeDegrees>35.903147645294666290283203125</LatitudeDegrees>
              <LongitudeDegrees>-5.37244227714836597442626953125</LongitudeDegrees>
            </Position>
            <AltitudeMeters>234.600006103515625</AltitudeMeters>
            <DistanceMeters>9434.8715353504</DistanceMeters>
          </Trackpoint>
          <Trackpoint>
            <Time>2018-06-10T09:42:25.000Z</Time>
            <Position>
              <LatitudeDegrees>35.903134234249591827392578125</LatitudeDegrees>
              <LongitudeDegrees>-5.3724701888859272003173828125</LongitudeDegrees>
            </Position>
            <AltitudeMeters>234.399993896484375</AltitudeMeters>
            <DistanceMeters>9437.7973706959</DistanceMeters>
          </Trackpoint>
          <Trackpoint>
            <Time>2018-06-10T09:42:27.000Z</Time>
            <Position>
              <LatitudeDegrees>35.9031258523464202880859375</LatitudeDegrees>
              <LongitudeDegrees>-5.3724939934909343719482421875</LongitudeDegrees>
            </Position>
            <AltitudeMeters>234</AltitudeMeters>
            <DistanceMeters>9440.1366497141</DistanceMeters>
          </Trackpoint>
          <Trackpoint>
            <Time>2018-06-10T09:42:30.000Z</Time>
            <Position>
              <LatitudeDegrees>35.90309877879917621612548828125</LatitudeDegrees>
              <LongitudeDegrees>-5.37251184694468975067138671875</LongitudeDegrees>
            </Position>
            <AltitudeMeters>234</AltitudeMeters>
            <DistanceMeters>9443.5523280897</DistanceMeters>
          </Trackpoint>
          <Trackpoint>
            <Time>2018-06-10T09:42:31.000Z</Time>
            <Position>
              <LatitudeDegrees>35.90309299528598785400390625</LatitudeDegrees>
              <LongitudeDegrees>-5.3725271858274936676025390625</LongitudeDegrees>
            </Position>
            <AltitudeMeters>233.8000030517578125</AltitudeMeters>
            <DistanceMeters>9445.0786831344</DistanceMeters>
          </Trackpoint>
          <Trackpoint>
            <Time>2018-06-10T09:42:32.000Z</Time>
            <Position>
              <LatitudeDegrees>35.90308251790702342987060546875</LatitudeDegrees>
              <LongitudeDegrees>-5.372538752853870391845703125</LongitudeDegrees>
            </Position>
            <AltitudeMeters>233.8000030517578125</AltitudeMeters>
            <DistanceMeters>9446.6459038568</DistanceMeters>
          </Trackpoint>
          <Trackpoint>
            <Time>2018-06-10T09:42:35.000Z</Time>
            <Position>
              <LatitudeDegrees>35.90306290425360202789306640625</LatitudeDegrees>
              <LongitudeDegrees>-5.37255023606121540069580078125</LongitudeDegrees>
            </Position>
            <AltitudeMeters>233.8000030517578125</AltitudeMeters>
            <DistanceMeters>9449.0611531985</DistanceMeters>
          </Trackpoint>
          <Trackpoint>
            <Time>2018-06-10T09:42:39.000Z</Time>
            <Position>
              <LatitudeDegrees>35.9030579589307308197021484375</LatitudeDegrees>
              <LongitudeDegrees>-5.37255727685987949371337890625</LongitudeDegrees>
            </Position>
            <AltitudeMeters>233.8000030517578125</AltitudeMeters>
            <DistanceMeters>9449.9004064158</DistanceMeters>
          </Trackpoint>
          <Trackpoint>
            <Time>2018-06-10T09:42:44.000Z</Time>
            <Position>
              <LatitudeDegrees>35.9030411951243877410888671875</LatitudeDegrees>
              <LongitudeDegrees>-5.3725811652839183807373046875</LongitudeDegrees>
            </Position>
            <AltitudeMeters>233.600006103515625</AltitudeMeters>
            <DistanceMeters>9452.7512078469</DistanceMeters>
          </Trackpoint>
          <Trackpoint>
            <Time>2018-06-10T09:42:49.000Z</Time>
            <Position>
              <LatitudeDegrees>35.90300272218883037567138671875</LatitudeDegrees>
              <LongitudeDegrees>-5.372605808079242706298828125</LongitudeDegrees>
            </Position>
            <AltitudeMeters>233.600006103515625</AltitudeMeters>
            <DistanceMeters>9457.576095107</DistanceMeters>
          </Trackpoint>
          <Trackpoint>
            <Time>2018-06-10T09:42:52.000Z</Time>
            <Position>
              <LatitudeDegrees>35.9029898978769779205322265625</LatitudeDegrees>
              <LongitudeDegrees>-5.37261025048792362213134765625</LongitudeDegrees>
            </Position>
            <AltitudeMeters>233.8000030517578125</AltitudeMeters>
            <DistanceMeters>9459.0604598372</DistanceMeters>
          </Trackpoint>
          <Trackpoint>
            <Time>2018-06-10T09:42:57.000Z</Time>
            <Position>
              <LatitudeDegrees>35.90298076160252094268798828125</LatitudeDegrees>
              <LongitudeDegrees>-5.37260622717440128326416015625</LongitudeDegrees>
            </Position>
            <AltitudeMeters>234</AltitudeMeters>
            <DistanceMeters>9460.1355643832</DistanceMeters>
          </Trackpoint>
          <Trackpoint>
            <Time>2018-06-10T09:42:58.000Z</Time>
            <Position>
              <LatitudeDegrees>35.9029768221080303192138671875</LatitudeDegrees>
              <LongitudeDegrees>-5.37260748445987701416015625</LongitudeDegrees>
            </Position>
            <AltitudeMeters>234</AltitudeMeters>
            <DistanceMeters>9460.5912964955</DistanceMeters>
          </Trackpoint>
          <Trackpoint>
            <Time>2018-06-10T09:42:59.000Z</Time>
            <Position>
              <LatitudeDegrees>35.902970619499683380126953125</LatitudeDegrees>
              <LongitudeDegrees>-5.37261142395436763763427734375</LongitudeDegrees>
            </Position>
            <AltitudeMeters>234.1999969482421875</AltitudeMeters>
            <DistanceMeters>9461.3691236754</DistanceMeters>
          </Trackpoint>
          <Trackpoint>
            <Time>2018-06-10T09:43:00.000Z</Time>
            <Position>
              <LatitudeDegrees>35.90296366252005100250244140625</LatitudeDegrees>
              <LongitudeDegrees>-5.37261226214468479156494140625</LongitudeDegrees>
            </Position>
            <AltitudeMeters>234.1999969482421875</AltitudeMeters>
            <DistanceMeters>9462.1469508553</DistanceMeters>
          </Trackpoint>
          <Trackpoint>
            <Time>2018-06-10T09:43:01.000Z</Time>
            <Position>
              <LatitudeDegrees>35.90295712463557720184326171875</LatitudeDegrees>
              <LongitudeDegrees>-5.37261310033500194549560546875</LongitudeDegrees>
            </Position>
            <AltitudeMeters>234.399993896484375</AltitudeMeters>
            <DistanceMeters>9462.8830246197</DistanceMeters>
          </Trackpoint>
          <Trackpoint>
            <Time>2018-06-10T09:43:03.000Z</Time>
            <Position>
              <LatitudeDegrees>35.90293742716312408447265625</LatitudeDegrees>
              <LongitudeDegrees>-5.3726116754114627838134765625</LongitudeDegrees>
            </Position>
            <AltitudeMeters>234.600006103515625</AltitudeMeters>
            <DistanceMeters>9465.080998891</DistanceMeters>
          </Trackpoint>
          <Trackpoint>
            <Time>2018-06-10T09:43:06.000Z</Time>
            <Position>
              <LatitudeDegrees>35.90290683321654796600341796875</LatitudeDegrees>
              <LongitudeDegrees>-5.37261125631630420684814453125</LongitudeDegrees>
            </Position>
            <AltitudeMeters>235.1999969482421875</AltitudeMeters>
            <DistanceMeters>9468.4860859903</DistanceMeters>
          </Trackpoint>
          <Trackpoint>
            <Time>2018-06-10T09:43:12.000Z</Time>
            <Position>
              <LatitudeDegrees>35.902845561504364013671875</LatitudeDegrees>
              <LongitudeDegrees>-5.37261310033500194549560546875</LongitudeDegrees>
            </Position>
            <AltitudeMeters>236.1999969482421875</AltitudeMeters>
            <DistanceMeters>9475.3075216102</DistanceMeters>
          </Trackpoint>
          <Trackpoint>
            <Time>2018-06-10T09:43:14.000Z</Time>
            <Position>
              <LatitudeDegrees>35.90282586403191089630126953125</LatitudeDegrees>
              <LongitudeDegrees>-5.37261360324919223785400390625</LongitudeDegrees>
            </Position>
            <AltitudeMeters>236.399993896484375</AltitudeMeters>
            <DistanceMeters>9477.4993246735</DistanceMeters>
          </Trackpoint>
          <Trackpoint>
            <Time>2018-06-10T09:43:22.000Z</Time>
            <Position>
              <LatitudeDegrees>35.902742631733417510986328125</LatitudeDegrees>
              <LongitudeDegrees>-5.3726227395236492156982421875</LongitudeDegrees>
            </Position>
            <AltitudeMeters>237.8000030517578125</AltitudeMeters>
            <DistanceMeters>9486.7998140292</DistanceMeters>
          </Trackpoint>
          <Trackpoint>
            <Time>2018-06-10T09:43:25.000Z</Time>
            <Position>
              <LatitudeDegrees>35.9027032367885112762451171875</LatitudeDegrees>
              <LongitudeDegrees>-5.3726255893707275390625</LongitudeDegrees>
            </Position>
            <AltitudeMeters>238.399993896484375</AltitudeMeters>
            <DistanceMeters>9491.1937079102</DistanceMeters>
          </Trackpoint>
          <Trackpoint>
            <Time>2018-06-10T09:43:26.000Z</Time>
            <Position>
              <LatitudeDegrees>35.90269292704761028289794921875</LatitudeDegrees>
              <LongitudeDegrees>-5.372624583542346954345703125</LongitudeDegrees>
            </Position>
            <AltitudeMeters>238.600006103515625</AltitudeMeters>
            <DistanceMeters>9492.3458455917</DistanceMeters>
          </Trackpoint>
          <Trackpoint>
            <Time>2018-06-10T09:43:39.000Z</Time>
            <Position>
              <LatitudeDegrees>35.9025500155985355377197265625</LatitudeDegrees>
              <LongitudeDegrees>-5.37268417887389659881591796875</LongitudeDegrees>
            </Position>
            <AltitudeMeters>239.600006103515625</AltitudeMeters>
            <DistanceMeters>9509.1352132473</DistanceMeters>
          </Trackpoint>
          <Trackpoint>
            <Time>2018-06-10T09:43:45.000Z</Time>
            <Position>
              <LatitudeDegrees>35.9025101177394390106201171875</LatitudeDegrees>
              <LongitudeDegrees>-5.3727065585553646087646484375</LongitudeDegrees>
            </Position>
            <AltitudeMeters>240</AltitudeMeters>
            <DistanceMeters>9514.0122227156</DistanceMeters>
          </Trackpoint>
          <Trackpoint>
            <Time>2018-06-10T09:43:47.000Z</Time>
            <Position>
              <LatitudeDegrees>35.90249863453209400177001953125</LatitudeDegrees>
              <LongitudeDegrees>-5.37271955050528049468994140625</LongitudeDegrees>
            </Position>
            <AltitudeMeters>239.8000030517578125</AltitudeMeters>
            <DistanceMeters>9515.7436918546</DistanceMeters>
          </Trackpoint>
          <Trackpoint>
            <Time>2018-06-10T09:43:55.000Z</Time>
            <Position>
              <LatitudeDegrees>35.90242923237383365631103515625</LatitudeDegrees>
              <LongitudeDegrees>-5.37277017720043659210205078125</LongitudeDegrees>
            </Position>
            <AltitudeMeters>239.8000030517578125</AltitudeMeters>
            <DistanceMeters>9524.7155423561</DistanceMeters>
          </Trackpoint>
          <Trackpoint>
            <Time>2018-06-10T09:43:57.000Z</Time>
            <Position>
              <LatitudeDegrees>35.90240911580622196197509765625</LatitudeDegrees>
              <LongitudeDegrees>-5.372780822217464447021484375</LongitudeDegrees>
            </Position>
            <AltitudeMeters>239.8000030517578125</AltitudeMeters>
            <DistanceMeters>9527.1512681666</DistanceMeters>
          </Trackpoint>
          <Trackpoint>
            <Time>2018-06-10T09:43:58.000Z</Time>
            <Position>
              <LatitudeDegrees>35.902399308979511260986328125</LatitudeDegrees>
              <LongitudeDegrees>-5.37278425879776477813720703125</LongitudeDegrees>
            </Position>
            <AltitudeMeters>239.8000030517578125</AltitudeMeters>
            <DistanceMeters>9528.2836421574</DistanceMeters>
          </Trackpoint>
          <Trackpoint>
            <Time>2018-06-10T09:44:07.000Z</Time>
            <Position>
              <LatitudeDegrees>35.90232856571674346923828125</LatitudeDegrees>
              <LongitudeDegrees>-5.37281133234500885009765625</LongitudeDegrees>
            </Position>
            <AltitudeMeters>240</AltitudeMeters>
            <DistanceMeters>9536.5274492461</DistanceMeters>
          </Trackpoint>
          <Trackpoint>
            <Time>2018-06-10T09:44:13.000Z</Time>
            <Position>
              <LatitudeDegrees>35.90228556655347347259521484375</LatitudeDegrees>
              <LongitudeDegrees>-5.37281493656337261199951171875</LongitudeDegrees>
            </Position>
            <AltitudeMeters>240.1999969482421875</AltitudeMeters>
            <DistanceMeters>9541.3241809229</DistanceMeters>
          </Trackpoint>
          <Trackpoint>
            <Time>2018-06-10T09:44:14.000Z</Time>
            <Position>
              <LatitudeDegrees>35.9022764302790164947509765625</LatitudeDegrees>
              <LongitudeDegrees>-5.37281409837305545806884765625</LongitudeDegrees>
            </Position>
            <AltitudeMeters>240.1999969482421875</AltitudeMeters>
            <DistanceMeters>9542.3432289057</DistanceMeters>
          </Trackpoint>
          <Trackpoint>
            <Time>2018-06-10T09:44:27.000Z</Time>
            <Position>
              <LatitudeDegrees>35.902157910168170928955078125</LatitudeDegrees>
              <LongitudeDegrees>-5.3728118352591991424560546875</LongitudeDegrees>
            </Position>
            <AltitudeMeters>241.399993896484375</AltitudeMeters>
            <DistanceMeters>9555.5365512141</DistanceMeters>
          </Trackpoint>
          <Trackpoint>
            <Time>2018-06-10T09:44:33.000Z</Time>
            <Position>
              <LatitudeDegrees>35.90211424045264720916748046875</LatitudeDegrees>
              <LongitudeDegrees>-5.3728171996772289276123046875</LongitudeDegrees>
            </Position>
            <AltitudeMeters>242</AltitudeMeters>
            <DistanceMeters>9560.4218855979</DistanceMeters>
          </Trackpoint>
          <Trackpoint>
            <Time>2018-06-10T09:44:36.000Z</Time>
            <Position>
              <LatitudeDegrees>35.9020880050957202911376953125</LatitudeDegrees>
              <LongitudeDegrees>-5.37280538119375705718994140625</LongitudeDegrees>
            </Position>
            <AltitudeMeters>242.600006103515625</AltitudeMeters>
            <DistanceMeters>9563.5302906221</DistanceMeters>
          </Trackpoint>
          <Trackpoint>
            <Time>2018-06-10T09:44:51.000Z</Time>
            <Position>
              <LatitudeDegrees>35.901988931000232696533203125</LatitudeDegrees>
              <LongitudeDegrees>-5.3727722726762294769287109375</LongitudeDegrees>
            </Position>
            <AltitudeMeters>244.1999969482421875</AltitudeMeters>
            <DistanceMeters>9574.9544621389</DistanceMeters>
          </Trackpoint>
          <Trackpoint>
            <Time>2018-06-10T09:44:55.000Z</Time>
            <Position>
              <LatitudeDegrees>35.901948697865009307861328125</LatitudeDegrees>
              <LongitudeDegrees>-5.37278040312230587005615234375</LongitudeDegrees>
            </Position>
            <AltitudeMeters>244.8000030517578125</AltitudeMeters>
            <DistanceMeters>9579.4929205081</DistanceMeters>
          </Trackpoint>
          <Trackpoint>
            <Time>2018-06-10T09:45:04.000Z</Time>
            <Position>
              <LatitudeDegrees>35.9018737636506557464599609375</LatitudeDegrees>
              <LongitudeDegrees>-5.37279750220477581024169921875</LongitudeDegrees>
            </Position>
            <AltitudeMeters>245.8000030517578125</AltitudeMeters>
            <DistanceMeters>9587.974287671</DistanceMeters>
          </Trackpoint>
          <Trackpoint>
            <Time>2018-06-10T09:45:13.000Z</Time>
            <Position>
              <LatitudeDegrees>35.9018184430897235870361328125</LatitudeDegrees>
              <LongitudeDegrees>-5.3728037886321544647216796875</LongitudeDegrees>
            </Position>
            <AltitudeMeters>246.399993896484375</AltitudeMeters>
            <DistanceMeters>9594.1568691373</DistanceMeters>
          </Trackpoint>
          <Trackpoint>
            <Time>2018-06-10T09:45:24.000Z</Time>
            <Position>
              <LatitudeDegrees>35.901720710098743438720703125</LatitudeDegrees>
              <LongitudeDegrees>-5.3728081472218036651611328125</LongitudeDegrees>
            </Position>
            <AltitudeMeters>247.8000030517578125</AltitudeMeters>
            <DistanceMeters>9605.0414730779</DistanceMeters>
          </Trackpoint>
          <Trackpoint>
            <Time>2018-06-10T09:45:31.000Z</Time>
            <Position>
              <LatitudeDegrees>35.90166396461427211761474609375</LatitudeDegrees>
              <LongitudeDegrees>-5.37283790297806262969970703125</LongitudeDegrees>
            </Position>
            <AltitudeMeters>248.399993896484375</AltitudeMeters>
            <DistanceMeters>9611.9031651855</DistanceMeters>
          </Trackpoint>
          <Trackpoint>
            <Time>2018-06-10T09:45:33.000Z</Time>
            <Position>
              <LatitudeDegrees>35.9016504697501659393310546875</LatitudeDegrees>
              <LongitudeDegrees>-5.37283807061612606048583984375</LongitudeDegrees>
            </Position>
            <AltitudeMeters>248.600006103515625</AltitudeMeters>
            <DistanceMeters>9613.4056694654</DistanceMeters>
          </Trackpoint>
          <Trackpoint>
            <Time>2018-06-10T09:45:39.000Z</Time>
            <Position>
              <LatitudeDegrees>35.9016196243464946746826171875</LatitudeDegrees>
              <LongitudeDegrees>-5.37283287383615970611572265625</LongitudeDegrees>
            </Position>
            <AltitudeMeters>249</AltitudeMeters>
            <DistanceMeters>9616.8699113152</DistanceMeters>
          </Trackpoint>
          <Trackpoint>
            <Time>2018-06-10T09:45:46.000Z</Time>
            <Position>
              <LatitudeDegrees>35.90159154497087001800537109375</LatitudeDegrees>
              <LongitudeDegrees>-5.37283253856003284454345703125</LongitudeDegrees>
            </Position>
            <AltitudeMeters>249.399993896484375</AltitudeMeters>
            <DistanceMeters>9619.9942532676</DistanceMeters>
          </Trackpoint>
          <Trackpoint>
            <Time>2018-06-10T09:45:50.000Z</Time>
            <Position>
              <LatitudeDegrees>35.90158383361995220184326171875</LatitudeDegrees>
              <LongitudeDegrees>-5.372833125293254852294921875</LongitudeDegrees>
            </Position>
            <AltitudeMeters>249.600006103515625</AltitudeMeters>
            <DistanceMeters>9620.8547567647</DistanceMeters>
          </Trackpoint>
          <Trackpoint>
            <Time>2018-06-10T09:45:54.000Z</Time>
            <Position>
              <LatitudeDegrees>35.9015837498009204864501953125</LatitudeDegrees>
              <LongitudeDegrees>-5.37281996570527553558349609375</LongitudeDegrees>
            </Position>
            <AltitudeMeters>249.600006103515625</AltitudeMeters>
            <DistanceMeters>9622.0416400467</DistanceMeters>
          </Trackpoint>
          <Trackpoint>
            <Time>2018-06-10T09:46:09.000Z</Time>
            <Position>
              <LatitudeDegrees>35.90153655968606472015380859375</LatitudeDegrees>
              <LongitudeDegrees>-5.37278643809258937835693359375</LongitudeDegrees>
            </Position>
            <AltitudeMeters>250.8000030517578125</AltitudeMeters>
            <DistanceMeters>9628.1010369492</DistanceMeters>
          </Trackpoint>
          <Trackpoint>
            <Time>2018-06-10T09:46:11.000Z</Time>
            <Position>
              <LatitudeDegrees>35.9015264175832271575927734375</LatitudeDegrees>
              <LongitudeDegrees>-5.37278744392096996307373046875</LongitudeDegrees>
            </Position>
            <AltitudeMeters>250.8000030517578125</AltitudeMeters>
            <DistanceMeters>9629.23341094</DistanceMeters>
          </Trackpoint>
          <Trackpoint>
            <Time>2018-06-10T09:46:12.000Z</Time>
            <Position>
              <LatitudeDegrees>35.90151946060359477996826171875</LatitudeDegrees>
              <LongitudeDegrees>-5.37278962321579456329345703125</LongitudeDegrees>
            </Position>
            <AltitudeMeters>251</AltitudeMeters>
            <DistanceMeters>9630.0397393495</DistanceMeters>
          </Trackpoint>
          <Trackpoint>
            <Time>2018-06-10T09:46:13.000Z</Time>
            <Position>
              <LatitudeDegrees>35.90151124633848667144775390625</LatitudeDegrees>
              <LongitudeDegrees>-5.3727933950722217559814453125</LongitudeDegrees>
            </Position>
            <AltitudeMeters>251</AltitudeMeters>
            <DistanceMeters>9631.0180992541</DistanceMeters>
          </Trackpoint>
          <Trackpoint>
            <Time>2018-06-10T09:46:14.000Z</Time>
            <Position>
              <LatitudeDegrees>35.90150420553982257843017578125</LatitudeDegrees>
              <LongitudeDegrees>-5.3727964125573635101318359375</LongitudeDegrees>
            </Position>
            <AltitudeMeters>251.1999969482421875</AltitudeMeters>
            <DistanceMeters>9631.8519552886</DistanceMeters>
          </Trackpoint>
          <Trackpoint>
            <Time>2018-06-10T09:46:15.000Z</Time>
            <Position>
              <LatitudeDegrees>35.90149716474115848541259765625</LatitudeDegrees>
              <LongitudeDegrees>-5.37279800511896610260009765625</LongitudeDegrees>
            </Position>
            <AltitudeMeters>251.1999969482421875</AltitudeMeters>
            <DistanceMeters>9632.6470058222</DistanceMeters>
          </Trackpoint>
          <Trackpoint>
            <Time>2018-06-10T09:46:22.000Z</Time>
            <Position>
              <LatitudeDegrees>35.90145341120660305023193359375</LatitudeDegrees>
              <LongitudeDegrees>-5.37280538119375705718994140625</LongitudeDegrees>
            </Position>
            <AltitudeMeters>251.8000030517578125</AltitudeMeters>
            <DistanceMeters>9637.5618257058</DistanceMeters>
          </Trackpoint>
          <Trackpoint>
            <Time>2018-06-10T09:46:24.000Z</Time>
            <Position>
              <LatitudeDegrees>35.90144209563732147216796875</LatitudeDegrees>
              <LongitudeDegrees>-5.3728071413934230804443359375</LongitudeDegrees>
            </Position>
            <AltitudeMeters>252</AltitudeMeters>
            <DistanceMeters>9638.829640206</DistanceMeters>
          </Trackpoint>
          <Trackpoint>
            <Time>2018-06-10T09:46:28.000Z</Time>
            <Position>
              <LatitudeDegrees>35.90142239816486835479736328125</LatitudeDegrees>
              <LongitudeDegrees>-5.372798927128314971923828125</LongitudeDegrees>
            </Position>
            <AltitudeMeters>252.399993896484375</AltitudeMeters>
            <DistanceMeters>9641.145642237</DistanceMeters>
          </Trackpoint>
          <Trackpoint>
            <Time>2018-06-10T09:46:32.000Z</Time>
            <Position>
              <LatitudeDegrees>35.90141351334750652313232421875</LatitudeDegrees>
              <LongitudeDegrees>-5.3727866895496845245361328125</LongitudeDegrees>
            </Position>
            <AltitudeMeters>252.600006103515625</AltitudeMeters>
            <DistanceMeters>9642.6269621133</DistanceMeters>
          </Trackpoint>
          <Trackpoint>
            <Time>2018-06-10T09:46:39.000Z</Time>
            <Position>
              <LatitudeDegrees>35.9013923071324825286865234375</LatitudeDegrees>
              <LongitudeDegrees>-5.37278224714100360870361328125</LongitudeDegrees>
            </Position>
            <AltitudeMeters>253</AltitudeMeters>
            <DistanceMeters>9645.0196736432</DistanceMeters>
          </Trackpoint>
          <Trackpoint>
            <Time>2018-06-10T09:46:45.000Z</Time>
            <Position>
              <LatitudeDegrees>35.901377387344837188720703125</LatitudeDegrees>
              <LongitudeDegrees>-5.37278342060744762420654296875</LongitudeDegrees>
            </Position>
            <AltitudeMeters>253.399993896484375</AltitudeMeters>
            <DistanceMeters>9646.6819622439</DistanceMeters>
          </Trackpoint>
          <Trackpoint>
            <Time>2018-06-10T09:46:54.000Z</Time>
            <Position>
              <LatitudeDegrees>35.90132248587906360626220703125</LatitudeDegrees>
              <LongitudeDegrees>-5.37280404008924961090087890625</LongitudeDegrees>
            </Position>
            <AltitudeMeters>254.399993896484375</AltitudeMeters>
            <DistanceMeters>9653.069284482</DistanceMeters>
          </Trackpoint>
          <Trackpoint>
            <Time>2018-06-10T09:46:59.000Z</Time>
            <Position>
              <LatitudeDegrees>35.90128795243799686431884765625</LatitudeDegrees>
              <LongitudeDegrees>-5.37281728349626064300537109375</LongitudeDegrees>
            </Position>
            <AltitudeMeters>255.1999969482421875</AltitudeMeters>
            <DistanceMeters>9657.0942015173</DistanceMeters>
          </Trackpoint>
          <Trackpoint>
            <Time>2018-06-10T09:47:04.000Z</Time>
            <Position>
              <LatitudeDegrees>35.9012592025101184844970703125</LatitudeDegrees>
              <LongitudeDegrees>-5.37282885052263736724853515625</LongitudeDegrees>
            </Position>
            <AltitudeMeters>255.600006103515625</AltitudeMeters>
            <DistanceMeters>9660.4592744527</DistanceMeters>
          </Trackpoint>
          <Trackpoint>
            <Time>2018-06-10T09:47:08.000Z</Time>
            <Position>
              <LatitudeDegrees>35.9012317098677158355712890625</LatitudeDegrees>
              <LongitudeDegrees>-5.372818373143672943115234375</LongitudeDegrees>
            </Position>
            <AltitudeMeters>256.399993896484375</AltitudeMeters>
            <DistanceMeters>9663.6621117636</DistanceMeters>
          </Trackpoint>
          <Trackpoint>
            <Time>2018-06-10T09:47:13.000Z</Time>
            <Position>
              <LatitudeDegrees>35.90121746063232421875</LatitudeDegrees>
              <LongitudeDegrees>-5.3728011064231395721435546875</LongitudeDegrees>
            </Position>
            <AltitudeMeters>256.79998779296875</AltitudeMeters>
            <DistanceMeters>9665.8825670634</DistanceMeters>
          </Trackpoint>
          <Trackpoint>
            <Time>2018-06-10T09:47:16.000Z</Time>
            <Position>
              <LatitudeDegrees>35.9012179635465145111083984375</LatitudeDegrees>
              <LongitudeDegrees>-5.3727967478334903717041015625</LongitudeDegrees>
            </Position>
            <AltitudeMeters>257</AltitudeMeters>
            <DistanceMeters>9666.2857312682</DistanceMeters>
          </Trackpoint>
          <Trackpoint>
            <Time>2018-06-10T09:47:17.000Z</Time>
            <Position>
              <LatitudeDegrees>35.90121972374618053436279296875</LatitudeDegrees>
              <LongitudeDegrees>-5.37279314361512660980224609375</LongitudeDegrees>
            </Position>
            <AltitudeMeters>256.79998779296875</AltitudeMeters>
            <DistanceMeters>9666.6658381256</DistanceMeters>
          </Trackpoint>
          <Trackpoint>
            <Time>2018-06-10T09:47:19.000Z</Time>
            <Position>
              <LatitudeDegrees>35.90122022666037082672119140625</LatitudeDegrees>
              <LongitudeDegrees>-5.37279121577739715576171875</LongitudeDegrees>
            </Position>
            <AltitudeMeters>257</AltitudeMeters>
            <DistanceMeters>9666.830429223</DistanceMeters>
          </Trackpoint>
          <Trackpoint>
            <Time>2018-06-10T09:47:24.000Z</Time>
            <Position>
              <LatitudeDegrees>35.90118854306638240814208984375</LatitudeDegrees>
              <LongitudeDegrees>-5.372792892158031463623046875</LongitudeDegrees>
            </Position>
            <AltitudeMeters>257.600006103515625</AltitudeMeters>
            <DistanceMeters>9670.3605149858</DistanceMeters>
          </Trackpoint>
          <Trackpoint>
            <Time>2018-06-10T09:47:27.000Z</Time>
            <Position>
              <LatitudeDegrees>35.9011693485081195831298828125</LatitudeDegrees>
              <LongitudeDegrees>-5.37279431708157062530517578125</LongitudeDegrees>
            </Position>
            <AltitudeMeters>258</AltitudeMeters>
            <DistanceMeters>9672.5001992516</DistanceMeters>
          </Trackpoint>
          <Trackpoint>
            <Time>2018-06-10T09:47:38.000Z</Time>
            <Position>
              <LatitudeDegrees>35.90113230049610137939453125</LatitudeDegrees>
              <LongitudeDegrees>-5.3727571852505207061767578125</LongitudeDegrees>
            </Position>
            <AltitudeMeters>259.20001220703125</AltitudeMeters>
            <DistanceMeters>9677.8106539152</DistanceMeters>
          </Trackpoint>
          <Trackpoint>
            <Time>2018-06-10T09:47:40.000Z</Time>
            <Position>
              <LatitudeDegrees>35.90113255195319652557373046875</LatitudeDegrees>
              <LongitudeDegrees>-5.3727524913847446441650390625</LongitudeDegrees>
            </Position>
            <AltitudeMeters>259.20001220703125</AltitudeMeters>
            <DistanceMeters>9678.2356263012</DistanceMeters>
          </Trackpoint>
          <Trackpoint>
            <Time>2018-06-10T09:47:41.000Z</Time>
            <Position>
              <LatitudeDegrees>35.901134312152862548828125</LatitudeDegrees>
              <LongitudeDegrees>-5.372751653194427490234375</LongitudeDegrees>
            </Position>
            <AltitudeMeters>259.20001220703125</AltitudeMeters>
            <DistanceMeters>9678.4683932633</DistanceMeters>
          </Trackpoint>
          <Trackpoint>
            <Time>2018-06-10T09:47:42.000Z</Time>
            <Position>
              <LatitudeDegrees>35.90113632380962371826171875</LatitudeDegrees>
              <LongitudeDegrees>-5.37275039590895175933837890625</LongitudeDegrees>
            </Position>
            <AltitudeMeters>259.20001220703125</AltitudeMeters>
            <DistanceMeters>9678.7011602255</DistanceMeters>
          </Trackpoint>
          <Trackpoint>
            <Time>2018-06-10T09:47:43.000Z</Time>
            <Position>
              <LatitudeDegrees>35.90113498270511627197265625</LatitudeDegrees>
              <LongitudeDegrees>-5.37274905480444431304931640625</LongitudeDegrees>
            </Position>
            <AltitudeMeters>259.20001220703125</AltitudeMeters>
            <DistanceMeters>9678.8657513228</DistanceMeters>
          </Trackpoint>
          <Trackpoint>
            <Time>2018-06-10T09:47:45.000Z</Time>
            <Position>
              <LatitudeDegrees>35.9011329710483551025390625</LatitudeDegrees>
              <LongitudeDegrees>-5.3727444447576999664306640625</LongitudeDegrees>
            </Position>
            <AltitudeMeters>259.399993896484375</AltitudeMeters>
            <DistanceMeters>9679.3312852471</DistanceMeters>
          </Trackpoint>
          <Trackpoint>
            <Time>2018-06-10T09:47:46.000Z</Time>
            <Position>
              <LatitudeDegrees>35.901132635772228240966796875</LatitudeDegrees>
              <LongitudeDegrees>-5.37274218164384365081787109375</LongitudeDegrees>
            </Position>
            <AltitudeMeters>259.399993896484375</AltitudeMeters>
            <DistanceMeters>9679.5213386759</DistanceMeters>
          </Trackpoint>
          <Trackpoint>
            <Time>2018-06-10T09:47:47.000Z</Time>
            <Position>
              <LatitudeDegrees>35.90112961828708648681640625</LatitudeDegrees>
              <LongitudeDegrees>-5.37274268455803394317626953125</LongitudeDegrees>
            </Position>
            <AltitudeMeters>259.399993896484375</AltitudeMeters>
            <DistanceMeters>9679.8505208706</DistanceMeters>
          </Trackpoint>
          <Trackpoint>
            <Time>2018-06-10T09:47:49.000Z</Time>
            <Position>
              <LatitudeDegrees>35.90111595578491687774658203125</LatitudeDegrees>
              <LongitudeDegrees>-5.37274469621479511260986328125</LongitudeDegrees>
            </Position>
            <AltitudeMeters>259.79998779296875</AltitudeMeters>
            <DistanceMeters>9681.382780599</DistanceMeters>
          </Trackpoint>
          <Trackpoint>
            <Time>2018-06-10T09:47:52.000Z</Time>
            <Position>
              <LatitudeDegrees>35.90109340846538543701171875</LatitudeDegrees>
              <LongitudeDegrees>-5.3727436065673828125</LongitudeDegrees>
            </Position>
            <AltitudeMeters>260.20001220703125</AltitudeMeters>
            <DistanceMeters>9683.893356899</DistanceMeters>
          </Trackpoint>
          <Trackpoint>
            <Time>2018-06-10T09:47:53.000Z</Time>
            <Position>
              <LatitudeDegrees>35.90109081007540225982666015625</LatitudeDegrees>
              <LongitudeDegrees>-5.37274369038641452789306640625</LongitudeDegrees>
            </Position>
            <AltitudeMeters>260.399993896484375</AltitudeMeters>
            <DistanceMeters>9684.1784370421</DistanceMeters>
          </Trackpoint>
          <Trackpoint>
            <Time>2018-06-10T09:47:59.000Z</Time>
            <Position>
              <LatitudeDegrees>35.90107102878391742706298828125</LatitudeDegrees>
              <LongitudeDegrees>-5.37273866124451160430908203125</LongitudeDegrees>
            </Position>
            <AltitudeMeters>260.79998779296875</AltitudeMeters>
            <DistanceMeters>9686.4271795371</DistanceMeters>
          </Trackpoint>
          <Trackpoint>
            <Time>2018-06-10T09:48:05.000Z</Time>
            <Position>
              <LatitudeDegrees>35.90105091221630573272705078125</LatitudeDegrees>
              <LongitudeDegrees>-5.3727320395410060882568359375</LongitudeDegrees>
            </Position>
            <AltitudeMeters>261.399993896484375</AltitudeMeters>
            <DistanceMeters>9688.7451302449</DistanceMeters>
          </Trackpoint>
          <Trackpoint>
            <Time>2018-06-10T09:48:08.000Z</Time>
            <Position>
              <LatitudeDegrees>35.90103917755186557769775390625</LatitudeDegrees>
              <LongitudeDegrees>-5.37272818386554718017578125</LongitudeDegrees>
            </Position>
            <AltitudeMeters>261.600006103515625</AltitudeMeters>
            <DistanceMeters>9690.0957136158</DistanceMeters>
          </Trackpoint>
          <Trackpoint>
            <Time>2018-06-10T09:48:10.000Z</Time>
            <Position>
              <LatitudeDegrees>35.9010288678109645843505859375</LatitudeDegrees>
              <LongitudeDegrees>-5.37272307090461254119873046875</LongitudeDegrees>
            </Position>
            <AltitudeMeters>262</AltitudeMeters>
            <DistanceMeters>9691.3310609026</DistanceMeters>
          </Trackpoint>
          <Trackpoint>
            <Time>2018-06-10T09:48:12.000Z</Time>
            <Position>
              <LatitudeDegrees>35.90100917033851146697998046875</LatitudeDegrees>
              <LongitudeDegrees>-5.37271879613399505615234375</LongitudeDegrees>
            </Position>
            <AltitudeMeters>262.399993896484375</AltitudeMeters>
            <DistanceMeters>9693.555579253</DistanceMeters>
          </Trackpoint>
          <Trackpoint>
            <Time>2018-06-10T09:48:13.000Z</Time>
            <Position>
              <LatitudeDegrees>35.9010010398924350738525390625</LatitudeDegrees>
              <LongitudeDegrees>-5.37271938286721706390380859375</LongitudeDegrees>
            </Position>
            <AltitudeMeters>262.600006103515625</AltitudeMeters>
            <DistanceMeters>9694.4570818209</DistanceMeters>
          </Trackpoint>
          <Trackpoint>
            <Time>2018-06-10T09:48:17.000Z</Time>
            <Position>
              <LatitudeDegrees>35.900978408753871917724609375</LatitudeDegrees>
              <LongitudeDegrees>-5.3727011941373348236083984375</LongitudeDegrees>
            </Position>
            <AltitudeMeters>263.20001220703125</AltitudeMeters>
            <DistanceMeters>9697.4635925095</DistanceMeters>
          </Trackpoint>
          <Trackpoint>
            <Time>2018-06-10T09:48:21.000Z</Time>
            <Position>
              <LatitudeDegrees>35.9009748883545398712158203125</LatitudeDegrees>
              <LongitudeDegrees>-5.372693650424480438232421875</LongitudeDegrees>
            </Position>
            <AltitudeMeters>263.399993896484375</AltitudeMeters>
            <DistanceMeters>9698.2472028707</DistanceMeters>
          </Trackpoint>
          <Trackpoint>
            <Time>2018-06-10T09:48:27.000Z</Time>
            <Position>
              <LatitudeDegrees>35.900979079306125640869140625</LatitudeDegrees>
              <LongitudeDegrees>-5.37269138731062412261962890625</LongitudeDegrees>
            </Position>
            <AltitudeMeters>263.399993896484375</AltitudeMeters>
            <DistanceMeters>9698.750036979</DistanceMeters>
          </Trackpoint>
          <Trackpoint>
            <Time>2018-06-10T09:48:34.000Z</Time>
            <Position>
              <LatitudeDegrees>35.90097882784903049468994140625</LatitudeDegrees>
              <LongitudeDegrees>-5.3726911358535289764404296875</LongitudeDegrees>
            </Position>
            <AltitudeMeters>263.399993896484375</AltitudeMeters>
            <DistanceMeters>9698.750036979</DistanceMeters>
          </Trackpoint>
          <Trackpoint>
            <Time>2018-06-10T09:48:38.000Z</Time>
            <Position>
              <LatitudeDegrees>35.900962650775909423828125</LatitudeDegrees>
              <LongitudeDegrees>-5.37269063293933868408203125</LongitudeDegrees>
            </Position>
            <AltitudeMeters>263.79998779296875</AltitudeMeters>
            <DistanceMeters>9700.5505361996</DistanceMeters>
          </Trackpoint>
          <Trackpoint>
            <Time>2018-06-10T09:48:41.000Z</Time>
            <Position>
              <LatitudeDegrees>35.9009450487792491912841796875</LatitudeDegrees>
              <LongitudeDegrees>-5.37268258631229400634765625</LongitudeDegrees>
            </Position>
            <AltitudeMeters>264.20001220703125</AltitudeMeters>
            <DistanceMeters>9702.6368000482</DistanceMeters>
          </Trackpoint>
          <Trackpoint>
            <Time>2018-06-10T09:48:42.000Z</Time>
            <Position>
              <LatitudeDegrees>35.900940187275409698486328125</LatitudeDegrees>
              <LongitudeDegrees>-5.37267931737005710601806640625</LongitudeDegrees>
            </Position>
            <AltitudeMeters>264.399993896484375</AltitudeMeters>
            <DistanceMeters>9703.2526435434</DistanceMeters>
          </Trackpoint>
          <Trackpoint>
            <Time>2018-06-10T09:48:45.000Z</Time>
            <Position>
              <LatitudeDegrees>35.90091646648943424224853515625</LatitudeDegrees>
              <LongitudeDegrees>-5.37267596460878849029541015625</LongitudeDegrees>
            </Position>
            <AltitudeMeters>265</AltitudeMeters>
            <DistanceMeters>9705.9099955674</DistanceMeters>
          </Trackpoint>
          <Trackpoint>
            <Time>2018-06-10T09:48:54.000Z</Time>
            <Position>
              <LatitudeDegrees>35.9008427895605564117431640625</LatitudeDegrees>
              <LongitudeDegrees>-5.372658781707286834716796875</LongitudeDegrees>
            </Position>
            <AltitudeMeters>267</AltitudeMeters>
            <DistanceMeters>9714.2550509618</DistanceMeters>
          </Trackpoint>
          <Trackpoint>
            <Time>2018-06-10T09:48:56.000Z</Time>
            <Position>
              <LatitudeDegrees>35.9008256904780864715576171875</LatitudeDegrees>
              <LongitudeDegrees>-5.37266640923917293548583984375</LongitudeDegrees>
            </Position>
            <AltitudeMeters>267.399993896484375</AltitudeMeters>
            <DistanceMeters>9716.2798113687</DistanceMeters>
          </Trackpoint>
          <Trackpoint>
            <Time>2018-06-10T09:48:59.000Z</Time>
            <Position>
              <LatitudeDegrees>35.90080498717725276947021484375</LatitudeDegrees>
              <LongitudeDegrees>-5.372675545513629913330078125</LongitudeDegrees>
            </Position>
            <AltitudeMeters>267.79998779296875</AltitudeMeters>
            <DistanceMeters>9718.728478508</DistanceMeters>
          </Trackpoint>
          <Trackpoint>
            <Time>2018-06-10T09:49:00.000Z</Time>
            <Position>
              <LatitudeDegrees>35.9007975272834300994873046875</LatitudeDegrees>
              <LongitudeDegrees>-5.372678227722644805908203125</LongitudeDegrees>
            </Position>
            <AltitudeMeters>268</AltitudeMeters>
            <DistanceMeters>9719.5994127313</DistanceMeters>
          </Trackpoint>
          <Trackpoint>
            <Time>2018-06-10T09:49:06.000Z</Time>
            <Position>
              <LatitudeDegrees>35.90076207183301448822021484375</LatitudeDegrees>
              <LongitudeDegrees>-5.37266624160110950469970703125</LongitudeDegrees>
            </Position>
            <AltitudeMeters>269.20001220703125</AltitudeMeters>
            <DistanceMeters>9723.6910825282</DistanceMeters>
          </Trackpoint>
          <Trackpoint>
            <Time>2018-06-10T09:49:08.000Z</Time>
            <Position>
              <LatitudeDegrees>35.90075184591114521026611328125</LatitudeDegrees>
              <LongitudeDegrees>-5.37266406230628490447998046875</LongitudeDegrees>
            </Position>
            <AltitudeMeters>269.600006103515625</AltitudeMeters>
            <DistanceMeters>9724.8549173389</DistanceMeters>
          </Trackpoint>
          <Trackpoint>
            <Time>2018-06-10T09:49:09.000Z</Time>
            <Position>
              <LatitudeDegrees>35.9007435478270053863525390625</LatitudeDegrees>
              <LongitudeDegrees>-5.3726646490395069122314453125</LongitudeDegrees>
            </Position>
            <AltitudeMeters>269.79998779296875</AltitudeMeters>
            <DistanceMeters>9725.7762355172</DistanceMeters>
          </Trackpoint>
          <Trackpoint>
            <Time>2018-06-10T09:49:10.000Z</Time>
            <Position>
              <LatitudeDegrees>35.90073801577091217041015625</LatitudeDegrees>
              <LongitudeDegrees>-5.37266205064952373504638671875</LongitudeDegrees>
            </Position>
            <AltitudeMeters>270</AltitudeMeters>
            <DistanceMeters>9726.4345999067</DistanceMeters>
          </Trackpoint>
          <Trackpoint>
            <Time>2018-06-10T09:49:11.000Z</Time>
            <Position>
              <LatitudeDegrees>35.900730304419994354248046875</LatitudeDegrees>
              <LongitudeDegrees>-5.3726606257259845733642578125</LongitudeDegrees>
            </Position>
            <AltitudeMeters>270.20001220703125</AltitudeMeters>
            <DistanceMeters>9727.30553413</DistanceMeters>
          </Trackpoint>
          <Trackpoint>
            <Time>2018-06-10T09:49:16.000Z</Time>
            <Position>
              <LatitudeDegrees>35.9006912447512149810791015625</LatitudeDegrees>
              <LongitudeDegrees>-5.372660458087921142578125</LongitudeDegrees>
            </Position>
            <AltitudeMeters>271.399993896484375</AltitudeMeters>
            <DistanceMeters>9731.6529414029</DistanceMeters>
          </Trackpoint>
          <Trackpoint>
            <Time>2018-06-10T09:49:24.000Z</Time>
            <Position>
              <LatitudeDegrees>35.9006754867732524871826171875</LatitudeDegrees>
              <LongitudeDegrees>-5.37265442311763763427734375</LongitudeDegrees>
            </Position>
            <AltitudeMeters>272</AltitudeMeters>
            <DistanceMeters>9733.4882120951</DistanceMeters>
          </Trackpoint>
          <Trackpoint>
            <Time>2018-06-10T09:49:36.000Z</Time>
            <Position>
              <LatitudeDegrees>35.90061589144170284271240234375</LatitudeDegrees>
              <LongitudeDegrees>-5.3726874478161334991455078125</LongitudeDegrees>
            </Position>
            <AltitudeMeters>273.20001220703125</AltitudeMeters>
            <DistanceMeters>9740.7588425701</DistanceMeters>
          </Trackpoint>
          <Trackpoint>
            <Time>2018-06-10T09:49:51.000Z</Time>
            <Position>
              <LatitudeDegrees>35.9004957787692546844482421875</LatitudeDegrees>
              <LongitudeDegrees>-5.37270940840244293212890625</LongitudeDegrees>
            </Position>
            <AltitudeMeters>276</AltitudeMeters>
            <DistanceMeters>9754.2733653569</DistanceMeters>
          </Trackpoint>
          <Trackpoint>
            <Time>2018-06-10T09:49:55.000Z</Time>
            <Position>
              <LatitudeDegrees>35.9004645980894565582275390625</LatitudeDegrees>
              <LongitudeDegrees>-5.37271854467689990997314453125</LongitudeDegrees>
            </Position>
            <AltitudeMeters>276.600006103515625</AltitudeMeters>
            <DistanceMeters>9757.8403497568</DistanceMeters>
          </Trackpoint>
          <Trackpoint>
            <Time>2018-06-10T09:49:58.000Z</Time>
            <Position>
              <LatitudeDegrees>35.90044322423636913299560546875</LatitudeDegrees>
              <LongitudeDegrees>-5.37273354828357696533203125</LongitudeDegrees>
            </Position>
            <AltitudeMeters>277</AltitudeMeters>
            <DistanceMeters>9760.5780428456</DistanceMeters>
          </Trackpoint>
          <Trackpoint>
            <Time>2018-06-10T09:50:02.000Z</Time>
            <Position>
              <LatitudeDegrees>35.90041749179363250732421875</LatitudeDegrees>
              <LongitudeDegrees>-5.3727414272725582122802734375</LongitudeDegrees>
            </Position>
            <AltitudeMeters>277.399993896484375</AltitudeMeters>
            <DistanceMeters>9763.5299953806</DistanceMeters>
          </Trackpoint>
          <Trackpoint>
            <Time>2018-06-10T09:50:07.000Z</Time>
            <Position>
              <LatitudeDegrees>35.90037985704839229583740234375</LatitudeDegrees>
              <LongitudeDegrees>-5.372733213007450103759765625</LongitudeDegrees>
            </Position>
            <AltitudeMeters>278.600006103515625</AltitudeMeters>
            <DistanceMeters>9767.7839668419</DistanceMeters>
          </Trackpoint>
          <Trackpoint>
            <Time>2018-06-10T09:50:12.000Z</Time>
            <Position>
              <LatitudeDegrees>35.900344066321849822998046875</LatitudeDegrees>
              <LongitudeDegrees>-5.372713766992092132568359375</LongitudeDegrees>
            </Position>
            <AltitudeMeters>279.79998779296875</AltitudeMeters>
            <DistanceMeters>9772.1365638114</DistanceMeters>
          </Trackpoint>
          <Trackpoint>
            <Time>2018-06-10T09:50:17.000Z</Time>
            <Position>
              <LatitudeDegrees>35.900316573679447174072265625</LatitudeDegrees>
              <LongitudeDegrees>-5.37269624881446361541748046875</LongitudeDegrees>
            </Position>
            <AltitudeMeters>280.79998779296875</AltitudeMeters>
            <DistanceMeters>9775.5798892928</DistanceMeters>
          </Trackpoint>
          <Trackpoint>
            <Time>2018-06-10T09:50:21.000Z</Time>
            <Position>
              <LatitudeDegrees>35.9002922661602497100830078125</LatitudeDegrees>
              <LongitudeDegrees>-5.37268836982548236846923828125</LongitudeDegrees>
            </Position>
            <AltitudeMeters>281.399993896484375</AltitudeMeters>
            <DistanceMeters>9778.3763238443</DistanceMeters>
          </Trackpoint>
          <Trackpoint>
            <Time>2018-06-10T09:50:23.000Z</Time>
            <Position>
              <LatitudeDegrees>35.90027307160198688507080078125</LatitudeDegrees>
              <LongitudeDegrees>-5.37267914973199367523193359375</LongitudeDegrees>
            </Position>
            <AltitudeMeters>282</AltitudeMeters>
            <DistanceMeters>9780.6707812021</DistanceMeters>
          </Trackpoint>
          <Trackpoint>
            <Time>2018-06-10T09:50:26.000Z</Time>
            <Position>
              <LatitudeDegrees>35.90025127865374088287353515625</LatitudeDegrees>
              <LongitudeDegrees>-5.37267194129526615142822265625</LongitudeDegrees>
            </Position>
            <AltitudeMeters>282.79998779296875</AltitudeMeters>
            <DistanceMeters>9783.181357502</DistanceMeters>
          </Trackpoint>
          <Trackpoint>
            <Time>2018-06-10T09:50:30.000Z</Time>
            <Position>
              <LatitudeDegrees>35.90022378601133823394775390625</LatitudeDegrees>
              <LongitudeDegrees>-5.37264478392899036407470703125</LongitudeDegrees>
            </Position>
            <AltitudeMeters>283.79998779296875</AltitudeMeters>
            <DistanceMeters>9787.101713367</DistanceMeters>
          </Trackpoint>
          <Trackpoint>
            <Time>2018-06-10T09:50:38.000Z</Time>
            <Position>
              <LatitudeDegrees>35.90020299889147281646728515625</LatitudeDegrees>
              <LongitudeDegrees>-5.372648052871227264404296875</LongitudeDegrees>
            </Position>
            <AltitudeMeters>284.399993896484375</AltitudeMeters>
            <DistanceMeters>9789.4371289985</DistanceMeters>
          </Trackpoint>
          <Trackpoint>
            <Time>2018-06-10T09:50:46.000Z</Time>
            <Position>
              <LatitudeDegrees>35.900190174579620361328125</LatitudeDegrees>
              <LongitudeDegrees>-5.37264880724251270294189453125</LongitudeDegrees>
            </Position>
            <AltitudeMeters>284.600006103515625</AltitudeMeters>
            <DistanceMeters>9790.8688508126</DistanceMeters>
          </Trackpoint>
          <Trackpoint>
            <Time>2018-06-10T09:50:47.000Z</Time>
            <Position>
              <LatitudeDegrees>35.90018942020833492279052734375</LatitudeDegrees>
              <LongitudeDegrees>-5.37264796905219554901123046875</LongitudeDegrees>
            </Position>
            <AltitudeMeters>284.600006103515625</AltitudeMeters>
            <DistanceMeters>9791.0032388808</DistanceMeters>
          </Trackpoint>
          <Trackpoint>
            <Time>2018-06-10T09:50:52.000Z</Time>
            <Position>
              <LatitudeDegrees>35.9001906774938106536865234375</LatitudeDegrees>
              <LongitudeDegrees>-5.37265584804117679595947265625</LongitudeDegrees>
            </Position>
            <AltitudeMeters>284.600006103515625</AltitudeMeters>
            <DistanceMeters>9791.7269407764</DistanceMeters>
          </Trackpoint>
          <Trackpoint>
            <Time>2018-06-10T09:51:07.000Z</Time>
            <Position>
              <LatitudeDegrees>35.90011549182236194610595703125</LatitudeDegrees>
              <LongitudeDegrees>-5.3726478852331638336181640625</LongitudeDegrees>
            </Position>
            <AltitudeMeters>286.600006103515625</AltitudeMeters>
            <DistanceMeters>9800.1259262616</DistanceMeters>
          </Trackpoint>
          <Trackpoint>
            <Time>2018-06-10T09:51:08.000Z</Time>
            <Position>
              <LatitudeDegrees>35.90010727755725383758544921875</LatitudeDegrees>
              <LongitudeDegrees>-5.37265039980411529541015625</LongitudeDegrees>
            </Position>
            <AltitudeMeters>286.600006103515625</AltitudeMeters>
            <DistanceMeters>9801.0666427394</DistanceMeters>
          </Trackpoint>
          <Trackpoint>
            <Time>2018-06-10T09:51:12.000Z</Time>
            <Position>
              <LatitudeDegrees>35.90007391758263111114501953125</LatitudeDegrees>
              <LongitudeDegrees>-5.37264796905219554901123046875</LongitudeDegrees>
            </Position>
            <AltitudeMeters>287.600006103515625</AltitudeMeters>
            <DistanceMeters>9804.7848475529</DistanceMeters>
          </Trackpoint>
          <Trackpoint>
            <Time>2018-06-10T09:51:19.000Z</Time>
            <Position>
              <LatitudeDegrees>35.9000314213335514068603515625</LatitudeDegrees>
              <LongitudeDegrees>-5.37265417166054248809814453125</LongitudeDegrees>
            </Position>
            <AltitudeMeters>288.600006103515625</AltitudeMeters>
            <DistanceMeters>9809.5475728261</DistanceMeters>
          </Trackpoint>
          <Trackpoint>
            <Time>2018-06-10T09:51:21.000Z</Time>
            <Position>
              <LatitudeDegrees>35.90002463199198246002197265625</LatitudeDegrees>
              <LongitudeDegrees>-5.37265383638441562652587890625</LongitudeDegrees>
            </Position>
            <AltitudeMeters>288.79998779296875</AltitudeMeters>
            <DistanceMeters>9810.3018239885</DistanceMeters>
          </Trackpoint>
          <Trackpoint>
            <Time>2018-06-10T09:51:27.000Z</Time>
            <Position>
              <LatitudeDegrees>35.8999828062951564788818359375</LatitudeDegrees>
              <LongitudeDegrees>-5.3726592846214771270751953125</LongitudeDegrees>
            </Position>
            <AltitudeMeters>289.600006103515625</AltitudeMeters>
            <DistanceMeters>9814.983276277</DistanceMeters>
          </Trackpoint>
          <Trackpoint>
            <Time>2018-06-10T09:51:31.000Z</Time>
            <Position>
              <LatitudeDegrees>35.89994668029248714447021484375</LatitudeDegrees>
              <LongitudeDegrees>-5.372681915760040283203125</LongitudeDegrees>
            </Position>
            <AltitudeMeters>290.20001220703125</AltitudeMeters>
            <DistanceMeters>9819.4917906748</DistanceMeters>
          </Trackpoint>
          <Trackpoint>
            <Time>2018-06-10T09:51:38.000Z</Time>
            <Position>
              <LatitudeDegrees>35.89992539025843143463134765625</LatitudeDegrees>
              <LongitudeDegrees>-5.3726901300251483917236328125</LongitudeDegrees>
            </Position>
            <AltitudeMeters>290.600006103515625</AltitudeMeters>
            <DistanceMeters>9821.9734256469</DistanceMeters>
          </Trackpoint>
          <Trackpoint>
            <Time>2018-06-10T09:51:46.000Z</Time>
            <Position>
              <LatitudeDegrees>35.89989135973155498504638671875</LatitudeDegrees>
              <LongitudeDegrees>-5.372704379260540008544921875</LongitudeDegrees>
            </Position>
            <AltitudeMeters>291.20001220703125</AltitudeMeters>
            <DistanceMeters>9825.9724587028</DistanceMeters>
          </Trackpoint>
          <Trackpoint>
            <Time>2018-06-10T09:52:03.000Z</Time>
            <Position>
              <LatitudeDegrees>35.89981759898364543914794921875</LatitudeDegrees>
              <LongitudeDegrees>-5.37275098264217376708984375</LongitudeDegrees>
            </Position>
            <AltitudeMeters>292.399993896484375</AltitudeMeters>
            <DistanceMeters>9835.1944573988</DistanceMeters>
          </Trackpoint>
          <Trackpoint>
            <Time>2018-06-10T09:52:05.000Z</Time>
            <Position>
              <LatitudeDegrees>35.8997984044253826141357421875</LatitudeDegrees>
              <LongitudeDegrees>-5.372762046754360198974609375</LongitudeDegrees>
            </Position>
            <AltitudeMeters>292.79998779296875</AltitudeMeters>
            <DistanceMeters>9837.5529584248</DistanceMeters>
          </Trackpoint>
          <Trackpoint>
            <Time>2018-06-10T09:52:12.000Z</Time>
            <Position>
              <LatitudeDegrees>35.89975364506244659423828125</LatitudeDegrees>
              <LongitudeDegrees>-5.3727870248258113861083984375</LongitudeDegrees>
            </Position>
            <AltitudeMeters>293.399993896484375</AltitudeMeters>
            <DistanceMeters>9843.0209181088</DistanceMeters>
          </Trackpoint>
          <Trackpoint>
            <Time>2018-06-10T09:52:13.000Z</Time>
            <Position>
              <LatitudeDegrees>35.89974802918732166290283203125</LatitudeDegrees>
              <LongitudeDegrees>-5.37279414944350719451904296875</LongitudeDegrees>
            </Position>
            <AltitudeMeters>293.600006103515625</AltitudeMeters>
            <DistanceMeters>9843.9224206767</DistanceMeters>
          </Trackpoint>
          <Trackpoint>
            <Time>2018-06-10T09:52:16.000Z</Time>
            <Position>
              <LatitudeDegrees>35.89972548186779022216796875</LatitudeDegrees>
              <LongitudeDegrees>-5.3728098236024379730224609375</LongitudeDegrees>
            </Position>
            <AltitudeMeters>294</AltitudeMeters>
            <DistanceMeters>9846.8031567375</DistanceMeters>
          </Trackpoint>
          <Trackpoint>
            <Time>2018-06-10T09:52:17.000Z</Time>
            <Position>
              <LatitudeDegrees>35.8997159264981746673583984375</LatitudeDegrees>
              <LongitudeDegrees>-5.37281510420143604278564453125</LongitudeDegrees>
            </Position>
            <AltitudeMeters>294.20001220703125</AltitudeMeters>
            <DistanceMeters>9847.9669915482</DistanceMeters>
          </Trackpoint>
          <Trackpoint>
            <Time>2018-06-10T09:52:18.000Z</Time>
            <Position>
              <LatitudeDegrees>35.89970427565276622772216796875</LatitudeDegrees>
              <LongitudeDegrees>-5.3728192113339900970458984375</LongitudeDegrees>
            </Position>
            <AltitudeMeters>294.79998779296875</AltitudeMeters>
            <DistanceMeters>9849.3142277432</DistanceMeters>
          </Trackpoint>
          <Trackpoint>
            <Time>2018-06-10T09:52:20.000Z</Time>
            <Position>
              <LatitudeDegrees>35.8996840752661228179931640625</LatitudeDegrees>
              <LongitudeDegrees>-5.3728242404758930206298828125</LongitudeDegrees>
            </Position>
            <AltitudeMeters>295.399993896484375</AltitudeMeters>
            <DistanceMeters>9851.6067164543</DistanceMeters>
          </Trackpoint>
          <Trackpoint>
            <Time>2018-06-10T09:52:21.000Z</Time>
            <Position>
              <LatitudeDegrees>35.89967359788715839385986328125</LatitudeDegrees>
              <LongitudeDegrees>-5.3728245757520198822021484375</LongitudeDegrees>
            </Position>
            <AltitudeMeters>296</AltitudeMeters>
            <DistanceMeters>9852.770551265</DistanceMeters>
          </Trackpoint>
          <Trackpoint>
            <Time>2018-06-10T09:52:22.000Z</Time>
            <Position>
              <LatitudeDegrees>35.8996686525642871856689453125</LatitudeDegrees>
              <LongitudeDegrees>-5.3728255815804004669189453125</LongitudeDegrees>
            </Position>
            <AltitudeMeters>296.20001220703125</AltitudeMeters>
            <DistanceMeters>9853.3407115512</DistanceMeters>
          </Trackpoint>
          <Trackpoint>
            <Time>2018-06-10T09:52:24.000Z</Time>
            <Position>
              <LatitudeDegrees>35.8996599353849887847900390625</LatitudeDegrees>
              <LongitudeDegrees>-5.37282097153365612030029296875</LongitudeDegrees>
            </Position>
            <AltitudeMeters>296.600006103515625</AltitudeMeters>
            <DistanceMeters>9854.3988842588</DistanceMeters>
          </Trackpoint>
          <Trackpoint>
            <Time>2018-06-10T09:52:32.000Z</Time>
            <Position>
              <LatitudeDegrees>35.8996106497943401336669921875</LatitudeDegrees>
              <LongitudeDegrees>-5.3728259168565273284912109375</LongitudeDegrees>
            </Position>
            <AltitudeMeters>298.600006103515625</AltitudeMeters>
            <DistanceMeters>9859.9022356371</DistanceMeters>
          </Trackpoint>
          <Trackpoint>
            <Time>2018-06-10T09:52:40.000Z</Time>
            <Position>
              <LatitudeDegrees>35.89956228621304035186767578125</LatitudeDegrees>
              <LongitudeDegrees>-5.3728329576551914215087890625</LongitudeDegrees>
            </Position>
            <AltitudeMeters>300.399993896484375</AltitudeMeters>
            <DistanceMeters>9865.3229245922</DistanceMeters>
          </Trackpoint>
          <Trackpoint>
            <Time>2018-06-10T09:52:42.000Z</Time>
            <Position>
              <LatitudeDegrees>35.89953948743641376495361328125</LatitudeDegrees>
              <LongitudeDegrees>-5.3728441894054412841796875</LongitudeDegrees>
            </Position>
            <AltitudeMeters>301.20001220703125</AltitudeMeters>
            <DistanceMeters>9868.0556655641</DistanceMeters>
          </Trackpoint>
          <Trackpoint>
            <Time>2018-06-10T09:52:48.000Z</Time>
            <Position>
              <LatitudeDegrees>35.899491794407367706298828125</LatitudeDegrees>
              <LongitudeDegrees>-5.37285684607923030853271484375</LongitudeDegrees>
            </Position>
            <AltitudeMeters>303</AltitudeMeters>
            <DistanceMeters>9873.4863404453</DistanceMeters>
          </Trackpoint>
          <Trackpoint>
            <Time>2018-06-10T09:52:49.000Z</Time>
            <Position>
              <LatitudeDegrees>35.89948601089417934417724609375</LatitudeDegrees>
              <LongitudeDegrees>-5.37285986356437206268310546875</LongitudeDegrees>
            </Position>
            <AltitudeMeters>303.20001220703125</AltitudeMeters>
            <DistanceMeters>9874.1781453684</DistanceMeters>
          </Trackpoint>
          <Trackpoint>
            <Time>2018-06-10T09:52:52.000Z</Time>
            <Position>
              <LatitudeDegrees>35.899459607899188995361328125</LatitudeDegrees>
              <LongitudeDegrees>-5.3728822432458400726318359375</LongitudeDegrees>
            </Position>
            <AltitudeMeters>304</AltitudeMeters>
            <DistanceMeters>9877.7425972977</DistanceMeters>
          </Trackpoint>
          <Trackpoint>
            <Time>2018-06-10T09:52:55.000Z</Time>
            <Position>
              <LatitudeDegrees>35.89945323765277862548828125</LatitudeDegrees>
              <LongitudeDegrees>-5.3728906251490116119384765625</LongitudeDegrees>
            </Position>
            <AltitudeMeters>304.20001220703125</AltitudeMeters>
            <DistanceMeters>9878.7748516367</DistanceMeters>
          </Trackpoint>
          <Trackpoint>
            <Time>2018-06-10T09:52:57.000Z</Time>
            <Position>
              <LatitudeDegrees>35.899456255137920379638671875</LatitudeDegrees>
              <LongitudeDegrees>-5.37289691157639026641845703125</LongitudeDegrees>
            </Position>
            <AltitudeMeters>304</AltitudeMeters>
            <DistanceMeters>9879.4332160262</DistanceMeters>
          </Trackpoint>
          <Trackpoint>
            <Time>2018-06-10T09:53:03.000Z</Time>
            <Position>
              <LatitudeDegrees>35.89945591986179351806640625</LatitudeDegrees>
              <LongitudeDegrees>-5.37291099317371845245361328125</LongitudeDegrees>
            </Position>
            <AltitudeMeters>303.79998779296875</AltitudeMeters>
            <DistanceMeters>9880.7045868153</DistanceMeters>
          </Trackpoint>
          <Trackpoint>
            <Time>2018-06-10T09:53:13.000Z</Time>
            <Position>
              <LatitudeDegrees>35.89943152852356433868408203125</LatitudeDegrees>
              <LongitudeDegrees>-5.37295105867087841033935546875</LongitudeDegrees>
            </Position>
            <AltitudeMeters>304.20001220703125</AltitudeMeters>
            <DistanceMeters>9885.224103705</DistanceMeters>
          </Trackpoint>
          <Trackpoint>
            <Time>2018-06-10T09:53:15.000Z</Time>
            <Position>
              <LatitudeDegrees>35.8994161896407604217529296875</LatitudeDegrees>
              <LongitudeDegrees>-5.372949801385402679443359375</LongitudeDegrees>
            </Position>
            <AltitudeMeters>304.79998779296875</AltitudeMeters>
            <DistanceMeters>9886.9345845637</DistanceMeters>
          </Trackpoint>
          <Trackpoint>
            <Time>2018-06-10T09:53:21.000Z</Time>
            <Position>
              <LatitudeDegrees>35.89936832897365093231201171875</LatitudeDegrees>
              <LongitudeDegrees>-5.37296078167855739593505859375</LongitudeDegrees>
            </Position>
            <AltitudeMeters>306.600006103515625</AltitudeMeters>
            <DistanceMeters>9892.3519407863</DistanceMeters>
          </Trackpoint>
          <Trackpoint>
            <Time>2018-06-10T09:53:27.000Z</Time>
            <Position>
              <LatitudeDegrees>35.89931719936430454254150390625</LatitudeDegrees>
              <LongitudeDegrees>-5.372948460280895233154296875</LongitudeDegrees>
            </Position>
            <AltitudeMeters>309</AltitudeMeters>
            <DistanceMeters>9898.149349218</DistanceMeters>
          </Trackpoint>
          <Trackpoint>
            <Time>2018-06-10T09:53:32.000Z</Time>
            <Position>
              <LatitudeDegrees>35.8992964960634708404541015625</LatitudeDegrees>
              <LongitudeDegrees>-5.3729514777660369873046875</LongitudeDegrees>
            </Position>
            <AltitudeMeters>309.79998779296875</AltitudeMeters>
            <DistanceMeters>9900.4692469659</DistanceMeters>
          </Trackpoint>
          <Trackpoint>
            <Time>2018-06-10T09:53:36.000Z</Time>
            <Position>
              <LatitudeDegrees>35.89926975779235363006591796875</LatitudeDegrees>
              <LongitudeDegrees>-5.37294703535735607147216796875</LongitudeDegrees>
            </Position>
            <AltitudeMeters>311</AltitudeMeters>
            <DistanceMeters>9903.4727526455</DistanceMeters>
          </Trackpoint>
          <Trackpoint>
            <Time>2018-06-10T09:53:42.000Z</Time>
            <Position>
              <LatitudeDegrees>35.8992482163012027740478515625</LatitudeDegrees>
              <LongitudeDegrees>-5.37293597124516963958740234375</LongitudeDegrees>
            </Position>
            <AltitudeMeters>312</AltitudeMeters>
            <DistanceMeters>9906.0682173491</DistanceMeters>
          </Trackpoint>
          <Trackpoint>
            <Time>2018-06-10T09:53:51.000Z</Time>
            <Position>
              <LatitudeDegrees>35.89924402534961700439453125</LatitudeDegrees>
              <LongitudeDegrees>-5.37293110974133014678955078125</LongitudeDegrees>
            </Position>
            <AltitudeMeters>312.20001220703125</AltitudeMeters>
            <DistanceMeters>9906.7056759281</DistanceMeters>
          </Trackpoint>
          <Trackpoint>
            <Time>2018-06-10T09:53:55.000Z</Time>
            <Position>
              <LatitudeDegrees>35.89924813248217105865478515625</LatitudeDegrees>
              <LongitudeDegrees>-5.3729321993887424468994140625</LongitudeDegrees>
            </Position>
            <AltitudeMeters>312.20001220703125</AltitudeMeters>
            <DistanceMeters>9907.1712098524</DistanceMeters>
          </Trackpoint>
          <Trackpoint>
            <Time>2018-06-10T09:53:58.000Z</Time>
            <Position>
              <LatitudeDegrees>35.8992492221295833587646484375</LatitudeDegrees>
              <LongitudeDegrees>-5.3729327023029327392578125</LongitudeDegrees>
            </Position>
            <AltitudeMeters>312</AltitudeMeters>
            <DistanceMeters>9907.2662365667</DistanceMeters>
          </Trackpoint>
          <Trackpoint>
            <Time>2018-06-10T09:54:09.000Z</Time>
            <Position>
              <LatitudeDegrees>35.89918124489486217498779296875</LatitudeDegrees>
              <LongitudeDegrees>-5.37293144501745700836181640625</LongitudeDegrees>
            </Position>
            <AltitudeMeters>315</AltitudeMeters>
            <DistanceMeters>9914.8326547851</DistanceMeters>
          </Trackpoint>
          <Trackpoint>
            <Time>2018-06-10T09:54:12.000Z</Time>
            <Position>
              <LatitudeDegrees>35.8991664089262485504150390625</LatitudeDegrees>
              <LongitudeDegrees>-5.37293597124516963958740234375</LongitudeDegrees>
            </Position>
            <AltitudeMeters>315.399993896484375</AltitudeMeters>
            <DistanceMeters>9916.5325443291</DistanceMeters>
          </Trackpoint>
          <Trackpoint>
            <Time>2018-06-10T09:54:17.000Z</Time>
            <Position>
              <LatitudeDegrees>35.89913581497967243194580078125</LatitudeDegrees>
              <LongitudeDegrees>-5.3729496337473392486572265625</LongitudeDegrees>
            </Position>
            <AltitudeMeters>316.600006103515625</AltitudeMeters>
            <DistanceMeters>9920.1535484712</DistanceMeters>
          </Trackpoint>
          <Trackpoint>
            <Time>2018-06-10T09:54:20.000Z</Time>
            <Position>
              <LatitudeDegrees>35.899122990667819976806640625</LatitudeDegrees>
              <LongitudeDegrees>-5.37296094931662082672119140625</LongitudeDegrees>
            </Position>
            <AltitudeMeters>317</AltitudeMeters>
            <DistanceMeters>9921.9109004973</DistanceMeters>
          </Trackpoint>
          <Trackpoint>
            <Time>2018-06-10T09:54:23.000Z</Time>
            <Position>
              <LatitudeDegrees>35.8991070650517940521240234375</LatitudeDegrees>
              <LongitudeDegrees>-5.3729774616658687591552734375</LongitudeDegrees>
            </Position>
            <AltitudeMeters>317.399993896484375</AltitudeMeters>
            <DistanceMeters>9924.2269025284</DistanceMeters>
          </Trackpoint>
          <Trackpoint>
            <Time>2018-06-10T09:54:24.000Z</Time>
            <Position>
              <LatitudeDegrees>35.8991052210330963134765625</LatitudeDegrees>
              <LongitudeDegrees>-5.37298031151294708251953125</LongitudeDegrees>
            </Position>
            <AltitudeMeters>317.399993896484375</AltitudeMeters>
            <DistanceMeters>9924.5560847231</DistanceMeters>
          </Trackpoint>
          <Trackpoint>
            <Time>2018-06-10T09:54:29.000Z</Time>
            <Position>
              <LatitudeDegrees>35.89908954687416553497314453125</LatitudeDegrees>
              <LongitudeDegrees>-5.3729871846735477447509765625</LongitudeDegrees>
            </Position>
            <AltitudeMeters>317.79998779296875</AltitudeMeters>
            <DistanceMeters>9926.4084964075</DistanceMeters>
          </Trackpoint>
          <Trackpoint>
            <Time>2018-06-10T09:54:30.000Z</Time>
            <Position>
              <LatitudeDegrees>35.899086780846118927001953125</LatitudeDegrees>
              <LongitudeDegrees>-5.372988022863864898681640625</LongitudeDegrees>
            </Position>
            <AltitudeMeters>318</AltitudeMeters>
            <DistanceMeters>9926.7236643642</DistanceMeters>
          </Trackpoint>
          <Trackpoint>
            <Time>2018-06-10T09:54:31.000Z</Time>
            <Position>
              <LatitudeDegrees>35.89908367954194545745849609375</LatitudeDegrees>
              <LongitudeDegrees>-5.37299129180610179901123046875</LongitudeDegrees>
            </Position>
            <AltitudeMeters>318</AltitudeMeters>
            <DistanceMeters>9927.1891982884</DistanceMeters>
          </Trackpoint>
          <Trackpoint>
            <Time>2018-06-10T09:54:37.000Z</Time>
            <Position>
              <LatitudeDegrees>35.8990795724093914031982421875</LatitudeDegrees>
              <LongitudeDegrees>-5.37300436757504940032958984375</LongitudeDegrees>
            </Position>
            <AltitudeMeters>318</AltitudeMeters>
            <DistanceMeters>9928.4570127887</DistanceMeters>
          </Trackpoint>
          <Trackpoint>
            <Time>2018-06-10T09:54:42.000Z</Time>
            <Position>
              <LatitudeDegrees>35.89907504618167877197265625</LatitudeDegrees>
              <LongitudeDegrees>-5.3730010986328125</LongitudeDegrees>
            </Position>
            <AltitudeMeters>318.20001220703125</AltitudeMeters>
            <DistanceMeters>9929.0427967974</DistanceMeters>
          </Trackpoint>
          <Trackpoint>
            <Time>2018-06-10T09:54:48.000Z</Time>
            <Position>
              <LatitudeDegrees>35.89906171895563602447509765625</LatitudeDegrees>
              <LongitudeDegrees>-5.37300235591828823089599609375</LongitudeDegrees>
            </Position>
            <AltitudeMeters>318.79998779296875</AltitudeMeters>
            <DistanceMeters>9930.5271615276</DistanceMeters>
          </Trackpoint>
          <Trackpoint>
            <Time>2018-06-10T09:54:52.000Z</Time>
            <Position>
              <LatitudeDegrees>35.899043194949626922607421875</LatitudeDegrees>
              <LongitudeDegrees>-5.3730143420398235321044921875</LongitudeDegrees>
            </Position>
            <AltitudeMeters>319.399993896484375</AltitudeMeters>
            <DistanceMeters>9932.854831149</DistanceMeters>
          </Trackpoint>
          <Trackpoint>
            <Time>2018-06-10T09:54:59.000Z</Time>
            <Position>
              <LatitudeDegrees>35.8990420214831829071044921875</LatitudeDegrees>
              <LongitudeDegrees>-5.3730294294655323028564453125</LongitudeDegrees>
            </Position>
            <AltitudeMeters>319.20001220703125</AltitudeMeters>
            <DistanceMeters>9934.2253259138</DistanceMeters>
          </Trackpoint>
          <Trackpoint>
            <Time>2018-06-10T09:55:05.000Z</Time>
            <Position>
              <LatitudeDegrees>35.89903892017900943756103515625</LatitudeDegrees>
              <LongitudeDegrees>-5.3730346262454986572265625</LongitudeDegrees>
            </Position>
            <AltitudeMeters>319.20001220703125</AltitudeMeters>
            <DistanceMeters>9934.8111099225</DistanceMeters>
          </Trackpoint>
          <Trackpoint>
            <Time>2018-06-10T09:55:06.000Z</Time>
            <Position>
              <LatitudeDegrees>35.89904529042541980743408203125</LatitudeDegrees>
              <LongitudeDegrees>-5.373036973178386688232421875</LongitudeDegrees>
            </Position>
            <AltitudeMeters>318.79998779296875</AltitudeMeters>
            <DistanceMeters>9935.5532922877</DistanceMeters>
          </Trackpoint>
          <Trackpoint>
            <Time>2018-06-10T09:55:15.000Z</Time>
            <Position>
              <LatitudeDegrees>35.89903749525547027587890625</LatitudeDegrees>
              <LongitudeDegrees>-5.37305013276636600494384765625</LongitudeDegrees>
            </Position>
            <AltitudeMeters>319</AltitudeMeters>
            <DistanceMeters>9937.022369641</DistanceMeters>
          </Trackpoint>
          <Trackpoint>
            <Time>2018-06-10T09:55:24.000Z</Time>
            <Position>
              <LatitudeDegrees>35.89900589548051357269287109375</LatitudeDegrees>
              <LongitudeDegrees>-5.37307687103748321533203125</LongitudeDegrees>
            </Position>
            <AltitudeMeters>319.79998779296875</AltitudeMeters>
            <DistanceMeters>9941.2869415958</DistanceMeters>
          </Trackpoint>
          <Trackpoint>
            <Time>2018-06-10T09:55:25.000Z</Time>
            <Position>
              <LatitudeDegrees>35.899008996784687042236328125</LatitudeDegrees>
              <LongitudeDegrees>-5.3730813972651958465576171875</LongitudeDegrees>
            </Position>
            <AltitudeMeters>319.600006103515625</AltitudeMeters>
            <DistanceMeters>9941.8244938688</DistanceMeters>
          </Trackpoint>
          <Trackpoint>
            <Time>2018-06-10T09:55:27.000Z</Time>
            <Position>
              <LatitudeDegrees>35.8990118466317653656005859375</LatitudeDegrees>
              <LongitudeDegrees>-5.3730909526348114013671875</LongitudeDegrees>
            </Position>
            <AltitudeMeters>319.20001220703125</AltitudeMeters>
            <DistanceMeters>9942.7408983152</DistanceMeters>
          </Trackpoint>
          <Trackpoint>
            <Time>2018-06-10T09:55:32.000Z</Time>
            <Position>
              <LatitudeDegrees>35.8990094996988773345947265625</LatitudeDegrees>
              <LongitudeDegrees>-5.373095981776714324951171875</LongitudeDegrees>
            </Position>
            <AltitudeMeters>319.20001220703125</AltitudeMeters>
            <DistanceMeters>9943.2613810655</DistanceMeters>
          </Trackpoint>
          <Trackpoint>
            <Time>2018-06-10T09:55:40.000Z</Time>
            <Position>
              <LatitudeDegrees>35.8989924006164073944091796875</LatitudeDegrees>
              <LongitudeDegrees>-5.37311282940208911895751953125</LongitudeDegrees>
            </Position>
            <AltitudeMeters>319.600006103515625</AltitudeMeters>
            <DistanceMeters>9945.6952524974</DistanceMeters>
          </Trackpoint>
          <Trackpoint>
            <Time>2018-06-10T09:55:46.000Z</Time>
            <Position>
              <LatitudeDegrees>35.898954682052135467529296875</LatitudeDegrees>
              <LongitudeDegrees>-5.37314384244382381439208984375</LongitudeDegrees>
            </Position>
            <AltitudeMeters>320.79998779296875</AltitudeMeters>
            <DistanceMeters>9950.7397302126</DistanceMeters>
          </Trackpoint>
          <Trackpoint>
            <Time>2018-06-10T09:55:47.000Z</Time>
            <Position>
              <LatitudeDegrees>35.89894655160605907440185546875</LatitudeDegrees>
              <LongitudeDegrees>-5.37314903922379016876220703125</LongitudeDegrees>
            </Position>
            <AltitudeMeters>321</AltitudeMeters>
            <DistanceMeters>9951.7631992485</DistanceMeters>
          </Trackpoint>
          <Trackpoint>
            <Time>2018-06-10T09:55:50.000Z</Time>
            <Position>
              <LatitudeDegrees>35.89892978779971599578857421875</LatitudeDegrees>
              <LongitudeDegrees>-5.3731553256511688232421875</LongitudeDegrees>
            </Position>
            <AltitudeMeters>321.600006103515625</AltitudeMeters>
            <DistanceMeters>9953.7106673757</DistanceMeters>
          </Trackpoint>
          <Trackpoint>
            <Time>2018-06-10T09:55:55.000Z</Time>
            <Position>
              <LatitudeDegrees>35.898905061185359954833984375</LatitudeDegrees>
              <LongitudeDegrees>-5.3731591813266277313232421875</LongitudeDegrees>
            </Position>
            <AltitudeMeters>322.600006103515625</AltitudeMeters>
            <DistanceMeters>9956.4844058512</DistanceMeters>
          </Trackpoint>
          <Trackpoint>
            <Time>2018-06-10T09:55:58.000Z</Time>
            <Position>
              <LatitudeDegrees>35.89890615083277225494384765625</LatitudeDegrees>
              <LongitudeDegrees>-5.373153984546661376953125</LongitudeDegrees>
            </Position>
            <AltitudeMeters>322.600006103515625</AltitudeMeters>
            <DistanceMeters>9956.9689489221</DistanceMeters>
          </Trackpoint>
          <Trackpoint>
            <Time>2018-06-10T09:55:59.000Z</Time>
            <Position>
              <LatitudeDegrees>35.89890279807150363922119140625</LatitudeDegrees>
              <LongitudeDegrees>-5.3731553256511688232421875</LongitudeDegrees>
            </Position>
            <AltitudeMeters>322.600006103515625</AltitudeMeters>
            <DistanceMeters>9957.3721131268</DistanceMeters>
          </Trackpoint>
          <Trackpoint>
            <Time>2018-06-10T09:56:00.000Z</Time>
            <Position>
              <LatitudeDegrees>35.898901708424091339111328125</LatitudeDegrees>
              <LongitudeDegrees>-5.3731571696698665618896484375</LongitudeDegrees>
            </Position>
            <AltitudeMeters>322.79998779296875</AltitudeMeters>
            <DistanceMeters>9957.5621665556</DistanceMeters>
          </Trackpoint>
          <Trackpoint>
            <Time>2018-06-10T09:56:04.000Z</Time>
            <Position>
              <LatitudeDegrees>35.89890263043344020843505859375</LatitudeDegrees>
              <LongitudeDegrees>-5.3731571696698665618896484375</LongitudeDegrees>
            </Position>
            <AltitudeMeters>322.600006103515625</AltitudeMeters>
            <DistanceMeters>9957.6571932699</DistanceMeters>
          </Trackpoint>
          <Trackpoint>
            <Time>2018-06-10T09:56:07.000Z</Time>
            <Position>
              <LatitudeDegrees>35.8989040553569793701171875</LatitudeDegrees>
              <LongitudeDegrees>-5.3731558285653591156005859375</LongitudeDegrees>
            </Position>
            <AltitudeMeters>322.600006103515625</AltitudeMeters>
            <DistanceMeters>9957.8217843673</DistanceMeters>
          </Trackpoint>
          <Trackpoint>
            <Time>2018-06-10T09:56:22.000Z</Time>
            <Position>
              <LatitudeDegrees>35.8988774009048938751220703125</LatitudeDegrees>
              <LongitudeDegrees>-5.37318072281777858734130859375</LongitudeDegrees>
            </Position>
            <AltitudeMeters>322.79998779296875</AltitudeMeters>
            <DistanceMeters>9961.5412032886</DistanceMeters>
          </Trackpoint>
          <Trackpoint>
            <Time>2018-06-10T09:56:29.000Z</Time>
            <Position>
              <LatitudeDegrees>35.89882350526750087738037109375</LatitudeDegrees>
              <LongitudeDegrees>-5.37321056239306926727294921875</LongitudeDegrees>
            </Position>
            <AltitudeMeters>323.399993896484375</AltitudeMeters>
            <DistanceMeters>9968.1166124784</DistanceMeters>
          </Trackpoint>
          <Trackpoint>
            <Time>2018-06-10T09:56:31.000Z</Time>
            <Position>
              <LatitudeDegrees>35.8988120220601558685302734375</LatitudeDegrees>
              <LongitudeDegrees>-5.3732128255069255828857421875</LongitudeDegrees>
            </Position>
            <AltitudeMeters>323.600006103515625</AltitudeMeters>
            <DistanceMeters>9969.4126040751</DistanceMeters>
          </Trackpoint>
          <Trackpoint>
            <Time>2018-06-10T09:56:35.000Z</Time>
            <Position>
              <LatitudeDegrees>35.8987721242010593414306640625</LatitudeDegrees>
              <LongitudeDegrees>-5.3732228837907314300537109375</LongitudeDegrees>
            </Position>
            <AltitudeMeters>324.399993896484375</AltitudeMeters>
            <DistanceMeters>9973.9440932159</DistanceMeters>
          </Trackpoint>
          <Trackpoint>
            <Time>2018-06-10T09:56:39.000Z</Time>
            <Position>
              <LatitudeDegrees>35.8987365849316120147705078125</LatitudeDegrees>
              <LongitudeDegrees>-5.3732168488204479217529296875</LongitudeDegrees>
            </Position>
            <AltitudeMeters>325.20001220703125</AltitudeMeters>
            <DistanceMeters>9977.9374771193</DistanceMeters>
          </Trackpoint>
          <Trackpoint>
            <Time>2018-06-10T09:56:52.000Z</Time>
            <Position>
              <LatitudeDegrees>35.89870917610824108123779296875</LatitudeDegrees>
              <LongitudeDegrees>-5.373224727809429168701171875</LongitudeDegrees>
            </Position>
            <AltitudeMeters>325.600006103515625</AltitudeMeters>
            <DistanceMeters>9981.0704777728</DistanceMeters>
          </Trackpoint>
          <Trackpoint>
            <Time>2018-06-10T09:57:23.000Z</Time>
            <Position>
              <LatitudeDegrees>35.89867631904780864715576171875</LatitudeDegrees>
              <LongitudeDegrees>-5.3732299245893955230712890625</LongitudeDegrees>
            </Position>
            <AltitudeMeters>326.399993896484375</AltitudeMeters>
            <DistanceMeters>9984.7557504861</DistanceMeters>
          </Trackpoint>
          <Trackpoint>
            <Time>2018-06-10T09:57:50.000Z</Time>
            <Position>
              <LatitudeDegrees>35.89871588163077831268310546875</LatitudeDegrees>
              <LongitudeDegrees>-5.3732473589479923248291015625</LongitudeDegrees>
            </Position>
            <AltitudeMeters>325.20001220703125</AltitudeMeters>
            <DistanceMeters>9989.4304467323</DistanceMeters>
          </Trackpoint>
          <Trackpoint>
            <Time>2018-06-10T09:57:57.000Z</Time>
            <Position>
              <LatitudeDegrees>35.898722670972347259521484375</LatitudeDegrees>
              <LongitudeDegrees>-5.37324945442378520965576171875</LongitudeDegrees>
            </Position>
            <AltitudeMeters>325</AltitudeMeters>
            <DistanceMeters>9990.2140570935</DistanceMeters>
          </Trackpoint>
          <Trackpoint>
            <Time>2018-06-10T09:58:01.000Z</Time>
            <Position>
              <LatitudeDegrees>35.8987137861549854278564453125</LatitudeDegrees>
              <LongitudeDegrees>-5.3732487000524997711181640625</LongitudeDegrees>
            </Position>
            <AltitudeMeters>325.20001220703125</AltitudeMeters>
            <DistanceMeters>9991.2061651181</DistanceMeters>
          </Trackpoint>
          <Trackpoint>
            <Time>2018-06-10T09:58:07.000Z</Time>
            <Position>
              <LatitudeDegrees>35.89869283139705657958984375</LatitudeDegrees>
              <LongitudeDegrees>-5.3732396475970745086669921875</LongitudeDegrees>
            </Position>
            <AltitudeMeters>325.79998779296875</AltitudeMeters>
            <DistanceMeters>9993.6768596917</DistanceMeters>
          </Trackpoint>
          <Trackpoint>
            <Time>2018-06-10T09:58:10.000Z</Time>
            <Position>
              <LatitudeDegrees>35.8986839465796947479248046875</LatitudeDegrees>
              <LongitudeDegrees>-5.3732413239777088165283203125</LongitudeDegrees>
            </Position>
            <AltitudeMeters>326</AltitudeMeters>
            <DistanceMeters>9994.6780282516</DistanceMeters>
          </Trackpoint>
          <Trackpoint>
            <Time>2018-06-10T09:58:22.000Z</Time>
            <Position>
              <LatitudeDegrees>35.89868880808353424072265625</LatitudeDegrees>
              <LongitudeDegrees>-5.37325029261410236358642578125</LongitudeDegrees>
            </Position>
            <AltitudeMeters>325.600006103515625</AltitudeMeters>
            <DistanceMeters>9995.6517623152</DistanceMeters>
          </Trackpoint>
          <Trackpoint>
            <Time>2018-06-10T09:58:29.000Z</Time>
            <Position>
              <LatitudeDegrees>35.8986975252628326416015625</LatitudeDegrees>
              <LongitudeDegrees>-5.37324392236769199371337890625</LongitudeDegrees>
            </Position>
            <AltitudeMeters>325.600006103515625</AltitudeMeters>
            <DistanceMeters>9996.784136306</DistanceMeters>
          </Trackpoint>
          <Trackpoint>
            <Time>2018-06-10T09:58:32.000Z</Time>
            <Position>
              <LatitudeDegrees>35.89869878254830837249755859375</LatitudeDegrees>
              <LongitudeDegrees>-5.37324375472962856292724609375</LongitudeDegrees>
            </Position>
            <AltitudeMeters>325.600006103515625</AltitudeMeters>
            <DistanceMeters>9996.9487274033</DistanceMeters>
          </Trackpoint>
          <Trackpoint>
            <Time>2018-06-10T09:58:37.000Z</Time>
            <Position>
              <LatitudeDegrees>35.8986921608448028564453125</LatitudeDegrees>
              <LongitudeDegrees>-5.3732497058808803558349609375</LongitudeDegrees>
            </Position>
            <AltitudeMeters>325.600006103515625</AltitudeMeters>
            <DistanceMeters>9997.8651318497</DistanceMeters>
          </Trackpoint>
          <Trackpoint>
            <Time>2018-06-10T09:58:44.000Z</Time>
            <Position>
              <LatitudeDegrees>35.89869610033929347991943359375</LatitudeDegrees>
              <LongitudeDegrees>-5.3732411563396453857421875</LongitudeDegrees>
            </Position>
            <AltitudeMeters>325.600006103515625</AltitudeMeters>
            <DistanceMeters>9998.7514820348</DistanceMeters>
          </Trackpoint>
          <Trackpoint>
            <Time>2018-06-10T09:58:45.000Z</Time>
            <Position>
              <LatitudeDegrees>35.898696519434452056884765625</LatitudeDegrees>
              <LongitudeDegrees>-5.37323956377804279327392578125</LongitudeDegrees>
            </Position>
            <AltitudeMeters>325.600006103515625</AltitudeMeters>
            <DistanceMeters>9998.885870103</DistanceMeters>
          </Trackpoint>
          <Trackpoint>
            <Time>2018-06-10T09:58:46.000Z</Time>
            <Position>
              <LatitudeDegrees>35.89869760908186435699462890625</LatitudeDegrees>
              <LongitudeDegrees>-5.37324124015867710113525390625</LongitudeDegrees>
            </Position>
            <AltitudeMeters>325.600006103515625</AltitudeMeters>
            <DistanceMeters>9999.0759235318</DistanceMeters>
          </Trackpoint>
          <Trackpoint>
            <Time>2018-06-10T09:58:52.000Z</Time>
            <Position>
              <LatitudeDegrees>35.8986961841583251953125</LatitudeDegrees>
              <LongitudeDegrees>-5.37325716577470302581787109375</LongitudeDegrees>
            </Position>
            <AltitudeMeters>325.399993896484375</AltitudeMeters>
            <DistanceMeters>10000.51707501</DistanceMeters>
          </Trackpoint>
          <Trackpoint>
            <Time>2018-06-10T09:58:58.000Z</Time>
            <Position>
              <LatitudeDegrees>35.89869760908186435699462890625</LatitudeDegrees>
              <LongitudeDegrees>-5.37325096316635608673095703125</LongitudeDegrees>
            </Position>
            <AltitudeMeters>325.399993896484375</AltitudeMeters>
            <DistanceMeters>10001.102859018</DistanceMeters>
          </Trackpoint>
          <Trackpoint>
            <Time>2018-06-10T09:59:17.000Z</Time>
            <Position>
              <LatitudeDegrees>35.8986497484147548675537109375</LatitudeDegrees>
              <LongitudeDegrees>-5.373268984258174896240234375</LongitudeDegrees>
            </Position>
            <AltitudeMeters>326.20001220703125</AltitudeMeters>
            <DistanceMeters>10006.671456913</DistanceMeters>
          </Trackpoint>
          <Trackpoint>
            <Time>2018-06-10T09:59:21.000Z</Time>
            <Position>
              <LatitudeDegrees>35.89865217916667461395263671875</LatitudeDegrees>
              <LongitudeDegrees>-5.37328231148421764373779296875</LongitudeDegrees>
            </Position>
            <AltitudeMeters>325.79998779296875</AltitudeMeters>
            <DistanceMeters>10007.903143903</DistanceMeters>
          </Trackpoint>
          <Trackpoint>
            <Time>2018-06-10T09:59:25.000Z</Time>
            <Position>
              <LatitudeDegrees>35.8986507542431354522705078125</LatitudeDegrees>
              <LongitudeDegrees>-5.373268984258174896240234375</LongitudeDegrees>
            </Position>
            <AltitudeMeters>326.20001220703125</AltitudeMeters>
            <DistanceMeters>10009.120079619</DistanceMeters>
          </Trackpoint>
          <Trackpoint>
            <Time>2018-06-10T09:59:30.000Z</Time>
            <Position>
              <LatitudeDegrees>35.89864882640540599822998046875</LatitudeDegrees>
              <LongitudeDegrees>-5.37325255572795867919921875</LongitudeDegrees>
            </Position>
            <AltitudeMeters>326.399993896484375</AltitudeMeters>
            <DistanceMeters>10010.619575879</DistanceMeters>
          </Trackpoint>
          <Trackpoint>
            <Time>2018-06-10T09:59:32.000Z</Time>
            <Position>
              <LatitudeDegrees>35.89867212809622287750244140625</LatitudeDegrees>
              <LongitudeDegrees>-5.3732487000524997711181640625</LongitudeDegrees>
            </Position>
            <AltitudeMeters>326</AltitudeMeters>
            <DistanceMeters>10013.235832355</DistanceMeters>
          </Trackpoint>
          <Trackpoint>
            <Time>2018-06-10T09:59:39.000Z</Time>
            <Position>
              <LatitudeDegrees>35.8986712060868740081787109375</LatitudeDegrees>
              <LongitudeDegrees>-5.37325163371860980987548828125</LongitudeDegrees>
            </Position>
            <AltitudeMeters>326</AltitudeMeters>
            <DistanceMeters>10013.536333211</DistanceMeters>
          </Trackpoint>
          <Trackpoint>
            <Time>2018-06-10T09:59:40.000Z</Time>
            <Position>
              <LatitudeDegrees>35.898687802255153656005859375</LatitudeDegrees>
              <LongitudeDegrees>-5.3732634522020816802978515625</LongitudeDegrees>
            </Position>
            <AltitudeMeters>325.399993896484375</AltitudeMeters>
            <DistanceMeters>10015.669677657</DistanceMeters>
          </Trackpoint>
          <Trackpoint>
            <Time>2018-06-10T09:59:50.000Z</Time>
            <Position>
              <LatitudeDegrees>35.89860473759472370147705078125</LatitudeDegrees>
              <LongitudeDegrees>-5.373255573213100433349609375</LongitudeDegrees>
            </Position>
            <AltitudeMeters>327.20001220703125</AltitudeMeters>
            <DistanceMeters>10024.941480489</DistanceMeters>
          </Trackpoint>
          <Trackpoint>
            <Time>2018-06-10T09:59:53.000Z</Time>
            <Position>
              <LatitudeDegrees>35.8985741436481475830078125</LatitudeDegrees>
              <LongitudeDegrees>-5.3732453472912311553955078125</LongitudeDegrees>
            </Position>
            <AltitudeMeters>327.79998779296875</AltitudeMeters>
            <DistanceMeters>10028.469007291</DistanceMeters>
          </Trackpoint>
          <Trackpoint>
            <Time>2018-06-10T10:00:00.000Z</Time>
            <Position>
              <LatitudeDegrees>35.89853768236935138702392578125</LatitudeDegrees>
              <LongitudeDegrees>-5.37317611277103424072265625</LongitudeDegrees>
            </Position>
            <AltitudeMeters>329</AltitudeMeters>
            <DistanceMeters>10035.915125029</DistanceMeters>
          </Trackpoint>
          <Trackpoint>
            <Time>2018-06-10T10:00:21.000Z</Time>
            <Position>
              <LatitudeDegrees>35.898516140878200531005859375</LatitudeDegrees>
              <LongitudeDegrees>-5.37301844917237758636474609375</LongitudeDegrees>
            </Position>
            <AltitudeMeters>331</AltitudeMeters>
            <DistanceMeters>10050.331025253</DistanceMeters>
          </Trackpoint>
          <Trackpoint>
            <Time>2018-06-10T10:00:27.000Z</Time>
            <Position>
              <LatitudeDegrees>35.89851773343980312347412109375</LatitudeDegrees>
              <LongitudeDegrees>-5.37302188575267791748046875</LongitudeDegrees>
            </Position>
            <AltitudeMeters>331</AltitudeMeters>
            <DistanceMeters>10050.673648944</DistanceMeters>
          </Trackpoint>
          <Trackpoint>
            <Time>2018-06-10T10:00:35.000Z</Time>
            <Position>
              <LatitudeDegrees>35.8984864689409732818603515625</LatitudeDegrees>
              <LongitudeDegrees>-5.3730109892785549163818359375</LongitudeDegrees>
            </Position>
            <AltitudeMeters>331.600006103515625</AltitudeMeters>
            <DistanceMeters>10054.289662038</DistanceMeters>
          </Trackpoint>
          <Trackpoint>
            <Time>2018-06-10T10:00:37.000Z</Time>
            <Position>
              <LatitudeDegrees>35.89847917668521404266357421875</LatitudeDegrees>
              <LongitudeDegrees>-5.37299196235835552215576171875</LongitudeDegrees>
            </Position>
            <AltitudeMeters>332</AltitudeMeters>
            <DistanceMeters>10056.190196325</DistanceMeters>
          </Trackpoint>
          <Trackpoint>
            <Time>2018-06-10T10:00:42.000Z</Time>
            <Position>
              <LatitudeDegrees>35.89844531379640102386474609375</LatitudeDegrees>
              <LongitudeDegrees>-5.37295281887054443359375</LongitudeDegrees>
            </Position>
            <AltitudeMeters>332.399993896484375</AltitudeMeters>
            <DistanceMeters>10061.353217307</DistanceMeters>
          </Trackpoint>
          <Trackpoint>
            <Time>2018-06-10T10:00:50.000Z</Time>
            <Position>
              <LatitudeDegrees>35.8983647637069225311279296875</LatitudeDegrees>
              <LongitudeDegrees>-5.3729194588959217071533203125</LongitudeDegrees>
            </Position>
            <AltitudeMeters>333.399993896484375</AltitudeMeters>
            <DistanceMeters>10070.809688479</DistanceMeters>
          </Trackpoint>
          <Trackpoint>
            <Time>2018-06-10T10:00:55.000Z</Time>
            <Position>
              <LatitudeDegrees>35.89831220917403697967529296875</LatitudeDegrees>
              <LongitudeDegrees>-5.37290093488991260528564453125</LongitudeDegrees>
            </Position>
            <AltitudeMeters>334</AltitudeMeters>
            <DistanceMeters>10076.89288281</DistanceMeters>
          </Trackpoint>
          <Trackpoint>
            <Time>2018-06-10T10:00:56.000Z</Time>
            <Position>
              <LatitudeDegrees>35.89830131269991397857666015625</LatitudeDegrees>
              <LongitudeDegrees>-5.3728949837386608123779296875</LongitudeDegrees>
            </Position>
            <AltitudeMeters>334.20001220703125</AltitudeMeters>
            <DistanceMeters>10078.216451784</DistanceMeters>
          </Trackpoint>
          <Trackpoint>
            <Time>2018-06-10T10:00:57.000Z</Time>
            <Position>
              <LatitudeDegrees>35.8982896618545055389404296875</LatitudeDegrees>
              <LongitudeDegrees>-5.37288844585418701171875</LongitudeDegrees>
            </Position>
            <AltitudeMeters>334.20001220703125</AltitudeMeters>
            <DistanceMeters>10079.6418525</DistanceMeters>
          </Trackpoint>
          <Trackpoint>
            <Time>2018-06-10T10:01:02.000Z</Time>
            <Position>
              <LatitudeDegrees>35.89823291637003421783447265625</LatitudeDegrees>
              <LongitudeDegrees>-5.37286925129592418670654296875</LongitudeDegrees>
            </Position>
            <AltitudeMeters>335</AltitudeMeters>
            <DistanceMeters>10086.189737881</DistanceMeters>
          </Trackpoint>
          <Trackpoint>
            <Time>2018-06-10T10:01:06.000Z</Time>
            <Position>
              <LatitudeDegrees>35.89818832464516162872314453125</LatitudeDegrees>
              <LongitudeDegrees>-5.37285516969859600067138671875</LongitudeDegrees>
            </Position>
            <AltitudeMeters>335.600006103515625</AltitudeMeters>
            <DistanceMeters>10091.31237413</DistanceMeters>
          </Trackpoint>
          <Trackpoint>
            <Time>2018-06-10T10:01:07.000Z</Time>
            <Position>
              <LatitudeDegrees>35.89817876927554607391357421875</LatitudeDegrees>
              <LongitudeDegrees>-5.37285483442246913909912109375</LongitudeDegrees>
            </Position>
            <AltitudeMeters>335.79998779296875</AltitudeMeters>
            <DistanceMeters>10092.379046353</DistanceMeters>
          </Trackpoint>
          <Trackpoint>
            <Time>2018-06-10T10:01:12.000Z</Time>
            <Position>
              <LatitudeDegrees>35.89814524166285991668701171875</LatitudeDegrees>
              <LongitudeDegrees>-5.37283287383615970611572265625</LongitudeDegrees>
            </Position>
            <AltitudeMeters>336.399993896484375</AltitudeMeters>
            <DistanceMeters>10096.603194913</DistanceMeters>
          </Trackpoint>
          <Trackpoint>
            <Time>2018-06-10T10:01:16.000Z</Time>
            <Position>
              <LatitudeDegrees>35.89810819365084171295166015625</LatitudeDegrees>
              <LongitudeDegrees>-5.3728098236024379730224609375</LongitudeDegrees>
            </Position>
            <AltitudeMeters>337.20001220703125</AltitudeMeters>
            <DistanceMeters>10101.219576657</DistanceMeters>
          </Trackpoint>
          <Trackpoint>
            <Time>2018-06-10T10:01:20.000Z</Time>
            <Position>
              <LatitudeDegrees>35.8980770967900753021240234375</LatitudeDegrees>
              <LongitudeDegrees>-5.372773110866546630859375</LongitudeDegrees>
            </Position>
            <AltitudeMeters>337.79998779296875</AltitudeMeters>
            <DistanceMeters>10106.008772223</DistanceMeters>
          </Trackpoint>
          <Trackpoint>
            <Time>2018-06-10T10:01:23.000Z</Time>
            <Position>
              <LatitudeDegrees>35.89804641902446746826171875</LatitudeDegrees>
              <LongitudeDegrees>-5.37275391630828380584716796875</LongitudeDegrees>
            </Position>
            <AltitudeMeters>337.399993896484375</AltitudeMeters>
            <DistanceMeters>10109.835883927</DistanceMeters>
          </Trackpoint>
          <Trackpoint>
            <Time>2018-06-10T10:01:24.000Z</Time>
            <Position>
              <LatitudeDegrees>35.89803627692162990570068359375</LatitudeDegrees>
              <LongitudeDegrees>-5.37274855189025402069091796875</LongitudeDegrees>
            </Position>
            <AltitudeMeters>337</AltitudeMeters>
            <DistanceMeters>10111.060217496</DistanceMeters>
          </Trackpoint>
          <Trackpoint>
            <Time>2018-06-10T10:01:25.000Z</Time>
            <Position>
              <LatitudeDegrees>35.8980268053710460662841796875</LatitudeDegrees>
              <LongitudeDegrees>-5.372743941843509674072265625</LongitudeDegrees>
            </Position>
            <AltitudeMeters>336.600006103515625</AltitudeMeters>
            <DistanceMeters>10112.192591487</DistanceMeters>
          </Trackpoint>
          <Trackpoint>
            <Time>2018-06-10T10:01:26.000Z</Time>
            <Position>
              <LatitudeDegrees>35.8980184234678745269775390625</LatitudeDegrees>
              <LongitudeDegrees>-5.37273866124451160430908203125</LongitudeDegrees>
            </Position>
            <AltitudeMeters>336.399993896484375</AltitudeMeters>
            <DistanceMeters>10113.237885345</DistanceMeters>
          </Trackpoint>
          <Trackpoint>
            <Time>2018-06-10T10:01:31.000Z</Time>
            <Position>
              <LatitudeDegrees>35.8979771845042705535888671875</LatitudeDegrees>
              <LongitudeDegrees>-5.3727075643837451934814453125</LongitudeDegrees>
            </Position>
            <AltitudeMeters>335</AltitudeMeters>
            <DistanceMeters>10118.616766728</DistanceMeters>
          </Trackpoint>
          <Trackpoint>
            <Time>2018-06-10T10:01:37.000Z</Time>
            <Position>
              <LatitudeDegrees>35.8979527093470096588134765625</LatitudeDegrees>
              <LongitudeDegrees>-5.3726871125400066375732421875</LongitudeDegrees>
            </Position>
            <AltitudeMeters>334.20001220703125</AltitudeMeters>
            <DistanceMeters>10121.907216797</DistanceMeters>
          </Trackpoint>
          <Trackpoint>
            <Time>2018-06-10T10:01:43.000Z</Time>
            <Position>
              <LatitudeDegrees>35.89792999438941478729248046875</LatitudeDegrees>
              <LongitudeDegrees>-5.3726564347743988037109375</LongitudeDegrees>
            </Position>
            <AltitudeMeters>333.399993896484375</AltitudeMeters>
            <DistanceMeters>10125.653246534</DistanceMeters>
          </Trackpoint>
          <Trackpoint>
            <Time>2018-06-10T10:01:48.000Z</Time>
            <Position>
              <LatitudeDegrees>35.8979225344955921173095703125</LatitudeDegrees>
              <LongitudeDegrees>-5.37258409895002841949462890625</LongitudeDegrees>
            </Position>
            <AltitudeMeters>333.20001220703125</AltitudeMeters>
            <DistanceMeters>10132.227969033</DistanceMeters>
          </Trackpoint>
          <Trackpoint>
            <Time>2018-06-10T10:01:53.000Z</Time>
            <Position>
              <LatitudeDegrees>35.897918678820133209228515625</LatitudeDegrees>
              <LongitudeDegrees>-5.37253816612064838409423828125</LongitudeDegrees>
            </Position>
            <AltitudeMeters>333</AltitudeMeters>
            <DistanceMeters>10136.391831035</DistanceMeters>
          </Trackpoint>
          <Trackpoint>
            <Time>2018-06-10T10:01:59.000Z</Time>
            <Position>
              <LatitudeDegrees>35.89791323058307170867919921875</LatitudeDegrees>
              <LongitudeDegrees>-5.3724819235503673553466796875</LongitudeDegrees>
            </Position>
            <AltitudeMeters>332.79998779296875</AltitudeMeters>
            <DistanceMeters>10141.499461684</DistanceMeters>
          </Trackpoint>
          <Trackpoint>
            <Time>2018-06-10T10:02:00.000Z</Time>
            <Position>
              <LatitudeDegrees>35.89791406877338886260986328125</LatitudeDegrees>
              <LongitudeDegrees>-5.3724695183336734771728515625</LongitudeDegrees>
            </Position>
            <AltitudeMeters>332.79998779296875</AltitudeMeters>
            <DistanceMeters>10142.615772819</DistanceMeters>
          </Trackpoint>
          <Trackpoint>
            <Time>2018-06-10T10:02:06.000Z</Time>
            <Position>
              <LatitudeDegrees>35.897934101521968841552734375</LatitudeDegrees>
              <LongitudeDegrees>-5.37238142453134059906005859375</LongitudeDegrees>
            </Position>
            <AltitudeMeters>333.600006103515625</AltitudeMeters>
            <DistanceMeters>10150.865054974</DistanceMeters>
          </Trackpoint>
          <Trackpoint>
            <Time>2018-06-10T10:02:12.000Z</Time>
            <Position>
              <LatitudeDegrees>35.89792865328490734100341796875</LatitudeDegrees>
              <LongitudeDegrees>-5.372349321842193603515625</LongitudeDegrees>
            </Position>
            <AltitudeMeters>333.399993896484375</AltitudeMeters>
            <DistanceMeters>10153.821592476</DistanceMeters>
          </Trackpoint>
          <Trackpoint>
            <Time>2018-06-10T10:02:20.000Z</Time>
            <Position>
              <LatitudeDegrees>35.897919349372386932373046875</LatitudeDegrees>
              <LongitudeDegrees>-5.372322164475917816162109375</LongitudeDegrees>
            </Position>
            <AltitudeMeters>333</AltitudeMeters>
            <DistanceMeters>10156.480643031</DistanceMeters>
          </Trackpoint>
          <Trackpoint>
            <Time>2018-06-10T10:02:21.000Z</Time>
            <Position>
              <LatitudeDegrees>35.89792328886687755584716796875</LatitudeDegrees>
              <LongitudeDegrees>-5.37231805734336376190185546875</LongitudeDegrees>
            </Position>
            <AltitudeMeters>333.20001220703125</AltitudeMeters>
            <DistanceMeters>10157.050803317</DistanceMeters>
          </Trackpoint>
          <Trackpoint>
            <Time>2018-06-10T10:02:23.000Z</Time>
            <Position>
              <LatitudeDegrees>35.897923372685909271240234375</LatitudeDegrees>
              <LongitudeDegrees>-5.3723072446882724761962890625</LongitudeDegrees>
            </Position>
            <AltitudeMeters>333.20001220703125</AltitudeMeters>
            <DistanceMeters>10158.019889459</DistanceMeters>
          </Trackpoint>
          <Trackpoint>
            <Time>2018-06-10T10:02:24.000Z</Time>
            <Position>
              <LatitudeDegrees>35.89792362414300441741943359375</LatitudeDegrees>
              <LongitudeDegrees>-5.37230330519378185272216796875</LongitudeDegrees>
            </Position>
            <AltitudeMeters>333.20001220703125</AltitudeMeters>
            <DistanceMeters>10158.375446867</DistanceMeters>
          </Trackpoint>
          <Trackpoint>
            <Time>2018-06-10T10:02:26.000Z</Time>
            <Position>
              <LatitudeDegrees>35.89791691862046718597412109375</LatitudeDegrees>
              <LongitudeDegrees>-5.3722951747477054595947265625</LongitudeDegrees>
            </Position>
            <AltitudeMeters>333</AltitudeMeters>
            <DistanceMeters>10159.425051233</DistanceMeters>
          </Trackpoint>
          <Trackpoint>
            <Time>2018-06-10T10:02:30.000Z</Time>
            <Position>
              <LatitudeDegrees>35.89791524223983287811279296875</LatitudeDegrees>
              <LongitudeDegrees>-5.3722981922328472137451171875</LongitudeDegrees>
            </Position>
            <AltitudeMeters>333</AltitudeMeters>
            <DistanceMeters>10159.754233428</DistanceMeters>
          </Trackpoint>
          <Trackpoint>
            <Time>2018-06-10T10:02:39.000Z</Time>
            <Position>
              <LatitudeDegrees>35.8979170024394989013671875</LatitudeDegrees>
              <LongitudeDegrees>-5.372297354042530059814453125</LongitudeDegrees>
            </Position>
            <AltitudeMeters>333</AltitudeMeters>
            <DistanceMeters>10159.966719621</DistanceMeters>
          </Trackpoint>
          <Trackpoint>
            <Time>2018-06-10T10:02:54.000Z</Time>
            <Position>
              <LatitudeDegrees>35.89793787337839603424072265625</LatitudeDegrees>
              <LongitudeDegrees>-5.3721369244158267974853515625</LongitudeDegrees>
            </Position>
            <AltitudeMeters>335</AltitudeMeters>
            <DistanceMeters>10174.616560127</DistanceMeters>
          </Trackpoint>
          <Trackpoint>
            <Time>2018-06-10T10:02:57.000Z</Time>
            <Position>
              <LatitudeDegrees>35.8979376219213008880615234375</LatitudeDegrees>
              <LongitudeDegrees>-5.37210817448794841766357421875</LongitudeDegrees>
            </Position>
            <AltitudeMeters>334.600006103515625</AltitudeMeters>
            <DistanceMeters>10177.20854332</DistanceMeters>
          </Trackpoint>
          <Trackpoint>
            <Time>2018-06-10T10:02:59.000Z</Time>
            <Position>
              <LatitudeDegrees>35.8979379571974277496337890625</LatitudeDegrees>
              <LongitudeDegrees>-5.3720856271684169769287109375</LongitudeDegrees>
            </Position>
            <AltitudeMeters>334</AltitudeMeters>
            <DistanceMeters>10179.242203815</DistanceMeters>
          </Trackpoint>
          <Trackpoint>
            <Time>2018-06-10T10:03:03.000Z</Time>
            <Position>
              <LatitudeDegrees>35.89793703518807888031005859375</LatitudeDegrees>
              <LongitudeDegrees>-5.37203080952167510986328125</LongitudeDegrees>
            </Position>
            <AltitudeMeters>333</AltitudeMeters>
            <DistanceMeters>10184.186333358</DistanceMeters>
          </Trackpoint>
          <Trackpoint>
            <Time>2018-06-10T10:03:09.000Z</Time>
            <Position>
              <LatitudeDegrees>35.8979411423206329345703125</LatitudeDegrees>
              <LongitudeDegrees>-5.3719575516879558563232421875</LongitudeDegrees>
            </Position>
            <AltitudeMeters>331.600006103515625</AltitudeMeters>
            <DistanceMeters>10190.806906676</DistanceMeters>
          </Trackpoint>
          <Trackpoint>
            <Time>2018-06-10T10:03:15.000Z</Time>
            <Position>
              <LatitudeDegrees>35.89793720282614231109619140625</LatitudeDegrees>
              <LongitudeDegrees>-5.3718717209994792938232421875</LongitudeDegrees>
            </Position>
            <AltitudeMeters>330</AltitudeMeters>
            <DistanceMeters>10198.558430956</DistanceMeters>
          </Trackpoint>
          <Trackpoint>
            <Time>2018-06-10T10:03:19.000Z</Time>
            <Position>
              <LatitudeDegrees>35.897922031581401824951171875</LatitudeDegrees>
              <LongitudeDegrees>-5.3718137182295322418212890625</LongitudeDegrees>
            </Position>
            <AltitudeMeters>328.600006103515625</AltitudeMeters>
            <DistanceMeters>10204.053572048</DistanceMeters>
          </Trackpoint>
          <Trackpoint>
            <Time>2018-06-10T10:03:25.000Z</Time>
            <Position>
              <LatitudeDegrees>35.89791272766888141632080078125</LatitudeDegrees>
              <LongitudeDegrees>-5.371717996895313262939453125</LongitudeDegrees>
            </Position>
            <AltitudeMeters>326.399993896484375</AltitudeMeters>
            <DistanceMeters>10212.745270359</DistanceMeters>
          </Trackpoint>
          <Trackpoint>
            <Time>2018-06-10T10:03:31.000Z</Time>
            <Position>
              <LatitudeDegrees>35.89792496524751186370849609375</LatitudeDegrees>
              <LongitudeDegrees>-5.3716464154422283172607421875</LongitudeDegrees>
            </Position>
            <AltitudeMeters>325.399993896484375</AltitudeMeters>
            <DistanceMeters>10219.341247035</DistanceMeters>
          </Trackpoint>
          <Trackpoint>
            <Time>2018-06-10T10:03:37.000Z</Time>
            <Position>
              <LatitudeDegrees>35.8979144878685474395751953125</LatitudeDegrees>
              <LongitudeDegrees>-5.37156368605792522430419921875</LongitudeDegrees>
            </Position>
            <AltitudeMeters>323.600006103515625</AltitudeMeters>
            <DistanceMeters>10226.890938586</DistanceMeters>
          </Trackpoint>
          <Trackpoint>
            <Time>2018-06-10T10:03:38.000Z</Time>
            <Position>
              <LatitudeDegrees>35.89791834354400634765625</LatitudeDegrees>
              <LongitudeDegrees>-5.37154608406126499176025390625</LongitudeDegrees>
            </Position>
            <AltitudeMeters>323.399993896484375</AltitudeMeters>
            <DistanceMeters>10228.53684956</DistanceMeters>
          </Trackpoint>
          <Trackpoint>
            <Time>2018-06-10T10:03:42.000Z</Time>
            <Position>
              <LatitudeDegrees>35.89792437851428985595703125</LatitudeDegrees>
              <LongitudeDegrees>-5.37148975767195224761962890625</LongitudeDegrees>
            </Position>
            <AltitudeMeters>322.399993896484375</AltitudeMeters>
            <DistanceMeters>10233.659485809</DistanceMeters>
          </Trackpoint>
          <Trackpoint>
            <Time>2018-06-10T10:03:53.000Z</Time>
            <Position>
              <LatitudeDegrees>35.8979151584208011627197265625</LatitudeDegrees>
              <LongitudeDegrees>-5.37134374491870403289794921875</LongitudeDegrees>
            </Position>
            <AltitudeMeters>321</AltitudeMeters>
            <DistanceMeters>10246.864438522</DistanceMeters>
          </Trackpoint>
          <Trackpoint>
            <Time>2018-06-10T10:03:55.000Z</Time>
            <Position>
              <LatitudeDegrees>35.8979124762117862701416015625</LatitudeDegrees>
              <LongitudeDegrees>-5.371321029961109161376953125</LongitudeDegrees>
            </Position>
            <AltitudeMeters>321</AltitudeMeters>
            <DistanceMeters>10248.933316535</DistanceMeters>
          </Trackpoint>
          <Trackpoint>
            <Time>2018-06-10T10:03:58.000Z</Time>
            <Position>
              <LatitudeDegrees>35.897921025753021240234375</LatitudeDegrees>
              <LongitudeDegrees>-5.37127979099750518798828125</LongitudeDegrees>
            </Position>
            <AltitudeMeters>320.399993896484375</AltitudeMeters>
            <DistanceMeters>10252.771031308</DistanceMeters>
          </Trackpoint>
          <Trackpoint>
            <Time>2018-06-10T10:04:10.000Z</Time>
            <Position>
              <LatitudeDegrees>35.8979034237563610076904296875</LatitudeDegrees>
              <LongitudeDegrees>-5.371110476553440093994140625</LongitudeDegrees>
            </Position>
            <AltitudeMeters>317.20001220703125</AltitudeMeters>
            <DistanceMeters>10268.161839126</DistanceMeters>
          </Trackpoint>
          <Trackpoint>
            <Time>2018-06-10T10:04:27.000Z</Time>
            <Position>
              <LatitudeDegrees>35.89781432412564754486083984375</LatitudeDegrees>
              <LongitudeDegrees>-5.37091174162924289703369140625</LongitudeDegrees>
            </Position>
            <AltitudeMeters>313</AltitudeMeters>
            <DistanceMeters>10288.641363791</DistanceMeters>
          </Trackpoint>
          <Trackpoint>
            <Time>2018-06-10T10:04:33.000Z</Time>
            <Position>
              <LatitudeDegrees>35.89778498746454715728759765625</LatitudeDegrees>
              <LongitudeDegrees>-5.37084795534610748291015625</LongitudeDegrees>
            </Position>
            <AltitudeMeters>311.600006103515625</AltitudeMeters>
            <DistanceMeters>10295.255113884</DistanceMeters>
          </Trackpoint>
          <Trackpoint>
            <Time>2018-06-10T10:04:42.000Z</Time>
            <Position>
              <LatitudeDegrees>35.89775213040411472320556640625</LatitudeDegrees>
              <LongitudeDegrees>-5.37070588208734989166259765625</LongitudeDegrees>
            </Position>
            <AltitudeMeters>310.20001220703125</AltitudeMeters>
            <DistanceMeters>10308.576490025</DistanceMeters>
          </Trackpoint>
          <Trackpoint>
            <Time>2018-06-10T10:04:58.000Z</Time>
            <Position>
              <LatitudeDegrees>35.89769764803349971771240234375</LatitudeDegrees>
              <LongitudeDegrees>-5.37049599923193454742431640625</LongitudeDegrees>
            </Position>
            <AltitudeMeters>310.20001220703125</AltitudeMeters>
            <DistanceMeters>10328.447755277</DistanceMeters>
          </Trackpoint>
          <Trackpoint>
            <Time>2018-06-10T10:05:03.000Z</Time>
            <Position>
              <LatitudeDegrees>35.89770452119410037994384765625</LatitudeDegrees>
              <LongitudeDegrees>-5.37041268311440944671630859375</LongitudeDegrees>
            </Position>
            <AltitudeMeters>309.399993896484375</AltitudeMeters>
            <DistanceMeters>10335.998642819</DistanceMeters>
          </Trackpoint>
          <Trackpoint>
            <Time>2018-06-10T10:05:04.000Z</Time>
            <Position>
              <LatitudeDegrees>35.89770703576505184173583984375</LatitudeDegrees>
              <LongitudeDegrees>-5.3703975118696689605712890625</LongitudeDegrees>
            </Position>
            <AltitudeMeters>309.20001220703125</AltitudeMeters>
            <DistanceMeters>10337.395244592</DistanceMeters>
          </Trackpoint>
          <Trackpoint>
            <Time>2018-06-10T10:05:08.000Z</Time>
            <Position>
              <LatitudeDegrees>35.89771910570561885833740234375</LatitudeDegrees>
              <LongitudeDegrees>-5.37033909000456333160400390625</LongitudeDegrees>
            </Position>
            <AltitudeMeters>308.600006103515625</AltitudeMeters>
            <DistanceMeters>10342.829244037</DistanceMeters>
          </Trackpoint>
          <Trackpoint>
            <Time>2018-06-10T10:05:14.000Z</Time>
            <Position>
              <LatitudeDegrees>35.89770577847957611083984375</LatitudeDegrees>
              <LongitudeDegrees>-5.370258875191211700439453125</LongitudeDegrees>
            </Position>
            <AltitudeMeters>308</AltitudeMeters>
            <DistanceMeters>10350.210807643</DistanceMeters>
          </Trackpoint>
          <Trackpoint>
            <Time>2018-06-10T10:05:18.000Z</Time>
            <Position>
              <LatitudeDegrees>35.8977230452001094818115234375</LatitudeDegrees>
              <LongitudeDegrees>-5.37019341252744197845458984375</LongitudeDegrees>
            </Position>
            <AltitudeMeters>307.20001220703125</AltitudeMeters>
            <DistanceMeters>10356.418169094</DistanceMeters>
          </Trackpoint>
          <Trackpoint>
            <Time>2018-06-10T10:05:26.000Z</Time>
            <Position>
              <LatitudeDegrees>35.89772128500044345855712890625</LatitudeDegrees>
              <LongitudeDegrees>-5.3700927458703517913818359375</LongitudeDegrees>
            </Position>
            <AltitudeMeters>306.20001220703125</AltitudeMeters>
            <DistanceMeters>10365.497075294</DistanceMeters>
          </Trackpoint>
          <Trackpoint>
            <Time>2018-06-10T10:05:36.000Z</Time>
            <Position>
              <LatitudeDegrees>35.897732935845851898193359375</LatitudeDegrees>
              <LongitudeDegrees>-5.369962491095066070556640625</LongitudeDegrees>
            </Position>
            <AltitudeMeters>305</AltitudeMeters>
            <DistanceMeters>10377.312530504</DistanceMeters>
          </Trackpoint>
          <Trackpoint>
            <Time>2018-06-10T10:05:45.000Z</Time>
            <Position>
              <LatitudeDegrees>35.8977626077830791473388671875</LatitudeDegrees>
              <LongitudeDegrees>-5.36988562904298305511474609375</LongitudeDegrees>
            </Position>
            <AltitudeMeters>304.600006103515625</AltitudeMeters>
            <DistanceMeters>10384.989724584</DistanceMeters>
          </Trackpoint>
          <Trackpoint>
            <Time>2018-06-10T10:05:47.000Z</Time>
            <Position>
              <LatitudeDegrees>35.89776344597339630126953125</LatitudeDegrees>
              <LongitudeDegrees>-5.3698583878576755523681640625</LongitudeDegrees>
            </Position>
            <AltitudeMeters>304.600006103515625</AltitudeMeters>
            <DistanceMeters>10387.447593812</DistanceMeters>
          </Trackpoint>
          <Trackpoint>
            <Time>2018-06-10T10:06:00.000Z</Time>
            <Position>
              <LatitudeDegrees>35.897751040756702423095703125</LatitudeDegrees>
              <LongitudeDegrees>-5.36969452165067195892333984375</LongitudeDegrees>
            </Position>
            <AltitudeMeters>305.399993896484375</AltitudeMeters>
            <DistanceMeters>10402.286373547</DistanceMeters>
          </Trackpoint>
          <Trackpoint>
            <Time>2018-06-10T10:06:07.000Z</Time>
            <Position>
              <LatitudeDegrees>35.89775665663182735443115234375</LatitudeDegrees>
              <LongitudeDegrees>-5.369603075087070465087890625</LongitudeDegrees>
            </Position>
            <AltitudeMeters>305.20001220703125</AltitudeMeters>
            <DistanceMeters>10410.554789886</DistanceMeters>
          </Trackpoint>
          <Trackpoint>
            <Time>2018-06-10T10:06:13.000Z</Time>
            <Position>
              <LatitudeDegrees>35.8977560698986053466796875</LatitudeDegrees>
              <LongitudeDegrees>-5.36952939815819263458251953125</LongitudeDegrees>
            </Position>
            <AltitudeMeters>304.79998779296875</AltitudeMeters>
            <DistanceMeters>10417.197830122</DistanceMeters>
          </Trackpoint>
          <Trackpoint>
            <Time>2018-06-10T10:06:14.000Z</Time>
            <Position>
              <LatitudeDegrees>35.897749364376068115234375</LatitudeDegrees>
              <LongitudeDegrees>-5.36951984278857707977294921875</LongitudeDegrees>
            </Position>
            <AltitudeMeters>304.79998779296875</AltitudeMeters>
            <DistanceMeters>10418.33418435</DistanceMeters>
          </Trackpoint>
          <Trackpoint>
            <Time>2018-06-10T10:06:20.000Z</Time>
            <Position>
              <LatitudeDegrees>35.89771575294435024261474609375</LatitudeDegrees>
              <LongitudeDegrees>-5.369442142546176910400390625</LongitudeDegrees>
            </Position>
            <AltitudeMeters>305.20001220703125</AltitudeMeters>
            <DistanceMeters>10426.275598197</DistanceMeters>
          </Trackpoint>
          <Trackpoint>
            <Time>2018-06-10T10:06:23.000Z</Time>
            <Position>
              <LatitudeDegrees>35.89769178070127964019775390625</LatitudeDegrees>
              <LongitudeDegrees>-5.36940626800060272216796875</LongitudeDegrees>
            </Position>
            <AltitudeMeters>305.399993896484375</AltitudeMeters>
            <DistanceMeters>10430.468635143</DistanceMeters>
          </Trackpoint>
          <Trackpoint>
            <Time>2018-06-10T10:06:26.000Z</Time>
            <Position>
              <LatitudeDegrees>35.8976740948855876922607421875</LatitudeDegrees>
              <LongitudeDegrees>-5.3693729080259799957275390625</LongitudeDegrees>
            </Position>
            <AltitudeMeters>305.600006103515625</AltitudeMeters>
            <DistanceMeters>10434.06335897</DistanceMeters>
          </Trackpoint>
          <Trackpoint>
            <Time>2018-06-10T10:06:49.000Z</Time>
            <Position>
              <LatitudeDegrees>35.89766713790595531463623046875</LatitudeDegrees>
              <LongitudeDegrees>-5.3691720776259899139404296875</LongitudeDegrees>
            </Position>
            <AltitudeMeters>305</AltitudeMeters>
            <DistanceMeters>10452.187073563</DistanceMeters>
          </Trackpoint>
          <Trackpoint>
            <Time>2018-06-10T10:06:53.000Z</Time>
            <Position>
              <LatitudeDegrees>35.8976576663553714752197265625</LatitudeDegrees>
              <LongitudeDegrees>-5.3691372089087963104248046875</LongitudeDegrees>
            </Position>
            <AltitudeMeters>305.20001220703125</AltitudeMeters>
            <DistanceMeters>10455.503492281</DistanceMeters>
          </Trackpoint>
          <Trackpoint>
            <Time>2018-06-10T10:07:00.000Z</Time>
            <Position>
              <LatitudeDegrees>35.897668898105621337890625</LatitudeDegrees>
              <LongitudeDegrees>-5.369031764566898345947265625</LongitudeDegrees>
            </Position>
            <AltitudeMeters>304.79998779296875</AltitudeMeters>
            <DistanceMeters>10465.092718966</DistanceMeters>
          </Trackpoint>
          <Trackpoint>
            <Time>2018-06-10T10:07:07.000Z</Time>
            <Position>
              <LatitudeDegrees>35.89767686091363430023193359375</LatitudeDegrees>
              <LongitudeDegrees>-5.36894165910780429840087890625</LongitudeDegrees>
            </Position>
            <AltitudeMeters>304.600006103515625</AltitudeMeters>
            <DistanceMeters>10473.265016402</DistanceMeters>
          </Trackpoint>
          <Trackpoint>
            <Time>2018-06-10T10:07:08.000Z</Time>
            <Position>
              <LatitudeDegrees>35.8976797945797443389892578125</LatitudeDegrees>
              <LongitudeDegrees>-5.3689283318817615509033203125</LongitudeDegrees>
            </Position>
            <AltitudeMeters>304.399993896484375</AltitudeMeters>
            <DistanceMeters>10474.511280077</DistanceMeters>
          </Trackpoint>
          <Trackpoint>
            <Time>2018-06-10T10:07:14.000Z</Time>
            <Position>
              <LatitudeDegrees>35.897698737680912017822265625</LatitudeDegrees>
              <LongitudeDegrees>-5.3688582591712474822998046875</LongitudeDegrees>
            </Position>
            <AltitudeMeters>303.79998779296875</AltitudeMeters>
            <DistanceMeters>10481.17129025</DistanceMeters>
          </Trackpoint>
          <Trackpoint>
            <Time>2018-06-10T10:07:18.000Z</Time>
            <Position>
              <LatitudeDegrees>35.89771960861980915069580078125</LatitudeDegrees>
              <LongitudeDegrees>-5.36883470602333545684814453125</LongitudeDegrees>
            </Position>
            <AltitudeMeters>303.399993896484375</AltitudeMeters>
            <DistanceMeters>10484.320103349</DistanceMeters>
          </Trackpoint>
          <Trackpoint>
            <Time>2018-06-10T10:07:21.000Z</Time>
            <Position>
              <LatitudeDegrees>35.897733606398105621337890625</LatitudeDegrees>
              <LongitudeDegrees>-5.3688032738864421844482421875</LongitudeDegrees>
            </Position>
            <AltitudeMeters>303</AltitudeMeters>
            <DistanceMeters>10487.553805333</DistanceMeters>
          </Trackpoint>
          <Trackpoint>
            <Time>2018-06-10T10:07:24.000Z</Time>
            <Position>
              <LatitudeDegrees>35.89773234911262989044189453125</LatitudeDegrees>
              <LongitudeDegrees>-5.3687632083892822265625</LongitudeDegrees>
            </Position>
            <AltitudeMeters>303.20001220703125</AltitudeMeters>
            <DistanceMeters>10491.169818426</DistanceMeters>
          </Trackpoint>
          <Trackpoint>
            <Time>2018-06-10T10:07:28.000Z</Time>
            <Position>
              <LatitudeDegrees>35.8977528847754001617431640625</LatitudeDegrees>
              <LongitudeDegrees>-5.368707887828350067138671875</LongitudeDegrees>
            </Position>
            <AltitudeMeters>303</AltitudeMeters>
            <DistanceMeters>10496.656736948</DistanceMeters>
          </Trackpoint>
          <Trackpoint>
            <Time>2018-06-10T10:07:32.000Z</Time>
            <Position>
              <LatitudeDegrees>35.89778079651296138763427734375</LatitudeDegrees>
              <LongitudeDegrees>-5.36867042072117328643798828125</LongitudeDegrees>
            </Position>
            <AltitudeMeters>302.600006103515625</AltitudeMeters>
            <DistanceMeters>10501.246635459</DistanceMeters>
          </Trackpoint>
          <Trackpoint>
            <Time>2018-06-10T10:07:37.000Z</Time>
            <Position>
              <LatitudeDegrees>35.89778901077806949615478515625</LatitudeDegrees>
              <LongitudeDegrees>-5.36865365691483020782470703125</LongitudeDegrees>
            </Position>
            <AltitudeMeters>302.399993896484375</AltitudeMeters>
            <DistanceMeters>10503.014234523</DistanceMeters>
          </Trackpoint>
          <Trackpoint>
            <Time>2018-06-10T10:07:41.000Z</Time>
            <Position>
              <LatitudeDegrees>35.89779890142381191253662109375</LatitudeDegrees>
              <LongitudeDegrees>-5.36862012930214405059814453125</LongitudeDegrees>
            </Position>
            <AltitudeMeters>302.399993896484375</AltitudeMeters>
            <DistanceMeters>10506.231137942</DistanceMeters>
          </Trackpoint>
          <Trackpoint>
            <Time>2018-06-10T10:07:47.000Z</Time>
            <Position>
              <LatitudeDegrees>35.8978356979787349700927734375</LatitudeDegrees>
              <LongitudeDegrees>-5.36857637576758861541748046875</LongitudeDegrees>
            </Position>
            <AltitudeMeters>301.600006103515625</AltitudeMeters>
            <DistanceMeters>10511.91688096</DistanceMeters>
          </Trackpoint>
          <Trackpoint>
            <Time>2018-06-10T10:07:48.000Z</Time>
            <Position>
              <LatitudeDegrees>35.89784483425319194793701171875</LatitudeDegrees>
              <LongitudeDegrees>-5.3685762919485569000244140625</LongitudeDegrees>
            </Position>
            <AltitudeMeters>301.399993896484375</AltitudeMeters>
            <DistanceMeters>10512.931488625</DistanceMeters>
          </Trackpoint>
          <Trackpoint>
            <Time>2018-06-10T10:07:53.000Z</Time>
            <Position>
              <LatitudeDegrees>35.89788422919809818267822265625</LatitudeDegrees>
              <LongitudeDegrees>-5.36856715567409992218017578125</LongitudeDegrees>
            </Position>
            <AltitudeMeters>300.600006103515625</AltitudeMeters>
            <DistanceMeters>10517.392686725</DistanceMeters>
          </Trackpoint>
          <Trackpoint>
            <Time>2018-06-10T10:07:58.000Z</Time>
            <Position>
              <LatitudeDegrees>35.897924043238162994384765625</LatitudeDegrees>
              <LongitudeDegrees>-5.36853932775557041168212890625</LongitudeDegrees>
            </Position>
            <AltitudeMeters>299.79998779296875</AltitudeMeters>
            <DistanceMeters>10522.48438089</DistanceMeters>
          </Trackpoint>
          <Trackpoint>
            <Time>2018-06-10T10:08:02.000Z</Time>
            <Position>
              <LatitudeDegrees>35.89796167798340320587158203125</LatitudeDegrees>
              <LongitudeDegrees>-5.3685189597308635711669921875</LongitudeDegrees>
            </Position>
            <AltitudeMeters>299</AltitudeMeters>
            <DistanceMeters>10527.057526092</DistanceMeters>
          </Trackpoint>
          <Trackpoint>
            <Time>2018-06-10T10:08:03.000Z</Time>
            <Position>
              <LatitudeDegrees>35.89797140099108219146728515625</LatitudeDegrees>
              <LongitudeDegrees>-5.3685172833502292633056640625</LongitudeDegrees>
            </Position>
            <AltitudeMeters>298.600006103515625</AltitudeMeters>
            <DistanceMeters>10528.153427624</DistanceMeters>
          </Trackpoint>
          <Trackpoint>
            <Time>2018-06-10T10:08:07.000Z</Time>
            <Position>
              <LatitudeDegrees>35.89801951311528682708740234375</LatitudeDegrees>
              <LongitudeDegrees>-5.36850362084805965423583984375</LongitudeDegrees>
            </Position>
            <AltitudeMeters>297.600006103515625</AltitudeMeters>
            <DistanceMeters>10533.648568717</DistanceMeters>
          </Trackpoint>
          <Trackpoint>
            <Time>2018-06-10T10:08:08.000Z</Time>
            <Position>
              <LatitudeDegrees>35.89803057722747325897216796875</LatitudeDegrees>
              <LongitudeDegrees>-5.36850043572485446929931640625</LongitudeDegrees>
            </Position>
            <AltitudeMeters>297.399993896484375</AltitudeMeters>
            <DistanceMeters>10534.916383217</DistanceMeters>
          </Trackpoint>
          <Trackpoint>
            <Time>2018-06-10T10:08:09.000Z</Time>
            <Position>
              <LatitudeDegrees>35.89803929440677165985107421875</LatitudeDegrees>
              <LongitudeDegrees>-5.36849540658295154571533203125</LongitudeDegrees>
            </Position>
            <AltitudeMeters>297.20001220703125</AltitudeMeters>
            <DistanceMeters>10535.987279901</DistanceMeters>
          </Trackpoint>
          <Trackpoint>
            <Time>2018-06-10T10:08:13.000Z</Time>
            <Position>
              <LatitudeDegrees>35.8980730734765529632568359375</LatitudeDegrees>
              <LongitudeDegrees>-5.36849054507911205291748046875</LongitudeDegrees>
            </Position>
            <AltitudeMeters>296.399993896484375</AltitudeMeters>
            <DistanceMeters>10539.771682264</DistanceMeters>
          </Trackpoint>
          <Trackpoint>
            <Time>2018-06-10T10:08:17.000Z</Time>
            <Position>
              <LatitudeDegrees>35.8980992250144481658935546875</LatitudeDegrees>
              <LongitudeDegrees>-5.3684763796627521514892578125</LongitudeDegrees>
            </Position>
            <AltitudeMeters>295.600006103515625</AltitudeMeters>
            <DistanceMeters>10542.949043663</DistanceMeters>
          </Trackpoint>
          <Trackpoint>
            <Time>2018-06-10T10:08:18.000Z</Time>
            <Position>
              <LatitudeDegrees>35.8981062658131122589111328125</LatitudeDegrees>
              <LongitudeDegrees>-5.36847126670181751251220703125</LongitudeDegrees>
            </Position>
            <AltitudeMeters>295.399993896484375</AltitudeMeters>
            <DistanceMeters>10543.860507888</DistanceMeters>
          </Trackpoint>
          <Trackpoint>
            <Time>2018-06-10T10:08:25.000Z</Time>
            <Position>
              <LatitudeDegrees>35.8981760032474994659423828125</LatitudeDegrees>
              <LongitudeDegrees>-5.3684341348707675933837890625</LongitudeDegrees>
            </Position>
            <AltitudeMeters>293.20001220703125</AltitudeMeters>
            <DistanceMeters>10552.314147635</DistanceMeters>
          </Trackpoint>
          <Trackpoint>
            <Time>2018-06-10T10:08:30.000Z</Time>
            <Position>
              <LatitudeDegrees>35.89822939597070217132568359375</LatitudeDegrees>
              <LongitudeDegrees>-5.3684193827211856842041015625</LongitudeDegrees>
            </Position>
            <AltitudeMeters>291.600006103515625</AltitudeMeters>
            <DistanceMeters>10558.404018238</DistanceMeters>
          </Trackpoint>
          <Trackpoint>
            <Time>2018-06-10T10:08:32.000Z</Time>
            <Position>
              <LatitudeDegrees>35.8982427231967449188232421875</LatitudeDegrees>
              <LongitudeDegrees>-5.36841376684606075286865234375</LongitudeDegrees>
            </Position>
            <AltitudeMeters>291.20001220703125</AltitudeMeters>
            <DistanceMeters>10559.97123896</DistanceMeters>
          </Trackpoint>
          <Trackpoint>
            <Time>2018-06-10T10:08:34.000Z</Time>
            <Position>
              <LatitudeDegrees>35.8982563018798828125</LatitudeDegrees>
              <LongitudeDegrees>-5.368413515388965606689453125</LongitudeDegrees>
            </Position>
            <AltitudeMeters>290.79998779296875</AltitudeMeters>
            <DistanceMeters>10561.479741285</DistanceMeters>
          </Trackpoint>
          <Trackpoint>
            <Time>2018-06-10T10:08:35.000Z</Time>
            <Position>
              <LatitudeDegrees>35.89825772680342197418212890625</LatitudeDegrees>
              <LongitudeDegrees>-5.36841385066509246826171875</LongitudeDegrees>
            </Position>
            <AltitudeMeters>290.79998779296875</AltitudeMeters>
            <DistanceMeters>10561.644332382</DistanceMeters>
          </Trackpoint>
          <Trackpoint>
            <Time>2018-06-10T10:08:39.000Z</Time>
            <Position>
              <LatitudeDegrees>35.89827013202011585235595703125</LatitudeDegrees>
              <LongitudeDegrees>-5.3684240765869617462158203125</LongitudeDegrees>
            </Position>
            <AltitudeMeters>290.20001220703125</AltitudeMeters>
            <DistanceMeters>10563.303902602</DistanceMeters>
          </Trackpoint>
          <Trackpoint>
            <Time>2018-06-10T10:08:40.000Z</Time>
            <Position>
              <LatitudeDegrees>35.898274071514606475830078125</LatitudeDegrees>
              <LongitudeDegrees>-5.3684237413108348846435546875</LongitudeDegrees>
            </Position>
            <AltitudeMeters>290.20001220703125</AltitudeMeters>
            <DistanceMeters>10563.749617401</DistanceMeters>
          </Trackpoint>
          <Trackpoint>
            <Time>2018-06-10T10:08:43.000Z</Time>
            <Position>
              <LatitudeDegrees>35.898285806179046630859375</LatitudeDegrees>
              <LongitudeDegrees>-5.36843136884272098541259765625</LongitudeDegrees>
            </Position>
            <AltitudeMeters>289.79998779296875</AltitudeMeters>
            <DistanceMeters>10565.224828716</DistanceMeters>
          </Trackpoint>
          <Trackpoint>
            <Time>2018-06-10T10:08:53.000Z</Time>
            <Position>
              <LatitudeDegrees>35.89832377620041370391845703125</LatitudeDegrees>
              <LongitudeDegrees>-5.368455760180950164794921875</LongitudeDegrees>
            </Position>
            <AltitudeMeters>288.399993896484375</AltitudeMeters>
            <DistanceMeters>10569.987553989</DistanceMeters>
          </Trackpoint>
          <Trackpoint>
            <Time>2018-06-10T10:08:55.000Z</Time>
            <Position>
              <LatitudeDegrees>35.8983409591019153594970703125</LatitudeDegrees>
              <LongitudeDegrees>-5.3684458695352077484130859375</LongitudeDegrees>
            </Position>
            <AltitudeMeters>287.79998779296875</AltitudeMeters>
            <DistanceMeters>10572.095348479</DistanceMeters>
          </Trackpoint>
          <Trackpoint>
            <Time>2018-06-10T10:08:56.000Z</Time>
            <Position>
              <LatitudeDegrees>35.89835210703313350677490234375</LatitudeDegrees>
              <LongitudeDegrees>-5.36844042129814624786376953125</LongitudeDegrees>
            </Position>
            <AltitudeMeters>287.600006103515625</AltitudeMeters>
            <DistanceMeters>10573.432492875</DistanceMeters>
          </Trackpoint>
          <Trackpoint>
            <Time>2018-06-10T10:09:02.000Z</Time>
            <Position>
              <LatitudeDegrees>35.89841178618371486663818359375</LatitudeDegrees>
              <LongitudeDegrees>-5.3684051334857940673828125</LongitudeDegrees>
            </Position>
            <AltitudeMeters>285.79998779296875</AltitudeMeters>
            <DistanceMeters>10580.797523031</DistanceMeters>
          </Trackpoint>
          <Trackpoint>
            <Time>2018-06-10T10:09:06.000Z</Time>
            <Position>
              <LatitudeDegrees>35.89845771901309490203857421875</LatitudeDegrees>
              <LongitudeDegrees>-5.36837789230048656463623046875</LongitudeDegrees>
            </Position>
            <AltitudeMeters>284.399993896484375</AltitudeMeters>
            <DistanceMeters>10586.469750315</DistanceMeters>
          </Trackpoint>
          <Trackpoint>
            <Time>2018-06-10T10:09:10.000Z</Time>
            <Position>
              <LatitudeDegrees>35.89850013144314289093017578125</LatitudeDegrees>
              <LongitudeDegrees>-5.36834218539297580718994140625</LongitudeDegrees>
            </Position>
            <AltitudeMeters>283.20001220703125</AltitudeMeters>
            <DistanceMeters>10592.184009359</DistanceMeters>
          </Trackpoint>
          <Trackpoint>
            <Time>2018-06-10T10:09:11.000Z</Time>
            <Position>
              <LatitudeDegrees>35.8985099382698535919189453125</LatitudeDegrees>
              <LongitudeDegrees>-5.36833263002336025238037109375</LongitudeDegrees>
            </Position>
            <AltitudeMeters>283</AltitudeMeters>
            <DistanceMeters>10593.574130346</DistanceMeters>
          </Trackpoint>
          <Trackpoint>
            <Time>2018-06-10T10:09:16.000Z</Time>
            <Position>
              <LatitudeDegrees>35.89856207370758056640625</LatitudeDegrees>
              <LongitudeDegrees>-5.36828770302236080169677734375</LongitudeDegrees>
            </Position>
            <AltitudeMeters>281.399993896484375</AltitudeMeters>
            <DistanceMeters>10600.650909554</DistanceMeters>
          </Trackpoint>
          <Trackpoint>
            <Time>2018-06-10T10:09:17.000Z</Time>
            <Position>
              <LatitudeDegrees>35.89856953360140323638916015625</LatitudeDegrees>
              <LongitudeDegrees>-5.3682768903672695159912109375</LongitudeDegrees>
            </Position>
            <AltitudeMeters>281.20001220703125</AltitudeMeters>
            <DistanceMeters>10601.932890019</DistanceMeters>
          </Trackpoint>
          <Trackpoint>
            <Time>2018-06-10T10:09:33.000Z</Time>
            <Position>
              <LatitudeDegrees>35.89866743423044681549072265625</LatitudeDegrees>
              <LongitudeDegrees>-5.368098355829715728759765625</LongitudeDegrees>
            </Position>
            <AltitudeMeters>279</AltitudeMeters>
            <DistanceMeters>10621.371138105</DistanceMeters>
          </Trackpoint>
          <Trackpoint>
            <Time>2018-06-10T10:09:47.000Z</Time>
            <Position>
              <LatitudeDegrees>35.89873851276934146881103515625</LatitudeDegrees>
              <LongitudeDegrees>-5.3680069930851459503173828125</LongitudeDegrees>
            </Position>
            <AltitudeMeters>277</AltitudeMeters>
            <DistanceMeters>10632.791752106</DistanceMeters>
          </Trackpoint>
          <Trackpoint>
            <Time>2018-06-10T10:10:01.000Z</Time>
            <Position>
              <LatitudeDegrees>35.898767597973346710205078125</LatitudeDegrees>
              <LongitudeDegrees>-5.36782468669116497039794921875</LongitudeDegrees>
            </Position>
            <AltitudeMeters>276.79998779296875</AltitudeMeters>
            <DistanceMeters>10649.544236871</DistanceMeters>
          </Trackpoint>
          <Trackpoint>
            <Time>2018-06-10T10:10:07.000Z</Time>
            <Position>
              <LatitudeDegrees>35.8987496607005596160888671875</LatitudeDegrees>
              <LongitudeDegrees>-5.36775176413357257843017578125</LongitudeDegrees>
            </Position>
            <AltitudeMeters>277.600006103515625</AltitudeMeters>
            <DistanceMeters>10656.415134895</DistanceMeters>
          </Trackpoint>
          <Trackpoint>
            <Time>2018-06-10T10:10:13.000Z</Time>
            <Position>
              <LatitudeDegrees>35.8987248502671718597412109375</LatitudeDegrees>
              <LongitudeDegrees>-5.36768018268048763275146484375</LongitudeDegrees>
            </Position>
            <AltitudeMeters>278.79998779296875</AltitudeMeters>
            <DistanceMeters>10663.434258563</DistanceMeters>
          </Trackpoint>
          <Trackpoint>
            <Time>2018-06-10T10:10:32.000Z</Time>
            <Position>
              <LatitudeDegrees>35.89867648668587207794189453125</LatitudeDegrees>
              <LongitudeDegrees>-5.367469377815723419189453125</LongitudeDegrees>
            </Position>
            <AltitudeMeters>281</AltitudeMeters>
            <DistanceMeters>10683.18839037</DistanceMeters>
          </Trackpoint>
          <Trackpoint>
            <Time>2018-06-10T10:10:40.000Z</Time>
            <Position>
              <LatitudeDegrees>35.89868880808353424072265625</LatitudeDegrees>
              <LongitudeDegrees>-5.3673575632274150848388671875</LongitudeDegrees>
            </Position>
            <AltitudeMeters>281</AltitudeMeters>
            <DistanceMeters>10693.362907379</DistanceMeters>
          </Trackpoint>
          <Trackpoint>
            <Time>2018-06-10T10:10:46.000Z</Time>
            <Position>
              <LatitudeDegrees>35.89868872426450252532958984375</LatitudeDegrees>
              <LongitudeDegrees>-5.36734658293426036834716796875</LongitudeDegrees>
            </Position>
            <AltitudeMeters>281</AltitudeMeters>
            <DistanceMeters>10694.350453963</DistanceMeters>
          </Trackpoint>
          <Trackpoint>
            <Time>2018-06-10T10:10:57.000Z</Time>
            <Position>
              <LatitudeDegrees>35.89868822135031223297119140625</LatitudeDegrees>
              <LongitudeDegrees>-5.3673563897609710693359375</LongitudeDegrees>
            </Position>
            <AltitudeMeters>281</AltitudeMeters>
            <DistanceMeters>10695.236804148</DistanceMeters>
          </Trackpoint>
          <Trackpoint>
            <Time>2018-06-10T10:11:05.000Z</Time>
            <Position>
              <LatitudeDegrees>35.89868822135031223297119140625</LatitudeDegrees>
              <LongitudeDegrees>-5.367347337305545806884765625</LongitudeDegrees>
            </Position>
            <AltitudeMeters>281</AltitudeMeters>
            <DistanceMeters>10696.043132558</DistanceMeters>
          </Trackpoint>
          <Trackpoint>
            <Time>2018-06-10T10:11:15.000Z</Time>
            <Position>
              <LatitudeDegrees>35.8986812643706798553466796875</LatitudeDegrees>
              <LongitudeDegrees>-5.36732713691890239715576171875</LongitudeDegrees>
            </Position>
            <AltitudeMeters>281.20001220703125</AltitudeMeters>
            <DistanceMeters>10698.022792422</DistanceMeters>
          </Trackpoint>
          <Trackpoint>
            <Time>2018-06-10T10:11:32.000Z</Time>
            <Position>
              <LatitudeDegrees>35.8987597189843654632568359375</LatitudeDegrees>
              <LongitudeDegrees>-5.36710484884679317474365234375</LongitudeDegrees>
            </Position>
            <AltitudeMeters>279.20001220703125</AltitudeMeters>
            <DistanceMeters>10719.884100612</DistanceMeters>
          </Trackpoint>
          <Trackpoint>
            <Time>2018-06-10T10:11:46.000Z</Time>
            <Position>
              <LatitudeDegrees>35.89883029460906982421875</LatitudeDegrees>
              <LongitudeDegrees>-5.36689429543912410736083984375</LongitudeDegrees>
            </Position>
            <AltitudeMeters>278.399993896484375</AltitudeMeters>
            <DistanceMeters>10740.428779562</DistanceMeters>
          </Trackpoint>
          <Trackpoint>
            <Time>2018-06-10T10:11:48.000Z</Time>
            <Position>
              <LatitudeDegrees>35.8988478966057300567626953125</LatitudeDegrees>
              <LongitudeDegrees>-5.3668680600821971893310546875</LongitudeDegrees>
            </Position>
            <AltitudeMeters>278</AltitudeMeters>
            <DistanceMeters>10743.499186669</DistanceMeters>
          </Trackpoint>
          <Trackpoint>
            <Time>2018-06-10T10:11:50.000Z</Time>
            <Position>
              <LatitudeDegrees>35.8988589607179164886474609375</LatitudeDegrees>
              <LongitudeDegrees>-5.36683939397335052490234375</LongitudeDegrees>
            </Position>
            <AltitudeMeters>278</AltitudeMeters>
            <DistanceMeters>10746.362630297</DistanceMeters>
          </Trackpoint>
          <Trackpoint>
            <Time>2018-06-10T10:11:51.000Z</Time>
            <Position>
              <LatitudeDegrees>35.89886541478335857391357421875</LatitudeDegrees>
              <LongitudeDegrees>-5.36682740785181522369384765625</LongitudeDegrees>
            </Position>
            <AltitudeMeters>277.79998779296875</AltitudeMeters>
            <DistanceMeters>10747.658621894</DistanceMeters>
          </Trackpoint>
          <Trackpoint>
            <Time>2018-06-10T10:11:53.000Z</Time>
            <Position>
              <LatitudeDegrees>35.8988794125616550445556640625</LatitudeDegrees>
              <LongitudeDegrees>-5.3668013401329517364501953125</LongitudeDegrees>
            </Position>
            <AltitudeMeters>277.600006103515625</AltitudeMeters>
            <DistanceMeters>10750.479171016</DistanceMeters>
          </Trackpoint>
          <Trackpoint>
            <Time>2018-06-10T10:12:02.000Z</Time>
            <Position>
              <LatitudeDegrees>35.89893867261707782745361328125</LatitudeDegrees>
              <LongitudeDegrees>-5.36676186136901378631591796875</LongitudeDegrees>
            </Position>
            <AltitudeMeters>276</AltitudeMeters>
            <DistanceMeters>10757.974243101</DistanceMeters>
          </Trackpoint>
          <Trackpoint>
            <Time>2018-06-10T10:12:06.000Z</Time>
            <Position>
              <LatitudeDegrees>35.898967087268829345703125</LatitudeDegrees>
              <LongitudeDegrees>-5.3667426668107509613037109375</LongitudeDegrees>
            </Position>
            <AltitudeMeters>275</AltitudeMeters>
            <DistanceMeters>10761.577748328</DistanceMeters>
          </Trackpoint>
          <Trackpoint>
            <Time>2018-06-10T10:12:08.000Z</Time>
            <Position>
              <LatitudeDegrees>35.89898762293159961700439453125</LatitudeDegrees>
              <LongitudeDegrees>-5.36673671565949916839599609375</LongitudeDegrees>
            </Position>
            <AltitudeMeters>274.399993896484375</AltitudeMeters>
            <DistanceMeters>10763.924735041</DistanceMeters>
          </Trackpoint>
          <Trackpoint>
            <Time>2018-06-10T10:12:09.000Z</Time>
            <Position>
              <LatitudeDegrees>35.89899726212024688720703125</LatitudeDegrees>
              <LongitudeDegrees>-5.36673302762210369110107421875</LongitudeDegrees>
            </Position>
            <AltitudeMeters>274</AltitudeMeters>
            <DistanceMeters>10765.049106289</DistanceMeters>
          </Trackpoint>
          <Trackpoint>
            <Time>2018-06-10T10:12:15.000Z</Time>
            <Position>
              <LatitudeDegrees>35.89904730208218097686767578125</LatitudeDegrees>
              <LongitudeDegrees>-5.3667037747800350189208984375</LongitudeDegrees>
            </Position>
            <AltitudeMeters>272.600006103515625</AltitudeMeters>
            <DistanceMeters>10771.211205886</DistanceMeters>
          </Trackpoint>
          <Trackpoint>
            <Time>2018-06-10T10:12:19.000Z</Time>
            <Position>
              <LatitudeDegrees>35.89908418245613574981689453125</LatitudeDegrees>
              <LongitudeDegrees>-5.366687513887882232666015625</LongitudeDegrees>
            </Position>
            <AltitudeMeters>271.399993896484375</AltitudeMeters>
            <DistanceMeters>10775.570022335</DistanceMeters>
          </Trackpoint>
          <Trackpoint>
            <Time>2018-06-10T10:12:22.000Z</Time>
            <Position>
              <LatitudeDegrees>35.8991141058504581451416015625</LatitudeDegrees>
              <LongitudeDegrees>-5.3666672296822071075439453125</LongitudeDegrees>
            </Position>
            <AltitudeMeters>270.399993896484375</AltitudeMeters>
            <DistanceMeters>10779.368714499</DistanceMeters>
          </Trackpoint>
          <Trackpoint>
            <Time>2018-06-10T10:12:23.000Z</Time>
            <Position>
              <LatitudeDegrees>35.89912357740104198455810546875</LatitudeDegrees>
              <LongitudeDegrees>-5.36665859632194042205810546875</LongitudeDegrees>
            </Position>
            <AltitudeMeters>270.20001220703125</AltitudeMeters>
            <DistanceMeters>10780.678567363</DistanceMeters>
          </Trackpoint>
          <Trackpoint>
            <Time>2018-06-10T10:12:27.000Z</Time>
            <Position>
              <LatitudeDegrees>35.8991499803960323333740234375</LatitudeDegrees>
              <LongitudeDegrees>-5.3666152618825435638427734375</LongitudeDegrees>
            </Position>
            <AltitudeMeters>269.399993896484375</AltitudeMeters>
            <DistanceMeters>10785.567597159</DistanceMeters>
          </Trackpoint>
          <Trackpoint>
            <Time>2018-06-10T10:12:30.000Z</Time>
            <Position>
              <LatitudeDegrees>35.89917621575295925140380859375</LatitudeDegrees>
              <LongitudeDegrees>-5.36657519638538360595703125</LongitudeDegrees>
            </Position>
            <AltitudeMeters>268.79998779296875</AltitudeMeters>
            <DistanceMeters>10790.213227655</DistanceMeters>
          </Trackpoint>
          <Trackpoint>
            <Time>2018-06-10T10:12:31.000Z</Time>
            <Position>
              <LatitudeDegrees>35.89918292127549648284912109375</LatitudeDegrees>
              <LongitudeDegrees>-5.36656086333096027374267578125</LongitudeDegrees>
            </Position>
            <AltitudeMeters>268.600006103515625</AltitudeMeters>
            <DistanceMeters>10791.703663432</DistanceMeters>
          </Trackpoint>
          <Trackpoint>
            <Time>2018-06-10T10:12:32.000Z</Time>
            <Position>
              <LatitudeDegrees>35.89918660931289196014404296875</LatitudeDegrees>
              <LongitudeDegrees>-5.36654879339039325714111328125</LongitudeDegrees>
            </Position>
            <AltitudeMeters>268.600006103515625</AltitudeMeters>
            <DistanceMeters>10792.863612305</DistanceMeters>
          </Trackpoint>
          <Trackpoint>
            <Time>2018-06-10T10:12:33.000Z</Time>
            <Position>
              <LatitudeDegrees>35.89919247664511203765869140625</LatitudeDegrees>
              <LongitudeDegrees>-5.36653856746852397918701171875</LongitudeDegrees>
            </Position>
            <AltitudeMeters>268.399993896484375</AltitudeMeters>
            <DistanceMeters>10793.995986296</DistanceMeters>
          </Trackpoint>
          <Trackpoint>
            <Time>2018-06-10T10:12:35.000Z</Time>
            <Position>
              <LatitudeDegrees>35.89921049773693084716796875</LatitudeDegrees>
              <LongitudeDegrees>-5.3665153495967388153076171875</LongitudeDegrees>
            </Position>
            <AltitudeMeters>268</AltitudeMeters>
            <DistanceMeters>10796.89702598</DistanceMeters>
          </Trackpoint>
          <Trackpoint>
            <Time>2018-06-10T10:12:36.000Z</Time>
            <Position>
              <LatitudeDegrees>35.89921477250754833221435546875</LatitudeDegrees>
              <LongitudeDegrees>-5.3665039502084255218505859375</LongitudeDegrees>
            </Position>
            <AltitudeMeters>267.79998779296875</AltitudeMeters>
            <DistanceMeters>10798.029399971</DistanceMeters>
          </Trackpoint>
          <Trackpoint>
            <Time>2018-06-10T10:12:38.000Z</Time>
            <Position>
              <LatitudeDegrees>35.89922256767749786376953125</LatitudeDegrees>
              <LongitudeDegrees>-5.36648173816502094268798828125</LongitudeDegrees>
            </Position>
            <AltitudeMeters>267.79998779296875</AltitudeMeters>
            <DistanceMeters>10800.210878892</DistanceMeters>
          </Trackpoint>
          <Trackpoint>
            <Time>2018-06-10T10:12:41.000Z</Time>
            <Position>
              <LatitudeDegrees>35.8992418460547924041748046875</LatitudeDegrees>
              <LongitudeDegrees>-5.36645323969423770904541015625</LongitudeDegrees>
            </Position>
            <AltitudeMeters>267.20001220703125</AltitudeMeters>
            <DistanceMeters>10803.557114806</DistanceMeters>
          </Trackpoint>
          <Trackpoint>
            <Time>2018-06-10T10:12:47.000Z</Time>
            <Position>
              <LatitudeDegrees>35.899284593760967254638671875</LatitudeDegrees>
              <LongitudeDegrees>-5.3663855977356433868408203125</LongitudeDegrees>
            </Position>
            <AltitudeMeters>266.20001220703125</AltitudeMeters>
            <DistanceMeters>10811.292896382</DistanceMeters>
          </Trackpoint>
          <Trackpoint>
            <Time>2018-06-10T10:12:51.000Z</Time>
            <Position>
              <LatitudeDegrees>35.89930680580437183380126953125</LatitudeDegrees>
              <LongitudeDegrees>-5.366331450641155242919921875</LongitudeDegrees>
            </Position>
            <AltitudeMeters>265.79998779296875</AltitudeMeters>
            <DistanceMeters>10816.76498314</DistanceMeters>
          </Trackpoint>
          <Trackpoint>
            <Time>2018-06-10T10:12:55.000Z</Time>
            <Position>
              <LatitudeDegrees>35.8993260003626346588134765625</LatitudeDegrees>
              <LongitudeDegrees>-5.3662803210318088531494140625</LongitudeDegrees>
            </Position>
            <AltitudeMeters>265.399993896484375</AltitudeMeters>
            <DistanceMeters>10821.845136531</DistanceMeters>
          </Trackpoint>
          <Trackpoint>
            <Time>2018-06-10T10:12:59.000Z</Time>
            <Position>
              <LatitudeDegrees>35.8993397466838359832763671875</LatitudeDegrees>
              <LongitudeDegrees>-5.3662528283894062042236328125</LongitudeDegrees>
            </Position>
            <AltitudeMeters>265.20001220703125</AltitudeMeters>
            <DistanceMeters>10824.758600425</DistanceMeters>
          </Trackpoint>
          <Trackpoint>
            <Time>2018-06-10T10:13:03.000Z</Time>
            <Position>
              <LatitudeDegrees>35.8993454463779926300048828125</LatitudeDegrees>
              <LongitudeDegrees>-5.3662486374378204345703125</LongitudeDegrees>
            </Position>
            <AltitudeMeters>265</AltitudeMeters>
            <DistanceMeters>10825.506841522</DistanceMeters>
          </Trackpoint>
          <Trackpoint>
            <Time>2018-06-10T10:13:05.000Z</Time>
            <Position>
              <LatitudeDegrees>35.89934670366346836090087890625</LatitudeDegrees>
              <LongitudeDegrees>-5.36624436266720294952392578125</LongitudeDegrees>
            </Position>
            <AltitudeMeters>265</AltitudeMeters>
            <DistanceMeters>10825.910005727</DistanceMeters>
          </Trackpoint>
          <Trackpoint>
            <Time>2018-06-10T10:13:14.000Z</Time>
            <Position>
              <LatitudeDegrees>35.8993863500654697418212890625</LatitudeDegrees>
              <LongitudeDegrees>-5.36615702323615550994873046875</LongitudeDegrees>
            </Position>
            <AltitudeMeters>264.600006103515625</AltitudeMeters>
            <DistanceMeters>10834.936043045</DistanceMeters>
          </Trackpoint>
          <Trackpoint>
            <Time>2018-06-10T10:13:19.000Z</Time>
            <Position>
              <LatitudeDegrees>35.8994208835065364837646484375</LatitudeDegrees>
              <LongitudeDegrees>-5.36609617061913013458251953125</LongitudeDegrees>
            </Position>
            <AltitudeMeters>264</AltitudeMeters>
            <DistanceMeters>10841.635257919</DistanceMeters>
          </Trackpoint>
          <Trackpoint>
            <Time>2018-06-10T10:13:20.000Z</Time>
            <Position>
              <LatitudeDegrees>35.8994302712380886077880859375</LatitudeDegrees>
              <LongitudeDegrees>-5.366085357964038848876953125</LongitudeDegrees>
            </Position>
            <AltitudeMeters>263.79998779296875</AltitudeMeters>
            <DistanceMeters>10843.06382268</DistanceMeters>
          </Trackpoint>
          <Trackpoint>
            <Time>2018-06-10T10:13:23.000Z</Time>
            <Position>
              <LatitudeDegrees>35.899443514645099639892578125</LatitudeDegrees>
              <LongitudeDegrees>-5.36606750451028347015380859375</LongitudeDegrees>
            </Position>
            <AltitudeMeters>263.399993896484375</AltitudeMeters>
            <DistanceMeters>10845.247370335</DistanceMeters>
          </Trackpoint>
          <Trackpoint>
            <Time>2018-06-10T10:13:27.000Z</Time>
            <Position>
              <LatitudeDegrees>35.899452231824398040771484375</LatitudeDegrees>
              <LongitudeDegrees>-5.3660623915493488311767578125</LongitudeDegrees>
            </Position>
            <AltitudeMeters>263.20001220703125</AltitudeMeters>
            <DistanceMeters>10846.326666338</DistanceMeters>
          </Trackpoint>
          <Trackpoint>
            <Time>2018-06-10T10:13:42.000Z</Time>
            <Position>
              <LatitudeDegrees>35.89952842332422733306884765625</LatitudeDegrees>
              <LongitudeDegrees>-5.365935154259204864501953125</LongitudeDegrees>
            </Position>
            <AltitudeMeters>261.79998779296875</AltitudeMeters>
            <DistanceMeters>10860.593021618</DistanceMeters>
          </Trackpoint>
          <Trackpoint>
            <Time>2018-06-10T10:13:49.000Z</Time>
            <Position>
              <LatitudeDegrees>35.89956144802272319793701171875</LatitudeDegrees>
              <LongitudeDegrees>-5.36584563553333282470703125</LongitudeDegrees>
            </Position>
            <AltitudeMeters>261.399993896484375</AltitudeMeters>
            <DistanceMeters>10869.461615972</DistanceMeters>
          </Trackpoint>
          <Trackpoint>
            <Time>2018-06-10T10:13:51.000Z</Time>
            <Position>
              <LatitudeDegrees>35.899563543498516082763671875</LatitudeDegrees>
              <LongitudeDegrees>-5.365817137062549591064453125</LongitudeDegrees>
            </Position>
            <AltitudeMeters>261.600006103515625</AltitudeMeters>
            <DistanceMeters>10872.04137688</DistanceMeters>
          </Trackpoint>
          <Trackpoint>
            <Time>2018-06-10T10:13:56.000Z</Time>
            <Position>
              <LatitudeDegrees>35.89955784380435943603515625</LatitudeDegrees>
              <LongitudeDegrees>-5.36573432385921478271484375</LongitudeDegrees>
            </Position>
            <AltitudeMeters>262.600006103515625</AltitudeMeters>
            <DistanceMeters>10879.534641544</DistanceMeters>
          </Trackpoint>
          <Trackpoint>
            <Time>2018-06-10T10:13:57.000Z</Time>
            <Position>
              <LatitudeDegrees>35.89955256320536136627197265625</LatitudeDegrees>
              <LongitudeDegrees>-5.36572233773767948150634765625</LongitudeDegrees>
            </Position>
            <AltitudeMeters>263</AltitudeMeters>
            <DistanceMeters>10880.762657328</DistanceMeters>
          </Trackpoint>
          <Trackpoint>
            <Time>2018-06-10T10:14:01.000Z</Time>
            <Position>
              <LatitudeDegrees>35.89951618574559688568115234375</LatitudeDegrees>
              <LongitudeDegrees>-5.3656976111233234405517578125</LongitudeDegrees>
            </Position>
            <AltitudeMeters>264.399993896484375</AltitudeMeters>
            <DistanceMeters>10885.384903629</DistanceMeters>
          </Trackpoint>
          <Trackpoint>
            <Time>2018-06-10T10:14:02.000Z</Time>
            <Position>
              <LatitudeDegrees>35.89950897730886936187744140625</LatitudeDegrees>
              <LongitudeDegrees>-5.36569400690495967864990234375</LongitudeDegrees>
            </Position>
            <AltitudeMeters>264.600006103515625</AltitudeMeters>
            <DistanceMeters>10886.250638199</DistanceMeters>
          </Trackpoint>
          <Trackpoint>
            <Time>2018-06-10T10:14:03.000Z</Time>
            <Position>
              <LatitudeDegrees>35.89950763620436191558837890625</LatitudeDegrees>
              <LongitudeDegrees>-5.36570188589394092559814453125</LongitudeDegrees>
            </Position>
            <AltitudeMeters>264.600006103515625</AltitudeMeters>
            <DistanceMeters>10886.974340094</DistanceMeters>
          </Trackpoint>
          <Trackpoint>
            <Time>2018-06-10T10:14:04.000Z</Time>
            <Position>
              <LatitudeDegrees>35.8995026908814907073974609375</LatitudeDegrees>
              <LongitudeDegrees>-5.3657046519219875335693359375</LongitudeDegrees>
            </Position>
            <AltitudeMeters>264.79998779296875</AltitudeMeters>
            <DistanceMeters>10887.575341806</DistanceMeters>
          </Trackpoint>
          <Trackpoint>
            <Time>2018-06-10T10:14:10.000Z</Time>
            <Position>
              <LatitudeDegrees>35.8994483761489391326904296875</LatitudeDegrees>
              <LongitudeDegrees>-5.36572518758475780487060546875</LongitudeDegrees>
            </Position>
            <AltitudeMeters>265.600006103515625</AltitudeMeters>
            <DistanceMeters>10893.897297069</DistanceMeters>
          </Trackpoint>
          <Trackpoint>
            <Time>2018-06-10T10:14:15.000Z</Time>
            <Position>
              <LatitudeDegrees>35.89939850382506847381591796875</LatitudeDegrees>
              <LongitudeDegrees>-5.36572686396539211273193359375</LongitudeDegrees>
            </Position>
            <AltitudeMeters>266.20001220703125</AltitudeMeters>
            <DistanceMeters>10899.449655215</DistanceMeters>
          </Trackpoint>
          <Trackpoint>
            <Time>2018-06-10T10:14:19.000Z</Time>
            <Position>
              <LatitudeDegrees>35.89936338365077972412109375</LatitudeDegrees>
              <LongitudeDegrees>-5.3657336533069610595703125</LongitudeDegrees>
            </Position>
            <AltitudeMeters>266.600006103515625</AltitudeMeters>
            <DistanceMeters>10903.404410883</DistanceMeters>
          </Trackpoint>
          <Trackpoint>
            <Time>2018-06-10T10:14:20.000Z</Time>
            <Position>
              <LatitudeDegrees>35.89935089461505413055419921875</LatitudeDegrees>
              <LongitudeDegrees>-5.36574211902916431427001953125</LongitudeDegrees>
            </Position>
            <AltitudeMeters>266.79998779296875</AltitudeMeters>
            <DistanceMeters>10904.988822841</DistanceMeters>
          </Trackpoint>
          <Trackpoint>
            <Time>2018-06-10T10:14:25.000Z</Time>
            <Position>
              <LatitudeDegrees>35.89930429123342037200927734375</LatitudeDegrees>
              <LongitudeDegrees>-5.365754775702953338623046875</LongitudeDegrees>
            </Position>
            <AltitudeMeters>267.399993896484375</AltitudeMeters>
            <DistanceMeters>10910.299277505</DistanceMeters>
          </Trackpoint>
          <Trackpoint>
            <Time>2018-06-10T10:14:28.000Z</Time>
            <Position>
              <LatitudeDegrees>35.89929389767348766326904296875</LatitudeDegrees>
              <LongitudeDegrees>-5.365760140120983123779296875</LongitudeDegrees>
            </Position>
            <AltitudeMeters>267.600006103515625</AltitudeMeters>
            <DistanceMeters>10911.552765957</DistanceMeters>
          </Trackpoint>
          <Trackpoint>
            <Time>2018-06-10T10:14:33.000Z</Time>
            <Position>
              <LatitudeDegrees>35.89929255656898021697998046875</LatitudeDegrees>
              <LongitudeDegrees>-5.365755446255207061767578125</LongitudeDegrees>
            </Position>
            <AltitudeMeters>267.600006103515625</AltitudeMeters>
            <DistanceMeters>10912.00849807</DistanceMeters>
          </Trackpoint>
          <Trackpoint>
            <Time>2018-06-10T10:14:37.000Z</Time>
            <Position>
              <LatitudeDegrees>35.8992948196828365325927734375</LatitudeDegrees>
              <LongitudeDegrees>-5.36575117148458957672119140625</LongitudeDegrees>
            </Position>
            <AltitudeMeters>267.399993896484375</AltitudeMeters>
            <DistanceMeters>10912.464230182</DistanceMeters>
          </Trackpoint>
          <Trackpoint>
            <Time>2018-06-10T10:14:38.000Z</Time>
            <Position>
              <LatitudeDegrees>35.89929490350186824798583984375</LatitudeDegrees>
              <LongitudeDegrees>-5.36575100384652614593505859375</LongitudeDegrees>
            </Position>
            <AltitudeMeters>267.399993896484375</AltitudeMeters>
            <DistanceMeters>10912.464230182</DistanceMeters>
          </Trackpoint>
          <Trackpoint>
            <Time>2018-06-10T10:14:40.000Z</Time>
            <Position>
              <LatitudeDegrees>35.8992948196828365325927734375</LatitudeDegrees>
              <LongitudeDegrees>-5.36575083620846271514892578125</LongitudeDegrees>
            </Position>
            <AltitudeMeters>267.399993896484375</AltitudeMeters>
            <DistanceMeters>10912.464230182</DistanceMeters>
          </Trackpoint>
          <Trackpoint>
            <Time>2018-06-10T10:15:01.000Z</Time>
            <Position>
              <LatitudeDegrees>35.89916364289820194244384765625</LatitudeDegrees>
              <LongitudeDegrees>-5.36579861305654048919677734375</LongitudeDegrees>
            </Position>
            <AltitudeMeters>269.399993896484375</AltitudeMeters>
            <DistanceMeters>10927.686904773</DistanceMeters>
          </Trackpoint>
          <Trackpoint>
            <Time>2018-06-10T10:15:04.000Z</Time>
            <Position>
              <LatitudeDegrees>35.89912910945713520050048828125</LatitudeDegrees>
              <LongitudeDegrees>-5.36581789143383502960205078125</LongitudeDegrees>
            </Position>
            <AltitudeMeters>270.20001220703125</AltitudeMeters>
            <DistanceMeters>10931.906775713</DistanceMeters>
          </Trackpoint>
          <Trackpoint>
            <Time>2018-06-10T10:15:09.000Z</Time>
            <Position>
              <LatitudeDegrees>35.89906565845012664794921875</LatitudeDegrees>
              <LongitudeDegrees>-5.3658494912087917327880859375</LongitudeDegrees>
            </Position>
            <AltitudeMeters>271.20001220703125</AltitudeMeters>
            <DistanceMeters>10939.521967826</DistanceMeters>
          </Trackpoint>
          <Trackpoint>
            <Time>2018-06-10T10:15:24.000Z</Time>
            <Position>
              <LatitudeDegrees>35.89888704009354114532470703125</LatitudeDegrees>
              <LongitudeDegrees>-5.36590992473065853118896484375</LongitudeDegrees>
            </Position>
            <AltitudeMeters>273.79998779296875</AltitudeMeters>
            <DistanceMeters>10960.135538045</DistanceMeters>
          </Trackpoint>
          <Trackpoint>
            <Time>2018-06-10T10:15:27.000Z</Time>
            <Position>
              <LatitudeDegrees>35.8988525904715061187744140625</LatitudeDegrees>
              <LongitudeDegrees>-5.36592115648090839385986328125</LongitudeDegrees>
            </Position>
            <AltitudeMeters>274.20001220703125</AltitudeMeters>
            <DistanceMeters>10964.101694013</DistanceMeters>
          </Trackpoint>
          <Trackpoint>
            <Time>2018-06-10T10:15:28.000Z</Time>
            <Position>
              <LatitudeDegrees>35.89884261600673198699951171875</LatitudeDegrees>
              <LongitudeDegrees>-5.36592476069927215576171875</LongitudeDegrees>
            </Position>
            <AltitudeMeters>274.20001220703125</AltitudeMeters>
            <DistanceMeters>10965.257743888</DistanceMeters>
          </Trackpoint>
          <Trackpoint>
            <Time>2018-06-10T10:15:42.000Z</Time>
            <Position>
              <LatitudeDegrees>35.89866106398403644561767578125</LatitudeDegrees>
              <LongitudeDegrees>-5.36599994637072086334228515625</LongitudeDegrees>
            </Position>
            <AltitudeMeters>276.399993896484375</AltitudeMeters>
            <DistanceMeters>10986.571496623</DistanceMeters>
          </Trackpoint>
          <Trackpoint>
            <Time>2018-06-10T10:15:48.000Z</Time>
            <Position>
              <LatitudeDegrees>35.898597948253154754638671875</LatitudeDegrees>
              <LongitudeDegrees>-5.3660506568849086761474609375</LongitudeDegrees>
            </Position>
            <AltitudeMeters>277.399993896484375</AltitudeMeters>
            <DistanceMeters>10994.953262233</DistanceMeters>
          </Trackpoint>
          <Trackpoint>
            <Time>2018-06-10T10:15:53.000Z</Time>
            <Position>
              <LatitudeDegrees>35.89854321442544460296630859375</LatitudeDegrees>
              <LongitudeDegrees>-5.36608166992664337158203125</LongitudeDegrees>
            </Position>
            <AltitudeMeters>278.20001220703125</AltitudeMeters>
            <DistanceMeters>11001.656519679</DistanceMeters>
          </Trackpoint>
          <Trackpoint>
            <Time>2018-06-10T10:16:03.000Z</Time>
            <Position>
              <LatitudeDegrees>35.8984328247606754302978515625</LatitudeDegrees>
              <LongitudeDegrees>-5.36615450866520404815673828125</LongitudeDegrees>
            </Position>
            <AltitudeMeters>279.79998779296875</AltitudeMeters>
            <DistanceMeters>11015.588226792</DistanceMeters>
          </Trackpoint>
          <Trackpoint>
            <Time>2018-06-10T10:16:04.000Z</Time>
            <Position>
              <LatitudeDegrees>35.89842402376234531402587890625</LatitudeDegrees>
              <LongitudeDegrees>-5.3661633096635341644287109375</LongitudeDegrees>
            </Position>
            <AltitudeMeters>280</AltitudeMeters>
            <DistanceMeters>11016.848898618</DistanceMeters>
          </Trackpoint>
          <Trackpoint>
            <Time>2018-06-10T10:16:05.000Z</Time>
            <Position>
              <LatitudeDegrees>35.89841396547853946685791015625</LatitudeDegrees>
              <LongitudeDegrees>-5.36617328412830829620361328125</LongitudeDegrees>
            </Position>
            <AltitudeMeters>280.20001220703125</AltitudeMeters>
            <DistanceMeters>11018.283770539</DistanceMeters>
          </Trackpoint>
          <Trackpoint>
            <Time>2018-06-10T10:16:06.000Z</Time>
            <Position>
              <LatitudeDegrees>35.89840172789990901947021484375</LatitudeDegrees>
              <LongitudeDegrees>-5.366181246936321258544921875</LongitudeDegrees>
            </Position>
            <AltitudeMeters>280.399993896484375</AltitudeMeters>
            <DistanceMeters>11019.827771893</DistanceMeters>
          </Trackpoint>
          <Trackpoint>
            <Time>2018-06-10T10:16:07.000Z</Time>
            <Position>
              <LatitudeDegrees>35.8983905799686908721923828125</LatitudeDegrees>
              <LongitudeDegrees>-5.36618401296436786651611328125</LongitudeDegrees>
            </Position>
            <AltitudeMeters>280.399993896484375</AltitudeMeters>
            <DistanceMeters>11021.095586394</DistanceMeters>
          </Trackpoint>
          <Trackpoint>
            <Time>2018-06-10T10:16:09.000Z</Time>
            <Position>
              <LatitudeDegrees>35.89837121777236461639404296875</LatitudeDegrees>
              <LongitudeDegrees>-5.3661954961717128753662109375</LongitudeDegrees>
            </Position>
            <AltitudeMeters>280.79998779296875</AltitudeMeters>
            <DistanceMeters>11023.488297924</DistanceMeters>
          </Trackpoint>
          <Trackpoint>
            <Time>2018-06-10T10:16:15.000Z</Time>
            <Position>
              <LatitudeDegrees>35.89829427190124988555908203125</LatitudeDegrees>
              <LongitudeDegrees>-5.36623631604015827178955078125</LongitudeDegrees>
            </Position>
            <AltitudeMeters>281.79998779296875</AltitudeMeters>
            <DistanceMeters>11032.80963879</DistanceMeters>
          </Trackpoint>
          <Trackpoint>
            <Time>2018-06-10T10:16:27.000Z</Time>
            <Position>
              <LatitudeDegrees>35.8981686271727085113525390625</LatitudeDegrees>
              <LongitudeDegrees>-5.36632667295634746551513671875</LongitudeDegrees>
            </Position>
            <AltitudeMeters>283.79998779296875</AltitudeMeters>
            <DistanceMeters>11048.993779092</DistanceMeters>
          </Trackpoint>
          <Trackpoint>
            <Time>2018-06-10T10:16:32.000Z</Time>
            <Position>
              <LatitudeDegrees>35.8981116302311420440673828125</LatitudeDegrees>
              <LongitudeDegrees>-5.36636807955801486968994140625</LongitudeDegrees>
            </Position>
            <AltitudeMeters>284.79998779296875</AltitudeMeters>
            <DistanceMeters>11056.354516736</DistanceMeters>
          </Trackpoint>
          <Trackpoint>
            <Time>2018-06-10T10:16:37.000Z</Time>
            <Position>
              <LatitudeDegrees>35.8980556391179561614990234375</LatitudeDegrees>
              <LongitudeDegrees>-5.36641518585383892059326171875</LongitudeDegrees>
            </Position>
            <AltitudeMeters>285.79998779296875</AltitudeMeters>
            <DistanceMeters>11063.895831041</DistanceMeters>
          </Trackpoint>
          <Trackpoint>
            <Time>2018-06-10T10:16:47.000Z</Time>
            <Position>
              <LatitudeDegrees>35.8979449979960918426513671875</LatitudeDegrees>
              <LongitudeDegrees>-5.36649900488555431365966796875</LongitudeDegrees>
            </Position>
            <AltitudeMeters>286.600006103515625</AltitudeMeters>
            <DistanceMeters>11078.344267193</DistanceMeters>
          </Trackpoint>
          <Trackpoint>
            <Time>2018-06-10T10:16:56.000Z</Time>
            <Position>
              <LatitudeDegrees>35.8978514559566974639892578125</LatitudeDegrees>
              <LongitudeDegrees>-5.36654996685683727264404296875</LongitudeDegrees>
            </Position>
            <AltitudeMeters>287</AltitudeMeters>
            <DistanceMeters>11089.724881695</DistanceMeters>
          </Trackpoint>
          <Trackpoint>
            <Time>2018-06-10T10:17:08.000Z</Time>
            <Position>
              <LatitudeDegrees>35.89771474711596965789794921875</LatitudeDegrees>
              <LongitudeDegrees>-5.36660478450357913970947265625</LongitudeDegrees>
            </Position>
            <AltitudeMeters>287</AltitudeMeters>
            <DistanceMeters>11105.72355404</DistanceMeters>
          </Trackpoint>
          <Trackpoint>
            <Time>2018-06-10T10:17:18.000Z</Time>
            <Position>
              <LatitudeDegrees>35.89758616872131824493408203125</LatitudeDegrees>
              <LongitudeDegrees>-5.36662054248154163360595703125</LongitudeDegrees>
            </Position>
            <AltitudeMeters>286</AltitudeMeters>
            <DistanceMeters>11120.105589049</DistanceMeters>
          </Trackpoint>
          <Trackpoint>
            <Time>2018-06-10T10:17:29.000Z</Time>
            <Position>
              <LatitudeDegrees>35.89744468219578266143798828125</LatitudeDegrees>
              <LongitudeDegrees>-5.36657896824181079864501953125</LongitudeDegrees>
            </Position>
            <AltitudeMeters>283.79998779296875</AltitudeMeters>
            <DistanceMeters>11136.293355675</DistanceMeters>
          </Trackpoint>
          <Trackpoint>
            <Time>2018-06-10T10:17:37.000Z</Time>
            <Position>
              <LatitudeDegrees>35.89734812267124652862548828125</LatitudeDegrees>
              <LongitudeDegrees>-5.366539321839809417724609375</LongitudeDegrees>
            </Position>
            <AltitudeMeters>282</AltitudeMeters>
            <DistanceMeters>11147.61948767</DistanceMeters>
          </Trackpoint>
          <Trackpoint>
            <Time>2018-06-10T10:17:50.000Z</Time>
            <Position>
              <LatitudeDegrees>35.89718752540647983551025390625</LatitudeDegrees>
              <LongitudeDegrees>-5.36643438041210174560546875</LongitudeDegrees>
            </Position>
            <AltitudeMeters>278.600006103515625</AltitudeMeters>
            <DistanceMeters>11167.8441106</DistanceMeters>
          </Trackpoint>
          <Trackpoint>
            <Time>2018-06-10T10:17:55.000Z</Time>
            <Position>
              <LatitudeDegrees>35.8971311151981353759765625</LatitudeDegrees>
              <LongitudeDegrees>-5.3663921356201171875</LongitudeDegrees>
            </Position>
            <AltitudeMeters>277.600006103515625</AltitudeMeters>
            <DistanceMeters>11175.187653105</DistanceMeters>
          </Trackpoint>
          <Trackpoint>
            <Time>2018-06-10T10:18:03.000Z</Time>
            <Position>
              <LatitudeDegrees>35.8970534987747669219970703125</LatitudeDegrees>
              <LongitudeDegrees>-5.366315357387065887451171875</LongitudeDegrees>
            </Position>
            <AltitudeMeters>276.399993896484375</AltitudeMeters>
            <DistanceMeters>11186.258163369</DistanceMeters>
          </Trackpoint>
          <Trackpoint>
            <Time>2018-06-10T10:18:08.000Z</Time>
            <Position>
              <LatitudeDegrees>35.89704603888094425201416015625</LatitudeDegrees>
              <LongitudeDegrees>-5.3663175366818904876708984375</LongitudeDegrees>
            </Position>
            <AltitudeMeters>276.399993896484375</AltitudeMeters>
            <DistanceMeters>11187.108108141</DistanceMeters>
          </Trackpoint>
          <Trackpoint>
            <Time>2018-06-10T10:18:55.000Z</Time>
            <Position>
              <LatitudeDegrees>35.897039584815502166748046875</LatitudeDegrees>
              <LongitudeDegrees>-5.36634528078138828277587890625</LongitudeDegrees>
            </Position>
            <AltitudeMeters>276.79998779296875</AltitudeMeters>
            <DistanceMeters>11189.710521892</DistanceMeters>
          </Trackpoint>
          <Trackpoint>
            <Time>2018-06-10T10:19:47.000Z</Time>
            <Position>
              <LatitudeDegrees>35.89706263504922389984130859375</LatitudeDegrees>
              <LongitudeDegrees>-5.36634276621043682098388671875</LongitudeDegrees>
            </Position>
            <AltitudeMeters>276.79998779296875</AltitudeMeters>
            <DistanceMeters>11192.286780068</DistanceMeters>
          </Trackpoint>
          <Trackpoint>
            <Time>2018-06-10T10:19:49.000Z</Time>
            <Position>
              <LatitudeDegrees>35.89706196449697017669677734375</LatitudeDegrees>
              <LongitudeDegrees>-5.36634243093430995941162109375</LongitudeDegrees>
            </Position>
            <AltitudeMeters>276.79998779296875</AltitudeMeters>
            <DistanceMeters>11192.421168136</DistanceMeters>
          </Trackpoint>
          <Trackpoint>
            <Time>2018-06-10T10:19:55.000Z</Time>
            <Position>
              <LatitudeDegrees>35.897055007517337799072265625</LatitudeDegrees>
              <LongitudeDegrees>-5.3663269244134426116943359375</LongitudeDegrees>
            </Position>
            <AltitudeMeters>276.600006103515625</AltitudeMeters>
            <DistanceMeters>11194.019764906</DistanceMeters>
          </Trackpoint>
          <Trackpoint>
            <Time>2018-06-10T10:19:57.000Z</Time>
            <Position>
              <LatitudeDegrees>35.89706028811633586883544921875</LatitudeDegrees>
              <LongitudeDegrees>-5.36632885225117206573486328125</LongitudeDegrees>
            </Position>
            <AltitudeMeters>276.600006103515625</AltitudeMeters>
            <DistanceMeters>11194.628232764</DistanceMeters>
          </Trackpoint>
          <Trackpoint>
            <Time>2018-06-10T10:20:00.000Z</Time>
            <Position>
              <LatitudeDegrees>35.89706070721149444580078125</LatitudeDegrees>
              <LongitudeDegrees>-5.3663316182792186737060546875</LongitudeDegrees>
            </Position>
            <AltitudeMeters>276.600006103515625</AltitudeMeters>
            <DistanceMeters>11194.897008901</DistanceMeters>
          </Trackpoint>
          <Trackpoint>
            <Time>2018-06-10T10:20:47.000Z</Time>
            <Position>
              <LatitudeDegrees>35.89703413657844066619873046875</LatitudeDegrees>
              <LongitudeDegrees>-5.36633019335567951202392578125</LongitudeDegrees>
            </Position>
            <AltitudeMeters>276.600006103515625</AltitudeMeters>
            <DistanceMeters>11197.856599101</DistanceMeters>
          </Trackpoint>
          <Trackpoint>
            <Time>2018-06-10T10:20:51.000Z</Time>
            <Position>
              <LatitudeDegrees>35.8970296941697597503662109375</LatitudeDegrees>
              <LongitudeDegrees>-5.366332121193408966064453125</LongitudeDegrees>
            </Position>
            <AltitudeMeters>276.600006103515625</AltitudeMeters>
            <DistanceMeters>11198.377081851</DistanceMeters>
          </Trackpoint>
          <Trackpoint>
            <Time>2018-06-10T10:20:56.000Z</Time>
            <Position>
              <LatitudeDegrees>35.89702659286558628082275390625</LatitudeDegrees>
              <LongitudeDegrees>-5.3663339652121067047119140625</LongitudeDegrees>
            </Position>
            <AltitudeMeters>276.600006103515625</AltitudeMeters>
            <DistanceMeters>11198.768887031</DistanceMeters>
          </Trackpoint>
          <Trackpoint>
            <Time>2018-06-10T10:21:08.000Z</Time>
            <Position>
              <LatitudeDegrees>35.89702709577977657318115234375</LatitudeDegrees>
              <LongitudeDegrees>-5.3663369826972484588623046875</LongitudeDegrees>
            </Position>
            <AltitudeMeters>276.79998779296875</AltitudeMeters>
            <DistanceMeters>11199.053967175</DistanceMeters>
          </Trackpoint>
          <Trackpoint>
            <Time>2018-06-10T10:21:13.000Z</Time>
            <Position>
              <LatitudeDegrees>35.89702206663787364959716796875</LatitudeDegrees>
              <LongitudeDegrees>-5.36632566712796688079833984375</LongitudeDegrees>
            </Position>
            <AltitudeMeters>276.600006103515625</AltitudeMeters>
            <DistanceMeters>11200.22167499</DistanceMeters>
          </Trackpoint>
          <Trackpoint>
            <Time>2018-06-10T10:21:14.000Z</Time>
            <Position>
              <LatitudeDegrees>35.897020138800144195556640625</LatitudeDegrees>
              <LongitudeDegrees>-5.3663239069283008575439453125</LongitudeDegrees>
            </Position>
            <AltitudeMeters>276.600006103515625</AltitudeMeters>
            <DistanceMeters>11200.490451127</DistanceMeters>
          </Trackpoint>
          <Trackpoint>
            <Time>2018-06-10T10:21:43.000Z</Time>
            <Position>
              <LatitudeDegrees>35.89700639247894287109375</LatitudeDegrees>
              <LongitudeDegrees>-5.3663245774805545806884765625</LongitudeDegrees>
            </Position>
            <AltitudeMeters>276.600006103515625</AltitudeMeters>
            <DistanceMeters>11202.022710855</DistanceMeters>
          </Trackpoint>
          <Trackpoint>
            <Time>2018-06-10T10:21:44.000Z</Time>
            <Position>
              <LatitudeDegrees>35.8970075659453868865966796875</LatitudeDegrees>
              <LongitudeDegrees>-5.366325415670871734619140625</LongitudeDegrees>
            </Position>
            <AltitudeMeters>276.600006103515625</AltitudeMeters>
            <DistanceMeters>11202.212764284</DistanceMeters>
          </Trackpoint>
          <Trackpoint>
            <Time>2018-06-10T10:21:45.000Z</Time>
            <Position>
              <LatitudeDegrees>35.89701016433537006378173828125</LatitudeDegrees>
              <LongitudeDegrees>-5.36632851697504520416259765625</LongitudeDegrees>
            </Position>
            <AltitudeMeters>276.600006103515625</AltitudeMeters>
            <DistanceMeters>11202.615928489</DistanceMeters>
          </Trackpoint>
          <Trackpoint>
            <Time>2018-06-10T10:22:26.000Z</Time>
            <Position>
              <LatitudeDegrees>35.897008068859577178955078125</LatitudeDegrees>
              <LongitudeDegrees>-5.36634050309658050537109375</LongitudeDegrees>
            </Position>
            <AltitudeMeters>276.79998779296875</AltitudeMeters>
            <DistanceMeters>11203.715942236</DistanceMeters>
          </Trackpoint>
          <Trackpoint>
            <Time>2018-06-10T10:22:34.000Z</Time>
            <Position>
              <LatitudeDegrees>35.89696037583053112030029296875</LatitudeDegrees>
              <LongitudeDegrees>-5.3663386590778827667236328125</LongitudeDegrees>
            </Position>
            <AltitudeMeters>276.79998779296875</AltitudeMeters>
            <DistanceMeters>11209.027247048</DistanceMeters>
          </Trackpoint>
          <Trackpoint>
            <Time>2018-06-10T10:22:47.000Z</Time>
            <Position>
              <LatitudeDegrees>35.896782092750072479248046875</LatitudeDegrees>
              <LongitudeDegrees>-5.3663286007940769195556640625</LongitudeDegrees>
            </Position>
            <AltitudeMeters>276.79998779296875</AltitudeMeters>
            <DistanceMeters>11228.891240108</DistanceMeters>
          </Trackpoint>
          <Trackpoint>
            <Time>2018-06-10T10:22:49.000Z</Time>
            <Position>
              <LatitudeDegrees>35.8967581205070018768310546875</LatitudeDegrees>
              <LongitudeDegrees>-5.36632650531828403472900390625</LongitudeDegrees>
            </Position>
            <AltitudeMeters>276.79998779296875</AltitudeMeters>
            <DistanceMeters>11231.5655289</DistanceMeters>
          </Trackpoint>
          <Trackpoint>
            <Time>2018-06-10T10:22:53.000Z</Time>
            <Position>
              <LatitudeDegrees>35.896706320345401763916015625</LatitudeDegrees>
              <LongitudeDegrees>-5.36633170209825038909912109375</LongitudeDegrees>
            </Position>
            <AltitudeMeters>277</AltitudeMeters>
            <DistanceMeters>11237.348901891</DistanceMeters>
          </Trackpoint>
          <Trackpoint>
            <Time>2018-06-10T10:22:58.000Z</Time>
            <Position>
              <LatitudeDegrees>35.8966483175754547119140625</LatitudeDegrees>
              <LongitudeDegrees>-5.366348214447498321533203125</LongitudeDegrees>
            </Position>
            <AltitudeMeters>277.399993896484375</AltitudeMeters>
            <DistanceMeters>11243.973565771</DistanceMeters>
          </Trackpoint>
          <Trackpoint>
            <Time>2018-06-10T10:23:03.000Z</Time>
            <Position>
              <LatitudeDegrees>35.89659266173839569091796875</LatitudeDegrees>
              <LongitudeDegrees>-5.36637528799474239349365234375</LongitudeDegrees>
            </Position>
            <AltitudeMeters>278</AltitudeMeters>
            <DistanceMeters>11250.632219939</DistanceMeters>
          </Trackpoint>
          <Trackpoint>
            <Time>2018-06-10T10:23:20.000Z</Time>
            <Position>
              <LatitudeDegrees>35.89643667452037334442138671875</LatitudeDegrees>
              <LongitudeDegrees>-5.3664905391633510589599609375</LongitudeDegrees>
            </Position>
            <AltitudeMeters>280.399993896484375</AltitudeMeters>
            <DistanceMeters>11270.866216972</DistanceMeters>
          </Trackpoint>
          <Trackpoint>
            <Time>2018-06-10T10:23:28.000Z</Time>
            <Position>
              <LatitudeDegrees>35.8963484130799770355224609375</LatitudeDegrees>
              <LongitudeDegrees>-5.366553403437137603759765625</LongitudeDegrees>
            </Position>
            <AltitudeMeters>281.79998779296875</AltitudeMeters>
            <DistanceMeters>11282.207885233</DistanceMeters>
          </Trackpoint>
          <Trackpoint>
            <Time>2018-06-10T10:23:30.000Z</Time>
            <Position>
              <LatitudeDegrees>35.8963266201317310333251953125</LatitudeDegrees>
              <LongitudeDegrees>-5.36656522192060947418212890625</LongitudeDegrees>
            </Position>
            <AltitudeMeters>282</AltitudeMeters>
            <DistanceMeters>11284.858432247</DistanceMeters>
          </Trackpoint>
          <Trackpoint>
            <Time>2018-06-10T10:23:34.000Z</Time>
            <Position>
              <LatitudeDegrees>35.896287225186824798583984375</LatitudeDegrees>
              <LongitudeDegrees>-5.36659120582044124603271484375</LongitudeDegrees>
            </Position>
            <AltitudeMeters>282.600006103515625</AltitudeMeters>
            <DistanceMeters>11289.828974385</DistanceMeters>
          </Trackpoint>
          <Trackpoint>
            <Time>2018-06-10T10:23:38.000Z</Time>
            <Position>
              <LatitudeDegrees>35.89625512249767780303955078125</LatitudeDegrees>
              <LongitudeDegrees>-5.36662481725215911865234375</LongitudeDegrees>
            </Position>
            <AltitudeMeters>283.20001220703125</AltitudeMeters>
            <DistanceMeters>11294.513319137</DistanceMeters>
          </Trackpoint>
          <Trackpoint>
            <Time>2018-06-10T10:23:40.000Z</Time>
            <Position>
              <LatitudeDegrees>35.89623601175844669342041015625</LatitudeDegrees>
              <LongitudeDegrees>-5.3666410781443119049072265625</LongitudeDegrees>
            </Position>
            <AltitudeMeters>283.600006103515625</AltitudeMeters>
            <DistanceMeters>11297.094829629</DistanceMeters>
          </Trackpoint>
          <Trackpoint>
            <Time>2018-06-10T10:23:42.000Z</Time>
            <Position>
              <LatitudeDegrees>35.896211452782154083251953125</LatitudeDegrees>
              <LongitudeDegrees>-5.366658680140972137451171875</LongitudeDegrees>
            </Position>
            <AltitudeMeters>284</AltitudeMeters>
            <DistanceMeters>11300.255092995</DistanceMeters>
          </Trackpoint>
          <Trackpoint>
            <Time>2018-06-10T10:23:44.000Z</Time>
            <Position>
              <LatitudeDegrees>35.89618789963424205780029296875</LatitudeDegrees>
              <LongitudeDegrees>-5.36667066626250743865966796875</LongitudeDegrees>
            </Position>
            <AltitudeMeters>284.20001220703125</AltitudeMeters>
            <DistanceMeters>11303.090012401</DistanceMeters>
          </Trackpoint>
          <Trackpoint>
            <Time>2018-06-10T10:23:48.000Z</Time>
            <Position>
              <LatitudeDegrees>35.89613861404359340667724609375</LatitudeDegrees>
              <LongitudeDegrees>-5.36669111810624599456787109375</LongitudeDegrees>
            </Position>
            <AltitudeMeters>284.600006103515625</AltitudeMeters>
            <DistanceMeters>11308.878067653</DistanceMeters>
          </Trackpoint>
          <Trackpoint>
            <Time>2018-06-10T10:23:52.000Z</Time>
            <Position>
              <LatitudeDegrees>35.89608966372907161712646484375</LatitudeDegrees>
              <LongitudeDegrees>-5.3667225502431392669677734375</LongitudeDegrees>
            </Position>
            <AltitudeMeters>285.20001220703125</AltitudeMeters>
            <DistanceMeters>11315.018881869</DistanceMeters>
          </Trackpoint>
          <Trackpoint>
            <Time>2018-06-10T10:23:53.000Z</Time>
            <Position>
              <LatitudeDegrees>35.8960798569023609161376953125</LatitudeDegrees>
              <LongitudeDegrees>-5.36672917194664478302001953125</LongitudeDegrees>
            </Position>
            <AltitudeMeters>285.399993896484375</AltitudeMeters>
            <DistanceMeters>11316.257878639</DistanceMeters>
          </Trackpoint>
          <Trackpoint>
            <Time>2018-06-10T10:23:55.000Z</Time>
            <Position>
              <LatitudeDegrees>35.89605982415378093719482421875</LatitudeDegrees>
              <LongitudeDegrees>-5.3667419962584972381591796875</LongitudeDegrees>
            </Position>
            <AltitudeMeters>285.600006103515625</AltitudeMeters>
            <DistanceMeters>11318.770252702</DistanceMeters>
          </Trackpoint>
          <Trackpoint>
            <Time>2018-06-10T10:23:56.000Z</Time>
            <Position>
              <LatitudeDegrees>35.89604808948934078216552734375</LatitudeDegrees>
              <LongitudeDegrees>-5.366748534142971038818359375</LongitudeDegrees>
            </Position>
            <AltitudeMeters>285.79998779296875</AltitudeMeters>
            <DistanceMeters>11320.205124623</DistanceMeters>
          </Trackpoint>
          <Trackpoint>
            <Time>2018-06-10T10:24:05.000Z</Time>
            <Position>
              <LatitudeDegrees>35.89594951830804347991943359375</LatitudeDegrees>
              <LongitudeDegrees>-5.36682321690022945404052734375</LongitudeDegrees>
            </Position>
            <AltitudeMeters>287.399993896484375</AltitudeMeters>
            <DistanceMeters>11333.078351215</DistanceMeters>
          </Trackpoint>
          <Trackpoint>
            <Time>2018-06-10T10:24:08.000Z</Time>
            <Position>
              <LatitudeDegrees>35.895915068686008453369140625</LatitudeDegrees>
              <LongitudeDegrees>-5.3668467700481414794921875</LongitudeDegrees>
            </Position>
            <AltitudeMeters>287.79998779296875</AltitudeMeters>
            <DistanceMeters>11337.460927238</DistanceMeters>
          </Trackpoint>
          <Trackpoint>
            <Time>2018-06-10T10:24:15.000Z</Time>
            <Position>
              <LatitudeDegrees>35.89583921246230602264404296875</LatitudeDegrees>
              <LongitudeDegrees>-5.36689396016299724578857421875</LongitudeDegrees>
            </Position>
            <AltitudeMeters>288.79998779296875</AltitudeMeters>
            <DistanceMeters>11346.915488398</DistanceMeters>
          </Trackpoint>
          <Trackpoint>
            <Time>2018-06-10T10:24:21.000Z</Time>
            <Position>
              <LatitudeDegrees>35.895779617130756378173828125</LatitudeDegrees>
              <LongitudeDegrees>-5.366927571594715118408203125</LongitudeDegrees>
            </Position>
            <AltitudeMeters>289.600006103515625</AltitudeMeters>
            <DistanceMeters>11354.20782137</DistanceMeters>
          </Trackpoint>
          <Trackpoint>
            <Time>2018-06-10T10:24:28.000Z</Time>
            <Position>
              <LatitudeDegrees>35.89570619165897369384765625</LatitudeDegrees>
              <LongitudeDegrees>-5.3669750131666660308837890625</LongitudeDegrees>
            </Position>
            <AltitudeMeters>290.399993896484375</AltitudeMeters>
            <DistanceMeters>11363.432267713</DistanceMeters>
          </Trackpoint>
          <Trackpoint>
            <Time>2018-06-10T10:24:35.000Z</Time>
            <Position>
              <LatitudeDegrees>35.8956198580563068389892578125</LatitudeDegrees>
              <LongitudeDegrees>-5.367012731730937957763671875</LongitudeDegrees>
            </Position>
            <AltitudeMeters>291.20001220703125</AltitudeMeters>
            <DistanceMeters>11373.625848518</DistanceMeters>
          </Trackpoint>
          <Trackpoint>
            <Time>2018-06-10T10:24:44.000Z</Time>
            <Position>
              <LatitudeDegrees>35.89550276286900043487548828125</LatitudeDegrees>
              <LongitudeDegrees>-5.36704265512526035308837890625</LongitudeDegrees>
            </Position>
            <AltitudeMeters>291.600006103515625</AltitudeMeters>
            <DistanceMeters>11386.93501752</DistanceMeters>
          </Trackpoint>
          <Trackpoint>
            <Time>2018-06-10T10:24:54.000Z</Time>
            <Position>
              <LatitudeDegrees>35.89538390748202800750732421875</LatitudeDegrees>
              <LongitudeDegrees>-5.3670531325042247772216796875</LongitudeDegrees>
            </Position>
            <AltitudeMeters>291.399993896484375</AltitudeMeters>
            <DistanceMeters>11400.197288403</DistanceMeters>
          </Trackpoint>
          <Trackpoint>
            <Time>2018-06-10T10:24:59.000Z</Time>
            <Position>
              <LatitudeDegrees>35.8953380584716796875</LatitudeDegrees>
              <LongitudeDegrees>-5.3670578263700008392333984375</LongitudeDegrees>
            </Position>
            <AltitudeMeters>291.399993896484375</AltitudeMeters>
            <DistanceMeters>11405.31816157</DistanceMeters>
          </Trackpoint>
          <Trackpoint>
            <Time>2018-06-10T10:25:01.000Z</Time>
            <Position>
              <LatitudeDegrees>35.8953157626092433929443359375</LatitudeDegrees>
              <LongitudeDegrees>-5.36705589853227138519287109375</LongitudeDegrees>
            </Position>
            <AltitudeMeters>291.399993896484375</AltitudeMeters>
            <DistanceMeters>11407.805248695</DistanceMeters>
          </Trackpoint>
          <Trackpoint>
            <Time>2018-06-10T10:25:02.000Z</Time>
            <Position>
              <LatitudeDegrees>35.8953043632209300994873046875</LatitudeDegrees>
              <LongitudeDegrees>-5.367054305970668792724609375</LongitudeDegrees>
            </Position>
            <AltitudeMeters>291.399993896484375</AltitudeMeters>
            <DistanceMeters>11409.080165853</DistanceMeters>
          </Trackpoint>
          <Trackpoint>
            <Time>2018-06-10T10:25:06.000Z</Time>
            <Position>
              <LatitudeDegrees>35.8952480368316173553466796875</LatitudeDegrees>
              <LongitudeDegrees>-5.3670615144073963165283203125</LongitudeDegrees>
            </Position>
            <AltitudeMeters>291.399993896484375</AltitudeMeters>
            <DistanceMeters>11415.382092241</DistanceMeters>
          </Trackpoint>
          <Trackpoint>
            <Time>2018-06-10T10:25:09.000Z</Time>
            <Position>
              <LatitudeDegrees>35.8952161855995655059814453125</LatitudeDegrees>
              <LongitudeDegrees>-5.3670752607285976409912109375</LongitudeDegrees>
            </Position>
            <AltitudeMeters>291.600006103515625</AltitudeMeters>
            <DistanceMeters>11419.137751891</DistanceMeters>
          </Trackpoint>
          <Trackpoint>
            <Time>2018-06-10T10:25:12.000Z</Time>
            <Position>
              <LatitudeDegrees>35.8951776288449764251708984375</LatitudeDegrees>
              <LongitudeDegrees>-5.367090515792369842529296875</LongitudeDegrees>
            </Position>
            <AltitudeMeters>291.79998779296875</AltitudeMeters>
            <DistanceMeters>11423.643260946</DistanceMeters>
          </Trackpoint>
          <Trackpoint>
            <Time>2018-06-10T10:25:20.000Z</Time>
            <Position>
              <LatitudeDegrees>35.8950773812830448150634765625</LatitudeDegrees>
              <LongitudeDegrees>-5.36709361709654331207275390625</LongitudeDegrees>
            </Position>
            <AltitudeMeters>291.600006103515625</AltitudeMeters>
            <DistanceMeters>11434.804754333</DistanceMeters>
          </Trackpoint>
          <Trackpoint>
            <Time>2018-06-10T10:25:30.000Z</Time>
            <Position>
              <LatitudeDegrees>35.894966907799243927001953125</LatitudeDegrees>
              <LongitudeDegrees>-5.36710250191390514373779296875</LongitudeDegrees>
            </Position>
            <AltitudeMeters>291.600006103515625</AltitudeMeters>
            <DistanceMeters>11447.126755198</DistanceMeters>
          </Trackpoint>
          <Trackpoint>
            <Time>2018-06-10T10:25:31.000Z</Time>
            <Position>
              <LatitudeDegrees>35.89495785534381866455078125</LatitudeDegrees>
              <LongitudeDegrees>-5.367099232971668243408203125</LongitudeDegrees>
            </Position>
            <AltitudeMeters>291.600006103515625</AltitudeMeters>
            <DistanceMeters>11448.180652443</DistanceMeters>
          </Trackpoint>
          <Trackpoint>
            <Time>2018-06-10T10:25:41.000Z</Time>
            <Position>
              <LatitudeDegrees>35.89490563608705997467041015625</LatitudeDegrees>
              <LongitudeDegrees>-5.367068387567996978759765625</LongitudeDegrees>
            </Position>
            <AltitudeMeters>290.600006103515625</AltitudeMeters>
            <DistanceMeters>11454.624276539</DistanceMeters>
          </Trackpoint>
          <Trackpoint>
            <Time>2018-06-10T10:25:46.000Z</Time>
            <Position>
              <LatitudeDegrees>35.8948899619281291961669921875</LatitudeDegrees>
              <LongitudeDegrees>-5.36707266233861446380615234375</LongitudeDegrees>
            </Position>
            <AltitudeMeters>290.79998779296875</AltitudeMeters>
            <DistanceMeters>11456.409666408</DistanceMeters>
          </Trackpoint>
          <Trackpoint>
            <Time>2018-06-10T10:26:01.000Z</Time>
            <Position>
              <LatitudeDegrees>35.894734561443328857421875</LatitudeDegrees>
              <LongitudeDegrees>-5.3670239634811878204345703125</LongitudeDegrees>
            </Position>
            <AltitudeMeters>289.600006103515625</AltitudeMeters>
            <DistanceMeters>11474.254964833</DistanceMeters>
          </Trackpoint>
          <Trackpoint>
            <Time>2018-06-10T10:26:09.000Z</Time>
            <Position>
              <LatitudeDegrees>35.89468234218657016754150390625</LatitudeDegrees>
              <LongitudeDegrees>-5.366973169147968292236328125</LongitudeDegrees>
            </Position>
            <AltitudeMeters>289.20001220703125</AltitudeMeters>
            <DistanceMeters>11481.654855613</DistanceMeters>
          </Trackpoint>
          <Trackpoint>
            <Time>2018-06-10T10:26:17.000Z</Time>
            <Position>
              <LatitudeDegrees>35.894671864807605743408203125</LatitudeDegrees>
              <LongitudeDegrees>-5.36694467067718505859375</LongitudeDegrees>
            </Position>
            <AltitudeMeters>288.79998779296875</AltitudeMeters>
            <DistanceMeters>11484.477005046</DistanceMeters>
          </Trackpoint>
          <Trackpoint>
            <Time>2018-06-10T10:26:18.000Z</Time>
            <Position>
              <LatitudeDegrees>35.89467077516019344329833984375</LatitudeDegrees>
              <LongitudeDegrees>-5.366942323744297027587890625</LongitudeDegrees>
            </Position>
            <AltitudeMeters>288.79998779296875</AltitudeMeters>
            <DistanceMeters>11484.709772008</DistanceMeters>
          </Trackpoint>
          <Trackpoint>
            <Time>2018-06-10T10:26:19.000Z</Time>
            <Position>
              <LatitudeDegrees>35.8946700207889080047607421875</LatitudeDegrees>
              <LongitudeDegrees>-5.366941988468170166015625</LongitudeDegrees>
            </Position>
            <AltitudeMeters>288.79998779296875</AltitudeMeters>
            <DistanceMeters>11484.709772008</DistanceMeters>
          </Trackpoint>
          <Trackpoint>
            <Time>2018-06-10T10:26:20.000Z</Time>
            <Position>
              <LatitudeDegrees>35.89466742239892482757568359375</LatitudeDegrees>
              <LongitudeDegrees>-5.36694073118269443511962890625</LongitudeDegrees>
            </Position>
            <AltitudeMeters>288.79998779296875</AltitudeMeters>
            <DistanceMeters>11485.010272864</DistanceMeters>
          </Trackpoint>
          <Trackpoint>
            <Time>2018-06-10T10:26:21.000Z</Time>
            <Position>
              <LatitudeDegrees>35.894665829837322235107421875</LatitudeDegrees>
              <LongitudeDegrees>-5.3669391386210918426513671875</LongitudeDegrees>
            </Position>
            <AltitudeMeters>288.79998779296875</AltitudeMeters>
            <DistanceMeters>11485.243039826</DistanceMeters>
          </Trackpoint>
          <Trackpoint>
            <Time>2018-06-10T10:26:29.000Z</Time>
            <Position>
              <LatitudeDegrees>35.89465300552546977996826171875</LatitudeDegrees>
              <LongitudeDegrees>-5.36692514084279537200927734375</LongitudeDegrees>
            </Position>
            <AltitudeMeters>288.600006103515625</AltitudeMeters>
            <DistanceMeters>11487.153053146</DistanceMeters>
          </Trackpoint>
          <Trackpoint>
            <Time>2018-06-10T10:26:41.000Z</Time>
            <Position>
              <LatitudeDegrees>35.89460858143866062164306640625</LatitudeDegrees>
              <LongitudeDegrees>-5.36679740063846111297607421875</LongitudeDegrees>
            </Position>
            <AltitudeMeters>286.600006103515625</AltitudeMeters>
            <DistanceMeters>11499.687217258</DistanceMeters>
          </Trackpoint>
          <Trackpoint>
            <Time>2018-06-10T10:26:42.000Z</Time>
            <Position>
              <LatitudeDegrees>35.89460380375385284423828125</LatitudeDegrees>
              <LongitudeDegrees>-5.36678466014564037322998046875</LongitudeDegrees>
            </Position>
            <AltitudeMeters>286.399993896484375</AltitudeMeters>
            <DistanceMeters>11500.947889084</DistanceMeters>
          </Trackpoint>
          <Trackpoint>
            <Time>2018-06-10T10:26:46.000Z</Time>
            <Position>
              <LatitudeDegrees>35.89458192698657512664794921875</LatitudeDegrees>
              <LongitudeDegrees>-5.3667470254004001617431640625</LongitudeDegrees>
            </Position>
            <AltitudeMeters>285.79998779296875</AltitudeMeters>
            <DistanceMeters>11505.123661781</DistanceMeters>
          </Trackpoint>
          <Trackpoint>
            <Time>2018-06-10T10:26:51.000Z</Time>
            <Position>
              <LatitudeDegrees>35.89456030167639255523681640625</LatitudeDegrees>
              <LongitudeDegrees>-5.366687513887882232666015625</LongitudeDegrees>
            </Position>
            <AltitudeMeters>284.79998779296875</AltitudeMeters>
            <DistanceMeters>11511.004579463</DistanceMeters>
          </Trackpoint>
          <Trackpoint>
            <Time>2018-06-10T10:26:58.000Z</Time>
            <Position>
              <LatitudeDegrees>35.89454948902130126953125</LatitudeDegrees>
              <LongitudeDegrees>-5.36658860743045806884765625</LongitudeDegrees>
            </Position>
            <AltitudeMeters>283</AltitudeMeters>
            <DistanceMeters>11520.003564158</DistanceMeters>
          </Trackpoint>
          <Trackpoint>
            <Time>2018-06-10T10:27:06.000Z</Time>
            <Position>
              <LatitudeDegrees>35.894531719386577606201171875</LatitudeDegrees>
              <LongitudeDegrees>-5.36646782420575618743896484375</LongitudeDegrees>
            </Position>
            <AltitudeMeters>281.399993896484375</AltitudeMeters>
            <DistanceMeters>11531.072442927</DistanceMeters>
          </Trackpoint>
          <Trackpoint>
            <Time>2018-06-10T10:27:12.000Z</Time>
            <Position>
              <LatitudeDegrees>35.89453280903398990631103515625</LatitudeDegrees>
              <LongitudeDegrees>-5.3663762100040912628173828125</LongitudeDegrees>
            </Position>
            <AltitudeMeters>280.79998779296875</AltitudeMeters>
            <DistanceMeters>11539.333757457</DistanceMeters>
          </Trackpoint>
          <Trackpoint>
            <Time>2018-06-10T10:27:19.000Z</Time>
            <Position>
              <LatitudeDegrees>35.8945186436176300048828125</LatitudeDegrees>
              <LongitudeDegrees>-5.366269089281558990478515625</LongitudeDegrees>
            </Position>
            <AltitudeMeters>279.600006103515625</AltitudeMeters>
            <DistanceMeters>11549.120125055</DistanceMeters>
          </Trackpoint>
          <Trackpoint>
            <Time>2018-06-10T10:27:24.000Z</Time>
            <Position>
              <LatitudeDegrees>35.89451420120894908905029296875</LatitudeDegrees>
              <LongitudeDegrees>-5.36618820391595363616943359375</LongitudeDegrees>
            </Position>
            <AltitudeMeters>277.79998779296875</AltitudeMeters>
            <DistanceMeters>11556.429773632</DistanceMeters>
          </Trackpoint>
          <Trackpoint>
            <Time>2018-06-10T10:27:26.000Z</Time>
            <Position>
              <LatitudeDegrees>35.8945159614086151123046875</LatitudeDegrees>
              <LongitudeDegrees>-5.36615719087421894073486328125</LongitudeDegrees>
            </Position>
            <AltitudeMeters>277</AltitudeMeters>
            <DistanceMeters>11559.232659021</DistanceMeters>
          </Trackpoint>
          <Trackpoint>
            <Time>2018-06-10T10:27:33.000Z</Time>
            <Position>
              <LatitudeDegrees>35.89454605244100093841552734375</LatitudeDegrees>
              <LongitudeDegrees>-5.36606096662580966949462890625</LongitudeDegrees>
            </Position>
            <AltitudeMeters>274</AltitudeMeters>
            <DistanceMeters>11568.532662902</DistanceMeters>
          </Trackpoint>
          <Trackpoint>
            <Time>2018-06-10T10:27:35.000Z</Time>
            <Position>
              <LatitudeDegrees>35.89455426670610904693603515625</LatitudeDegrees>
              <LongitudeDegrees>-5.36602660082280635833740234375</LongitudeDegrees>
            </Position>
            <AltitudeMeters>273</AltitudeMeters>
            <DistanceMeters>11571.76357119</DistanceMeters>
          </Trackpoint>
          <Trackpoint>
            <Time>2018-06-10T10:27:40.000Z</Time>
            <Position>
              <LatitudeDegrees>35.8945588767528533935546875</LatitudeDegrees>
              <LongitudeDegrees>-5.36594630219042301177978515625</LongitudeDegrees>
            </Position>
            <AltitudeMeters>271</AltitudeMeters>
            <DistanceMeters>11579.021149016</DistanceMeters>
          </Trackpoint>
          <Trackpoint>
            <Time>2018-06-10T10:27:42.000Z</Time>
            <Position>
              <LatitudeDegrees>35.8945577032864093780517578125</LatitudeDegrees>
              <LongitudeDegrees>-5.36591595970094203948974609375</LongitudeDegrees>
            </Position>
            <AltitudeMeters>270.399993896484375</AltitudeMeters>
            <DistanceMeters>11581.762138546</DistanceMeters>
          </Trackpoint>
          <Trackpoint>
            <Time>2018-06-10T10:27:47.000Z</Time>
            <Position>
              <LatitudeDegrees>35.89456231333315372467041015625</LatitudeDegrees>
              <LongitudeDegrees>-5.3658414445817470550537109375</LongitudeDegrees>
            </Position>
            <AltitudeMeters>268.399993896484375</AltitudeMeters>
            <DistanceMeters>11588.500330021</DistanceMeters>
          </Trackpoint>
          <Trackpoint>
            <Time>2018-06-10T10:27:48.000Z</Time>
            <Position>
              <LatitudeDegrees>35.8945657499134540557861328125</LatitudeDegrees>
              <LongitudeDegrees>-5.36582677625119686126708984375</LongitudeDegrees>
            </Position>
            <AltitudeMeters>268</AltitudeMeters>
            <DistanceMeters>11589.87739794</DistanceMeters>
          </Trackpoint>
          <Trackpoint>
            <Time>2018-06-10T10:27:54.000Z</Time>
            <Position>
              <LatitudeDegrees>35.89456935413181781768798828125</LatitudeDegrees>
              <LongitudeDegrees>-5.36573256365954875946044921875</LongitudeDegrees>
            </Position>
            <AltitudeMeters>265.600006103515625</AltitudeMeters>
            <DistanceMeters>11598.382156156</DistanceMeters>
          </Trackpoint>
          <Trackpoint>
            <Time>2018-06-10T10:27:55.000Z</Time>
            <Position>
              <LatitudeDegrees>35.894567929208278656005859375</LatitudeDegrees>
              <LongitudeDegrees>-5.36571663804352283477783203125</LongitudeDegrees>
            </Position>
            <AltitudeMeters>265.399993896484375</AltitudeMeters>
            <DistanceMeters>11599.826437174</DistanceMeters>
          </Trackpoint>
          <Trackpoint>
            <Time>2018-06-10T10:28:00.000Z</Time>
            <Position>
              <LatitudeDegrees>35.89455761946737766265869140625</LatitudeDegrees>
              <LongitudeDegrees>-5.365639440715312957763671875</LongitudeDegrees>
            </Position>
            <AltitudeMeters>263.79998779296875</AltitudeMeters>
            <DistanceMeters>11606.881490778</DistanceMeters>
          </Trackpoint>
          <Trackpoint>
            <Time>2018-06-10T10:28:04.000Z</Time>
            <Position>
              <LatitudeDegrees>35.8945570327341556549072265625</LatitudeDegrees>
              <LongitudeDegrees>-5.36557297222316265106201171875</LongitudeDegrees>
            </Position>
            <AltitudeMeters>263.399993896484375</AltitudeMeters>
            <DistanceMeters>11612.874957563</DistanceMeters>
          </Trackpoint>
          <Trackpoint>
            <Time>2018-06-10T10:28:05.000Z</Time>
            <Position>
              <LatitudeDegrees>35.8945588767528533935546875</LatitudeDegrees>
              <LongitudeDegrees>-5.3655574657022953033447265625</LongitudeDegrees>
            </Position>
            <AltitudeMeters>263.20001220703125</AltitudeMeters>
            <DistanceMeters>11614.290823718</DistanceMeters>
          </Trackpoint>
          <Trackpoint>
            <Time>2018-06-10T10:28:13.000Z</Time>
            <Position>
              <LatitudeDegrees>35.894568264484405517578125</LatitudeDegrees>
              <LongitudeDegrees>-5.3654374368488788604736328125</LongitudeDegrees>
            </Position>
            <AltitudeMeters>261.600006103515625</AltitudeMeters>
            <DistanceMeters>11625.162976249</DistanceMeters>
          </Trackpoint>
          <Trackpoint>
            <Time>2018-06-10T10:28:22.000Z</Time>
            <Position>
              <LatitudeDegrees>35.8945640735328197479248046875</LatitudeDegrees>
              <LongitudeDegrees>-5.3653053380548954010009765625</LongitudeDegrees>
            </Position>
            <AltitudeMeters>260</AltitudeMeters>
            <DistanceMeters>11637.082675187</DistanceMeters>
          </Trackpoint>
          <Trackpoint>
            <Time>2018-06-10T10:28:27.000Z</Time>
            <Position>
              <LatitudeDegrees>35.8945563621819019317626953125</LatitudeDegrees>
              <LongitudeDegrees>-5.36522847600281238555908203125</LongitudeDegrees>
            </Position>
            <AltitudeMeters>259.20001220703125</AltitudeMeters>
            <DistanceMeters>11644.066330596</DistanceMeters>
          </Trackpoint>
          <Trackpoint>
            <Time>2018-06-10T10:28:29.000Z</Time>
            <Position>
              <LatitudeDegrees>35.894555188715457916259765625</LatitudeDegrees>
              <LongitudeDegrees>-5.3651970438659191131591796875</LongitudeDegrees>
            </Position>
            <AltitudeMeters>259</AltitudeMeters>
            <DistanceMeters>11646.901250001</DistanceMeters>
          </Trackpoint>
          <Trackpoint>
            <Time>2018-06-10T10:28:35.000Z</Time>
            <Position>
              <LatitudeDegrees>35.89455795474350452423095703125</LatitudeDegrees>
              <LongitudeDegrees>-5.36509989760816097259521484375</LongitudeDegrees>
            </Position>
            <AltitudeMeters>257.600006103515625</AltitudeMeters>
            <DistanceMeters>11655.66588692</DistanceMeters>
          </Trackpoint>
          <Trackpoint>
            <Time>2018-06-10T10:28:40.000Z</Time>
            <Position>
              <LatitudeDegrees>35.894560553133487701416015625</LatitudeDegrees>
              <LongitudeDegrees>-5.36502026952803134918212890625</LongitudeDegrees>
            </Position>
            <AltitudeMeters>256.399993896484375</AltitudeMeters>
            <DistanceMeters>11662.851565531</DistanceMeters>
          </Trackpoint>
          <Trackpoint>
            <Time>2018-06-10T10:28:44.000Z</Time>
            <Position>
              <LatitudeDegrees>35.89456851594150066375732421875</LatitudeDegrees>
              <LongitudeDegrees>-5.36496461369097232818603515625</LongitudeDegrees>
            </Position>
            <AltitudeMeters>255.399993896484375</AltitudeMeters>
            <DistanceMeters>11667.946805445</DistanceMeters>
          </Trackpoint>
          <Trackpoint>
            <Time>2018-06-10T10:28:51.000Z</Time>
            <Position>
              <LatitudeDegrees>35.89456030167639255523681640625</LatitudeDegrees>
              <LongitudeDegrees>-5.364865623414516448974609375</LongitudeDegrees>
            </Position>
            <AltitudeMeters>254.399993896484375</AltitudeMeters>
            <DistanceMeters>11676.918655946</DistanceMeters>
          </Trackpoint>
          <Trackpoint>
            <Time>2018-06-10T10:29:01.000Z</Time>
            <Position>
              <LatitudeDegrees>35.89455007575452327728271484375</LatitudeDegrees>
              <LongitudeDegrees>-5.364715419709682464599609375</LongitudeDegrees>
            </Position>
            <AltitudeMeters>252</AltitudeMeters>
            <DistanceMeters>11690.509469522</DistanceMeters>
          </Trackpoint>
          <Trackpoint>
            <Time>2018-06-10T10:29:05.000Z</Time>
            <Position>
              <LatitudeDegrees>35.894548483192920684814453125</LatitudeDegrees>
              <LongitudeDegrees>-5.364656746387481689453125</LongitudeDegrees>
            </Position>
            <AltitudeMeters>251</AltitudeMeters>
            <DistanceMeters>11695.802892536</DistanceMeters>
          </Trackpoint>
          <Trackpoint>
            <Time>2018-06-10T10:29:10.000Z</Time>
            <Position>
              <LatitudeDegrees>35.894534401595592498779296875</LatitudeDegrees>
              <LongitudeDegrees>-5.36458499729633331298828125</LongitudeDegrees>
            </Position>
            <AltitudeMeters>250.600006103515625</AltitudeMeters>
            <DistanceMeters>11702.45883387</DistanceMeters>
          </Trackpoint>
          <Trackpoint>
            <Time>2018-06-10T10:29:12.000Z</Time>
            <Position>
              <LatitudeDegrees>35.89453180320560932159423828125</LatitudeDegrees>
              <LongitudeDegrees>-5.364555157721042633056640625</LongitudeDegrees>
            </Position>
            <AltitudeMeters>250.399993896484375</AltitudeMeters>
            <DistanceMeters>11705.165010508</DistanceMeters>
          </Trackpoint>
          <Trackpoint>
            <Time>2018-06-10T10:29:17.000Z</Time>
            <Position>
              <LatitudeDegrees>35.89452023617923259735107421875</LatitudeDegrees>
              <LongitudeDegrees>-5.36449790932238101959228515625</LongitudeDegrees>
            </Position>
            <AltitudeMeters>250</AltitudeMeters>
            <DistanceMeters>11710.484809336</DistanceMeters>
          </Trackpoint>
          <Trackpoint>
            <Time>2018-06-10T10:29:18.000Z</Time>
            <Position>
              <LatitudeDegrees>35.8945181407034397125244140625</LatitudeDegrees>
              <LongitudeDegrees>-5.364485085010528564453125</LongitudeDegrees>
            </Position>
            <AltitudeMeters>250</AltitudeMeters>
            <DistanceMeters>11711.664059849</DistanceMeters>
          </Trackpoint>
          <Trackpoint>
            <Time>2018-06-10T10:29:20.000Z</Time>
            <Position>
              <LatitudeDegrees>35.89451872743666172027587890625</LatitudeDegrees>
              <LongitudeDegrees>-5.36446035839617252349853515625</LongitudeDegrees>
            </Position>
            <AltitudeMeters>249.600006103515625</AltitudeMeters>
            <DistanceMeters>11713.896682118</DistanceMeters>
          </Trackpoint>
          <Trackpoint>
            <Time>2018-06-10T10:29:21.000Z</Time>
            <Position>
              <LatitudeDegrees>35.8945186436176300048828125</LatitudeDegrees>
              <LongitudeDegrees>-5.364447198808193206787109375</LongitudeDegrees>
            </Position>
            <AltitudeMeters>249.600006103515625</AltitudeMeters>
            <DistanceMeters>11715.0835654</DistanceMeters>
          </Trackpoint>
          <Trackpoint>
            <Time>2018-06-10T10:29:24.000Z</Time>
            <Position>
              <LatitudeDegrees>35.89451570995151996612548828125</LatitudeDegrees>
              <LongitudeDegrees>-5.36440663039684295654296875</LongitudeDegrees>
            </Position>
            <AltitudeMeters>249.1999969482421875</AltitudeMeters>
            <DistanceMeters>11718.756566109</DistanceMeters>
          </Trackpoint>
          <Trackpoint>
            <Time>2018-06-10T10:29:28.000Z</Time>
            <Position>
              <LatitudeDegrees>35.894521661102771759033203125</LatitudeDegrees>
              <LongitudeDegrees>-5.36434359848499298095703125</LongitudeDegrees>
            </Position>
            <AltitudeMeters>248.399993896484375</AltitudeMeters>
            <DistanceMeters>11724.477931952</DistanceMeters>
          </Trackpoint>
          <Trackpoint>
            <Time>2018-06-10T10:29:31.000Z</Time>
            <Position>
              <LatitudeDegrees>35.89452744461596012115478515625</LatitudeDegrees>
              <LongitudeDegrees>-5.36429590545594692230224609375</LongitudeDegrees>
            </Position>
            <AltitudeMeters>247.600006103515625</AltitudeMeters>
            <DistanceMeters>11728.82637766</DistanceMeters>
          </Trackpoint>
          <Trackpoint>
            <Time>2018-06-10T10:29:39.000Z</Time>
            <Position>
              <LatitudeDegrees>35.89452040381729602813720703125</LatitudeDegrees>
              <LongitudeDegrees>-5.364166237413883209228515625</LongitudeDegrees>
            </Position>
            <AltitudeMeters>246.399993896484375</AltitudeMeters>
            <DistanceMeters>11740.544369912</DistanceMeters>
          </Trackpoint>
          <Trackpoint>
            <Time>2018-06-10T10:29:45.000Z</Time>
            <Position>
              <LatitudeDegrees>35.89450598694384098052978515625</LatitudeDegrees>
              <LongitudeDegrees>-5.36407361738383769989013671875</LongitudeDegrees>
            </Position>
            <AltitudeMeters>246</AltitudeMeters>
            <DistanceMeters>11749.048066294</DistanceMeters>
          </Trackpoint>
          <Trackpoint>
            <Time>2018-06-10T10:29:46.000Z</Time>
            <Position>
              <LatitudeDegrees>35.89450414292514324188232421875</LatitudeDegrees>
              <LongitudeDegrees>-5.36405836232006549835205078125</LongitudeDegrees>
            </Position>
            <AltitudeMeters>245.8000030517578125</AltitudeMeters>
            <DistanceMeters>11750.434935532</DistanceMeters>
          </Trackpoint>
          <Trackpoint>
            <Time>2018-06-10T10:29:50.000Z</Time>
            <Position>
              <LatitudeDegrees>35.89448402635753154754638671875</LatitudeDegrees>
              <LongitudeDegrees>-5.3639944083988666534423828125</LongitudeDegrees>
            </Position>
            <AltitudeMeters>245.600006103515625</AltitudeMeters>
            <DistanceMeters>11756.619707461</DistanceMeters>
          </Trackpoint>
          <Trackpoint>
            <Time>2018-06-10T10:29:55.000Z</Time>
            <Position>
              <LatitudeDegrees>35.89445100165903568267822265625</LatitudeDegrees>
              <LongitudeDegrees>-5.363916456699371337890625</LongitudeDegrees>
            </Position>
            <AltitudeMeters>245.600006103515625</AltitudeMeters>
            <DistanceMeters>11764.552019398</DistanceMeters>
          </Trackpoint>
          <Trackpoint>
            <Time>2018-06-10T10:30:01.000Z</Time>
            <Position>
              <LatitudeDegrees>35.89440993033349514007568359375</LatitudeDegrees>
              <LongitudeDegrees>-5.36382869817316532135009765625</LongitudeDegrees>
            </Position>
            <AltitudeMeters>245.600006103515625</AltitudeMeters>
            <DistanceMeters>11773.690408039</DistanceMeters>
          </Trackpoint>
          <Trackpoint>
            <Time>2018-06-10T10:30:07.000Z</Time>
            <Position>
              <LatitudeDegrees>35.89437824673950672149658203125</LatitudeDegrees>
              <LongitudeDegrees>-5.36375292576849460601806640625</LongitudeDegrees>
            </Position>
            <AltitudeMeters>245.399993896484375</AltitudeMeters>
            <DistanceMeters>11781.378768098</DistanceMeters>
          </Trackpoint>
          <Trackpoint>
            <Time>2018-06-10T10:30:14.000Z</Time>
            <Position>
              <LatitudeDegrees>35.89433516375720500946044921875</LatitudeDegrees>
              <LongitudeDegrees>-5.363673381507396697998046875</LongitudeDegrees>
            </Position>
            <AltitudeMeters>245.399993896484375</AltitudeMeters>
            <DistanceMeters>11790.005812207</DistanceMeters>
          </Trackpoint>
          <Trackpoint>
            <Time>2018-06-10T10:30:17.000Z</Time>
            <Position>
              <LatitudeDegrees>35.89432091452181339263916015625</LatitudeDegrees>
              <LongitudeDegrees>-5.36363876424729824066162109375</LongitudeDegrees>
            </Position>
            <AltitudeMeters>245.399993896484375</AltitudeMeters>
            <DistanceMeters>11793.507646556</DistanceMeters>
          </Trackpoint>
          <Trackpoint>
            <Time>2018-06-10T10:30:23.000Z</Time>
            <Position>
              <LatitudeDegrees>35.8942821063101291656494140625</LatitudeDegrees>
              <LongitudeDegrees>-5.3635642491281032562255859375</LongitudeDegrees>
            </Position>
            <AltitudeMeters>245.399993896484375</AltitudeMeters>
            <DistanceMeters>11801.494414363</DistanceMeters>
          </Trackpoint>
          <Trackpoint>
            <Time>2018-06-10T10:30:29.000Z</Time>
            <Position>
              <LatitudeDegrees>35.894284285604953765869140625</LatitudeDegrees>
              <LongitudeDegrees>-5.36349107511341571807861328125</LongitudeDegrees>
            </Position>
            <AltitudeMeters>244.399993896484375</AltitudeMeters>
            <DistanceMeters>11808.09723263</DistanceMeters>
          </Trackpoint>
          <Trackpoint>
            <Time>2018-06-10T10:30:36.000Z</Time>
            <Position>
              <LatitudeDegrees>35.89432753622531890869140625</LatitudeDegrees>
              <LongitudeDegrees>-5.36340457387268543243408203125</LongitudeDegrees>
            </Position>
            <AltitudeMeters>241.8000030517578125</AltitudeMeters>
            <DistanceMeters>11817.262755046</DistanceMeters>
          </Trackpoint>
          <Trackpoint>
            <Time>2018-06-10T10:30:37.000Z</Time>
            <Position>
              <LatitudeDegrees>35.89433583430945873260498046875</LatitudeDegrees>
              <LongitudeDegrees>-5.36339049227535724639892578125</LongitudeDegrees>
            </Position>
            <AltitudeMeters>241.399993896484375</AltitudeMeters>
            <DistanceMeters>11818.835727057</DistanceMeters>
          </Trackpoint>
          <Trackpoint>
            <Time>2018-06-10T10:30:43.000Z</Time>
            <Position>
              <LatitudeDegrees>35.89436936192214488983154296875</LatitudeDegrees>
              <LongitudeDegrees>-5.36329619586467742919921875</LongitudeDegrees>
            </Position>
            <AltitudeMeters>239</AltitudeMeters>
            <DistanceMeters>11828.120182331</DistanceMeters>
          </Trackpoint>
          <Trackpoint>
            <Time>2018-06-10T10:30:45.000Z</Time>
            <Position>
              <LatitudeDegrees>35.89437606744468212127685546875</LatitudeDegrees>
              <LongitudeDegrees>-5.36326535046100616455078125</LongitudeDegrees>
            </Position>
            <AltitudeMeters>238.399993896484375</AltitudeMeters>
            <DistanceMeters>11830.996212585</DistanceMeters>
          </Trackpoint>
          <Trackpoint>
            <Time>2018-06-10T10:30:46.000Z</Time>
            <Position>
              <LatitudeDegrees>35.89437824673950672149658203125</LatitudeDegrees>
              <LongitudeDegrees>-5.36325068213045597076416015625</LongitudeDegrees>
            </Position>
            <AltitudeMeters>238</AltitudeMeters>
            <DistanceMeters>11832.340093267</DistanceMeters>
          </Trackpoint>
          <Trackpoint>
            <Time>2018-06-10T10:30:50.000Z</Time>
            <Position>
              <LatitudeDegrees>35.89438662864267826080322265625</LatitudeDegrees>
              <LongitudeDegrees>-5.3631934337317943572998046875</LongitudeDegrees>
            </Position>
            <AltitudeMeters>237</AltitudeMeters>
            <DistanceMeters>11837.586394155</DistanceMeters>
          </Trackpoint>
          <Trackpoint>
            <Time>2018-06-10T10:30:51.000Z</Time>
            <Position>
              <LatitudeDegrees>35.89438981376588344573974609375</LatitudeDegrees>
              <LongitudeDegrees>-5.3631801903247833251953125</LongitudeDegrees>
            </Position>
            <AltitudeMeters>236.600006103515625</AltitudeMeters>
            <DistanceMeters>11838.83265783</DistanceMeters>
          </Trackpoint>
          <Trackpoint>
            <Time>2018-06-10T10:30:52.000Z</Time>
            <Position>
              <LatitudeDegrees>35.894396938383579254150390625</LatitudeDegrees>
              <LongitudeDegrees>-5.36316921003162860870361328125</LongitudeDegrees>
            </Position>
            <AltitudeMeters>236.1999969482421875</AltitudeMeters>
            <DistanceMeters>11840.10047233</DistanceMeters>
          </Trackpoint>
          <Trackpoint>
            <Time>2018-06-10T10:30:56.000Z</Time>
            <Position>
              <LatitudeDegrees>35.89439727365970611572265625</LatitudeDegrees>
              <LongitudeDegrees>-5.3631153143942356109619140625</LongitudeDegrees>
            </Position>
            <AltitudeMeters>235.399993896484375</AltitudeMeters>
            <DistanceMeters>11844.96078919</DistanceMeters>
          </Trackpoint>
          <Trackpoint>
            <Time>2018-06-10T10:31:02.000Z</Time>
            <Position>
              <LatitudeDegrees>35.89440674521028995513916015625</LatitudeDegrees>
              <LongitudeDegrees>-5.36303979344666004180908203125</LongitudeDegrees>
            </Position>
            <AltitudeMeters>234</AltitudeMeters>
            <DistanceMeters>11851.85137276</DistanceMeters>
          </Trackpoint>
          <Trackpoint>
            <Time>2018-06-10T10:31:09.000Z</Time>
            <Position>
              <LatitudeDegrees>35.89441747404634952545166015625</LatitudeDegrees>
              <LongitudeDegrees>-5.36293971352279186248779296875</LongitudeDegrees>
            </Position>
            <AltitudeMeters>232.1999969482421875</AltitudeMeters>
            <DistanceMeters>11860.95411858</DistanceMeters>
          </Trackpoint>
          <Trackpoint>
            <Time>2018-06-10T10:31:15.000Z</Time>
            <Position>
              <LatitudeDegrees>35.89440708048641681671142578125</LatitudeDegrees>
              <LongitudeDegrees>-5.36286813206970691680908203125</LongitudeDegrees>
            </Position>
            <AltitudeMeters>231.8000030517578125</AltitudeMeters>
            <DistanceMeters>11867.510273236</DistanceMeters>
          </Trackpoint>
          <Trackpoint>
            <Time>2018-06-10T10:31:21.000Z</Time>
            <Position>
              <LatitudeDegrees>35.89441462419927120208740234375</LatitudeDegrees>
              <LongitudeDegrees>-5.36278699524700641632080078125</LongitudeDegrees>
            </Position>
            <AltitudeMeters>230.8000030517578125</AltitudeMeters>
            <DistanceMeters>11874.874077215</DistanceMeters>
          </Trackpoint>
          <Trackpoint>
            <Time>2018-06-10T10:31:27.000Z</Time>
            <Position>
              <LatitudeDegrees>35.8944194018840789794921875</LatitudeDegrees>
              <LongitudeDegrees>-5.362705104053020477294921875</LongitudeDegrees>
            </Position>
            <AltitudeMeters>229.8000030517578125</AltitudeMeters>
            <DistanceMeters>11882.277018113</DistanceMeters>
          </Trackpoint>
          <Trackpoint>
            <Time>2018-06-10T10:31:35.000Z</Time>
            <Position>
              <LatitudeDegrees>35.89439081959426403045654296875</LatitudeDegrees>
              <LongitudeDegrees>-5.36259504966437816619873046875</LongitudeDegrees>
            </Position>
            <AltitudeMeters>229.399993896484375</AltitudeMeters>
            <DistanceMeters>11892.697077574</DistanceMeters>
          </Trackpoint>
          <Trackpoint>
            <Time>2018-06-10T10:31:36.000Z</Time>
            <Position>
              <LatitudeDegrees>35.8943860419094562530517578125</LatitudeDegrees>
              <LongitudeDegrees>-5.36257811821997165679931640625</LongitudeDegrees>
            </Position>
            <AltitudeMeters>229.1999969482421875</AltitudeMeters>
            <DistanceMeters>11894.309734393</DistanceMeters>
          </Trackpoint>
          <Trackpoint>
            <Time>2018-06-10T10:31:38.000Z</Time>
            <Position>
              <LatitudeDegrees>35.894375145435333251953125</LatitudeDegrees>
              <LongitudeDegrees>-5.362548530101776123046875</LongitudeDegrees>
            </Position>
            <AltitudeMeters>229.1999969482421875</AltitudeMeters>
            <DistanceMeters>11897.238654436</DistanceMeters>
          </Trackpoint>
          <Trackpoint>
            <Time>2018-06-10T10:31:41.000Z</Time>
            <Position>
              <LatitudeDegrees>35.89436567388474941253662109375</LatitudeDegrees>
              <LongitudeDegrees>-5.3625014238059520721435546875</LongitudeDegrees>
            </Position>
            <AltitudeMeters>229</AltitudeMeters>
            <DistanceMeters>11901.614012943</DistanceMeters>
          </Trackpoint>
          <Trackpoint>
            <Time>2018-06-10T10:31:47.000Z</Time>
            <Position>
              <LatitudeDegrees>35.894326530396938323974609375</LatitudeDegrees>
              <LongitudeDegrees>-5.36242045462131500244140625</LongitudeDegrees>
            </Position>
            <AltitudeMeters>229.1999969482421875</AltitudeMeters>
            <DistanceMeters>11910.115585259</DistanceMeters>
          </Trackpoint>
          <Trackpoint>
            <Time>2018-06-10T10:31:48.000Z</Time>
            <Position>
              <LatitudeDegrees>35.89431923814117908477783203125</LatitudeDegrees>
              <LongitudeDegrees>-5.36240570247173309326171875</LongitudeDegrees>
            </Position>
            <AltitudeMeters>229.1999969482421875</AltitudeMeters>
            <DistanceMeters>11911.674139257</DistanceMeters>
          </Trackpoint>
          <Trackpoint>
            <Time>2018-06-10T10:31:57.000Z</Time>
            <Position>
              <LatitudeDegrees>35.89428462088108062744140625</LatitudeDegrees>
              <LongitudeDegrees>-5.3622868470847606658935546875</LongitudeDegrees>
            </Position>
            <AltitudeMeters>229</AltitudeMeters>
            <DistanceMeters>11923.062289146</DistanceMeters>
          </Trackpoint>
          <Trackpoint>
            <Time>2018-06-10T10:31:58.000Z</Time>
            <Position>
              <LatitudeDegrees>35.8942879736423492431640625</LatitudeDegrees>
              <LongitudeDegrees>-5.362272597849369049072265625</LongitudeDegrees>
            </Position>
            <AltitudeMeters>228.600006103515625</AltitudeMeters>
            <DistanceMeters>11924.399433542</DistanceMeters>
          </Trackpoint>
          <Trackpoint>
            <Time>2018-06-10T10:32:01.000Z</Time>
            <Position>
              <LatitudeDegrees>35.89428772218525409698486328125</LatitudeDegrees>
              <LongitudeDegrees>-5.362227000296115875244140625</LongitudeDegrees>
            </Position>
            <AltitudeMeters>228.1999969482421875</AltitudeMeters>
            <DistanceMeters>11928.510917836</DistanceMeters>
          </Trackpoint>
          <Trackpoint>
            <Time>2018-06-10T10:32:04.000Z</Time>
            <Position>
              <LatitudeDegrees>35.8942898176610469818115234375</LatitudeDegrees>
              <LongitudeDegrees>-5.3621822409331798553466796875</LongitudeDegrees>
            </Position>
            <AltitudeMeters>227.600006103515625</AltitudeMeters>
            <DistanceMeters>11932.552626421</DistanceMeters>
          </Trackpoint>
          <Trackpoint>
            <Time>2018-06-10T10:32:09.000Z</Time>
            <Position>
              <LatitudeDegrees>35.89428554289042949676513671875</LatitudeDegrees>
              <LongitudeDegrees>-5.3620992600917816162109375</LongitudeDegrees>
            </Position>
            <AltitudeMeters>226.399993896484375</AltitudeMeters>
            <DistanceMeters>11940.049505491</DistanceMeters>
          </Trackpoint>
          <Trackpoint>
            <Time>2018-06-10T10:32:13.000Z</Time>
            <Position>
              <LatitudeDegrees>35.8942733891308307647705078125</LatitudeDegrees>
              <LongitudeDegrees>-5.3620286844670772552490234375</LongitudeDegrees>
            </Position>
            <AltitudeMeters>225.1999969482421875</AltitudeMeters>
            <DistanceMeters>11946.554498821</DistanceMeters>
          </Trackpoint>
          <Trackpoint>
            <Time>2018-06-10T10:32:18.000Z</Time>
            <Position>
              <LatitudeDegrees>35.894249416887760162353515625</LatitudeDegrees>
              <LongitudeDegrees>-5.36195098422467708587646484375</LongitudeDegrees>
            </Position>
            <AltitudeMeters>224.1999969482421875</AltitudeMeters>
            <DistanceMeters>11954.05137789</DistanceMeters>
          </Trackpoint>
          <Trackpoint>
            <Time>2018-06-10T10:32:20.000Z</Time>
            <Position>
              <LatitudeDegrees>35.89425235055387020111083984375</LatitudeDegrees>
              <LongitudeDegrees>-5.3619217313826084136962890625</LongitudeDegrees>
            </Position>
            <AltitudeMeters>223.399993896484375</AltitudeMeters>
            <DistanceMeters>11956.708729914</DistanceMeters>
          </Trackpoint>
          <Trackpoint>
            <Time>2018-06-10T10:32:28.000Z</Time>
            <Position>
              <LatitudeDegrees>35.89429560117423534393310546875</LatitudeDegrees>
              <LongitudeDegrees>-5.3618127666413784027099609375</LongitudeDegrees>
            </Position>
            <AltitudeMeters>220</AltitudeMeters>
            <DistanceMeters>11967.649602519</DistanceMeters>
          </Trackpoint>
          <Trackpoint>
            <Time>2018-06-10T10:32:33.000Z</Time>
            <Position>
              <LatitudeDegrees>35.894321836531162261962890625</LatitudeDegrees>
              <LongitudeDegrees>-5.36174898035824298858642578125</LongitudeDegrees>
            </Position>
            <AltitudeMeters>217.8000030517578125</AltitudeMeters>
            <DistanceMeters>11974.100229795</DistanceMeters>
          </Trackpoint>
          <Trackpoint>
            <Time>2018-06-10T10:32:34.000Z</Time>
            <Position>
              <LatitudeDegrees>35.8943307213485240936279296875</LatitudeDegrees>
              <LongitudeDegrees>-5.3617366589605808258056640625</LongitudeDegrees>
            </Position>
            <AltitudeMeters>217.399993896484375</AltitudeMeters>
            <DistanceMeters>11975.590665572</DistanceMeters>
          </Trackpoint>
          <Trackpoint>
            <Time>2018-06-10T10:32:35.000Z</Time>
            <Position>
              <LatitudeDegrees>35.89433600194752216339111328125</LatitudeDegrees>
              <LongitudeDegrees>-5.36172442138195037841796875</LongitudeDegrees>
            </Position>
            <AltitudeMeters>216.8000030517578125</AltitudeMeters>
            <DistanceMeters>11976.840546856</DistanceMeters>
          </Trackpoint>
          <Trackpoint>
            <Time>2018-06-10T10:32:41.000Z</Time>
            <Position>
              <LatitudeDegrees>35.8943719603121280670166015625</LatitudeDegrees>
              <LongitudeDegrees>-5.3616468049585819244384765625</LongitudeDegrees>
            </Position>
            <AltitudeMeters>214.600006103515625</AltitudeMeters>
            <DistanceMeters>11984.902710972</DistanceMeters>
          </Trackpoint>
          <Trackpoint>
            <Time>2018-06-10T10:32:45.000Z</Time>
            <Position>
              <LatitudeDegrees>35.894391573965549468994140625</LatitudeDegrees>
              <LongitudeDegrees>-5.36159642972052097320556640625</LongitudeDegrees>
            </Position>
            <AltitudeMeters>213.399993896484375</AltitudeMeters>
            <DistanceMeters>11989.941815552</DistanceMeters>
          </Trackpoint>
          <Trackpoint>
            <Time>2018-06-10T10:32:46.000Z</Time>
            <Position>
              <LatitudeDegrees>35.89439970441162586212158203125</LatitudeDegrees>
              <LongitudeDegrees>-5.36158368922770023345947265625</LongitudeDegrees>
            </Position>
            <AltitudeMeters>212.8000030517578125</AltitudeMeters>
            <DistanceMeters>11991.4078163</DistanceMeters>
          </Trackpoint>
          <Trackpoint>
            <Time>2018-06-10T10:32:52.000Z</Time>
            <Position>
              <LatitudeDegrees>35.8944420330226421356201171875</LatitudeDegrees>
              <LongitudeDegrees>-5.36151680164039134979248046875</LongitudeDegrees>
            </Position>
            <AltitudeMeters>210.600006103515625</AltitudeMeters>
            <DistanceMeters>11999.060859865</DistanceMeters>
          </Trackpoint>
          <Trackpoint>
            <Time>2018-06-10T10:32:57.000Z</Time>
            <Position>
              <LatitudeDegrees>35.89449944905936717987060546875</LatitudeDegrees>
              <LongitudeDegrees>-5.36147891543805599212646484375</LongitudeDegrees>
            </Position>
            <AltitudeMeters>208</AltitudeMeters>
            <DistanceMeters>12006.307230993</DistanceMeters>
          </Trackpoint>
          <Trackpoint>
            <Time>2018-06-10T10:32:59.000Z</Time>
            <Position>
              <LatitudeDegrees>35.89451218955218791961669921875</LatitudeDegrees>
              <LongitudeDegrees>-5.36145427264273166656494140625</LongitudeDegrees>
            </Position>
            <AltitudeMeters>207.1999969482421875</AltitudeMeters>
            <DistanceMeters>12008.944115303</DistanceMeters>
          </Trackpoint>
          <Trackpoint>
            <Time>2018-06-10T10:33:07.000Z</Time>
            <Position>
              <LatitudeDegrees>35.89456700719892978668212890625</LatitudeDegrees>
              <LongitudeDegrees>-5.36135385744273662567138671875</LongitudeDegrees>
            </Position>
            <AltitudeMeters>204.1999969482421875</AltitudeMeters>
            <DistanceMeters>12019.861853579</DistanceMeters>
          </Trackpoint>
          <Trackpoint>
            <Time>2018-06-10T10:33:15.000Z</Time>
            <Position>
              <LatitudeDegrees>35.89460271410644054412841796875</LatitudeDegrees>
              <LongitudeDegrees>-5.36122955381870269775390625</LongitudeDegrees>
            </Position>
            <AltitudeMeters>201.600006103515625</AltitudeMeters>
            <DistanceMeters>12031.753868849</DistanceMeters>
          </Trackpoint>
          <Trackpoint>
            <Time>2018-06-10T10:33:21.000Z</Time>
            <Position>
              <LatitudeDegrees>35.8946053124964237213134765625</LatitudeDegrees>
              <LongitudeDegrees>-5.36113257519900798797607421875</LongitudeDegrees>
            </Position>
            <AltitudeMeters>200.399993896484375</AltitudeMeters>
            <DistanceMeters>12040.503553877</DistanceMeters>
          </Trackpoint>
          <Trackpoint>
            <Time>2018-06-10T10:33:25.000Z</Time>
            <Position>
              <LatitudeDegrees>35.8945972658693790435791015625</LatitudeDegrees>
              <LongitudeDegrees>-5.361069627106189727783203125</LongitudeDegrees>
            </Position>
            <AltitudeMeters>200.1999969482421875</AltitudeMeters>
            <DistanceMeters>12046.249331412</DistanceMeters>
          </Trackpoint>
          <Trackpoint>
            <Time>2018-06-10T10:33:32.000Z</Time>
            <Position>
              <LatitudeDegrees>35.8946250937879085540771484375</LatitudeDegrees>
              <LongitudeDegrees>-5.36096678115427494049072265625</LongitudeDegrees>
            </Position>
            <AltitudeMeters>198</AltitudeMeters>
            <DistanceMeters>12056.025543822</DistanceMeters>
          </Trackpoint>
          <Trackpoint>
            <Time>2018-06-10T10:33:42.000Z</Time>
            <Position>
              <LatitudeDegrees>35.894610844552516937255859375</LatitudeDegrees>
              <LongitudeDegrees>-5.3608045913279056549072265625</LongitudeDegrees>
            </Position>
            <AltitudeMeters>197.1999969482421875</AltitudeMeters>
            <DistanceMeters>12070.735053048</DistanceMeters>
          </Trackpoint>
          <Trackpoint>
            <Time>2018-06-10T10:33:44.000Z</Time>
            <Position>
              <LatitudeDegrees>35.89460941962897777557373046875</LatitudeDegrees>
              <LongitudeDegrees>-5.36077450029551982879638671875</LongitudeDegrees>
            </Position>
            <AltitudeMeters>196.8000030517578125</AltitudeMeters>
            <DistanceMeters>12073.45288353</DistanceMeters>
          </Trackpoint>
          <Trackpoint>
            <Time>2018-06-10T10:33:52.000Z</Time>
            <Position>
              <LatitudeDegrees>35.89464227668941020965576171875</LatitudeDegrees>
              <LongitudeDegrees>-5.36065028049051761627197265625</LongitudeDegrees>
            </Position>
            <AltitudeMeters>194.399993896484375</AltitudeMeters>
            <DistanceMeters>12085.234663323</DistanceMeters>
          </Trackpoint>
          <Trackpoint>
            <Time>2018-06-10T10:34:01.000Z</Time>
            <Position>
              <LatitudeDegrees>35.89468150399625301361083984375</LatitudeDegrees>
              <LongitudeDegrees>-5.36050745286047458648681640625</LongitudeDegrees>
            </Position>
            <AltitudeMeters>191.600006103515625</AltitudeMeters>
            <DistanceMeters>12098.832783611</DistanceMeters>
          </Trackpoint>
          <Trackpoint>
            <Time>2018-06-10T10:34:16.000Z</Time>
            <Position>
              <LatitudeDegrees>35.89475593529641628265380859375</LatitudeDegrees>
              <LongitudeDegrees>-5.36030687391757965087890625</LongitudeDegrees>
            </Position>
            <AltitudeMeters>188.8000030517578125</AltitudeMeters>
            <DistanceMeters>12118.725395554</DistanceMeters>
          </Trackpoint>
          <Trackpoint>
            <Time>2018-06-10T10:34:17.000Z</Time>
            <Position>
              <LatitudeDegrees>35.8947618864476680755615234375</LatitudeDegrees>
              <LongitudeDegrees>-5.3602946363389492034912109375</LongitudeDegrees>
            </Position>
            <AltitudeMeters>188.600006103515625</AltitudeMeters>
            <DistanceMeters>12120.014400622</DistanceMeters>
          </Trackpoint>
          <Trackpoint>
            <Time>2018-06-10T10:34:25.000Z</Time>
            <Position>
              <LatitudeDegrees>35.89479767717421054840087890625</LatitudeDegrees>
              <LongitudeDegrees>-5.36018039099872112274169921875</LongitudeDegrees>
            </Position>
            <AltitudeMeters>187.600006103515625</AltitudeMeters>
            <DistanceMeters>12131.058778042</DistanceMeters>
          </Trackpoint>
          <Trackpoint>
            <Time>2018-06-10T10:34:26.000Z</Time>
            <Position>
              <LatitudeDegrees>35.894799940288066864013671875</LatitudeDegrees>
              <LongitudeDegrees>-5.360163711011409759521484375</LongitudeDegrees>
            </Position>
            <AltitudeMeters>187.600006103515625</AltitudeMeters>
            <DistanceMeters>12132.585133087</DistanceMeters>
          </Trackpoint>
          <Trackpoint>
            <Time>2018-06-10T10:34:33.000Z</Time>
            <Position>
              <LatitudeDegrees>35.8947796560823917388916015625</LatitudeDegrees>
              <LongitudeDegrees>-5.36006656475365161895751953125</LongitudeDegrees>
            </Position>
            <AltitudeMeters>189.1999969482421875</AltitudeMeters>
            <DistanceMeters>12141.631157227</DistanceMeters>
          </Trackpoint>
          <Trackpoint>
            <Time>2018-06-10T10:34:36.000Z</Time>
            <Position>
              <LatitudeDegrees>35.8947494812309741973876953125</LatitudeDegrees>
              <LongitudeDegrees>-5.36004041321575641632080078125</LongitudeDegrees>
            </Position>
            <AltitudeMeters>190.8000030517578125</AltitudeMeters>
            <DistanceMeters>12145.736047316</DistanceMeters>
          </Trackpoint>
          <Trackpoint>
            <Time>2018-06-10T10:34:44.000Z</Time>
            <Position>
              <LatitudeDegrees>35.89464227668941020965576171875</LatitudeDegrees>
              <LongitudeDegrees>-5.36000571213662624359130859375</LongitudeDegrees>
            </Position>
            <AltitudeMeters>196</AltitudeMeters>
            <DistanceMeters>12158.071232279</DistanceMeters>
          </Trackpoint>
          <Trackpoint>
            <Time>2018-06-10T10:34:49.000Z</Time>
            <Position>
              <LatitudeDegrees>35.89457505382597446441650390625</LatitudeDegrees>
              <LongitudeDegrees>-5.360005460679531097412109375</LongitudeDegrees>
            </Position>
            <AltitudeMeters>199.1999969482421875</AltitudeMeters>
            <DistanceMeters>12165.553643251</DistanceMeters>
          </Trackpoint>
          <Trackpoint>
            <Time>2018-06-10T10:34:51.000Z</Time>
            <Position>
              <LatitudeDegrees>35.89455242268741130828857421875</LatitudeDegrees>
              <LongitudeDegrees>-5.360006801784038543701171875</LongitudeDegrees>
            </Position>
            <AltitudeMeters>200.1999969482421875</AltitudeMeters>
            <DistanceMeters>12168.074986904</DistanceMeters>
          </Trackpoint>
          <Trackpoint>
            <Time>2018-06-10T10:34:54.000Z</Time>
            <Position>
              <LatitudeDegrees>35.89451688341796398162841796875</LatitudeDegrees>
              <LongitudeDegrees>-5.36001124419271945953369140625</LongitudeDegrees>
            </Position>
            <AltitudeMeters>201.8000030517578125</AltitudeMeters>
            <DistanceMeters>12172.051375197</DistanceMeters>
          </Trackpoint>
          <Trackpoint>
            <Time>2018-06-10T10:35:00.000Z</Time>
            <Position>
              <LatitudeDegrees>35.8944420330226421356201171875</LatitudeDegrees>
              <LongitudeDegrees>-5.36002750508487224578857421875</LongitudeDegrees>
            </Position>
            <AltitudeMeters>205.1999969482421875</AltitudeMeters>
            <DistanceMeters>12180.510887938</DistanceMeters>
          </Trackpoint>
          <Trackpoint>
            <Time>2018-06-10T10:35:05.000Z</Time>
            <Position>
              <LatitudeDegrees>35.89437304995954036712646484375</LatitudeDegrees>
              <LongitudeDegrees>-5.360020212829113006591796875</LongitudeDegrees>
            </Position>
            <AltitudeMeters>208.600006103515625</AltitudeMeters>
            <DistanceMeters>12188.217431442</DistanceMeters>
          </Trackpoint>
          <Trackpoint>
            <Time>2018-06-10T10:35:09.000Z</Time>
            <Position>
              <LatitudeDegrees>35.8943196572363376617431640625</LatitudeDegrees>
              <LongitudeDegrees>-5.36001627333462238311767578125</LongitudeDegrees>
            </Position>
            <AltitudeMeters>209.8000030517578125</AltitudeMeters>
            <DistanceMeters>12194.17159638</DistanceMeters>
          </Trackpoint>
          <Trackpoint>
            <Time>2018-06-10T10:35:10.000Z</Time>
            <Position>
              <LatitudeDegrees>35.89430700056254863739013671875</LatitudeDegrees>
              <LongitudeDegrees>-5.36001442931592464447021484375</LongitudeDegrees>
            </Position>
            <AltitudeMeters>210</AltitudeMeters>
            <DistanceMeters>12195.590647841</DistanceMeters>
          </Trackpoint>
          <Trackpoint>
            <Time>2018-06-10T10:35:13.000Z</Time>
            <Position>
              <LatitudeDegrees>35.89426710270345211029052734375</LatitudeDegrees>
              <LongitudeDegrees>-5.36001141183078289031982421875</LongitudeDegrees>
            </Position>
            <AltitudeMeters>210.600006103515625</AltitudeMeters>
            <DistanceMeters>12200.039684542</DistanceMeters>
          </Trackpoint>
          <Trackpoint>
            <Time>2018-06-10T10:35:23.000Z</Time>
            <Position>
              <LatitudeDegrees>35.89414405636489391326904296875</LatitudeDegrees>
              <LongitudeDegrees>-5.3600019402801990509033203125</LongitudeDegrees>
            </Position>
            <AltitudeMeters>212.600006103515625</AltitudeMeters>
            <DistanceMeters>12213.76175268</DistanceMeters>
          </Trackpoint>
          <Trackpoint>
            <Time>2018-06-10T10:35:24.000Z</Time>
            <Position>
              <LatitudeDegrees>35.894132070243358612060546875</LatitudeDegrees>
              <LongitudeDegrees>-5.360000431537628173828125</LongitudeDegrees>
            </Position>
            <AltitudeMeters>212.600006103515625</AltitudeMeters>
            <DistanceMeters>12215.102269451</DistanceMeters>
          </Trackpoint>
          <Trackpoint>
            <Time>2018-06-10T10:35:35.000Z</Time>
            <Position>
              <LatitudeDegrees>35.89400759898126125335693359375</LatitudeDegrees>
              <LongitudeDegrees>-5.35998039878904819488525390625</LongitudeDegrees>
            </Position>
            <AltitudeMeters>214.1999969482421875</AltitudeMeters>
            <DistanceMeters>12229.073458821</DistanceMeters>
          </Trackpoint>
          <Trackpoint>
            <Time>2018-06-10T10:35:44.000Z</Time>
            <Position>
              <LatitudeDegrees>35.89389829896390438079833984375</LatitudeDegrees>
              <LongitudeDegrees>-5.35994083620607852935791015625</LongitudeDegrees>
            </Position>
            <AltitudeMeters>215.1999969482421875</AltitudeMeters>
            <DistanceMeters>12241.750891548</DistanceMeters>
          </Trackpoint>
          <Trackpoint>
            <Time>2018-06-10T10:35:52.000Z</Time>
            <Position>
              <LatitudeDegrees>35.89383308775722980499267578125</LatitudeDegrees>
              <LongitudeDegrees>-5.35989423282444477081298828125</LongitudeDegrees>
            </Position>
            <AltitudeMeters>214.399993896484375</AltitudeMeters>
            <DistanceMeters>12250.138042167</DistanceMeters>
          </Trackpoint>
          <Trackpoint>
            <Time>2018-06-10T10:35:56.000Z</Time>
            <Position>
              <LatitudeDegrees>35.893794782459735870361328125</LatitudeDegrees>
              <LongitudeDegrees>-5.3598681651055812835693359375</LongitudeDegrees>
            </Position>
            <AltitudeMeters>214</AltitudeMeters>
            <DistanceMeters>12255.007639762</DistanceMeters>
          </Trackpoint>
          <Trackpoint>
            <Time>2018-06-10T10:36:04.000Z</Time>
            <Position>
              <LatitudeDegrees>35.89372278191149234771728515625</LatitudeDegrees>
              <LongitudeDegrees>-5.35980588756501674652099609375</LongitudeDegrees>
            </Position>
            <AltitudeMeters>212.600006103515625</AltitudeMeters>
            <DistanceMeters>12264.793084597</DistanceMeters>
          </Trackpoint>
          <Trackpoint>
            <Time>2018-06-10T10:36:11.000Z</Time>
            <Position>
              <LatitudeDegrees>35.89365287683904170989990234375</LatitudeDegrees>
              <LongitudeDegrees>-5.35975299775600433349609375</LongitudeDegrees>
            </Position>
            <AltitudeMeters>211.1999969482421875</AltitudeMeters>
            <DistanceMeters>12273.919113034</DistanceMeters>
          </Trackpoint>
          <Trackpoint>
            <Time>2018-06-10T10:36:13.000Z</Time>
            <Position>
              <LatitudeDegrees>35.8936306647956371307373046875</LatitudeDegrees>
              <LongitudeDegrees>-5.3597407601773738861083984375</LongitudeDegrees>
            </Position>
            <AltitudeMeters>210.8000030517578125</AltitudeMeters>
            <DistanceMeters>12276.626957578</DistanceMeters>
          </Trackpoint>
          <Trackpoint>
            <Time>2018-06-10T10:36:23.000Z</Time>
            <Position>
              <LatitudeDegrees>35.89352019131183624267578125</LatitudeDegrees>
              <LongitudeDegrees>-5.359662137925624847412109375</LongitudeDegrees>
            </Position>
            <AltitudeMeters>208.600006103515625</AltitudeMeters>
            <DistanceMeters>12290.820017337</DistanceMeters>
          </Trackpoint>
          <Trackpoint>
            <Time>2018-06-10T10:36:33.000Z</Time>
            <Position>
              <LatitudeDegrees>35.8934482745826244354248046875</LatitudeDegrees>
              <LongitudeDegrees>-5.35955795086920261383056640625</LongitudeDegrees>
            </Position>
            <AltitudeMeters>204.600006103515625</AltitudeMeters>
            <DistanceMeters>12303.162154896</DistanceMeters>
          </Trackpoint>
          <Trackpoint>
            <Time>2018-06-10T10:36:43.000Z</Time>
            <Position>
              <LatitudeDegrees>35.8933795429766178131103515625</LatitudeDegrees>
              <LongitudeDegrees>-5.3594540990889072418212890625</LongitudeDegrees>
            </Position>
            <AltitudeMeters>200.1999969482421875</AltitudeMeters>
            <DistanceMeters>12315.25334746</DistanceMeters>
          </Trackpoint>
          <Trackpoint>
            <Time>2018-06-10T10:36:46.000Z</Time>
            <Position>
              <LatitudeDegrees>35.89336068369448184967041015625</LatitudeDegrees>
              <LongitudeDegrees>-5.35942350514233112335205078125</LongitudeDegrees>
            </Position>
            <AltitudeMeters>199</AltitudeMeters>
            <DistanceMeters>12318.720194983</DistanceMeters>
          </Trackpoint>
          <Trackpoint>
            <Time>2018-06-10T10:36:48.000Z</Time>
            <Position>
              <LatitudeDegrees>35.893346183001995086669921875</LatitudeDegrees>
              <LongitudeDegrees>-5.35939802415668964385986328125</LongitudeDegrees>
            </Position>
            <AltitudeMeters>198</AltitudeMeters>
            <DistanceMeters>12321.529516398</DistanceMeters>
          </Trackpoint>
          <Trackpoint>
            <Time>2018-06-10T10:40:15.000Z</Time>
            <Position>
              <LatitudeDegrees>35.8921638317406177520751953125</LatitudeDegrees>
              <LongitudeDegrees>-5.35642571747303009033203125</LongitudeDegrees>
            </Position>
            <AltitudeMeters>167.8000030517578125</AltitudeMeters>
            <DistanceMeters>12620.101063689</DistanceMeters>
          </Trackpoint>
          <Trackpoint>
            <Time>2018-06-10T10:40:16.000Z</Time>
            <Position>
              <LatitudeDegrees>35.89217112399637699127197265625</LatitudeDegrees>
              <LongitudeDegrees>-5.3564121387898921966552734375</LongitudeDegrees>
            </Position>
            <AltitudeMeters>167.8000030517578125</AltitudeMeters>
            <DistanceMeters>12621.567064437</DistanceMeters>
          </Trackpoint>
          <Trackpoint>
            <Time>2018-06-10T10:40:23.000Z</Time>
            <Position>
              <LatitudeDegrees>35.89217799715697765350341796875</LatitudeDegrees>
              <LongitudeDegrees>-5.3563507832586765289306640625</LongitudeDegrees>
            </Position>
            <AltitudeMeters>167.399993896484375</AltitudeMeters>
            <DistanceMeters>12627.151854857</DistanceMeters>
          </Trackpoint>
          <Trackpoint>
            <Time>2018-06-10T10:40:24.000Z</Time>
            <Position>
              <LatitudeDegrees>35.89217950589954853057861328125</LatitudeDegrees>
              <LongitudeDegrees>-5.35634131170809268951416015625</LongitudeDegrees>
            </Position>
            <AltitudeMeters>167.399993896484375</AltitudeMeters>
            <DistanceMeters>12628.02278908</DistanceMeters>
          </Trackpoint>
          <Trackpoint>
            <Time>2018-06-10T10:40:31.000Z</Time>
            <Position>
              <LatitudeDegrees>35.892162658274173736572265625</LatitudeDegrees>
              <LongitudeDegrees>-5.356232263147830963134765625</LongitudeDegrees>
            </Position>
            <AltitudeMeters>166.1999969482421875</AltitudeMeters>
            <DistanceMeters>12638.032670609</DistanceMeters>
          </Trackpoint>
          <Trackpoint>
            <Time>2018-06-10T10:40:32.000Z</Time>
            <Position>
              <LatitudeDegrees>35.89216358028352260589599609375</LatitudeDegrees>
              <LongitudeDegrees>-5.35621583461761474609375</LongitudeDegrees>
            </Position>
            <AltitudeMeters>166</AltitudeMeters>
            <DistanceMeters>12639.517035339</DistanceMeters>
          </Trackpoint>
          <Trackpoint>
            <Time>2018-06-10T10:40:38.000Z</Time>
            <Position>
              <LatitudeDegrees>35.89216777123510837554931640625</LatitudeDegrees>
              <LongitudeDegrees>-5.35612053237855434417724609375</LongitudeDegrees>
            </Position>
            <AltitudeMeters>165.1999969482421875</AltitudeMeters>
            <DistanceMeters>12648.12207031</DistanceMeters>
          </Trackpoint>
          <Trackpoint>
            <Time>2018-06-10T10:40:43.000Z</Time>
            <Position>
              <LatitudeDegrees>35.8921490795910358428955078125</LatitudeDegrees>
              <LongitudeDegrees>-5.356041155755519866943359375</LongitudeDegrees>
            </Position>
            <AltitudeMeters>164</AltitudeMeters>
            <DistanceMeters>12655.575460832</DistanceMeters>
          </Trackpoint>
          <Trackpoint>
            <Time>2018-06-10T10:40:45.000Z</Time>
            <Position>
              <LatitudeDegrees>35.892146565020084381103515625</LatitudeDegrees>
              <LongitudeDegrees>-5.356012322008609771728515625</LongitudeDegrees>
            </Position>
            <AltitudeMeters>163.600006103515625</AltitudeMeters>
            <DistanceMeters>12658.191717308</DistanceMeters>
          </Trackpoint>
          <Trackpoint>
            <Time>2018-06-10T10:40:50.000Z</Time>
            <Position>
              <LatitudeDegrees>35.89213809929788112640380859375</LatitudeDegrees>
              <LongitudeDegrees>-5.35593059845268726348876953125</LongitudeDegrees>
            </Position>
            <AltitudeMeters>162.600006103515625</AltitudeMeters>
            <DistanceMeters>12665.61962193</DistanceMeters>
          </Trackpoint>
          <Trackpoint>
            <Time>2018-06-10T10:40:52.000Z</Time>
            <Position>
              <LatitudeDegrees>35.89213139377534389495849609375</LatitudeDegrees>
              <LongitudeDegrees>-5.35589572973549365997314453125</LongitudeDegrees>
            </Position>
            <AltitudeMeters>162.1999969482421875</AltitudeMeters>
            <DistanceMeters>12668.850530218</DistanceMeters>
          </Trackpoint>
          <Trackpoint>
            <Time>2018-06-10T10:40:58.000Z</Time>
            <Position>
              <LatitudeDegrees>35.8921172283589839935302734375</LatitudeDegrees>
              <LongitudeDegrees>-5.35578693263232707977294921875</LongitudeDegrees>
            </Position>
            <AltitudeMeters>160.8000030517578125</AltitudeMeters>
            <DistanceMeters>12678.786617263</DistanceMeters>
          </Trackpoint>
          <Trackpoint>
            <Time>2018-06-10T10:41:07.000Z</Time>
            <Position>
              <LatitudeDegrees>35.8921086788177490234375</LatitudeDegrees>
              <LongitudeDegrees>-5.35564326681196689605712890625</LongitudeDegrees>
            </Position>
            <AltitudeMeters>159.1999969482421875</AltitudeMeters>
            <DistanceMeters>12691.775416984</DistanceMeters>
          </Trackpoint>
          <Trackpoint>
            <Time>2018-06-10T10:41:15.000Z</Time>
            <Position>
              <LatitudeDegrees>35.89214765466749668121337890625</LatitudeDegrees>
              <LongitudeDegrees>-5.3555256687104701995849609375</LongitudeDegrees>
            </Position>
            <AltitudeMeters>159</AltitudeMeters>
            <DistanceMeters>12703.232344635</DistanceMeters>
          </Trackpoint>
          <Trackpoint>
            <Time>2018-06-10T10:41:20.000Z</Time>
            <Position>
              <LatitudeDegrees>35.89217749424278736114501953125</LatitudeDegrees>
              <LongitudeDegrees>-5.35544511862099170684814453125</LongitudeDegrees>
            </Position>
            <AltitudeMeters>158.600006103515625</AltitudeMeters>
            <DistanceMeters>12711.219112442</DistanceMeters>
          </Trackpoint>
          <Trackpoint>
            <Time>2018-06-10T10:41:25.000Z</Time>
            <Position>
              <LatitudeDegrees>35.89219610206782817840576171875</LatitudeDegrees>
              <LongitudeDegrees>-5.35536481998860836029052734375</LongitudeDegrees>
            </Position>
            <AltitudeMeters>157.399993896484375</AltitudeMeters>
            <DistanceMeters>12718.749642308</DistanceMeters>
          </Trackpoint>
          <Trackpoint>
            <Time>2018-06-10T10:41:28.000Z</Time>
            <Position>
              <LatitudeDegrees>35.892210938036441802978515625</LatitudeDegrees>
              <LongitudeDegrees>-5.35532332956790924072265625</LongitudeDegrees>
            </Position>
            <AltitudeMeters>156.600006103515625</AltitudeMeters>
            <DistanceMeters>12722.838000352</DistanceMeters>
          </Trackpoint>
          <Trackpoint>
            <Time>2018-06-10T10:41:33.000Z</Time>
            <Position>
              <LatitudeDegrees>35.8922385983169078826904296875</LatitudeDegrees>
              <LongitudeDegrees>-5.35524152219295501708984375</LongitudeDegrees>
            </Position>
            <AltitudeMeters>155.1999969482421875</AltitudeMeters>
            <DistanceMeters>12730.830984203</DistanceMeters>
          </Trackpoint>
          <Trackpoint>
            <Time>2018-06-10T10:41:34.000Z</Time>
            <Position>
              <LatitudeDegrees>35.89224354363977909088134765625</LatitudeDegrees>
              <LongitudeDegrees>-5.35522534511983394622802734375</LongitudeDegrees>
            </Position>
            <AltitudeMeters>154.600006103515625</AltitudeMeters>
            <DistanceMeters>12732.389538201</DistanceMeters>
          </Trackpoint>
          <Trackpoint>
            <Time>2018-06-10T10:41:35.000Z</Time>
            <Position>
              <LatitudeDegrees>35.89224345982074737548828125</LatitudeDegrees>
              <LongitudeDegrees>-5.35520925186574459075927734375</LongitudeDegrees>
            </Position>
            <AltitudeMeters>154.399993896484375</AltitudeMeters>
            <DistanceMeters>12733.840058042</DistanceMeters>
          </Trackpoint>
          <Trackpoint>
            <Time>2018-06-10T10:41:39.000Z</Time>
            <Position>
              <LatitudeDegrees>35.89223273098468780517578125</LatitudeDegrees>
              <LongitudeDegrees>-5.35514169372618198394775390625</LongitudeDegrees>
            </Position>
            <AltitudeMeters>153.8000030517578125</AltitudeMeters>
            <DistanceMeters>12740.046692083</DistanceMeters>
          </Trackpoint>
          <Trackpoint>
            <Time>2018-06-10T10:41:44.000Z</Time>
            <Position>
              <LatitudeDegrees>35.89222292415797710418701171875</LatitudeDegrees>
              <LongitudeDegrees>-5.35505871288478374481201171875</LongitudeDegrees>
            </Position>
            <AltitudeMeters>152.600006103515625</AltitudeMeters>
            <DistanceMeters>12747.608335029</DistanceMeters>
          </Trackpoint>
          <Trackpoint>
            <Time>2018-06-10T10:41:54.000Z</Time>
            <Position>
              <LatitudeDegrees>35.89220331050455570220947265625</LatitudeDegrees>
              <LongitudeDegrees>-5.354882441461086273193359375</LongitudeDegrees>
            </Position>
            <AltitudeMeters>149.8000030517578125</AltitudeMeters>
            <DistanceMeters>12763.651816539</DistanceMeters>
          </Trackpoint>
          <Trackpoint>
            <Time>2018-06-10T10:42:08.000Z</Time>
            <Position>
              <LatitudeDegrees>35.892200209200382232666015625</LatitudeDegrees>
              <LongitudeDegrees>-5.3546573035418987274169921875</LongitudeDegrees>
            </Position>
            <AltitudeMeters>146.600006103515625</AltitudeMeters>
            <DistanceMeters>12783.955091882</DistanceMeters>
          </Trackpoint>
          <Trackpoint>
            <Time>2018-06-10T10:42:11.000Z</Time>
            <Position>
              <LatitudeDegrees>35.89219794608652591705322265625</LatitudeDegrees>
              <LongitudeDegrees>-5.35461061634123325347900390625</LongitudeDegrees>
            </Position>
            <AltitudeMeters>146.399993896484375</AltitudeMeters>
            <DistanceMeters>12788.171751759</DistanceMeters>
          </Trackpoint>
          <Trackpoint>
            <Time>2018-06-10T10:42:12.000Z</Time>
            <Position>
              <LatitudeDegrees>35.89219777844846248626708984375</LatitudeDegrees>
              <LongitudeDegrees>-5.354594103991985321044921875</LongitudeDegrees>
            </Position>
            <AltitudeMeters>146.1999969482421875</AltitudeMeters>
            <DistanceMeters>12789.65915511</DistanceMeters>
          </Trackpoint>
          <Trackpoint>
            <Time>2018-06-10T10:42:18.000Z</Time>
            <Position>
              <LatitudeDegrees>35.8921916596591472625732421875</LatitudeDegrees>
              <LongitudeDegrees>-5.3544993884861469268798828125</LongitudeDegrees>
            </Position>
            <AltitudeMeters>145.600006103515625</AltitudeMeters>
            <DistanceMeters>12798.226328584</DistanceMeters>
          </Trackpoint>
          <Trackpoint>
            <Time>2018-06-10T10:42:19.000Z</Time>
            <Position>
              <LatitudeDegrees>35.89219157584011554718017578125</LatitudeDegrees>
              <LongitudeDegrees>-5.3544846363365650177001953125</LongitudeDegrees>
            </Position>
            <AltitudeMeters>145.600006103515625</AltitudeMeters>
            <DistanceMeters>12799.556702585</DistanceMeters>
          </Trackpoint>
          <Trackpoint>
            <Time>2018-06-10T10:42:29.000Z</Time>
            <Position>
              <LatitudeDegrees>35.8922111056745052337646484375</LatitudeDegrees>
              <LongitudeDegrees>-5.354330576956272125244140625</LongitudeDegrees>
            </Position>
            <AltitudeMeters>144.1999969482421875</AltitudeMeters>
            <DistanceMeters>12813.617124471</DistanceMeters>
          </Trackpoint>
          <Trackpoint>
            <Time>2018-06-10T10:42:33.000Z</Time>
            <Position>
              <LatitudeDegrees>35.89221051894128322601318359375</LatitudeDegrees>
              <LongitudeDegrees>-5.35426528193056583404541015625</LongitudeDegrees>
            </Position>
            <AltitudeMeters>143.600006103515625</AltitudeMeters>
            <DistanceMeters>12819.505714586</DistanceMeters>
          </Trackpoint>
          <Trackpoint>
            <Time>2018-06-10T10:42:37.000Z</Time>
            <Position>
              <LatitudeDegrees>35.89221638627350330352783203125</LatitudeDegrees>
              <LongitudeDegrees>-5.3542013280093669891357421875</LongitudeDegrees>
            </Position>
            <AltitudeMeters>143</AltitudeMeters>
            <DistanceMeters>12825.308572077</DistanceMeters>
          </Trackpoint>
          <Trackpoint>
            <Time>2018-06-10T10:42:45.000Z</Time>
            <Position>
              <LatitudeDegrees>35.8922181464731693267822265625</LatitudeDegrees>
              <LongitudeDegrees>-5.35408205352723598480224609375</LongitudeDegrees>
            </Position>
            <AltitudeMeters>142.1999969482421875</AltitudeMeters>
            <DistanceMeters>12836.065495408</DistanceMeters>
          </Trackpoint>
          <Trackpoint>
            <Time>2018-06-10T10:42:49.000Z</Time>
            <Position>
              <LatitudeDegrees>35.89222409762442111968994140625</LatitudeDegrees>
              <LongitudeDegrees>-5.3540179319679737091064453125</LongitudeDegrees>
            </Position>
            <AltitudeMeters>141.600006103515625</AltitudeMeters>
            <DistanceMeters>12841.884669461</DistanceMeters>
          </Trackpoint>
          <Trackpoint>
            <Time>2018-06-10T10:42:54.000Z</Time>
            <Position>
              <LatitudeDegrees>35.89223348535597324371337890625</LatitudeDegrees>
              <LongitudeDegrees>-5.35393662750720977783203125</LongitudeDegrees>
            </Position>
            <AltitudeMeters>140.8000030517578125</AltitudeMeters>
            <DistanceMeters>12849.289439827</DistanceMeters>
          </Trackpoint>
          <Trackpoint>
            <Time>2018-06-10T10:42:56.000Z</Time>
            <Position>
              <LatitudeDegrees>35.89223851449787616729736328125</LatitudeDegrees>
              <LongitudeDegrees>-5.35390670411288738250732421875</LongitudeDegrees>
            </Position>
            <AltitudeMeters>140.399993896484375</AltitudeMeters>
            <DistanceMeters>12852.045214544</DistanceMeters>
          </Trackpoint>
          <Trackpoint>
            <Time>2018-06-10T10:43:00.000Z</Time>
            <Position>
              <LatitudeDegrees>35.89224538765847682952880859375</LatitudeDegrees>
              <LongitudeDegrees>-5.35384769551455974578857421875</LongitudeDegrees>
            </Position>
            <AltitudeMeters>139.8000030517578125</AltitudeMeters>
            <DistanceMeters>12857.420737274</DistanceMeters>
          </Trackpoint>
          <Trackpoint>
            <Time>2018-06-10T10:43:02.000Z</Time>
            <Position>
              <LatitudeDegrees>35.89224874041974544525146484375</LatitudeDegrees>
              <LongitudeDegrees>-5.353816933929920196533203125</LongitudeDegrees>
            </Position>
            <AltitudeMeters>139.399993896484375</AltitudeMeters>
            <DistanceMeters>12860.220399102</DistanceMeters>
          </Trackpoint>
          <Trackpoint>
            <Time>2018-06-10T10:43:08.000Z</Time>
            <Position>
              <LatitudeDegrees>35.892250500619411468505859375</LatitudeDegrees>
              <LongitudeDegrees>-5.35372196696698665618896484375</LongitudeDegrees>
            </Position>
            <AltitudeMeters>139.399993896484375</AltitudeMeters>
            <DistanceMeters>12868.785991382</DistanceMeters>
          </Trackpoint>
          <Trackpoint>
            <Time>2018-06-10T10:43:13.000Z</Time>
            <Position>
              <LatitudeDegrees>35.89224656112492084503173828125</LatitudeDegrees>
              <LongitudeDegrees>-5.3536397404968738555908203125</LongitudeDegrees>
            </Position>
            <AltitudeMeters>139.399993896484375</AltitudeMeters>
            <DistanceMeters>12876.213896004</DistanceMeters>
          </Trackpoint>
          <Trackpoint>
            <Time>2018-06-10T10:43:14.000Z</Time>
            <Position>
              <LatitudeDegrees>35.892245136201381683349609375</LatitudeDegrees>
              <LongitudeDegrees>-5.3536234796047210693359375</LongitudeDegrees>
            </Position>
            <AltitudeMeters>139.600006103515625</AltitudeMeters>
            <DistanceMeters>12877.686043533</DistanceMeters>
          </Trackpoint>
          <Trackpoint>
            <Time>2018-06-10T10:43:20.000Z</Time>
            <Position>
              <LatitudeDegrees>35.8922426216304302215576171875</LatitudeDegrees>
              <LongitudeDegrees>-5.3535296022891998291015625</LongitudeDegrees>
            </Position>
            <AltitudeMeters>139.600006103515625</AltitudeMeters>
            <DistanceMeters>12886.154624708</DistanceMeters>
          </Trackpoint>
          <Trackpoint>
            <Time>2018-06-10T10:43:21.000Z</Time>
            <Position>
              <LatitudeDegrees>35.89224211871623992919921875</LatitudeDegrees>
              <LongitudeDegrees>-5.35351325757801532745361328125</LongitudeDegrees>
            </Position>
            <AltitudeMeters>139.600006103515625</AltitudeMeters>
            <DistanceMeters>12887.626772237</DistanceMeters>
          </Trackpoint>
          <Trackpoint>
            <Time>2018-06-10T10:43:22.000Z</Time>
            <Position>
              <LatitudeDegrees>35.89224203489720821380615234375</LatitudeDegrees>
              <LongitudeDegrees>-5.35349766723811626434326171875</LongitudeDegrees>
            </Position>
            <AltitudeMeters>139.600006103515625</AltitudeMeters>
            <DistanceMeters>12889.033039189</DistanceMeters>
          </Trackpoint>
          <Trackpoint>
            <Time>2018-06-10T10:43:26.000Z</Time>
            <Position>
              <LatitudeDegrees>35.89224220253527164459228515625</LatitudeDegrees>
              <LongitudeDegrees>-5.3534348867833614349365234375</LongitudeDegrees>
            </Position>
            <AltitudeMeters>139.600006103515625</AltitudeMeters>
            <DistanceMeters>12894.693314025</DistanceMeters>
          </Trackpoint>
          <Trackpoint>
            <Time>2018-06-10T10:43:28.000Z</Time>
            <Position>
              <LatitudeDegrees>35.8922426216304302215576171875</LatitudeDegrees>
              <LongitudeDegrees>-5.35340295173227787017822265625</LongitudeDegrees>
            </Position>
            <AltitudeMeters>139.600006103515625</AltitudeMeters>
            <DistanceMeters>12897.572482338</DistanceMeters>
          </Trackpoint>
          <Trackpoint>
            <Time>2018-06-10T10:43:34.000Z</Time>
            <Position>
              <LatitudeDegrees>35.89224052615463733673095703125</LatitudeDegrees>
              <LongitudeDegrees>-5.353305637836456298828125</LongitudeDegrees>
            </Position>
            <AltitudeMeters>139.600006103515625</AltitudeMeters>
            <DistanceMeters>12906.349988375</DistanceMeters>
          </Trackpoint>
          <Trackpoint>
            <Time>2018-06-10T10:43:38.000Z</Time>
            <Position>
              <LatitudeDegrees>35.8922365866601467132568359375</LatitudeDegrees>
              <LongitudeDegrees>-5.35324570722877979278564453125</LongitudeDegrees>
            </Position>
            <AltitudeMeters>139.8000030517578125</AltitudeMeters>
            <DistanceMeters>12911.772342928</DistanceMeters>
          </Trackpoint>
          <Trackpoint>
            <Time>2018-06-10T10:43:43.000Z</Time>
            <Position>
              <LatitudeDegrees>35.89222677983343601226806640625</LatitudeDegrees>
              <LongitudeDegrees>-5.35317412577569484710693359375</LongitudeDegrees>
            </Position>
            <AltitudeMeters>140</AltitudeMeters>
            <DistanceMeters>12918.318849081</DistanceMeters>
          </Trackpoint>
          <Trackpoint>
            <Time>2018-06-10T10:43:47.000Z</Time>
            <Position>
              <LatitudeDegrees>35.89220951311290264129638671875</LatitudeDegrees>
              <LongitudeDegrees>-5.35312031395733356475830078125</LongitudeDegrees>
            </Position>
            <AltitudeMeters>140.1999969482421875</AltitudeMeters>
            <DistanceMeters>12923.537537666</DistanceMeters>
          </Trackpoint>
          <Trackpoint>
            <Time>2018-06-10T10:43:50.000Z</Time>
            <Position>
              <LatitudeDegrees>35.89219694025814533233642578125</LatitudeDegrees>
              <LongitudeDegrees>-5.35308494232594966888427734375</LongitudeDegrees>
            </Position>
            <AltitudeMeters>140.399993896484375</AltitudeMeters>
            <DistanceMeters>12927.019978285</DistanceMeters>
          </Trackpoint>
          <Trackpoint>
            <Time>2018-06-10T10:43:53.000Z</Time>
            <Position>
              <LatitudeDegrees>35.8921836130321025848388671875</LatitudeDegrees>
              <LongitudeDegrees>-5.3530520014464855194091796875</LongitudeDegrees>
            </Position>
            <AltitudeMeters>140.600006103515625</AltitudeMeters>
            <DistanceMeters>12930.34047875</DistanceMeters>
          </Trackpoint>
          <Trackpoint>
            <Time>2018-06-10T10:44:00.000Z</Time>
            <Position>
              <LatitudeDegrees>35.8921571262180805206298828125</LatitudeDegrees>
              <LongitudeDegrees>-5.35298804752528667449951171875</LongitudeDegrees>
            </Position>
            <AltitudeMeters>140</AltitudeMeters>
            <DistanceMeters>12936.816254766</DistanceMeters>
          </Trackpoint>
          <Trackpoint>
            <Time>2018-06-10T10:44:07.000Z</Time>
            <Position>
              <LatitudeDegrees>35.892143212258815765380859375</LatitudeDegrees>
              <LongitudeDegrees>-5.35288696177303791046142578125</LongitudeDegrees>
            </Position>
            <AltitudeMeters>139.1999969482421875</AltitudeMeters>
            <DistanceMeters>12946.061724122</DistanceMeters>
          </Trackpoint>
          <Trackpoint>
            <Time>2018-06-10T10:44:08.000Z</Time>
            <Position>
              <LatitudeDegrees>35.89214229024946689605712890625</LatitudeDegrees>
              <LongitudeDegrees>-5.35287103615701198577880859375</LongitudeDegrees>
            </Position>
            <AltitudeMeters>139.1999969482421875</AltitudeMeters>
            <DistanceMeters>12947.496596043</DistanceMeters>
          </Trackpoint>
          <Trackpoint>
            <Time>2018-06-10T10:44:14.000Z</Time>
            <Position>
              <LatitudeDegrees>35.89214547537267208099365234375</LatitudeDegrees>
              <LongitudeDegrees>-5.35277749411761760711669921875</LongitudeDegrees>
            </Position>
            <AltitudeMeters>138.399993896484375</AltitudeMeters>
            <DistanceMeters>12955.93794269</DistanceMeters>
          </Trackpoint>
          <Trackpoint>
            <Time>2018-06-10T10:44:16.000Z</Time>
            <Position>
              <LatitudeDegrees>35.8921524323523044586181640625</LatitudeDegrees>
              <LongitudeDegrees>-5.35274572670459747314453125</LongitudeDegrees>
            </Position>
            <AltitudeMeters>138.1999969482421875</AltitudeMeters>
            <DistanceMeters>12958.90362886</DistanceMeters>
          </Trackpoint>
          <Trackpoint>
            <Time>2018-06-10T10:44:23.000Z</Time>
            <Position>
              <LatitudeDegrees>35.89220934547483921051025390625</LatitudeDegrees>
              <LongitudeDegrees>-5.3526590578258037567138671875</LongitudeDegrees>
            </Position>
            <AltitudeMeters>137.600006103515625</AltitudeMeters>
            <DistanceMeters>12968.963004419</DistanceMeters>
          </Trackpoint>
          <Trackpoint>
            <Time>2018-06-10T10:44:31.000Z</Time>
            <Position>
              <LatitudeDegrees>35.89224639348685741424560546875</LatitudeDegrees>
              <LongitudeDegrees>-5.35254715941846370697021484375</LongitudeDegrees>
            </Position>
            <AltitudeMeters>136.600006103515625</AltitudeMeters>
            <DistanceMeters>12979.862945509</DistanceMeters>
          </Trackpoint>
          <Trackpoint>
            <Time>2018-06-10T10:44:35.000Z</Time>
            <Position>
              <LatitudeDegrees>35.89227019809186458587646484375</LatitudeDegrees>
              <LongitudeDegrees>-5.35249049775302410125732421875</LongitudeDegrees>
            </Position>
            <AltitudeMeters>135.600006103515625</AltitudeMeters>
            <DistanceMeters>12985.618144932</DistanceMeters>
          </Trackpoint>
          <Trackpoint>
            <Time>2018-06-10T10:44:42.000Z</Time>
            <Position>
              <LatitudeDegrees>35.8923140354454517364501953125</LatitudeDegrees>
              <LongitudeDegrees>-5.3523938544094562530517578125</LongitudeDegrees>
            </Position>
            <AltitudeMeters>134</AltitudeMeters>
            <DistanceMeters>12995.604996003</DistanceMeters>
          </Trackpoint>
          <Trackpoint>
            <Time>2018-06-10T10:44:49.000Z</Time>
            <Position>
              <LatitudeDegrees>35.89235066436231136322021484375</LatitudeDegrees>
              <LongitudeDegrees>-5.35230190493166446685791015625</LongitudeDegrees>
            </Position>
            <AltitudeMeters>132.399993896484375</AltitudeMeters>
            <DistanceMeters>13004.84362591</DistanceMeters>
          </Trackpoint>
          <Trackpoint>
            <Time>2018-06-10T10:44:56.000Z</Time>
            <Position>
              <LatitudeDegrees>35.89237949810922145843505859375</LatitudeDegrees>
              <LongitudeDegrees>-5.35220316611230373382568359375</LongitudeDegrees>
            </Position>
            <AltitudeMeters>131</AltitudeMeters>
            <DistanceMeters>13014.307256195</DistanceMeters>
          </Trackpoint>
          <Trackpoint>
            <Time>2018-06-10T10:45:00.000Z</Time>
            <Position>
              <LatitudeDegrees>35.8923884667456150054931640625</LatitudeDegrees>
              <LongitudeDegrees>-5.352138541638851165771484375</LongitudeDegrees>
            </Position>
            <AltitudeMeters>130.399993896484375</AltitudeMeters>
            <DistanceMeters>13020.218803863</DistanceMeters>
          </Trackpoint>
          <Trackpoint>
            <Time>2018-06-10T10:45:03.000Z</Time>
            <Position>
              <LatitudeDegrees>35.89239441789686679840087890625</LatitudeDegrees>
              <LongitudeDegrees>-5.352084226906299591064453125</LongitudeDegrees>
            </Position>
            <AltitudeMeters>130.1999969482421875</AltitudeMeters>
            <DistanceMeters>13025.160193011</DistanceMeters>
          </Trackpoint>
          <Trackpoint>
            <Time>2018-06-10T10:45:12.000Z</Time>
            <Position>
              <LatitudeDegrees>35.8923958428204059600830078125</LatitudeDegrees>
              <LongitudeDegrees>-5.35194483585655689239501953125</LongitudeDegrees>
            </Position>
            <AltitudeMeters>129.399993896484375</AltitudeMeters>
            <DistanceMeters>13037.729608966</DistanceMeters>
          </Trackpoint>
          <Trackpoint>
            <Time>2018-06-10T10:45:22.000Z</Time>
            <Position>
              <LatitudeDegrees>35.89235586114227771759033203125</LatitudeDegrees>
              <LongitudeDegrees>-5.35179060883820056915283203125</LongitudeDegrees>
            </Position>
            <AltitudeMeters>127.59999847412109375</AltitudeMeters>
            <DistanceMeters>13052.330673132</DistanceMeters>
          </Trackpoint>
          <Trackpoint>
            <Time>2018-06-10T10:45:34.000Z</Time>
            <Position>
              <LatitudeDegrees>35.89230515062808990478515625</LatitudeDegrees>
              <LongitudeDegrees>-5.3515777923166751861572265625</LongitudeDegrees>
            </Position>
            <AltitudeMeters>125</AltitudeMeters>
            <DistanceMeters>13072.332837188</DistanceMeters>
          </Trackpoint>
          <Trackpoint>
            <Time>2018-06-10T10:45:42.000Z</Time>
            <Position>
              <LatitudeDegrees>35.89229651726782321929931640625</LatitudeDegrees>
              <LongitudeDegrees>-5.3514383174479007720947265625</LongitudeDegrees>
            </Position>
            <AltitudeMeters>123.1999969482421875</AltitudeMeters>
            <DistanceMeters>13084.945284477</DistanceMeters>
          </Trackpoint>
          <Trackpoint>
            <Time>2018-06-10T10:45:47.000Z</Time>
            <Position>
              <LatitudeDegrees>35.89232484810054302215576171875</LatitudeDegrees>
              <LongitudeDegrees>-5.35136195831000804901123046875</LongitudeDegrees>
            </Position>
            <AltitudeMeters>121.8000030517578125</AltitudeMeters>
            <DistanceMeters>13092.517667551</DistanceMeters>
          </Trackpoint>
          <Trackpoint>
            <Time>2018-06-10T10:45:51.000Z</Time>
            <Position>
              <LatitudeDegrees>35.8923653326928615570068359375</LatitudeDegrees>
              <LongitudeDegrees>-5.35133262164890766143798828125</LongitudeDegrees>
            </Position>
            <AltitudeMeters>121</AltitudeMeters>
            <DistanceMeters>13097.742408798</DistanceMeters>
          </Trackpoint>
          <Trackpoint>
            <Time>2018-06-10T10:45:54.000Z</Time>
            <Position>
              <LatitudeDegrees>35.892395675182342529296875</LatitudeDegrees>
              <LongitudeDegrees>-5.35133421421051025390625</LongitudeDegrees>
            </Position>
            <AltitudeMeters>120.59999847412109375</AltitudeMeters>
            <DistanceMeters>13101.120872446</DistanceMeters>
          </Trackpoint>
          <Trackpoint>
            <Time>2018-06-10T10:45:57.000Z</Time>
            <Position>
              <LatitudeDegrees>35.892424173653125762939453125</LatitudeDegrees>
              <LongitudeDegrees>-5.35134687088429927825927734375</LongitudeDegrees>
            </Position>
            <AltitudeMeters>120.40000152587890625</AltitudeMeters>
            <DistanceMeters>13104.492647386</DistanceMeters>
          </Trackpoint>
          <Trackpoint>
            <Time>2018-06-10T10:45:58.000Z</Time>
            <Position>
              <LatitudeDegrees>35.89243582449853420257568359375</LatitudeDegrees>
              <LongitudeDegrees>-5.35135240294039249420166015625</LongitudeDegrees>
            </Position>
            <AltitudeMeters>120.40000152587890625</AltitudeMeters>
            <DistanceMeters>13105.882768373</DistanceMeters>
          </Trackpoint>
          <Trackpoint>
            <Time>2018-06-10T10:46:06.000Z</Time>
            <Position>
              <LatitudeDegrees>35.89247949421405792236328125</LatitudeDegrees>
              <LongitudeDegrees>-5.35137251950800418853759765625</LongitudeDegrees>
            </Position>
            <AltitudeMeters>120.1999969482421875</AltitudeMeters>
            <DistanceMeters>13111.070217438</DistanceMeters>
          </Trackpoint>
          <Trackpoint>
            <Time>2018-06-10T10:46:12.000Z</Time>
            <Position>
              <LatitudeDegrees>35.892512686550617218017578125</LatitudeDegrees>
              <LongitudeDegrees>-5.3514007665216922760009765625</LongitudeDegrees>
            </Position>
            <AltitudeMeters>120.40000152587890625</AltitudeMeters>
            <DistanceMeters>13115.55765217</DistanceMeters>
          </Trackpoint>
          <Trackpoint>
            <Time>2018-06-10T10:46:14.000Z</Time>
            <Position>
              <LatitudeDegrees>35.89253045618534088134765625</LatitudeDegrees>
              <LongitudeDegrees>-5.351424403488636016845703125</LongitudeDegrees>
            </Position>
            <AltitudeMeters>120.40000152587890625</AltitudeMeters>
            <DistanceMeters>13118.464910595</DistanceMeters>
          </Trackpoint>
          <Trackpoint>
            <Time>2018-06-10T10:46:24.000Z</Time>
            <Position>
              <LatitudeDegrees>35.89264386333525180816650390625</LatitudeDegrees>
              <LongitudeDegrees>-5.3515409119427204132080078125</LongitudeDegrees>
            </Position>
            <AltitudeMeters>121</AltitudeMeters>
            <DistanceMeters>13134.886670638</DistanceMeters>
          </Trackpoint>
          <Trackpoint>
            <Time>2018-06-10T10:46:31.000Z</Time>
            <Position>
              <LatitudeDegrees>35.8927086554467678070068359375</LatitudeDegrees>
              <LongitudeDegrees>-5.3516408242285251617431640625</LongitudeDegrees>
            </Position>
            <AltitudeMeters>121.59999847412109375</AltitudeMeters>
            <DistanceMeters>13146.426842535</DistanceMeters>
          </Trackpoint>
          <Trackpoint>
            <Time>2018-06-10T10:46:39.000Z</Time>
            <Position>
              <LatitudeDegrees>35.8927455358207225799560546875</LatitudeDegrees>
              <LongitudeDegrees>-5.351748950779438018798828125</LongitudeDegrees>
            </Position>
            <AltitudeMeters>121.40000152587890625</AltitudeMeters>
            <DistanceMeters>13157.005582411</DistanceMeters>
          </Trackpoint>
          <Trackpoint>
            <Time>2018-06-10T10:46:43.000Z</Time>
            <Position>
              <LatitudeDegrees>35.89276137761771678924560546875</LatitudeDegrees>
              <LongitudeDegrees>-5.35181701183319091796875</LongitudeDegrees>
            </Position>
            <AltitudeMeters>121.1999969482421875</AltitudeMeters>
            <DistanceMeters>13163.390783672</DistanceMeters>
          </Trackpoint>
          <Trackpoint>
            <Time>2018-06-10T10:46:50.000Z</Time>
            <Position>
              <LatitudeDegrees>35.8927961625158786773681640625</LatitudeDegrees>
              <LongitudeDegrees>-5.35191080532968044281005859375</LongitudeDegrees>
            </Position>
            <AltitudeMeters>120.59999847412109375</AltitudeMeters>
            <DistanceMeters>13172.692243902</DistanceMeters>
          </Trackpoint>
          <Trackpoint>
            <Time>2018-06-10T10:46:52.000Z</Time>
            <Position>
              <LatitudeDegrees>35.89281233958899974822998046875</LatitudeDegrees>
              <LongitudeDegrees>-5.35193033516407012939453125</LongitudeDegrees>
            </Position>
            <AltitudeMeters>120.1999969482421875</AltitudeMeters>
            <DistanceMeters>13175.210003554</DistanceMeters>
          </Trackpoint>
          <Trackpoint>
            <Time>2018-06-10T10:46:58.000Z</Time>
            <Position>
              <LatitudeDegrees>35.89285206981003284454345703125</LatitudeDegrees>
              <LongitudeDegrees>-5.3519921936094760894775390625</LongitudeDegrees>
            </Position>
            <AltitudeMeters>119.59999847412109375</AltitudeMeters>
            <DistanceMeters>13182.327498116</DistanceMeters>
          </Trackpoint>
          <Trackpoint>
            <Time>2018-06-10T10:47:04.000Z</Time>
            <Position>
              <LatitudeDegrees>35.892910994589328765869140625</LatitudeDegrees>
              <LongitudeDegrees>-5.3520240448415279388427734375</LongitudeDegrees>
            </Position>
            <AltitudeMeters>118.1999969482421875</AltitudeMeters>
            <DistanceMeters>13189.48799908</DistanceMeters>
          </Trackpoint>
          <Trackpoint>
            <Time>2018-06-10T10:47:10.000Z</Time>
            <Position>
              <LatitudeDegrees>35.8929859288036823272705078125</LatitudeDegrees>
              <LongitudeDegrees>-5.3520227037370204925537109375</LongitudeDegrees>
            </Position>
            <AltitudeMeters>116.59999847412109375</AltitudeMeters>
            <DistanceMeters>13197.828725003</DistanceMeters>
          </Trackpoint>
          <Trackpoint>
            <Time>2018-06-10T10:47:14.000Z</Time>
            <Position>
              <LatitudeDegrees>35.89304502122104167938232421875</LatitudeDegrees>
              <LongitudeDegrees>-5.35199546255171298980712890625</LongitudeDegrees>
            </Position>
            <AltitudeMeters>115.1999969482421875</AltitudeMeters>
            <DistanceMeters>13204.849778151</DistanceMeters>
          </Trackpoint>
          <Trackpoint>
            <Time>2018-06-10T10:47:15.000Z</Time>
            <Position>
              <LatitudeDegrees>35.89306144975125789642333984375</LatitudeDegrees>
              <LongitudeDegrees>-5.35198875702917575836181640625</LongitudeDegrees>
            </Position>
            <AltitudeMeters>114.8000030517578125</AltitudeMeters>
            <DistanceMeters>13206.778609791</DistanceMeters>
          </Trackpoint>
          <Trackpoint>
            <Time>2018-06-10T10:47:20.000Z</Time>
            <Position>
              <LatitudeDegrees>35.89312448166310787200927734375</LatitudeDegrees>
              <LongitudeDegrees>-5.3519576601684093475341796875</LongitudeDegrees>
            </Position>
            <AltitudeMeters>113.1999969482421875</AltitudeMeters>
            <DistanceMeters>13214.334279402</DistanceMeters>
          </Trackpoint>
          <Trackpoint>
            <Time>2018-06-10T10:47:25.000Z</Time>
            <Position>
              <LatitudeDegrees>35.89320226572453975677490234375</LatitudeDegrees>
              <LongitudeDegrees>-5.35190979950129985809326171875</LongitudeDegrees>
            </Position>
            <AltitudeMeters>111.1999969482421875</AltitudeMeters>
            <DistanceMeters>13224.00742016</DistanceMeters>
          </Trackpoint>
          <Trackpoint>
            <Time>2018-06-10T10:47:34.000Z</Time>
            <Position>
              <LatitudeDegrees>35.8933007530868053436279296875</LatitudeDegrees>
              <LongitudeDegrees>-5.3518144972622394561767578125</LongitudeDegrees>
            </Position>
            <AltitudeMeters>108.59999847412109375</AltitudeMeters>
            <DistanceMeters>13237.93588606</DistanceMeters>
          </Trackpoint>
          <Trackpoint>
            <Time>2018-06-10T10:47:41.000Z</Time>
            <Position>
              <LatitudeDegrees>35.89336403645575046539306640625</LatitudeDegrees>
              <LongitudeDegrees>-5.35171533934772014617919921875</LongitudeDegrees>
            </Position>
            <AltitudeMeters>106.8000030517578125</AltitudeMeters>
            <DistanceMeters>13249.318087373</DistanceMeters>
          </Trackpoint>
          <Trackpoint>
            <Time>2018-06-10T10:47:52.000Z</Time>
            <Position>
              <LatitudeDegrees>35.89346428401768207550048828125</LatitudeDegrees>
              <LongitudeDegrees>-5.35153546370565891265869140625</LongitudeDegrees>
            </Position>
            <AltitudeMeters>104</AltitudeMeters>
            <DistanceMeters>13269.004448663</DistanceMeters>
          </Trackpoint>
          <Trackpoint>
            <Time>2018-06-10T10:48:04.000Z</Time>
            <Position>
              <LatitudeDegrees>35.8935136534273624420166015625</LatitudeDegrees>
              <LongitudeDegrees>-5.3513484634459018707275390625</LongitudeDegrees>
            </Position>
            <AltitudeMeters>102.40000152587890625</AltitudeMeters>
            <DistanceMeters>13286.738582484</DistanceMeters>
          </Trackpoint>
          <Trackpoint>
            <Time>2018-06-10T10:48:08.000Z</Time>
            <Position>
              <LatitudeDegrees>35.8935414813458919525146484375</LatitudeDegrees>
              <LongitudeDegrees>-5.3512874431908130645751953125</LongitudeDegrees>
            </Position>
            <AltitudeMeters>101.8000030517578125</AltitudeMeters>
            <DistanceMeters>13293.051961724</DistanceMeters>
          </Trackpoint>
          <Trackpoint>
            <Time>2018-06-10T10:48:12.000Z</Time>
            <Position>
              <LatitudeDegrees>35.8935610949993133544921875</LatitudeDegrees>
              <LongitudeDegrees>-5.35123002715408802032470703125</LongitudeDegrees>
            </Position>
            <AltitudeMeters>102.1999969482421875</AltitudeMeters>
            <DistanceMeters>13298.670604553</DistanceMeters>
          </Trackpoint>
          <Trackpoint>
            <Time>2018-06-10T10:48:16.000Z</Time>
            <Position>
              <LatitudeDegrees>35.8935797028243541717529296875</LatitudeDegrees>
              <LongitudeDegrees>-5.35116649232804775238037109375</LongitudeDegrees>
            </Position>
            <AltitudeMeters>102.59999847412109375</AltitudeMeters>
            <DistanceMeters>13304.761216512</DistanceMeters>
          </Trackpoint>
          <Trackpoint>
            <Time>2018-06-10T10:48:30.000Z</Time>
            <Position>
              <LatitudeDegrees>35.89359805919229984283447265625</LatitudeDegrees>
              <LongitudeDegrees>-5.35093632526695728302001953125</LongitudeDegrees>
            </Position>
            <AltitudeMeters>105.1999969482421875</AltitudeMeters>
            <DistanceMeters>13325.615196505</DistanceMeters>
          </Trackpoint>
          <Trackpoint>
            <Time>2018-06-10T10:48:40.000Z</Time>
            <Position>
              <LatitudeDegrees>35.89360241778194904327392578125</LatitudeDegrees>
              <LongitudeDegrees>-5.350751169025897979736328125</LongitudeDegrees>
            </Position>
            <AltitudeMeters>107</AltitudeMeters>
            <DistanceMeters>13342.31720601</DistanceMeters>
          </Trackpoint>
          <Trackpoint>
            <Time>2018-06-10T10:48:42.000Z</Time>
            <Position>
              <LatitudeDegrees>35.8936013281345367431640625</LatitudeDegrees>
              <LongitudeDegrees>-5.3507141210138797760009765625</LongitudeDegrees>
            </Position>
            <AltitudeMeters>106.8000030517578125</AltitudeMeters>
            <DistanceMeters>13345.660742257</DistanceMeters>
          </Trackpoint>
          <Trackpoint>
            <Time>2018-06-10T10:48:48.000Z</Time>
            <Position>
              <LatitudeDegrees>35.89358364231884479522705078125</LatitudeDegrees>
              <LongitudeDegrees>-5.35061462782323360443115234375</LongitudeDegrees>
            </Position>
            <AltitudeMeters>106</AltitudeMeters>
            <DistanceMeters>13354.845456414</DistanceMeters>
          </Trackpoint>
          <Trackpoint>
            <Time>2018-06-10T10:48:53.000Z</Time>
            <Position>
              <LatitudeDegrees>35.8935823850333690643310546875</LatitudeDegrees>
              <LongitudeDegrees>-5.35053156316280364990234375</LongitudeDegrees>
            </Position>
            <AltitudeMeters>105.1999969482421875</AltitudeMeters>
            <DistanceMeters>13362.336310506</DistanceMeters>
          </Trackpoint>
          <Trackpoint>
            <Time>2018-06-10T10:48:55.000Z</Time>
            <Position>
              <LatitudeDegrees>35.89358498342335224151611328125</LatitudeDegrees>
              <LongitudeDegrees>-5.35049443133175373077392578125</LongitudeDegrees>
            </Position>
            <AltitudeMeters>105</AltitudeMeters>
            <DistanceMeters>13365.698698899</DistanceMeters>
          </Trackpoint>
          <Trackpoint>
            <Time>2018-06-10T10:49:08.000Z</Time>
            <Position>
              <LatitudeDegrees>35.89361180551350116729736328125</LatitudeDegrees>
              <LongitudeDegrees>-5.35026158206164836883544921875</LongitudeDegrees>
            </Position>
            <AltitudeMeters>104.1999969482421875</AltitudeMeters>
            <DistanceMeters>13386.90499129</DistanceMeters>
          </Trackpoint>
          <Trackpoint>
            <Time>2018-06-10T10:49:13.000Z</Time>
            <Position>
              <LatitudeDegrees>35.89363611303269863128662109375</LatitudeDegrees>
              <LongitudeDegrees>-5.350181870162487030029296875</LongitudeDegrees>
            </Position>
            <AltitudeMeters>104</AltitudeMeters>
            <DistanceMeters>13394.58512536</DistanceMeters>
          </Trackpoint>
          <Trackpoint>
            <Time>2018-06-10T10:49:19.000Z</Time>
            <Position>
              <LatitudeDegrees>35.89368539862334728240966796875</LatitudeDegrees>
              <LongitudeDegrees>-5.3501019068062305450439453125</LongitudeDegrees>
            </Position>
            <AltitudeMeters>103.59999847412109375</AltitudeMeters>
            <DistanceMeters>13403.64511404</DistanceMeters>
          </Trackpoint>
          <Trackpoint>
            <Time>2018-06-10T10:49:30.000Z</Time>
            <Position>
              <LatitudeDegrees>35.893788747489452362060546875</LatitudeDegrees>
              <LongitudeDegrees>-5.35002554766833782196044921875</LongitudeDegrees>
            </Position>
            <AltitudeMeters>103.1999969482421875</AltitudeMeters>
            <DistanceMeters>13417.051628932</DistanceMeters>
          </Trackpoint>
          <Trackpoint>
            <Time>2018-06-10T10:49:34.000Z</Time>
            <Position>
              <LatitudeDegrees>35.89382789097726345062255859375</LatitudeDegrees>
              <LongitudeDegrees>-5.3500066883862018585205078125</LongitudeDegrees>
            </Position>
            <AltitudeMeters>103</AltitudeMeters>
            <DistanceMeters>13421.728256471</DistanceMeters>
          </Trackpoint>
          <Trackpoint>
            <Time>2018-06-10T10:49:49.000Z</Time>
            <Position>
              <LatitudeDegrees>35.89401698671281337738037109375</LatitudeDegrees>
              <LongitudeDegrees>-5.34999570809304714202880859375</LongitudeDegrees>
            </Position>
            <AltitudeMeters>100.8000030517578125</AltitudeMeters>
            <DistanceMeters>13442.798059938</DistanceMeters>
          </Trackpoint>
          <Trackpoint>
            <Time>2018-06-10T10:49:54.000Z</Time>
            <Position>
              <LatitudeDegrees>35.894077755510807037353515625</LatitudeDegrees>
              <LongitudeDegrees>-5.34997844137251377105712890625</LongitudeDegrees>
            </Position>
            <AltitudeMeters>99.8000030517578125</AltitudeMeters>
            <DistanceMeters>13449.738914196</DistanceMeters>
          </Trackpoint>
          <Trackpoint>
            <Time>2018-06-10T10:50:02.000Z</Time>
            <Position>
              <LatitudeDegrees>35.89416802860796451568603515625</LatitudeDegrees>
              <LongitudeDegrees>-5.34991624765098094940185546875</LongitudeDegrees>
            </Position>
            <AltitudeMeters>98.1999969482421875</AltitudeMeters>
            <DistanceMeters>13461.2453898</DistanceMeters>
          </Trackpoint>
          <Trackpoint>
            <Time>2018-06-10T10:50:12.000Z</Time>
            <Position>
              <LatitudeDegrees>35.89429995976388454437255859375</LatitudeDegrees>
              <LongitudeDegrees>-5.3498326800763607025146484375</LongitudeDegrees>
            </Position>
            <AltitudeMeters>95.8000030517578125</AltitudeMeters>
            <DistanceMeters>13477.749973588</DistanceMeters>
          </Trackpoint>
          <Trackpoint>
            <Time>2018-06-10T10:50:22.000Z</Time>
            <Position>
              <LatitudeDegrees>35.89440934360027313232421875</LatitudeDegrees>
              <LongitudeDegrees>-5.3497287444770336151123046875</LongitudeDegrees>
            </Position>
            <AltitudeMeters>93.59999847412109375</AltitudeMeters>
            <DistanceMeters>13493.113768635</DistanceMeters>
          </Trackpoint>
          <Trackpoint>
            <Time>2018-06-10T10:50:27.000Z</Time>
            <Position>
              <LatitudeDegrees>35.89447463862597942352294921875</LatitudeDegrees>
              <LongitudeDegrees>-5.34966646693646907806396484375</LongitudeDegrees>
            </Position>
            <AltitudeMeters>92.40000152587890625</AltitudeMeters>
            <DistanceMeters>13502.297499575</DistanceMeters>
          </Trackpoint>
          <Trackpoint>
            <Time>2018-06-10T10:50:39.000Z</Time>
            <Position>
              <LatitudeDegrees>35.89459986425936222076416015625</LatitudeDegrees>
              <LongitudeDegrees>-5.34950385801494121551513671875</LongitudeDegrees>
            </Position>
            <AltitudeMeters>91</AltitudeMeters>
            <DistanceMeters>13522.5268101</DistanceMeters>
          </Trackpoint>
          <Trackpoint>
            <Time>2018-06-10T10:50:43.000Z</Time>
            <Position>
              <LatitudeDegrees>35.894624926149845123291015625</LatitudeDegrees>
              <LongitudeDegrees>-5.3494457714259624481201171875</LongitudeDegrees>
            </Position>
            <AltitudeMeters>91</AltitudeMeters>
            <DistanceMeters>13528.46122651</DistanceMeters>
          </Trackpoint>
          <Trackpoint>
            <Time>2018-06-10T10:50:51.000Z</Time>
            <Position>
              <LatitudeDegrees>35.89467479847371578216552734375</LatitudeDegrees>
              <LongitudeDegrees>-5.34933303482830524444580078125</LongitudeDegrees>
            </Position>
            <AltitudeMeters>90.8000030517578125</AltitudeMeters>
            <DistanceMeters>13540.042796157</DistanceMeters>
          </Trackpoint>
          <Trackpoint>
            <Time>2018-06-10T10:50:58.000Z</Time>
            <Position>
              <LatitudeDegrees>35.8947092480957508087158203125</LatitudeDegrees>
              <LongitudeDegrees>-5.34922658465802669525146484375</LongitudeDegrees>
            </Position>
            <AltitudeMeters>90.8000030517578125</AltitudeMeters>
            <DistanceMeters>13550.378453095</DistanceMeters>
          </Trackpoint>
          <Trackpoint>
            <Time>2018-06-10T10:51:01.000Z</Time>
            <Position>
              <LatitudeDegrees>35.894728861749172210693359375</LatitudeDegrees>
              <LongitudeDegrees>-5.34918551333248615264892578125</LongitudeDegrees>
            </Position>
            <AltitudeMeters>90.8000030517578125</AltitudeMeters>
            <DistanceMeters>13554.677821244</DistanceMeters>
          </Trackpoint>
          <Trackpoint>
            <Time>2018-06-10T10:51:08.000Z</Time>
            <Position>
              <LatitudeDegrees>35.8947722800076007843017578125</LatitudeDegrees>
              <LongitudeDegrees>-5.349088199436664581298828125</LongitudeDegrees>
            </Position>
            <AltitudeMeters>90.40000152587890625</AltitudeMeters>
            <DistanceMeters>13564.694917103</DistanceMeters>
          </Trackpoint>
          <Trackpoint>
            <Time>2018-06-10T10:51:17.000Z</Time>
            <Position>
              <LatitudeDegrees>35.89485802687704563140869140625</LatitudeDegrees>
              <LongitudeDegrees>-5.34898568876087665557861328125</LongitudeDegrees>
            </Position>
            <AltitudeMeters>88.8000030517578125</AltitudeMeters>
            <DistanceMeters>13577.980997576</DistanceMeters>
          </Trackpoint>
          <Trackpoint>
            <Time>2018-06-10T10:51:27.000Z</Time>
            <Position>
              <LatitudeDegrees>35.89493731968104839324951171875</LatitudeDegrees>
              <LongitudeDegrees>-5.34884990192949771881103515625</LongitudeDegrees>
            </Position>
            <AltitudeMeters>87.59999847412109375</AltitudeMeters>
            <DistanceMeters>13593.073501619</DistanceMeters>
          </Trackpoint>
          <Trackpoint>
            <Time>2018-06-10T10:51:33.000Z</Time>
            <Position>
              <LatitudeDegrees>35.89498828165233135223388671875</LatitudeDegrees>
              <LongitudeDegrees>-5.3487638197839260101318359375</LongitudeDegrees>
            </Position>
            <AltitudeMeters>87.1999969482421875</AltitudeMeters>
            <DistanceMeters>13602.68718106</DistanceMeters>
          </Trackpoint>
          <Trackpoint>
            <Time>2018-06-10T10:51:38.000Z</Time>
            <Position>
              <LatitudeDegrees>35.8950287662446498870849609375</LatitudeDegrees>
              <LongitudeDegrees>-5.34870187751948833465576171875</LongitudeDegrees>
            </Position>
            <AltitudeMeters>87</AltitudeMeters>
            <DistanceMeters>13609.864057542</DistanceMeters>
          </Trackpoint>
          <Trackpoint>
            <Time>2018-06-10T10:51:40.000Z</Time>
            <Position>
              <LatitudeDegrees>35.89502432383596897125244140625</LatitudeDegrees>
              <LongitudeDegrees>-5.348683856427669525146484375</LongitudeDegrees>
            </Position>
            <AltitudeMeters>87.40000152587890625</AltitudeMeters>
            <DistanceMeters>13611.563947086</DistanceMeters>
          </Trackpoint>
          <Trackpoint>
            <Time>2018-06-10T10:51:42.000Z</Time>
            <Position>
              <LatitudeDegrees>35.894999764859676361083984375</LatitudeDegrees>
              <LongitudeDegrees>-5.3486870415508747100830078125</LongitudeDegrees>
            </Position>
            <AltitudeMeters>88</AltitudeMeters>
            <DistanceMeters>13614.313160425</DistanceMeters>
          </Trackpoint>
          <Trackpoint>
            <Time>2018-06-10T10:51:50.000Z</Time>
            <Position>
              <LatitudeDegrees>35.894879736006259918212890625</LatitudeDegrees>
              <LongitudeDegrees>-5.34871168434619903564453125</LongitudeDegrees>
            </Position>
            <AltitudeMeters>90.59999847412109375</AltitudeMeters>
            <DistanceMeters>13627.856384293</DistanceMeters>
          </Trackpoint>
          <Trackpoint>
            <Time>2018-06-10T10:51:57.000Z</Time>
            <Position>
              <LatitudeDegrees>35.8947692625224590301513671875</LatitudeDegrees>
              <LongitudeDegrees>-5.3487400151789188385009765625</LongitudeDegrees>
            </Position>
            <AltitudeMeters>92.40000152587890625</AltitudeMeters>
            <DistanceMeters>13640.415019377</DistanceMeters>
          </Trackpoint>
          <Trackpoint>
            <Time>2018-06-10T10:52:04.000Z</Time>
            <Position>
              <LatitudeDegrees>35.894685946404933929443359375</LatitudeDegrees>
              <LongitudeDegrees>-5.348781757056713104248046875</LongitudeDegrees>
            </Position>
            <AltitudeMeters>92.59999847412109375</AltitudeMeters>
            <DistanceMeters>13650.422194191</DistanceMeters>
          </Trackpoint>
          <Trackpoint>
            <Time>2018-06-10T10:52:05.000Z</Time>
            <Position>
              <LatitudeDegrees>35.89467345736920833587646484375</LatitudeDegrees>
              <LongitudeDegrees>-5.3487882949411869049072265625</LongitudeDegrees>
            </Position>
            <AltitudeMeters>92.40000152587890625</AltitudeMeters>
            <DistanceMeters>13651.930696516</DistanceMeters>
          </Trackpoint>
          <Trackpoint>
            <Time>2018-06-10T10:52:06.000Z</Time>
            <Position>
              <LatitudeDegrees>35.89466256089508533477783203125</LatitudeDegrees>
              <LongitudeDegrees>-5.3487960062921047210693359375</LongitudeDegrees>
            </Position>
            <AltitudeMeters>92.40000152587890625</AltitudeMeters>
            <DistanceMeters>13653.327298289</DistanceMeters>
          </Trackpoint>
          <Trackpoint>
            <Time>2018-06-10T10:52:12.000Z</Time>
            <Position>
              <LatitudeDegrees>35.894599445164203643798828125</LatitudeDegrees>
              <LongitudeDegrees>-5.348846130073070526123046875</LongitudeDegrees>
            </Position>
            <AltitudeMeters>92.8000030517578125</AltitudeMeters>
            <DistanceMeters>13661.679924858</DistanceMeters>
          </Trackpoint>
          <Trackpoint>
            <Time>2018-06-10T10:52:23.000Z</Time>
            <Position>
              <LatitudeDegrees>35.8944891393184661865234375</LatitudeDegrees>
              <LongitudeDegrees>-5.34897713921964168548583984375</LongitudeDegrees>
            </Position>
            <AltitudeMeters>94.1999969482421875</AltitudeMeters>
            <DistanceMeters>13678.717024882</DistanceMeters>
          </Trackpoint>
          <Trackpoint>
            <Time>2018-06-10T10:52:24.000Z</Time>
            <Position>
              <LatitudeDegrees>35.89448151178658008575439453125</LatitudeDegrees>
              <LongitudeDegrees>-5.3489938192069530487060546875</LongitudeDegrees>
            </Position>
            <AltitudeMeters>94.59999847412109375</AltitudeMeters>
            <DistanceMeters>13680.443270874</DistanceMeters>
          </Trackpoint>
          <Trackpoint>
            <Time>2018-06-10T10:52:30.000Z</Time>
            <Position>
              <LatitudeDegrees>35.89443147182464599609375</LatitudeDegrees>
              <LongitudeDegrees>-5.34907101653516292572021484375</LongitudeDegrees>
            </Position>
            <AltitudeMeters>95.59999847412109375</AltitudeMeters>
            <DistanceMeters>13689.357566848</DistanceMeters>
          </Trackpoint>
          <Trackpoint>
            <Time>2018-06-10T10:52:36.000Z</Time>
            <Position>
              <LatitudeDegrees>35.89438386261463165283203125</LatitudeDegrees>
              <LongitudeDegrees>-5.349141173064708709716796875</LongitudeDegrees>
            </Position>
            <AltitudeMeters>96.40000152587890625</AltitudeMeters>
            <DistanceMeters>13697.609038013</DistanceMeters>
          </Trackpoint>
          <Trackpoint>
            <Time>2018-06-10T10:52:44.000Z</Time>
            <Position>
              <LatitudeDegrees>35.89430071413516998291015625</LatitudeDegrees>
              <LongitudeDegrees>-5.34924544394016265869140625</LongitudeDegrees>
            </Position>
            <AltitudeMeters>97.59999847412109375</AltitudeMeters>
            <DistanceMeters>13710.801675861</DistanceMeters>
          </Trackpoint>
          <Trackpoint>
            <Time>2018-06-10T10:52:46.000Z</Time>
            <Position>
              <LatitudeDegrees>35.8942797593772411346435546875</LatitudeDegrees>
              <LongitudeDegrees>-5.34926346503198146820068359375</LongitudeDegrees>
            </Position>
            <AltitudeMeters>97.8000030517578125</AltitudeMeters>
            <DistanceMeters>13713.64454737</DistanceMeters>
          </Trackpoint>
          <Trackpoint>
            <Time>2018-06-10T10:53:00.000Z</Time>
            <Position>
              <LatitudeDegrees>35.89411161839962005615234375</LatitudeDegrees>
              <LongitudeDegrees>-5.34936874173581600189208984375</LongitudeDegrees>
            </Position>
            <AltitudeMeters>98.59999847412109375</AltitudeMeters>
            <DistanceMeters>13734.628459959</DistanceMeters>
          </Trackpoint>
          <Trackpoint>
            <Time>2018-06-10T10:53:10.000Z</Time>
            <Position>
              <LatitudeDegrees>35.89397750794887542724609375</LatitudeDegrees>
              <LongitudeDegrees>-5.34941853024065494537353515625</LongitudeDegrees>
            </Position>
            <AltitudeMeters>98.59999847412109375</AltitudeMeters>
            <DistanceMeters>13750.215738003</DistanceMeters>
          </Trackpoint>
          <Trackpoint>
            <Time>2018-06-10T10:53:17.000Z</Time>
            <Position>
              <LatitudeDegrees>35.893903076648712158203125</LatitudeDegrees>
              <LongitudeDegrees>-5.34946630708873271942138671875</LongitudeDegrees>
            </Position>
            <AltitudeMeters>98.8000030517578125</AltitudeMeters>
            <DistanceMeters>13759.55256605</DistanceMeters>
          </Trackpoint>
          <Trackpoint>
            <Time>2018-06-10T10:53:21.000Z</Time>
            <Position>
              <LatitudeDegrees>35.8938445709645748138427734375</LatitudeDegrees>
              <LongitudeDegrees>-5.34950771369040012359619140625</LongitudeDegrees>
            </Position>
            <AltitudeMeters>99</AltitudeMeters>
            <DistanceMeters>13767.058473519</DistanceMeters>
          </Trackpoint>
          <Trackpoint>
            <Time>2018-06-10T10:53:30.000Z</Time>
            <Position>
              <LatitudeDegrees>35.8937865681946277618408203125</LatitudeDegrees>
              <LongitudeDegrees>-5.34955431707203388214111328125</LongitudeDegrees>
            </Position>
            <AltitudeMeters>99</AltitudeMeters>
            <DistanceMeters>13774.761500996</DistanceMeters>
          </Trackpoint>
          <Trackpoint>
            <Time>2018-06-10T10:53:44.000Z</Time>
            <Position>
              <LatitudeDegrees>35.89367332868278026580810546875</LatitudeDegrees>
              <LongitudeDegrees>-5.349523387849330902099609375</LongitudeDegrees>
            </Position>
            <AltitudeMeters>97.1999969482421875</AltitudeMeters>
            <DistanceMeters>13787.669753029</DistanceMeters>
          </Trackpoint>
          <Trackpoint>
            <Time>2018-06-10T10:53:59.000Z</Time>
            <Position>
              <LatitudeDegrees>35.89348590932786464691162109375</LatitudeDegrees>
              <LongitudeDegrees>-5.349551551043987274169921875</LongitudeDegrees>
            </Position>
            <AltitudeMeters>95.40000152587890625</AltitudeMeters>
            <DistanceMeters>13808.683767359</DistanceMeters>
          </Trackpoint>
          <Trackpoint>
            <Time>2018-06-10T10:54:11.000Z</Time>
            <Position>
              <LatitudeDegrees>35.8933277428150177001953125</LatitudeDegrees>
              <LongitudeDegrees>-5.34966445527970790863037109375</LongitudeDegrees>
            </Position>
            <AltitudeMeters>95.59999847412109375</AltitudeMeters>
            <DistanceMeters>13829.019706258</DistanceMeters>
          </Trackpoint>
          <Trackpoint>
            <Time>2018-06-10T10:54:16.000Z</Time>
            <Position>
              <LatitudeDegrees>35.8932742662727832794189453125</LatitudeDegrees>
              <LongitudeDegrees>-5.3497183509171009063720703125</LongitudeDegrees>
            </Position>
            <AltitudeMeters>95.8000030517578125</AltitudeMeters>
            <DistanceMeters>13836.703954424</DistanceMeters>
          </Trackpoint>
          <Trackpoint>
            <Time>2018-06-10T10:54:20.000Z</Time>
            <Position>
              <LatitudeDegrees>35.8932373858988285064697265625</LatitudeDegrees>
              <LongitudeDegrees>-5.3497610986232757568359375</LongitudeDegrees>
            </Position>
            <AltitudeMeters>96</AltitudeMeters>
            <DistanceMeters>13842.335439882</DistanceMeters>
          </Trackpoint>
          <Trackpoint>
            <Time>2018-06-10T10:54:22.000Z</Time>
            <Position>
              <LatitudeDegrees>35.8932204544544219970703125</LatitudeDegrees>
              <LongitudeDegrees>-5.3497854061424732208251953125</LongitudeDegrees>
            </Position>
            <AltitudeMeters>96.1999969482421875</AltitudeMeters>
            <DistanceMeters>13845.22556457</DistanceMeters>
          </Trackpoint>
          <Trackpoint>
            <Time>2018-06-10T10:54:24.000Z</Time>
            <Position>
              <LatitudeDegrees>35.8932030200958251953125</LatitudeDegrees>
              <LongitudeDegrees>-5.3498115576803684234619140625</LongitudeDegrees>
            </Position>
            <AltitudeMeters>96.59999847412109375</AltitudeMeters>
            <DistanceMeters>13848.279753328</DistanceMeters>
          </Trackpoint>
          <Trackpoint>
            <Time>2018-06-10T10:54:28.000Z</Time>
            <Position>
              <LatitudeDegrees>35.89316521771252155303955078125</LatitudeDegrees>
              <LongitudeDegrees>-5.34986126236617565155029296875</LongitudeDegrees>
            </Position>
            <AltitudeMeters>96.8000030517578125</AltitudeMeters>
            <DistanceMeters>13854.427915654</DistanceMeters>
          </Trackpoint>
          <Trackpoint>
            <Time>2018-06-10T10:54:31.000Z</Time>
            <Position>
              <LatitudeDegrees>35.8931391499936580657958984375</LatitudeDegrees>
              <LongitudeDegrees>-5.349899567663669586181640625</LongitudeDegrees>
            </Position>
            <AltitudeMeters>97.1999969482421875</AltitudeMeters>
            <DistanceMeters>13858.938432501</DistanceMeters>
          </Trackpoint>
          <Trackpoint>
            <Time>2018-06-10T10:54:32.000Z</Time>
            <Position>
              <LatitudeDegrees>35.89313403703272342681884765625</LatitudeDegrees>
              <LongitudeDegrees>-5.3499171696603298187255859375</LongitudeDegrees>
            </Position>
            <AltitudeMeters>97.40000152587890625</AltitudeMeters>
            <DistanceMeters>13860.624989372</DistanceMeters>
          </Trackpoint>
          <Trackpoint>
            <Time>2018-06-10T10:54:45.000Z</Time>
            <Position>
              <LatitudeDegrees>35.89305625297129154205322265625</LatitudeDegrees>
              <LongitudeDegrees>-5.35012277774512767791748046875</LongitudeDegrees>
            </Position>
            <AltitudeMeters>100</AltitudeMeters>
            <DistanceMeters>13881.085986516</DistanceMeters>
          </Trackpoint>
          <Trackpoint>
            <Time>2018-06-10T10:54:52.000Z</Time>
            <Position>
              <LatitudeDegrees>35.89303412474691867828369140625</LatitudeDegrees>
              <LongitudeDegrees>-5.35024113021790981292724609375</LongitudeDegrees>
            </Position>
            <AltitudeMeters>102</AltitudeMeters>
            <DistanceMeters>13892.037995711</DistanceMeters>
          </Trackpoint>
          <Trackpoint>
            <Time>2018-06-10T10:54:56.000Z</Time>
            <Position>
              <LatitudeDegrees>35.89301736094057559967041015625</LatitudeDegrees>
              <LongitudeDegrees>-5.35030617378652095794677734375</LongitudeDegrees>
            </Position>
            <AltitudeMeters>103.1999969482421875</AltitudeMeters>
            <DistanceMeters>13898.192030209</DistanceMeters>
          </Trackpoint>
          <Trackpoint>
            <Time>2018-06-10T10:55:03.000Z</Time>
            <Position>
              <LatitudeDegrees>35.89299707673490047454833984375</LatitudeDegrees>
              <LongitudeDegrees>-5.3504227660596370697021484375</LongitudeDegrees>
            </Position>
            <AltitudeMeters>105.1999969482421875</AltitudeMeters>
            <DistanceMeters>13908.944335483</DistanceMeters>
          </Trackpoint>
          <Trackpoint>
            <Time>2018-06-10T10:55:14.000Z</Time>
            <Position>
              <LatitudeDegrees>35.8929517306387424468994140625</LatitudeDegrees>
              <LongitudeDegrees>-5.35057992674410343170166015625</LongitudeDegrees>
            </Position>
            <AltitudeMeters>108</AltitudeMeters>
            <DistanceMeters>13923.987097384</DistanceMeters>
          </Trackpoint>
          <Trackpoint>
            <Time>2018-06-10T10:55:15.000Z</Time>
            <Position>
              <LatitudeDegrees>35.892945192754268646240234375</LatitudeDegrees>
              <LongitudeDegrees>-5.3505877219140529632568359375</LongitudeDegrees>
            </Position>
            <AltitudeMeters>108.1999969482421875</AltitudeMeters>
            <DistanceMeters>13924.992765601</DistanceMeters>
          </Trackpoint>
          <Trackpoint>
            <Time>2018-06-10T10:55:17.000Z</Time>
            <Position>
              <LatitudeDegrees>35.89292717166244983673095703125</LatitudeDegrees>
              <LongitudeDegrees>-5.35060356371104717254638671875</LongitudeDegrees>
            </Position>
            <AltitudeMeters>108.40000152587890625</AltitudeMeters>
            <DistanceMeters>13927.456139582</DistanceMeters>
          </Trackpoint>
          <Trackpoint>
            <Time>2018-06-10T10:55:20.000Z</Time>
            <Position>
              <LatitudeDegrees>35.89290789328515529632568359375</LatitudeDegrees>
              <LongitudeDegrees>-5.35060188733041286468505859375</LongitudeDegrees>
            </Position>
            <AltitudeMeters>108.40000152587890625</AltitudeMeters>
            <DistanceMeters>13929.608447463</DistanceMeters>
          </Trackpoint>
          <Trackpoint>
            <Time>2018-06-10T10:55:26.000Z</Time>
            <Position>
              <LatitudeDegrees>35.89283798821270465850830078125</LatitudeDegrees>
              <LongitudeDegrees>-5.35055075772106647491455078125</LongitudeDegrees>
            </Position>
            <AltitudeMeters>107.40000152587890625</AltitudeMeters>
            <DistanceMeters>13938.651975666</DistanceMeters>
          </Trackpoint>
          <Trackpoint>
            <Time>2018-06-10T10:55:40.000Z</Time>
            <Position>
              <LatitudeDegrees>35.8927188813686370849609375</LatitudeDegrees>
              <LongitudeDegrees>-5.35036794841289520263671875</LongitudeDegrees>
            </Position>
            <AltitudeMeters>104.1999969482421875</AltitudeMeters>
            <DistanceMeters>13959.804760064</DistanceMeters>
          </Trackpoint>
          <Trackpoint>
            <Time>2018-06-10T10:55:46.000Z</Time>
            <Position>
              <LatitudeDegrees>35.8926835097372531890869140625</LatitudeDegrees>
              <LongitudeDegrees>-5.35027138888835906982421875</LongitudeDegrees>
            </Position>
            <AltitudeMeters>102.59999847412109375</AltitudeMeters>
            <DistanceMeters>13969.360498288</DistanceMeters>
          </Trackpoint>
          <Trackpoint>
            <Time>2018-06-10T10:55:57.000Z</Time>
            <Position>
              <LatitudeDegrees>35.8926295302808284759521484375</LatitudeDegrees>
              <LongitudeDegrees>-5.350079946219921112060546875</LongitudeDegrees>
            </Position>
            <AltitudeMeters>99.40000152587890625</AltitudeMeters>
            <DistanceMeters>13987.63826369</DistanceMeters>
          </Trackpoint>
          <Trackpoint>
            <Time>2018-06-10T10:56:00.000Z</Time>
            <Position>
              <LatitudeDegrees>35.89261553250253200531005859375</LatitudeDegrees>
              <LongitudeDegrees>-5.3500274755060672760009765625</LongitudeDegrees>
            </Position>
            <AltitudeMeters>98.40000152587890625</AltitudeMeters>
            <DistanceMeters>13992.619694215</DistanceMeters>
          </Trackpoint>
          <Trackpoint>
            <Time>2018-06-10T10:56:11.000Z</Time>
            <Position>
              <LatitudeDegrees>35.8925527520477771759033203125</LatitudeDegrees>
              <LongitudeDegrees>-5.34984181635081768035888671875</LongitudeDegrees>
            </Position>
            <AltitudeMeters>94.59999847412109375</AltitudeMeters>
            <DistanceMeters>14010.760092385</DistanceMeters>
          </Trackpoint>
          <Trackpoint>
            <Time>2018-06-10T10:56:22.000Z</Time>
            <Position>
              <LatitudeDegrees>35.8924602158367633819580078125</LatitudeDegrees>
              <LongitudeDegrees>-5.34969178028404712677001953125</LongitudeDegrees>
            </Position>
            <AltitudeMeters>91.59999847412109375</AltitudeMeters>
            <DistanceMeters>14027.763237018</DistanceMeters>
          </Trackpoint>
          <Trackpoint>
            <Time>2018-06-10T10:56:25.000Z</Time>
            <Position>
              <LatitudeDegrees>35.89242425747215747833251953125</LatitudeDegrees>
              <LongitudeDegrees>-5.34964350052177906036376953125</LongitudeDegrees>
            </Position>
            <AltitudeMeters>90.59999847412109375</AltitudeMeters>
            <DistanceMeters>14033.676312021</DistanceMeters>
          </Trackpoint>
          <Trackpoint>
            <Time>2018-06-10T10:56:31.000Z</Time>
            <Position>
              <LatitudeDegrees>35.8924050629138946533203125</LatitudeDegrees>
              <LongitudeDegrees>-5.349546186625957489013671875</LongitudeDegrees>
            </Position>
            <AltitudeMeters>88</AltitudeMeters>
            <DistanceMeters>14042.707350192</DistanceMeters>
          </Trackpoint>
          <Trackpoint>
            <Time>2018-06-10T10:56:45.000Z</Time>
            <Position>
              <LatitudeDegrees>35.89243850670754909515380859375</LatitudeDegrees>
              <LongitudeDegrees>-5.3493146784603595733642578125</LongitudeDegrees>
            </Position>
            <AltitudeMeters>83.8000030517578125</AltitudeMeters>
            <DistanceMeters>14063.911087506</DistanceMeters>
          </Trackpoint>
          <Trackpoint>
            <Time>2018-06-10T10:56:58.000Z</Time>
            <Position>
              <LatitudeDegrees>35.8924628980457782745361328125</LatitudeDegrees>
              <LongitudeDegrees>-5.34910865128040313720703125</LongitudeDegrees>
            </Position>
            <AltitudeMeters>81.1999969482421875</AltitudeMeters>
            <DistanceMeters>14082.685057351</DistanceMeters>
          </Trackpoint>
          <Trackpoint>
            <Time>2018-06-10T10:57:01.000Z</Time>
            <Position>
              <LatitudeDegrees>35.89244688861072063446044921875</LatitudeDegrees>
              <LongitudeDegrees>-5.3490615449845790863037109375</LongitudeDegrees>
            </Position>
            <AltitudeMeters>81</AltitudeMeters>
            <DistanceMeters>14087.290668013</DistanceMeters>
          </Trackpoint>
          <Trackpoint>
            <Time>2018-06-10T10:57:07.000Z</Time>
            <Position>
              <LatitudeDegrees>35.8924176357686519622802734375</LatitudeDegrees>
              <LongitudeDegrees>-5.34898392856121063232421875</LongitudeDegrees>
            </Position>
            <AltitudeMeters>80.40000152587890625</AltitudeMeters>
            <DistanceMeters>14095.009504997</DistanceMeters>
          </Trackpoint>
          <Trackpoint>
            <Time>2018-06-10T10:57:17.000Z</Time>
            <Position>
              <LatitudeDegrees>35.8923192322254180908203125</LatitudeDegrees>
              <LongitudeDegrees>-5.34886767156422138214111328125</LongitudeDegrees>
            </Position>
            <AltitudeMeters>80.40000152587890625</AltitudeMeters>
            <DistanceMeters>14110.170361364</DistanceMeters>
          </Trackpoint>
          <Trackpoint>
            <Time>2018-06-10T10:57:32.000Z</Time>
            <Position>
              <LatitudeDegrees>35.89215503074228763580322265625</LatitudeDegrees>
              <LongitudeDegrees>-5.348769016563892364501953125</LongitudeDegrees>
            </Position>
            <AltitudeMeters>81.40000152587890625</AltitudeMeters>
            <DistanceMeters>14130.496084657</DistanceMeters>
          </Trackpoint>
          <Trackpoint>
            <Time>2018-06-10T10:57:37.000Z</Time>
            <Position>
              <LatitudeDegrees>35.892092250287532806396484375</LatitudeDegrees>
              <LongitudeDegrees>-5.34875468350946903228759765625</LongitudeDegrees>
            </Position>
            <AltitudeMeters>81.59999847412109375</AltitudeMeters>
            <DistanceMeters>14137.602151606</DistanceMeters>
          </Trackpoint>
          <Trackpoint>
            <Time>2018-06-10T10:57:42.000Z</Time>
            <Position>
              <LatitudeDegrees>35.89203701354563236236572265625</LatitudeDegrees>
              <LongitudeDegrees>-5.34874965436756610870361328125</LongitudeDegrees>
            </Position>
            <AltitudeMeters>81.59999847412109375</AltitudeMeters>
            <DistanceMeters>14143.76718135</DistanceMeters>
          </Trackpoint>
          <Trackpoint>
            <Time>2018-06-10T10:57:54.000Z</Time>
            <Position>
              <LatitudeDegrees>35.89195788837969303131103515625</LatitudeDegrees>
              <LongitudeDegrees>-5.34873104654252529144287109375</LongitudeDegrees>
            </Position>
            <AltitudeMeters>82</AltitudeMeters>
            <DistanceMeters>14152.732487281</DistanceMeters>
          </Trackpoint>
          <Trackpoint>
            <Time>2018-06-10T10:58:07.000Z</Time>
            <Position>
              <LatitudeDegrees>35.89179963804781436920166015625</LatitudeDegrees>
              <LongitudeDegrees>-5.3488384187221527099609375</LongitudeDegrees>
            </Position>
            <AltitudeMeters>82.1999969482421875</AltitudeMeters>
            <DistanceMeters>14172.831479788</DistanceMeters>
          </Trackpoint>
          <Trackpoint>
            <Time>2018-06-10T10:58:09.000Z</Time>
            <Position>
              <LatitudeDegrees>35.89177734218537807464599609375</LatitudeDegrees>
              <LongitudeDegrees>-5.348858200013637542724609375</LongitudeDegrees>
            </Position>
            <AltitudeMeters>82.59999847412109375</AltitudeMeters>
            <DistanceMeters>14175.887146498</DistanceMeters>
          </Trackpoint>
          <Trackpoint>
            <Time>2018-06-10T10:58:23.000Z</Time>
            <Position>
              <LatitudeDegrees>35.89164071716368198394775390625</LatitudeDegrees>
              <LongitudeDegrees>-5.349010415375232696533203125</LongitudeDegrees>
            </Position>
            <AltitudeMeters>84.1999969482421875</AltitudeMeters>
            <DistanceMeters>14196.371961663</DistanceMeters>
          </Trackpoint>
          <Trackpoint>
            <Time>2018-06-10T10:58:29.000Z</Time>
            <Position>
              <LatitudeDegrees>35.8915730752050876617431640625</LatitudeDegrees>
              <LongitudeDegrees>-5.34906431101262569427490234375</LongitudeDegrees>
            </Position>
            <AltitudeMeters>84.8000030517578125</AltitudeMeters>
            <DistanceMeters>14205.332733937</DistanceMeters>
          </Trackpoint>
          <Trackpoint>
            <Time>2018-06-10T10:58:30.000Z</Time>
            <Position>
              <LatitudeDegrees>35.891561843454837799072265625</LatitudeDegrees>
              <LongitudeDegrees>-5.3490749560296535491943359375</LongitudeDegrees>
            </Position>
            <AltitudeMeters>84.8000030517578125</AltitudeMeters>
            <DistanceMeters>14206.911436283</DistanceMeters>
          </Trackpoint>
          <Trackpoint>
            <Time>2018-06-10T10:58:32.000Z</Time>
            <Position>
              <LatitudeDegrees>35.891540050506591796875</LatitudeDegrees>
              <LongitudeDegrees>-5.349093563854694366455078125</LongitudeDegrees>
            </Position>
            <AltitudeMeters>85</AltitudeMeters>
            <DistanceMeters>14209.861858913</DistanceMeters>
          </Trackpoint>
          <Trackpoint>
            <Time>2018-06-10T10:58:34.000Z</Time>
            <Position>
              <LatitudeDegrees>35.89151834137737751007080078125</LatitudeDegrees>
              <LongitudeDegrees>-5.34910923801362514495849609375</LongitudeDegrees>
            </Position>
            <AltitudeMeters>85.1999969482421875</AltitudeMeters>
            <DistanceMeters>14212.659907568</DistanceMeters>
          </Trackpoint>
          <Trackpoint>
            <Time>2018-06-10T10:58:41.000Z</Time>
            <Position>
              <LatitudeDegrees>35.891458578407764434814453125</LatitudeDegrees>
              <LongitudeDegrees>-5.349208898842334747314453125</LongitudeDegrees>
            </Position>
            <AltitudeMeters>86.1999969482421875</AltitudeMeters>
            <DistanceMeters>14223.839993352</DistanceMeters>
          </Trackpoint>
          <Trackpoint>
            <Time>2018-06-10T10:58:47.000Z</Time>
            <Position>
              <LatitudeDegrees>35.8914436586201190948486328125</LatitudeDegrees>
              <LongitudeDegrees>-5.34931325353682041168212890625</LongitudeDegrees>
            </Position>
            <AltitudeMeters>87.1999969482421875</AltitudeMeters>
            <DistanceMeters>14233.394786539</DistanceMeters>
          </Trackpoint>
          <Trackpoint>
            <Time>2018-06-10T10:58:49.000Z</Time>
            <Position>
              <LatitudeDegrees>35.89144692756235599517822265625</LatitudeDegrees>
              <LongitudeDegrees>-5.3493492119014263153076171875</LongitudeDegrees>
            </Position>
            <AltitudeMeters>87.40000152587890625</AltitudeMeters>
            <DistanceMeters>14236.657677914</DistanceMeters>
          </Trackpoint>
          <Trackpoint>
            <Time>2018-06-10T10:58:51.000Z</Time>
            <Position>
              <LatitudeDegrees>35.89144684374332427978515625</LatitudeDegrees>
              <LongitudeDegrees>-5.3493847511708736419677734375</LongitudeDegrees>
            </Position>
            <AltitudeMeters>87.8000030517578125</AltitudeMeters>
            <DistanceMeters>14239.861924615</DistanceMeters>
          </Trackpoint>
          <Trackpoint>
            <Time>2018-06-10T10:58:52.000Z</Time>
            <Position>
              <LatitudeDegrees>35.8914490230381488800048828125</LatitudeDegrees>
              <LongitudeDegrees>-5.349402017891407012939453125</LongitudeDegrees>
            </Position>
            <AltitudeMeters>87.8000030517578125</AltitudeMeters>
            <DistanceMeters>14241.434896625</DistanceMeters>
          </Trackpoint>
          <Trackpoint>
            <Time>2018-06-10T10:59:00.000Z</Time>
            <Position>
              <LatitudeDegrees>35.89147500693798065185546875</LatitudeDegrees>
              <LongitudeDegrees>-5.34954912029206752777099609375</LongitudeDegrees>
            </Position>
            <AltitudeMeters>89</AltitudeMeters>
            <DistanceMeters>14255.010419825</DistanceMeters>
          </Trackpoint>
          <Trackpoint>
            <Time>2018-06-10T10:59:06.000Z</Time>
            <Position>
              <LatitudeDegrees>35.89147777296602725982666015625</LatitudeDegrees>
              <LongitudeDegrees>-5.349650792777538299560546875</LongitudeDegrees>
            </Position>
            <AltitudeMeters>90</AltitudeMeters>
            <DistanceMeters>14264.183328431</DistanceMeters>
          </Trackpoint>
          <Trackpoint>
            <Time>2018-06-10T10:59:08.000Z</Time>
            <Position>
              <LatitudeDegrees>35.89146830141544342041015625</LatitudeDegrees>
              <LongitudeDegrees>-5.34967862069606781005859375</LongitudeDegrees>
            </Position>
            <AltitudeMeters>90.1999969482421875</AltitudeMeters>
            <DistanceMeters>14266.904479416</DistanceMeters>
          </Trackpoint>
          <Trackpoint>
            <Time>2018-06-10T10:59:16.000Z</Time>
            <Position>
              <LatitudeDegrees>35.89142982847988605499267578125</LatitudeDegrees>
              <LongitudeDegrees>-5.34980778582394123077392578125</LongitudeDegrees>
            </Position>
            <AltitudeMeters>91</AltitudeMeters>
            <DistanceMeters>14279.313382008</DistanceMeters>
          </Trackpoint>
          <Trackpoint>
            <Time>2018-06-10T10:59:29.000Z</Time>
            <Position>
              <LatitudeDegrees>35.89138959534466266632080078125</LatitudeDegrees>
              <LongitudeDegrees>-5.35003661178052425384521484375</LongitudeDegrees>
            </Position>
            <AltitudeMeters>92.1999969482421875</AltitudeMeters>
            <DistanceMeters>14300.426855283</DistanceMeters>
          </Trackpoint>
          <Trackpoint>
            <Time>2018-06-10T10:59:42.000Z</Time>
            <Position>
              <LatitudeDegrees>35.891376771032810211181640625</LatitudeDegrees>
              <LongitudeDegrees>-5.350265018641948699951171875</LongitudeDegrees>
            </Position>
            <AltitudeMeters>93.40000152587890625</AltitudeMeters>
            <DistanceMeters>14321.071504662</DistanceMeters>
          </Trackpoint>
          <Trackpoint>
            <Time>2018-06-10T10:59:44.000Z</Time>
            <Position>
              <LatitudeDegrees>35.8913712389767169952392578125</LatitudeDegrees>
              <LongitudeDegrees>-5.35029728896915912628173828125</LongitudeDegrees>
            </Position>
            <AltitudeMeters>93.40000152587890625</AltitudeMeters>
            <DistanceMeters>14324.046311364</DistanceMeters>
          </Trackpoint>
          <Trackpoint>
            <Time>2018-06-10T10:59:57.000Z</Time>
            <Position>
              <LatitudeDegrees>35.8913249708712100982666015625</LatitudeDegrees>
              <LongitudeDegrees>-5.35047565586864948272705078125</LongitudeDegrees>
            </Position>
            <AltitudeMeters>93.8000030517578125</AltitudeMeters>
            <DistanceMeters>14340.933817819</DistanceMeters>
          </Trackpoint>
          <Trackpoint>
            <Time>2018-06-10T11:00:03.000Z</Time>
            <Position>
              <LatitudeDegrees>35.8912924490869045257568359375</LatitudeDegrees>
              <LongitudeDegrees>-5.350562073290348052978515625</LongitudeDegrees>
            </Position>
            <AltitudeMeters>94.40000152587890625</AltitudeMeters>
            <DistanceMeters>14349.526250828</DistanceMeters>
          </Trackpoint>
          <Trackpoint>
            <Time>2018-06-10T11:00:04.000Z</Time>
            <Position>
              <LatitudeDegrees>35.8912890963256359100341796875</LatitudeDegrees>
              <LongitudeDegrees>-5.35057707689702510833740234375</LongitudeDegrees>
            </Position>
            <AltitudeMeters>94.59999847412109375</AltitudeMeters>
            <DistanceMeters>14350.93251778</DistanceMeters>
          </Trackpoint>
          <Trackpoint>
            <Time>2018-06-10T11:00:09.000Z</Time>
            <Position>
              <LatitudeDegrees>35.89125297032296657562255859375</LatitudeDegrees>
              <LongitudeDegrees>-5.35065896809101104736328125</LongitudeDegrees>
            </Position>
            <AltitudeMeters>94.8000030517578125</AltitudeMeters>
            <DistanceMeters>14359.340099977</DistanceMeters>
          </Trackpoint>
          <Trackpoint>
            <Time>2018-06-10T11:00:14.000Z</Time>
            <Position>
              <LatitudeDegrees>35.891239307820796966552734375</LatitudeDegrees>
              <LongitudeDegrees>-5.35074085928499698638916015625</LongitudeDegrees>
            </Position>
            <AltitudeMeters>95.1999969482421875</AltitudeMeters>
            <DistanceMeters>14366.879019073</DistanceMeters>
          </Trackpoint>
          <Trackpoint>
            <Time>2018-06-10T11:00:18.000Z</Time>
            <Position>
              <LatitudeDegrees>35.89122329838573932647705078125</LatitudeDegrees>
              <LongitudeDegrees>-5.35079978406429290771484375</LongitudeDegrees>
            </Position>
            <AltitudeMeters>95.40000152587890625</AltitudeMeters>
            <DistanceMeters>14372.483178767</DistanceMeters>
          </Trackpoint>
          <Trackpoint>
            <Time>2018-06-10T11:00:24.000Z</Time>
            <Position>
              <LatitudeDegrees>35.8911989070475101470947265625</LatitudeDegrees>
              <LongitudeDegrees>-5.3508929908275604248046875</LongitudeDegrees>
            </Position>
            <AltitudeMeters>95.8000030517578125</AltitudeMeters>
            <DistanceMeters>14381.315041556</DistanceMeters>
          </Trackpoint>
          <Trackpoint>
            <Time>2018-06-10T11:00:30.000Z</Time>
            <Position>
              <LatitudeDegrees>35.891153477132320404052734375</LatitudeDegrees>
              <LongitudeDegrees>-5.350983850657939910888671875</LongitudeDegrees>
            </Position>
            <AltitudeMeters>96</AltitudeMeters>
            <DistanceMeters>14390.942331134</DistanceMeters>
          </Trackpoint>
          <Trackpoint>
            <Time>2018-06-10T11:00:31.000Z</Time>
            <Position>
              <LatitudeDegrees>35.8911417424678802490234375</LatitudeDegrees>
              <LongitudeDegrees>-5.3509949147701263427734375</LongitudeDegrees>
            </Position>
            <AltitudeMeters>96</AltitudeMeters>
            <DistanceMeters>14392.588242108</DistanceMeters>
          </Trackpoint>
          <Trackpoint>
            <Time>2018-06-10T11:00:36.000Z</Time>
            <Position>
              <LatitudeDegrees>35.8911043591797351837158203125</LatitudeDegrees>
              <LongitudeDegrees>-5.3510594554245471954345703125</LongitudeDegrees>
            </Position>
            <AltitudeMeters>96</AltitudeMeters>
            <DistanceMeters>14399.74306589</DistanceMeters>
          </Trackpoint>
          <Trackpoint>
            <Time>2018-06-10T11:00:43.000Z</Time>
            <Position>
              <LatitudeDegrees>35.89102431200444698333740234375</LatitudeDegrees>
              <LongitudeDegrees>-5.35113011486828327178955078125</LongitudeDegrees>
            </Position>
            <AltitudeMeters>95.8000030517578125</AltitudeMeters>
            <DistanceMeters>14410.696311785</DistanceMeters>
          </Trackpoint>
          <Trackpoint>
            <Time>2018-06-10T11:00:48.000Z</Time>
            <Position>
              <LatitudeDegrees>35.89096748270094394683837890625</LatitudeDegrees>
              <LongitudeDegrees>-5.35113313235342502593994140625</LongitudeDegrees>
            </Position>
            <AltitudeMeters>95.40000152587890625</AltitudeMeters>
            <DistanceMeters>14417.026831453</DistanceMeters>
          </Trackpoint>
          <Trackpoint>
            <Time>2018-06-10T11:00:50.000Z</Time>
            <Position>
              <LatitudeDegrees>35.890941582620143890380859375</LatitudeDegrees>
              <LongitudeDegrees>-5.35111762583255767822265625</LongitudeDegrees>
            </Position>
            <AltitudeMeters>95</AltitudeMeters>
            <DistanceMeters>14420.231078153</DistanceMeters>
          </Trackpoint>
          <Trackpoint>
            <Time>2018-06-10T11:00:52.000Z</Time>
            <Position>
              <LatitudeDegrees>35.8909330330789089202880859375</LatitudeDegrees>
              <LongitudeDegrees>-5.3511022031307220458984375</LongitudeDegrees>
            </Position>
            <AltitudeMeters>94.8000030517578125</AltitudeMeters>
            <DistanceMeters>14421.914955822</DistanceMeters>
          </Trackpoint>
          <Trackpoint>
            <Time>2018-06-10T11:00:53.000Z</Time>
            <Position>
              <LatitudeDegrees>35.89092649519443511962890625</LatitudeDegrees>
              <LongitudeDegrees>-5.35109440796077251434326171875</LongitudeDegrees>
            </Position>
            <AltitudeMeters>94.8000030517578125</AltitudeMeters>
            <DistanceMeters>14422.920624038</DistanceMeters>
          </Trackpoint>
          <Trackpoint>
            <Time>2018-06-10T11:00:56.000Z</Time>
            <Position>
              <LatitudeDegrees>35.89091978967189788818359375</LatitudeDegrees>
              <LongitudeDegrees>-5.35107345320284366607666015625</LongitudeDegrees>
            </Position>
            <AltitudeMeters>94.59999847412109375</AltitudeMeters>
            <DistanceMeters>14424.949839369</DistanceMeters>
          </Trackpoint>
          <Trackpoint>
            <Time>2018-06-10T11:01:06.000Z</Time>
            <Position>
              <LatitudeDegrees>35.8909115754067897796630859375</LatitudeDegrees>
              <LongitudeDegrees>-5.35095593892037868499755859375</LongitudeDegrees>
            </Position>
            <AltitudeMeters>93.8000030517578125</AltitudeMeters>
            <DistanceMeters>14435.585617084</DistanceMeters>
          </Trackpoint>
          <Trackpoint>
            <Time>2018-06-10T11:01:07.000Z</Time>
            <Position>
              <LatitudeDegrees>35.89090361259877681732177734375</LatitudeDegrees>
              <LongitudeDegrees>-5.350941605865955352783203125</LongitudeDegrees>
            </Position>
            <AltitudeMeters>93.40000152587890625</AltitudeMeters>
            <DistanceMeters>14437.152837807</DistanceMeters>
          </Trackpoint>
          <Trackpoint>
            <Time>2018-06-10T11:01:10.000Z</Time>
            <Position>
              <LatitudeDegrees>35.8909062109887599945068359375</LatitudeDegrees>
              <LongitudeDegrees>-5.3508988581597805023193359375</LongitudeDegrees>
            </Position>
            <AltitudeMeters>92.8000030517578125</AltitudeMeters>
            <DistanceMeters>14441.017517152</DistanceMeters>
          </Trackpoint>
          <Trackpoint>
            <Time>2018-06-10T11:01:14.000Z</Time>
            <Position>
              <LatitudeDegrees>35.89090378023684024810791015625</LatitudeDegrees>
              <LongitudeDegrees>-5.35083792172372341156005859375</LongitudeDegrees>
            </Position>
            <AltitudeMeters>92</AltitudeMeters>
            <DistanceMeters>14446.517585886</DistanceMeters>
          </Trackpoint>
          <Trackpoint>
            <Time>2018-06-10T11:01:18.000Z</Time>
            <Position>
              <LatitudeDegrees>35.89089430868625640869140625</LatitudeDegrees>
              <LongitudeDegrees>-5.350776650011539459228515625</LongitudeDegrees>
            </Position>
            <AltitudeMeters>90.8000030517578125</AltitudeMeters>
            <DistanceMeters>14452.142653696</DistanceMeters>
          </Trackpoint>
          <Trackpoint>
            <Time>2018-06-10T11:01:21.000Z</Time>
            <Position>
              <LatitudeDegrees>35.890883915126323699951171875</LatitudeDegrees>
              <LongitudeDegrees>-5.3507288731634616851806640625</LongitudeDegrees>
            </Position>
            <AltitudeMeters>90</AltitudeMeters>
            <DistanceMeters>14456.603851795</DistanceMeters>
          </Trackpoint>
          <Trackpoint>
            <Time>2018-06-10T11:01:26.000Z</Time>
            <Position>
              <LatitudeDegrees>35.8908663131296634674072265625</LatitudeDegrees>
              <LongitudeDegrees>-5.350649245083332061767578125</LongitudeDegrees>
            </Position>
            <AltitudeMeters>88.59999847412109375</AltitudeMeters>
            <DistanceMeters>14464.046330476</DistanceMeters>
          </Trackpoint>
          <Trackpoint>
            <Time>2018-06-10T11:01:27.000Z</Time>
            <Position>
              <LatitudeDegrees>35.890855081379413604736328125</LatitudeDegrees>
              <LongitudeDegrees>-5.350637175142765045166015625</LongitudeDegrees>
            </Position>
            <AltitudeMeters>88.1999969482421875</AltitudeMeters>
            <DistanceMeters>14465.705900696</DistanceMeters>
          </Trackpoint>
          <Trackpoint>
            <Time>2018-06-10T11:01:30.000Z</Time>
            <Position>
              <LatitudeDegrees>35.890838988125324249267578125</LatitudeDegrees>
              <LongitudeDegrees>-5.3505897335708141326904296875</LongitudeDegrees>
            </Position>
            <AltitudeMeters>87.1999969482421875</AltitudeMeters>
            <DistanceMeters>14470.34374956</DistanceMeters>
          </Trackpoint>
          <Trackpoint>
            <Time>2018-06-10T11:01:33.000Z</Time>
            <Position>
              <LatitudeDegrees>35.89082918129861354827880859375</LatitudeDegrees>
              <LongitudeDegrees>-5.35054388456046581268310546875</LongitudeDegrees>
            </Position>
            <AltitudeMeters>86.40000152587890625</AltitudeMeters>
            <DistanceMeters>14474.619951707</DistanceMeters>
          </Trackpoint>
          <Trackpoint>
            <Time>2018-06-10T11:01:38.000Z</Time>
            <Position>
              <LatitudeDegrees>35.89079816825687885284423828125</LatitudeDegrees>
              <LongitudeDegrees>-5.350466184318065643310546875</LongitudeDegrees>
            </Position>
            <AltitudeMeters>84.8000030517578125</AltitudeMeters>
            <DistanceMeters>14482.430083996</DistanceMeters>
          </Trackpoint>
          <Trackpoint>
            <Time>2018-06-10T11:01:51.000Z</Time>
            <Position>
              <LatitudeDegrees>35.8907447755336761474609375</LatitudeDegrees>
              <LongitudeDegrees>-5.35025529563426971435546875</LongitudeDegrees>
            </Position>
            <AltitudeMeters>82.40000152587890625</AltitudeMeters>
            <DistanceMeters>14502.352633532</DistanceMeters>
          </Trackpoint>
          <Trackpoint>
            <Time>2018-06-10T11:02:05.000Z</Time>
            <Position>
              <LatitudeDegrees>35.8906701765954494476318359375</LatitudeDegrees>
              <LongitudeDegrees>-5.3500549681484699249267578125</LongitudeDegrees>
            </Position>
            <AltitudeMeters>77.59999847412109375</AltitudeMeters>
            <DistanceMeters>14522.232985285</DistanceMeters>
          </Trackpoint>
          <Trackpoint>
            <Time>2018-06-10T11:02:12.000Z</Time>
            <Position>
              <LatitudeDegrees>35.8906339667737483978271484375</LatitudeDegrees>
              <LongitudeDegrees>-5.34992647357285022735595703125</LongitudeDegrees>
            </Position>
            <AltitudeMeters>74.8000030517578125</AltitudeMeters>
            <DistanceMeters>14534.500267948</DistanceMeters>
          </Trackpoint>
          <Trackpoint>
            <Time>2018-06-10T11:02:23.000Z</Time>
            <Position>
              <LatitudeDegrees>35.8905159495770931243896484375</LatitudeDegrees>
              <LongitudeDegrees>-5.34975095652043819427490234375</LongitudeDegrees>
            </Position>
            <AltitudeMeters>71.1999969482421875</AltitudeMeters>
            <DistanceMeters>14555.068009466</DistanceMeters>
          </Trackpoint>
          <Trackpoint>
            <Time>2018-06-10T11:02:31.000Z</Time>
            <Position>
              <LatitudeDegrees>35.890403129160404205322265625</LatitudeDegrees>
              <LongitudeDegrees>-5.34967887215316295623779296875</LongitudeDegrees>
            </Position>
            <AltitudeMeters>70.59999847412109375</AltitudeMeters>
            <DistanceMeters>14569.20752475</DistanceMeters>
          </Trackpoint>
          <Trackpoint>
            <Time>2018-06-10T11:02:32.000Z</Time>
            <Position>
              <LatitudeDegrees>35.8903907239437103271484375</LatitudeDegrees>
              <LongitudeDegrees>-5.34968256019055843353271484375</LongitudeDegrees>
            </Position>
            <AltitudeMeters>70.8000030517578125</AltitudeMeters>
            <DistanceMeters>14570.623390906</DistanceMeters>
          </Trackpoint>
          <Trackpoint>
            <Time>2018-06-10T11:02:45.000Z</Time>
            <Position>
              <LatitudeDegrees>35.89023306034505367279052734375</LatitudeDegrees>
              <LongitudeDegrees>-5.34976671449840068817138671875</LongitudeDegrees>
            </Position>
            <AltitudeMeters>73.59999847412109375</AltitudeMeters>
            <DistanceMeters>14589.742189623</DistanceMeters>
          </Trackpoint>
          <Trackpoint>
            <Time>2018-06-10T11:02:50.000Z</Time>
            <Position>
              <LatitudeDegrees>35.89018411003053188323974609375</LatitudeDegrees>
              <LongitudeDegrees>-5.349819771945476531982421875</LongitudeDegrees>
            </Position>
            <AltitudeMeters>75.1999969482421875</AltitudeMeters>
            <DistanceMeters>14596.992920969</DistanceMeters>
          </Trackpoint>
          <Trackpoint>
            <Time>2018-06-10T11:02:52.000Z</Time>
            <Position>
              <LatitudeDegrees>35.89016315527260303497314453125</LatitudeDegrees>
              <LongitudeDegrees>-5.34984198398888111114501953125</LongitudeDegrees>
            </Position>
            <AltitudeMeters>75.8000030517578125</AltitudeMeters>
            <DistanceMeters>14600.067736417</DistanceMeters>
          </Trackpoint>
          <Trackpoint>
            <Time>2018-06-10T11:02:53.000Z</Time>
            <Position>
              <LatitudeDegrees>35.890153683722019195556640625</LatitudeDegrees>
              <LongitudeDegrees>-5.3498534671962261199951171875</LongitudeDegrees>
            </Position>
            <AltitudeMeters>76</AltitudeMeters>
            <DistanceMeters>14601.546005168</DistanceMeters>
          </Trackpoint>
          <Trackpoint>
            <Time>2018-06-10T11:02:56.000Z</Time>
            <Position>
              <LatitudeDegrees>35.89012459851801395416259765625</LatitudeDegrees>
              <LongitudeDegrees>-5.34988875500857830047607421875</LongitudeDegrees>
            </Position>
            <AltitudeMeters>77</AltitudeMeters>
            <DistanceMeters>14606.084463537</DistanceMeters>
          </Trackpoint>
          <Trackpoint>
            <Time>2018-06-10T11:03:08.000Z</Time>
            <Position>
              <LatitudeDegrees>35.8899768255650997161865234375</LatitudeDegrees>
              <LongitudeDegrees>-5.34997408278286457061767578125</LongitudeDegrees>
            </Position>
            <AltitudeMeters>79.8000030517578125</AltitudeMeters>
            <DistanceMeters>14624.242275936</DistanceMeters>
          </Trackpoint>
          <Trackpoint>
            <Time>2018-06-10T11:03:10.000Z</Time>
            <Position>
              <LatitudeDegrees>35.8899506740272045135498046875</LatitudeDegrees>
              <LongitudeDegrees>-5.34998632036149501800537109375</LongitudeDegrees>
            </Position>
            <AltitudeMeters>80.1999969482421875</AltitudeMeters>
            <DistanceMeters>14627.355035487</DistanceMeters>
          </Trackpoint>
          <Trackpoint>
            <Time>2018-06-10T11:03:24.000Z</Time>
            <Position>
              <LatitudeDegrees>35.8897749893367290496826171875</LatitudeDegrees>
              <LongitudeDegrees>-5.3500724025070667266845703125</LongitudeDegrees>
            </Position>
            <AltitudeMeters>83.1999969482421875</AltitudeMeters>
            <DistanceMeters>14648.393314811</DistanceMeters>
          </Trackpoint>
          <Trackpoint>
            <Time>2018-06-10T11:03:26.000Z</Time>
            <Position>
              <LatitudeDegrees>35.889754705131053924560546875</LatitudeDegrees>
              <LongitudeDegrees>-5.35009109415113925933837890625</LongitudeDegrees>
            </Position>
            <AltitudeMeters>83.59999847412109375</AltitudeMeters>
            <DistanceMeters>14651.20905754</DistanceMeters>
          </Trackpoint>
          <Trackpoint>
            <Time>2018-06-10T11:03:28.000Z</Time>
            <Position>
              <LatitudeDegrees>35.88973467238247394561767578125</LatitudeDegrees>
              <LongitudeDegrees>-5.35010919906198978424072265625</LongitudeDegrees>
            </Position>
            <AltitudeMeters>84.1999969482421875</AltitudeMeters>
            <DistanceMeters>14653.973012075</DistanceMeters>
          </Trackpoint>
          <Trackpoint>
            <Time>2018-06-10T11:03:41.000Z</Time>
            <Position>
              <LatitudeDegrees>35.8896200917661190032958984375</LatitudeDegrees>
              <LongitudeDegrees>-5.35029242746531963348388671875</LongitudeDegrees>
            </Position>
            <AltitudeMeters>85.40000152587890625</AltitudeMeters>
            <DistanceMeters>14674.844521789</DistanceMeters>
          </Trackpoint>
          <Trackpoint>
            <Time>2018-06-10T11:03:51.000Z</Time>
            <Position>
              <LatitudeDegrees>35.88956468738615512847900390625</LatitudeDegrees>
              <LongitudeDegrees>-5.3504663519561290740966796875</LongitudeDegrees>
            </Position>
            <AltitudeMeters>88</AltitudeMeters>
            <DistanceMeters>14691.696431891</DistanceMeters>
          </Trackpoint>
          <Trackpoint>
            <Time>2018-06-10T11:03:57.000Z</Time>
            <Position>
              <LatitudeDegrees>35.88953652419149875640869140625</LatitudeDegrees>
              <LongitudeDegrees>-5.350564755499362945556640625</LongitudeDegrees>
            </Position>
            <AltitudeMeters>89.40000152587890625</AltitudeMeters>
            <DistanceMeters>14701.107435544</DistanceMeters>
          </Trackpoint>
          <Trackpoint>
            <Time>2018-06-10T11:04:11.000Z</Time>
            <Position>
              <LatitudeDegrees>35.8894544653594493865966796875</LatitudeDegrees>
              <LongitudeDegrees>-5.3507637418806552886962890625</LongitudeDegrees>
            </Position>
            <AltitudeMeters>91.1999969482421875</AltitudeMeters>
            <DistanceMeters>14721.240992894</DistanceMeters>
          </Trackpoint>
          <Trackpoint>
            <Time>2018-06-10T11:04:19.000Z</Time>
            <Position>
              <LatitudeDegrees>35.889391936361789703369140625</LatitudeDegrees>
              <LongitudeDegrees>-5.3508666716516017913818359375</LongitudeDegrees>
            </Position>
            <AltitudeMeters>91.59999847412109375</AltitudeMeters>
            <DistanceMeters>14732.841260097</DistanceMeters>
          </Trackpoint>
          <Trackpoint>
            <Time>2018-06-10T11:04:24.000Z</Time>
            <Position>
              <LatitudeDegrees>35.88935195468366146087646484375</LatitudeDegrees>
              <LongitudeDegrees>-5.35093850456178188323974609375</LongitudeDegrees>
            </Position>
            <AltitudeMeters>92</AltitudeMeters>
            <DistanceMeters>14740.699228201</DistanceMeters>
          </Trackpoint>
          <Trackpoint>
            <Time>2018-06-10T11:04:32.000Z</Time>
            <Position>
              <LatitudeDegrees>35.88928439654409885406494140625</LatitudeDegrees>
              <LongitudeDegrees>-5.35103891976177692413330078125</LongitudeDegrees>
            </Position>
            <AltitudeMeters>92.40000152587890625</AltitudeMeters>
            <DistanceMeters>14752.468738499</DistanceMeters>
          </Trackpoint>
          <Trackpoint>
            <Time>2018-06-10T11:04:38.000Z</Time>
            <Position>
              <LatitudeDegrees>35.8892103843390941619873046875</LatitudeDegrees>
              <LongitudeDegrees>-5.3510926477611064910888671875</LongitudeDegrees>
            </Position>
            <AltitudeMeters>91.40000152587890625</AltitudeMeters>
            <DistanceMeters>14762.025421666</DistanceMeters>
          </Trackpoint>
          <Trackpoint>
            <Time>2018-06-10T11:04:52.000Z</Time>
            <Position>
              <LatitudeDegrees>35.88906244374811649322509765625</LatitudeDegrees>
              <LongitudeDegrees>-5.3512415103614330291748046875</LongitudeDegrees>
            </Position>
            <AltitudeMeters>90.1999969482421875</AltitudeMeters>
            <DistanceMeters>14783.269790818</DistanceMeters>
          </Trackpoint>
          <Trackpoint>
            <Time>2018-06-10T11:04:53.000Z</Time>
            <Position>
              <LatitudeDegrees>35.88905221782624721527099609375</LatitudeDegrees>
              <LongitudeDegrees>-5.35125215537846088409423828125</LongitudeDegrees>
            </Position>
            <AltitudeMeters>90.1999969482421875</AltitudeMeters>
            <DistanceMeters>14784.760226595</DistanceMeters>
          </Trackpoint>
          <Trackpoint>
            <Time>2018-06-10T11:05:07.000Z</Time>
            <Position>
              <LatitudeDegrees>35.88891760446131229400634765625</LatitudeDegrees>
              <LongitudeDegrees>-5.35141459666192531585693359375</LongitudeDegrees>
            </Position>
            <AltitudeMeters>87.8000030517578125</AltitudeMeters>
            <DistanceMeters>14805.713563243</DistanceMeters>
          </Trackpoint>
          <Trackpoint>
            <Time>2018-06-10T11:05:13.000Z</Time>
            <Position>
              <LatitudeDegrees>35.88887837715446949005126953125</LatitudeDegrees>
              <LongitudeDegrees>-5.3514963202178478240966796875</LongitudeDegrees>
            </Position>
            <AltitudeMeters>87.40000152587890625</AltitudeMeters>
            <DistanceMeters>14814.278628394</DistanceMeters>
          </Trackpoint>
          <Trackpoint>
            <Time>2018-06-10T11:05:19.000Z</Time>
            <Position>
              <LatitudeDegrees>35.88884032331407070159912109375</LatitudeDegrees>
              <LongitudeDegrees>-5.35158374346792697906494140625</LongitudeDegrees>
            </Position>
            <AltitudeMeters>87.59999847412109375</AltitudeMeters>
            <DistanceMeters>14823.228308726</DistanceMeters>
          </Trackpoint>
          <Trackpoint>
            <Time>2018-06-10T11:05:21.000Z</Time>
            <Position>
              <LatitudeDegrees>35.88882423005998134613037109375</LatitudeDegrees>
              <LongitudeDegrees>-5.35161115229129791259765625</LongitudeDegrees>
            </Position>
            <AltitudeMeters>87.59999847412109375</AltitudeMeters>
            <DistanceMeters>14826.281018816</DistanceMeters>
          </Trackpoint>
          <Trackpoint>
            <Time>2018-06-10T11:05:25.000Z</Time>
            <Position>
              <LatitudeDegrees>35.88879254646599292755126953125</LatitudeDegrees>
              <LongitudeDegrees>-5.35167410038411617279052734375</LongitudeDegrees>
            </Position>
            <AltitudeMeters>87.59999847412109375</AltitudeMeters>
            <DistanceMeters>14832.964038948</DistanceMeters>
          </Trackpoint>
          <Trackpoint>
            <Time>2018-06-10T11:05:31.000Z</Time>
            <Position>
              <LatitudeDegrees>35.8887430094182491302490234375</LatitudeDegrees>
              <LongitudeDegrees>-5.35176881588995456695556640625</LongitudeDegrees>
            </Position>
            <AltitudeMeters>87.8000030517578125</AltitudeMeters>
            <DistanceMeters>14843.13012103</DistanceMeters>
          </Trackpoint>
          <Trackpoint>
            <Time>2018-06-10T11:05:35.000Z</Time>
            <Position>
              <LatitudeDegrees>35.8887188695371150970458984375</LatitudeDegrees>
              <LongitudeDegrees>-5.351825393736362457275390625</LongitudeDegrees>
            </Position>
            <AltitudeMeters>87.8000030517578125</AltitudeMeters>
            <DistanceMeters>14848.896293198</DistanceMeters>
          </Trackpoint>
          <Trackpoint>
            <Time>2018-06-10T11:05:37.000Z</Time>
            <Position>
              <LatitudeDegrees>35.88869397528469562530517578125</LatitudeDegrees>
              <LongitudeDegrees>-5.351856909692287445068359375</LongitudeDegrees>
            </Position>
            <AltitudeMeters>87.8000030517578125</AltitudeMeters>
            <DistanceMeters>14852.865862872</DistanceMeters>
          </Trackpoint>
          <Trackpoint>
            <Time>2018-06-10T11:05:41.000Z</Time>
            <Position>
              <LatitudeDegrees>35.88867335580289363861083984375</LatitudeDegrees>
              <LongitudeDegrees>-5.35192253999412059783935546875</LongitudeDegrees>
            </Position>
            <AltitudeMeters>88</AltitudeMeters>
            <DistanceMeters>14859.213476683</DistanceMeters>
          </Trackpoint>
          <Trackpoint>
            <Time>2018-06-10T11:05:47.000Z</Time>
            <Position>
              <LatitudeDegrees>35.88864100165665149688720703125</LatitudeDegrees>
              <LongitudeDegrees>-5.3520216979086399078369140625</LongitudeDegrees>
            </Position>
            <AltitudeMeters>88</AltitudeMeters>
            <DistanceMeters>14868.852952115</DistanceMeters>
          </Trackpoint>
          <Trackpoint>
            <Time>2018-06-10T11:05:49.000Z</Time>
            <Position>
              <LatitudeDegrees>35.88862692005932331085205078125</LatitudeDegrees>
              <LongitudeDegrees>-5.35205413587391376495361328125</LongitudeDegrees>
            </Position>
            <AltitudeMeters>88.1999969482421875</AltitudeMeters>
            <DistanceMeters>14872.172092555</DistanceMeters>
          </Trackpoint>
          <Trackpoint>
            <Time>2018-06-10T11:05:51.000Z</Time>
            <Position>
              <LatitudeDegrees>35.88860831223428249359130859375</LatitudeDegrees>
              <LongitudeDegrees>-5.35208095796406269073486328125</LongitudeDegrees>
            </Position>
            <AltitudeMeters>88.1999969482421875</AltitudeMeters>
            <DistanceMeters>14875.357968561</DistanceMeters>
          </Trackpoint>
          <Trackpoint>
            <Time>2018-06-10T11:05:54.000Z</Time>
            <Position>
              <LatitudeDegrees>35.8885834179818630218505859375</LatitudeDegrees>
              <LongitudeDegrees>-5.35209068097174167633056640625</LongitudeDegrees>
            </Position>
            <AltitudeMeters>88.1999969482421875</AltitudeMeters>
            <DistanceMeters>14878.265226986</DistanceMeters>
          </Trackpoint>
          <Trackpoint>
            <Time>2018-06-10T11:05:55.000Z</Time>
            <Position>
              <LatitudeDegrees>35.88858366943895816802978515625</LatitudeDegrees>
              <LongitudeDegrees>-5.352095626294612884521484375</LongitudeDegrees>
            </Position>
            <AltitudeMeters>88.1999969482421875</AltitudeMeters>
            <DistanceMeters>14878.700694098</DistanceMeters>
          </Trackpoint>
          <Trackpoint>
            <Time>2018-06-10T11:06:00.000Z</Time>
            <Position>
              <LatitudeDegrees>35.88854444213211536407470703125</LatitudeDegrees>
              <LongitudeDegrees>-5.352073498070240020751953125</LongitudeDegrees>
            </Position>
            <AltitudeMeters>88</AltitudeMeters>
            <DistanceMeters>14883.501189393</DistanceMeters>
          </Trackpoint>
          <Trackpoint>
            <Time>2018-06-10T11:06:15.000Z</Time>
            <Position>
              <LatitudeDegrees>35.88845291174948215484619140625</LatitudeDegrees>
              <LongitudeDegrees>-5.35189974121749401092529296875</LongitudeDegrees>
            </Position>
            <AltitudeMeters>87.40000152587890625</AltitudeMeters>
            <DistanceMeters>14902.190071831</DistanceMeters>
          </Trackpoint>
          <Trackpoint>
            <Time>2018-06-10T11:06:19.000Z</Time>
            <Position>
              <LatitudeDegrees>35.88843514211475849151611328125</LatitudeDegrees>
              <LongitudeDegrees>-5.35183704458177089691162109375</LongitudeDegrees>
            </Position>
            <AltitudeMeters>87.1999969482421875</AltitudeMeters>
            <DistanceMeters>14908.179770798</DistanceMeters>
          </Trackpoint>
          <Trackpoint>
            <Time>2018-06-10T11:06:23.000Z</Time>
            <Position>
              <LatitudeDegrees>35.88841862976551055908203125</LatitudeDegrees>
              <LongitudeDegrees>-5.35177233628928661346435546875</LongitudeDegrees>
            </Position>
            <AltitudeMeters>86.8000030517578125</AltitudeMeters>
            <DistanceMeters>14914.297011743</DistanceMeters>
          </Trackpoint>
          <Trackpoint>
            <Time>2018-06-10T11:06:24.000Z</Time>
            <Position>
              <LatitudeDegrees>35.8884241618216037750244140625</LatitudeDegrees>
              <LongitudeDegrees>-5.35175490193068981170654296875</LongitudeDegrees>
            </Position>
            <AltitudeMeters>86.59999847412109375</AltitudeMeters>
            <DistanceMeters>14915.986243568</DistanceMeters>
          </Trackpoint>
          <Trackpoint>
            <Time>2018-06-10T11:06:37.000Z</Time>
            <Position>
              <LatitudeDegrees>35.88848526589572429656982421875</LatitudeDegrees>
              <LongitudeDegrees>-5.35152733325958251953125</LongitudeDegrees>
            </Position>
            <AltitudeMeters>84.1999969482421875</AltitudeMeters>
            <DistanceMeters>14937.604351169</DistanceMeters>
          </Trackpoint>
          <Trackpoint>
            <Time>2018-06-10T11:06:44.000Z</Time>
            <Position>
              <LatitudeDegrees>35.888508819043636322021484375</LatitudeDegrees>
              <LongitudeDegrees>-5.3514057956635951995849609375</LongitudeDegrees>
            </Position>
            <AltitudeMeters>82.8000030517578125</AltitudeMeters>
            <DistanceMeters>14948.872532251</DistanceMeters>
          </Trackpoint>
          <Trackpoint>
            <Time>2018-06-10T11:06:49.000Z</Time>
            <Position>
              <LatitudeDegrees>35.88849373161792755126953125</LatitudeDegrees>
              <LongitudeDegrees>-5.3513140976428985595703125</LongitudeDegrees>
            </Position>
            <AltitudeMeters>81.1999969482421875</AltitudeMeters>
            <DistanceMeters>14957.309063678</DistanceMeters>
          </Trackpoint>
          <Trackpoint>
            <Time>2018-06-10T11:06:51.000Z</Time>
            <Position>
              <LatitudeDegrees>35.8884677477180957794189453125</LatitudeDegrees>
              <LongitudeDegrees>-5.35128518007695674896240234375</LongitudeDegrees>
            </Position>
            <AltitudeMeters>80.40000152587890625</AltitudeMeters>
            <DistanceMeters>14961.202840553</DistanceMeters>
          </Trackpoint>
          <Trackpoint>
            <Time>2018-06-10T11:07:00.000Z</Time>
            <Position>
              <LatitudeDegrees>35.88831276632845401763916015625</LatitudeDegrees>
              <LongitudeDegrees>-5.35118945874273777008056640625</LongitudeDegrees>
            </Position>
            <AltitudeMeters>76</AltitudeMeters>
            <DistanceMeters>14980.491625109</DistanceMeters>
          </Trackpoint>
          <Trackpoint>
            <Time>2018-06-10T11:07:07.000Z</Time>
            <Position>
              <LatitudeDegrees>35.88822240941226482391357421875</LatitudeDegrees>
              <LongitudeDegrees>-5.35116699524223804473876953125</LongitudeDegrees>
            </Position>
            <AltitudeMeters>74.1999969482421875</AltitudeMeters>
            <DistanceMeters>14990.750109933</DistanceMeters>
          </Trackpoint>
          <Trackpoint>
            <Time>2018-06-10T11:07:09.000Z</Time>
            <Position>
              <LatitudeDegrees>35.88819592259824275970458984375</LatitudeDegrees>
              <LongitudeDegrees>-5.3511627204716205596923828125</LongitudeDegrees>
            </Position>
            <AltitudeMeters>73.8000030517578125</AltitudeMeters>
            <DistanceMeters>14993.721879567</DistanceMeters>
          </Trackpoint>
          <Trackpoint>
            <Time>2018-06-10T11:07:11.000Z</Time>
            <Position>
              <LatitudeDegrees>35.88817127980291843414306640625</LatitudeDegrees>
              <LongitudeDegrees>-5.3511630557477474212646484375</LongitudeDegrees>
            </Position>
            <AltitudeMeters>73.40000152587890625</AltitudeMeters>
            <DistanceMeters>14996.466161578</DistanceMeters>
          </Trackpoint>
          <Trackpoint>
            <Time>2018-06-10T11:07:18.000Z</Time>
            <Position>
              <LatitudeDegrees>35.888064242899417877197265625</LatitudeDegrees>
              <LongitudeDegrees>-5.35116816870868206024169921875</LongitudeDegrees>
            </Position>
            <AltitudeMeters>72.40000152587890625</AltitudeMeters>
            <DistanceMeters>15008.388890434</DistanceMeters>
          </Trackpoint>
          <Trackpoint>
            <Time>2018-06-10T11:07:20.000Z</Time>
            <Position>
              <LatitudeDegrees>35.88803163729608058929443359375</LatitudeDegrees>
              <LongitudeDegrees>-5.3511737845838069915771484375</LongitudeDegrees>
            </Position>
            <AltitudeMeters>72.40000152587890625</AltitudeMeters>
            <DistanceMeters>15012.052043939</DistanceMeters>
          </Trackpoint>
          <Trackpoint>
            <Time>2018-06-10T11:07:22.000Z</Time>
            <Position>
              <LatitudeDegrees>35.887998528778553009033203125</LatitudeDegrees>
              <LongitudeDegrees>-5.35118199884891510009765625</LongitudeDegrees>
            </Position>
            <AltitudeMeters>72.59999847412109375</AltitudeMeters>
            <DistanceMeters>15015.812509297</DistanceMeters>
          </Trackpoint>
          <Trackpoint>
            <Time>2018-06-10T11:07:30.000Z</Time>
            <Position>
              <LatitudeDegrees>35.8878981135785579681396484375</LatitudeDegrees>
              <LongitudeDegrees>-5.351251401007175445556640625</LongitudeDegrees>
            </Position>
            <AltitudeMeters>74.1999969482421875</AltitudeMeters>
            <DistanceMeters>15028.621743817</DistanceMeters>
          </Trackpoint>
          <Trackpoint>
            <Time>2018-06-10T11:07:38.000Z</Time>
            <Position>
              <LatitudeDegrees>35.8878206647932529449462890625</LatitudeDegrees>
              <LongitudeDegrees>-5.35133765079081058502197265625</LongitudeDegrees>
            </Position>
            <AltitudeMeters>75.8000030517578125</AltitudeMeters>
            <DistanceMeters>15040.232126289</DistanceMeters>
          </Trackpoint>
          <Trackpoint>
            <Time>2018-06-10T11:07:46.000Z</Time>
            <Position>
              <LatitudeDegrees>35.88772150687873363494873046875</LatitudeDegrees>
              <LongitudeDegrees>-5.35140906460583209991455078125</LongitudeDegrees>
            </Position>
            <AltitudeMeters>77.1999969482421875</AltitudeMeters>
            <DistanceMeters>15053.010304652</DistanceMeters>
          </Trackpoint>
          <Trackpoint>
            <Time>2018-06-10T11:08:00.000Z</Time>
            <Position>
              <LatitudeDegrees>35.88755889795720577239990234375</LatitudeDegrees>
              <LongitudeDegrees>-5.3515191189944744110107421875</LongitudeDegrees>
            </Position>
            <AltitudeMeters>79.40000152587890625</AltitudeMeters>
            <DistanceMeters>15073.651235752</DistanceMeters>
          </Trackpoint>
          <Trackpoint>
            <Time>2018-06-10T11:08:08.000Z</Time>
            <Position>
              <LatitudeDegrees>35.88745814748108386993408203125</LatitudeDegrees>
              <LongitudeDegrees>-5.351587347686290740966796875</LongitudeDegrees>
            </Position>
            <AltitudeMeters>80.8000030517578125</AltitudeMeters>
            <DistanceMeters>15086.44212802</DistanceMeters>
          </Trackpoint>
          <Trackpoint>
            <Time>2018-06-10T11:08:13.000Z</Time>
            <Position>
              <LatitudeDegrees>35.88740450330078601837158203125</LatitudeDegrees>
              <LongitudeDegrees>-5.35164467990398406982421875</LongitudeDegrees>
            </Position>
            <AltitudeMeters>81.8000030517578125</AltitudeMeters>
            <DistanceMeters>15094.340214375</DistanceMeters>
          </Trackpoint>
          <Trackpoint>
            <Time>2018-06-10T11:08:17.000Z</Time>
            <Position>
              <LatitudeDegrees>35.8873663656413555145263671875</LatitudeDegrees>
              <LongitudeDegrees>-5.35168600268661975860595703125</LongitudeDegrees>
            </Position>
            <AltitudeMeters>82.59999847412109375</AltitudeMeters>
            <DistanceMeters>15099.987712051</DistanceMeters>
          </Trackpoint>
          <Trackpoint>
            <Time>2018-06-10T11:08:20.000Z</Time>
            <Position>
              <LatitudeDegrees>35.88733610697090625762939453125</LatitudeDegrees>
              <LongitudeDegrees>-5.3517244756221771240234375</LongitudeDegrees>
            </Position>
            <AltitudeMeters>83.40000152587890625</AltitudeMeters>
            <DistanceMeters>15104.821948065</DistanceMeters>
          </Trackpoint>
          <Trackpoint>
            <Time>2018-06-10T11:08:25.000Z</Time>
            <Position>
              <LatitudeDegrees>35.88726167567074298858642578125</LatitudeDegrees>
              <LongitudeDegrees>-5.35176982171833515167236328125</LongitudeDegrees>
            </Position>
            <AltitudeMeters>84.1999969482421875</AltitudeMeters>
            <DistanceMeters>15114.060577972</DistanceMeters>
          </Trackpoint>
          <Trackpoint>
            <Time>2018-06-10T11:08:31.000Z</Time>
            <Position>
              <LatitudeDegrees>35.88717852719128131866455078125</LatitudeDegrees>
              <LongitudeDegrees>-5.35178323276340961456298828125</LongitudeDegrees>
            </Position>
            <AltitudeMeters>84.1999969482421875</AltitudeMeters>
            <DistanceMeters>15123.394020394</DistanceMeters>
          </Trackpoint>
          <Trackpoint>
            <Time>2018-06-10T11:08:37.000Z</Time>
            <Position>
              <LatitudeDegrees>35.88712672702968120574951171875</LatitudeDegrees>
              <LongitudeDegrees>-5.3517172671854496002197265625</LongitudeDegrees>
            </Position>
            <AltitudeMeters>82.59999847412109375</AltitudeMeters>
            <DistanceMeters>15131.678257292</DistanceMeters>
          </Trackpoint>
          <Trackpoint>
            <Time>2018-06-10T11:08:47.000Z</Time>
            <Position>
              <LatitudeDegrees>35.8871507830917835235595703125</LatitudeDegrees>
              <LongitudeDegrees>-5.3515714220702648162841796875</LongitudeDegrees>
            </Position>
            <AltitudeMeters>80.1999969482421875</AltitudeMeters>
            <DistanceMeters>15145.099582297</DistanceMeters>
          </Trackpoint>
          <Trackpoint>
            <Time>2018-06-10T11:08:49.000Z</Time>
            <Position>
              <LatitudeDegrees>35.8871608413755893707275390625</LatitudeDegrees>
              <LongitudeDegrees>-5.3515399061143398284912109375</LongitudeDegrees>
            </Position>
            <AltitudeMeters>79.59999847412109375</AltitudeMeters>
            <DistanceMeters>15148.155249007</DistanceMeters>
          </Trackpoint>
          <Trackpoint>
            <Time>2018-06-10T11:08:57.000Z</Time>
            <Position>
              <LatitudeDegrees>35.88720048777759075164794921875</LatitudeDegrees>
              <LongitudeDegrees>-5.3514349646866321563720703125</LongitudeDegrees>
            </Position>
            <AltitudeMeters>78</AltitudeMeters>
            <DistanceMeters>15158.596951119</DistanceMeters>
          </Trackpoint>
          <Trackpoint>
            <Time>2018-06-10T11:09:10.000Z</Time>
            <Position>
              <LatitudeDegrees>35.88734365068376064300537109375</LatitudeDegrees>
              <LongitudeDegrees>-5.35127629525959491729736328125</LongitudeDegrees>
            </Position>
            <AltitudeMeters>75.1999969482421875</AltitudeMeters>
            <DistanceMeters>15180.012144145</DistanceMeters>
          </Trackpoint>
          <Trackpoint>
            <Time>2018-06-10T11:09:22.000Z</Time>
            <Position>
              <LatitudeDegrees>35.88745563291013240814208984375</LatitudeDegrees>
              <LongitudeDegrees>-5.35108736716210842132568359375</LongitudeDegrees>
            </Position>
            <AltitudeMeters>71.40000152587890625</AltitudeMeters>
            <DistanceMeters>15201.120912277</DistanceMeters>
          </Trackpoint>
          <Trackpoint>
            <Time>2018-06-10T11:09:23.000Z</Time>
            <Position>
              <LatitudeDegrees>35.8874585665762424468994140625</LatitudeDegrees>
              <LongitudeDegrees>-5.3510708548128604888916015625</LongitudeDegrees>
            </Position>
            <AltitudeMeters>71.1999969482421875</AltitudeMeters>
            <DistanceMeters>15202.644306398</DistanceMeters>
          </Trackpoint>
          <Trackpoint>
            <Time>2018-06-10T11:09:36.000Z</Time>
            <Position>
              <LatitudeDegrees>35.8874491788446903228759765625</LatitudeDegrees>
              <LongitudeDegrees>-5.35084412433207035064697265625</LongitudeDegrees>
            </Position>
            <AltitudeMeters>69.40000152587890625</AltitudeMeters>
            <DistanceMeters>15223.1161133</DistanceMeters>
          </Trackpoint>
          <Trackpoint>
            <Time>2018-06-10T11:09:40.000Z</Time>
            <Position>
              <LatitudeDegrees>35.887439958751201629638671875</LatitudeDegrees>
              <LongitudeDegrees>-5.350769944489002227783203125</LongitudeDegrees>
            </Position>
            <AltitudeMeters>69</AltitudeMeters>
            <DistanceMeters>15229.883723493</DistanceMeters>
          </Trackpoint>
          <Trackpoint>
            <Time>2018-06-10T11:09:49.000Z</Time>
            <Position>
              <LatitudeDegrees>35.887406431138515472412109375</LatitudeDegrees>
              <LongitudeDegrees>-5.35061228089034557342529296875</LongitudeDegrees>
            </Position>
            <AltitudeMeters>68</AltitudeMeters>
            <DistanceMeters>15244.582485652</DistanceMeters>
          </Trackpoint>
          <Trackpoint>
            <Time>2018-06-10T11:09:52.000Z</Time>
            <Position>
              <LatitudeDegrees>35.887414477765560150146484375</LatitudeDegrees>
              <LongitudeDegrees>-5.35056643187999725341796875</LongitudeDegrees>
            </Position>
            <AltitudeMeters>67.59999847412109375</AltitudeMeters>
            <DistanceMeters>15248.811975152</DistanceMeters>
          </Trackpoint>
          <Trackpoint>
            <Time>2018-06-10T11:09:54.000Z</Time>
            <Position>
              <LatitudeDegrees>35.88742797262966632843017578125</LatitudeDegrees>
              <LongitudeDegrees>-5.35053969360888004302978515625</LongitudeDegrees>
            </Position>
            <AltitudeMeters>67.1999969482421875</AltitudeMeters>
            <DistanceMeters>15251.653258021</DistanceMeters>
          </Trackpoint>
          <Trackpoint>
            <Time>2018-06-10T11:10:02.000Z</Time>
            <Position>
              <LatitudeDegrees>35.88750055991113185882568359375</LatitudeDegrees>
              <LongitudeDegrees>-5.35043793730437755584716796875</LongitudeDegrees>
            </Position>
            <AltitudeMeters>66</AltitudeMeters>
            <DistanceMeters>15263.878879694</DistanceMeters>
          </Trackpoint>
          <Trackpoint>
            <Time>2018-06-10T11:10:06.000Z</Time>
            <Position>
              <LatitudeDegrees>35.8875393681228160858154296875</LatitudeDegrees>
              <LongitudeDegrees>-5.35039301030337810516357421875</LongitudeDegrees>
            </Position>
            <AltitudeMeters>65.59999847412109375</AltitudeMeters>
            <DistanceMeters>15269.801110432</DistanceMeters>
          </Trackpoint>
          <Trackpoint>
            <Time>2018-06-10T11:10:18.000Z</Time>
            <Position>
              <LatitudeDegrees>35.88770155794918537139892578125</LatitudeDegrees>
              <LongitudeDegrees>-5.35026007331907749176025390625</LongitudeDegrees>
            </Position>
            <AltitudeMeters>64.1999969482421875</AltitudeMeters>
            <DistanceMeters>15291.470535322</DistanceMeters>
          </Trackpoint>
          <Trackpoint>
            <Time>2018-06-10T11:10:22.000Z</Time>
            <Position>
              <LatitudeDegrees>35.887750424444675445556640625</LatitudeDegrees>
              <LongitudeDegrees>-5.350200645625591278076171875</LongitudeDegrees>
            </Position>
            <AltitudeMeters>63.799999237060546875</AltitudeMeters>
            <DistanceMeters>15299.105859384</DistanceMeters>
          </Trackpoint>
          <Trackpoint>
            <Time>2018-06-10T11:10:24.000Z</Time>
            <Position>
              <LatitudeDegrees>35.88776073418557643890380859375</LatitudeDegrees>
              <LongitudeDegrees>-5.350170135498046875</LongitudeDegrees>
            </Position>
            <AltitudeMeters>63.799999237060546875</AltitudeMeters>
            <DistanceMeters>15302.085215882</DistanceMeters>
          </Trackpoint>
          <Trackpoint>
            <Time>2018-06-10T11:10:25.000Z</Time>
            <Position>
              <LatitudeDegrees>35.88776760734617710113525390625</LatitudeDegrees>
              <LongitudeDegrees>-5.35015680827200412750244140625</LongitudeDegrees>
            </Position>
            <AltitudeMeters>63.799999237060546875</AltitudeMeters>
            <DistanceMeters>15303.507445513</DistanceMeters>
          </Trackpoint>
          <Trackpoint>
            <Time>2018-06-10T11:10:27.000Z</Time>
            <Position>
              <LatitudeDegrees>35.8877849578857421875</LatitudeDegrees>
              <LongitudeDegrees>-5.35013149492442607879638671875</LongitudeDegrees>
            </Position>
            <AltitudeMeters>63.59999847412109375</AltitudeMeters>
            <DistanceMeters>15306.497391278</DistanceMeters>
          </Trackpoint>
          <Trackpoint>
            <Time>2018-06-10T11:10:41.000Z</Time>
            <Position>
              <LatitudeDegrees>35.88789115659892559051513671875</LatitudeDegrees>
              <LongitudeDegrees>-5.34995597787201404571533203125</LongitudeDegrees>
            </Position>
            <AltitudeMeters>63</AltitudeMeters>
            <DistanceMeters>15326.250608817</DistanceMeters>
          </Trackpoint>
          <Trackpoint>
            <Time>2018-06-10T11:10:44.000Z</Time>
            <Position>
              <LatitudeDegrees>35.88791479356586933135986328125</LatitudeDegrees>
              <LongitudeDegrees>-5.3499272279441356658935546875</LongitudeDegrees>
            </Position>
            <AltitudeMeters>62.799999237060546875</AltitudeMeters>
            <DistanceMeters>15329.943225157</DistanceMeters>
          </Trackpoint>
          <Trackpoint>
            <Time>2018-06-10T11:10:51.000Z</Time>
            <Position>
              <LatitudeDegrees>35.88797246105968952178955078125</LatitudeDegrees>
              <LongitudeDegrees>-5.34985673613846302032470703125</LongitudeDegrees>
            </Position>
            <AltitudeMeters>62.40000152587890625</AltitudeMeters>
            <DistanceMeters>15338.976262893</DistanceMeters>
          </Trackpoint>
          <Trackpoint>
            <Time>2018-06-10T11:11:02.000Z</Time>
            <Position>
              <LatitudeDegrees>35.88805695064365863800048828125</LatitudeDegrees>
              <LongitudeDegrees>-5.34974877722561359405517578125</LongitudeDegrees>
            </Position>
            <AltitudeMeters>61.799999237060546875</AltitudeMeters>
            <DistanceMeters>15352.511483279</DistanceMeters>
          </Trackpoint>
          <Trackpoint>
            <Time>2018-06-10T11:11:07.000Z</Time>
            <Position>
              <LatitudeDegrees>35.88813808746635913848876953125</LatitudeDegrees>
              <LongitudeDegrees>-5.34972153604030609130859375</LongitudeDegrees>
            </Position>
            <AltitudeMeters>61.40000152587890625</AltitudeMeters>
            <DistanceMeters>15361.870529251</DistanceMeters>
          </Trackpoint>
          <Trackpoint>
            <Time>2018-06-10T11:11:10.000Z</Time>
            <Position>
              <LatitudeDegrees>35.8881671726703643798828125</LatitudeDegrees>
              <LongitudeDegrees>-5.34970619715750217437744140625</LongitudeDegrees>
            </Position>
            <AltitudeMeters>61.200000762939453125</AltitudeMeters>
            <DistanceMeters>15365.391650516</DistanceMeters>
          </Trackpoint>
          <Trackpoint>
            <Time>2018-06-10T11:11:25.000Z</Time>
            <Position>
              <LatitudeDegrees>35.88828912936151027679443359375</LatitudeDegrees>
              <LongitudeDegrees>-5.3496001660823822021484375</LongitudeDegrees>
            </Position>
            <AltitudeMeters>61</AltitudeMeters>
            <DistanceMeters>15381.994968668</DistanceMeters>
          </Trackpoint>
          <Trackpoint>
            <Time>2018-06-10T11:11:28.000Z</Time>
            <Position>
              <LatitudeDegrees>35.88832668028771877288818359375</LatitudeDegrees>
              <LongitudeDegrees>-5.34957627765834331512451171875</LongitudeDegrees>
            </Position>
            <AltitudeMeters>60.799999237060546875</AltitudeMeters>
            <DistanceMeters>15386.696630835</DistanceMeters>
          </Trackpoint>
          <Trackpoint>
            <Time>2018-06-10T11:11:32.000Z</Time>
            <Position>
              <LatitudeDegrees>35.888393484055995941162109375</LatitudeDegrees>
              <LongitudeDegrees>-5.3495607711374759674072265625</LongitudeDegrees>
            </Position>
            <AltitudeMeters>60.40000152587890625</AltitudeMeters>
            <DistanceMeters>15394.263049054</DistanceMeters>
          </Trackpoint>
          <Trackpoint>
            <Time>2018-06-10T11:11:36.000Z</Time>
            <Position>
              <LatitudeDegrees>35.888463556766510009765625</LatitudeDegrees>
              <LongitudeDegrees>-5.3495436720550060272216796875</LongitudeDegrees>
            </Position>
            <AltitudeMeters>60</AltitudeMeters>
            <DistanceMeters>15402.21355439</DistanceMeters>
          </Trackpoint>
          <Trackpoint>
            <Time>2018-06-10T11:11:43.000Z</Time>
            <Position>
              <LatitudeDegrees>35.8885515667498111724853515625</LatitudeDegrees>
              <LongitudeDegrees>-5.349487848579883575439453125</LongitudeDegrees>
            </Position>
            <AltitudeMeters>59.59999847412109375</AltitudeMeters>
            <DistanceMeters>15413.22681852</DistanceMeters>
          </Trackpoint>
          <Trackpoint>
            <Time>2018-06-10T11:11:46.000Z</Time>
            <Position>
              <LatitudeDegrees>35.888585932552814483642578125</LatitudeDegrees>
              <LongitudeDegrees>-5.349445603787899017333984375</LongitudeDegrees>
            </Position>
            <AltitudeMeters>59.40000152587890625</AltitudeMeters>
            <DistanceMeters>15418.624971601</DistanceMeters>
          </Trackpoint>
          <Trackpoint>
            <Time>2018-06-10T11:11:48.000Z</Time>
            <Position>
              <LatitudeDegrees>35.8886092342436313629150390625</LatitudeDegrees>
              <LongitudeDegrees>-5.3494236432015895843505859375</LongitudeDegrees>
            </Position>
            <AltitudeMeters>59.40000152587890625</AltitudeMeters>
            <DistanceMeters>15421.889246437</DistanceMeters>
          </Trackpoint>
          <Trackpoint>
            <Time>2018-06-10T11:11:51.000Z</Time>
            <Position>
              <LatitudeDegrees>35.8886471204459667205810546875</LatitudeDegrees>
              <LongitudeDegrees>-5.3493921272456645965576171875</LongitudeDegrees>
            </Position>
            <AltitudeMeters>59.200000762939453125</AltitudeMeters>
            <DistanceMeters>15426.975617345</DistanceMeters>
          </Trackpoint>
          <Trackpoint>
            <Time>2018-06-10T11:11:53.000Z</Time>
            <Position>
              <LatitudeDegrees>35.88866765610873699188232421875</LatitudeDegrees>
              <LongitudeDegrees>-5.34936807118356227874755859375</LongitudeDegrees>
            </Position>
            <AltitudeMeters>59.200000762939453125</AltitudeMeters>
            <DistanceMeters>15430.127296911</DistanceMeters>
          </Trackpoint>
          <Trackpoint>
            <Time>2018-06-10T11:11:59.000Z</Time>
            <Position>
              <LatitudeDegrees>35.88874527253210544586181640625</LatitudeDegrees>
              <LongitudeDegrees>-5.3492959029972553253173828125</LongitudeDegrees>
            </Position>
            <AltitudeMeters>58.799999237060546875</AltitudeMeters>
            <DistanceMeters>15440.943240713</DistanceMeters>
          </Trackpoint>
          <Trackpoint>
            <Time>2018-06-10T11:12:01.000Z</Time>
            <Position>
              <LatitudeDegrees>35.888762287795543670654296875</LatitudeDegrees>
              <LongitudeDegrees>-5.3492757864296436309814453125</LongitudeDegrees>
            </Position>
            <AltitudeMeters>58.59999847412109375</AltitudeMeters>
            <DistanceMeters>15443.566391157</DistanceMeters>
          </Trackpoint>
          <Trackpoint>
            <Time>2018-06-10T11:12:05.000Z</Time>
            <Position>
              <LatitudeDegrees>35.888813249766826629638671875</LatitudeDegrees>
              <LongitudeDegrees>-5.3492452763020992279052734375</LongitudeDegrees>
            </Position>
            <AltitudeMeters>58.40000152587890625</AltitudeMeters>
            <DistanceMeters>15449.87046654</DistanceMeters>
          </Trackpoint>
          <Trackpoint>
            <Time>2018-06-10T11:12:06.000Z</Time>
            <Position>
              <LatitudeDegrees>35.88882339186966419219970703125</LatitudeDegrees>
              <LongitudeDegrees>-5.349234044551849365234375</LongitudeDegrees>
            </Position>
            <AltitudeMeters>58.40000152587890625</AltitudeMeters>
            <DistanceMeters>15451.39089397</DistanceMeters>
          </Trackpoint>
          <Trackpoint>
            <Time>2018-06-10T11:12:11.000Z</Time>
            <Position>
              <LatitudeDegrees>35.88888843543827533721923828125</LatitudeDegrees>
              <LongitudeDegrees>-5.34917864017188549041748046875</LongitudeDegrees>
            </Position>
            <AltitudeMeters>58</AltitudeMeters>
            <DistanceMeters>15460.186385138</DistanceMeters>
          </Trackpoint>
          <Trackpoint>
            <Time>2018-06-10T11:12:12.000Z</Time>
            <Position>
              <LatitudeDegrees>35.88890033774077892303466796875</LatitudeDegrees>
              <LongitudeDegrees>-5.3491683304309844970703125</LongitudeDegrees>
            </Position>
            <AltitudeMeters>58</AltitudeMeters>
            <DistanceMeters>15461.804631772</DistanceMeters>
          </Trackpoint>
          <Trackpoint>
            <Time>2018-06-10T11:12:14.000Z</Time>
            <Position>
              <LatitudeDegrees>35.88892196305096149444580078125</LatitudeDegrees>
              <LongitudeDegrees>-5.34914595074951648712158203125</LongitudeDegrees>
            </Position>
            <AltitudeMeters>58</AltitudeMeters>
            <DistanceMeters>15464.944829772</DistanceMeters>
          </Trackpoint>
          <Trackpoint>
            <Time>2018-06-10T11:12:21.000Z</Time>
            <Position>
              <LatitudeDegrees>35.88898633606731891632080078125</LatitudeDegrees>
              <LongitudeDegrees>-5.34907369874417781829833984375</LongitudeDegrees>
            </Position>
            <AltitudeMeters>57.59999847412109375</AltitudeMeters>
            <DistanceMeters>15474.629166298</DistanceMeters>
          </Trackpoint>
          <Trackpoint>
            <Time>2018-06-10T11:12:27.000Z</Time>
            <Position>
              <LatitudeDegrees>35.88904601521790027618408203125</LatitudeDegrees>
              <LongitudeDegrees>-5.3490149416029453277587890625</LongitudeDegrees>
            </Position>
            <AltitudeMeters>57.40000152587890625</AltitudeMeters>
            <DistanceMeters>15483.125957526</DistanceMeters>
          </Trackpoint>
          <Trackpoint>
            <Time>2018-06-10T11:12:35.000Z</Time>
            <Position>
              <LatitudeDegrees>35.8891084603965282440185546875</LatitudeDegrees>
              <LongitudeDegrees>-5.34891008399426937103271484375</LongitudeDegrees>
            </Position>
            <AltitudeMeters>57.200000762939453125</AltitudeMeters>
            <DistanceMeters>15494.86089109</DistanceMeters>
          </Trackpoint>
          <Trackpoint>
            <Time>2018-06-10T11:12:44.000Z</Time>
            <Position>
              <LatitudeDegrees>35.88920946232974529266357421875</LatitudeDegrees>
              <LongitudeDegrees>-5.34875183366239070892333984375</LongitudeDegrees>
            </Position>
            <AltitudeMeters>57</AltitudeMeters>
            <DistanceMeters>15513.02665872</DistanceMeters>
          </Trackpoint>
          <Trackpoint>
            <Time>2018-06-10T11:12:55.000Z</Time>
            <Position>
              <LatitudeDegrees>35.88934726081788539886474609375</LatitudeDegrees>
              <LongitudeDegrees>-5.3486079163849353790283203125</LongitudeDegrees>
            </Position>
            <AltitudeMeters>56.799999237060546875</AltitudeMeters>
            <DistanceMeters>15533.117562558</DistanceMeters>
          </Trackpoint>
          <Trackpoint>
            <Time>2018-06-10T11:13:09.000Z</Time>
            <Position>
              <LatitudeDegrees>35.88939419947564601898193359375</LatitudeDegrees>
              <LongitudeDegrees>-5.3483839519321918487548828125</LongitudeDegrees>
            </Position>
            <AltitudeMeters>57.200000762939453125</AltitudeMeters>
            <DistanceMeters>15553.977603874</DistanceMeters>
          </Trackpoint>
          <Trackpoint>
            <Time>2018-06-10T11:13:17.000Z</Time>
            <Position>
              <LatitudeDegrees>35.8894544653594493865966796875</LatitudeDegrees>
              <LongitudeDegrees>-5.34826937131583690643310546875</LongitudeDegrees>
            </Position>
            <AltitudeMeters>57.200000762939453125</AltitudeMeters>
            <DistanceMeters>15566.29557345</DistanceMeters>
          </Trackpoint>
          <Trackpoint>
            <Time>2018-06-10T11:13:30.000Z</Time>
            <Position>
              <LatitudeDegrees>35.88947885669767856597900390625</LatitudeDegrees>
              <LongitudeDegrees>-5.34804658032953739166259765625</LongitudeDegrees>
            </Position>
            <AltitudeMeters>60</AltitudeMeters>
            <DistanceMeters>15586.567468993</DistanceMeters>
          </Trackpoint>
          <Trackpoint>
            <Time>2018-06-10T11:13:38.000Z</Time>
            <Position>
              <LatitudeDegrees>35.88952529244124889373779296875</LatitudeDegrees>
              <LongitudeDegrees>-5.34791934303939342498779296875</LongitudeDegrees>
            </Position>
            <AltitudeMeters>60.40000152587890625</AltitudeMeters>
            <DistanceMeters>15599.150527459</DistanceMeters>
          </Trackpoint>
          <Trackpoint>
            <Time>2018-06-10T11:13:44.000Z</Time>
            <Position>
              <LatitudeDegrees>35.8896019868552684783935546875</LatitudeDegrees>
              <LongitudeDegrees>-5.34783367998898029327392578125</LongitudeDegrees>
            </Position>
            <AltitudeMeters>59.59999847412109375</AltitudeMeters>
            <DistanceMeters>15610.662495227</DistanceMeters>
          </Trackpoint>
          <Trackpoint>
            <Time>2018-06-10T11:13:48.000Z</Time>
            <Position>
              <LatitudeDegrees>35.88962621055543422698974609375</LatitudeDegrees>
              <LongitudeDegrees>-5.34775941632688045501708984375</LongitudeDegrees>
            </Position>
            <AltitudeMeters>59.40000152587890625</AltitudeMeters>
            <DistanceMeters>15617.881398964</DistanceMeters>
          </Trackpoint>
          <Trackpoint>
            <Time>2018-06-10T11:13:51.000Z</Time>
            <Position>
              <LatitudeDegrees>35.88963660411536693572998046875</LatitudeDegrees>
              <LongitudeDegrees>-5.347698815166950225830078125</LongitudeDegrees>
            </Position>
            <AltitudeMeters>59.40000152587890625</AltitudeMeters>
            <DistanceMeters>15623.466997778</DistanceMeters>
          </Trackpoint>
          <Trackpoint>
            <Time>2018-06-10T11:14:04.000Z</Time>
            <Position>
              <LatitudeDegrees>35.889696367084980010986328125</LatitudeDegrees>
              <LongitudeDegrees>-5.3474854119122028350830078125</LongitudeDegrees>
            </Position>
            <AltitudeMeters>59.40000152587890625</AltitudeMeters>
            <DistanceMeters>15643.826900999</DistanceMeters>
          </Trackpoint>
          <Trackpoint>
            <Time>2018-06-10T11:14:06.000Z</Time>
            <Position>
              <LatitudeDegrees>35.889707095921039581298828125</LatitudeDegrees>
              <LongitudeDegrees>-5.34745498560369014739990234375</LongitudeDegrees>
            </Position>
            <AltitudeMeters>59.200000762939453125</AltitudeMeters>
            <DistanceMeters>15646.819865388</DistanceMeters>
          </Trackpoint>
          <Trackpoint>
            <Time>2018-06-10T11:14:15.000Z</Time>
            <Position>
              <LatitudeDegrees>35.88975160382688045501708984375</LatitudeDegrees>
              <LongitudeDegrees>-5.347334705293178558349609375</LongitudeDegrees>
            </Position>
            <AltitudeMeters>59.200000762939453125</AltitudeMeters>
            <DistanceMeters>15658.742972929</DistanceMeters>
          </Trackpoint>
          <Trackpoint>
            <Time>2018-06-10T11:14:21.000Z</Time>
            <Position>
              <LatitudeDegrees>35.88976719416677951812744140625</LatitudeDegrees>
              <LongitudeDegrees>-5.34724191762506961822509765625</LongitudeDegrees>
            </Position>
            <AltitudeMeters>59.59999847412109375</AltitudeMeters>
            <DistanceMeters>15667.28798306</DistanceMeters>
          </Trackpoint>
          <Trackpoint>
            <Time>2018-06-10T11:14:27.000Z</Time>
            <Position>
              <LatitudeDegrees>35.88982871733605861663818359375</LatitudeDegrees>
              <LongitudeDegrees>-5.34713580273091793060302734375</LongitudeDegrees>
            </Position>
            <AltitudeMeters>59.799999237060546875</AltitudeMeters>
            <DistanceMeters>15679.054423985</DistanceMeters>
          </Trackpoint>
          <Trackpoint>
            <Time>2018-06-10T11:14:38.000Z</Time>
            <Position>
              <LatitudeDegrees>35.88989116251468658447265625</LatitudeDegrees>
              <LongitudeDegrees>-5.34693765453994274139404296875</LongitudeDegrees>
            </Position>
            <AltitudeMeters>59.40000152587890625</AltitudeMeters>
            <DistanceMeters>15698.225813382</DistanceMeters>
          </Trackpoint>
          <Trackpoint>
            <Time>2018-06-10T11:14:40.000Z</Time>
            <Position>
              <LatitudeDegrees>35.88989912532269954681396484375</LatitudeDegrees>
              <LongitudeDegrees>-5.3469000197947025299072265625</LongitudeDegrees>
            </Position>
            <AltitudeMeters>59.59999847412109375</AltitudeMeters>
            <DistanceMeters>15701.73280128</DistanceMeters>
          </Trackpoint>
          <Trackpoint>
            <Time>2018-06-10T11:14:53.000Z</Time>
            <Position>
              <LatitudeDegrees>35.8900029771029949188232421875</LatitudeDegrees>
              <LongitudeDegrees>-5.34671251662075519561767578125</LongitudeDegrees>
            </Position>
            <AltitudeMeters>59.59999847412109375</AltitudeMeters>
            <DistanceMeters>15722.213648698</DistanceMeters>
          </Trackpoint>
          <Trackpoint>
            <Time>2018-06-10T11:14:56.000Z</Time>
            <Position>
              <LatitudeDegrees>35.89002929627895355224609375</LatitudeDegrees>
              <LongitudeDegrees>-5.34669005312025547027587890625</LongitudeDegrees>
            </Position>
            <AltitudeMeters>59.40000152587890625</AltitudeMeters>
            <DistanceMeters>15725.774298544</DistanceMeters>
          </Trackpoint>
          <Trackpoint>
            <Time>2018-06-10T11:14:58.000Z</Time>
            <Position>
              <LatitudeDegrees>35.890054441988468170166015625</LatitudeDegrees>
              <LongitudeDegrees>-5.34667764790356159210205078125</LongitudeDegrees>
            </Position>
            <AltitudeMeters>59.200000762939453125</AltitudeMeters>
            <DistanceMeters>15728.788308648</DistanceMeters>
          </Trackpoint>
          <Trackpoint>
            <Time>2018-06-10T11:15:03.000Z</Time>
            <Position>
              <LatitudeDegrees>35.8901146240532398223876953125</LatitudeDegrees>
              <LongitudeDegrees>-5.3466515801846981048583984375</LongitudeDegrees>
            </Position>
            <AltitudeMeters>58.799999237060546875</AltitudeMeters>
            <DistanceMeters>15735.886746966</DistanceMeters>
          </Trackpoint>
          <Trackpoint>
            <Time>2018-06-10T11:15:11.000Z</Time>
            <Position>
              <LatitudeDegrees>35.89022249914705753326416015625</LatitudeDegrees>
              <LongitudeDegrees>-5.34658947028219699859619140625</LongitudeDegrees>
            </Position>
            <AltitudeMeters>58</AltitudeMeters>
            <DistanceMeters>15749.135052361</DistanceMeters>
          </Trackpoint>
          <Trackpoint>
            <Time>2018-06-10T11:15:14.000Z</Time>
            <Position>
              <LatitudeDegrees>35.890271365642547607421875</LatitudeDegrees>
              <LongitudeDegrees>-5.34656164236366748809814453125</LongitudeDegrees>
            </Position>
            <AltitudeMeters>57.59999847412109375</AltitudeMeters>
            <DistanceMeters>15755.12399748</DistanceMeters>
          </Trackpoint>
          <Trackpoint>
            <Time>2018-06-10T11:15:18.000Z</Time>
            <Position>
              <LatitudeDegrees>35.890323333442211151123046875</LatitudeDegrees>
              <LongitudeDegrees>-5.34651202149689197540283203125</LongitudeDegrees>
            </Position>
            <AltitudeMeters>57.40000152587890625</AltitudeMeters>
            <DistanceMeters>15762.436116367</DistanceMeters>
          </Trackpoint>
          <Trackpoint>
            <Time>2018-06-10T11:15:21.000Z</Time>
            <Position>
              <LatitudeDegrees>35.89035979472100734710693359375</LatitudeDegrees>
              <LongitudeDegrees>-5.34647581167519092559814453125</LongitudeDegrees>
            </Position>
            <AltitudeMeters>57.200000762939453125</AltitudeMeters>
            <DistanceMeters>15767.64527942</DistanceMeters>
          </Trackpoint>
          <Trackpoint>
            <Time>2018-06-10T11:15:28.000Z</Time>
            <Position>
              <LatitudeDegrees>35.89039717800915241241455078125</LatitudeDegrees>
              <LongitudeDegrees>-5.34637874923646450042724609375</LongitudeDegrees>
            </Position>
            <AltitudeMeters>57.40000152587890625</AltitudeMeters>
            <DistanceMeters>15777.336606734</DistanceMeters>
          </Trackpoint>
          <Trackpoint>
            <Time>2018-06-10T11:15:41.000Z</Time>
            <Position>
              <LatitudeDegrees>35.890520475804805755615234375</LatitudeDegrees>
              <LongitudeDegrees>-5.34620423801243305206298828125</LongitudeDegrees>
            </Position>
            <AltitudeMeters>56.200000762939453125</AltitudeMeters>
            <DistanceMeters>15798.21590271</DistanceMeters>
          </Trackpoint>
          <Trackpoint>
            <Time>2018-06-10T11:15:47.000Z</Time>
            <Position>
              <LatitudeDegrees>35.89057202450931072235107421875</LatitudeDegrees>
              <LongitudeDegrees>-5.34613802097737789154052734375</LongitudeDegrees>
            </Position>
            <AltitudeMeters>55.40000152587890625</AltitudeMeters>
            <DistanceMeters>15806.496868869</DistanceMeters>
          </Trackpoint>
          <Trackpoint>
            <Time>2018-06-10T11:15:52.000Z</Time>
            <Position>
              <LatitudeDegrees>35.89061209000647068023681640625</LatitudeDegrees>
              <LongitudeDegrees>-5.34606560133397579193115234375</LongitudeDegrees>
            </Position>
            <AltitudeMeters>54.40000152587890625</AltitudeMeters>
            <DistanceMeters>15814.404096531</DistanceMeters>
          </Trackpoint>
          <Trackpoint>
            <Time>2018-06-10T11:15:56.000Z</Time>
            <Position>
              <LatitudeDegrees>35.89063522405922412872314453125</LatitudeDegrees>
              <LongitudeDegrees>-5.34600223414599895477294921875</LongitudeDegrees>
            </Position>
            <AltitudeMeters>53.799999237060546875</AltitudeMeters>
            <DistanceMeters>15820.671538795</DistanceMeters>
          </Trackpoint>
          <Trackpoint>
            <Time>2018-06-10T11:16:00.000Z</Time>
            <Position>
              <LatitudeDegrees>35.8906480483710765838623046875</LatitudeDegrees>
              <LongitudeDegrees>-5.34593693912029266357421875</LongitudeDegrees>
            </Position>
            <AltitudeMeters>53.40000152587890625</AltitudeMeters>
            <DistanceMeters>15826.729445254</DistanceMeters>
          </Trackpoint>
          <Trackpoint>
            <Time>2018-06-10T11:16:03.000Z</Time>
            <Position>
              <LatitudeDegrees>35.89066975750029087066650390625</LatitudeDegrees>
              <LongitudeDegrees>-5.34588924609124660491943359375</LongitudeDegrees>
            </Position>
            <AltitudeMeters>52.799999237060546875</AltitudeMeters>
            <DistanceMeters>15831.661688753</DistanceMeters>
          </Trackpoint>
          <Trackpoint>
            <Time>2018-06-10T11:16:10.000Z</Time>
            <Position>
              <LatitudeDegrees>35.8907258324325084686279296875</LatitudeDegrees>
              <LongitudeDegrees>-5.3457905910909175872802734375</LongitudeDegrees>
            </Position>
            <AltitudeMeters>51.200000762939453125</AltitudeMeters>
            <DistanceMeters>15842.528441242</DistanceMeters>
          </Trackpoint>
          <Trackpoint>
            <Time>2018-06-10T11:16:15.000Z</Time>
            <Position>
              <LatitudeDegrees>35.89077134616672992706298828125</LatitudeDegrees>
              <LongitudeDegrees>-5.3457312472164630889892578125</LongitudeDegrees>
            </Position>
            <AltitudeMeters>50.200000762939453125</AltitudeMeters>
            <DistanceMeters>15849.89776141</DistanceMeters>
          </Trackpoint>
          <Trackpoint>
            <Time>2018-06-10T11:16:20.000Z</Time>
            <Position>
              <LatitudeDegrees>35.89082348160445690155029296875</LatitudeDegrees>
              <LongitudeDegrees>-5.3456782735884189605712890625</LongitudeDegrees>
            </Position>
            <AltitudeMeters>49</AltitudeMeters>
            <DistanceMeters>15857.413887955</DistanceMeters>
          </Trackpoint>
          <Trackpoint>
            <Time>2018-06-10T11:16:30.000Z</Time>
            <Position>
              <LatitudeDegrees>35.89091786183416843414306640625</LatitudeDegrees>
              <LongitudeDegrees>-5.34557559527456760406494140625</LongitudeDegrees>
            </Position>
            <AltitudeMeters>46.59999847412109375</AltitudeMeters>
            <DistanceMeters>15871.416067062</DistanceMeters>
          </Trackpoint>
          <Trackpoint>
            <Time>2018-06-10T11:16:38.000Z</Time>
            <Position>
              <LatitudeDegrees>35.89101341553032398223876953125</LatitudeDegrees>
              <LongitudeDegrees>-5.34549278207123279571533203125</LongitudeDegrees>
            </Position>
            <AltitudeMeters>44.40000152587890625</AltitudeMeters>
            <DistanceMeters>15884.411469697</DistanceMeters>
          </Trackpoint>
          <Trackpoint>
            <Time>2018-06-10T11:16:44.000Z</Time>
            <Position>
              <LatitudeDegrees>35.89107292704284191131591796875</LatitudeDegrees>
              <LongitudeDegrees>-5.3454217873513698577880859375</LongitudeDegrees>
            </Position>
            <AltitudeMeters>43.799999237060546875</AltitudeMeters>
            <DistanceMeters>15893.622691021</DistanceMeters>
          </Trackpoint>
          <Trackpoint>
            <Time>2018-06-10T11:16:46.000Z</Time>
            <Position>
              <LatitudeDegrees>35.8910912834107875823974609375</LatitudeDegrees>
              <LongitudeDegrees>-5.34539773128926753997802734375</LongitudeDegrees>
            </Position>
            <AltitudeMeters>43.59999847412109375</AltitudeMeters>
            <DistanceMeters>15896.603562575</DistanceMeters>
          </Trackpoint>
          <Trackpoint>
            <Time>2018-06-10T11:17:00.000Z</Time>
            <Position>
              <LatitudeDegrees>35.89122883044183254241943359375</LatitudeDegrees>
              <LongitudeDegrees>-5.34525305964052677154541015625</LongitudeDegrees>
            </Position>
            <AltitudeMeters>42.59999847412109375</AltitudeMeters>
            <DistanceMeters>15916.716926905</DistanceMeters>
          </Trackpoint>
          <Trackpoint>
            <Time>2018-06-10T11:17:10.000Z</Time>
            <Position>
              <LatitudeDegrees>35.89131935499608516693115234375</LatitudeDegrees>
              <LongitudeDegrees>-5.34514836966991424560546875</LongitudeDegrees>
            </Position>
            <AltitudeMeters>42</AltitudeMeters>
            <DistanceMeters>15930.523625052</DistanceMeters>
          </Trackpoint>
          <Trackpoint>
            <Time>2018-06-10T11:17:23.000Z</Time>
            <Position>
              <LatitudeDegrees>35.8914051018655300140380859375</LatitudeDegrees>
              <LongitudeDegrees>-5.34508257173001766204833984375</LongitudeDegrees>
            </Position>
            <AltitudeMeters>41</AltitudeMeters>
            <DistanceMeters>15941.761714265</DistanceMeters>
          </Trackpoint>
          <Trackpoint>
            <Time>2018-06-10T11:17:37.000Z</Time>
            <Position>
              <LatitudeDegrees>35.89153711684048175811767578125</LatitudeDegrees>
              <LongitudeDegrees>-5.34491107799112796783447265625</LongitudeDegrees>
            </Position>
            <AltitudeMeters>41</AltitudeMeters>
            <DistanceMeters>15963.092830549</DistanceMeters>
          </Trackpoint>
          <Trackpoint>
            <Time>2018-06-10T11:17:49.000Z</Time>
            <Position>
              <LatitudeDegrees>35.89169436134397983551025390625</LatitudeDegrees>
              <LongitudeDegrees>-5.34480244852602481842041015625</LongitudeDegrees>
            </Position>
            <AltitudeMeters>39.59999847412109375</AltitudeMeters>
            <DistanceMeters>15983.149096036</DistanceMeters>
          </Trackpoint>
          <Trackpoint>
            <Time>2018-06-10T11:17:56.000Z</Time>
            <Position>
              <LatitudeDegrees>35.89177918620407581329345703125</LatitudeDegrees>
              <LongitudeDegrees>-5.3447520732879638671875</LongitudeDegrees>
            </Position>
            <AltitudeMeters>38.59999847412109375</AltitudeMeters>
            <DistanceMeters>15993.626195312</DistanceMeters>
          </Trackpoint>
          <Trackpoint>
            <Time>2018-06-10T11:18:09.000Z</Time>
            <Position>
              <LatitudeDegrees>35.891936682164669036865234375</LatitudeDegrees>
              <LongitudeDegrees>-5.34463229589164257049560546875</LongitudeDegrees>
            </Position>
            <AltitudeMeters>37.40000152587890625</AltitudeMeters>
            <DistanceMeters>16014.215657878</DistanceMeters>
          </Trackpoint>
          <Trackpoint>
            <Time>2018-06-10T11:18:15.000Z</Time>
            <Position>
              <LatitudeDegrees>35.89200851507484912872314453125</LatitudeDegrees>
              <LongitudeDegrees>-5.344574041664600372314453125</LongitudeDegrees>
            </Position>
            <AltitudeMeters>37.200000762939453125</AltitudeMeters>
            <DistanceMeters>16023.782257313</DistanceMeters>
          </Trackpoint>
          <Trackpoint>
            <Time>2018-06-10T11:18:20.000Z</Time>
            <Position>
              <LatitudeDegrees>35.89207590557634830474853515625</LatitudeDegrees>
              <LongitudeDegrees>-5.34456473775207996368408203125</LongitudeDegrees>
            </Position>
            <AltitudeMeters>36.200000762939453125</AltitudeMeters>
            <DistanceMeters>16031.330752684</DistanceMeters>
          </Trackpoint>
          <Trackpoint>
            <Time>2018-06-10T11:18:23.000Z</Time>
            <Position>
              <LatitudeDegrees>35.8921132050454616546630859375</LatitudeDegrees>
              <LongitudeDegrees>-5.344570018351078033447265625</LongitudeDegrees>
            </Position>
            <AltitudeMeters>35.40000152587890625</AltitudeMeters>
            <DistanceMeters>16035.50976786</DistanceMeters>
          </Trackpoint>
          <Trackpoint>
            <Time>2018-06-10T11:18:29.000Z</Time>
            <Position>
              <LatitudeDegrees>35.89218688197433948516845703125</LatitudeDegrees>
              <LongitudeDegrees>-5.34457563422620296478271484375</LongitudeDegrees>
            </Position>
            <AltitudeMeters>34</AltitudeMeters>
            <DistanceMeters>16043.725045783</DistanceMeters>
          </Trackpoint>
          <Trackpoint>
            <Time>2018-06-10T11:18:33.000Z</Time>
            <Position>
              <LatitudeDegrees>35.89223499409854412078857421875</LatitudeDegrees>
              <LongitudeDegrees>-5.34458912909030914306640625</LongitudeDegrees>
            </Position>
            <AltitudeMeters>32.799999237060546875</AltitudeMeters>
            <DistanceMeters>16049.216899324</DistanceMeters>
          </Trackpoint>
          <Trackpoint>
            <Time>2018-06-10T11:18:40.000Z</Time>
            <Position>
              <LatitudeDegrees>35.8923111855983734130859375</LatitudeDegrees>
              <LongitudeDegrees>-5.34461033530533313751220703125</LongitudeDegrees>
            </Position>
            <AltitudeMeters>31.6000003814697265625</AltitudeMeters>
            <DistanceMeters>16057.910155892</DistanceMeters>
          </Trackpoint>
          <Trackpoint>
            <Time>2018-06-10T11:18:42.000Z</Time>
            <Position>
              <LatitudeDegrees>35.89233323000371456146240234375</LatitudeDegrees>
              <LongitudeDegrees>-5.34461603499948978424072265625</LongitudeDegrees>
            </Position>
            <AltitudeMeters>31.3999996185302734375</AltitudeMeters>
            <DistanceMeters>16060.417132798</DistanceMeters>
          </Trackpoint>
          <Trackpoint>
            <Time>2018-06-10T11:18:44.000Z</Time>
            <Position>
              <LatitudeDegrees>35.89235653169453144073486328125</LatitudeDegrees>
              <LongitudeDegrees>-5.3446194715797901153564453125</LongitudeDegrees>
            </Position>
            <AltitudeMeters>31.200000762939453125</AltitudeMeters>
            <DistanceMeters>16063.029935468</DistanceMeters>
          </Trackpoint>
          <Trackpoint>
            <Time>2018-06-10T11:18:47.000Z</Time>
            <Position>
              <LatitudeDegrees>35.89239240624010562896728515625</LatitudeDegrees>
              <LongitudeDegrees>-5.34463078714907169342041015625</LongitudeDegrees>
            </Position>
            <AltitudeMeters>30.799999237060546875</AltitudeMeters>
            <DistanceMeters>16067.152386664</DistanceMeters>
          </Trackpoint>
          <Trackpoint>
            <Time>2018-06-10T11:18:51.000Z</Time>
            <Position>
              <LatitudeDegrees>35.89244118891656398773193359375</LatitudeDegrees>
              <LongitudeDegrees>-5.3446553461253643035888671875</LongitudeDegrees>
            </Position>
            <AltitudeMeters>30.3999996185302734375</AltitudeMeters>
            <DistanceMeters>16073.016389657</DistanceMeters>
          </Trackpoint>
          <Trackpoint>
            <Time>2018-06-10T11:18:55.000Z</Time>
            <Position>
              <LatitudeDegrees>35.89248226024210453033447265625</LatitudeDegrees>
              <LongitudeDegrees>-5.34468057565391063690185546875</LongitudeDegrees>
            </Position>
            <AltitudeMeters>30</AltitudeMeters>
            <DistanceMeters>16078.122252042</DistanceMeters>
          </Trackpoint>
          <Trackpoint>
            <Time>2018-06-10T11:19:00.000Z</Time>
            <Position>
              <LatitudeDegrees>35.89253724552690982818603515625</LatitudeDegrees>
              <LongitudeDegrees>-5.34470823593437671661376953125</LongitudeDegrees>
            </Position>
            <AltitudeMeters>29.799999237060546875</AltitudeMeters>
            <DistanceMeters>16084.731221686</DistanceMeters>
          </Trackpoint>
          <Trackpoint>
            <Time>2018-06-10T11:19:03.000Z</Time>
            <Position>
              <LatitudeDegrees>35.89257798157632350921630859375</LatitudeDegrees>
              <LongitudeDegrees>-5.3447006084024906158447265625</LongitudeDegrees>
            </Position>
            <AltitudeMeters>29.3999996185302734375</AltitudeMeters>
            <DistanceMeters>16089.317183749</DistanceMeters>
          </Trackpoint>
          <Trackpoint>
            <Time>2018-06-10T11:19:06.000Z</Time>
            <Position>
              <LatitudeDegrees>35.89261217974126338958740234375</LatitudeDegrees>
              <LongitudeDegrees>-5.34468694590032100677490234375</LongitudeDegrees>
            </Position>
            <AltitudeMeters>29</AltitudeMeters>
            <DistanceMeters>16093.317345678</DistanceMeters>
          </Trackpoint>
          <Trackpoint>
            <Time>2018-06-10T11:19:14.000Z</Time>
            <Position>
              <LatitudeDegrees>35.89272089302539825439453125</LatitudeDegrees>
              <LongitudeDegrees>-5.34468644298613071441650390625</LongitudeDegrees>
            </Position>
            <AltitudeMeters>28.200000762939453125</AltitudeMeters>
            <DistanceMeters>16105.417496894</DistanceMeters>
          </Trackpoint>
          <Trackpoint>
            <Time>2018-06-10T11:19:21.000Z</Time>
            <Position>
              <LatitudeDegrees>35.89280647225677967071533203125</LatitudeDegrees>
              <LongitudeDegrees>-5.34464637748897075653076171875</LongitudeDegrees>
            </Position>
            <AltitudeMeters>27.200000762939453125</AltitudeMeters>
            <DistanceMeters>16115.60443159</DistanceMeters>
          </Trackpoint>
          <Trackpoint>
            <Time>2018-06-10T11:19:25.000Z</Time>
            <Position>
              <LatitudeDegrees>35.89285609312355518341064453125</LatitudeDegrees>
              <LongitudeDegrees>-5.3446151129901409149169921875</LongitudeDegrees>
            </Position>
            <AltitudeMeters>27</AltitudeMeters>
            <DistanceMeters>16121.805243271</DistanceMeters>
          </Trackpoint>
          <Trackpoint>
            <Time>2018-06-10T11:19:28.000Z</Time>
            <Position>
              <LatitudeDegrees>35.8928920514881610870361328125</LatitudeDegrees>
              <LongitudeDegrees>-5.3445903025567531585693359375</LongitudeDegrees>
            </Position>
            <AltitudeMeters>26.799999237060546875</AltitudeMeters>
            <DistanceMeters>16126.390220693</DistanceMeters>
          </Trackpoint>
          <Trackpoint>
            <Time>2018-06-10T11:19:31.000Z</Time>
            <Position>
              <LatitudeDegrees>35.89292943477630615234375</LatitudeDegrees>
              <LongitudeDegrees>-5.34456473775207996368408203125</LongitudeDegrees>
            </Position>
            <AltitudeMeters>26.6000003814697265625</AltitudeMeters>
            <DistanceMeters>16131.147254597</DistanceMeters>
          </Trackpoint>
          <Trackpoint>
            <Time>2018-06-10T11:19:36.000Z</Time>
            <Position>
              <LatitudeDegrees>35.89298148639500141143798828125</LatitudeDegrees>
              <LongitudeDegrees>-5.3445145301520824432373046875</LongitudeDegrees>
            </Position>
            <AltitudeMeters>26.6000003814697265625</AltitudeMeters>
            <DistanceMeters>16138.499399699</DistanceMeters>
          </Trackpoint>
          <Trackpoint>
            <Time>2018-06-10T11:19:45.000Z</Time>
            <Position>
              <LatitudeDegrees>35.8930901996791362762451171875</LatitudeDegrees>
              <LongitudeDegrees>-5.34445904195308685302734375</LongitudeDegrees>
            </Position>
            <AltitudeMeters>26</AltitudeMeters>
            <DistanceMeters>16151.593101672</DistanceMeters>
          </Trackpoint>
          <Trackpoint>
            <Time>2018-06-10T11:19:52.000Z</Time>
            <Position>
              <LatitudeDegrees>35.89318214915692806243896484375</LatitudeDegrees>
              <LongitudeDegrees>-5.34441411495208740234375</LongitudeDegrees>
            </Position>
            <AltitudeMeters>25.6000003814697265625</AltitudeMeters>
            <DistanceMeters>16162.599804429</DistanceMeters>
          </Trackpoint>
          <Trackpoint>
            <Time>2018-06-10T11:20:01.000Z</Time>
            <Position>
              <LatitudeDegrees>35.8932843245565891265869140625</LatitudeDegrees>
              <LongitudeDegrees>-5.344347059726715087890625</LongitudeDegrees>
            </Position>
            <AltitudeMeters>25</AltitudeMeters>
            <DistanceMeters>16175.480043729</DistanceMeters>
          </Trackpoint>
          <Trackpoint>
            <Time>2018-06-10T11:20:07.000Z</Time>
            <Position>
              <LatitudeDegrees>35.8933621086180210113525390625</LatitudeDegrees>
              <LongitudeDegrees>-5.3442976064980030059814453125</LongitudeDegrees>
            </Position>
            <AltitudeMeters>24.6000003814697265625</AltitudeMeters>
            <DistanceMeters>16185.218311686</DistanceMeters>
          </Trackpoint>
          <Trackpoint>
            <Time>2018-06-10T11:20:08.000Z</Time>
            <Position>
              <LatitudeDegrees>35.89337543584406375885009765625</LatitudeDegrees>
              <LongitudeDegrees>-5.34428746439516544342041015625</LongitudeDegrees>
            </Position>
            <AltitudeMeters>24.6000003814697265625</AltitudeMeters>
            <DistanceMeters>16186.960180133</DistanceMeters>
          </Trackpoint>
          <Trackpoint>
            <Time>2018-06-10T11:20:09.000Z</Time>
            <Position>
              <LatitudeDegrees>35.89338951744139194488525390625</LatitudeDegrees>
              <LongitudeDegrees>-5.344281010329723358154296875</LongitudeDegrees>
            </Position>
            <AltitudeMeters>24.3999996185302734375</AltitudeMeters>
            <DistanceMeters>16188.63329809</DistanceMeters>
          </Trackpoint>
          <Trackpoint>
            <Time>2018-06-10T11:20:12.000Z</Time>
            <Position>
              <LatitudeDegrees>35.8934224583208560943603515625</LatitudeDegrees>
              <LongitudeDegrees>-5.34426030702888965606689453125</LongitudeDegrees>
            </Position>
            <AltitudeMeters>24.3999996185302734375</AltitudeMeters>
            <DistanceMeters>16192.746978104</DistanceMeters>
          </Trackpoint>
          <Trackpoint>
            <Time>2018-06-10T11:20:15.000Z</Time>
            <Position>
              <LatitudeDegrees>35.89345858432352542877197265625</LatitudeDegrees>
              <LongitudeDegrees>-5.34423775970935821533203125</LongitudeDegrees>
            </Position>
            <AltitudeMeters>24.200000762939453125</AltitudeMeters>
            <DistanceMeters>16197.252487159</DistanceMeters>
          </Trackpoint>
          <Trackpoint>
            <Time>2018-06-10T11:20:17.000Z</Time>
            <Position>
              <LatitudeDegrees>35.89347450993955135345458984375</LatitudeDegrees>
              <LongitudeDegrees>-5.34421630203723907470703125</LongitudeDegrees>
            </Position>
            <AltitudeMeters>24.200000762939453125</AltitudeMeters>
            <DistanceMeters>16199.879077801</DistanceMeters>
          </Trackpoint>
          <Trackpoint>
            <Time>2018-06-10T11:20:23.000Z</Time>
            <Position>
              <LatitudeDegrees>35.89353335089981555938720703125</LatitudeDegrees>
              <LongitudeDegrees>-5.344183444976806640625</LongitudeDegrees>
            </Position>
            <AltitudeMeters>24</AltitudeMeters>
            <DistanceMeters>16207.067269327</DistanceMeters>
          </Trackpoint>
          <Trackpoint>
            <Time>2018-06-10T11:20:25.000Z</Time>
            <Position>
              <LatitudeDegrees>35.8935602568089962005615234375</LatitudeDegrees>
              <LongitudeDegrees>-5.3441873006522655487060546875</LongitudeDegrees>
            </Position>
            <AltitudeMeters>24.200000762939453125</AltitudeMeters>
            <DistanceMeters>16210.08127943</DistanceMeters>
          </Trackpoint>
          <Trackpoint>
            <Time>2018-06-10T11:20:34.000Z</Time>
            <Position>
              <LatitudeDegrees>35.89366863481700420379638671875</LatitudeDegrees>
              <LongitudeDegrees>-5.3441574610769748687744140625</LongitudeDegrees>
            </Position>
            <AltitudeMeters>24.799999237060546875</AltitudeMeters>
            <DistanceMeters>16222.440598713</DistanceMeters>
          </Trackpoint>
          <Trackpoint>
            <Time>2018-06-10T11:20:35.000Z</Time>
            <Position>
              <LatitudeDegrees>35.8936809562146663665771484375</LatitudeDegrees>
              <LongitudeDegrees>-5.344152264297008514404296875</LongitudeDegrees>
            </Position>
            <AltitudeMeters>24.799999237060546875</AltitudeMeters>
            <DistanceMeters>16223.894227925</DistanceMeters>
          </Trackpoint>
          <Trackpoint>
            <Time>2018-06-10T11:20:41.000Z</Time>
            <Position>
              <LatitudeDegrees>35.89375019073486328125</LatitudeDegrees>
              <LongitudeDegrees>-5.34411949105560779571533203125</LongitudeDegrees>
            </Position>
            <AltitudeMeters>25.200000762939453125</AltitudeMeters>
            <DistanceMeters>16232.147887519</DistanceMeters>
          </Trackpoint>
          <Trackpoint>
            <Time>2018-06-10T11:20:42.000Z</Time>
            <Position>
              <LatitudeDegrees>35.89376159012317657470703125</LatitudeDegrees>
              <LongitudeDegrees>-5.34411546774208545684814453125</LongitudeDegrees>
            </Position>
            <AltitudeMeters>25.200000762939453125</AltitudeMeters>
            <DistanceMeters>16233.464616298</DistanceMeters>
          </Trackpoint>
          <Trackpoint>
            <Time>2018-06-10T11:20:43.000Z</Time>
            <Position>
              <LatitudeDegrees>35.8937704749405384063720703125</LatitudeDegrees>
              <LongitudeDegrees>-5.34411060623824596405029296875</LongitudeDegrees>
            </Position>
            <AltitudeMeters>25.200000762939453125</AltitudeMeters>
            <DistanceMeters>16234.543912301</DistanceMeters>
          </Trackpoint>
          <Trackpoint>
            <Time>2018-06-10T11:20:48.000Z</Time>
            <Position>
              <LatitudeDegrees>35.89382168836891651153564453125</LatitudeDegrees>
              <LongitudeDegrees>-5.3440917469561100006103515625</LongitudeDegrees>
            </Position>
            <AltitudeMeters>25.3999996185302734375</AltitudeMeters>
            <DistanceMeters>16240.491248632</DistanceMeters>
          </Trackpoint>
          <Trackpoint>
            <Time>2018-06-10T11:20:49.000Z</Time>
            <Position>
              <LatitudeDegrees>35.893830992281436920166015625</LatitudeDegrees>
              <LongitudeDegrees>-5.34408428706228733062744140625</LongitudeDegrees>
            </Position>
            <AltitudeMeters>25.3999996185302734375</AltitudeMeters>
            <DistanceMeters>16241.722935622</DistanceMeters>
          </Trackpoint>
          <Trackpoint>
            <Time>2018-06-10T11:20:55.000Z</Time>
            <Position>
              <LatitudeDegrees>35.89387449435889720916748046875</LatitudeDegrees>
              <LongitudeDegrees>-5.34405997954308986663818359375</LongitudeDegrees>
            </Position>
            <AltitudeMeters>25.6000003814697265625</AltitudeMeters>
            <DistanceMeters>16247.03763967</DistanceMeters>
          </Trackpoint>
          <Trackpoint>
            <Time>2018-06-10T11:20:59.000Z</Time>
            <Position>
              <LatitudeDegrees>35.893897376954555511474609375</LatitudeDegrees>
              <LongitudeDegrees>-5.3439889848232269287109375</LongitudeDegrees>
            </Position>
            <AltitudeMeters>25</AltitudeMeters>
            <DistanceMeters>16253.926912621</DistanceMeters>
          </Trackpoint>
          <Trackpoint>
            <Time>2018-06-10T11:21:03.000Z</Time>
            <Position>
              <LatitudeDegrees>35.89392411522567272186279296875</LatitudeDegrees>
              <LongitudeDegrees>-5.34392620436847209930419921875</LongitudeDegrees>
            </Position>
            <AltitudeMeters>24.6000003814697265625</AltitudeMeters>
            <DistanceMeters>16260.322005757</DistanceMeters>
          </Trackpoint>
          <Trackpoint>
            <Time>2018-06-10T11:21:04.000Z</Time>
            <Position>
              <LatitudeDegrees>35.89393232949078083038330078125</LatitudeDegrees>
              <LongitudeDegrees>-5.34391296096146106719970703125</LongitudeDegrees>
            </Position>
            <AltitudeMeters>24.3999996185302734375</AltitudeMeters>
            <DistanceMeters>16261.830508081</DistanceMeters>
          </Trackpoint>
          <Trackpoint>
            <Time>2018-06-10T11:21:11.000Z</Time>
            <Position>
              <LatitudeDegrees>35.893987901508808135986328125</LatitudeDegrees>
              <LongitudeDegrees>-5.34383903257548809051513671875</LongitudeDegrees>
            </Position>
            <AltitudeMeters>24.200000762939453125</AltitudeMeters>
            <DistanceMeters>16270.924321367</DistanceMeters>
          </Trackpoint>
          <Trackpoint>
            <Time>2018-06-10T11:21:22.000Z</Time>
            <Position>
              <LatitudeDegrees>35.894117653369903564453125</LatitudeDegrees>
              <LongitudeDegrees>-5.34376007504761219024658203125</LongitudeDegrees>
            </Position>
            <AltitudeMeters>24.6000003814697265625</AltitudeMeters>
            <DistanceMeters>16287.025111241</DistanceMeters>
          </Trackpoint>
          <Trackpoint>
            <Time>2018-06-10T11:21:26.000Z</Time>
            <Position>
              <LatitudeDegrees>35.89415721595287322998046875</LatitudeDegrees>
              <LongitudeDegrees>-5.34372637979686260223388671875</LongitudeDegrees>
            </Position>
            <AltitudeMeters>24.6000003814697265625</AltitudeMeters>
            <DistanceMeters>16292.373688825</DistanceMeters>
          </Trackpoint>
          <Trackpoint>
            <Time>2018-06-10T11:21:28.000Z</Time>
            <Position>
              <LatitudeDegrees>35.8941788412630558013916015625</LatitudeDegrees>
              <LongitudeDegrees>-5.34371204674243927001953125</LongitudeDegrees>
            </Position>
            <AltitudeMeters>24.6000003814697265625</AltitudeMeters>
            <DistanceMeters>16295.104777095</DistanceMeters>
          </Trackpoint>
          <Trackpoint>
            <Time>2018-06-10T11:21:29.000Z</Time>
            <Position>
              <LatitudeDegrees>35.8941878937184810638427734375</LatitudeDegrees>
              <LongitudeDegrees>-5.3437006473541259765625</LongitudeDegrees>
            </Position>
            <AltitudeMeters>24.3999996185302734375</AltitudeMeters>
            <DistanceMeters>16296.545928573</DistanceMeters>
          </Trackpoint>
          <Trackpoint>
            <Time>2018-06-10T11:21:31.000Z</Time>
            <Position>
              <LatitudeDegrees>35.894208513200283050537109375</LatitudeDegrees>
              <LongitudeDegrees>-5.343682877719402313232421875</LongitudeDegrees>
            </Position>
            <AltitudeMeters>24.3999996185302734375</AltitudeMeters>
            <DistanceMeters>16299.345590402</DistanceMeters>
          </Trackpoint>
          <Trackpoint>
            <Time>2018-06-10T11:21:35.000Z</Time>
            <Position>
              <LatitudeDegrees>35.89425779879093170166015625</LatitudeDegrees>
              <LongitudeDegrees>-5.343647338449954986572265625</LongitudeDegrees>
            </Position>
            <AltitudeMeters>24.6000003814697265625</AltitudeMeters>
            <DistanceMeters>16305.69889204</DistanceMeters>
          </Trackpoint>
          <Trackpoint>
            <Time>2018-06-10T11:21:39.000Z</Time>
            <Position>
              <LatitudeDegrees>35.89429794810712337493896484375</LatitudeDegrees>
              <LongitudeDegrees>-5.34360752440989017486572265625</LongitudeDegrees>
            </Position>
            <AltitudeMeters>24.3999996185302734375</AltitudeMeters>
            <DistanceMeters>16311.430507702</DistanceMeters>
          </Trackpoint>
          <Trackpoint>
            <Time>2018-06-10T11:21:45.000Z</Time>
            <Position>
              <LatitudeDegrees>35.8943484909832477569580078125</LatitudeDegrees>
              <LongitudeDegrees>-5.34353108145296573638916015625</LongitudeDegrees>
            </Position>
            <AltitudeMeters>24</AltitudeMeters>
            <DistanceMeters>16320.327566211</DistanceMeters>
          </Trackpoint>
          <Trackpoint>
            <Time>2018-06-10T11:21:54.000Z</Time>
            <Position>
              <LatitudeDegrees>35.894433818757534027099609375</LatitudeDegrees>
              <LongitudeDegrees>-5.34343519248068332672119140625</LongitudeDegrees>
            </Position>
            <AltitudeMeters>23.6000003814697265625</AltitudeMeters>
            <DistanceMeters>16333.170594527</DistanceMeters>
          </Trackpoint>
          <Trackpoint>
            <Time>2018-06-10T11:21:56.000Z</Time>
            <Position>
              <LatitudeDegrees>35.89445033110678195953369140625</LatitudeDegrees>
              <LongitudeDegrees>-5.34340887330472469329833984375</LongitudeDegrees>
            </Position>
            <AltitudeMeters>23.6000003814697265625</AltitudeMeters>
            <DistanceMeters>16336.172596574</DistanceMeters>
          </Trackpoint>
          <Trackpoint>
            <Time>2018-06-10T11:22:00.000Z</Time>
            <Position>
              <LatitudeDegrees>35.8944906480610370635986328125</LatitudeDegrees>
              <LongitudeDegrees>-5.3433675505220890045166015625</LongitudeDegrees>
            </Position>
            <AltitudeMeters>23.3999996185302734375</AltitudeMeters>
            <DistanceMeters>16342.005719926</DistanceMeters>
          </Trackpoint>
          <Trackpoint>
            <Time>2018-06-10T11:22:11.000Z</Time>
            <Position>
              <LatitudeDegrees>35.894561223685741424560546875</LatitudeDegrees>
              <LongitudeDegrees>-5.343235619366168975830078125</LongitudeDegrees>
            </Position>
            <AltitudeMeters>22.6000003814697265625</AltitudeMeters>
            <DistanceMeters>16356.260994048</DistanceMeters>
          </Trackpoint>
          <Trackpoint>
            <Time>2018-06-10T11:22:14.000Z</Time>
            <Position>
              <LatitudeDegrees>35.894581340253353118896484375</LatitudeDegrees>
              <LongitudeDegrees>-5.343200080096721649169921875</LongitudeDegrees>
            </Position>
            <AltitudeMeters>22.200000762939453125</AltitudeMeters>
            <DistanceMeters>16360.169816038</DistanceMeters>
          </Trackpoint>
          <Trackpoint>
            <Time>2018-06-10T11:22:23.000Z</Time>
            <Position>
              <LatitudeDegrees>35.89466826058924198150634765625</LatitudeDegrees>
              <LongitudeDegrees>-5.34309807233512401580810546875</LongitudeDegrees>
            </Position>
            <AltitudeMeters>21.799999237060546875</AltitudeMeters>
            <DistanceMeters>16373.518617425</DistanceMeters>
          </Trackpoint>
          <Trackpoint>
            <Time>2018-06-10T11:22:37.000Z</Time>
            <Position>
              <LatitudeDegrees>35.89473028667271137237548828125</LatitudeDegrees>
              <LongitudeDegrees>-5.3428750298917293548583984375</LongitudeDegrees>
            </Position>
            <AltitudeMeters>20.6000003814697265625</AltitudeMeters>
            <DistanceMeters>16394.781256189</DistanceMeters>
          </Trackpoint>
          <Trackpoint>
            <Time>2018-06-10T11:22:39.000Z</Time>
            <Position>
              <LatitudeDegrees>35.8947387523949146270751953125</LatitudeDegrees>
              <LongitudeDegrees>-5.34283705987036228179931640625</LongitudeDegrees>
            </Position>
            <AltitudeMeters>20.6000003814697265625</AltitudeMeters>
            <DistanceMeters>16398.331747242</DistanceMeters>
          </Trackpoint>
          <Trackpoint>
            <Time>2018-06-10T11:22:52.000Z</Time>
            <Position>
              <LatitudeDegrees>35.89477823115885257720947265625</LatitudeDegrees>
              <LongitudeDegrees>-5.34260429441928863525390625</LongitudeDegrees>
            </Position>
            <AltitudeMeters>20.200000762939453125</AltitudeMeters>
            <DistanceMeters>16419.77412053</DistanceMeters>
          </Trackpoint>
          <Trackpoint>
            <Time>2018-06-10T11:22:58.000Z</Time>
            <Position>
              <LatitudeDegrees>35.89479046873748302459716796875</LatitudeDegrees>
              <LongitudeDegrees>-5.342479906976222991943359375</LongitudeDegrees>
            </Position>
            <AltitudeMeters>20</AltitudeMeters>
            <DistanceMeters>16431.072313333</DistanceMeters>
          </Trackpoint>
          <Trackpoint>
            <Time>2018-06-10T11:22:59.000Z</Time>
            <Position>
              <LatitudeDegrees>35.89479398913681507110595703125</LatitudeDegrees>
              <LongitudeDegrees>-5.342461802065372467041015625</LongitudeDegrees>
            </Position>
            <AltitudeMeters>19.799999237060546875</AltitudeMeters>
            <DistanceMeters>16432.750819767</DistanceMeters>
          </Trackpoint>
          <Trackpoint>
            <Time>2018-06-10T11:23:00.000Z</Time>
            <Position>
              <LatitudeDegrees>35.894799940288066864013671875</LatitudeDegrees>
              <LongitudeDegrees>-5.3424440324306488037109375</LongitudeDegrees>
            </Position>
            <AltitudeMeters>20</AltitudeMeters>
            <DistanceMeters>16434.482288906</DistanceMeters>
          </Trackpoint>
          <Trackpoint>
            <Time>2018-06-10T11:23:03.000Z</Time>
            <Position>
              <LatitudeDegrees>35.8948121778666973114013671875</LatitudeDegrees>
              <LongitudeDegrees>-5.34239508211612701416015625</LongitudeDegrees>
            </Position>
            <AltitudeMeters>19.799999237060546875</AltitudeMeters>
            <DistanceMeters>16439.10062633</DistanceMeters>
          </Trackpoint>
          <Trackpoint>
            <Time>2018-06-10T11:23:08.000Z</Time>
            <Position>
              <LatitudeDegrees>35.89482081122696399688720703125</LatitudeDegrees>
              <LongitudeDegrees>-5.34231570549309253692626953125</LongitudeDegrees>
            </Position>
            <AltitudeMeters>19.6000003814697265625</AltitudeMeters>
            <DistanceMeters>16446.32203142</DistanceMeters>
          </Trackpoint>
          <Trackpoint>
            <Time>2018-06-10T11:23:19.000Z</Time>
            <Position>
              <LatitudeDegrees>35.894855596125125885009765625</LatitudeDegrees>
              <LongitudeDegrees>-5.3421300463378429412841796875</LongitudeDegrees>
            </Position>
            <AltitudeMeters>19.3999996185302734375</AltitudeMeters>
            <DistanceMeters>16463.503744347</DistanceMeters>
          </Trackpoint>
          <Trackpoint>
            <Time>2018-06-10T11:23:22.000Z</Time>
            <Position>
              <LatitudeDegrees>35.89486825279891490936279296875</LatitudeDegrees>
              <LongitudeDegrees>-5.34208386205136775970458984375</LongitudeDegrees>
            </Position>
            <AltitudeMeters>19.200000762939453125</AltitudeMeters>
            <DistanceMeters>16467.899692889</DistanceMeters>
          </Trackpoint>
          <Trackpoint>
            <Time>2018-06-10T11:23:25.000Z</Time>
            <Position>
              <LatitudeDegrees>35.89487261138856410980224609375</LatitudeDegrees>
              <LongitudeDegrees>-5.34203826449811458587646484375</LongitudeDegrees>
            </Position>
            <AltitudeMeters>19</AltitudeMeters>
            <DistanceMeters>16472.039630702</DistanceMeters>
          </Trackpoint>
          <Trackpoint>
            <Time>2018-06-10T11:23:28.000Z</Time>
            <Position>
              <LatitudeDegrees>35.8948691748082637786865234375</LatitudeDegrees>
              <LongitudeDegrees>-5.34200037829577922821044921875</LongitudeDegrees>
            </Position>
            <AltitudeMeters>18.799999237060546875</AltitudeMeters>
            <DistanceMeters>16475.476393712</DistanceMeters>
          </Trackpoint>
          <Trackpoint>
            <Time>2018-06-10T11:23:32.000Z</Time>
            <Position>
              <LatitudeDegrees>35.8948577754199504852294921875</LatitudeDegrees>
              <LongitudeDegrees>-5.34196718595921993255615234375</LongitudeDegrees>
            </Position>
            <AltitudeMeters>18.799999237060546875</AltitudeMeters>
            <DistanceMeters>16478.728196215</DistanceMeters>
          </Trackpoint>
          <Trackpoint>
            <Time>2018-06-10T11:23:37.000Z</Time>
            <Position>
              <LatitudeDegrees>35.89487043209373950958251953125</LatitudeDegrees>
              <LongitudeDegrees>-5.341915972530841827392578125</LongitudeDegrees>
            </Position>
            <AltitudeMeters>18.799999237060546875</AltitudeMeters>
            <DistanceMeters>16483.554954674</DistanceMeters>
          </Trackpoint>
          <Trackpoint>
            <Time>2018-06-10T11:23:42.000Z</Time>
            <Position>
              <LatitudeDegrees>35.89490714482963085174560546875</LatitudeDegrees>
              <LongitudeDegrees>-5.34185352735221385955810546875</LongitudeDegrees>
            </Position>
            <AltitudeMeters>19</AltitudeMeters>
            <DistanceMeters>16490.511403456</DistanceMeters>
          </Trackpoint>
          <Trackpoint>
            <Time>2018-06-10T11:23:45.000Z</Time>
            <Position>
              <LatitudeDegrees>35.89491887949407100677490234375</LatitudeDegrees>
              <LongitudeDegrees>-5.34180776216089725494384765625</LongitudeDegrees>
            </Position>
            <AltitudeMeters>19.200000762939453125</AltitudeMeters>
            <DistanceMeters>16494.839033125</DistanceMeters>
          </Trackpoint>
          <Trackpoint>
            <Time>2018-06-10T11:23:48.000Z</Time>
            <Position>
              <LatitudeDegrees>35.894950143992900848388671875</LatitudeDegrees>
              <LongitudeDegrees>-5.341775156557559967041015625</LongitudeDegrees>
            </Position>
            <AltitudeMeters>19.3999996185302734375</AltitudeMeters>
            <DistanceMeters>16499.394372373</DistanceMeters>
          </Trackpoint>
          <Trackpoint>
            <Time>2018-06-10T11:23:57.000Z</Time>
            <Position>
              <LatitudeDegrees>35.89506539516150951385498046875</LatitudeDegrees>
              <LongitudeDegrees>-5.34167750738561153411865234375</LongitudeDegrees>
            </Position>
            <AltitudeMeters>20</AltitudeMeters>
            <DistanceMeters>16514.952947476</DistanceMeters>
          </Trackpoint>
          <Trackpoint>
            <Time>2018-06-10T11:24:06.000Z</Time>
            <Position>
              <LatitudeDegrees>35.895125828683376312255859375</LatitudeDegrees>
              <LongitudeDegrees>-5.3415540419518947601318359375</LongitudeDegrees>
            </Position>
            <AltitudeMeters>20.3999996185302734375</AltitudeMeters>
            <DistanceMeters>16527.959463232</DistanceMeters>
          </Trackpoint>
          <Trackpoint>
            <Time>2018-06-10T11:24:08.000Z</Time>
            <Position>
              <LatitudeDegrees>35.89512524195015430450439453125</LatitudeDegrees>
              <LongitudeDegrees>-5.34152981825172901153564453125</LongitudeDegrees>
            </Position>
            <AltitudeMeters>20.3999996185302734375</AltitudeMeters>
            <DistanceMeters>16530.143010887</DistanceMeters>
          </Trackpoint>
          <Trackpoint>
            <Time>2018-06-10T11:24:11.000Z</Time>
            <Position>
              <LatitudeDegrees>35.895126163959503173828125</LatitudeDegrees>
              <LongitudeDegrees>-5.3414812870323657989501953125</LongitudeDegrees>
            </Position>
            <AltitudeMeters>20.3999996185302734375</AltitudeMeters>
            <DistanceMeters>16534.520432755</DistanceMeters>
          </Trackpoint>
          <Trackpoint>
            <Time>2018-06-10T11:24:18.000Z</Time>
            <Position>
              <LatitudeDegrees>35.89518073014914989471435546875</LatitudeDegrees>
              <LongitudeDegrees>-5.341380201280117034912109375</LongitudeDegrees>
            </Position>
            <AltitudeMeters>20.6000003814697265625</AltitudeMeters>
            <DistanceMeters>16545.47244195</DistanceMeters>
          </Trackpoint>
          <Trackpoint>
            <Time>2018-06-10T11:24:21.000Z</Time>
            <Position>
              <LatitudeDegrees>35.89519280008971691131591796875</LatitudeDegrees>
              <LongitudeDegrees>-5.341325215995311737060546875</LongitudeDegrees>
            </Position>
            <AltitudeMeters>20.799999237060546875</AltitudeMeters>
            <DistanceMeters>16550.609161075</DistanceMeters>
          </Trackpoint>
          <Trackpoint>
            <Time>2018-06-10T11:24:25.000Z</Time>
            <Position>
              <LatitudeDegrees>35.89521258138120174407958984375</LatitudeDegrees>
              <LongitudeDegrees>-5.3412677161395549774169921875</LongitudeDegrees>
            </Position>
            <AltitudeMeters>20.3999996185302734375</AltitudeMeters>
            <DistanceMeters>16556.242249804</DistanceMeters>
          </Trackpoint>
          <Trackpoint>
            <Time>2018-06-10T11:24:27.000Z</Time>
            <Position>
              <LatitudeDegrees>35.8952295966446399688720703125</LatitudeDegrees>
              <LongitudeDegrees>-5.3412492759525775909423828125</LongitudeDegrees>
            </Position>
            <AltitudeMeters>20.3999996185302734375</AltitudeMeters>
            <DistanceMeters>16558.761802093</DistanceMeters>
          </Trackpoint>
          <Trackpoint>
            <Time>2018-06-10T11:24:31.000Z</Time>
            <Position>
              <LatitudeDegrees>35.8952482044696807861328125</LatitudeDegrees>
              <LongitudeDegrees>-5.341190434992313385009765625</LongitudeDegrees>
            </Position>
            <AltitudeMeters>19.799999237060546875</AltitudeMeters>
            <DistanceMeters>16564.457066318</DistanceMeters>
          </Trackpoint>
          <Trackpoint>
            <Time>2018-06-10T11:24:41.000Z</Time>
            <Position>
              <LatitudeDegrees>35.89531400240957736968994140625</LatitudeDegrees>
              <LongitudeDegrees>-5.34104752354323863983154296875</LongitudeDegrees>
            </Position>
            <AltitudeMeters>18.6000003814697265625</AltitudeMeters>
            <DistanceMeters>16579.278492351</DistanceMeters>
          </Trackpoint>
          <Trackpoint>
            <Time>2018-06-10T11:24:46.000Z</Time>
            <Position>
              <LatitudeDegrees>35.8953268267214298248291015625</LatitudeDegrees>
              <LongitudeDegrees>-5.340986587107181549072265625</LongitudeDegrees>
            </Position>
            <AltitudeMeters>18.200000762939453125</AltitudeMeters>
            <DistanceMeters>16584.955493569</DistanceMeters>
          </Trackpoint>
          <Trackpoint>
            <Time>2018-06-10T11:24:56.000Z</Time>
            <Position>
              <LatitudeDegrees>35.8954756893217563629150390625</LatitudeDegrees>
              <LongitudeDegrees>-5.340860523283481597900390625</LongitudeDegrees>
            </Position>
            <AltitudeMeters>17.6000003814697265625</AltitudeMeters>
            <DistanceMeters>16605.04819517</DistanceMeters>
          </Trackpoint>
          <Trackpoint>
            <Time>2018-06-10T11:25:03.000Z</Time>
            <Position>
              <LatitudeDegrees>35.89556076563894748687744140625</LatitudeDegrees>
              <LongitudeDegrees>-5.3407829068601131439208984375</LongitudeDegrees>
            </Position>
            <AltitudeMeters>17.3999996185302734375</AltitudeMeters>
            <DistanceMeters>16616.822308027</DistanceMeters>
          </Trackpoint>
          <Trackpoint>
            <Time>2018-06-10T11:25:14.000Z</Time>
            <Position>
              <LatitudeDegrees>35.89568548835813999176025390625</LatitudeDegrees>
              <LongitudeDegrees>-5.34068140201270580291748046875</LongitudeDegrees>
            </Position>
            <AltitudeMeters>15.6000003814697265625</AltitudeMeters>
            <DistanceMeters>16633.449539319</DistanceMeters>
          </Trackpoint>
          <Trackpoint>
            <Time>2018-06-10T11:25:22.000Z</Time>
            <Position>
              <LatitudeDegrees>35.89576612226665019989013671875</LatitudeDegrees>
              <LongitudeDegrees>-5.3406192921102046966552734375</LongitudeDegrees>
            </Position>
            <AltitudeMeters>14.3999996185302734375</AltitudeMeters>
            <DistanceMeters>16644.027852383</DistanceMeters>
          </Trackpoint>
          <Trackpoint>
            <Time>2018-06-10T11:25:26.000Z</Time>
            <Position>
              <LatitudeDegrees>35.89581549167633056640625</LatitudeDegrees>
              <LongitudeDegrees>-5.34059523604810237884521484375</LongitudeDegrees>
            </Position>
            <AltitudeMeters>13.80000019073486328125</AltitudeMeters>
            <DistanceMeters>16649.936344199</DistanceMeters>
          </Trackpoint>
          <Trackpoint>
            <Time>2018-06-10T11:25:35.000Z</Time>
            <Position>
              <LatitudeDegrees>35.89591749943792819976806640625</LatitudeDegrees>
              <LongitudeDegrees>-5.3405503928661346435546875</LongitudeDegrees>
            </Position>
            <AltitudeMeters>12.80000019073486328125</AltitudeMeters>
            <DistanceMeters>16661.988638987</DistanceMeters>
          </Trackpoint>
          <Trackpoint>
            <Time>2018-06-10T11:25:39.000Z</Time>
            <Position>
              <LatitudeDegrees>35.895950607955455780029296875</LatitudeDegrees>
              <LongitudeDegrees>-5.34053027629852294921875</LongitudeDegrees>
            </Position>
            <AltitudeMeters>12.3999996185302734375</AltitudeMeters>
            <DistanceMeters>16666.095728321</DistanceMeters>
          </Trackpoint>
          <Trackpoint>
            <Time>2018-06-10T11:25:44.000Z</Time>
            <Position>
              <LatitudeDegrees>35.89601732790470123291015625</LatitudeDegrees>
              <LongitudeDegrees>-5.34049071371555328369140625</LongitudeDegrees>
            </Position>
            <AltitudeMeters>11.3999996185302734375</AltitudeMeters>
            <DistanceMeters>16674.334056705</DistanceMeters>
          </Trackpoint>
          <Trackpoint>
            <Time>2018-06-10T11:25:54.000Z</Time>
            <Position>
              <LatitudeDegrees>35.89614012278616428375244140625</LatitudeDegrees>
              <LongitudeDegrees>-5.3404053859412670135498046875</LongitudeDegrees>
            </Position>
            <AltitudeMeters>10.3999996185302734375</AltitudeMeters>
            <DistanceMeters>16690.017783377</DistanceMeters>
          </Trackpoint>
          <Trackpoint>
            <Time>2018-06-10T11:25:55.000Z</Time>
            <Position>
              <LatitudeDegrees>35.896141044795513153076171875</LatitudeDegrees>
              <LongitudeDegrees>-5.34038099460303783416748046875</LongitudeDegrees>
            </Position>
            <AltitudeMeters>10.19999980926513671875</AltitudeMeters>
            <DistanceMeters>16692.217810871</DistanceMeters>
          </Trackpoint>
          <Trackpoint>
            <Time>2018-06-10T11:25:56.000Z</Time>
            <Position>
              <LatitudeDegrees>35.89613727293908596038818359375</LatitudeDegrees>
              <LongitudeDegrees>-5.34035182558000087738037109375</LongitudeDegrees>
            </Position>
            <AltitudeMeters>10.19999980926513671875</AltitudeMeters>
            <DistanceMeters>16694.881950523</DistanceMeters>
          </Trackpoint>
          <Trackpoint>
            <Time>2018-06-10T11:26:00.000Z</Time>
            <Position>
              <LatitudeDegrees>35.896128304302692413330078125</LatitudeDegrees>
              <LongitudeDegrees>-5.3402729518711566925048828125</LongitudeDegrees>
            </Position>
            <AltitudeMeters>10</AltitudeMeters>
            <DistanceMeters>16702.063229418</DistanceMeters>
          </Trackpoint>
          <Trackpoint>
            <Time>2018-06-10T11:26:04.000Z</Time>
            <Position>
              <LatitudeDegrees>35.89611095376312732696533203125</LatitudeDegrees>
              <LongitudeDegrees>-5.34020195715129375457763671875</LongitudeDegrees>
            </Position>
            <AltitudeMeters>9.80000019073486328125</AltitudeMeters>
            <DistanceMeters>16708.748951398</DistanceMeters>
          </Trackpoint>
          <Trackpoint>
            <Time>2018-06-10T11:26:13.000Z</Time>
            <Position>
              <LatitudeDegrees>35.8960647694766521453857421875</LatitudeDegrees>
              <LongitudeDegrees>-5.34005728550255298614501953125</LongitudeDegrees>
            </Position>
            <AltitudeMeters>9.6000003814697265625</AltitudeMeters>
            <DistanceMeters>16722.769498253</DistanceMeters>
          </Trackpoint>
          <Trackpoint>
            <Time>2018-06-10T11:26:21.000Z</Time>
            <Position>
              <LatitudeDegrees>35.89600182138383388519287109375</LatitudeDegrees>
              <LongitudeDegrees>-5.33995293080806732177734375</LongitudeDegrees>
            </Position>
            <AltitudeMeters>9.6000003814697265625</AltitudeMeters>
            <DistanceMeters>16734.500583668</DistanceMeters>
          </Trackpoint>
          <Trackpoint>
            <Time>2018-06-10T11:26:34.000Z</Time>
            <Position>
              <LatitudeDegrees>35.8960211835801601409912109375</LatitudeDegrees>
              <LongitudeDegrees>-5.33976643346250057220458984375</LongitudeDegrees>
            </Position>
            <AltitudeMeters>9</AltitudeMeters>
            <DistanceMeters>16751.453733023</DistanceMeters>
          </Trackpoint>
          <Trackpoint>
            <Time>2018-06-10T11:26:48.000Z</Time>
            <Position>
              <LatitudeDegrees>35.89608262293040752410888671875</LatitudeDegrees>
              <LongitudeDegrees>-5.3396191634237766265869140625</LongitudeDegrees>
            </Position>
            <AltitudeMeters>8.19999980926513671875</AltitudeMeters>
            <DistanceMeters>16766.389562711</DistanceMeters>
          </Trackpoint>
          <Trackpoint>
            <Time>2018-06-10T11:26:50.000Z</Time>
            <Position>
              <LatitudeDegrees>35.89610994793474674224853515625</LatitudeDegrees>
              <LongitudeDegrees>-5.3395940177142620086669921875</LongitudeDegrees>
            </Position>
            <AltitudeMeters>7.80000019073486328125</AltitudeMeters>
            <DistanceMeters>16770.182307334</DistanceMeters>
          </Trackpoint>
          <Trackpoint>
            <Time>2018-06-10T11:27:01.000Z</Time>
            <Position>
              <LatitudeDegrees>35.89606753550469875335693359375</LatitudeDegrees>
              <LongitudeDegrees>-5.3393648564815521240234375</LongitudeDegrees>
            </Position>
            <AltitudeMeters>7</AltitudeMeters>
            <DistanceMeters>16791.376886424</DistanceMeters>
          </Trackpoint>
          <Trackpoint>
            <Time>2018-06-10T11:27:14.000Z</Time>
            <Position>
              <LatitudeDegrees>35.8959832973778247833251953125</LatitudeDegrees>
              <LongitudeDegrees>-5.33916310407221317291259765625</LongitudeDegrees>
            </Position>
            <AltitudeMeters>6.80000019073486328125</AltitudeMeters>
            <DistanceMeters>16811.841855162</DistanceMeters>
          </Trackpoint>
          <Trackpoint>
            <Time>2018-06-10T11:27:21.000Z</Time>
            <Position>
              <LatitudeDegrees>35.89594381861388683319091796875</LatitudeDegrees>
              <LongitudeDegrees>-5.339050702750682830810546875</LongitudeDegrees>
            </Position>
            <AltitudeMeters>7</AltitudeMeters>
            <DistanceMeters>16822.887867697</DistanceMeters>
          </Trackpoint>
          <Trackpoint>
            <Time>2018-06-10T11:27:26.000Z</Time>
            <Position>
              <LatitudeDegrees>35.89591498486697673797607421875</LatitudeDegrees>
              <LongitudeDegrees>-5.33896453678607940673828125</LongitudeDegrees>
            </Position>
            <AltitudeMeters>7</AltitudeMeters>
            <DistanceMeters>16831.29330154</DistanceMeters>
          </Trackpoint>
          <Trackpoint>
            <Time>2018-06-10T11:27:39.000Z</Time>
            <Position>
              <LatitudeDegrees>35.89583686552941799163818359375</LatitudeDegrees>
              <LongitudeDegrees>-5.338746272027492523193359375</LongitudeDegrees>
            </Position>
            <AltitudeMeters>7.599999904632568359375</AltitudeMeters>
            <DistanceMeters>16852.80819751</DistanceMeters>
          </Trackpoint>
          <Trackpoint>
            <Time>2018-06-10T11:27:44.000Z</Time>
            <Position>
              <LatitudeDegrees>35.89581658132374286651611328125</LatitudeDegrees>
              <LongitudeDegrees>-5.338662452995777130126953125</LongitudeDegrees>
            </Position>
            <AltitudeMeters>8.19999980926513671875</AltitudeMeters>
            <DistanceMeters>16860.695987232</DistanceMeters>
          </Trackpoint>
          <Trackpoint>
            <Time>2018-06-10T11:27:48.000Z</Time>
            <Position>
              <LatitudeDegrees>35.89579210616648197174072265625</LatitudeDegrees>
              <LongitudeDegrees>-5.33859766088426113128662109375</LongitudeDegrees>
            </Position>
            <AltitudeMeters>8.80000019073486328125</AltitudeMeters>
            <DistanceMeters>16867.141012573</DistanceMeters>
          </Trackpoint>
          <Trackpoint>
            <Time>2018-06-10T11:28:01.000Z</Time>
            <Position>
              <LatitudeDegrees>35.8957050181925296783447265625</LatitudeDegrees>
              <LongitudeDegrees>-5.33838652074337005615234375</LongitudeDegrees>
            </Position>
            <AltitudeMeters>8</AltitudeMeters>
            <DistanceMeters>16888.503643575</DistanceMeters>
          </Trackpoint>
          <Trackpoint>
            <Time>2018-06-10T11:28:13.000Z</Time>
            <Position>
              <LatitudeDegrees>35.8956144936382770538330078125</LatitudeDegrees>
              <LongitudeDegrees>-5.33822852186858654022216796875</LongitudeDegrees>
            </Position>
            <AltitudeMeters>7.19999980926513671875</AltitudeMeters>
            <DistanceMeters>16905.952370101</DistanceMeters>
          </Trackpoint>
          <Trackpoint>
            <Time>2018-06-10T11:28:14.000Z</Time>
            <Position>
              <LatitudeDegrees>35.8956074528396129608154296875</LatitudeDegrees>
              <LongitudeDegrees>-5.33821611665189266204833984375</LongitudeDegrees>
            </Position>
            <AltitudeMeters>7.19999980926513671875</AltitudeMeters>
            <DistanceMeters>16907.316260033</DistanceMeters>
          </Trackpoint>
          <Trackpoint>
            <Time>2018-06-10T11:28:20.000Z</Time>
            <Position>
              <LatitudeDegrees>35.89553930796682834625244140625</LatitudeDegrees>
              <LongitudeDegrees>-5.33813430927693843841552734375</LongitudeDegrees>
            </Position>
            <AltitudeMeters>7</AltitudeMeters>
            <DistanceMeters>16917.896280241</DistanceMeters>
          </Trackpoint>
          <Trackpoint>
            <Time>2018-06-10T11:28:21.000Z</Time>
            <Position>
              <LatitudeDegrees>35.89552924968302249908447265625</LatitudeDegrees>
              <LongitudeDegrees>-5.33812408335506916046142578125</LongitudeDegrees>
            </Position>
            <AltitudeMeters>7</AltitudeMeters>
            <DistanceMeters>16919.343684032</DistanceMeters>
          </Trackpoint>
          <Trackpoint>
            <Time>2018-06-10T11:28:28.000Z</Time>
            <Position>
              <LatitudeDegrees>35.8954740129411220550537109375</LatitudeDegrees>
              <LongitudeDegrees>-5.338046550750732421875</LongitudeDegrees>
            </Position>
            <AltitudeMeters>6.80000019073486328125</AltitudeMeters>
            <DistanceMeters>16928.653392605</DistanceMeters>
          </Trackpoint>
          <Trackpoint>
            <Time>2018-06-10T11:28:41.000Z</Time>
            <Position>
              <LatitudeDegrees>35.89536630548536777496337890625</LatitudeDegrees>
              <LongitudeDegrees>-5.337870530784130096435546875</LongitudeDegrees>
            </Position>
            <AltitudeMeters>6.80000019073486328125</AltitudeMeters>
            <DistanceMeters>16948.543280715</DistanceMeters>
          </Trackpoint>
          <Trackpoint>
            <Time>2018-06-10T11:28:53.000Z</Time>
            <Position>
              <LatitudeDegrees>35.8952550776302814483642578125</LatitudeDegrees>
              <LongitudeDegrees>-5.33769308589398860931396484375</LongitudeDegrees>
            </Position>
            <AltitudeMeters>7.19999980926513671875</AltitudeMeters>
            <DistanceMeters>16968.77303762</DistanceMeters>
          </Trackpoint>
          <Trackpoint>
            <Time>2018-06-10T11:29:03.000Z</Time>
            <Position>
              <LatitudeDegrees>35.895156003534793853759765625</LatitudeDegrees>
              <LongitudeDegrees>-5.33759132958948612213134765625</LongitudeDegrees>
            </Position>
            <AltitudeMeters>7.400000095367431640625</AltitudeMeters>
            <DistanceMeters>16983.117980352</DistanceMeters>
          </Trackpoint>
          <Trackpoint>
            <Time>2018-06-10T11:29:17.000Z</Time>
            <Position>
              <LatitudeDegrees>35.895050726830959320068359375</LatitudeDegrees>
              <LongitudeDegrees>-5.3374006412923336029052734375</LongitudeDegrees>
            </Position>
            <AltitudeMeters>6.599999904632568359375</AltitudeMeters>
            <DistanceMeters>17003.924491228</DistanceMeters>
          </Trackpoint>
          <Trackpoint>
            <Time>2018-06-10T11:29:28.000Z</Time>
            <Position>
              <LatitudeDegrees>35.89495240710675716400146484375</LatitudeDegrees>
              <LongitudeDegrees>-5.33726477064192295074462890625</LongitudeDegrees>
            </Position>
            <AltitudeMeters>5.80000019073486328125</AltitudeMeters>
            <DistanceMeters>17020.351199489</DistanceMeters>
          </Trackpoint>
          <Trackpoint>
            <Time>2018-06-10T11:29:29.000Z</Time>
            <Position>
              <LatitudeDegrees>35.8949424326419830322265625</LatitudeDegrees>
              <LongitudeDegrees>-5.33725186251103878021240234375</LongitudeDegrees>
            </Position>
            <AltitudeMeters>5.80000019073486328125</AltitudeMeters>
            <DistanceMeters>17021.961054122</DistanceMeters>
          </Trackpoint>
          <Trackpoint>
            <Time>2018-06-10T11:29:42.000Z</Time>
            <Position>
              <LatitudeDegrees>35.89480631053447723388671875</LatitudeDegrees>
              <LongitudeDegrees>-5.33710149116814136505126953125</LongitudeDegrees>
            </Position>
            <AltitudeMeters>4.80000019073486328125</AltitudeMeters>
            <DistanceMeters>17042.292330011</DistanceMeters>
          </Trackpoint>
          <Trackpoint>
            <Time>2018-06-10T11:29:57.000Z</Time>
            <Position>
              <LatitudeDegrees>35.89467890560626983642578125</LatitudeDegrees>
              <LongitudeDegrees>-5.33693167380988597869873046875</LongitudeDegrees>
            </Position>
            <AltitudeMeters>4.599999904632568359375</AltitudeMeters>
            <DistanceMeters>17063.16146001</DistanceMeters>
          </Trackpoint>
          <Trackpoint>
            <Time>2018-06-10T11:30:09.000Z</Time>
            <Position>
              <LatitudeDegrees>35.894552506506443023681640625</LatitudeDegrees>
              <LongitudeDegrees>-5.3367698192596435546875</LongitudeDegrees>
            </Position>
            <AltitudeMeters>5.400000095367431640625</AltitudeMeters>
            <DistanceMeters>17083.432241902</DistanceMeters>
          </Trackpoint>
          <Trackpoint>
            <Time>2018-06-10T11:30:20.000Z</Time>
            <Position>
              <LatitudeDegrees>35.89445770718157291412353515625</LatitudeDegrees>
              <LongitudeDegrees>-5.3366251476109027862548828125</LongitudeDegrees>
            </Position>
            <AltitudeMeters>5.80000019073486328125</AltitudeMeters>
            <DistanceMeters>17100.210041906</DistanceMeters>
          </Trackpoint>
          <Trackpoint>
            <Time>2018-06-10T11:30:26.000Z</Time>
            <Position>
              <LatitudeDegrees>35.89440129697322845458984375</LatitudeDegrees>
              <LongitudeDegrees>-5.33655264414846897125244140625</LongitudeDegrees>
            </Position>
            <AltitudeMeters>6.400000095367431640625</AltitudeMeters>
            <DistanceMeters>17109.274016503</DistanceMeters>
          </Trackpoint>
          <Trackpoint>
            <Time>2018-06-10T11:30:40.000Z</Time>
            <Position>
              <LatitudeDegrees>35.8942914940416812896728515625</LatitudeDegrees>
              <LongitudeDegrees>-5.3363646380603313446044921875</LongitudeDegrees>
            </Position>
            <AltitudeMeters>7.19999980926513671875</AltitudeMeters>
            <DistanceMeters>17130.171901254</DistanceMeters>
          </Trackpoint>
          <Trackpoint>
            <Time>2018-06-10T11:30:53.000Z</Time>
            <Position>
              <LatitudeDegrees>35.89420340023934841156005859375</LatitudeDegrees>
              <LongitudeDegrees>-5.33618032000958919525146484375</LongitudeDegrees>
            </Position>
            <AltitudeMeters>9</AltitudeMeters>
            <DistanceMeters>17149.468174782</DistanceMeters>
          </Trackpoint>
          <Trackpoint>
            <Time>2018-06-10T11:30:59.000Z</Time>
            <Position>
              <LatitudeDegrees>35.89420356787741184234619140625</LatitudeDegrees>
              <LongitudeDegrees>-5.336078815162181854248046875</LongitudeDegrees>
            </Position>
            <AltitudeMeters>9.6000003814697265625</AltitudeMeters>
            <DistanceMeters>17158.620387034</DistanceMeters>
          </Trackpoint>
          <Trackpoint>
            <Time>2018-06-10T11:31:13.000Z</Time>
            <Position>
              <LatitudeDegrees>35.89408974163234233856201171875</LatitudeDegrees>
              <LongitudeDegrees>-5.33591545186936855316162109375</LongitudeDegrees>
            </Position>
            <AltitudeMeters>8.6000003814697265625</AltitudeMeters>
            <DistanceMeters>17178.048877079</DistanceMeters>
          </Trackpoint>
          <Trackpoint>
            <Time>2018-06-10T11:31:15.000Z</Time>
            <Position>
              <LatitudeDegrees>35.89407213963568210601806640625</LatitudeDegrees>
              <LongitudeDegrees>-5.33588913269340991973876953125</LongitudeDegrees>
            </Position>
            <AltitudeMeters>8.19999980926513671875</AltitudeMeters>
            <DistanceMeters>17181.125160569</DistanceMeters>
          </Trackpoint>
          <Trackpoint>
            <Time>2018-06-10T11:31:27.000Z</Time>
            <Position>
              <LatitudeDegrees>35.8939749933779239654541015625</LatitudeDegrees>
              <LongitudeDegrees>-5.33570162951946258544921875</LongitudeDegrees>
            </Position>
            <AltitudeMeters>5.400000095367431640625</AltitudeMeters>
            <DistanceMeters>17201.193578778</DistanceMeters>
          </Trackpoint>
          <Trackpoint>
            <Time>2018-06-10T11:31:40.000Z</Time>
            <Position>
              <LatitudeDegrees>35.89389343746006488800048828125</LatitudeDegrees>
              <LongitudeDegrees>-5.33548839390277862548828125</LongitudeDegrees>
            </Position>
            <AltitudeMeters>2.2000000476837158203125</AltitudeMeters>
            <DistanceMeters>17222.455368141</DistanceMeters>
          </Trackpoint>
          <Trackpoint>
            <Time>2018-06-10T11:31:43.000Z</Time>
            <Position>
              <LatitudeDegrees>35.8938717283308506011962890625</LatitudeDegrees>
              <LongitudeDegrees>-5.335447490215301513671875</LongitudeDegrees>
            </Position>
            <AltitudeMeters>2</AltitudeMeters>
            <DistanceMeters>17226.865672514</DistanceMeters>
          </Trackpoint>
          <Trackpoint>
            <Time>2018-06-10T11:31:44.000Z</Time>
            <Position>
              <LatitudeDegrees>35.89386594481766223907470703125</LatitudeDegrees>
              <LongitudeDegrees>-5.3354305587708950042724609375</LongitudeDegrees>
            </Position>
            <AltitudeMeters>2</AltitudeMeters>
            <DistanceMeters>17228.522519894</DistanceMeters>
          </Trackpoint>
          <Trackpoint>
            <Time>2018-06-10T11:31:58.000Z</Time>
            <Position>
              <LatitudeDegrees>35.8938024938106536865234375</LatitudeDegrees>
              <LongitudeDegrees>-5.335205756127834320068359375</LongitudeDegrees>
            </Position>
            <AltitudeMeters>0.20000000298023223876953125</AltitudeMeters>
            <DistanceMeters>17249.98720159</DistanceMeters>
          </Trackpoint>
          <Trackpoint>
            <Time>2018-06-10T11:32:04.000Z</Time>
            <Position>
              <LatitudeDegrees>35.89376234449446201324462890625</LatitudeDegrees>
              <LongitudeDegrees>-5.33510911278426647186279296875</LongitudeDegrees>
            </Position>
            <AltitudeMeters>-0.20000000298023223876953125</AltitudeMeters>
            <DistanceMeters>17259.780026097</DistanceMeters>
          </Trackpoint>
          <Trackpoint>
            <Time>2018-06-10T11:32:05.000Z</Time>
            <Position>
              <LatitudeDegrees>35.89375488460063934326171875</LatitudeDegrees>
              <LongitudeDegrees>-5.33509670756757259368896484375</LongitudeDegrees>
            </Position>
            <AltitudeMeters>-0.4000000059604644775390625</AltitudeMeters>
            <DistanceMeters>17261.170147085</DistanceMeters>
          </Trackpoint>
          <Trackpoint>
            <Time>2018-06-10T11:32:16.000Z</Time>
            <Position>
              <LatitudeDegrees>35.89361784048378467559814453125</LatitudeDegrees>
              <LongitudeDegrees>-5.335073657333850860595703125</LongitudeDegrees>
            </Position>
            <AltitudeMeters>1</AltitudeMeters>
            <DistanceMeters>17276.564181517</DistanceMeters>
          </Trackpoint>
          <Trackpoint>
            <Time>2018-06-10T11:32:19.000Z</Time>
            <Position>
              <LatitudeDegrees>35.893589593470096588134765625</LatitudeDegrees>
              <LongitudeDegrees>-5.3350637666881084442138671875</LongitudeDegrees>
            </Position>
            <AltitudeMeters>1.39999997615814208984375</AltitudeMeters>
            <DistanceMeters>17279.832603221</DistanceMeters>
          </Trackpoint>
          <Trackpoint>
            <Time>2018-06-10T11:32:20.000Z</Time>
            <Position>
              <LatitudeDegrees>35.8935817144811153411865234375</LatitudeDegrees>
              <LongitudeDegrees>-5.33505211584270000457763671875</LongitudeDegrees>
            </Position>
            <AltitudeMeters>1.2000000476837158203125</AltitudeMeters>
            <DistanceMeters>17281.203097986</DistanceMeters>
          </Trackpoint>
          <Trackpoint>
            <Time>2018-06-10T11:32:22.000Z</Time>
            <Position>
              <LatitudeDegrees>35.893564112484455108642578125</LatitudeDegrees>
              <LongitudeDegrees>-5.33502261154353618621826171875</LongitudeDegrees>
            </Position>
            <AltitudeMeters>1.2000000476837158203125</AltitudeMeters>
            <DistanceMeters>17284.508607402</DistanceMeters>
          </Trackpoint>
          <Trackpoint>
            <Time>2018-06-10T11:32:25.000Z</Time>
            <Position>
              <LatitudeDegrees>35.89354340918362140655517578125</LatitudeDegrees>
              <LongitudeDegrees>-5.334985814988613128662109375</LongitudeDegrees>
            </Position>
            <AltitudeMeters>1</AltitudeMeters>
            <DistanceMeters>17288.546963262</DistanceMeters>
          </Trackpoint>
          <Trackpoint>
            <Time>2018-06-10T11:32:38.000Z</Time>
            <Position>
              <LatitudeDegrees>35.8934636972844600677490234375</LatitudeDegrees>
              <LongitudeDegrees>-5.3347864933311939239501953125</LongitudeDegrees>
            </Position>
            <AltitudeMeters>1.2000000476837158203125</AltitudeMeters>
            <DistanceMeters>17308.589717082</DistanceMeters>
          </Trackpoint>
          <Trackpoint>
            <Time>2018-06-10T11:32:43.000Z</Time>
            <Position>
              <LatitudeDegrees>35.89341156184673309326171875</LatitudeDegrees>
              <LongitudeDegrees>-5.33478188328444957733154296875</LongitudeDegrees>
            </Position>
            <AltitudeMeters>2</AltitudeMeters>
            <DistanceMeters>17314.407339149</DistanceMeters>
          </Trackpoint>
          <Trackpoint>
            <Time>2018-06-10T11:32:54.000Z</Time>
            <Position>
              <LatitudeDegrees>35.89334073476493358612060546875</LatitudeDegrees>
              <LongitudeDegrees>-5.3348451666533946990966796875</LongitudeDegrees>
            </Position>
            <AltitudeMeters>3.599999904632568359375</AltitudeMeters>
            <DistanceMeters>17324.139114</DistanceMeters>
          </Trackpoint>
          <Trackpoint>
            <Time>2018-06-10T11:32:56.000Z</Time>
            <Position>
              <LatitudeDegrees>35.8933171816170215606689453125</LatitudeDegrees>
              <LongitudeDegrees>-5.33483259379863739013671875</LongitudeDegrees>
            </Position>
            <AltitudeMeters>4</AltitudeMeters>
            <DistanceMeters>17326.99308123</DistanceMeters>
          </Trackpoint>
          <Trackpoint>
            <Time>2018-06-10T11:32:58.000Z</Time>
            <Position>
              <LatitudeDegrees>35.89329463429749011993408203125</LatitudeDegrees>
              <LongitudeDegrees>-5.33481021411716938018798828125</LongitudeDegrees>
            </Position>
            <AltitudeMeters>4.19999980926513671875</AltitudeMeters>
            <DistanceMeters>17330.214192503</DistanceMeters>
          </Trackpoint>
          <Trackpoint>
            <Time>2018-06-10T11:33:00.000Z</Time>
            <Position>
              <LatitudeDegrees>35.89328206144273281097412109375</LatitudeDegrees>
              <LongitudeDegrees>-5.33477920107543468475341796875</LongitudeDegrees>
            </Position>
            <AltitudeMeters>4.19999980926513671875</AltitudeMeters>
            <DistanceMeters>17333.342866802</DistanceMeters>
          </Trackpoint>
          <Trackpoint>
            <Time>2018-06-10T11:33:01.000Z</Time>
            <Position>
              <LatitudeDegrees>35.8932776190340518951416015625</LatitudeDegrees>
              <LongitudeDegrees>-5.33476545475423336029052734375</LongitudeDegrees>
            </Position>
            <AltitudeMeters>4.19999980926513671875</AltitudeMeters>
            <DistanceMeters>17334.680011198</DistanceMeters>
          </Trackpoint>
          <Trackpoint>
            <Time>2018-06-10T11:33:06.000Z</Time>
            <Position>
              <LatitudeDegrees>35.89326202869415283203125</LatitudeDegrees>
              <LongitudeDegrees>-5.3347050212323665618896484375</LongitudeDegrees>
            </Position>
            <AltitudeMeters>4</AltitudeMeters>
            <DistanceMeters>17340.399009089</DistanceMeters>
          </Trackpoint>
          <Trackpoint>
            <Time>2018-06-10T11:33:08.000Z</Time>
            <Position>
              <LatitudeDegrees>35.89326496236026287078857421875</LatitudeDegrees>
              <LongitudeDegrees>-5.3346709907054901123046875</LongitudeDegrees>
            </Position>
            <AltitudeMeters>3.7999999523162841796875</AltitudeMeters>
            <DistanceMeters>17343.485549328</DistanceMeters>
          </Trackpoint>
          <Trackpoint>
            <Time>2018-06-10T11:33:09.000Z</Time>
            <Position>
              <LatitudeDegrees>35.89326764456927776336669921875</LatitudeDegrees>
              <LongitudeDegrees>-5.33465447835624217987060546875</LongitudeDegrees>
            </Position>
            <AltitudeMeters>3.7999999523162841796875</AltitudeMeters>
            <DistanceMeters>17345.003004268</DistanceMeters>
          </Trackpoint>
          <Trackpoint>
            <Time>2018-06-10T11:33:12.000Z</Time>
            <Position>
              <LatitudeDegrees>35.89327334426343441009521484375</LatitudeDegrees>
              <LongitudeDegrees>-5.334611646831035614013671875</LongitudeDegrees>
            </Position>
            <AltitudeMeters>3.7999999523162841796875</AltitudeMeters>
            <DistanceMeters>17348.916443886</DistanceMeters>
          </Trackpoint>
          <Trackpoint>
            <Time>2018-06-10T11:33:16.000Z</Time>
            <Position>
              <LatitudeDegrees>35.89329094626009464263916015625</LatitudeDegrees>
              <LongitudeDegrees>-5.33456034958362579345703125</LongitudeDegrees>
            </Position>
            <AltitudeMeters>3.7999999523162841796875</AltitudeMeters>
            <DistanceMeters>17353.939394571</DistanceMeters>
          </Trackpoint>
          <Trackpoint>
            <Time>2018-06-10T11:33:22.000Z</Time>
            <Position>
              <LatitudeDegrees>35.89332573115825653076171875</LatitudeDegrees>
              <LongitudeDegrees>-5.3344877623021602630615234375</LongitudeDegrees>
            </Position>
            <AltitudeMeters>3.7999999523162841796875</AltitudeMeters>
            <DistanceMeters>17361.543907018</DistanceMeters>
          </Trackpoint>
          <Trackpoint>
            <Time>2018-06-10T11:33:24.000Z</Time>
            <Position>
              <LatitudeDegrees>35.89333939366042613983154296875</LatitudeDegrees>
              <LongitudeDegrees>-5.33446840010583400726318359375</LongitudeDegrees>
            </Position>
            <AltitudeMeters>3.599999904632568359375</AltitudeMeters>
            <DistanceMeters>17363.857958731</DistanceMeters>
          </Trackpoint>
          <Trackpoint>
            <Time>2018-06-10T11:33:28.000Z</Time>
            <Position>
              <LatitudeDegrees>35.8933637849986553192138671875</LatitudeDegrees>
              <LongitudeDegrees>-5.334428250789642333984375</LongitudeDegrees>
            </Position>
            <AltitudeMeters>3.599999904632568359375</AltitudeMeters>
            <DistanceMeters>17368.381469892</DistanceMeters>
          </Trackpoint>
          <Trackpoint>
            <Time>2018-06-10T11:33:44.000Z</Time>
            <Position>
              <LatitudeDegrees>35.89334945194423198699951171875</LatitudeDegrees>
              <LongitudeDegrees>-5.33417905680835247039794921875</LongitudeDegrees>
            </Position>
            <AltitudeMeters>4.599999904632568359375</AltitudeMeters>
            <DistanceMeters>17390.907010848</DistanceMeters>
          </Trackpoint>
          <Trackpoint>
            <Time>2018-06-10T11:33:49.000Z</Time>
            <Position>
              <LatitudeDegrees>35.8933329395949840545654296875</LatitudeDegrees>
              <LongitudeDegrees>-5.3340944834053516387939453125</LongitudeDegrees>
            </Position>
            <AltitudeMeters>5</AltitudeMeters>
            <DistanceMeters>17398.750025622</DistanceMeters>
          </Trackpoint>
          <Trackpoint>
            <Time>2018-06-10T11:33:54.000Z</Time>
            <Position>
              <LatitudeDegrees>35.89333570562303066253662109375</LatitudeDegrees>
              <LongitudeDegrees>-5.33400806598365306854248046875</LongitudeDegrees>
            </Position>
            <AltitudeMeters>5.19999980926513671875</AltitudeMeters>
            <DistanceMeters>17406.548008359</DistanceMeters>
          </Trackpoint>
          <Trackpoint>
            <Time>2018-06-10T11:33:59.000Z</Time>
            <Position>
              <LatitudeDegrees>35.89337359182536602020263671875</LatitudeDegrees>
              <LongitudeDegrees>-5.333931036293506622314453125</LongitudeDegrees>
            </Position>
            <AltitudeMeters>5</AltitudeMeters>
            <DistanceMeters>17414.673209211</DistanceMeters>
          </Trackpoint>
          <Trackpoint>
            <Time>2018-06-10T11:34:05.000Z</Time>
            <Position>
              <LatitudeDegrees>35.89338515885174274444580078125</LatitudeDegrees>
              <LongitudeDegrees>-5.33383749425411224365234375</LongitudeDegrees>
            </Position>
            <AltitudeMeters>5</AltitudeMeters>
            <DistanceMeters>17423.205528725</DistanceMeters>
          </Trackpoint>
          <Trackpoint>
            <Time>2018-06-10T11:34:18.000Z</Time>
            <Position>
              <LatitudeDegrees>35.89339815080165863037109375</LatitudeDegrees>
              <LongitudeDegrees>-5.3336539305746555328369140625</LongitudeDegrees>
            </Position>
            <AltitudeMeters>6</AltitudeMeters>
            <DistanceMeters>17439.819720753</DistanceMeters>
          </Trackpoint>
          <Trackpoint>
            <Time>2018-06-10T11:34:19.000Z</Time>
            <Position>
              <LatitudeDegrees>35.8933929540216922760009765625</LatitudeDegrees>
              <LongitudeDegrees>-5.33363909460604190826416015625</LongitudeDegrees>
            </Position>
            <AltitudeMeters>6</AltitudeMeters>
            <DistanceMeters>17441.276452699</DistanceMeters>
          </Trackpoint>
          <Trackpoint>
            <Time>2018-06-10T11:34:30.000Z</Time>
            <Position>
              <LatitudeDegrees>35.89331902563571929931640625</LatitudeDegrees>
              <LongitudeDegrees>-5.33343692310154438018798828125</LongitudeDegrees>
            </Position>
            <AltitudeMeters>8</AltitudeMeters>
            <DistanceMeters>17461.276585105</DistanceMeters>
          </Trackpoint>
          <Trackpoint>
            <Time>2018-06-10T11:34:35.000Z</Time>
            <Position>
              <LatitudeDegrees>35.89333268813788890838623046875</LatitudeDegrees>
              <LongitudeDegrees>-5.3333612345159053802490234375</LongitudeDegrees>
            </Position>
            <AltitudeMeters>8.19999980926513671875</AltitudeMeters>
            <DistanceMeters>17468.268640158</DistanceMeters>
          </Trackpoint>
          <Trackpoint>
            <Time>2018-06-10T11:34:38.000Z</Time>
            <Position>
              <LatitudeDegrees>35.89333050884306430816650390625</LatitudeDegrees>
              <LongitudeDegrees>-5.333308763802051544189453125</LongitudeDegrees>
            </Position>
            <AltitudeMeters>8.6000003814697265625</AltitudeMeters>
            <DistanceMeters>17473.006653459</DistanceMeters>
          </Trackpoint>
          <Trackpoint>
            <Time>2018-06-10T11:34:42.000Z</Time>
            <Position>
              <LatitudeDegrees>35.8933429978787899017333984375</LatitudeDegrees>
              <LongitudeDegrees>-5.3332324884831905364990234375</LongitudeDegrees>
            </Position>
            <AltitudeMeters>8.80000019073486328125</AltitudeMeters>
            <DistanceMeters>17480.023847118</DistanceMeters>
          </Trackpoint>
          <Trackpoint>
            <Time>2018-06-10T11:34:54.000Z</Time>
            <Position>
              <LatitudeDegrees>35.893348865211009979248046875</LatitudeDegrees>
              <LongitudeDegrees>-5.3330018185079097747802734375</LongitudeDegrees>
            </Position>
            <AltitudeMeters>9.80000019073486328125</AltitudeMeters>
            <DistanceMeters>17500.833178818</DistanceMeters>
          </Trackpoint>
          <Trackpoint>
            <Time>2018-06-10T11:35:02.000Z</Time>
            <Position>
              <LatitudeDegrees>35.893407203257083892822265625</LatitudeDegrees>
              <LongitudeDegrees>-5.3328765928745269775390625</LongitudeDegrees>
            </Position>
            <AltitudeMeters>9.80000019073486328125</AltitudeMeters>
            <DistanceMeters>17513.858079822</DistanceMeters>
          </Trackpoint>
          <Trackpoint>
            <Time>2018-06-10T11:35:11.000Z</Time>
            <Position>
              <LatitudeDegrees>35.893435366451740264892578125</LatitudeDegrees>
              <LongitudeDegrees>-5.3327639400959014892578125</LongitudeDegrees>
            </Position>
            <AltitudeMeters>10</AltitudeMeters>
            <DistanceMeters>17524.488337421</DistanceMeters>
          </Trackpoint>
          <Trackpoint>
            <Time>2018-06-10T11:35:15.000Z</Time>
            <Position>
              <LatitudeDegrees>35.89346260763704776763916015625</LatitudeDegrees>
              <LongitudeDegrees>-5.332711972296237945556640625</LongitudeDegrees>
            </Position>
            <AltitudeMeters>10</AltitudeMeters>
            <DistanceMeters>17530.069084114</DistanceMeters>
          </Trackpoint>
          <Trackpoint>
            <Time>2018-06-10T11:35:21.000Z</Time>
            <Position>
              <LatitudeDegrees>35.89351859875023365020751953125</LatitudeDegrees>
              <LongitudeDegrees>-5.3326271474361419677734375</LongitudeDegrees>
            </Position>
            <AltitudeMeters>9.80000019073486328125</AltitudeMeters>
            <DistanceMeters>17539.935401769</DistanceMeters>
          </Trackpoint>
          <Trackpoint>
            <Time>2018-06-10T11:35:26.000Z</Time>
            <Position>
              <LatitudeDegrees>35.89356101118028163909912109375</LatitudeDegrees>
              <LongitudeDegrees>-5.33255900256335735321044921875</LongitudeDegrees>
            </Position>
            <AltitudeMeters>9.6000003814697265625</AltitudeMeters>
            <DistanceMeters>17547.684013146</DistanceMeters>
          </Trackpoint>
          <Trackpoint>
            <Time>2018-06-10T11:35:30.000Z</Time>
            <Position>
              <LatitudeDegrees>35.89358816854655742645263671875</LatitudeDegrees>
              <LongitudeDegrees>-5.3324952162802219390869140625</LongitudeDegrees>
            </Position>
            <AltitudeMeters>9.6000003814697265625</AltitudeMeters>
            <DistanceMeters>17554.18067208</DistanceMeters>
          </Trackpoint>
          <Trackpoint>
            <Time>2018-06-10T11:35:34.000Z</Time>
            <Position>
              <LatitudeDegrees>35.893613398075103759765625</LatitudeDegrees>
              <LongitudeDegrees>-5.3324288316071033477783203125</LongitudeDegrees>
            </Position>
            <AltitudeMeters>9.6000003814697265625</AltitudeMeters>
            <DistanceMeters>17560.792373832</DistanceMeters>
          </Trackpoint>
          <Trackpoint>
            <Time>2018-06-10T11:35:49.000Z</Time>
            <Position>
              <LatitudeDegrees>35.89370350353419780731201171875</LatitudeDegrees>
              <LongitudeDegrees>-5.33221609890460968017578125</LongitudeDegrees>
            </Position>
            <AltitudeMeters>10</AltitudeMeters>
            <DistanceMeters>17582.437198296</DistanceMeters>
          </Trackpoint>
          <Trackpoint>
            <Time>2018-06-10T11:36:05.000Z</Time>
            <Position>
              <LatitudeDegrees>35.89370635338127613067626953125</LatitudeDegrees>
              <LongitudeDegrees>-5.33194527961313724517822265625</LongitudeDegrees>
            </Position>
            <AltitudeMeters>12.6000003814697265625</AltitudeMeters>
            <DistanceMeters>17606.858139487</DistanceMeters>
          </Trackpoint>
          <Trackpoint>
            <Time>2018-06-10T11:36:06.000Z</Time>
            <Position>
              <LatitudeDegrees>35.893709957599639892578125</LatitudeDegrees>
              <LongitudeDegrees>-5.331928767263889312744140625</LongitudeDegrees>
            </Position>
            <AltitudeMeters>12.80000019073486328125</AltitudeMeters>
            <DistanceMeters>17608.396281232</DistanceMeters>
          </Trackpoint>
          <Trackpoint>
            <Time>2018-06-10T11:36:15.000Z</Time>
            <Position>
              <LatitudeDegrees>35.8936900086700916290283203125</LatitudeDegrees>
              <LongitudeDegrees>-5.3317768871784210205078125</LongitudeDegrees>
            </Position>
            <AltitudeMeters>14.6000003814697265625</AltitudeMeters>
            <DistanceMeters>17622.269530647</DistanceMeters>
          </Trackpoint>
          <Trackpoint>
            <Time>2018-06-10T11:36:24.000Z</Time>
            <Position>
              <LatitudeDegrees>35.89371339417994022369384765625</LatitudeDegrees>
              <LongitudeDegrees>-5.3316352330148220062255859375</LongitudeDegrees>
            </Position>
            <AltitudeMeters>15.80000019073486328125</AltitudeMeters>
            <DistanceMeters>17635.304480527</DistanceMeters>
          </Trackpoint>
          <Trackpoint>
            <Time>2018-06-10T11:36:32.000Z</Time>
            <Position>
              <LatitudeDegrees>35.8937718160450458526611328125</LatitudeDegrees>
              <LongitudeDegrees>-5.33153775148093700408935546875</LongitudeDegrees>
            </Position>
            <AltitudeMeters>16.200000762939453125</AltitudeMeters>
            <DistanceMeters>17646.237922435</DistanceMeters>
          </Trackpoint>
          <Trackpoint>
            <Time>2018-06-10T11:36:36.000Z</Time>
            <Position>
              <LatitudeDegrees>35.89377676136791706085205078125</LatitudeDegrees>
              <LongitudeDegrees>-5.33147983253002166748046875</LongitudeDegrees>
            </Position>
            <AltitudeMeters>16.799999237060546875</AltitudeMeters>
            <DistanceMeters>17651.489384466</DistanceMeters>
          </Trackpoint>
          <Trackpoint>
            <Time>2018-06-10T11:36:39.000Z</Time>
            <Position>
              <LatitudeDegrees>35.89376385323703289031982421875</LatitudeDegrees>
              <LongitudeDegrees>-5.33142761327326297760009765625</LongitudeDegrees>
            </Position>
            <AltitudeMeters>17.3999996185302734375</AltitudeMeters>
            <DistanceMeters>17656.412465328</DistanceMeters>
          </Trackpoint>
          <Trackpoint>
            <Time>2018-06-10T11:36:54.000Z</Time>
            <Position>
              <LatitudeDegrees>35.8937600813806056976318359375</LatitudeDegrees>
              <LongitudeDegrees>-5.33117112703621387481689453125</LongitudeDegrees>
            </Position>
            <AltitudeMeters>19.200000762939453125</AltitudeMeters>
            <DistanceMeters>17679.542834308</DistanceMeters>
          </Trackpoint>
          <Trackpoint>
            <Time>2018-06-10T11:36:59.000Z</Time>
            <Position>
              <LatitudeDegrees>35.89374524541199207305908203125</LatitudeDegrees>
              <LongitudeDegrees>-5.33109761774539947509765625</LongitudeDegrees>
            </Position>
            <AltitudeMeters>19.6000003814697265625</AltitudeMeters>
            <DistanceMeters>17686.373530099</DistanceMeters>
          </Trackpoint>
          <Trackpoint>
            <Time>2018-06-10T11:37:14.000Z</Time>
            <Position>
              <LatitudeDegrees>35.89372043497860431671142578125</LatitudeDegrees>
              <LongitudeDegrees>-5.330867283046245574951171875</LongitudeDegrees>
            </Position>
            <AltitudeMeters>21</AltitudeMeters>
            <DistanceMeters>17707.32471183</DistanceMeters>
          </Trackpoint>
          <Trackpoint>
            <Time>2018-06-10T11:37:27.000Z</Time>
            <Position>
              <LatitudeDegrees>35.893683470785617828369140625</LatitudeDegrees>
              <LongitudeDegrees>-5.3306682966649532318115234375</LongitudeDegrees>
            </Position>
            <AltitudeMeters>22.3999996185302734375</AltitudeMeters>
            <DistanceMeters>17725.732443589</DistanceMeters>
          </Trackpoint>
          <Trackpoint>
            <Time>2018-06-10T11:37:42.000Z</Time>
            <Position>
              <LatitudeDegrees>35.89359085075557231903076171875</LatitudeDegrees>
              <LongitudeDegrees>-5.330462940037250518798828125</LongitudeDegrees>
            </Position>
            <AltitudeMeters>24</AltitudeMeters>
            <DistanceMeters>17746.924892291</DistanceMeters>
          </Trackpoint>
          <Trackpoint>
            <Time>2018-06-10T11:37:45.000Z</Time>
            <Position>
              <LatitudeDegrees>35.89358096010982990264892578125</LatitudeDegrees>
              <LongitudeDegrees>-5.33041608519852161407470703125</LongitudeDegrees>
            </Position>
            <AltitudeMeters>24</AltitudeMeters>
            <DistanceMeters>17751.289919359</DistanceMeters>
          </Trackpoint>
          <Trackpoint>
            <Time>2018-06-10T11:37:52.000Z</Time>
            <Position>
              <LatitudeDegrees>35.89355933479964733123779296875</LatitudeDegrees>
              <LongitudeDegrees>-5.3303038515150547027587890625</LongitudeDegrees>
            </Position>
            <AltitudeMeters>24.200000762939453125</AltitudeMeters>
            <DistanceMeters>17761.691764193</DistanceMeters>
          </Trackpoint>
          <Trackpoint>
            <Time>2018-06-10T11:38:07.000Z</Time>
            <Position>
              <LatitudeDegrees>35.893566794693470001220703125</LatitudeDegrees>
              <LongitudeDegrees>-5.33006605692207813262939453125</LongitudeDegrees>
            </Position>
            <AltitudeMeters>24.200000762939453125</AltitudeMeters>
            <DistanceMeters>17783.148872049</DistanceMeters>
          </Trackpoint>
          <Trackpoint>
            <Time>2018-06-10T11:38:20.000Z</Time>
            <Position>
              <LatitudeDegrees>35.8934925310313701629638671875</LatitudeDegrees>
              <LongitudeDegrees>-5.329860784113407135009765625</LongitudeDegrees>
            </Position>
            <AltitudeMeters>24.3999996185302734375</AltitudeMeters>
            <DistanceMeters>17803.419431204</DistanceMeters>
          </Trackpoint>
          <Trackpoint>
            <Time>2018-06-10T11:38:34.000Z</Time>
            <Position>
              <LatitudeDegrees>35.8934167586266994476318359375</LatitudeDegrees>
              <LongitudeDegrees>-5.32964981161057949066162109375</LongitudeDegrees>
            </Position>
            <AltitudeMeters>24.6000003814697265625</AltitudeMeters>
            <DistanceMeters>17824.227894998</DistanceMeters>
          </Trackpoint>
          <Trackpoint>
            <Time>2018-06-10T11:38:37.000Z</Time>
            <Position>
              <LatitudeDegrees>35.8933718316256999969482421875</LatitudeDegrees>
              <LongitudeDegrees>-5.329607985913753509521484375</LongitudeDegrees>
            </Position>
            <AltitudeMeters>24.799999237060546875</AltitudeMeters>
            <DistanceMeters>17830.491013396</DistanceMeters>
          </Trackpoint>
          <Trackpoint>
            <Time>2018-06-10T11:38:46.000Z</Time>
            <Position>
              <LatitudeDegrees>35.89321534149348735809326171875</LatitudeDegrees>
              <LongitudeDegrees>-5.32946825958788394927978515625</LongitudeDegrees>
            </Position>
            <AltitudeMeters>25.3999996185302734375</AltitudeMeters>
            <DistanceMeters>17851.987644108</DistanceMeters>
          </Trackpoint>
          <Trackpoint>
            <Time>2018-06-10T11:38:58.000Z</Time>
            <Position>
              <LatitudeDegrees>35.89311785995960235595703125</LatitudeDegrees>
              <LongitudeDegrees>-5.329273380339145660400390625</LongitudeDegrees>
            </Position>
            <AltitudeMeters>25.3999996185302734375</AltitudeMeters>
            <DistanceMeters>17872.639290784</DistanceMeters>
          </Trackpoint>
          <Trackpoint>
            <Time>2018-06-10T11:39:13.000Z</Time>
            <Position>
              <LatitudeDegrees>35.8931052871048450469970703125</LatitudeDegrees>
              <LongitudeDegrees>-5.3290412016212940216064453125</LongitudeDegrees>
            </Position>
            <AltitudeMeters>24.6000003814697265625</AltitudeMeters>
            <DistanceMeters>17893.621051597</DistanceMeters>
          </Trackpoint>
          <Trackpoint>
            <Time>2018-06-10T11:39:17.000Z</Time>
            <Position>
              <LatitudeDegrees>35.893108136951923370361328125</LatitudeDegrees>
              <LongitudeDegrees>-5.32896920107305049896240234375</LongitudeDegrees>
            </Position>
            <AltitudeMeters>24.3999996185302734375</AltitudeMeters>
            <DistanceMeters>17900.12048985</DistanceMeters>
          </Trackpoint>
          <Trackpoint>
            <Time>2018-06-10T11:39:21.000Z</Time>
            <Position>
              <LatitudeDegrees>35.8931220509111881256103515625</LatitudeDegrees>
              <LongitudeDegrees>-5.3288961946964263916015625</LongitudeDegrees>
            </Position>
            <AltitudeMeters>24</AltitudeMeters>
            <DistanceMeters>17906.882760705</DistanceMeters>
          </Trackpoint>
          <Trackpoint>
            <Time>2018-06-10T11:39:35.000Z</Time>
            <Position>
              <LatitudeDegrees>35.8931485377252101898193359375</LatitudeDegrees>
              <LongitudeDegrees>-5.32866409979760646820068359375</LongitudeDegrees>
            </Position>
            <AltitudeMeters>23.6000003814697265625</AltitudeMeters>
            <DistanceMeters>17928.016753254</DistanceMeters>
          </Trackpoint>
          <Trackpoint>
            <Time>2018-06-10T11:39:48.000Z</Time>
            <Position>
              <LatitudeDegrees>35.8930756151676177978515625</LatitudeDegrees>
              <LongitudeDegrees>-5.32844952307641506195068359375</LongitudeDegrees>
            </Position>
            <AltitudeMeters>23.6000003814697265625</AltitudeMeters>
            <DistanceMeters>17948.998083685</DistanceMeters>
          </Trackpoint>
          <Trackpoint>
            <Time>2018-06-10T11:39:57.000Z</Time>
            <Position>
              <LatitudeDegrees>35.89303412474691867828369140625</LatitudeDegrees>
              <LongitudeDegrees>-5.32829697243869304656982421875</LongitudeDegrees>
            </Position>
            <AltitudeMeters>23.6000003814697265625</AltitudeMeters>
            <DistanceMeters>17963.507639233</DistanceMeters>
          </Trackpoint>
          <Trackpoint>
            <Time>2018-06-10T11:39:59.000Z</Time>
            <Position>
              <LatitudeDegrees>35.89302574284374713897705078125</LatitudeDegrees>
              <LongitudeDegrees>-5.3282643668353557586669921875</LongitudeDegrees>
            </Position>
            <AltitudeMeters>23.6000003814697265625</AltitudeMeters>
            <DistanceMeters>17966.591252454</DistanceMeters>
          </Trackpoint>
          <Trackpoint>
            <Time>2018-06-10T11:40:01.000Z</Time>
            <Position>
              <LatitudeDegrees>35.89301451109349727630615234375</LatitudeDegrees>
              <LongitudeDegrees>-5.328230671584606170654296875</LongitudeDegrees>
            </Position>
            <AltitudeMeters>23.799999237060546875</AltitudeMeters>
            <DistanceMeters>17969.87620928</DistanceMeters>
          </Trackpoint>
          <Trackpoint>
            <Time>2018-06-10T11:40:12.000Z</Time>
            <Position>
              <LatitudeDegrees>35.8929332904517650604248046875</LatitudeDegrees>
              <LongitudeDegrees>-5.3280474431812763214111328125</LongitudeDegrees>
            </Position>
            <AltitudeMeters>24.200000762939453125</AltitudeMeters>
            <DistanceMeters>17988.709008129</DistanceMeters>
          </Trackpoint>
          <Trackpoint>
            <Time>2018-06-10T11:40:15.000Z</Time>
            <Position>
              <LatitudeDegrees>35.892925746738910675048828125</LatitudeDegrees>
              <LongitudeDegrees>-5.328002683818340301513671875</LongitudeDegrees>
            </Position>
            <AltitudeMeters>24.3999996185302734375</AltitudeMeters>
            <DistanceMeters>17992.830363949</DistanceMeters>
          </Trackpoint>
          <Trackpoint>
            <Time>2018-06-10T11:40:21.000Z</Time>
            <Position>
              <LatitudeDegrees>35.89288861490786075592041015625</LatitudeDegrees>
              <LongitudeDegrees>-5.32791341654956340789794921875</LongitudeDegrees>
            </Position>
            <AltitudeMeters>24.6000003814697265625</AltitudeMeters>
            <DistanceMeters>18001.878384342</DistanceMeters>
          </Trackpoint>
          <Trackpoint>
            <Time>2018-06-10T11:40:25.000Z</Time>
            <Position>
              <LatitudeDegrees>35.89283430017530918121337890625</LatitudeDegrees>
              <LongitudeDegrees>-5.3278694115579128265380859375</LongitudeDegrees>
            </Position>
            <AltitudeMeters>25</AltitudeMeters>
            <DistanceMeters>18009.109161798</DistanceMeters>
          </Trackpoint>
          <Trackpoint>
            <Time>2018-06-10T11:40:28.000Z</Time>
            <Position>
              <LatitudeDegrees>35.892791636288166046142578125</LatitudeDegrees>
              <LongitudeDegrees>-5.3278608620166778564453125</LongitudeDegrees>
            </Position>
            <AltitudeMeters>25.3999996185302734375</AltitudeMeters>
            <DistanceMeters>18013.919053257</DistanceMeters>
          </Trackpoint>
          <Trackpoint>
            <Time>2018-06-10T11:40:34.000Z</Time>
            <Position>
              <LatitudeDegrees>35.892755091190338134765625</LatitudeDegrees>
              <LongitudeDegrees>-5.32777712680399417877197265625</LongitudeDegrees>
            </Position>
            <AltitudeMeters>25.799999237060546875</AltitudeMeters>
            <DistanceMeters>18022.494654843</DistanceMeters>
          </Trackpoint>
          <Trackpoint>
            <Time>2018-06-10T11:40:37.000Z</Time>
            <Position>
              <LatitudeDegrees>35.89275450445711612701416015625</LatitudeDegrees>
              <LongitudeDegrees>-5.3277376480400562286376953125</LongitudeDegrees>
            </Position>
            <AltitudeMeters>25.799999237060546875</AltitudeMeters>
            <DistanceMeters>18026.054036425</DistanceMeters>
          </Trackpoint>
          <Trackpoint>
            <Time>2018-06-10T11:40:38.000Z</Time>
            <Position>
              <LatitudeDegrees>35.89275450445711612701416015625</LatitudeDegrees>
              <LongitudeDegrees>-5.3277222253382205963134765625</LongitudeDegrees>
            </Position>
            <AltitudeMeters>25.6000003814697265625</AltitudeMeters>
            <DistanceMeters>18027.444157413</DistanceMeters>
          </Trackpoint>
          <Trackpoint>
            <Time>2018-06-10T11:40:44.000Z</Time>
            <Position>
              <LatitudeDegrees>35.89274478144943714141845703125</LatitudeDegrees>
              <LongitudeDegrees>-5.3276333771646022796630859375</LongitudeDegrees>
            </Position>
            <AltitudeMeters>25.6000003814697265625</AltitudeMeters>
            <DistanceMeters>18035.528691617</DistanceMeters>
          </Trackpoint>
          <Trackpoint>
            <Time>2018-06-10T11:40:57.000Z</Time>
            <Position>
              <LatitudeDegrees>35.892706811428070068359375</LatitudeDegrees>
              <LongitudeDegrees>-5.32741385512053966522216796875</LongitudeDegrees>
            </Position>
            <AltitudeMeters>25.799999237060546875</AltitudeMeters>
            <DistanceMeters>18055.768712564</DistanceMeters>
          </Trackpoint>
          <Trackpoint>
            <Time>2018-06-10T11:41:08.000Z</Time>
            <Position>
              <LatitudeDegrees>35.89264906011521816253662109375</LatitudeDegrees>
              <LongitudeDegrees>-5.3272129409015178680419921875</LongitudeDegrees>
            </Position>
            <AltitudeMeters>26</AltitudeMeters>
            <DistanceMeters>18074.991374401</DistanceMeters>
          </Trackpoint>
          <Trackpoint>
            <Time>2018-06-10T11:41:09.000Z</Time>
            <Position>
              <LatitudeDegrees>35.89264352805912494659423828125</LatitudeDegrees>
              <LongitudeDegrees>-5.327198691666126251220703125</LongitudeDegrees>
            </Position>
            <AltitudeMeters>26.200000762939453125</AltitudeMeters>
            <DistanceMeters>18076.419939162</DistanceMeters>
          </Trackpoint>
          <Trackpoint>
            <Time>2018-06-10T11:41:13.000Z</Time>
            <Position>
              <LatitudeDegrees>35.892608575522899627685546875</LatitudeDegrees>
              <LongitudeDegrees>-5.32714261673390865325927734375</LongitudeDegrees>
            </Position>
            <AltitudeMeters>26.3999996185302734375</AltitudeMeters>
            <DistanceMeters>18082.798773261</DistanceMeters>
          </Trackpoint>
          <Trackpoint>
            <Time>2018-06-10T11:41:14.000Z</Time>
            <Position>
              <LatitudeDegrees>35.89259776286780834197998046875</LatitudeDegrees>
              <LongitudeDegrees>-5.32712853513658046722412109375</LongitudeDegrees>
            </Position>
            <AltitudeMeters>26.3999996185302734375</AltitudeMeters>
            <DistanceMeters>18084.548400625</DistanceMeters>
          </Trackpoint>
          <Trackpoint>
            <Time>2018-06-10T11:41:18.000Z</Time>
            <Position>
              <LatitudeDegrees>35.89255518279969692230224609375</LatitudeDegrees>
              <LongitudeDegrees>-5.32707673497498035430908203125</LongitudeDegrees>
            </Position>
            <AltitudeMeters>26.6000003814697265625</AltitudeMeters>
            <DistanceMeters>18091.202306606</DistanceMeters>
          </Trackpoint>
          <Trackpoint>
            <Time>2018-06-10T11:41:22.000Z</Time>
            <Position>
              <LatitudeDegrees>35.89253179728984832763671875</LatitudeDegrees>
              <LongitudeDegrees>-5.327039100229740142822265625</LongitudeDegrees>
            </Position>
            <AltitudeMeters>26.799999237060546875</AltitudeMeters>
            <DistanceMeters>18095.479564475</DistanceMeters>
          </Trackpoint>
          <Trackpoint>
            <Time>2018-06-10T11:41:34.000Z</Time>
            <Position>
              <LatitudeDegrees>35.89236591942608356475830078125</LatitudeDegrees>
              <LongitudeDegrees>-5.32693080604076385498046875</LongitudeDegrees>
            </Position>
            <AltitudeMeters>27.799999237060546875</AltitudeMeters>
            <DistanceMeters>18116.365130608</DistanceMeters>
          </Trackpoint>
          <Trackpoint>
            <Time>2018-06-10T11:41:40.000Z</Time>
            <Position>
              <LatitudeDegrees>35.89229576289653778076171875</LatitudeDegrees>
              <LongitudeDegrees>-5.326860062777996063232421875</LongitudeDegrees>
            </Position>
            <AltitudeMeters>27.799999237060546875</AltitudeMeters>
            <DistanceMeters>18126.447818772</DistanceMeters>
          </Trackpoint>
          <Trackpoint>
            <Time>2018-06-10T11:41:45.000Z</Time>
            <Position>
              <LatitudeDegrees>35.89226433075964450836181640625</LatitudeDegrees>
              <LongitudeDegrees>-5.3268139623105525970458984375</LongitudeDegrees>
            </Position>
            <AltitudeMeters>27.799999237060546875</AltitudeMeters>
            <DistanceMeters>18131.881818217</DistanceMeters>
          </Trackpoint>
          <Trackpoint>
            <Time>2018-06-10T11:41:54.000Z</Time>
            <Position>
              <LatitudeDegrees>35.8922494947910308837890625</LatitudeDegrees>
              <LongitudeDegrees>-5.326672308146953582763671875</LongitudeDegrees>
            </Position>
            <AltitudeMeters>27</AltitudeMeters>
            <DistanceMeters>18144.761005854</DistanceMeters>
          </Trackpoint>
          <Trackpoint>
            <Time>2018-06-10T11:41:55.000Z</Time>
            <Position>
              <LatitudeDegrees>35.8922580443322658538818359375</LatitudeDegrees>
              <LongitudeDegrees>-5.32665478996932506561279296875</LongitudeDegrees>
            </Position>
            <AltitudeMeters>27</AltitudeMeters>
            <DistanceMeters>18146.603642211</DistanceMeters>
          </Trackpoint>
          <Trackpoint>
            <Time>2018-06-10T11:42:01.000Z</Time>
            <Position>
              <LatitudeDegrees>35.8922513388097286224365234375</LatitudeDegrees>
              <LongitudeDegrees>-5.32658589072525501251220703125</LongitudeDegrees>
            </Position>
            <AltitudeMeters>26.6000003814697265625</AltitudeMeters>
            <DistanceMeters>18152.860269208</DistanceMeters>
          </Trackpoint>
          <Trackpoint>
            <Time>2018-06-10T11:42:03.000Z</Time>
            <Position>
              <LatitudeDegrees>35.8922349102795124053955078125</LatitudeDegrees>
              <LongitudeDegrees>-5.32656761817634105682373046875</LongitudeDegrees>
            </Position>
            <AltitudeMeters>26.6000003814697265625</AltitudeMeters>
            <DistanceMeters>18155.32180964</DistanceMeters>
          </Trackpoint>
          <Trackpoint>
            <Time>2018-06-10T11:42:04.000Z</Time>
            <Position>
              <LatitudeDegrees>35.8922194875776767730712890625</LatitudeDegrees>
              <LongitudeDegrees>-5.32656074501574039459228515625</LongitudeDegrees>
            </Position>
            <AltitudeMeters>26.6000003814697265625</AltitudeMeters>
            <DistanceMeters>18157.149684987</DistanceMeters>
          </Trackpoint>
          <Trackpoint>
            <Time>2018-06-10T11:42:08.000Z</Time>
            <Position>
              <LatitudeDegrees>35.89218822307884693145751953125</LatitudeDegrees>
              <LongitudeDegrees>-5.326550938189029693603515625</LongitudeDegrees>
            </Position>
            <AltitudeMeters>26.6000003814697265625</AltitudeMeters>
            <DistanceMeters>18160.741895899</DistanceMeters>
          </Trackpoint>
          <Trackpoint>
            <Time>2018-06-10T11:42:15.000Z</Time>
            <Position>
              <LatitudeDegrees>35.89219509623944759368896484375</LatitudeDegrees>
              <LongitudeDegrees>-5.32656158320605754852294921875</LongitudeDegrees>
            </Position>
            <AltitudeMeters>26.6000003814697265625</AltitudeMeters>
            <DistanceMeters>18161.969911683</DistanceMeters>
          </Trackpoint>
          <Trackpoint>
            <Time>2018-06-10T11:42:27.000Z</Time>
            <Position>
              <LatitudeDegrees>35.89199828915297985076904296875</LatitudeDegrees>
              <LongitudeDegrees>-5.326516740024089813232421875</LongitudeDegrees>
            </Position>
            <AltitudeMeters>27.200000762939453125</AltitudeMeters>
            <DistanceMeters>18184.245114049</DistanceMeters>
          </Trackpoint>
          <Trackpoint>
            <Time>2018-06-10T11:42:35.000Z</Time>
            <Position>
              <LatitudeDegrees>35.891911201179027557373046875</LatitudeDegrees>
              <LongitudeDegrees>-5.32650475390255451202392578125</LongitudeDegrees>
            </Position>
            <AltitudeMeters>27.799999237060546875</AltitudeMeters>
            <DistanceMeters>18193.998207161</DistanceMeters>
          </Trackpoint>
          <Trackpoint>
            <Time>2018-06-10T11:42:40.000Z</Time>
            <Position>
              <LatitudeDegrees>35.8919123746454715728759765625</LatitudeDegrees>
              <LongitudeDegrees>-5.32658739946782588958740234375</LongitudeDegrees>
            </Position>
            <AltitudeMeters>28</AltitudeMeters>
            <DistanceMeters>18201.452203429</DistanceMeters>
          </Trackpoint>
          <Trackpoint>
            <Time>2018-06-10T11:42:41.000Z</Time>
            <Position>
              <LatitudeDegrees>35.8919160626828670501708984375</LatitudeDegrees>
              <LongitudeDegrees>-5.32659678719937801361083984375</LongitudeDegrees>
            </Position>
            <AltitudeMeters>28</AltitudeMeters>
            <DistanceMeters>18202.392919907</DistanceMeters>
          </Trackpoint>
          <Trackpoint>
            <Time>2018-06-10T11:42:45.000Z</Time>
            <Position>
              <LatitudeDegrees>35.891923606395721435546875</LatitudeDegrees>
              <LongitudeDegrees>-5.3266376070678234100341796875</LongitudeDegrees>
            </Position>
            <AltitudeMeters>28.200000762939453125</AltitudeMeters>
            <DistanceMeters>18206.167765682</DistanceMeters>
          </Trackpoint>
          <Trackpoint>
            <Time>2018-06-10T11:42:57.000Z</Time>
            <Position>
              <LatitudeDegrees>35.89190809987485408782958984375</LatitudeDegrees>
              <LongitudeDegrees>-5.3267224319279193878173828125</LongitudeDegrees>
            </Position>
            <AltitudeMeters>28.6000003814697265625</AltitudeMeters>
            <DistanceMeters>18214.008477412</DistanceMeters>
          </Trackpoint>
        </Track>
      </Lap>
    </Activity>
  </Activities>
</TrainingCenterDatabase>
